<?xml version="1.0" encoding="UTF-8" standalone="no" ?>
<gpx xmlns="http://www.topografix.com/GPX/1/1" xmlns:xsi="http://www.w3.org/2001/XMLSchema-instance" xsi:schemaLocation="http://www.topografix.com/GPX/1/1 http://www.topografix.com/GPX/1/1/gpx.xsd" version="1.1" creator="VisuGPX - https://www.visugpx.com">
  <metadata>
    <name>Pareloup</name>
  </metadata>
  <trk>
    <name><![CDATA[Villefranche de Panat]]></name>
    <extensions>
      <line xmlns="http://www.topografix.com/GPX/gpx_style/0/2">
        <color>0000FF</color>
        <width>4</width>
      </line>
    </extensions>
    <trkseg>
      <trkpt lat="44.23765" lon="2.59892">
        <ele>774.96</ele>
        <time>2022-07-12T17:02:55Z</time>
        <extensions>
          <visugpx:TrkExtension xmlns:visugpx="https://www.visugpx.com/editgpx/">
            <visugpx:node>3</visugpx:node>
            </visugpx:TrkExtension>
        </extensions>
      </trkpt>
      <trkpt lat="44.23732" lon="2.59947">
        <ele>801.88</ele>
        <time>2022-07-13T05:35:13Z</time>
      </trkpt>
      <trkpt lat="44.23726" lon="2.59935">
        <ele>801.4</ele>
        <time>2022-07-13T05:35:22Z</time>
      </trkpt>
      <trkpt lat="44.23719" lon="2.59931">
        <ele>798.99</ele>
        <time>2022-07-13T05:35:29Z</time>
      </trkpt>
      <trkpt lat="44.2371" lon="2.59928">
        <ele>794.67</ele>
        <time>2022-07-13T05:35:37Z</time>
      </trkpt>
      <trkpt lat="44.23703" lon="2.59922">
        <ele>790.82</ele>
        <time>2022-07-13T05:35:45Z</time>
      </trkpt>
      <trkpt lat="44.23696" lon="2.59915">
        <ele>788.9</ele>
        <time>2022-07-13T05:35:53Z</time>
      </trkpt>
      <trkpt lat="44.23686" lon="2.59904">
        <ele>786.5</ele>
        <time>2022-07-13T05:36:04Z</time>
      </trkpt>
      <trkpt lat="44.23679" lon="2.59895">
        <ele>785.05</ele>
        <time>2022-07-13T05:36:12Z</time>
      </trkpt>
      <trkpt lat="44.23672" lon="2.59883">
        <ele>784.09</ele>
        <time>2022-07-13T05:36:20Z</time>
      </trkpt>
      <trkpt lat="44.23665" lon="2.59872">
        <ele>783.61</ele>
        <time>2022-07-13T05:36:28Z</time>
      </trkpt>
      <trkpt lat="44.23659" lon="2.59858">
        <ele>782.65</ele>
        <time>2022-07-13T05:36:39Z</time>
      </trkpt>
      <trkpt lat="44.23654" lon="2.59844">
        <ele>782.65</ele>
        <time>2022-07-13T05:36:49Z</time>
      </trkpt>
      <trkpt lat="44.23646" lon="2.59834">
        <ele>782.65</ele>
        <time>2022-07-13T05:36:56Z</time>
      </trkpt>
      <trkpt lat="44.23631" lon="2.59826">
        <ele>782.17</ele>
        <time>2022-07-13T05:37:04Z</time>
      </trkpt>
      <trkpt lat="44.23622" lon="2.59816">
        <ele>781.69</ele>
        <time>2022-07-13T05:37:12Z</time>
      </trkpt>
      <trkpt lat="44.23613" lon="2.59808">
        <ele>781.69</ele>
        <time>2022-07-13T05:37:20Z</time>
      </trkpt>
      <trkpt lat="44.23604" lon="2.59799">
        <ele>781.69</ele>
        <time>2022-07-13T05:37:28Z</time>
      </trkpt>
      <trkpt lat="44.23596" lon="2.59792">
        <ele>780.73</ele>
        <time>2022-07-13T05:37:36Z</time>
      </trkpt>
      <trkpt lat="44.23588" lon="2.59788">
        <ele>776.88</ele>
        <time>2022-07-13T05:37:44Z</time>
      </trkpt>
      <trkpt lat="44.23581" lon="2.59778">
        <ele>775.44</ele>
        <time>2022-07-13T05:37:52Z</time>
      </trkpt>
      <trkpt lat="44.23572" lon="2.59769">
        <ele>774</ele>
        <time>2022-07-13T05:38:00Z</time>
      </trkpt>
      <trkpt lat="44.23566" lon="2.5976">
        <ele>772.56</ele>
        <time>2022-07-13T05:38:08Z</time>
      </trkpt>
      <trkpt lat="44.23558" lon="2.59749">
        <ele>771.6</ele>
        <time>2022-07-13T05:38:17Z</time>
      </trkpt>
      <trkpt lat="44.23548" lon="2.59741">
        <ele>770.15</ele>
        <time>2022-07-13T05:38:25Z</time>
      </trkpt>
      <trkpt lat="44.23539" lon="2.59731">
        <ele>769.19</ele>
        <time>2022-07-13T05:38:33Z</time>
      </trkpt>
      <trkpt lat="44.23532" lon="2.59723">
        <ele>768.71</ele>
        <time>2022-07-13T05:38:41Z</time>
      </trkpt>
      <trkpt lat="44.23524" lon="2.59716">
        <ele>767.27</ele>
        <time>2022-07-13T05:38:50Z</time>
      </trkpt>
      <trkpt lat="44.23514" lon="2.5971">
        <ele>766.79</ele>
        <time>2022-07-13T05:38:59Z</time>
      </trkpt>
      <trkpt lat="44.23504" lon="2.59701">
        <ele>766.31</ele>
        <time>2022-07-13T05:39:07Z</time>
      </trkpt>
      <trkpt lat="44.23496" lon="2.59688">
        <ele>764.87</ele>
        <time>2022-07-13T05:39:15Z</time>
      </trkpt>
      <trkpt lat="44.2349" lon="2.59678">
        <ele>764.87</ele>
        <time>2022-07-13T05:39:22Z</time>
      </trkpt>
      <trkpt lat="44.23482" lon="2.5967">
        <ele>763.9</ele>
        <time>2022-07-13T05:39:30Z</time>
      </trkpt>
      <trkpt lat="44.23473" lon="2.59661">
        <ele>763.42</ele>
        <time>2022-07-13T05:39:38Z</time>
      </trkpt>
      <trkpt lat="44.23463" lon="2.59654">
        <ele>762.94</ele>
        <time>2022-07-13T05:39:46Z</time>
      </trkpt>
      <trkpt lat="44.23454" lon="2.59645">
        <ele>762.94</ele>
        <time>2022-07-13T05:39:54Z</time>
      </trkpt>
      <trkpt lat="44.23446" lon="2.59636">
        <ele>762.94</ele>
        <time>2022-07-13T05:40:02Z</time>
      </trkpt>
      <trkpt lat="44.23439" lon="2.59627">
        <ele>762.46</ele>
        <time>2022-07-13T05:40:11Z</time>
      </trkpt>
      <trkpt lat="44.23431" lon="2.59616">
        <ele>761.5</ele>
        <time>2022-07-13T05:40:20Z</time>
      </trkpt>
      <trkpt lat="44.23414" lon="2.59607">
        <ele>761.98</ele>
        <time>2022-07-13T05:40:37Z</time>
      </trkpt>
      <trkpt lat="44.23402" lon="2.59613">
        <ele>762.46</ele>
        <time>2022-07-13T05:40:46Z</time>
      </trkpt>
      <trkpt lat="44.23389" lon="2.59622">
        <ele>762.94</ele>
        <time>2022-07-13T05:41:00Z</time>
      </trkpt>
      <trkpt lat="44.23378" lon="2.59635">
        <ele>763.42</ele>
        <time>2022-07-13T05:41:09Z</time>
      </trkpt>
      <trkpt lat="44.23363" lon="2.5966">
        <ele>764.39</ele>
        <time>2022-07-13T05:41:27Z</time>
      </trkpt>
      <trkpt lat="44.23348" lon="2.59676">
        <ele>765.83</ele>
        <time>2022-07-13T05:41:43Z</time>
      </trkpt>
      <trkpt lat="44.23339" lon="2.59686">
        <ele>767.27</ele>
        <time>2022-07-13T05:41:53Z</time>
      </trkpt>
      <trkpt lat="44.23327" lon="2.597">
        <ele>767.75</ele>
        <time>2022-07-13T05:42:03Z</time>
      </trkpt>
      <trkpt lat="44.23315" lon="2.5971">
        <ele>767.75</ele>
        <time>2022-07-13T05:42:13Z</time>
      </trkpt>
      <trkpt lat="44.23306" lon="2.59719">
        <ele>768.23</ele>
        <time>2022-07-13T05:42:21Z</time>
      </trkpt>
      <trkpt lat="44.23297" lon="2.59729">
        <ele>767.27</ele>
        <time>2022-07-13T05:42:30Z</time>
      </trkpt>
      <trkpt lat="44.23279" lon="2.59746">
        <ele>768.71</ele>
        <time>2022-07-13T05:42:51Z</time>
      </trkpt>
      <trkpt lat="44.23267" lon="2.5976">
        <ele>766.79</ele>
        <time>2022-07-13T05:43:00Z</time>
      </trkpt>
      <trkpt lat="44.23257" lon="2.59769">
        <ele>766.79</ele>
        <time>2022-07-13T05:43:07Z</time>
      </trkpt>
      <trkpt lat="44.23247" lon="2.59775">
        <ele>766.79</ele>
        <time>2022-07-13T05:43:15Z</time>
      </trkpt>
      <trkpt lat="44.23237" lon="2.59776">
        <ele>767.27</ele>
        <time>2022-07-13T05:43:22Z</time>
      </trkpt>
      <trkpt lat="44.23227" lon="2.59781">
        <ele>766.79</ele>
        <time>2022-07-13T05:43:30Z</time>
      </trkpt>
      <trkpt lat="44.23221" lon="2.59789">
        <ele>765.35</ele>
        <time>2022-07-13T05:43:37Z</time>
      </trkpt>
      <trkpt lat="44.23213" lon="2.59795">
        <ele>765.35</ele>
        <time>2022-07-13T05:43:44Z</time>
      </trkpt>
      <trkpt lat="44.23204" lon="2.59804">
        <ele>764.39</ele>
        <time>2022-07-13T05:43:51Z</time>
      </trkpt>
      <trkpt lat="44.23195" lon="2.59811">
        <ele>763.9</ele>
        <time>2022-07-13T05:43:58Z</time>
      </trkpt>
      <trkpt lat="44.23186" lon="2.59817">
        <ele>762.46</ele>
        <time>2022-07-13T05:44:05Z</time>
      </trkpt>
      <trkpt lat="44.23176" lon="2.59819">
        <ele>760.06</ele>
        <time>2022-07-13T05:44:13Z</time>
      </trkpt>
      <trkpt lat="44.23166" lon="2.5983">
        <ele>756.21</ele>
        <time>2022-07-13T05:44:26Z</time>
      </trkpt>
      <trkpt lat="44.23161" lon="2.59845">
        <ele>755.25</ele>
        <time>2022-07-13T05:44:35Z</time>
      </trkpt>
      <trkpt lat="44.23155" lon="2.59857">
        <ele>753.81</ele>
        <time>2022-07-13T05:44:44Z</time>
      </trkpt>
      <trkpt lat="44.2314" lon="2.59899">
        <ele>749.49</ele>
        <time>2022-07-13T05:45:10Z</time>
      </trkpt>
      <trkpt lat="44.23133" lon="2.59915">
        <ele>748.52</ele>
        <time>2022-07-13T05:45:20Z</time>
      </trkpt>
      <trkpt lat="44.23126" lon="2.59931">
        <ele>747.08</ele>
        <time>2022-07-13T05:45:28Z</time>
      </trkpt>
      <trkpt lat="44.23118" lon="2.59946">
        <ele>744.68</ele>
        <time>2022-07-13T05:45:37Z</time>
      </trkpt>
      <trkpt lat="44.23109" lon="2.59958">
        <ele>742.76</ele>
        <time>2022-07-13T05:45:45Z</time>
      </trkpt>
      <trkpt lat="44.23102" lon="2.59972">
        <ele>739.87</ele>
        <time>2022-07-13T05:45:53Z</time>
      </trkpt>
      <trkpt lat="44.23096" lon="2.59987">
        <ele>736.99</ele>
        <time>2022-07-13T05:46:02Z</time>
      </trkpt>
      <trkpt lat="44.23088" lon="2.59999">
        <ele>733.62</ele>
        <time>2022-07-13T05:46:12Z</time>
      </trkpt>
      <trkpt lat="44.23083" lon="2.60013">
        <ele>731.7</ele>
        <time>2022-07-13T05:46:22Z</time>
      </trkpt>
      <trkpt lat="44.23075" lon="2.60026">
        <ele>730.26</ele>
        <time>2022-07-13T05:46:31Z</time>
      </trkpt>
      <trkpt lat="44.23069" lon="2.60051">
        <ele>724.49</ele>
        <time>2022-07-13T05:47:11Z</time>
      </trkpt>
      <trkpt lat="44.23062" lon="2.60044">
        <ele>724.01</ele>
        <time>2022-07-13T05:47:16Z</time>
      </trkpt>
      <trkpt lat="44.23055" lon="2.60039">
        <ele>722.09</ele>
        <time>2022-07-13T05:47:21Z</time>
      </trkpt>
      <trkpt lat="44.23052" lon="2.60036">
        <ele>721.13</ele>
        <time>2022-07-13T05:47:26Z</time>
      </trkpt>
      <trkpt lat="44.23066" lon="2.60048">
        <ele>712.95</ele>
        <time>2022-07-13T05:48:54Z</time>
      </trkpt>
      <trkpt lat="44.23059" lon="2.6006">
        <ele>716.32</ele>
        <time>2022-07-13T05:49:02Z</time>
      </trkpt>
      <trkpt lat="44.23051" lon="2.6007">
        <ele>715.84</ele>
        <time>2022-07-13T05:49:10Z</time>
      </trkpt>
      <trkpt lat="44.23045" lon="2.60084">
        <ele>716.8</ele>
        <time>2022-07-13T05:49:17Z</time>
      </trkpt>
      <trkpt lat="44.2304" lon="2.60098">
        <ele>719.68</ele>
        <time>2022-07-13T05:49:24Z</time>
      </trkpt>
      <trkpt lat="44.23033" lon="2.60111">
        <ele>722.09</ele>
        <time>2022-07-13T05:49:32Z</time>
      </trkpt>
      <trkpt lat="44.23025" lon="2.6012">
        <ele>723.05</ele>
        <time>2022-07-13T05:49:39Z</time>
      </trkpt>
      <trkpt lat="44.23017" lon="2.60126">
        <ele>723.05</ele>
        <time>2022-07-13T05:49:46Z</time>
      </trkpt>
      <trkpt lat="44.23008" lon="2.60134">
        <ele>723.05</ele>
        <time>2022-07-13T05:49:54Z</time>
      </trkpt>
      <trkpt lat="44.23" lon="2.60144">
        <ele>723.53</ele>
        <time>2022-07-13T05:50:01Z</time>
      </trkpt>
      <trkpt lat="44.22992" lon="2.6015">
        <ele>723.05</ele>
        <time>2022-07-13T05:50:08Z</time>
      </trkpt>
      <trkpt lat="44.22984" lon="2.60158">
        <ele>723.53</ele>
        <time>2022-07-13T05:50:15Z</time>
      </trkpt>
      <trkpt lat="44.22975" lon="2.60165">
        <ele>723.53</ele>
        <time>2022-07-13T05:50:22Z</time>
      </trkpt>
      <trkpt lat="44.22967" lon="2.60174">
        <ele>724.01</ele>
        <time>2022-07-13T05:50:29Z</time>
      </trkpt>
      <trkpt lat="44.22959" lon="2.60183">
        <ele>724.01</ele>
        <time>2022-07-13T05:50:36Z</time>
      </trkpt>
      <trkpt lat="44.22951" lon="2.60192">
        <ele>724.01</ele>
        <time>2022-07-13T05:50:43Z</time>
      </trkpt>
      <trkpt lat="44.22942" lon="2.60201">
        <ele>724.01</ele>
        <time>2022-07-13T05:50:51Z</time>
      </trkpt>
      <trkpt lat="44.22934" lon="2.6021">
        <ele>723.53</ele>
        <time>2022-07-13T05:50:59Z</time>
      </trkpt>
      <trkpt lat="44.22926" lon="2.60219">
        <ele>723.05</ele>
        <time>2022-07-13T05:51:07Z</time>
      </trkpt>
      <trkpt lat="44.22918" lon="2.60228">
        <ele>722.57</ele>
        <time>2022-07-13T05:51:15Z</time>
      </trkpt>
      <trkpt lat="44.22911" lon="2.60237">
        <ele>723.05</ele>
        <time>2022-07-13T05:51:23Z</time>
      </trkpt>
      <trkpt lat="44.22902" lon="2.60246">
        <ele>723.05</ele>
        <time>2022-07-13T05:51:32Z</time>
      </trkpt>
      <trkpt lat="44.22894" lon="2.60256">
        <ele>722.57</ele>
        <time>2022-07-13T05:51:41Z</time>
      </trkpt>
      <trkpt lat="44.22885" lon="2.60266">
        <ele>722.57</ele>
        <time>2022-07-13T05:51:49Z</time>
      </trkpt>
      <trkpt lat="44.22877" lon="2.60278">
        <ele>720.65</ele>
        <time>2022-07-13T05:51:57Z</time>
      </trkpt>
      <trkpt lat="44.2287" lon="2.60291">
        <ele>720.16</ele>
        <time>2022-07-13T05:52:07Z</time>
      </trkpt>
      <trkpt lat="44.22868" lon="2.60306">
        <ele>719.68</ele>
        <time>2022-07-13T05:52:15Z</time>
      </trkpt>
      <trkpt lat="44.22865" lon="2.60322">
        <ele>720.65</ele>
        <time>2022-07-13T05:52:24Z</time>
      </trkpt>
      <trkpt lat="44.22833" lon="2.60356">
        <ele>710.07</ele>
        <time>2022-07-13T05:58:25Z</time>
      </trkpt>
      <trkpt lat="44.22817" lon="2.60359">
        <ele>710.07</ele>
        <time>2022-07-13T05:58:35Z</time>
      </trkpt>
      <trkpt lat="44.22804" lon="2.60362">
        <ele>710.07</ele>
        <time>2022-07-13T05:58:44Z</time>
      </trkpt>
      <trkpt lat="44.22793" lon="2.60363">
        <ele>709.59</ele>
        <time>2022-07-13T05:58:52Z</time>
      </trkpt>
      <trkpt lat="44.22778" lon="2.60366">
        <ele>710.55</ele>
        <time>2022-07-13T05:59:01Z</time>
      </trkpt>
      <trkpt lat="44.22768" lon="2.60366">
        <ele>710.07</ele>
        <time>2022-07-13T05:59:08Z</time>
      </trkpt>
      <trkpt lat="44.22755" lon="2.60366">
        <ele>711.03</ele>
        <time>2022-07-13T05:59:17Z</time>
      </trkpt>
      <trkpt lat="44.22745" lon="2.60371">
        <ele>711.99</ele>
        <time>2022-07-13T05:59:25Z</time>
      </trkpt>
      <trkpt lat="44.22736" lon="2.6038">
        <ele>714.4</ele>
        <time>2022-07-13T05:59:33Z</time>
      </trkpt>
      <trkpt lat="44.2273" lon="2.60395">
        <ele>715.84</ele>
        <time>2022-07-13T05:59:42Z</time>
      </trkpt>
      <trkpt lat="44.2273" lon="2.60412">
        <ele>717.28</ele>
        <time>2022-07-13T05:59:51Z</time>
      </trkpt>
      <trkpt lat="44.22734" lon="2.60427">
        <ele>718.72</ele>
        <time>2022-07-13T05:59:59Z</time>
      </trkpt>
      <trkpt lat="44.22738" lon="2.60441">
        <ele>721.13</ele>
        <time>2022-07-13T06:00:06Z</time>
      </trkpt>
      <trkpt lat="44.22743" lon="2.60453">
        <ele>722.57</ele>
        <time>2022-07-13T06:00:13Z</time>
      </trkpt>
      <trkpt lat="44.22748" lon="2.60465">
        <ele>724.49</ele>
        <time>2022-07-13T06:00:20Z</time>
      </trkpt>
      <trkpt lat="44.22753" lon="2.60478">
        <ele>725.93</ele>
        <time>2022-07-13T06:00:27Z</time>
      </trkpt>
      <trkpt lat="44.22758" lon="2.60489">
        <ele>729.3</ele>
        <time>2022-07-13T06:00:34Z</time>
      </trkpt>
      <trkpt lat="44.22759" lon="2.60504">
        <ele>730.26</ele>
        <time>2022-07-13T06:00:41Z</time>
      </trkpt>
      <trkpt lat="44.22759" lon="2.60518">
        <ele>731.22</ele>
        <time>2022-07-13T06:00:48Z</time>
      </trkpt>
      <trkpt lat="44.22758" lon="2.60533">
        <ele>732.66</ele>
        <time>2022-07-13T06:00:55Z</time>
      </trkpt>
      <trkpt lat="44.22756" lon="2.60548">
        <ele>732.66</ele>
        <time>2022-07-13T06:01:02Z</time>
      </trkpt>
      <trkpt lat="44.22755" lon="2.60565">
        <ele>732.66</ele>
        <time>2022-07-13T06:01:10Z</time>
      </trkpt>
      <trkpt lat="44.22753" lon="2.60581">
        <ele>733.14</ele>
        <time>2022-07-13T06:01:19Z</time>
      </trkpt>
      <trkpt lat="44.2275" lon="2.60598">
        <ele>734.1</ele>
        <time>2022-07-13T06:01:28Z</time>
      </trkpt>
      <trkpt lat="44.22747" lon="2.60613">
        <ele>734.58</ele>
        <time>2022-07-13T06:01:36Z</time>
      </trkpt>
      <trkpt lat="44.22745" lon="2.60629">
        <ele>735.55</ele>
        <time>2022-07-13T06:01:44Z</time>
      </trkpt>
      <trkpt lat="44.22744" lon="2.60644">
        <ele>736.99</ele>
        <time>2022-07-13T06:01:51Z</time>
      </trkpt>
      <trkpt lat="44.22741" lon="2.60656">
        <ele>737.47</ele>
        <time>2022-07-13T06:01:58Z</time>
      </trkpt>
      <trkpt lat="44.22738" lon="2.60671">
        <ele>738.91</ele>
        <time>2022-07-13T06:02:06Z</time>
      </trkpt>
      <trkpt lat="44.22734" lon="2.60688">
        <ele>738.43</ele>
        <time>2022-07-13T06:02:14Z</time>
      </trkpt>
      <trkpt lat="44.2273" lon="2.60703">
        <ele>738.91</ele>
        <time>2022-07-13T06:02:22Z</time>
      </trkpt>
      <trkpt lat="44.22726" lon="2.60717">
        <ele>739.39</ele>
        <time>2022-07-13T06:02:30Z</time>
      </trkpt>
      <trkpt lat="44.22722" lon="2.60732">
        <ele>739.39</ele>
        <time>2022-07-13T06:02:39Z</time>
      </trkpt>
      <trkpt lat="44.22716" lon="2.60749">
        <ele>739.39</ele>
        <time>2022-07-13T06:02:50Z</time>
      </trkpt>
      <trkpt lat="44.22704" lon="2.60757">
        <ele>738.43</ele>
        <time>2022-07-13T06:03:00Z</time>
      </trkpt>
      <trkpt lat="44.22693" lon="2.60761">
        <ele>737.95</ele>
        <time>2022-07-13T06:03:08Z</time>
      </trkpt>
      <trkpt lat="44.22683" lon="2.60765">
        <ele>738.43</ele>
        <time>2022-07-13T06:03:15Z</time>
      </trkpt>
      <trkpt lat="44.22674" lon="2.60771">
        <ele>738.91</ele>
        <time>2022-07-13T06:03:22Z</time>
      </trkpt>
      <trkpt lat="44.22666" lon="2.60775">
        <ele>739.39</ele>
        <time>2022-07-13T06:03:29Z</time>
      </trkpt>
      <trkpt lat="44.22655" lon="2.60781">
        <ele>739.39</ele>
        <time>2022-07-13T06:03:37Z</time>
      </trkpt>
      <trkpt lat="44.22645" lon="2.60785">
        <ele>740.35</ele>
        <time>2022-07-13T06:03:44Z</time>
      </trkpt>
      <trkpt lat="44.22636" lon="2.60791">
        <ele>741.79</ele>
        <time>2022-07-13T06:03:51Z</time>
      </trkpt>
      <trkpt lat="44.22626" lon="2.60797">
        <ele>744.2</ele>
        <time>2022-07-13T06:03:58Z</time>
      </trkpt>
      <trkpt lat="44.22614" lon="2.60802">
        <ele>745.64</ele>
        <time>2022-07-13T06:04:06Z</time>
      </trkpt>
      <trkpt lat="44.22604" lon="2.60807">
        <ele>747.08</ele>
        <time>2022-07-13T06:04:13Z</time>
      </trkpt>
      <trkpt lat="44.22595" lon="2.6081">
        <ele>747.56</ele>
        <time>2022-07-13T06:04:20Z</time>
      </trkpt>
      <trkpt lat="44.22585" lon="2.60814">
        <ele>747.56</ele>
        <time>2022-07-13T06:04:27Z</time>
      </trkpt>
      <trkpt lat="44.22573" lon="2.60817">
        <ele>748.52</ele>
        <time>2022-07-13T06:04:35Z</time>
      </trkpt>
      <trkpt lat="44.22562" lon="2.60817">
        <ele>749</ele>
        <time>2022-07-13T06:04:43Z</time>
      </trkpt>
      <trkpt lat="44.22551" lon="2.60813">
        <ele>749.49</ele>
        <time>2022-07-13T06:04:52Z</time>
      </trkpt>
      <trkpt lat="44.22528" lon="2.60789">
        <ele>753.33</ele>
        <time>2022-07-13T06:05:11Z</time>
      </trkpt>
      <trkpt lat="44.2252" lon="2.60778">
        <ele>754.77</ele>
        <time>2022-07-13T06:05:21Z</time>
      </trkpt>
      <trkpt lat="44.22512" lon="2.6077">
        <ele>756.69</ele>
        <time>2022-07-13T06:05:29Z</time>
      </trkpt>
      <trkpt lat="44.22503" lon="2.60762">
        <ele>757.18</ele>
        <time>2022-07-13T06:05:38Z</time>
      </trkpt>
      <trkpt lat="44.22495" lon="2.60754">
        <ele>756.69</ele>
        <time>2022-07-13T06:05:45Z</time>
      </trkpt>
      <trkpt lat="44.22487" lon="2.60746">
        <ele>756.69</ele>
        <time>2022-07-13T06:05:52Z</time>
      </trkpt>
      <trkpt lat="44.22477" lon="2.60736">
        <ele>756.69</ele>
        <time>2022-07-13T06:06:00Z</time>
      </trkpt>
      <trkpt lat="44.22468" lon="2.60729">
        <ele>756.69</ele>
        <time>2022-07-13T06:06:07Z</time>
      </trkpt>
      <trkpt lat="44.22459" lon="2.60721">
        <ele>757.18</ele>
        <time>2022-07-13T06:06:15Z</time>
      </trkpt>
      <trkpt lat="44.22449" lon="2.60715">
        <ele>757.18</ele>
        <time>2022-07-13T06:06:23Z</time>
      </trkpt>
      <trkpt lat="44.22439" lon="2.60708">
        <ele>757.18</ele>
        <time>2022-07-13T06:06:30Z</time>
      </trkpt>
      <trkpt lat="44.2243" lon="2.60698">
        <ele>757.18</ele>
        <time>2022-07-13T06:06:39Z</time>
      </trkpt>
      <trkpt lat="44.22423" lon="2.60683">
        <ele>756.69</ele>
        <time>2022-07-13T06:06:48Z</time>
      </trkpt>
      <trkpt lat="44.22414" lon="2.60666">
        <ele>755.25</ele>
        <time>2022-07-13T06:07:00Z</time>
      </trkpt>
      <trkpt lat="44.22406" lon="2.60649">
        <ele>756.21</ele>
        <time>2022-07-13T06:07:09Z</time>
      </trkpt>
      <trkpt lat="44.224" lon="2.60638">
        <ele>756.69</ele>
        <time>2022-07-13T06:07:15Z</time>
      </trkpt>
      <trkpt lat="44.22392" lon="2.60628">
        <ele>756.69</ele>
        <time>2022-07-13T06:07:21Z</time>
      </trkpt>
      <trkpt lat="44.22385" lon="2.60616">
        <ele>756.21</ele>
        <time>2022-07-13T06:07:29Z</time>
      </trkpt>
      <trkpt lat="44.22374" lon="2.60605">
        <ele>757.18</ele>
        <time>2022-07-13T06:07:38Z</time>
      </trkpt>
      <trkpt lat="44.22366" lon="2.60594">
        <ele>758.14</ele>
        <time>2022-07-13T06:07:48Z</time>
      </trkpt>
      <trkpt lat="44.22358" lon="2.60586">
        <ele>758.62</ele>
        <time>2022-07-13T06:07:55Z</time>
      </trkpt>
      <trkpt lat="44.22345" lon="2.60575">
        <ele>758.62</ele>
        <time>2022-07-13T06:08:07Z</time>
      </trkpt>
      <trkpt lat="44.22334" lon="2.60566">
        <ele>758.14</ele>
        <time>2022-07-13T06:08:16Z</time>
      </trkpt>
      <trkpt lat="44.22324" lon="2.60558">
        <ele>756.69</ele>
        <time>2022-07-13T06:08:23Z</time>
      </trkpt>
      <trkpt lat="44.22314" lon="2.6055">
        <ele>755.73</ele>
        <time>2022-07-13T06:08:30Z</time>
      </trkpt>
      <trkpt lat="44.22305" lon="2.60543">
        <ele>753.81</ele>
        <time>2022-07-13T06:08:37Z</time>
      </trkpt>
      <trkpt lat="44.22297" lon="2.60537">
        <ele>752.37</ele>
        <time>2022-07-13T06:08:44Z</time>
      </trkpt>
      <trkpt lat="44.22288" lon="2.6053">
        <ele>750.45</ele>
        <time>2022-07-13T06:08:52Z</time>
      </trkpt>
      <trkpt lat="44.22278" lon="2.60522">
        <ele>749</ele>
        <time>2022-07-13T06:08:59Z</time>
      </trkpt>
      <trkpt lat="44.22267" lon="2.60516">
        <ele>748.04</ele>
        <time>2022-07-13T06:09:06Z</time>
      </trkpt>
      <trkpt lat="44.22258" lon="2.6051">
        <ele>747.56</ele>
        <time>2022-07-13T06:09:12Z</time>
      </trkpt>
      <trkpt lat="44.22248" lon="2.60507">
        <ele>747.56</ele>
        <time>2022-07-13T06:09:19Z</time>
      </trkpt>
      <trkpt lat="44.22238" lon="2.60502">
        <ele>747.56</ele>
        <time>2022-07-13T06:09:26Z</time>
      </trkpt>
      <trkpt lat="44.22228" lon="2.60498">
        <ele>746.6</ele>
        <time>2022-07-13T06:09:33Z</time>
      </trkpt>
      <trkpt lat="44.22218" lon="2.60493">
        <ele>746.12</ele>
        <time>2022-07-13T06:09:41Z</time>
      </trkpt>
      <trkpt lat="44.22207" lon="2.60488">
        <ele>745.64</ele>
        <time>2022-07-13T06:09:48Z</time>
      </trkpt>
      <trkpt lat="44.22195" lon="2.60485">
        <ele>745.16</ele>
        <time>2022-07-13T06:09:55Z</time>
      </trkpt>
      <trkpt lat="44.22185" lon="2.60482">
        <ele>744.68</ele>
        <time>2022-07-13T06:10:02Z</time>
      </trkpt>
      <trkpt lat="44.22174" lon="2.60477">
        <ele>744.68</ele>
        <time>2022-07-13T06:10:09Z</time>
      </trkpt>
      <trkpt lat="44.22165" lon="2.60474">
        <ele>743.72</ele>
        <time>2022-07-13T06:10:15Z</time>
      </trkpt>
      <trkpt lat="44.22156" lon="2.6047">
        <ele>742.76</ele>
        <time>2022-07-13T06:10:21Z</time>
      </trkpt>
      <trkpt lat="44.22145" lon="2.60467">
        <ele>742.28</ele>
        <time>2022-07-13T06:10:28Z</time>
      </trkpt>
      <trkpt lat="44.22135" lon="2.60464">
        <ele>742.28</ele>
        <time>2022-07-13T06:10:34Z</time>
      </trkpt>
      <trkpt lat="44.22125" lon="2.60461">
        <ele>741.79</ele>
        <time>2022-07-13T06:10:40Z</time>
      </trkpt>
      <trkpt lat="44.22115" lon="2.6046">
        <ele>741.79</ele>
        <time>2022-07-13T06:10:47Z</time>
      </trkpt>
      <trkpt lat="44.22105" lon="2.60456">
        <ele>741.31</ele>
        <time>2022-07-13T06:10:55Z</time>
      </trkpt>
      <trkpt lat="44.22093" lon="2.60454">
        <ele>740.83</ele>
        <time>2022-07-13T06:11:02Z</time>
      </trkpt>
      <trkpt lat="44.22083" lon="2.60452">
        <ele>739.39</ele>
        <time>2022-07-13T06:11:08Z</time>
      </trkpt>
      <trkpt lat="44.22073" lon="2.6045">
        <ele>737.95</ele>
        <time>2022-07-13T06:11:14Z</time>
      </trkpt>
      <trkpt lat="44.22063" lon="2.60447">
        <ele>736.99</ele>
        <time>2022-07-13T06:11:21Z</time>
      </trkpt>
      <trkpt lat="44.22054" lon="2.60445">
        <ele>735.07</ele>
        <time>2022-07-13T06:11:28Z</time>
      </trkpt>
      <trkpt lat="44.22043" lon="2.60445">
        <ele>734.1</ele>
        <time>2022-07-13T06:11:35Z</time>
      </trkpt>
      <trkpt lat="44.22034" lon="2.6045">
        <ele>734.1</ele>
        <time>2022-07-13T06:11:43Z</time>
      </trkpt>
      <trkpt lat="44.22024" lon="2.6046">
        <ele>733.62</ele>
        <time>2022-07-13T06:11:51Z</time>
      </trkpt>
      <trkpt lat="44.22016" lon="2.6047">
        <ele>733.14</ele>
        <time>2022-07-13T06:11:58Z</time>
      </trkpt>
      <trkpt lat="44.22009" lon="2.60479">
        <ele>733.14</ele>
        <time>2022-07-13T06:12:05Z</time>
      </trkpt>
      <trkpt lat="44.22001" lon="2.60491">
        <ele>732.18</ele>
        <time>2022-07-13T06:12:12Z</time>
      </trkpt>
      <trkpt lat="44.21993" lon="2.60504">
        <ele>731.7</ele>
        <time>2022-07-13T06:12:20Z</time>
      </trkpt>
      <trkpt lat="44.21976" lon="2.60537">
        <ele>728.82</ele>
        <time>2022-07-13T06:12:41Z</time>
      </trkpt>
      <trkpt lat="44.21962" lon="2.60543">
        <ele>727.86</ele>
        <time>2022-07-13T06:12:50Z</time>
      </trkpt>
      <trkpt lat="44.2195" lon="2.60536">
        <ele>725.45</ele>
        <time>2022-07-13T06:12:58Z</time>
      </trkpt>
      <trkpt lat="44.2194" lon="2.60525">
        <ele>724.49</ele>
        <time>2022-07-13T06:13:06Z</time>
      </trkpt>
      <trkpt lat="44.21931" lon="2.60513">
        <ele>723.05</ele>
        <time>2022-07-13T06:13:14Z</time>
      </trkpt>
      <trkpt lat="44.21923" lon="2.60503">
        <ele>722.57</ele>
        <time>2022-07-13T06:13:23Z</time>
      </trkpt>
      <trkpt lat="44.21912" lon="2.60494">
        <ele>722.09</ele>
        <time>2022-07-13T06:13:30Z</time>
      </trkpt>
      <trkpt lat="44.21904" lon="2.60489">
        <ele>724.97</ele>
        <time>2022-07-13T06:13:36Z</time>
      </trkpt>
      <trkpt lat="44.21896" lon="2.60485">
        <ele>725.45</ele>
        <time>2022-07-13T06:13:43Z</time>
      </trkpt>
      <trkpt lat="44.21886" lon="2.60481">
        <ele>724.49</ele>
        <time>2022-07-13T06:13:51Z</time>
      </trkpt>
      <trkpt lat="44.21875" lon="2.60478">
        <ele>725.45</ele>
        <time>2022-07-13T06:13:59Z</time>
      </trkpt>
      <trkpt lat="44.21865" lon="2.60483">
        <ele>724.97</ele>
        <time>2022-07-13T06:14:09Z</time>
      </trkpt>
      <trkpt lat="44.21877" lon="2.60543">
        <ele>723.53</ele>
        <time>2022-07-13T06:14:41Z</time>
      </trkpt>
      <trkpt lat="44.219" lon="2.60609">
        <ele>733.14</ele>
        <time>2022-07-13T06:15:32Z</time>
      </trkpt>
      <trkpt lat="44.21899" lon="2.60745">
        <ele>735.07</ele>
        <time>2022-07-13T06:16:38Z</time>
      </trkpt>
      <trkpt lat="44.21893" lon="2.60777">
        <ele>734.1</ele>
        <time>2022-07-13T06:16:56Z</time>
      </trkpt>
      <trkpt lat="44.21881" lon="2.6081">
        <ele>732.66</ele>
        <time>2022-07-13T06:17:13Z</time>
      </trkpt>
      <trkpt lat="44.21865" lon="2.60844">
        <ele>735.55</ele>
        <time>2022-07-13T06:17:34Z</time>
      </trkpt>
      <trkpt lat="44.21848" lon="2.60859">
        <ele>734.58</ele>
        <time>2022-07-13T06:17:46Z</time>
      </trkpt>
      <trkpt lat="44.21823" lon="2.61027">
        <ele>735.55</ele>
        <time>2022-07-13T06:19:15Z</time>
      </trkpt>
      <trkpt lat="44.21837" lon="2.61158">
        <ele>751.89</ele>
        <time>2022-07-13T06:20:19Z</time>
      </trkpt>
      <trkpt lat="44.21811" lon="2.61289">
        <ele>748.52</ele>
        <time>2022-07-13T06:21:32Z</time>
      </trkpt>
      <trkpt lat="44.21801" lon="2.61302">
        <ele>750.45</ele>
        <time>2022-07-13T06:21:39Z</time>
      </trkpt>
      <trkpt lat="44.2179" lon="2.61309">
        <ele>750.93</ele>
        <time>2022-07-13T06:21:46Z</time>
      </trkpt>
      <trkpt lat="44.21777" lon="2.61319">
        <ele>752.85</ele>
        <time>2022-07-13T06:21:58Z</time>
      </trkpt>
      <trkpt lat="44.21741" lon="2.61307">
        <ele>759.1</ele>
        <time>2022-07-13T06:24:03Z</time>
      </trkpt>
      <trkpt lat="44.21732" lon="2.61286">
        <ele>759.1</ele>
        <time>2022-07-13T06:24:15Z</time>
      </trkpt>
      <trkpt lat="44.21729" lon="2.61267">
        <ele>760.06</ele>
        <time>2022-07-13T06:24:25Z</time>
      </trkpt>
      <trkpt lat="44.21649" lon="2.61126">
        <ele>749.97</ele>
        <time>2022-07-13T06:25:49Z</time>
      </trkpt>
      <trkpt lat="44.2163" lon="2.61102">
        <ele>748.04</ele>
        <time>2022-07-13T06:26:07Z</time>
      </trkpt>
      <trkpt lat="44.21595" lon="2.61061">
        <ele>749</ele>
        <time>2022-07-13T06:26:39Z</time>
      </trkpt>
      <trkpt lat="44.21583" lon="2.61044">
        <ele>748.52</ele>
        <time>2022-07-13T06:26:48Z</time>
      </trkpt>
      <trkpt lat="44.21543" lon="2.61002">
        <ele>745.64</ele>
        <time>2022-07-13T06:27:20Z</time>
      </trkpt>
      <trkpt lat="44.21534" lon="2.6099">
        <ele>744.68</ele>
        <time>2022-07-13T06:27:25Z</time>
      </trkpt>
      <trkpt lat="44.21521" lon="2.60978">
        <ele>741.31</ele>
        <time>2022-07-13T06:27:35Z</time>
      </trkpt>
      <trkpt lat="44.21488" lon="2.60941">
        <ele>735.55</ele>
        <time>2022-07-13T06:28:02Z</time>
      </trkpt>
      <trkpt lat="44.21477" lon="2.60927">
        <ele>735.07</ele>
        <time>2022-07-13T06:28:11Z</time>
      </trkpt>
      <trkpt lat="44.21466" lon="2.60917">
        <ele>742.28</ele>
        <time>2022-07-13T06:28:20Z</time>
      </trkpt>
      <trkpt lat="44.21458" lon="2.60903">
        <ele>748.04</ele>
        <time>2022-07-13T06:28:27Z</time>
      </trkpt>
      <trkpt lat="44.21452" lon="2.60893">
        <ele>749.49</ele>
        <time>2022-07-13T06:28:34Z</time>
      </trkpt>
      <trkpt lat="44.21447" lon="2.60882">
        <ele>750.93</ele>
        <time>2022-07-13T06:28:41Z</time>
      </trkpt>
      <trkpt lat="44.21444" lon="2.60869">
        <ele>752.85</ele>
        <time>2022-07-13T06:28:49Z</time>
      </trkpt>
      <trkpt lat="44.21441" lon="2.60856">
        <ele>753.81</ele>
        <time>2022-07-13T06:28:56Z</time>
      </trkpt>
      <trkpt lat="44.21439" lon="2.60842">
        <ele>753.81</ele>
        <time>2022-07-13T06:29:04Z</time>
      </trkpt>
      <trkpt lat="44.21436" lon="2.60827">
        <ele>753.81</ele>
        <time>2022-07-13T06:29:12Z</time>
      </trkpt>
      <trkpt lat="44.21435" lon="2.6081">
        <ele>754.77</ele>
        <time>2022-07-13T06:29:21Z</time>
      </trkpt>
      <trkpt lat="44.21432" lon="2.60792">
        <ele>755.25</ele>
        <time>2022-07-13T06:29:32Z</time>
      </trkpt>
      <trkpt lat="44.2143" lon="2.60774">
        <ele>756.21</ele>
        <time>2022-07-13T06:29:41Z</time>
      </trkpt>
      <trkpt lat="44.21427" lon="2.60756">
        <ele>757.66</ele>
        <time>2022-07-13T06:29:50Z</time>
      </trkpt>
      <trkpt lat="44.21424" lon="2.60738">
        <ele>758.14</ele>
        <time>2022-07-13T06:29:58Z</time>
      </trkpt>
      <trkpt lat="44.21422" lon="2.60715">
        <ele>759.58</ele>
        <time>2022-07-13T06:30:10Z</time>
      </trkpt>
      <trkpt lat="44.2142" lon="2.60697">
        <ele>759.1</ele>
        <time>2022-07-13T06:30:18Z</time>
      </trkpt>
      <trkpt lat="44.21417" lon="2.6068">
        <ele>759.1</ele>
        <time>2022-07-13T06:30:26Z</time>
      </trkpt>
      <trkpt lat="44.21415" lon="2.60664">
        <ele>759.58</ele>
        <time>2022-07-13T06:30:34Z</time>
      </trkpt>
      <trkpt lat="44.21414" lon="2.60649">
        <ele>760.06</ele>
        <time>2022-07-13T06:30:42Z</time>
      </trkpt>
      <trkpt lat="44.21415" lon="2.60636">
        <ele>760.06</ele>
        <time>2022-07-13T06:30:51Z</time>
      </trkpt>
      <trkpt lat="44.21411" lon="2.6062">
        <ele>759.58</ele>
        <time>2022-07-13T06:31:01Z</time>
      </trkpt>
      <trkpt lat="44.21407" lon="2.606">
        <ele>758.14</ele>
        <time>2022-07-13T06:31:09Z</time>
      </trkpt>
      <trkpt lat="44.21404" lon="2.6058">
        <ele>758.62</ele>
        <time>2022-07-13T06:31:17Z</time>
      </trkpt>
      <trkpt lat="44.21401" lon="2.60562">
        <ele>759.58</ele>
        <time>2022-07-13T06:31:26Z</time>
      </trkpt>
      <trkpt lat="44.21399" lon="2.60546">
        <ele>759.1</ele>
        <time>2022-07-13T06:31:36Z</time>
      </trkpt>
      <trkpt lat="44.21394" lon="2.60526">
        <ele>759.58</ele>
        <time>2022-07-13T06:31:45Z</time>
      </trkpt>
      <trkpt lat="44.21391" lon="2.60504">
        <ele>760.54</ele>
        <time>2022-07-13T06:31:53Z</time>
      </trkpt>
      <trkpt lat="44.21388" lon="2.60488">
        <ele>760.06</ele>
        <time>2022-07-13T06:32:01Z</time>
      </trkpt>
      <trkpt lat="44.21387" lon="2.60474">
        <ele>759.58</ele>
        <time>2022-07-13T06:32:09Z</time>
      </trkpt>
      <trkpt lat="44.21385" lon="2.60461">
        <ele>758.14</ele>
        <time>2022-07-13T06:32:16Z</time>
      </trkpt>
      <trkpt lat="44.21384" lon="2.60447">
        <ele>758.62</ele>
        <time>2022-07-13T06:32:22Z</time>
      </trkpt>
      <trkpt lat="44.21382" lon="2.60433">
        <ele>757.66</ele>
        <time>2022-07-13T06:32:29Z</time>
      </trkpt>
      <trkpt lat="44.21379" lon="2.6042">
        <ele>757.18</ele>
        <time>2022-07-13T06:32:36Z</time>
      </trkpt>
      <trkpt lat="44.21377" lon="2.60406">
        <ele>757.18</ele>
        <time>2022-07-13T06:32:43Z</time>
      </trkpt>
      <trkpt lat="44.21374" lon="2.60394">
        <ele>757.18</ele>
        <time>2022-07-13T06:32:50Z</time>
      </trkpt>
      <trkpt lat="44.21372" lon="2.60381">
        <ele>756.69</ele>
        <time>2022-07-13T06:32:58Z</time>
      </trkpt>
      <trkpt lat="44.21372" lon="2.60366">
        <ele>756.21</ele>
        <time>2022-07-13T06:33:06Z</time>
      </trkpt>
      <trkpt lat="44.21377" lon="2.60354">
        <ele>756.21</ele>
        <time>2022-07-13T06:33:13Z</time>
      </trkpt>
      <trkpt lat="44.21381" lon="2.60341">
        <ele>755.73</ele>
        <time>2022-07-13T06:33:20Z</time>
      </trkpt>
      <trkpt lat="44.21387" lon="2.60327">
        <ele>755.73</ele>
        <time>2022-07-13T06:33:28Z</time>
      </trkpt>
      <trkpt lat="44.21392" lon="2.60313">
        <ele>754.77</ele>
        <time>2022-07-13T06:33:35Z</time>
      </trkpt>
      <trkpt lat="44.21398" lon="2.60299">
        <ele>753.33</ele>
        <time>2022-07-13T06:33:43Z</time>
      </trkpt>
      <trkpt lat="44.21404" lon="2.60285">
        <ele>751.89</ele>
        <time>2022-07-13T06:33:51Z</time>
      </trkpt>
      <trkpt lat="44.2141" lon="2.60268">
        <ele>750.45</ele>
        <time>2022-07-13T06:34:00Z</time>
      </trkpt>
      <trkpt lat="44.21416" lon="2.60246">
        <ele>749.49</ele>
        <time>2022-07-13T06:34:09Z</time>
      </trkpt>
      <trkpt lat="44.21423" lon="2.60232">
        <ele>747.56</ele>
        <time>2022-07-13T06:34:18Z</time>
      </trkpt>
      <trkpt lat="44.21429" lon="2.60221">
        <ele>745.16</ele>
        <time>2022-07-13T06:34:27Z</time>
      </trkpt>
      <trkpt lat="44.21434" lon="2.60208">
        <ele>742.76</ele>
        <time>2022-07-13T06:34:36Z</time>
      </trkpt>
      <trkpt lat="44.21439" lon="2.60194">
        <ele>740.83</ele>
        <time>2022-07-13T06:34:44Z</time>
      </trkpt>
      <trkpt lat="44.2143" lon="2.60169">
        <ele>742.76</ele>
        <time>2022-07-13T06:35:10Z</time>
      </trkpt>
      <trkpt lat="44.21417" lon="2.60164">
        <ele>742.76</ele>
        <time>2022-07-13T06:35:18Z</time>
      </trkpt>
      <trkpt lat="44.21408" lon="2.60158">
        <ele>744.2</ele>
        <time>2022-07-13T06:35:27Z</time>
      </trkpt>
      <trkpt lat="44.21374" lon="2.60151">
        <ele>742.76</ele>
        <time>2022-07-13T06:35:54Z</time>
      </trkpt>
      <trkpt lat="44.21362" lon="2.60155">
        <ele>742.28</ele>
        <time>2022-07-13T06:36:02Z</time>
      </trkpt>
      <trkpt lat="44.21351" lon="2.60155">
        <ele>741.31</ele>
        <time>2022-07-13T06:36:10Z</time>
      </trkpt>
      <trkpt lat="44.21341" lon="2.60155">
        <ele>741.31</ele>
        <time>2022-07-13T06:36:17Z</time>
      </trkpt>
      <trkpt lat="44.2133" lon="2.6015">
        <ele>740.83</ele>
        <time>2022-07-13T06:36:25Z</time>
      </trkpt>
      <trkpt lat="44.21321" lon="2.60142">
        <ele>740.35</ele>
        <time>2022-07-13T06:36:33Z</time>
      </trkpt>
      <trkpt lat="44.21312" lon="2.60139">
        <ele>740.35</ele>
        <time>2022-07-13T06:36:41Z</time>
      </trkpt>
      <trkpt lat="44.21265" lon="2.60147">
        <ele>746.12</ele>
        <time>2022-07-13T06:38:27Z</time>
      </trkpt>
      <trkpt lat="44.21252" lon="2.60154">
        <ele>746.12</ele>
        <time>2022-07-13T06:38:36Z</time>
      </trkpt>
      <trkpt lat="44.21234" lon="2.60165">
        <ele>746.12</ele>
        <time>2022-07-13T06:38:51Z</time>
      </trkpt>
      <trkpt lat="44.21223" lon="2.60178">
        <ele>746.6</ele>
        <time>2022-07-13T06:39:02Z</time>
      </trkpt>
      <trkpt lat="44.21212" lon="2.6019">
        <ele>746.6</ele>
        <time>2022-07-13T06:39:12Z</time>
      </trkpt>
      <trkpt lat="44.21204" lon="2.60204">
        <ele>746.6</ele>
        <time>2022-07-13T06:39:21Z</time>
      </trkpt>
      <trkpt lat="44.21192" lon="2.60267">
        <ele>749</ele>
        <time>2022-07-13T06:39:59Z</time>
      </trkpt>
      <trkpt lat="44.21195" lon="2.6028">
        <ele>747.56</ele>
        <time>2022-07-13T06:40:06Z</time>
      </trkpt>
      <trkpt lat="44.21199" lon="2.60288">
        <ele>746.6</ele>
        <time>2022-07-13T06:40:12Z</time>
      </trkpt>
      <trkpt lat="44.21179" lon="2.60317">
        <ele>742.76</ele>
        <time>2022-07-13T06:40:33Z</time>
      </trkpt>
      <trkpt lat="44.21154" lon="2.60331">
        <ele>740.83</ele>
        <time>2022-07-13T06:40:41Z</time>
      </trkpt>
      <trkpt lat="44.21141" lon="2.60343">
        <ele>738.91</ele>
        <time>2022-07-13T06:40:48Z</time>
      </trkpt>
      <trkpt lat="44.2113" lon="2.60349">
        <ele>736.51</ele>
        <time>2022-07-13T06:40:55Z</time>
      </trkpt>
      <trkpt lat="44.21119" lon="2.60352">
        <ele>734.1</ele>
        <time>2022-07-13T06:41:04Z</time>
      </trkpt>
      <trkpt lat="44.21102" lon="2.60354">
        <ele>728.34</ele>
        <time>2022-07-13T06:41:33Z</time>
      </trkpt>
      <trkpt lat="44.21091" lon="2.6035">
        <ele>727.37</ele>
        <time>2022-07-13T06:41:43Z</time>
      </trkpt>
      <trkpt lat="44.21063" lon="2.60347">
        <ele>726.41</ele>
        <time>2022-07-13T06:42:10Z</time>
      </trkpt>
      <trkpt lat="44.21044" lon="2.60346">
        <ele>728.34</ele>
        <time>2022-07-13T06:42:18Z</time>
      </trkpt>
      <trkpt lat="44.21034" lon="2.60344">
        <ele>728.34</ele>
        <time>2022-07-13T06:42:25Z</time>
      </trkpt>
      <trkpt lat="44.21024" lon="2.60342">
        <ele>728.34</ele>
        <time>2022-07-13T06:42:33Z</time>
      </trkpt>
      <trkpt lat="44.21015" lon="2.60342">
        <ele>727.86</ele>
        <time>2022-07-13T06:42:41Z</time>
      </trkpt>
      <trkpt lat="44.21002" lon="2.60344">
        <ele>726.89</ele>
        <time>2022-07-13T06:42:51Z</time>
      </trkpt>
      <trkpt lat="44.20991" lon="2.60347">
        <ele>725.45</ele>
        <time>2022-07-13T06:43:00Z</time>
      </trkpt>
      <trkpt lat="44.20979" lon="2.60349">
        <ele>723.53</ele>
        <time>2022-07-13T06:43:08Z</time>
      </trkpt>
      <trkpt lat="44.20967" lon="2.60351">
        <ele>722.09</ele>
        <time>2022-07-13T06:43:15Z</time>
      </trkpt>
      <trkpt lat="44.20955" lon="2.60354">
        <ele>720.65</ele>
        <time>2022-07-13T06:43:22Z</time>
      </trkpt>
      <trkpt lat="44.20943" lon="2.60356">
        <ele>718.72</ele>
        <time>2022-07-13T06:43:30Z</time>
      </trkpt>
      <trkpt lat="44.20932" lon="2.60354">
        <ele>716.32</ele>
        <time>2022-07-13T06:43:38Z</time>
      </trkpt>
      <trkpt lat="44.20912" lon="2.60353">
        <ele>711.03</ele>
        <time>2022-07-13T06:43:53Z</time>
      </trkpt>
      <trkpt lat="44.20901" lon="2.60354">
        <ele>707.67</ele>
        <time>2022-07-13T06:44:00Z</time>
      </trkpt>
      <trkpt lat="44.20884" lon="2.60357">
        <ele>705.26</ele>
        <time>2022-07-13T06:44:09Z</time>
      </trkpt>
      <trkpt lat="44.20871" lon="2.60359">
        <ele>709.11</ele>
        <time>2022-07-13T06:44:17Z</time>
      </trkpt>
      <trkpt lat="44.20861" lon="2.60353">
        <ele>708.63</ele>
        <time>2022-07-13T06:44:24Z</time>
      </trkpt>
      <trkpt lat="44.20851" lon="2.60346">
        <ele>707.19</ele>
        <time>2022-07-13T06:44:32Z</time>
      </trkpt>
      <trkpt lat="44.20841" lon="2.60343">
        <ele>706.71</ele>
        <time>2022-07-13T06:44:39Z</time>
      </trkpt>
      <trkpt lat="44.20831" lon="2.6034">
        <ele>704.78</ele>
        <time>2022-07-13T06:44:46Z</time>
      </trkpt>
      <trkpt lat="44.2082" lon="2.60336">
        <ele>702.38</ele>
        <time>2022-07-13T06:44:55Z</time>
      </trkpt>
      <trkpt lat="44.20808" lon="2.60333">
        <ele>700.94</ele>
        <time>2022-07-13T06:45:02Z</time>
      </trkpt>
      <trkpt lat="44.20796" lon="2.6033">
        <ele>699.98</ele>
        <time>2022-07-13T06:45:09Z</time>
      </trkpt>
      <trkpt lat="44.20786" lon="2.60329">
        <ele>699.98</ele>
        <time>2022-07-13T06:45:16Z</time>
      </trkpt>
      <trkpt lat="44.20776" lon="2.60324">
        <ele>700.94</ele>
        <time>2022-07-13T06:45:24Z</time>
      </trkpt>
      <trkpt lat="44.20766" lon="2.60318">
        <ele>701.42</ele>
        <time>2022-07-13T06:45:32Z</time>
      </trkpt>
      <trkpt lat="44.20755" lon="2.60315">
        <ele>702.38</ele>
        <time>2022-07-13T06:45:39Z</time>
      </trkpt>
      <trkpt lat="44.20744" lon="2.6031">
        <ele>702.86</ele>
        <time>2022-07-13T06:45:46Z</time>
      </trkpt>
      <trkpt lat="44.20732" lon="2.60307">
        <ele>703.82</ele>
        <time>2022-07-13T06:45:54Z</time>
      </trkpt>
      <trkpt lat="44.20722" lon="2.60303">
        <ele>703.82</ele>
        <time>2022-07-13T06:46:03Z</time>
      </trkpt>
      <trkpt lat="44.20711" lon="2.60299">
        <ele>703.34</ele>
        <time>2022-07-13T06:46:11Z</time>
      </trkpt>
      <trkpt lat="44.20698" lon="2.60296">
        <ele>702.38</ele>
        <time>2022-07-13T06:46:19Z</time>
      </trkpt>
      <trkpt lat="44.20685" lon="2.60289">
        <ele>701.9</ele>
        <time>2022-07-13T06:46:26Z</time>
      </trkpt>
      <trkpt lat="44.20674" lon="2.60289">
        <ele>701.9</ele>
        <time>2022-07-13T06:46:33Z</time>
      </trkpt>
      <trkpt lat="44.20664" lon="2.60287">
        <ele>702.38</ele>
        <time>2022-07-13T06:46:40Z</time>
      </trkpt>
      <trkpt lat="44.20651" lon="2.60282">
        <ele>702.38</ele>
        <time>2022-07-13T06:46:47Z</time>
      </trkpt>
      <trkpt lat="44.2064" lon="2.60277">
        <ele>702.86</ele>
        <time>2022-07-13T06:46:54Z</time>
      </trkpt>
      <trkpt lat="44.2063" lon="2.60271">
        <ele>702.38</ele>
        <time>2022-07-13T06:47:01Z</time>
      </trkpt>
      <trkpt lat="44.20618" lon="2.60268">
        <ele>701.9</ele>
        <time>2022-07-13T06:47:08Z</time>
      </trkpt>
      <trkpt lat="44.20606" lon="2.60265">
        <ele>701.42</ele>
        <time>2022-07-13T06:47:15Z</time>
      </trkpt>
      <trkpt lat="44.20596" lon="2.6026">
        <ele>700.46</ele>
        <time>2022-07-13T06:47:22Z</time>
      </trkpt>
      <trkpt lat="44.20585" lon="2.60256">
        <ele>700.46</ele>
        <time>2022-07-13T06:47:29Z</time>
      </trkpt>
      <trkpt lat="44.20575" lon="2.60252">
        <ele>699.98</ele>
        <time>2022-07-13T06:47:36Z</time>
      </trkpt>
      <trkpt lat="44.20564" lon="2.60247">
        <ele>698.05</ele>
        <time>2022-07-13T06:47:44Z</time>
      </trkpt>
      <trkpt lat="44.20553" lon="2.60243">
        <ele>697.57</ele>
        <time>2022-07-13T06:47:51Z</time>
      </trkpt>
      <trkpt lat="44.20543" lon="2.60242">
        <ele>697.09</ele>
        <time>2022-07-13T06:47:58Z</time>
      </trkpt>
      <trkpt lat="44.20533" lon="2.6024">
        <ele>697.57</ele>
        <time>2022-07-13T06:48:05Z</time>
      </trkpt>
      <trkpt lat="44.20522" lon="2.60239">
        <ele>698.05</ele>
        <time>2022-07-13T06:48:12Z</time>
      </trkpt>
      <trkpt lat="44.20512" lon="2.60236">
        <ele>697.57</ele>
        <time>2022-07-13T06:48:19Z</time>
      </trkpt>
      <trkpt lat="44.20502" lon="2.60235">
        <ele>697.09</ele>
        <time>2022-07-13T06:48:26Z</time>
      </trkpt>
      <trkpt lat="44.20491" lon="2.60232">
        <ele>696.61</ele>
        <time>2022-07-13T06:48:33Z</time>
      </trkpt>
      <trkpt lat="44.20481" lon="2.6023">
        <ele>696.61</ele>
        <time>2022-07-13T06:48:40Z</time>
      </trkpt>
      <trkpt lat="44.2047" lon="2.60227">
        <ele>696.61</ele>
        <time>2022-07-13T06:48:47Z</time>
      </trkpt>
      <trkpt lat="44.2046" lon="2.60227">
        <ele>696.13</ele>
        <time>2022-07-13T06:48:54Z</time>
      </trkpt>
      <trkpt lat="44.2045" lon="2.60226">
        <ele>695.65</ele>
        <time>2022-07-13T06:49:01Z</time>
      </trkpt>
      <trkpt lat="44.20439" lon="2.60224">
        <ele>696.13</ele>
        <time>2022-07-13T06:49:08Z</time>
      </trkpt>
      <trkpt lat="44.20428" lon="2.60221">
        <ele>696.13</ele>
        <time>2022-07-13T06:49:15Z</time>
      </trkpt>
      <trkpt lat="44.20417" lon="2.60221">
        <ele>696.61</ele>
        <time>2022-07-13T06:49:22Z</time>
      </trkpt>
      <trkpt lat="44.20408" lon="2.60216">
        <ele>696.13</ele>
        <time>2022-07-13T06:49:29Z</time>
      </trkpt>
      <trkpt lat="44.20398" lon="2.60212">
        <ele>696.13</ele>
        <time>2022-07-13T06:49:37Z</time>
      </trkpt>
      <trkpt lat="44.20388" lon="2.60208">
        <ele>695.65</ele>
        <time>2022-07-13T06:49:43Z</time>
      </trkpt>
      <trkpt lat="44.20377" lon="2.60203">
        <ele>696.13</ele>
        <time>2022-07-13T06:49:50Z</time>
      </trkpt>
      <trkpt lat="44.20367" lon="2.602">
        <ele>697.09</ele>
        <time>2022-07-13T06:49:57Z</time>
      </trkpt>
      <trkpt lat="44.20357" lon="2.60198">
        <ele>696.61</ele>
        <time>2022-07-13T06:50:04Z</time>
      </trkpt>
      <trkpt lat="44.20346" lon="2.60196">
        <ele>696.61</ele>
        <time>2022-07-13T06:50:11Z</time>
      </trkpt>
      <trkpt lat="44.20337" lon="2.60194">
        <ele>696.13</ele>
        <time>2022-07-13T06:50:17Z</time>
      </trkpt>
      <trkpt lat="44.20326" lon="2.60195">
        <ele>695.65</ele>
        <time>2022-07-13T06:50:25Z</time>
      </trkpt>
      <trkpt lat="44.20317" lon="2.60195">
        <ele>695.65</ele>
        <time>2022-07-13T06:50:32Z</time>
      </trkpt>
      <trkpt lat="44.20308" lon="2.60192">
        <ele>695.17</ele>
        <time>2022-07-13T06:50:39Z</time>
      </trkpt>
      <trkpt lat="44.20293" lon="2.60184">
        <ele>691.33</ele>
        <time>2022-07-13T06:51:34Z</time>
      </trkpt>
      <trkpt lat="44.20288" lon="2.60197">
        <ele>690.84</ele>
        <time>2022-07-13T06:51:44Z</time>
      </trkpt>
      <trkpt lat="44.20279" lon="2.60203">
        <ele>689.88</ele>
        <time>2022-07-13T06:51:52Z</time>
      </trkpt>
      <trkpt lat="44.2027" lon="2.60209">
        <ele>688.92</ele>
        <time>2022-07-13T06:52:00Z</time>
      </trkpt>
      <trkpt lat="44.20259" lon="2.60213">
        <ele>687.48</ele>
        <time>2022-07-13T06:52:08Z</time>
      </trkpt>
      <trkpt lat="44.20248" lon="2.60217">
        <ele>686.52</ele>
        <time>2022-07-13T06:52:16Z</time>
      </trkpt>
      <trkpt lat="44.20237" lon="2.6022">
        <ele>686.04</ele>
        <time>2022-07-13T06:52:24Z</time>
      </trkpt>
      <trkpt lat="44.20226" lon="2.60222">
        <ele>685.08</ele>
        <time>2022-07-13T06:52:33Z</time>
      </trkpt>
      <trkpt lat="44.20215" lon="2.60226">
        <ele>684.12</ele>
        <time>2022-07-13T06:52:41Z</time>
      </trkpt>
      <trkpt lat="44.20204" lon="2.60229">
        <ele>684.12</ele>
        <time>2022-07-13T06:52:48Z</time>
      </trkpt>
      <trkpt lat="44.20193" lon="2.60232">
        <ele>683.63</ele>
        <time>2022-07-13T06:52:56Z</time>
      </trkpt>
      <trkpt lat="44.20182" lon="2.60233">
        <ele>683.63</ele>
        <time>2022-07-13T06:53:04Z</time>
      </trkpt>
      <trkpt lat="44.20172" lon="2.6023">
        <ele>682.67</ele>
        <time>2022-07-13T06:53:13Z</time>
      </trkpt>
      <trkpt lat="44.20162" lon="2.60227">
        <ele>681.23</ele>
        <time>2022-07-13T06:53:22Z</time>
      </trkpt>
      <trkpt lat="44.2015" lon="2.60225">
        <ele>680.75</ele>
        <time>2022-07-13T06:53:30Z</time>
      </trkpt>
      <trkpt lat="44.20139" lon="2.60219">
        <ele>680.75</ele>
        <time>2022-07-13T06:53:38Z</time>
      </trkpt>
      <trkpt lat="44.20122" lon="2.60213">
        <ele>680.75</ele>
        <time>2022-07-13T06:53:56Z</time>
      </trkpt>
      <trkpt lat="44.20111" lon="2.60212">
        <ele>680.75</ele>
        <time>2022-07-13T06:54:03Z</time>
      </trkpt>
      <trkpt lat="44.20101" lon="2.60209">
        <ele>680.75</ele>
        <time>2022-07-13T06:54:11Z</time>
      </trkpt>
      <trkpt lat="44.2009" lon="2.60205">
        <ele>680.75</ele>
        <time>2022-07-13T06:54:19Z</time>
      </trkpt>
      <trkpt lat="44.20081" lon="2.60201">
        <ele>680.75</ele>
        <time>2022-07-13T06:54:26Z</time>
      </trkpt>
      <trkpt lat="44.2007" lon="2.60198">
        <ele>681.23</ele>
        <time>2022-07-13T06:54:34Z</time>
      </trkpt>
      <trkpt lat="44.20061" lon="2.60192">
        <ele>681.71</ele>
        <time>2022-07-13T06:54:41Z</time>
      </trkpt>
      <trkpt lat="44.20051" lon="2.60185">
        <ele>682.67</ele>
        <time>2022-07-13T06:54:49Z</time>
      </trkpt>
      <trkpt lat="44.20043" lon="2.60175">
        <ele>682.19</ele>
        <time>2022-07-13T06:54:57Z</time>
      </trkpt>
      <trkpt lat="44.20036" lon="2.60164">
        <ele>681.71</ele>
        <time>2022-07-13T06:55:05Z</time>
      </trkpt>
      <trkpt lat="44.20029" lon="2.60152">
        <ele>682.19</ele>
        <time>2022-07-13T06:55:12Z</time>
      </trkpt>
      <trkpt lat="44.20022" lon="2.60141">
        <ele>686.04</ele>
        <time>2022-07-13T06:55:19Z</time>
      </trkpt>
      <trkpt lat="44.20016" lon="2.60131">
        <ele>685.56</ele>
        <time>2022-07-13T06:55:27Z</time>
      </trkpt>
      <trkpt lat="44.20009" lon="2.60122">
        <ele>685.08</ele>
        <time>2022-07-13T06:55:34Z</time>
      </trkpt>
      <trkpt lat="44.20003" lon="2.60111">
        <ele>684.12</ele>
        <time>2022-07-13T06:55:41Z</time>
      </trkpt>
      <trkpt lat="44.19996" lon="2.601">
        <ele>683.15</ele>
        <time>2022-07-13T06:55:48Z</time>
      </trkpt>
      <trkpt lat="44.19989" lon="2.60088">
        <ele>682.67</ele>
        <time>2022-07-13T06:55:55Z</time>
      </trkpt>
      <trkpt lat="44.19982" lon="2.60079">
        <ele>681.71</ele>
        <time>2022-07-13T06:56:02Z</time>
      </trkpt>
      <trkpt lat="44.19974" lon="2.60069">
        <ele>680.75</ele>
        <time>2022-07-13T06:56:09Z</time>
      </trkpt>
      <trkpt lat="44.19966" lon="2.60058">
        <ele>679.79</ele>
        <time>2022-07-13T06:56:16Z</time>
      </trkpt>
      <trkpt lat="44.19958" lon="2.60049">
        <ele>679.31</ele>
        <time>2022-07-13T06:56:23Z</time>
      </trkpt>
      <trkpt lat="44.19946" lon="2.6004">
        <ele>678.35</ele>
        <time>2022-07-13T06:56:33Z</time>
      </trkpt>
      <trkpt lat="44.19935" lon="2.60033">
        <ele>678.35</ele>
        <time>2022-07-13T06:56:40Z</time>
      </trkpt>
      <trkpt lat="44.19925" lon="2.60029">
        <ele>677.39</ele>
        <time>2022-07-13T06:56:47Z</time>
      </trkpt>
      <trkpt lat="44.19916" lon="2.60026">
        <ele>676.42</ele>
        <time>2022-07-13T06:56:55Z</time>
      </trkpt>
      <trkpt lat="44.19904" lon="2.60024">
        <ele>674.5</ele>
        <time>2022-07-13T06:57:04Z</time>
      </trkpt>
      <trkpt lat="44.19892" lon="2.60022">
        <ele>673.06</ele>
        <time>2022-07-13T06:57:12Z</time>
      </trkpt>
      <trkpt lat="44.19882" lon="2.6002">
        <ele>671.62</ele>
        <time>2022-07-13T06:57:19Z</time>
      </trkpt>
      <trkpt lat="44.19872" lon="2.60018">
        <ele>670.66</ele>
        <time>2022-07-13T06:57:26Z</time>
      </trkpt>
      <trkpt lat="44.1986" lon="2.60016">
        <ele>669.22</ele>
        <time>2022-07-13T06:57:34Z</time>
      </trkpt>
      <trkpt lat="44.19849" lon="2.60014">
        <ele>668.25</ele>
        <time>2022-07-13T06:57:41Z</time>
      </trkpt>
      <trkpt lat="44.19838" lon="2.60011">
        <ele>667.77</ele>
        <time>2022-07-13T06:57:48Z</time>
      </trkpt>
      <trkpt lat="44.19828" lon="2.60009">
        <ele>667.77</ele>
        <time>2022-07-13T06:57:55Z</time>
      </trkpt>
      <trkpt lat="44.19818" lon="2.60007">
        <ele>667.29</ele>
        <time>2022-07-13T06:58:02Z</time>
      </trkpt>
      <trkpt lat="44.19805" lon="2.60002">
        <ele>668.25</ele>
        <time>2022-07-13T06:58:09Z</time>
      </trkpt>
      <trkpt lat="44.19795" lon="2.60002">
        <ele>670.66</ele>
        <time>2022-07-13T06:58:16Z</time>
      </trkpt>
      <trkpt lat="44.19784" lon="2.6">
        <ele>670.18</ele>
        <time>2022-07-13T06:58:30Z</time>
      </trkpt>
      <trkpt lat="44.19775" lon="2.6">
        <ele>669.7</ele>
        <time>2022-07-13T06:58:37Z</time>
      </trkpt>
      <trkpt lat="44.19766" lon="2.60001">
        <ele>669.22</ele>
        <time>2022-07-13T06:58:44Z</time>
      </trkpt>
      <trkpt lat="44.19757" lon="2.59999">
        <ele>668.73</ele>
        <time>2022-07-13T06:58:50Z</time>
      </trkpt>
      <trkpt lat="44.19747" lon="2.59998">
        <ele>668.73</ele>
        <time>2022-07-13T06:58:57Z</time>
      </trkpt>
      <trkpt lat="44.19736" lon="2.59993">
        <ele>670.18</ele>
        <time>2022-07-13T06:59:04Z</time>
      </trkpt>
      <trkpt lat="44.19725" lon="2.59991">
        <ele>670.66</ele>
        <time>2022-07-13T06:59:11Z</time>
      </trkpt>
      <trkpt lat="44.19715" lon="2.59989">
        <ele>670.18</ele>
        <time>2022-07-13T06:59:18Z</time>
      </trkpt>
      <trkpt lat="44.19704" lon="2.59987">
        <ele>670.18</ele>
        <time>2022-07-13T06:59:25Z</time>
      </trkpt>
      <trkpt lat="44.19693" lon="2.59986">
        <ele>670.66</ele>
        <time>2022-07-13T06:59:32Z</time>
      </trkpt>
      <trkpt lat="44.19683" lon="2.59985">
        <ele>669.7</ele>
        <time>2022-07-13T06:59:39Z</time>
      </trkpt>
      <trkpt lat="44.19673" lon="2.59984">
        <ele>668.25</ele>
        <time>2022-07-13T06:59:47Z</time>
      </trkpt>
      <trkpt lat="44.19663" lon="2.59983">
        <ele>666.81</ele>
        <time>2022-07-13T06:59:54Z</time>
      </trkpt>
      <trkpt lat="44.19653" lon="2.59982">
        <ele>665.85</ele>
        <time>2022-07-13T07:00:01Z</time>
      </trkpt>
      <trkpt lat="44.19642" lon="2.59981">
        <ele>663.93</ele>
        <time>2022-07-13T07:00:10Z</time>
      </trkpt>
      <trkpt lat="44.19631" lon="2.5998">
        <ele>662.97</ele>
        <time>2022-07-13T07:00:17Z</time>
      </trkpt>
      <trkpt lat="44.1962" lon="2.59978">
        <ele>661.52</ele>
        <time>2022-07-13T07:00:25Z</time>
      </trkpt>
      <trkpt lat="44.1961" lon="2.59976">
        <ele>660.08</ele>
        <time>2022-07-13T07:00:33Z</time>
      </trkpt>
      <trkpt lat="44.19598" lon="2.59975">
        <ele>658.64</ele>
        <time>2022-07-13T07:00:41Z</time>
      </trkpt>
      <trkpt lat="44.19587" lon="2.59974">
        <ele>657.68</ele>
        <time>2022-07-13T07:00:48Z</time>
      </trkpt>
      <trkpt lat="44.19576" lon="2.59973">
        <ele>658.16</ele>
        <time>2022-07-13T07:00:55Z</time>
      </trkpt>
      <trkpt lat="44.19567" lon="2.59973">
        <ele>659.12</ele>
        <time>2022-07-13T07:01:03Z</time>
      </trkpt>
      <trkpt lat="44.19556" lon="2.59972">
        <ele>659.6</ele>
        <time>2022-07-13T07:01:11Z</time>
      </trkpt>
      <trkpt lat="44.19544" lon="2.59971">
        <ele>659.6</ele>
        <time>2022-07-13T07:01:18Z</time>
      </trkpt>
      <trkpt lat="44.19533" lon="2.59971">
        <ele>659.6</ele>
        <time>2022-07-13T07:01:25Z</time>
      </trkpt>
      <trkpt lat="44.19523" lon="2.59971">
        <ele>659.6</ele>
        <time>2022-07-13T07:01:32Z</time>
      </trkpt>
      <trkpt lat="44.19512" lon="2.59971">
        <ele>658.64</ele>
        <time>2022-07-13T07:01:40Z</time>
      </trkpt>
      <trkpt lat="44.19502" lon="2.59968">
        <ele>658.16</ele>
        <time>2022-07-13T07:01:47Z</time>
      </trkpt>
      <trkpt lat="44.19491" lon="2.59968">
        <ele>657.68</ele>
        <time>2022-07-13T07:01:54Z</time>
      </trkpt>
      <trkpt lat="44.1948" lon="2.59968">
        <ele>657.68</ele>
        <time>2022-07-13T07:02:01Z</time>
      </trkpt>
      <trkpt lat="44.1947" lon="2.59967">
        <ele>657.2</ele>
        <time>2022-07-13T07:02:08Z</time>
      </trkpt>
      <trkpt lat="44.1946" lon="2.59965">
        <ele>658.16</ele>
        <time>2022-07-13T07:02:16Z</time>
      </trkpt>
      <trkpt lat="44.1945" lon="2.59963">
        <ele>658.16</ele>
        <time>2022-07-13T07:02:24Z</time>
      </trkpt>
      <trkpt lat="44.19436" lon="2.59959">
        <ele>662.01</ele>
        <time>2022-07-13T07:02:33Z</time>
      </trkpt>
      <trkpt lat="44.19423" lon="2.59958">
        <ele>668.73</ele>
        <time>2022-07-13T07:02:42Z</time>
      </trkpt>
      <trkpt lat="44.19413" lon="2.59963">
        <ele>674.02</ele>
        <time>2022-07-13T07:02:49Z</time>
      </trkpt>
      <trkpt lat="44.19404" lon="2.59968">
        <ele>675.46</ele>
        <time>2022-07-13T07:02:56Z</time>
      </trkpt>
      <trkpt lat="44.19394" lon="2.59969">
        <ele>676.91</ele>
        <time>2022-07-13T07:03:03Z</time>
      </trkpt>
      <trkpt lat="44.19385" lon="2.59975">
        <ele>678.83</ele>
        <time>2022-07-13T07:03:10Z</time>
      </trkpt>
      <trkpt lat="44.19377" lon="2.59984">
        <ele>679.79</ele>
        <time>2022-07-13T07:03:17Z</time>
      </trkpt>
      <trkpt lat="44.19367" lon="2.59991">
        <ele>680.27</ele>
        <time>2022-07-13T07:03:25Z</time>
      </trkpt>
      <trkpt lat="44.19358" lon="2.59996">
        <ele>681.71</ele>
        <time>2022-07-13T07:03:32Z</time>
      </trkpt>
      <trkpt lat="44.19348" lon="2.59998">
        <ele>683.15</ele>
        <time>2022-07-13T07:03:39Z</time>
      </trkpt>
      <trkpt lat="44.19339" lon="2.59999">
        <ele>684.12</ele>
        <time>2022-07-13T07:03:46Z</time>
      </trkpt>
      <trkpt lat="44.19329" lon="2.59998">
        <ele>684.6</ele>
        <time>2022-07-13T07:03:53Z</time>
      </trkpt>
      <trkpt lat="44.19319" lon="2.59997">
        <ele>685.56</ele>
        <time>2022-07-13T07:04:00Z</time>
      </trkpt>
      <trkpt lat="44.19309" lon="2.59995">
        <ele>686.04</ele>
        <time>2022-07-13T07:04:07Z</time>
      </trkpt>
      <trkpt lat="44.19299" lon="2.59995">
        <ele>686.52</ele>
        <time>2022-07-13T07:04:14Z</time>
      </trkpt>
      <trkpt lat="44.19289" lon="2.59993">
        <ele>687</ele>
        <time>2022-07-13T07:04:21Z</time>
      </trkpt>
      <trkpt lat="44.1928" lon="2.59991">
        <ele>687</ele>
        <time>2022-07-13T07:04:28Z</time>
      </trkpt>
      <trkpt lat="44.19269" lon="2.59987">
        <ele>685.56</ele>
        <time>2022-07-13T07:04:35Z</time>
      </trkpt>
      <trkpt lat="44.19259" lon="2.59984">
        <ele>686.52</ele>
        <time>2022-07-13T07:04:42Z</time>
      </trkpt>
      <trkpt lat="44.19248" lon="2.59982">
        <ele>686.52</ele>
        <time>2022-07-13T07:04:49Z</time>
      </trkpt>
      <trkpt lat="44.19239" lon="2.59978">
        <ele>686.52</ele>
        <time>2022-07-13T07:04:57Z</time>
      </trkpt>
      <trkpt lat="44.19228" lon="2.59974">
        <ele>687.48</ele>
        <time>2022-07-13T07:05:05Z</time>
      </trkpt>
      <trkpt lat="44.19218" lon="2.59971">
        <ele>687</ele>
        <time>2022-07-13T07:05:12Z</time>
      </trkpt>
      <trkpt lat="44.19209" lon="2.59967">
        <ele>686.52</ele>
        <time>2022-07-13T07:05:19Z</time>
      </trkpt>
      <trkpt lat="44.192" lon="2.59961">
        <ele>686.04</ele>
        <time>2022-07-13T07:05:26Z</time>
      </trkpt>
      <trkpt lat="44.19192" lon="2.59953">
        <ele>685.08</ele>
        <time>2022-07-13T07:05:34Z</time>
      </trkpt>
      <trkpt lat="44.19182" lon="2.59945">
        <ele>684.12</ele>
        <time>2022-07-13T07:05:42Z</time>
      </trkpt>
      <trkpt lat="44.19173" lon="2.59938">
        <ele>683.63</ele>
        <time>2022-07-13T07:05:49Z</time>
      </trkpt>
      <trkpt lat="44.19164" lon="2.5993">
        <ele>683.63</ele>
        <time>2022-07-13T07:05:56Z</time>
      </trkpt>
      <trkpt lat="44.19155" lon="2.59922">
        <ele>683.15</ele>
        <time>2022-07-13T07:06:04Z</time>
      </trkpt>
      <trkpt lat="44.19144" lon="2.59915">
        <ele>683.15</ele>
        <time>2022-07-13T07:06:11Z</time>
      </trkpt>
      <trkpt lat="44.19135" lon="2.5991">
        <ele>682.67</ele>
        <time>2022-07-13T07:06:18Z</time>
      </trkpt>
      <trkpt lat="44.19125" lon="2.59904">
        <ele>682.67</ele>
        <time>2022-07-13T07:06:25Z</time>
      </trkpt>
      <trkpt lat="44.19115" lon="2.59896">
        <ele>682.67</ele>
        <time>2022-07-13T07:06:33Z</time>
      </trkpt>
      <trkpt lat="44.19107" lon="2.59888">
        <ele>681.71</ele>
        <time>2022-07-13T07:06:41Z</time>
      </trkpt>
      <trkpt lat="44.19098" lon="2.59881">
        <ele>680.27</ele>
        <time>2022-07-13T07:06:49Z</time>
      </trkpt>
      <trkpt lat="44.19088" lon="2.59874">
        <ele>679.79</ele>
        <time>2022-07-13T07:06:57Z</time>
      </trkpt>
      <trkpt lat="44.19076" lon="2.59868">
        <ele>679.31</ele>
        <time>2022-07-13T07:07:06Z</time>
      </trkpt>
      <trkpt lat="44.19067" lon="2.59862">
        <ele>677.87</ele>
        <time>2022-07-13T07:07:14Z</time>
      </trkpt>
      <trkpt lat="44.19057" lon="2.59855">
        <ele>676.42</ele>
        <time>2022-07-13T07:07:22Z</time>
      </trkpt>
      <trkpt lat="44.19048" lon="2.59849">
        <ele>674.98</ele>
        <time>2022-07-13T07:07:31Z</time>
      </trkpt>
      <trkpt lat="44.19037" lon="2.59846">
        <ele>673.06</ele>
        <time>2022-07-13T07:07:41Z</time>
      </trkpt>
      <trkpt lat="44.19024" lon="2.5984">
        <ele>671.14</ele>
        <time>2022-07-13T07:07:49Z</time>
      </trkpt>
      <trkpt lat="44.19014" lon="2.59834">
        <ele>669.7</ele>
        <time>2022-07-13T07:07:56Z</time>
      </trkpt>
      <trkpt lat="44.19005" lon="2.59827">
        <ele>668.73</ele>
        <time>2022-07-13T07:08:04Z</time>
      </trkpt>
      <trkpt lat="44.18997" lon="2.59819">
        <ele>669.22</ele>
        <time>2022-07-13T07:08:12Z</time>
      </trkpt>
      <trkpt lat="44.18986" lon="2.59817">
        <ele>669.7</ele>
        <time>2022-07-13T07:08:20Z</time>
      </trkpt>
      <trkpt lat="44.18974" lon="2.59814">
        <ele>670.18</ele>
        <time>2022-07-13T07:08:28Z</time>
      </trkpt>
      <trkpt lat="44.18964" lon="2.59809">
        <ele>670.18</ele>
        <time>2022-07-13T07:08:36Z</time>
      </trkpt>
      <trkpt lat="44.18953" lon="2.59805">
        <ele>670.66</ele>
        <time>2022-07-13T07:08:44Z</time>
      </trkpt>
      <trkpt lat="44.18943" lon="2.59801">
        <ele>671.62</ele>
        <time>2022-07-13T07:08:51Z</time>
      </trkpt>
      <trkpt lat="44.18932" lon="2.59798">
        <ele>671.62</ele>
        <time>2022-07-13T07:08:59Z</time>
      </trkpt>
      <trkpt lat="44.18922" lon="2.59795">
        <ele>671.14</ele>
        <time>2022-07-13T07:09:07Z</time>
      </trkpt>
      <trkpt lat="44.18912" lon="2.59793">
        <ele>670.66</ele>
        <time>2022-07-13T07:09:15Z</time>
      </trkpt>
      <trkpt lat="44.189" lon="2.59789">
        <ele>670.66</ele>
        <time>2022-07-13T07:09:23Z</time>
      </trkpt>
      <trkpt lat="44.18889" lon="2.59786">
        <ele>670.66</ele>
        <time>2022-07-13T07:09:31Z</time>
      </trkpt>
      <trkpt lat="44.18878" lon="2.59785">
        <ele>670.66</ele>
        <time>2022-07-13T07:09:39Z</time>
      </trkpt>
      <trkpt lat="44.18867" lon="2.59784">
        <ele>670.66</ele>
        <time>2022-07-13T07:09:47Z</time>
      </trkpt>
      <trkpt lat="44.18856" lon="2.59781">
        <ele>669.7</ele>
        <time>2022-07-13T07:09:56Z</time>
      </trkpt>
      <trkpt lat="44.18846" lon="2.59777">
        <ele>669.7</ele>
        <time>2022-07-13T07:10:04Z</time>
      </trkpt>
      <trkpt lat="44.18836" lon="2.59773">
        <ele>670.18</ele>
        <time>2022-07-13T07:10:11Z</time>
      </trkpt>
      <trkpt lat="44.18825" lon="2.59768">
        <ele>670.18</ele>
        <time>2022-07-13T07:10:18Z</time>
      </trkpt>
      <trkpt lat="44.18815" lon="2.59764">
        <ele>669.7</ele>
        <time>2022-07-13T07:10:25Z</time>
      </trkpt>
      <trkpt lat="44.18802" lon="2.59758">
        <ele>669.22</ele>
        <time>2022-07-13T07:10:37Z</time>
      </trkpt>
      <trkpt lat="44.18794" lon="2.59752">
        <ele>668.25</ele>
        <time>2022-07-13T07:10:45Z</time>
      </trkpt>
      <trkpt lat="44.18784" lon="2.59747">
        <ele>667.77</ele>
        <time>2022-07-13T07:10:52Z</time>
      </trkpt>
      <trkpt lat="44.18774" lon="2.59743">
        <ele>668.25</ele>
        <time>2022-07-13T07:10:59Z</time>
      </trkpt>
      <trkpt lat="44.18765" lon="2.59738">
        <ele>668.25</ele>
        <time>2022-07-13T07:11:06Z</time>
      </trkpt>
      <trkpt lat="44.18756" lon="2.59733">
        <ele>668.73</ele>
        <time>2022-07-13T07:11:13Z</time>
      </trkpt>
      <trkpt lat="44.18747" lon="2.59726">
        <ele>668.73</ele>
        <time>2022-07-13T07:11:21Z</time>
      </trkpt>
      <trkpt lat="44.18738" lon="2.59719">
        <ele>667.29</ele>
        <time>2022-07-13T07:11:28Z</time>
      </trkpt>
      <trkpt lat="44.1873" lon="2.59709">
        <ele>666.33</ele>
        <time>2022-07-13T07:11:36Z</time>
      </trkpt>
      <trkpt lat="44.18722" lon="2.59702">
        <ele>664.89</ele>
        <time>2022-07-13T07:11:43Z</time>
      </trkpt>
      <trkpt lat="44.18712" lon="2.59693">
        <ele>664.89</ele>
        <time>2022-07-13T07:11:50Z</time>
      </trkpt>
      <trkpt lat="44.18702" lon="2.59688">
        <ele>664.41</ele>
        <time>2022-07-13T07:11:58Z</time>
      </trkpt>
      <trkpt lat="44.18694" lon="2.5968">
        <ele>663.45</ele>
        <time>2022-07-13T07:12:06Z</time>
      </trkpt>
      <trkpt lat="44.18686" lon="2.59671">
        <ele>661.52</ele>
        <time>2022-07-13T07:12:14Z</time>
      </trkpt>
      <trkpt lat="44.18678" lon="2.59661">
        <ele>660.08</ele>
        <time>2022-07-13T07:12:22Z</time>
      </trkpt>
      <trkpt lat="44.18671" lon="2.59652">
        <ele>658.64</ele>
        <time>2022-07-13T07:12:29Z</time>
      </trkpt>
      <trkpt lat="44.18662" lon="2.5964">
        <ele>656.72</ele>
        <time>2022-07-13T07:12:38Z</time>
      </trkpt>
      <trkpt lat="44.18654" lon="2.59626">
        <ele>654.8</ele>
        <time>2022-07-13T07:12:47Z</time>
      </trkpt>
      <trkpt lat="44.18645" lon="2.59613">
        <ele>653.83</ele>
        <time>2022-07-13T07:12:55Z</time>
      </trkpt>
      <trkpt lat="44.18635" lon="2.59604">
        <ele>654.8</ele>
        <time>2022-07-13T07:13:03Z</time>
      </trkpt>
      <trkpt lat="44.18626" lon="2.59596">
        <ele>653.35</ele>
        <time>2022-07-13T07:13:10Z</time>
      </trkpt>
      <trkpt lat="44.18619" lon="2.59587">
        <ele>650.95</ele>
        <time>2022-07-13T07:13:18Z</time>
      </trkpt>
      <trkpt lat="44.18614" lon="2.59575">
        <ele>649.03</ele>
        <time>2022-07-13T07:13:26Z</time>
      </trkpt>
      <trkpt lat="44.18602" lon="2.5956">
        <ele>648.07</ele>
        <time>2022-07-13T07:14:40Z</time>
      </trkpt>
      <trkpt lat="44.18594" lon="2.59554">
        <ele>650.47</ele>
        <time>2022-07-13T07:14:48Z</time>
      </trkpt>
      <trkpt lat="44.18593" lon="2.59539">
        <ele>650.95</ele>
        <time>2022-07-13T07:14:55Z</time>
      </trkpt>
      <trkpt lat="44.18589" lon="2.59526">
        <ele>651.43</ele>
        <time>2022-07-13T07:15:02Z</time>
      </trkpt>
      <trkpt lat="44.18583" lon="2.59513">
        <ele>650.95</ele>
        <time>2022-07-13T07:15:11Z</time>
      </trkpt>
      <trkpt lat="44.18578" lon="2.59495">
        <ele>650.47</ele>
        <time>2022-07-13T07:15:21Z</time>
      </trkpt>
      <trkpt lat="44.18574" lon="2.59482">
        <ele>649.99</ele>
        <time>2022-07-13T07:15:29Z</time>
      </trkpt>
      <trkpt lat="44.18568" lon="2.59468">
        <ele>649.51</ele>
        <time>2022-07-13T07:15:39Z</time>
      </trkpt>
      <trkpt lat="44.18564" lon="2.59454">
        <ele>649.03</ele>
        <time>2022-07-13T07:15:46Z</time>
      </trkpt>
      <trkpt lat="44.18558" lon="2.59441">
        <ele>648.55</ele>
        <time>2022-07-13T07:15:53Z</time>
      </trkpt>
      <trkpt lat="44.18554" lon="2.59427">
        <ele>647.1</ele>
        <time>2022-07-13T07:16:00Z</time>
      </trkpt>
      <trkpt lat="44.1855" lon="2.59414">
        <ele>645.66</ele>
        <time>2022-07-13T07:16:08Z</time>
      </trkpt>
      <trkpt lat="44.18546" lon="2.594">
        <ele>643.74</ele>
        <time>2022-07-13T07:16:16Z</time>
      </trkpt>
      <trkpt lat="44.18533" lon="2.59346">
        <ele>640.38</ele>
        <time>2022-07-13T07:16:55Z</time>
      </trkpt>
      <trkpt lat="44.18528" lon="2.59319">
        <ele>639.89</ele>
        <time>2022-07-13T07:17:03Z</time>
      </trkpt>
      <trkpt lat="44.1852" lon="2.59275">
        <ele>630.76</ele>
        <time>2022-07-13T07:17:29Z</time>
      </trkpt>
      <trkpt lat="44.18506" lon="2.59248">
        <ele>625.96</ele>
        <time>2022-07-13T07:17:47Z</time>
      </trkpt>
      <trkpt lat="44.18496" lon="2.59232">
        <ele>624.51</ele>
        <time>2022-07-13T07:17:55Z</time>
      </trkpt>
      <trkpt lat="44.1849" lon="2.5922">
        <ele>621.15</ele>
        <time>2022-07-13T07:18:03Z</time>
      </trkpt>
      <trkpt lat="44.18486" lon="2.59207">
        <ele>617.78</ele>
        <time>2022-07-13T07:18:11Z</time>
      </trkpt>
      <trkpt lat="44.1848" lon="2.59193">
        <ele>613.94</ele>
        <time>2022-07-13T07:18:20Z</time>
      </trkpt>
      <trkpt lat="44.18481" lon="2.59174">
        <ele>610.09</ele>
        <time>2022-07-13T07:18:30Z</time>
      </trkpt>
      <trkpt lat="44.18472" lon="2.59148">
        <ele>604.33</ele>
        <time>2022-07-13T07:18:46Z</time>
      </trkpt>
      <trkpt lat="44.18466" lon="2.5913">
        <ele>601.92</ele>
        <time>2022-07-13T07:18:54Z</time>
      </trkpt>
      <trkpt lat="44.18461" lon="2.59115">
        <ele>599.52</ele>
        <time>2022-07-13T07:19:02Z</time>
      </trkpt>
      <trkpt lat="44.18452" lon="2.5909">
        <ele>594.71</ele>
        <time>2022-07-13T07:19:19Z</time>
      </trkpt>
      <trkpt lat="44.18446" lon="2.59072">
        <ele>592.79</ele>
        <time>2022-07-13T07:19:27Z</time>
      </trkpt>
      <trkpt lat="44.1843" lon="2.59049">
        <ele>602.88</ele>
        <time>2022-07-13T07:20:06Z</time>
      </trkpt>
      <trkpt lat="44.18414" lon="2.59032">
        <ele>601.44</ele>
        <time>2022-07-13T07:20:22Z</time>
      </trkpt>
      <trkpt lat="44.18399" lon="2.59018">
        <ele>600.48</ele>
        <time>2022-07-13T07:20:33Z</time>
      </trkpt>
      <trkpt lat="44.18387" lon="2.59008">
        <ele>599.52</ele>
        <time>2022-07-13T07:20:41Z</time>
      </trkpt>
      <trkpt lat="44.18378" lon="2.58996">
        <ele>598.56</ele>
        <time>2022-07-13T07:20:49Z</time>
      </trkpt>
      <trkpt lat="44.18368" lon="2.58984">
        <ele>597.6</ele>
        <time>2022-07-13T07:20:59Z</time>
      </trkpt>
      <trkpt lat="44.18329" lon="2.5894">
        <ele>611.06</ele>
        <time>2022-07-13T07:31:27Z</time>
      </trkpt>
      <trkpt lat="44.18242" lon="2.59249">
        <ele>615.38</ele>
        <time>2022-07-13T07:34:57Z</time>
      </trkpt>
      <trkpt lat="44.1821" lon="2.5929">
        <ele>622.11</ele>
        <time>2022-07-13T07:35:27Z</time>
      </trkpt>
      <trkpt lat="44.18201" lon="2.59302">
        <ele>623.55</ele>
        <time>2022-07-13T07:35:37Z</time>
      </trkpt>
      <trkpt lat="44.1819" lon="2.59315">
        <ele>623.55</ele>
        <time>2022-07-13T07:35:48Z</time>
      </trkpt>
      <trkpt lat="44.18181" lon="2.59326">
        <ele>625.47</ele>
        <time>2022-07-13T07:35:58Z</time>
      </trkpt>
      <trkpt lat="44.18171" lon="2.59336">
        <ele>625.96</ele>
        <time>2022-07-13T07:36:06Z</time>
      </trkpt>
      <trkpt lat="44.18163" lon="2.59346">
        <ele>625.47</ele>
        <time>2022-07-13T07:36:14Z</time>
      </trkpt>
      <trkpt lat="44.18153" lon="2.59352">
        <ele>624.99</ele>
        <time>2022-07-13T07:36:22Z</time>
      </trkpt>
      <trkpt lat="44.18144" lon="2.59359">
        <ele>625.47</ele>
        <time>2022-07-13T07:36:27Z</time>
      </trkpt>
      <trkpt lat="44.18133" lon="2.59369">
        <ele>626.44</ele>
        <time>2022-07-13T07:36:35Z</time>
      </trkpt>
      <trkpt lat="44.18122" lon="2.59377">
        <ele>628.36</ele>
        <time>2022-07-13T07:36:44Z</time>
      </trkpt>
      <trkpt lat="44.18111" lon="2.59384">
        <ele>629.32</ele>
        <time>2022-07-13T07:36:53Z</time>
      </trkpt>
      <trkpt lat="44.18101" lon="2.59389">
        <ele>629.8</ele>
        <time>2022-07-13T07:37:00Z</time>
      </trkpt>
      <trkpt lat="44.1809" lon="2.59397">
        <ele>630.76</ele>
        <time>2022-07-13T07:37:07Z</time>
      </trkpt>
      <trkpt lat="44.1808" lon="2.59406">
        <ele>633.17</ele>
        <time>2022-07-13T07:37:17Z</time>
      </trkpt>
      <trkpt lat="44.1807" lon="2.59413">
        <ele>634.61</ele>
        <time>2022-07-13T07:37:24Z</time>
      </trkpt>
      <trkpt lat="44.18062" lon="2.5942">
        <ele>635.09</ele>
        <time>2022-07-13T07:37:31Z</time>
      </trkpt>
      <trkpt lat="44.18054" lon="2.59427">
        <ele>635.57</ele>
        <time>2022-07-13T07:37:38Z</time>
      </trkpt>
      <trkpt lat="44.18044" lon="2.59432">
        <ele>636.05</ele>
        <time>2022-07-13T07:37:46Z</time>
      </trkpt>
      <trkpt lat="44.18033" lon="2.59435">
        <ele>636.53</ele>
        <time>2022-07-13T07:37:54Z</time>
      </trkpt>
      <trkpt lat="44.18021" lon="2.59439">
        <ele>637.49</ele>
        <time>2022-07-13T07:38:02Z</time>
      </trkpt>
      <trkpt lat="44.1801" lon="2.5944">
        <ele>637.97</ele>
        <time>2022-07-13T07:38:09Z</time>
      </trkpt>
      <trkpt lat="44.18" lon="2.5944">
        <ele>638.45</ele>
        <time>2022-07-13T07:38:16Z</time>
      </trkpt>
      <trkpt lat="44.17988" lon="2.59436">
        <ele>638.93</ele>
        <time>2022-07-13T07:38:23Z</time>
      </trkpt>
      <trkpt lat="44.17977" lon="2.59435">
        <ele>638.93</ele>
        <time>2022-07-13T07:38:30Z</time>
      </trkpt>
      <trkpt lat="44.17966" lon="2.59435">
        <ele>639.41</ele>
        <time>2022-07-13T07:38:38Z</time>
      </trkpt>
      <trkpt lat="44.17955" lon="2.59434">
        <ele>639.89</ele>
        <time>2022-07-13T07:38:45Z</time>
      </trkpt>
      <trkpt lat="44.17944" lon="2.59433">
        <ele>639.89</ele>
        <time>2022-07-13T07:38:52Z</time>
      </trkpt>
      <trkpt lat="44.17932" lon="2.59431">
        <ele>640.38</ele>
        <time>2022-07-13T07:38:59Z</time>
      </trkpt>
      <trkpt lat="44.17923" lon="2.59429">
        <ele>639.89</ele>
        <time>2022-07-13T07:39:06Z</time>
      </trkpt>
      <trkpt lat="44.17911" lon="2.59429">
        <ele>639.89</ele>
        <time>2022-07-13T07:39:13Z</time>
      </trkpt>
      <trkpt lat="44.179" lon="2.59431">
        <ele>640.86</ele>
        <time>2022-07-13T07:39:20Z</time>
      </trkpt>
      <trkpt lat="44.1789" lon="2.59432">
        <ele>641.34</ele>
        <time>2022-07-13T07:39:27Z</time>
      </trkpt>
      <trkpt lat="44.17881" lon="2.59432">
        <ele>641.82</ele>
        <time>2022-07-13T07:39:33Z</time>
      </trkpt>
      <trkpt lat="44.1787" lon="2.59432">
        <ele>642.78</ele>
        <time>2022-07-13T07:39:39Z</time>
      </trkpt>
      <trkpt lat="44.1786" lon="2.59432">
        <ele>643.26</ele>
        <time>2022-07-13T07:39:46Z</time>
      </trkpt>
      <trkpt lat="44.1785" lon="2.59433">
        <ele>643.74</ele>
        <time>2022-07-13T07:39:53Z</time>
      </trkpt>
      <trkpt lat="44.17839" lon="2.59433">
        <ele>644.7</ele>
        <time>2022-07-13T07:40:00Z</time>
      </trkpt>
      <trkpt lat="44.17829" lon="2.59433">
        <ele>649.03</ele>
        <time>2022-07-13T07:40:07Z</time>
      </trkpt>
      <trkpt lat="44.17819" lon="2.59436">
        <ele>654.8</ele>
        <time>2022-07-13T07:40:18Z</time>
      </trkpt>
      <trkpt lat="44.17809" lon="2.59436">
        <ele>656.24</ele>
        <time>2022-07-13T07:40:42Z</time>
      </trkpt>
      <trkpt lat="44.17798" lon="2.59436">
        <ele>657.2</ele>
        <time>2022-07-13T07:40:49Z</time>
      </trkpt>
      <trkpt lat="44.17789" lon="2.59435">
        <ele>658.16</ele>
        <time>2022-07-13T07:40:55Z</time>
      </trkpt>
      <trkpt lat="44.1778" lon="2.59436">
        <ele>659.12</ele>
        <time>2022-07-13T07:41:01Z</time>
      </trkpt>
      <trkpt lat="44.1777" lon="2.59439">
        <ele>660.08</ele>
        <time>2022-07-13T07:41:08Z</time>
      </trkpt>
      <trkpt lat="44.1776" lon="2.59442">
        <ele>661.04</ele>
        <time>2022-07-13T07:41:15Z</time>
      </trkpt>
      <trkpt lat="44.17751" lon="2.59447">
        <ele>662.01</ele>
        <time>2022-07-13T07:41:22Z</time>
      </trkpt>
      <trkpt lat="44.17741" lon="2.59451">
        <ele>662.97</ele>
        <time>2022-07-13T07:41:29Z</time>
      </trkpt>
      <trkpt lat="44.17731" lon="2.59455">
        <ele>663.45</ele>
        <time>2022-07-13T07:41:36Z</time>
      </trkpt>
      <trkpt lat="44.17721" lon="2.59459">
        <ele>663.45</ele>
        <time>2022-07-13T07:41:43Z</time>
      </trkpt>
      <trkpt lat="44.1771" lon="2.59462">
        <ele>662.97</ele>
        <time>2022-07-13T07:41:51Z</time>
      </trkpt>
      <trkpt lat="44.177" lon="2.59464">
        <ele>662.01</ele>
        <time>2022-07-13T07:41:59Z</time>
      </trkpt>
      <trkpt lat="44.1769" lon="2.59467">
        <ele>661.04</ele>
        <time>2022-07-13T07:42:06Z</time>
      </trkpt>
      <trkpt lat="44.17679" lon="2.59469">
        <ele>661.04</ele>
        <time>2022-07-13T07:42:13Z</time>
      </trkpt>
      <trkpt lat="44.17668" lon="2.59468">
        <ele>661.04</ele>
        <time>2022-07-13T07:42:20Z</time>
      </trkpt>
      <trkpt lat="44.17658" lon="2.59466">
        <ele>661.52</ele>
        <time>2022-07-13T07:42:27Z</time>
      </trkpt>
      <trkpt lat="44.17649" lon="2.59462">
        <ele>662.01</ele>
        <time>2022-07-13T07:42:34Z</time>
      </trkpt>
      <trkpt lat="44.17638" lon="2.59458">
        <ele>662.01</ele>
        <time>2022-07-13T07:42:41Z</time>
      </trkpt>
      <trkpt lat="44.17628" lon="2.59455">
        <ele>662.97</ele>
        <time>2022-07-13T07:42:48Z</time>
      </trkpt>
      <trkpt lat="44.17617" lon="2.59451">
        <ele>662.97</ele>
        <time>2022-07-13T07:42:55Z</time>
      </trkpt>
      <trkpt lat="44.17607" lon="2.59445">
        <ele>664.41</ele>
        <time>2022-07-13T07:43:02Z</time>
      </trkpt>
      <trkpt lat="44.17598" lon="2.59441">
        <ele>664.41</ele>
        <time>2022-07-13T07:43:09Z</time>
      </trkpt>
      <trkpt lat="44.17588" lon="2.59439">
        <ele>664.89</ele>
        <time>2022-07-13T07:43:16Z</time>
      </trkpt>
      <trkpt lat="44.17579" lon="2.59436">
        <ele>664.41</ele>
        <time>2022-07-13T07:43:22Z</time>
      </trkpt>
      <trkpt lat="44.1757" lon="2.59432">
        <ele>664.41</ele>
        <time>2022-07-13T07:43:28Z</time>
      </trkpt>
      <trkpt lat="44.1756" lon="2.5943">
        <ele>663.45</ele>
        <time>2022-07-13T07:43:36Z</time>
      </trkpt>
      <trkpt lat="44.17541" lon="2.59417">
        <ele>664.89</ele>
        <time>2022-07-13T07:44:00Z</time>
      </trkpt>
      <trkpt lat="44.1753" lon="2.59412">
        <ele>663.93</ele>
        <time>2022-07-13T07:44:08Z</time>
      </trkpt>
      <trkpt lat="44.17522" lon="2.59405">
        <ele>662.97</ele>
        <time>2022-07-13T07:44:15Z</time>
      </trkpt>
      <trkpt lat="44.17513" lon="2.59397">
        <ele>662.97</ele>
        <time>2022-07-13T07:44:23Z</time>
      </trkpt>
      <trkpt lat="44.17505" lon="2.59386">
        <ele>663.45</ele>
        <time>2022-07-13T07:44:31Z</time>
      </trkpt>
      <trkpt lat="44.17495" lon="2.59374">
        <ele>664.89</ele>
        <time>2022-07-13T07:44:40Z</time>
      </trkpt>
      <trkpt lat="44.17484" lon="2.59366">
        <ele>666.33</ele>
        <time>2022-07-13T07:44:48Z</time>
      </trkpt>
      <trkpt lat="44.17474" lon="2.59364">
        <ele>671.62</ele>
        <time>2022-07-13T07:44:57Z</time>
      </trkpt>
      <trkpt lat="44.17464" lon="2.59374">
        <ele>674.5</ele>
        <time>2022-07-13T07:45:05Z</time>
      </trkpt>
      <trkpt lat="44.17457" lon="2.59386">
        <ele>674.98</ele>
        <time>2022-07-13T07:45:15Z</time>
      </trkpt>
      <trkpt lat="44.17449" lon="2.594">
        <ele>674.98</ele>
        <time>2022-07-13T07:45:24Z</time>
      </trkpt>
      <trkpt lat="44.1744" lon="2.59412">
        <ele>678.35</ele>
        <time>2022-07-13T07:45:32Z</time>
      </trkpt>
      <trkpt lat="44.17434" lon="2.59422">
        <ele>680.27</ele>
        <time>2022-07-13T07:45:41Z</time>
      </trkpt>
      <trkpt lat="44.17417" lon="2.59442">
        <ele>682.67</ele>
        <time>2022-07-13T07:45:57Z</time>
      </trkpt>
      <trkpt lat="44.17409" lon="2.59459">
        <ele>682.67</ele>
        <time>2022-07-13T07:46:06Z</time>
      </trkpt>
      <trkpt lat="44.174" lon="2.59471">
        <ele>681.71</ele>
        <time>2022-07-13T07:46:14Z</time>
      </trkpt>
      <trkpt lat="44.17392" lon="2.59484">
        <ele>681.23</ele>
        <time>2022-07-13T07:46:23Z</time>
      </trkpt>
      <trkpt lat="44.17384" lon="2.59495">
        <ele>680.27</ele>
        <time>2022-07-13T07:46:31Z</time>
      </trkpt>
      <trkpt lat="44.17376" lon="2.59509">
        <ele>678.83</ele>
        <time>2022-07-13T07:46:40Z</time>
      </trkpt>
      <trkpt lat="44.17368" lon="2.59524">
        <ele>676.91</ele>
        <time>2022-07-13T07:46:49Z</time>
      </trkpt>
      <trkpt lat="44.17363" lon="2.59541">
        <ele>675.94</ele>
        <time>2022-07-13T07:46:58Z</time>
      </trkpt>
      <trkpt lat="44.17337" lon="2.59617">
        <ele>671.62</ele>
        <time>2022-07-13T07:47:47Z</time>
      </trkpt>
      <trkpt lat="44.17319" lon="2.5963">
        <ele>675.46</ele>
        <time>2022-07-13T07:47:56Z</time>
      </trkpt>
      <trkpt lat="44.17299" lon="2.59641">
        <ele>678.35</ele>
        <time>2022-07-13T07:48:11Z</time>
      </trkpt>
      <trkpt lat="44.17287" lon="2.59659">
        <ele>679.31</ele>
        <time>2022-07-13T07:48:21Z</time>
      </trkpt>
      <trkpt lat="44.17272" lon="2.5969">
        <ele>672.1</ele>
        <time>2022-07-13T07:48:43Z</time>
      </trkpt>
      <trkpt lat="44.17266" lon="2.59711">
        <ele>680.75</ele>
        <time>2022-07-13T07:48:51Z</time>
      </trkpt>
      <trkpt lat="44.17261" lon="2.59739">
        <ele>687.96</ele>
        <time>2022-07-13T07:49:06Z</time>
      </trkpt>
      <trkpt lat="44.17237" lon="2.59804">
        <ele>685.56</ele>
        <time>2022-07-13T07:49:40Z</time>
      </trkpt>
      <trkpt lat="44.17235" lon="2.5982">
        <ele>684.12</ele>
        <time>2022-07-13T07:49:48Z</time>
      </trkpt>
      <trkpt lat="44.17197" lon="2.59942">
        <ele>663.93</ele>
        <time>2022-07-13T07:50:58Z</time>
      </trkpt>
      <trkpt lat="44.17157" lon="2.60001">
        <ele>673.54</ele>
        <time>2022-07-13T07:52:07Z</time>
      </trkpt>
      <trkpt lat="44.17152" lon="2.60017">
        <ele>671.62</ele>
        <time>2022-07-13T07:52:16Z</time>
      </trkpt>
      <trkpt lat="44.17149" lon="2.60039">
        <ele>667.29</ele>
        <time>2022-07-13T07:52:27Z</time>
      </trkpt>
      <trkpt lat="44.17146" lon="2.60058">
        <ele>664.41</ele>
        <time>2022-07-13T07:52:37Z</time>
      </trkpt>
      <trkpt lat="44.17141" lon="2.60075">
        <ele>662.01</ele>
        <time>2022-07-13T07:52:46Z</time>
      </trkpt>
      <trkpt lat="44.17139" lon="2.6009">
        <ele>659.6</ele>
        <time>2022-07-13T07:52:54Z</time>
      </trkpt>
      <trkpt lat="44.17134" lon="2.60104">
        <ele>655.76</ele>
        <time>2022-07-13T07:53:03Z</time>
      </trkpt>
      <trkpt lat="44.1713" lon="2.60118">
        <ele>650.95</ele>
        <time>2022-07-13T07:53:12Z</time>
      </trkpt>
      <trkpt lat="44.17126" lon="2.60129">
        <ele>644.7</ele>
        <time>2022-07-13T07:53:21Z</time>
      </trkpt>
      <trkpt lat="44.17121" lon="2.6014">
        <ele>645.18</ele>
        <time>2022-07-13T07:53:27Z</time>
      </trkpt>
      <trkpt lat="44.17114" lon="2.60152">
        <ele>646.62</ele>
        <time>2022-07-13T07:53:33Z</time>
      </trkpt>
      <trkpt lat="44.17107" lon="2.60164">
        <ele>647.59</ele>
        <time>2022-07-13T07:53:39Z</time>
      </trkpt>
      <trkpt lat="44.171" lon="2.60178">
        <ele>647.59</ele>
        <time>2022-07-13T07:53:46Z</time>
      </trkpt>
      <trkpt lat="44.17096" lon="2.6019">
        <ele>647.1</ele>
        <time>2022-07-13T07:53:53Z</time>
      </trkpt>
      <trkpt lat="44.17094" lon="2.60207">
        <ele>646.62</ele>
        <time>2022-07-13T07:54:01Z</time>
      </trkpt>
      <trkpt lat="44.17092" lon="2.60223">
        <ele>646.14</ele>
        <time>2022-07-13T07:54:09Z</time>
      </trkpt>
      <trkpt lat="44.17091" lon="2.60239">
        <ele>644.22</ele>
        <time>2022-07-13T07:54:16Z</time>
      </trkpt>
      <trkpt lat="44.17086" lon="2.60253">
        <ele>643.26</ele>
        <time>2022-07-13T07:54:25Z</time>
      </trkpt>
      <trkpt lat="44.17076" lon="2.60271">
        <ele>640.38</ele>
        <time>2022-07-13T07:54:38Z</time>
      </trkpt>
      <trkpt lat="44.17066" lon="2.60303">
        <ele>634.13</ele>
        <time>2022-07-13T07:54:56Z</time>
      </trkpt>
      <trkpt lat="44.17046" lon="2.6037">
        <ele>609.13</ele>
        <time>2022-07-13T07:57:47Z</time>
      </trkpt>
      <trkpt lat="44.17032" lon="2.60384">
        <ele>612.02</ele>
        <time>2022-07-13T07:57:53Z</time>
      </trkpt>
      <trkpt lat="44.1702" lon="2.60395">
        <ele>616.34</ele>
        <time>2022-07-13T07:58:01Z</time>
      </trkpt>
      <trkpt lat="44.17006" lon="2.60408">
        <ele>623.07</ele>
        <time>2022-07-13T07:58:12Z</time>
      </trkpt>
      <trkpt lat="44.16997" lon="2.60421">
        <ele>626.44</ele>
        <time>2022-07-13T07:58:21Z</time>
      </trkpt>
      <trkpt lat="44.1699" lon="2.60435">
        <ele>628.84</ele>
        <time>2022-07-13T07:58:29Z</time>
      </trkpt>
      <trkpt lat="44.16983" lon="2.60449">
        <ele>631.24</ele>
        <time>2022-07-13T07:58:38Z</time>
      </trkpt>
      <trkpt lat="44.16974" lon="2.60461">
        <ele>633.17</ele>
        <time>2022-07-13T07:58:48Z</time>
      </trkpt>
      <trkpt lat="44.16966" lon="2.60475">
        <ele>635.09</ele>
        <time>2022-07-13T07:58:57Z</time>
      </trkpt>
      <trkpt lat="44.1696" lon="2.6049">
        <ele>636.53</ele>
        <time>2022-07-13T07:59:06Z</time>
      </trkpt>
      <trkpt lat="44.16954" lon="2.60503">
        <ele>637.01</ele>
        <time>2022-07-13T07:59:15Z</time>
      </trkpt>
      <trkpt lat="44.16949" lon="2.60518">
        <ele>636.53</ele>
        <time>2022-07-13T07:59:23Z</time>
      </trkpt>
      <trkpt lat="44.16943" lon="2.60533">
        <ele>636.05</ele>
        <time>2022-07-13T07:59:32Z</time>
      </trkpt>
      <trkpt lat="44.16938" lon="2.60548">
        <ele>636.05</ele>
        <time>2022-07-13T07:59:40Z</time>
      </trkpt>
      <trkpt lat="44.16931" lon="2.60566">
        <ele>636.05</ele>
        <time>2022-07-13T07:59:52Z</time>
      </trkpt>
      <trkpt lat="44.16924" lon="2.60588">
        <ele>638.45</ele>
        <time>2022-07-13T08:00:01Z</time>
      </trkpt>
      <trkpt lat="44.16916" lon="2.60604">
        <ele>640.86</ele>
        <time>2022-07-13T08:00:09Z</time>
      </trkpt>
      <trkpt lat="44.1691" lon="2.60621">
        <ele>641.82</ele>
        <time>2022-07-13T08:00:17Z</time>
      </trkpt>
      <trkpt lat="44.16904" lon="2.60636">
        <ele>643.26</ele>
        <time>2022-07-13T08:00:25Z</time>
      </trkpt>
      <trkpt lat="44.169" lon="2.60651">
        <ele>644.22</ele>
        <time>2022-07-13T08:00:34Z</time>
      </trkpt>
      <trkpt lat="44.16896" lon="2.60667">
        <ele>644.7</ele>
        <time>2022-07-13T08:00:43Z</time>
      </trkpt>
      <trkpt lat="44.16887" lon="2.6068">
        <ele>646.14</ele>
        <time>2022-07-13T08:00:50Z</time>
      </trkpt>
      <trkpt lat="44.16878" lon="2.60691">
        <ele>647.59</ele>
        <time>2022-07-13T08:00:57Z</time>
      </trkpt>
      <trkpt lat="44.16871" lon="2.607">
        <ele>649.03</ele>
        <time>2022-07-13T08:01:04Z</time>
      </trkpt>
      <trkpt lat="44.16862" lon="2.60711">
        <ele>651.43</ele>
        <time>2022-07-13T08:01:10Z</time>
      </trkpt>
      <trkpt lat="44.16853" lon="2.60721">
        <ele>652.87</ele>
        <time>2022-07-13T08:01:17Z</time>
      </trkpt>
      <trkpt lat="44.16846" lon="2.6073">
        <ele>654.31</ele>
        <time>2022-07-13T08:01:24Z</time>
      </trkpt>
      <trkpt lat="44.16839" lon="2.6074">
        <ele>655.76</ele>
        <time>2022-07-13T08:01:31Z</time>
      </trkpt>
      <trkpt lat="44.16832" lon="2.60751">
        <ele>657.68</ele>
        <time>2022-07-13T08:01:38Z</time>
      </trkpt>
      <trkpt lat="44.16824" lon="2.60758">
        <ele>659.12</ele>
        <time>2022-07-13T08:01:45Z</time>
      </trkpt>
      <trkpt lat="44.16817" lon="2.60768">
        <ele>661.04</ele>
        <time>2022-07-13T08:01:52Z</time>
      </trkpt>
      <trkpt lat="44.1681" lon="2.60777">
        <ele>662.97</ele>
        <time>2022-07-13T08:01:59Z</time>
      </trkpt>
      <trkpt lat="44.16802" lon="2.60786">
        <ele>664.89</ele>
        <time>2022-07-13T08:02:06Z</time>
      </trkpt>
      <trkpt lat="44.16794" lon="2.60795">
        <ele>666.81</ele>
        <time>2022-07-13T08:02:13Z</time>
      </trkpt>
      <trkpt lat="44.16787" lon="2.60804">
        <ele>668.73</ele>
        <time>2022-07-13T08:02:20Z</time>
      </trkpt>
      <trkpt lat="44.16779" lon="2.60813">
        <ele>670.18</ele>
        <time>2022-07-13T08:02:29Z</time>
      </trkpt>
      <trkpt lat="44.16763" lon="2.60845">
        <ele>674.98</ele>
        <time>2022-07-13T08:02:59Z</time>
      </trkpt>
      <trkpt lat="44.16754" lon="2.60862">
        <ele>676.42</ele>
        <time>2022-07-13T08:03:08Z</time>
      </trkpt>
      <trkpt lat="44.16743" lon="2.60876">
        <ele>677.39</ele>
        <time>2022-07-13T08:03:17Z</time>
      </trkpt>
      <trkpt lat="44.16733" lon="2.60891">
        <ele>678.35</ele>
        <time>2022-07-13T08:03:22Z</time>
      </trkpt>
      <trkpt lat="44.1672" lon="2.60907">
        <ele>681.23</ele>
        <time>2022-07-13T08:03:29Z</time>
      </trkpt>
      <trkpt lat="44.16712" lon="2.60918">
        <ele>684.6</ele>
        <time>2022-07-13T08:03:37Z</time>
      </trkpt>
      <trkpt lat="44.16703" lon="2.60925">
        <ele>687.48</ele>
        <time>2022-07-13T08:03:45Z</time>
      </trkpt>
      <trkpt lat="44.16697" lon="2.60935">
        <ele>689.88</ele>
        <time>2022-07-13T08:03:52Z</time>
      </trkpt>
      <trkpt lat="44.16692" lon="2.60949">
        <ele>691.33</ele>
        <time>2022-07-13T08:03:59Z</time>
      </trkpt>
      <trkpt lat="44.16687" lon="2.60962">
        <ele>692.29</ele>
        <time>2022-07-13T08:04:06Z</time>
      </trkpt>
      <trkpt lat="44.16682" lon="2.60975">
        <ele>692.29</ele>
        <time>2022-07-13T08:04:13Z</time>
      </trkpt>
      <trkpt lat="44.16677" lon="2.60987">
        <ele>692.29</ele>
        <time>2022-07-13T08:04:20Z</time>
      </trkpt>
      <trkpt lat="44.16673" lon="2.61">
        <ele>691.81</ele>
        <time>2022-07-13T08:04:27Z</time>
      </trkpt>
      <trkpt lat="44.16668" lon="2.61011">
        <ele>691.81</ele>
        <time>2022-07-13T08:04:34Z</time>
      </trkpt>
      <trkpt lat="44.16664" lon="2.61024">
        <ele>692.29</ele>
        <time>2022-07-13T08:04:41Z</time>
      </trkpt>
      <trkpt lat="44.1666" lon="2.61039">
        <ele>692.77</ele>
        <time>2022-07-13T08:04:48Z</time>
      </trkpt>
      <trkpt lat="44.16657" lon="2.61051">
        <ele>693.25</ele>
        <time>2022-07-13T08:04:55Z</time>
      </trkpt>
      <trkpt lat="44.16655" lon="2.61066">
        <ele>693.73</ele>
        <time>2022-07-13T08:05:03Z</time>
      </trkpt>
      <trkpt lat="44.16652" lon="2.6108">
        <ele>694.69</ele>
        <time>2022-07-13T08:05:10Z</time>
      </trkpt>
      <trkpt lat="44.16647" lon="2.61092">
        <ele>695.17</ele>
        <time>2022-07-13T08:05:17Z</time>
      </trkpt>
      <trkpt lat="44.16643" lon="2.61104">
        <ele>695.17</ele>
        <time>2022-07-13T08:05:24Z</time>
      </trkpt>
      <trkpt lat="44.16638" lon="2.6112">
        <ele>695.17</ele>
        <time>2022-07-13T08:05:36Z</time>
      </trkpt>
      <trkpt lat="44.16633" lon="2.61132">
        <ele>695.17</ele>
        <time>2022-07-13T08:05:42Z</time>
      </trkpt>
      <trkpt lat="44.16629" lon="2.61145">
        <ele>695.65</ele>
        <time>2022-07-13T08:05:49Z</time>
      </trkpt>
      <trkpt lat="44.16625" lon="2.61158">
        <ele>696.13</ele>
        <time>2022-07-13T08:05:55Z</time>
      </trkpt>
      <trkpt lat="44.16622" lon="2.61171">
        <ele>696.13</ele>
        <time>2022-07-13T08:06:02Z</time>
      </trkpt>
      <trkpt lat="44.16619" lon="2.61185">
        <ele>697.09</ele>
        <time>2022-07-13T08:06:10Z</time>
      </trkpt>
      <trkpt lat="44.16616" lon="2.612">
        <ele>697.57</ele>
        <time>2022-07-13T08:06:18Z</time>
      </trkpt>
      <trkpt lat="44.16612" lon="2.61214">
        <ele>698.53</ele>
        <time>2022-07-13T08:06:25Z</time>
      </trkpt>
      <trkpt lat="44.16608" lon="2.61228">
        <ele>699.5</ele>
        <time>2022-07-13T08:06:31Z</time>
      </trkpt>
      <trkpt lat="44.16602" lon="2.6124">
        <ele>699.98</ele>
        <time>2022-07-13T08:06:35Z</time>
      </trkpt>
      <trkpt lat="44.16596" lon="2.61251">
        <ele>700.46</ele>
        <time>2022-07-13T08:06:40Z</time>
      </trkpt>
      <trkpt lat="44.16591" lon="2.61263">
        <ele>701.42</ele>
        <time>2022-07-13T08:06:47Z</time>
      </trkpt>
      <trkpt lat="44.16584" lon="2.61275">
        <ele>702.38</ele>
        <time>2022-07-13T08:06:54Z</time>
      </trkpt>
      <trkpt lat="44.16578" lon="2.61286">
        <ele>702.86</ele>
        <time>2022-07-13T08:07:01Z</time>
      </trkpt>
      <trkpt lat="44.16573" lon="2.61299">
        <ele>704.3</ele>
        <time>2022-07-13T08:07:09Z</time>
      </trkpt>
      <trkpt lat="44.16568" lon="2.61313">
        <ele>705.75</ele>
        <time>2022-07-13T08:07:17Z</time>
      </trkpt>
      <trkpt lat="44.16564" lon="2.61327">
        <ele>707.19</ele>
        <time>2022-07-13T08:07:25Z</time>
      </trkpt>
      <trkpt lat="44.16558" lon="2.6134">
        <ele>708.15</ele>
        <time>2022-07-13T08:07:32Z</time>
      </trkpt>
      <trkpt lat="44.1655" lon="2.61352">
        <ele>710.07</ele>
        <time>2022-07-13T08:07:40Z</time>
      </trkpt>
      <trkpt lat="44.16543" lon="2.61364">
        <ele>711.03</ele>
        <time>2022-07-13T08:07:47Z</time>
      </trkpt>
      <trkpt lat="44.16536" lon="2.61376">
        <ele>711.03</ele>
        <time>2022-07-13T08:07:56Z</time>
      </trkpt>
      <trkpt lat="44.16519" lon="2.61394">
        <ele>713.92</ele>
        <time>2022-07-13T08:08:13Z</time>
      </trkpt>
      <trkpt lat="44.16509" lon="2.61406">
        <ele>714.88</ele>
        <time>2022-07-13T08:08:23Z</time>
      </trkpt>
      <trkpt lat="44.16498" lon="2.61419">
        <ele>716.32</ele>
        <time>2022-07-13T08:08:31Z</time>
      </trkpt>
      <trkpt lat="44.16489" lon="2.61429">
        <ele>717.76</ele>
        <time>2022-07-13T08:08:38Z</time>
      </trkpt>
      <trkpt lat="44.1648" lon="2.6144">
        <ele>718.24</ele>
        <time>2022-07-13T08:08:46Z</time>
      </trkpt>
      <trkpt lat="44.16472" lon="2.61452">
        <ele>718.24</ele>
        <time>2022-07-13T08:08:55Z</time>
      </trkpt>
      <trkpt lat="44.16462" lon="2.61463">
        <ele>718.24</ele>
        <time>2022-07-13T08:09:05Z</time>
      </trkpt>
      <trkpt lat="44.16452" lon="2.61477">
        <ele>716.8</ele>
        <time>2022-07-13T08:09:15Z</time>
      </trkpt>
      <trkpt lat="44.16444" lon="2.61493">
        <ele>716.32</ele>
        <time>2022-07-13T08:09:24Z</time>
      </trkpt>
      <trkpt lat="44.16435" lon="2.61507">
        <ele>716.32</ele>
        <time>2022-07-13T08:09:33Z</time>
      </trkpt>
      <trkpt lat="44.16428" lon="2.61523">
        <ele>715.84</ele>
        <time>2022-07-13T08:09:42Z</time>
      </trkpt>
      <trkpt lat="44.16422" lon="2.61538">
        <ele>715.84</ele>
        <time>2022-07-13T08:09:50Z</time>
      </trkpt>
      <trkpt lat="44.16416" lon="2.61552">
        <ele>715.84</ele>
        <time>2022-07-13T08:09:58Z</time>
      </trkpt>
      <trkpt lat="44.16409" lon="2.61565">
        <ele>715.36</ele>
        <time>2022-07-13T08:10:07Z</time>
      </trkpt>
      <trkpt lat="44.16403" lon="2.61577">
        <ele>714.4</ele>
        <time>2022-07-13T08:10:14Z</time>
      </trkpt>
      <trkpt lat="44.16397" lon="2.61592">
        <ele>712.95</ele>
        <time>2022-07-13T08:10:22Z</time>
      </trkpt>
      <trkpt lat="44.16392" lon="2.61605">
        <ele>711.99</ele>
        <time>2022-07-13T08:10:29Z</time>
      </trkpt>
      <trkpt lat="44.16386" lon="2.61619">
        <ele>711.03</ele>
        <time>2022-07-13T08:10:37Z</time>
      </trkpt>
      <trkpt lat="44.16379" lon="2.61632">
        <ele>710.07</ele>
        <time>2022-07-13T08:10:45Z</time>
      </trkpt>
      <trkpt lat="44.16372" lon="2.61645">
        <ele>710.55</ele>
        <time>2022-07-13T08:10:53Z</time>
      </trkpt>
      <trkpt lat="44.16365" lon="2.6166">
        <ele>711.03</ele>
        <time>2022-07-13T08:11:02Z</time>
      </trkpt>
      <trkpt lat="44.16358" lon="2.61673">
        <ele>711.03</ele>
        <time>2022-07-13T08:11:10Z</time>
      </trkpt>
      <trkpt lat="44.16352" lon="2.61687">
        <ele>711.51</ele>
        <time>2022-07-13T08:11:18Z</time>
      </trkpt>
      <trkpt lat="44.16346" lon="2.61702">
        <ele>711.99</ele>
        <time>2022-07-13T08:11:25Z</time>
      </trkpt>
      <trkpt lat="44.1634" lon="2.61715">
        <ele>712.47</ele>
        <time>2022-07-13T08:11:32Z</time>
      </trkpt>
      <trkpt lat="44.16335" lon="2.61728">
        <ele>712.47</ele>
        <time>2022-07-13T08:11:39Z</time>
      </trkpt>
      <trkpt lat="44.16329" lon="2.61742">
        <ele>712.95</ele>
        <time>2022-07-13T08:11:47Z</time>
      </trkpt>
      <trkpt lat="44.16324" lon="2.61753">
        <ele>713.44</ele>
        <time>2022-07-13T08:11:52Z</time>
      </trkpt>
      <trkpt lat="44.16317" lon="2.61767">
        <ele>713.92</ele>
        <time>2022-07-13T08:11:56Z</time>
      </trkpt>
      <trkpt lat="44.1631" lon="2.6178">
        <ele>713.92</ele>
        <time>2022-07-13T08:11:59Z</time>
      </trkpt>
      <trkpt lat="44.16304" lon="2.61795">
        <ele>714.88</ele>
        <time>2022-07-13T08:12:02Z</time>
      </trkpt>
      <trkpt lat="44.16298" lon="2.61809">
        <ele>715.84</ele>
        <time>2022-07-13T08:12:05Z</time>
      </trkpt>
      <trkpt lat="44.16293" lon="2.61821">
        <ele>716.8</ele>
        <time>2022-07-13T08:12:08Z</time>
      </trkpt>
      <trkpt lat="44.1629" lon="2.61836">
        <ele>717.76</ele>
        <time>2022-07-13T08:12:11Z</time>
      </trkpt>
      <trkpt lat="44.16286" lon="2.61848">
        <ele>718.72</ele>
        <time>2022-07-13T08:12:14Z</time>
      </trkpt>
      <trkpt lat="44.16279" lon="2.6186">
        <ele>719.68</ele>
        <time>2022-07-13T08:12:17Z</time>
      </trkpt>
      <trkpt lat="44.16273" lon="2.61871">
        <ele>720.65</ele>
        <time>2022-07-13T08:12:20Z</time>
      </trkpt>
      <trkpt lat="44.16268" lon="2.61884">
        <ele>721.13</ele>
        <time>2022-07-13T08:12:23Z</time>
      </trkpt>
      <trkpt lat="44.16264" lon="2.61896">
        <ele>722.09</ele>
        <time>2022-07-13T08:12:26Z</time>
      </trkpt>
      <trkpt lat="44.16259" lon="2.61909">
        <ele>722.57</ele>
        <time>2022-07-13T08:12:30Z</time>
      </trkpt>
      <trkpt lat="44.16254" lon="2.61921">
        <ele>723.05</ele>
        <time>2022-07-13T08:12:33Z</time>
      </trkpt>
      <trkpt lat="44.16249" lon="2.61936">
        <ele>723.53</ele>
        <time>2022-07-13T08:12:37Z</time>
      </trkpt>
      <trkpt lat="44.16244" lon="2.61951">
        <ele>724.01</ele>
        <time>2022-07-13T08:12:41Z</time>
      </trkpt>
      <trkpt lat="44.16238" lon="2.61966">
        <ele>724.97</ele>
        <time>2022-07-13T08:12:45Z</time>
      </trkpt>
      <trkpt lat="44.16231" lon="2.61979">
        <ele>725.45</ele>
        <time>2022-07-13T08:12:49Z</time>
      </trkpt>
      <trkpt lat="44.16225" lon="2.61992">
        <ele>725.93</ele>
        <time>2022-07-13T08:12:53Z</time>
      </trkpt>
      <trkpt lat="44.16219" lon="2.62006">
        <ele>727.37</ele>
        <time>2022-07-13T08:12:57Z</time>
      </trkpt>
      <trkpt lat="44.16214" lon="2.62018">
        <ele>728.34</ele>
        <time>2022-07-13T08:13:00Z</time>
      </trkpt>
      <trkpt lat="44.16207" lon="2.62033">
        <ele>729.78</ele>
        <time>2022-07-13T08:13:04Z</time>
      </trkpt>
      <trkpt lat="44.16199" lon="2.62046">
        <ele>730.74</ele>
        <time>2022-07-13T08:13:08Z</time>
      </trkpt>
      <trkpt lat="44.16192" lon="2.62059">
        <ele>732.18</ele>
        <time>2022-07-13T08:13:12Z</time>
      </trkpt>
      <trkpt lat="44.16184" lon="2.62072">
        <ele>733.14</ele>
        <time>2022-07-13T08:13:16Z</time>
      </trkpt>
      <trkpt lat="44.16177" lon="2.62085">
        <ele>734.58</ele>
        <time>2022-07-13T08:13:20Z</time>
      </trkpt>
      <trkpt lat="44.16169" lon="2.62098">
        <ele>736.03</ele>
        <time>2022-07-13T08:13:24Z</time>
      </trkpt>
      <trkpt lat="44.1616" lon="2.62111">
        <ele>737.47</ele>
        <time>2022-07-13T08:13:28Z</time>
      </trkpt>
      <trkpt lat="44.16152" lon="2.62125">
        <ele>738.91</ele>
        <time>2022-07-13T08:13:32Z</time>
      </trkpt>
      <trkpt lat="44.16144" lon="2.6214">
        <ele>739.87</ele>
        <time>2022-07-13T08:13:36Z</time>
      </trkpt>
      <trkpt lat="44.16137" lon="2.62153">
        <ele>740.35</ele>
        <time>2022-07-13T08:13:40Z</time>
      </trkpt>
      <trkpt lat="44.16131" lon="2.62163">
        <ele>741.31</ele>
        <time>2022-07-13T08:13:43Z</time>
      </trkpt>
      <trkpt lat="44.16124" lon="2.62173">
        <ele>742.28</ele>
        <time>2022-07-13T08:13:46Z</time>
      </trkpt>
      <trkpt lat="44.16117" lon="2.62184">
        <ele>743.24</ele>
        <time>2022-07-13T08:13:49Z</time>
      </trkpt>
      <trkpt lat="44.16109" lon="2.62197">
        <ele>744.68</ele>
        <time>2022-07-13T08:13:53Z</time>
      </trkpt>
      <trkpt lat="44.16102" lon="2.62207">
        <ele>745.64</ele>
        <time>2022-07-13T08:13:57Z</time>
      </trkpt>
      <trkpt lat="44.16096" lon="2.62218">
        <ele>746.6</ele>
        <time>2022-07-13T08:14:01Z</time>
      </trkpt>
      <trkpt lat="44.16091" lon="2.62232">
        <ele>748.04</ele>
        <time>2022-07-13T08:14:05Z</time>
      </trkpt>
      <trkpt lat="44.16086" lon="2.62244">
        <ele>749</ele>
        <time>2022-07-13T08:14:08Z</time>
      </trkpt>
      <trkpt lat="44.16079" lon="2.62258">
        <ele>750.45</ele>
        <time>2022-07-13T08:14:12Z</time>
      </trkpt>
      <trkpt lat="44.16073" lon="2.62273">
        <ele>751.41</ele>
        <time>2022-07-13T08:14:16Z</time>
      </trkpt>
      <trkpt lat="44.16067" lon="2.62286">
        <ele>752.85</ele>
        <time>2022-07-13T08:14:19Z</time>
      </trkpt>
      <trkpt lat="44.16061" lon="2.623">
        <ele>753.81</ele>
        <time>2022-07-13T08:14:22Z</time>
      </trkpt>
      <trkpt lat="44.16056" lon="2.62313">
        <ele>754.29</ele>
        <time>2022-07-13T08:14:25Z</time>
      </trkpt>
      <trkpt lat="44.1605" lon="2.62326">
        <ele>754.77</ele>
        <time>2022-07-13T08:14:28Z</time>
      </trkpt>
      <trkpt lat="44.16045" lon="2.62339">
        <ele>755.73</ele>
        <time>2022-07-13T08:14:31Z</time>
      </trkpt>
      <trkpt lat="44.16039" lon="2.62353">
        <ele>756.21</ele>
        <time>2022-07-13T08:14:34Z</time>
      </trkpt>
      <trkpt lat="44.1603" lon="2.62373">
        <ele>757.66</ele>
        <time>2022-07-13T08:14:37Z</time>
      </trkpt>
      <trkpt lat="44.16025" lon="2.62386">
        <ele>758.14</ele>
        <time>2022-07-13T08:14:39Z</time>
      </trkpt>
      <trkpt lat="44.16017" lon="2.62402">
        <ele>758.62</ele>
        <time>2022-07-13T08:14:42Z</time>
      </trkpt>
      <trkpt lat="44.16011" lon="2.62415">
        <ele>759.1</ele>
        <time>2022-07-13T08:14:45Z</time>
      </trkpt>
      <trkpt lat="44.16005" lon="2.6243">
        <ele>759.58</ele>
        <time>2022-07-13T08:14:49Z</time>
      </trkpt>
      <trkpt lat="44.15999" lon="2.62442">
        <ele>760.06</ele>
        <time>2022-07-13T08:14:52Z</time>
      </trkpt>
      <trkpt lat="44.15994" lon="2.62453">
        <ele>760.06</ele>
        <time>2022-07-13T08:14:55Z</time>
      </trkpt>
      <trkpt lat="44.15988" lon="2.62468">
        <ele>760.06</ele>
        <time>2022-07-13T08:14:59Z</time>
      </trkpt>
      <trkpt lat="44.15981" lon="2.62484">
        <ele>760.06</ele>
        <time>2022-07-13T08:15:02Z</time>
      </trkpt>
      <trkpt lat="44.15976" lon="2.62497">
        <ele>760.06</ele>
        <time>2022-07-13T08:15:04Z</time>
      </trkpt>
      <trkpt lat="44.15969" lon="2.62513">
        <ele>760.06</ele>
        <time>2022-07-13T08:15:07Z</time>
      </trkpt>
      <trkpt lat="44.15964" lon="2.62525">
        <ele>760.06</ele>
        <time>2022-07-13T08:15:09Z</time>
      </trkpt>
      <trkpt lat="44.15958" lon="2.62537">
        <ele>760.54</ele>
        <time>2022-07-13T08:15:11Z</time>
      </trkpt>
      <trkpt lat="44.15952" lon="2.62552">
        <ele>761.02</ele>
        <time>2022-07-13T08:15:13Z</time>
      </trkpt>
      <trkpt lat="44.15947" lon="2.62564">
        <ele>761.5</ele>
        <time>2022-07-13T08:15:15Z</time>
      </trkpt>
      <trkpt lat="44.15941" lon="2.6258">
        <ele>762.46</ele>
        <time>2022-07-13T08:15:18Z</time>
      </trkpt>
      <trkpt lat="44.15934" lon="2.62594">
        <ele>763.42</ele>
        <time>2022-07-13T08:15:21Z</time>
      </trkpt>
      <trkpt lat="44.15928" lon="2.62609">
        <ele>764.39</ele>
        <time>2022-07-13T08:15:24Z</time>
      </trkpt>
      <trkpt lat="44.15922" lon="2.62621">
        <ele>764.87</ele>
        <time>2022-07-13T08:15:26Z</time>
      </trkpt>
      <trkpt lat="44.15915" lon="2.62635">
        <ele>765.35</ele>
        <time>2022-07-13T08:15:28Z</time>
      </trkpt>
      <trkpt lat="44.15909" lon="2.62649">
        <ele>765.35</ele>
        <time>2022-07-13T08:15:30Z</time>
      </trkpt>
      <trkpt lat="44.15904" lon="2.62662">
        <ele>765.83</ele>
        <time>2022-07-13T08:15:32Z</time>
      </trkpt>
      <trkpt lat="44.15899" lon="2.62675">
        <ele>766.31</ele>
        <time>2022-07-13T08:15:34Z</time>
      </trkpt>
      <trkpt lat="44.15893" lon="2.62687">
        <ele>766.79</ele>
        <time>2022-07-13T08:15:36Z</time>
      </trkpt>
      <trkpt lat="44.15888" lon="2.62699">
        <ele>767.75</ele>
        <time>2022-07-13T08:15:38Z</time>
      </trkpt>
      <trkpt lat="44.15883" lon="2.62711">
        <ele>768.23</ele>
        <time>2022-07-13T08:15:40Z</time>
      </trkpt>
      <trkpt lat="44.15878" lon="2.62723">
        <ele>769.19</ele>
        <time>2022-07-13T08:15:42Z</time>
      </trkpt>
      <trkpt lat="44.15871" lon="2.62738">
        <ele>770.15</ele>
        <time>2022-07-13T08:15:45Z</time>
      </trkpt>
      <trkpt lat="44.15864" lon="2.62752">
        <ele>771.11</ele>
        <time>2022-07-13T08:15:48Z</time>
      </trkpt>
      <trkpt lat="44.15857" lon="2.62768">
        <ele>772.08</ele>
        <time>2022-07-13T08:15:51Z</time>
      </trkpt>
      <trkpt lat="44.15852" lon="2.6278">
        <ele>773.04</ele>
        <time>2022-07-13T08:15:53Z</time>
      </trkpt>
      <trkpt lat="44.15846" lon="2.62793">
        <ele>773.52</ele>
        <time>2022-07-13T08:15:55Z</time>
      </trkpt>
      <trkpt lat="44.1584" lon="2.62806">
        <ele>773.52</ele>
        <time>2022-07-13T08:15:57Z</time>
      </trkpt>
      <trkpt lat="44.15835" lon="2.62819">
        <ele>774</ele>
        <time>2022-07-13T08:15:59Z</time>
      </trkpt>
      <trkpt lat="44.1583" lon="2.62831">
        <ele>774</ele>
        <time>2022-07-13T08:16:01Z</time>
      </trkpt>
      <trkpt lat="44.15825" lon="2.62842">
        <ele>774.48</ele>
        <time>2022-07-13T08:16:03Z</time>
      </trkpt>
      <trkpt lat="44.1582" lon="2.62853">
        <ele>774.48</ele>
        <time>2022-07-13T08:16:05Z</time>
      </trkpt>
      <trkpt lat="44.15814" lon="2.62867">
        <ele>774.48</ele>
        <time>2022-07-13T08:16:08Z</time>
      </trkpt>
      <trkpt lat="44.15808" lon="2.6288">
        <ele>774</ele>
        <time>2022-07-13T08:16:11Z</time>
      </trkpt>
      <trkpt lat="44.15802" lon="2.62892">
        <ele>774</ele>
        <time>2022-07-13T08:16:14Z</time>
      </trkpt>
      <trkpt lat="44.15796" lon="2.62907">
        <ele>774</ele>
        <time>2022-07-13T08:16:17Z</time>
      </trkpt>
      <trkpt lat="44.15789" lon="2.62922">
        <ele>773.52</ele>
        <time>2022-07-13T08:16:20Z</time>
      </trkpt>
      <trkpt lat="44.15782" lon="2.62937">
        <ele>772.56</ele>
        <time>2022-07-13T08:16:23Z</time>
      </trkpt>
      <trkpt lat="44.15776" lon="2.62951">
        <ele>772.08</ele>
        <time>2022-07-13T08:16:26Z</time>
      </trkpt>
      <trkpt lat="44.1577" lon="2.62964">
        <ele>771.6</ele>
        <time>2022-07-13T08:16:29Z</time>
      </trkpt>
      <trkpt lat="44.15764" lon="2.62975">
        <ele>771.11</ele>
        <time>2022-07-13T08:16:32Z</time>
      </trkpt>
      <trkpt lat="44.1576" lon="2.62987">
        <ele>771.11</ele>
        <time>2022-07-13T08:16:38Z</time>
      </trkpt>
      <trkpt lat="44.15754" lon="2.63001">
        <ele>770.63</ele>
        <time>2022-07-13T08:16:49Z</time>
      </trkpt>
      <trkpt lat="44.15743" lon="2.63005">
        <ele>771.11</ele>
        <time>2022-07-13T08:16:59Z</time>
      </trkpt>
      <trkpt lat="44.1573" lon="2.63006">
        <ele>772.08</ele>
        <time>2022-07-13T08:17:11Z</time>
      </trkpt>
      <trkpt lat="44.15717" lon="2.63008">
        <ele>772.08</ele>
        <time>2022-07-13T08:17:23Z</time>
      </trkpt>
      <trkpt lat="44.15702" lon="2.63025">
        <ele>773.52</ele>
        <time>2022-07-13T08:17:54Z</time>
      </trkpt>
      <trkpt lat="44.15694" lon="2.63105">
        <ele>773.52</ele>
        <time>2022-07-13T08:18:40Z</time>
      </trkpt>
      <trkpt lat="44.15687" lon="2.63151">
        <ele>766.79</ele>
        <time>2022-07-13T08:19:04Z</time>
      </trkpt>
      <trkpt lat="44.15682" lon="2.63171">
        <ele>768.71</ele>
        <time>2022-07-13T08:19:11Z</time>
      </trkpt>
      <trkpt lat="44.15677" lon="2.63186">
        <ele>770.15</ele>
        <time>2022-07-13T08:19:18Z</time>
      </trkpt>
      <trkpt lat="44.15673" lon="2.632">
        <ele>770.63</ele>
        <time>2022-07-13T08:19:26Z</time>
      </trkpt>
      <trkpt lat="44.15669" lon="2.63213">
        <ele>770.15</ele>
        <time>2022-07-13T08:19:33Z</time>
      </trkpt>
      <trkpt lat="44.15664" lon="2.63226">
        <ele>769.19</ele>
        <time>2022-07-13T08:19:39Z</time>
      </trkpt>
      <trkpt lat="44.15661" lon="2.63239">
        <ele>768.23</ele>
        <time>2022-07-13T08:19:47Z</time>
      </trkpt>
      <trkpt lat="44.15659" lon="2.63255">
        <ele>767.27</ele>
        <time>2022-07-13T08:19:55Z</time>
      </trkpt>
      <trkpt lat="44.15659" lon="2.63276">
        <ele>768.23</ele>
        <time>2022-07-13T08:20:03Z</time>
      </trkpt>
      <trkpt lat="44.15661" lon="2.63291">
        <ele>769.19</ele>
        <time>2022-07-13T08:20:10Z</time>
      </trkpt>
      <trkpt lat="44.15664" lon="2.63303">
        <ele>768.71</ele>
        <time>2022-07-13T08:20:16Z</time>
      </trkpt>
      <trkpt lat="44.15665" lon="2.63317">
        <ele>767.75</ele>
        <time>2022-07-13T08:20:24Z</time>
      </trkpt>
      <trkpt lat="44.15661" lon="2.63331">
        <ele>767.27</ele>
        <time>2022-07-13T08:20:33Z</time>
      </trkpt>
      <trkpt lat="44.15655" lon="2.63342">
        <ele>766.79</ele>
        <time>2022-07-13T08:20:40Z</time>
      </trkpt>
      <trkpt lat="44.15649" lon="2.63355">
        <ele>767.27</ele>
        <time>2022-07-13T08:20:48Z</time>
      </trkpt>
      <trkpt lat="44.15642" lon="2.63368">
        <ele>767.27</ele>
        <time>2022-07-13T08:20:57Z</time>
      </trkpt>
      <trkpt lat="44.15628" lon="2.63398">
        <ele>769.67</ele>
        <time>2022-07-13T08:21:23Z</time>
      </trkpt>
      <trkpt lat="44.1562" lon="2.63418">
        <ele>769.67</ele>
        <time>2022-07-13T08:21:37Z</time>
      </trkpt>
      <trkpt lat="44.15606" lon="2.63466">
        <ele>765.35</ele>
        <time>2022-07-13T08:22:08Z</time>
      </trkpt>
      <trkpt lat="44.15604" lon="2.63487">
        <ele>764.39</ele>
        <time>2022-07-13T08:22:18Z</time>
      </trkpt>
      <trkpt lat="44.15595" lon="2.63525">
        <ele>761.02</ele>
        <time>2022-07-13T08:22:43Z</time>
      </trkpt>
      <trkpt lat="44.15587" lon="2.63565">
        <ele>759.1</ele>
        <time>2022-07-13T08:23:00Z</time>
      </trkpt>
      <trkpt lat="44.15587" lon="2.63597">
        <ele>758.62</ele>
        <time>2022-07-13T08:23:13Z</time>
      </trkpt>
      <trkpt lat="44.15586" lon="2.63614">
        <ele>758.62</ele>
        <time>2022-07-13T08:23:21Z</time>
      </trkpt>
      <trkpt lat="44.15589" lon="2.63631">
        <ele>759.58</ele>
        <time>2022-07-13T08:23:29Z</time>
      </trkpt>
      <trkpt lat="44.15592" lon="2.63646">
        <ele>758.14</ele>
        <time>2022-07-13T08:23:39Z</time>
      </trkpt>
      <trkpt lat="44.156" lon="2.63674">
        <ele>756.21</ele>
        <time>2022-07-13T08:23:57Z</time>
      </trkpt>
      <trkpt lat="44.15598" lon="2.63703">
        <ele>775.92</ele>
        <time>2022-07-13T08:24:06Z</time>
      </trkpt>
      <trkpt lat="44.15594" lon="2.6372">
        <ele>788.9</ele>
        <time>2022-07-13T08:26:42Z</time>
      </trkpt>
      <trkpt lat="44.15595" lon="2.63735">
        <ele>788.9</ele>
        <time>2022-07-13T08:26:50Z</time>
      </trkpt>
      <trkpt lat="44.15597" lon="2.63751">
        <ele>789.38</ele>
        <time>2022-07-13T08:26:58Z</time>
      </trkpt>
      <trkpt lat="44.15599" lon="2.63766">
        <ele>789.86</ele>
        <time>2022-07-13T08:27:05Z</time>
      </trkpt>
      <trkpt lat="44.15599" lon="2.63779">
        <ele>791.3</ele>
        <time>2022-07-13T08:27:12Z</time>
      </trkpt>
      <trkpt lat="44.156" lon="2.63792">
        <ele>791.78</ele>
        <time>2022-07-13T08:27:19Z</time>
      </trkpt>
      <trkpt lat="44.15602" lon="2.63806">
        <ele>792.74</ele>
        <time>2022-07-13T08:27:27Z</time>
      </trkpt>
      <trkpt lat="44.15604" lon="2.63818">
        <ele>793.22</ele>
        <time>2022-07-13T08:27:34Z</time>
      </trkpt>
      <trkpt lat="44.15608" lon="2.63833">
        <ele>792.74</ele>
        <time>2022-07-13T08:27:42Z</time>
      </trkpt>
      <trkpt lat="44.15612" lon="2.63847">
        <ele>792.26</ele>
        <time>2022-07-13T08:27:50Z</time>
      </trkpt>
      <trkpt lat="44.15617" lon="2.63864">
        <ele>791.78</ele>
        <time>2022-07-13T08:27:59Z</time>
      </trkpt>
      <trkpt lat="44.15618" lon="2.63882">
        <ele>790.82</ele>
        <time>2022-07-13T08:28:06Z</time>
      </trkpt>
      <trkpt lat="44.1562" lon="2.63897">
        <ele>790.34</ele>
        <time>2022-07-13T08:28:13Z</time>
      </trkpt>
      <trkpt lat="44.15623" lon="2.63911">
        <ele>791.3</ele>
        <time>2022-07-13T08:28:21Z</time>
      </trkpt>
      <trkpt lat="44.15627" lon="2.63925">
        <ele>792.74</ele>
        <time>2022-07-13T08:28:28Z</time>
      </trkpt>
      <trkpt lat="44.15631" lon="2.63936">
        <ele>793.71</ele>
        <time>2022-07-13T08:28:35Z</time>
      </trkpt>
      <trkpt lat="44.15639" lon="2.63946">
        <ele>794.19</ele>
        <time>2022-07-13T08:28:44Z</time>
      </trkpt>
      <trkpt lat="44.15646" lon="2.63959">
        <ele>795.15</ele>
        <time>2022-07-13T08:28:54Z</time>
      </trkpt>
      <trkpt lat="44.15652" lon="2.63973">
        <ele>797.07</ele>
        <time>2022-07-13T08:29:02Z</time>
      </trkpt>
      <trkpt lat="44.15658" lon="2.63986">
        <ele>798.51</ele>
        <time>2022-07-13T08:29:10Z</time>
      </trkpt>
      <trkpt lat="44.15664" lon="2.63998">
        <ele>799.47</ele>
        <time>2022-07-13T08:29:18Z</time>
      </trkpt>
      <trkpt lat="44.1567" lon="2.64011">
        <ele>799.95</ele>
        <time>2022-07-13T08:29:26Z</time>
      </trkpt>
      <trkpt lat="44.15676" lon="2.64024">
        <ele>801.88</ele>
        <time>2022-07-13T08:29:34Z</time>
      </trkpt>
      <trkpt lat="44.15683" lon="2.64037">
        <ele>803.32</ele>
        <time>2022-07-13T08:29:42Z</time>
      </trkpt>
      <trkpt lat="44.15689" lon="2.64049">
        <ele>803.32</ele>
        <time>2022-07-13T08:29:50Z</time>
      </trkpt>
      <trkpt lat="44.15695" lon="2.64062">
        <ele>803.32</ele>
        <time>2022-07-13T08:29:58Z</time>
      </trkpt>
      <trkpt lat="44.15699" lon="2.64077">
        <ele>802.84</ele>
        <time>2022-07-13T08:30:06Z</time>
      </trkpt>
      <trkpt lat="44.15707" lon="2.64091">
        <ele>803.32</ele>
        <time>2022-07-13T08:30:15Z</time>
      </trkpt>
      <trkpt lat="44.15715" lon="2.64105">
        <ele>803.8</ele>
        <time>2022-07-13T08:30:24Z</time>
      </trkpt>
      <trkpt lat="44.1572" lon="2.64122">
        <ele>804.76</ele>
        <time>2022-07-13T08:30:33Z</time>
      </trkpt>
      <trkpt lat="44.15723" lon="2.64139">
        <ele>806.2</ele>
        <time>2022-07-13T08:30:42Z</time>
      </trkpt>
      <trkpt lat="44.15726" lon="2.64155">
        <ele>806.2</ele>
        <time>2022-07-13T08:30:52Z</time>
      </trkpt>
      <trkpt lat="44.15731" lon="2.64173">
        <ele>805.24</ele>
        <time>2022-07-13T08:31:01Z</time>
      </trkpt>
      <trkpt lat="44.15733" lon="2.6419">
        <ele>807.16</ele>
        <time>2022-07-13T08:31:09Z</time>
      </trkpt>
      <trkpt lat="44.15737" lon="2.64222">
        <ele>807.64</ele>
        <time>2022-07-13T08:31:29Z</time>
      </trkpt>
      <trkpt lat="44.15745" lon="2.64286">
        <ele>806.68</ele>
        <time>2022-07-13T08:32:16Z</time>
      </trkpt>
      <trkpt lat="44.15734" lon="2.64295">
        <ele>807.16</ele>
        <time>2022-07-13T08:32:26Z</time>
      </trkpt>
      <trkpt lat="44.15712" lon="2.64307">
        <ele>813.89</ele>
        <time>2022-07-13T08:32:45Z</time>
      </trkpt>
      <trkpt lat="44.15703" lon="2.64315">
        <ele>815.34</ele>
        <time>2022-07-13T08:33:05Z</time>
      </trkpt>
      <trkpt lat="44.15696" lon="2.64322">
        <ele>815.34</ele>
        <time>2022-07-13T08:33:12Z</time>
      </trkpt>
      <trkpt lat="44.15689" lon="2.64329">
        <ele>815.82</ele>
        <time>2022-07-13T08:33:19Z</time>
      </trkpt>
      <trkpt lat="44.15682" lon="2.64338">
        <ele>815.34</ele>
        <time>2022-07-13T08:33:26Z</time>
      </trkpt>
      <trkpt lat="44.15675" lon="2.64345">
        <ele>814.85</ele>
        <time>2022-07-13T08:33:32Z</time>
      </trkpt>
      <trkpt lat="44.15668" lon="2.64355">
        <ele>814.85</ele>
        <time>2022-07-13T08:33:39Z</time>
      </trkpt>
      <trkpt lat="44.15662" lon="2.64363">
        <ele>815.82</ele>
        <time>2022-07-13T08:33:46Z</time>
      </trkpt>
      <trkpt lat="44.15657" lon="2.64372">
        <ele>815.82</ele>
        <time>2022-07-13T08:33:53Z</time>
      </trkpt>
      <trkpt lat="44.1565" lon="2.64384">
        <ele>816.3</ele>
        <time>2022-07-13T08:34:00Z</time>
      </trkpt>
      <trkpt lat="44.15643" lon="2.64396">
        <ele>816.78</ele>
        <time>2022-07-13T08:34:09Z</time>
      </trkpt>
      <trkpt lat="44.15637" lon="2.64406">
        <ele>816.3</ele>
        <time>2022-07-13T08:34:17Z</time>
      </trkpt>
      <trkpt lat="44.1563" lon="2.64418">
        <ele>815.82</ele>
        <time>2022-07-13T08:34:25Z</time>
      </trkpt>
      <trkpt lat="44.15623" lon="2.64428">
        <ele>815.82</ele>
        <time>2022-07-13T08:34:34Z</time>
      </trkpt>
      <trkpt lat="44.15617" lon="2.64438">
        <ele>816.3</ele>
        <time>2022-07-13T08:34:42Z</time>
      </trkpt>
      <trkpt lat="44.15609" lon="2.6445">
        <ele>816.3</ele>
        <time>2022-07-13T08:34:51Z</time>
      </trkpt>
      <trkpt lat="44.15602" lon="2.64462">
        <ele>816.78</ele>
        <time>2022-07-13T08:35:00Z</time>
      </trkpt>
      <trkpt lat="44.15596" lon="2.64471">
        <ele>816.3</ele>
        <time>2022-07-13T08:35:09Z</time>
      </trkpt>
      <trkpt lat="44.15589" lon="2.6448">
        <ele>816.3</ele>
        <time>2022-07-13T08:35:18Z</time>
      </trkpt>
      <trkpt lat="44.1558" lon="2.64494">
        <ele>817.26</ele>
        <time>2022-07-13T08:35:28Z</time>
      </trkpt>
      <trkpt lat="44.15573" lon="2.64507">
        <ele>817.74</ele>
        <time>2022-07-13T08:35:36Z</time>
      </trkpt>
      <trkpt lat="44.15565" lon="2.6452">
        <ele>818.7</ele>
        <time>2022-07-13T08:35:45Z</time>
      </trkpt>
      <trkpt lat="44.15558" lon="2.64532">
        <ele>819.66</ele>
        <time>2022-07-13T08:35:55Z</time>
      </trkpt>
      <trkpt lat="44.15549" lon="2.64547">
        <ele>821.58</ele>
        <time>2022-07-13T08:36:06Z</time>
      </trkpt>
      <trkpt lat="44.15544" lon="2.64563">
        <ele>822.55</ele>
        <time>2022-07-13T08:36:17Z</time>
      </trkpt>
      <trkpt lat="44.15481" lon="2.64694">
        <ele>834.56</ele>
        <time>2022-07-13T08:37:39Z</time>
      </trkpt>
      <trkpt lat="44.15426" lon="2.64748">
        <ele>836.48</ele>
        <time>2022-07-13T08:38:29Z</time>
      </trkpt>
      <trkpt lat="44.15412" lon="2.64762">
        <ele>836</ele>
        <time>2022-07-13T08:38:39Z</time>
      </trkpt>
      <trkpt lat="44.15391" lon="2.6479">
        <ele>835.52</ele>
        <time>2022-07-13T08:39:00Z</time>
      </trkpt>
      <trkpt lat="44.15381" lon="2.64805">
        <ele>835.04</ele>
        <time>2022-07-13T08:39:09Z</time>
      </trkpt>
      <trkpt lat="44.15311" lon="2.64883">
        <ele>836.48</ele>
        <time>2022-07-13T08:40:11Z</time>
      </trkpt>
      <trkpt lat="44.15279" lon="2.64912">
        <ele>835.52</ele>
        <time>2022-07-13T08:40:37Z</time>
      </trkpt>
      <trkpt lat="44.15269" lon="2.64924">
        <ele>834.08</ele>
        <time>2022-07-13T08:40:45Z</time>
      </trkpt>
      <trkpt lat="44.15257" lon="2.64932">
        <ele>833.6</ele>
        <time>2022-07-13T08:40:52Z</time>
      </trkpt>
      <trkpt lat="44.15249" lon="2.64945">
        <ele>837.45</ele>
        <time>2022-07-13T08:43:45Z</time>
      </trkpt>
      <trkpt lat="44.15243" lon="2.6496">
        <ele>840.33</ele>
        <time>2022-07-13T08:43:52Z</time>
      </trkpt>
      <trkpt lat="44.15235" lon="2.64978">
        <ele>840.81</ele>
        <time>2022-07-13T08:44:03Z</time>
      </trkpt>
      <trkpt lat="44.1523" lon="2.6499">
        <ele>840.81</ele>
        <time>2022-07-13T08:44:11Z</time>
      </trkpt>
      <trkpt lat="44.15225" lon="2.65004">
        <ele>839.37</ele>
        <time>2022-07-13T08:44:19Z</time>
      </trkpt>
      <trkpt lat="44.1522" lon="2.65017">
        <ele>836.96</ele>
        <time>2022-07-13T08:44:27Z</time>
      </trkpt>
      <trkpt lat="44.15214" lon="2.65034">
        <ele>833.12</ele>
        <time>2022-07-13T08:44:38Z</time>
      </trkpt>
      <trkpt lat="44.15208" lon="2.65049">
        <ele>828.79</ele>
        <time>2022-07-13T08:44:47Z</time>
      </trkpt>
      <trkpt lat="44.15203" lon="2.65065">
        <ele>824.95</ele>
        <time>2022-07-13T08:44:56Z</time>
      </trkpt>
      <trkpt lat="44.15197" lon="2.65081">
        <ele>823.51</ele>
        <time>2022-07-13T08:45:05Z</time>
      </trkpt>
      <trkpt lat="44.15191" lon="2.65093">
        <ele>822.55</ele>
        <time>2022-07-13T08:45:12Z</time>
      </trkpt>
      <trkpt lat="44.15183" lon="2.65106">
        <ele>822.06</ele>
        <time>2022-07-13T08:45:20Z</time>
      </trkpt>
      <trkpt lat="44.15176" lon="2.65118">
        <ele>822.55</ele>
        <time>2022-07-13T08:45:27Z</time>
      </trkpt>
      <trkpt lat="44.15169" lon="2.65129">
        <ele>823.03</ele>
        <time>2022-07-13T08:45:34Z</time>
      </trkpt>
      <trkpt lat="44.15162" lon="2.65139">
        <ele>823.03</ele>
        <time>2022-07-13T08:45:41Z</time>
      </trkpt>
      <trkpt lat="44.15155" lon="2.65149">
        <ele>822.55</ele>
        <time>2022-07-13T08:45:48Z</time>
      </trkpt>
      <trkpt lat="44.15148" lon="2.6516">
        <ele>823.03</ele>
        <time>2022-07-13T08:45:55Z</time>
      </trkpt>
      <trkpt lat="44.1514" lon="2.6517">
        <ele>823.51</ele>
        <time>2022-07-13T08:46:02Z</time>
      </trkpt>
      <trkpt lat="44.15133" lon="2.65181">
        <ele>823.51</ele>
        <time>2022-07-13T08:46:09Z</time>
      </trkpt>
      <trkpt lat="44.15126" lon="2.6519">
        <ele>822.55</ele>
        <time>2022-07-13T08:46:16Z</time>
      </trkpt>
      <trkpt lat="44.15119" lon="2.65202">
        <ele>821.58</ele>
        <time>2022-07-13T08:46:23Z</time>
      </trkpt>
      <trkpt lat="44.15112" lon="2.65213">
        <ele>821.58</ele>
        <time>2022-07-13T08:46:30Z</time>
      </trkpt>
      <trkpt lat="44.15105" lon="2.65222">
        <ele>821.58</ele>
        <time>2022-07-13T08:46:36Z</time>
      </trkpt>
      <trkpt lat="44.15098" lon="2.65231">
        <ele>821.1</ele>
        <time>2022-07-13T08:46:42Z</time>
      </trkpt>
      <trkpt lat="44.15091" lon="2.65239">
        <ele>820.62</ele>
        <time>2022-07-13T08:46:48Z</time>
      </trkpt>
      <trkpt lat="44.15083" lon="2.65248">
        <ele>820.62</ele>
        <time>2022-07-13T08:46:55Z</time>
      </trkpt>
      <trkpt lat="44.15076" lon="2.65257">
        <ele>821.1</ele>
        <time>2022-07-13T08:47:02Z</time>
      </trkpt>
      <trkpt lat="44.15069" lon="2.65267">
        <ele>820.14</ele>
        <time>2022-07-13T08:47:09Z</time>
      </trkpt>
      <trkpt lat="44.15061" lon="2.65276">
        <ele>819.18</ele>
        <time>2022-07-13T08:47:16Z</time>
      </trkpt>
      <trkpt lat="44.15053" lon="2.65285">
        <ele>818.22</ele>
        <time>2022-07-13T08:47:23Z</time>
      </trkpt>
      <trkpt lat="44.15046" lon="2.65292">
        <ele>817.74</ele>
        <time>2022-07-13T08:47:29Z</time>
      </trkpt>
      <trkpt lat="44.15038" lon="2.65301">
        <ele>816.3</ele>
        <time>2022-07-13T08:47:37Z</time>
      </trkpt>
      <trkpt lat="44.15029" lon="2.65311">
        <ele>815.34</ele>
        <time>2022-07-13T08:47:45Z</time>
      </trkpt>
      <trkpt lat="44.1502" lon="2.65321">
        <ele>814.85</ele>
        <time>2022-07-13T08:47:52Z</time>
      </trkpt>
      <trkpt lat="44.15012" lon="2.6533">
        <ele>815.34</ele>
        <time>2022-07-13T08:47:59Z</time>
      </trkpt>
      <trkpt lat="44.15004" lon="2.6534">
        <ele>815.82</ele>
        <time>2022-07-13T08:48:06Z</time>
      </trkpt>
      <trkpt lat="44.14996" lon="2.65348">
        <ele>816.78</ele>
        <time>2022-07-13T08:48:13Z</time>
      </trkpt>
      <trkpt lat="44.14987" lon="2.65356">
        <ele>816.78</ele>
        <time>2022-07-13T08:48:20Z</time>
      </trkpt>
      <trkpt lat="44.14977" lon="2.65366">
        <ele>816.78</ele>
        <time>2022-07-13T08:48:31Z</time>
      </trkpt>
      <trkpt lat="44.14947" lon="2.65378">
        <ele>815.82</ele>
        <time>2022-07-13T08:48:51Z</time>
      </trkpt>
      <trkpt lat="44.14935" lon="2.65381">
        <ele>816.3</ele>
        <time>2022-07-13T08:48:58Z</time>
      </trkpt>
      <trkpt lat="44.14925" lon="2.65385">
        <ele>817.26</ele>
        <time>2022-07-13T08:49:05Z</time>
      </trkpt>
      <trkpt lat="44.14916" lon="2.65391">
        <ele>817.74</ele>
        <time>2022-07-13T08:49:12Z</time>
      </trkpt>
      <trkpt lat="44.14907" lon="2.65396">
        <ele>818.22</ele>
        <time>2022-07-13T08:49:18Z</time>
      </trkpt>
      <trkpt lat="44.14897" lon="2.65402">
        <ele>818.7</ele>
        <time>2022-07-13T08:49:25Z</time>
      </trkpt>
      <trkpt lat="44.14889" lon="2.65408">
        <ele>818.7</ele>
        <time>2022-07-13T08:49:31Z</time>
      </trkpt>
      <trkpt lat="44.14879" lon="2.65414">
        <ele>819.18</ele>
        <time>2022-07-13T08:49:38Z</time>
      </trkpt>
      <trkpt lat="44.14871" lon="2.6542">
        <ele>819.66</ele>
        <time>2022-07-13T08:49:44Z</time>
      </trkpt>
      <trkpt lat="44.14863" lon="2.65426">
        <ele>820.14</ele>
        <time>2022-07-13T08:49:50Z</time>
      </trkpt>
      <trkpt lat="44.14854" lon="2.65431">
        <ele>820.62</ele>
        <time>2022-07-13T08:49:57Z</time>
      </trkpt>
      <trkpt lat="44.14845" lon="2.65436">
        <ele>820.62</ele>
        <time>2022-07-13T08:50:03Z</time>
      </trkpt>
      <trkpt lat="44.14837" lon="2.65441">
        <ele>821.1</ele>
        <time>2022-07-13T08:50:09Z</time>
      </trkpt>
      <trkpt lat="44.14828" lon="2.65447">
        <ele>821.58</ele>
        <time>2022-07-13T08:50:15Z</time>
      </trkpt>
      <trkpt lat="44.1482" lon="2.65453">
        <ele>822.06</ele>
        <time>2022-07-13T08:50:22Z</time>
      </trkpt>
      <trkpt lat="44.14812" lon="2.6546">
        <ele>822.06</ele>
        <time>2022-07-13T08:50:29Z</time>
      </trkpt>
      <trkpt lat="44.14805" lon="2.65469">
        <ele>822.06</ele>
        <time>2022-07-13T08:50:36Z</time>
      </trkpt>
      <trkpt lat="44.14795" lon="2.65479">
        <ele>822.06</ele>
        <time>2022-07-13T08:50:44Z</time>
      </trkpt>
      <trkpt lat="44.1479" lon="2.65494">
        <ele>822.55</ele>
        <time>2022-07-13T08:50:51Z</time>
      </trkpt>
      <trkpt lat="44.14786" lon="2.65507">
        <ele>822.55</ele>
        <time>2022-07-13T08:50:59Z</time>
      </trkpt>
      <trkpt lat="44.1478" lon="2.65517">
        <ele>822.55</ele>
        <time>2022-07-13T08:51:08Z</time>
      </trkpt>
      <trkpt lat="44.14773" lon="2.65532">
        <ele>823.03</ele>
        <time>2022-07-13T08:51:16Z</time>
      </trkpt>
      <trkpt lat="44.14765" lon="2.65542">
        <ele>823.51</ele>
        <time>2022-07-13T08:51:24Z</time>
      </trkpt>
      <trkpt lat="44.14758" lon="2.65553">
        <ele>823.99</ele>
        <time>2022-07-13T08:51:31Z</time>
      </trkpt>
      <trkpt lat="44.14749" lon="2.65563">
        <ele>823.99</ele>
        <time>2022-07-13T08:51:39Z</time>
      </trkpt>
      <trkpt lat="44.14741" lon="2.65572">
        <ele>823.99</ele>
        <time>2022-07-13T08:51:46Z</time>
      </trkpt>
      <trkpt lat="44.14731" lon="2.65583">
        <ele>823.51</ele>
        <time>2022-07-13T08:51:55Z</time>
      </trkpt>
      <trkpt lat="44.14721" lon="2.65596">
        <ele>823.51</ele>
        <time>2022-07-13T08:52:03Z</time>
      </trkpt>
      <trkpt lat="44.14711" lon="2.65604">
        <ele>823.51</ele>
        <time>2022-07-13T08:52:10Z</time>
      </trkpt>
      <trkpt lat="44.14702" lon="2.6561">
        <ele>823.03</ele>
        <time>2022-07-13T08:52:16Z</time>
      </trkpt>
      <trkpt lat="44.14692" lon="2.65615">
        <ele>823.51</ele>
        <time>2022-07-13T08:52:22Z</time>
      </trkpt>
      <trkpt lat="44.14683" lon="2.65622">
        <ele>823.03</ele>
        <time>2022-07-13T08:52:29Z</time>
      </trkpt>
      <trkpt lat="44.14673" lon="2.65623">
        <ele>823.03</ele>
        <time>2022-07-13T08:52:36Z</time>
      </trkpt>
      <trkpt lat="44.14658" lon="2.6563">
        <ele>822.55</ele>
        <time>2022-07-13T08:52:48Z</time>
      </trkpt>
      <trkpt lat="44.14631" lon="2.65657">
        <ele>823.03</ele>
        <time>2022-07-13T08:53:08Z</time>
      </trkpt>
      <trkpt lat="44.14623" lon="2.65669">
        <ele>825.91</ele>
        <time>2022-07-13T08:53:14Z</time>
      </trkpt>
      <trkpt lat="44.14617" lon="2.65679">
        <ele>827.83</ele>
        <time>2022-07-13T08:53:20Z</time>
      </trkpt>
      <trkpt lat="44.1461" lon="2.65691">
        <ele>829.76</ele>
        <time>2022-07-13T08:53:26Z</time>
      </trkpt>
      <trkpt lat="44.14604" lon="2.65701">
        <ele>831.2</ele>
        <time>2022-07-13T08:53:32Z</time>
      </trkpt>
      <trkpt lat="44.14598" lon="2.65713">
        <ele>832.16</ele>
        <time>2022-07-13T08:53:38Z</time>
      </trkpt>
      <trkpt lat="44.14593" lon="2.65725">
        <ele>831.68</ele>
        <time>2022-07-13T08:53:45Z</time>
      </trkpt>
      <trkpt lat="44.14589" lon="2.65738">
        <ele>830.72</ele>
        <time>2022-07-13T08:53:52Z</time>
      </trkpt>
      <trkpt lat="44.14583" lon="2.6575">
        <ele>830.72</ele>
        <time>2022-07-13T08:53:59Z</time>
      </trkpt>
      <trkpt lat="44.14578" lon="2.65761">
        <ele>830.24</ele>
        <time>2022-07-13T08:54:06Z</time>
      </trkpt>
      <trkpt lat="44.14573" lon="2.65772">
        <ele>829.76</ele>
        <time>2022-07-13T08:54:13Z</time>
      </trkpt>
      <trkpt lat="44.14566" lon="2.65786">
        <ele>829.76</ele>
        <time>2022-07-13T08:54:21Z</time>
      </trkpt>
      <trkpt lat="44.14552" lon="2.65812">
        <ele>826.39</ele>
        <time>2022-07-13T08:54:39Z</time>
      </trkpt>
      <trkpt lat="44.14545" lon="2.65828">
        <ele>823.03</ele>
        <time>2022-07-13T08:54:47Z</time>
      </trkpt>
      <trkpt lat="44.14534" lon="2.65843">
        <ele>820.14</ele>
        <time>2022-07-13T08:54:56Z</time>
      </trkpt>
      <trkpt lat="44.14526" lon="2.65854">
        <ele>819.18</ele>
        <time>2022-07-13T08:55:03Z</time>
      </trkpt>
      <trkpt lat="44.14518" lon="2.65865">
        <ele>818.22</ele>
        <time>2022-07-13T08:55:09Z</time>
      </trkpt>
      <trkpt lat="44.14509" lon="2.65875">
        <ele>817.26</ele>
        <time>2022-07-13T08:55:16Z</time>
      </trkpt>
      <trkpt lat="44.145" lon="2.65883">
        <ele>815.34</ele>
        <time>2022-07-13T08:55:23Z</time>
      </trkpt>
      <trkpt lat="44.1449" lon="2.65894">
        <ele>814.37</ele>
        <time>2022-07-13T08:55:31Z</time>
      </trkpt>
      <trkpt lat="44.14477" lon="2.65901">
        <ele>813.89</ele>
        <time>2022-07-13T08:55:40Z</time>
      </trkpt>
      <trkpt lat="44.14462" lon="2.65913">
        <ele>812.93</ele>
        <time>2022-07-13T08:55:53Z</time>
      </trkpt>
      <trkpt lat="44.14452" lon="2.65926">
        <ele>812.45</ele>
        <time>2022-07-13T08:56:02Z</time>
      </trkpt>
      <trkpt lat="44.14442" lon="2.65932">
        <ele>810.53</ele>
        <time>2022-07-13T08:56:09Z</time>
      </trkpt>
      <trkpt lat="44.14435" lon="2.65939">
        <ele>812.45</ele>
        <time>2022-07-13T08:56:16Z</time>
      </trkpt>
      <trkpt lat="44.14427" lon="2.65946">
        <ele>813.89</ele>
        <time>2022-07-13T08:56:22Z</time>
      </trkpt>
      <trkpt lat="44.1442" lon="2.65953">
        <ele>815.34</ele>
        <time>2022-07-13T08:56:28Z</time>
      </trkpt>
      <trkpt lat="44.14411" lon="2.65959">
        <ele>816.78</ele>
        <time>2022-07-13T08:56:34Z</time>
      </trkpt>
      <trkpt lat="44.14402" lon="2.65967">
        <ele>816.78</ele>
        <time>2022-07-13T08:56:40Z</time>
      </trkpt>
      <trkpt lat="44.14392" lon="2.65972">
        <ele>816.78</ele>
        <time>2022-07-13T08:56:47Z</time>
      </trkpt>
      <trkpt lat="44.14382" lon="2.65977">
        <ele>815.82</ele>
        <time>2022-07-13T08:56:55Z</time>
      </trkpt>
      <trkpt lat="44.14372" lon="2.65981">
        <ele>814.85</ele>
        <time>2022-07-13T08:57:01Z</time>
      </trkpt>
      <trkpt lat="44.14359" lon="2.65986">
        <ele>813.89</ele>
        <time>2022-07-13T08:57:12Z</time>
      </trkpt>
      <trkpt lat="44.14349" lon="2.65995">
        <ele>812.45</ele>
        <time>2022-07-13T08:57:19Z</time>
      </trkpt>
      <trkpt lat="44.14338" lon="2.66002">
        <ele>810.05</ele>
        <time>2022-07-13T08:57:26Z</time>
      </trkpt>
      <trkpt lat="44.14328" lon="2.66006">
        <ele>805.72</ele>
        <time>2022-07-13T08:57:33Z</time>
      </trkpt>
      <trkpt lat="44.14319" lon="2.6601">
        <ele>805.24</ele>
        <time>2022-07-13T08:57:39Z</time>
      </trkpt>
      <trkpt lat="44.14309" lon="2.66013">
        <ele>804.28</ele>
        <time>2022-07-13T08:57:47Z</time>
      </trkpt>
      <trkpt lat="44.14298" lon="2.66019">
        <ele>804.28</ele>
        <time>2022-07-13T08:57:54Z</time>
      </trkpt>
      <trkpt lat="44.14286" lon="2.66022">
        <ele>803.32</ele>
        <time>2022-07-13T08:58:03Z</time>
      </trkpt>
      <trkpt lat="44.14277" lon="2.6603">
        <ele>802.84</ele>
        <time>2022-07-13T08:58:11Z</time>
      </trkpt>
      <trkpt lat="44.14262" lon="2.66046">
        <ele>798.51</ele>
        <time>2022-07-13T08:58:46Z</time>
      </trkpt>
      <trkpt lat="44.14248" lon="2.66049">
        <ele>798.03</ele>
        <time>2022-07-13T08:58:57Z</time>
      </trkpt>
      <trkpt lat="44.14228" lon="2.66057">
        <ele>795.63</ele>
        <time>2022-07-13T08:59:13Z</time>
      </trkpt>
      <trkpt lat="44.14131" lon="2.66077">
        <ele>793.22</ele>
        <time>2022-07-13T09:00:20Z</time>
      </trkpt>
      <trkpt lat="44.14116" lon="2.66079">
        <ele>791.3</ele>
        <time>2022-07-13T09:00:29Z</time>
      </trkpt>
      <trkpt lat="44.14105" lon="2.66079">
        <ele>790.34</ele>
        <time>2022-07-13T09:00:37Z</time>
      </trkpt>
      <trkpt lat="44.14093" lon="2.66077">
        <ele>788.9</ele>
        <time>2022-07-13T09:00:46Z</time>
      </trkpt>
      <trkpt lat="44.14057" lon="2.66089">
        <ele>783.61</ele>
        <time>2022-07-13T09:01:50Z</time>
      </trkpt>
      <trkpt lat="44.14048" lon="2.661">
        <ele>783.61</ele>
        <time>2022-07-13T09:01:58Z</time>
      </trkpt>
      <trkpt lat="44.14014" lon="2.66124">
        <ele>781.21</ele>
        <time>2022-07-13T09:02:25Z</time>
      </trkpt>
      <trkpt lat="44.13998" lon="2.66139">
        <ele>779.77</ele>
        <time>2022-07-13T09:02:31Z</time>
      </trkpt>
      <trkpt lat="44.13982" lon="2.66146">
        <ele>778.32</ele>
        <time>2022-07-13T09:02:38Z</time>
      </trkpt>
      <trkpt lat="44.13964" lon="2.66148">
        <ele>776.88</ele>
        <time>2022-07-13T09:02:43Z</time>
      </trkpt>
      <trkpt lat="44.13944" lon="2.66147">
        <ele>777.36</ele>
        <time>2022-07-13T09:02:49Z</time>
      </trkpt>
      <trkpt lat="44.13927" lon="2.66151">
        <ele>777.84</ele>
        <time>2022-07-13T09:02:55Z</time>
      </trkpt>
      <trkpt lat="44.13913" lon="2.66152">
        <ele>778.32</ele>
        <time>2022-07-13T09:03:01Z</time>
      </trkpt>
      <trkpt lat="44.13896" lon="2.66153">
        <ele>778.32</ele>
        <time>2022-07-13T09:03:07Z</time>
      </trkpt>
      <trkpt lat="44.13865" lon="2.6616">
        <ele>778.32</ele>
        <time>2022-07-13T09:03:16Z</time>
      </trkpt>
      <trkpt lat="44.1385" lon="2.66159">
        <ele>778.81</ele>
        <time>2022-07-13T09:03:22Z</time>
      </trkpt>
      <trkpt lat="44.13833" lon="2.66165">
        <ele>778.81</ele>
        <time>2022-07-13T09:03:30Z</time>
      </trkpt>
      <trkpt lat="44.13817" lon="2.66176">
        <ele>779.29</ele>
        <time>2022-07-13T09:03:35Z</time>
      </trkpt>
      <trkpt lat="44.13804" lon="2.6619">
        <ele>778.32</ele>
        <time>2022-07-13T09:03:40Z</time>
      </trkpt>
      <trkpt lat="44.13784" lon="2.66206">
        <ele>778.32</ele>
        <time>2022-07-13T09:03:45Z</time>
      </trkpt>
      <trkpt lat="44.13764" lon="2.66213">
        <ele>778.32</ele>
        <time>2022-07-13T09:03:50Z</time>
      </trkpt>
      <trkpt lat="44.13728" lon="2.66224">
        <ele>778.81</ele>
        <time>2022-07-13T09:04:05Z</time>
      </trkpt>
      <trkpt lat="44.1366" lon="2.66274">
        <ele>774.48</ele>
        <time>2022-07-13T09:05:09Z</time>
      </trkpt>
      <trkpt lat="44.13634" lon="2.66276">
        <ele>774</ele>
        <time>2022-07-13T09:05:26Z</time>
      </trkpt>
      <trkpt lat="44.13623" lon="2.6628">
        <ele>772.56</ele>
        <time>2022-07-13T09:05:33Z</time>
      </trkpt>
      <trkpt lat="44.13613" lon="2.66282">
        <ele>772.56</ele>
        <time>2022-07-13T09:05:40Z</time>
      </trkpt>
      <trkpt lat="44.13602" lon="2.66287">
        <ele>772.08</ele>
        <time>2022-07-13T09:05:48Z</time>
      </trkpt>
      <trkpt lat="44.13591" lon="2.66293">
        <ele>771.6</ele>
        <time>2022-07-13T09:05:56Z</time>
      </trkpt>
      <trkpt lat="44.13553" lon="2.66305">
        <ele>771.11</ele>
        <time>2022-07-13T09:06:29Z</time>
      </trkpt>
      <trkpt lat="44.13375" lon="2.66339">
        <ele>748.04</ele>
        <time>2022-07-13T09:08:33Z</time>
      </trkpt>
      <trkpt lat="44.13362" lon="2.66339">
        <ele>749.97</ele>
        <time>2022-07-13T09:08:42Z</time>
      </trkpt>
      <trkpt lat="44.13325" lon="2.66345">
        <ele>752.37</ele>
        <time>2022-07-13T09:09:11Z</time>
      </trkpt>
      <trkpt lat="44.13314" lon="2.66346">
        <ele>752.37</ele>
        <time>2022-07-13T09:09:17Z</time>
      </trkpt>
      <trkpt lat="44.133" lon="2.66346">
        <ele>753.33</ele>
        <time>2022-07-13T09:09:24Z</time>
      </trkpt>
      <trkpt lat="44.13288" lon="2.66349">
        <ele>754.77</ele>
        <time>2022-07-13T09:09:31Z</time>
      </trkpt>
      <trkpt lat="44.13277" lon="2.66355">
        <ele>755.25</ele>
        <time>2022-07-13T09:09:38Z</time>
      </trkpt>
      <trkpt lat="44.13266" lon="2.6636">
        <ele>756.69</ele>
        <time>2022-07-13T09:09:45Z</time>
      </trkpt>
      <trkpt lat="44.13255" lon="2.66361">
        <ele>757.18</ele>
        <time>2022-07-13T09:09:53Z</time>
      </trkpt>
      <trkpt lat="44.13245" lon="2.66366">
        <ele>758.14</ele>
        <time>2022-07-13T09:10:00Z</time>
      </trkpt>
      <trkpt lat="44.13235" lon="2.66371">
        <ele>758.14</ele>
        <time>2022-07-13T09:10:07Z</time>
      </trkpt>
      <trkpt lat="44.13223" lon="2.66376">
        <ele>757.66</ele>
        <time>2022-07-13T09:10:15Z</time>
      </trkpt>
      <trkpt lat="44.13212" lon="2.66383">
        <ele>757.18</ele>
        <time>2022-07-13T09:10:21Z</time>
      </trkpt>
      <trkpt lat="44.13201" lon="2.6639">
        <ele>757.18</ele>
        <time>2022-07-13T09:10:29Z</time>
      </trkpt>
      <trkpt lat="44.13193" lon="2.66398">
        <ele>757.18</ele>
        <time>2022-07-13T09:10:36Z</time>
      </trkpt>
      <trkpt lat="44.13182" lon="2.66404">
        <ele>757.66</ele>
        <time>2022-07-13T09:10:45Z</time>
      </trkpt>
      <trkpt lat="44.13168" lon="2.66418">
        <ele>757.18</ele>
        <time>2022-07-13T09:10:56Z</time>
      </trkpt>
      <trkpt lat="44.13159" lon="2.66428">
        <ele>757.66</ele>
        <time>2022-07-13T09:11:04Z</time>
      </trkpt>
      <trkpt lat="44.13151" lon="2.66443">
        <ele>758.14</ele>
        <time>2022-07-13T09:11:13Z</time>
      </trkpt>
      <trkpt lat="44.13116" lon="2.66477">
        <ele>759.1</ele>
        <time>2022-07-13T09:11:44Z</time>
      </trkpt>
      <trkpt lat="44.13104" lon="2.66484">
        <ele>760.54</ele>
        <time>2022-07-13T09:11:53Z</time>
      </trkpt>
      <trkpt lat="44.13094" lon="2.66493">
        <ele>761.98</ele>
        <time>2022-07-13T09:12:00Z</time>
      </trkpt>
      <trkpt lat="44.13086" lon="2.66502">
        <ele>762.46</ele>
        <time>2022-07-13T09:12:07Z</time>
      </trkpt>
      <trkpt lat="44.13075" lon="2.6651">
        <ele>763.9</ele>
        <time>2022-07-13T09:12:16Z</time>
      </trkpt>
      <trkpt lat="44.13064" lon="2.66521">
        <ele>766.79</ele>
        <time>2022-07-13T09:12:25Z</time>
      </trkpt>
      <trkpt lat="44.13056" lon="2.66531">
        <ele>767.75</ele>
        <time>2022-07-13T09:12:33Z</time>
      </trkpt>
      <trkpt lat="44.13047" lon="2.66539">
        <ele>769.19</ele>
        <time>2022-07-13T09:12:41Z</time>
      </trkpt>
      <trkpt lat="44.1304" lon="2.66551">
        <ele>772.08</ele>
        <time>2022-07-13T09:12:50Z</time>
      </trkpt>
      <trkpt lat="44.13032" lon="2.66556">
        <ele>772.08</ele>
        <time>2022-07-13T09:12:58Z</time>
      </trkpt>
      <trkpt lat="44.13002" lon="2.66571">
        <ele>772.08</ele>
        <time>2022-07-13T09:13:23Z</time>
      </trkpt>
      <trkpt lat="44.12985" lon="2.66587">
        <ele>771.6</ele>
        <time>2022-07-13T09:13:35Z</time>
      </trkpt>
      <trkpt lat="44.1297" lon="2.66598">
        <ele>770.63</ele>
        <time>2022-07-13T09:13:46Z</time>
      </trkpt>
      <trkpt lat="44.12953" lon="2.66612">
        <ele>770.63</ele>
        <time>2022-07-13T09:13:58Z</time>
      </trkpt>
      <trkpt lat="44.1294" lon="2.66624">
        <ele>770.15</ele>
        <time>2022-07-13T09:14:07Z</time>
      </trkpt>
      <trkpt lat="44.12924" lon="2.66643">
        <ele>770.15</ele>
        <time>2022-07-13T09:14:22Z</time>
      </trkpt>
      <trkpt lat="44.12916" lon="2.66656">
        <ele>770.15</ele>
        <time>2022-07-13T09:14:30Z</time>
      </trkpt>
      <trkpt lat="44.12909" lon="2.66668">
        <ele>770.15</ele>
        <time>2022-07-13T09:14:37Z</time>
      </trkpt>
      <trkpt lat="44.12902" lon="2.66682">
        <ele>770.63</ele>
        <time>2022-07-13T09:14:46Z</time>
      </trkpt>
      <trkpt lat="44.12876" lon="2.66711">
        <ele>771.11</ele>
        <time>2022-07-13T09:15:09Z</time>
      </trkpt>
      <trkpt lat="44.12858" lon="2.66721">
        <ele>772.08</ele>
        <time>2022-07-13T09:15:23Z</time>
      </trkpt>
      <trkpt lat="44.12829" lon="2.66735">
        <ele>770.63</ele>
        <time>2022-07-13T09:15:45Z</time>
      </trkpt>
      <trkpt lat="44.12813" lon="2.66735">
        <ele>768.71</ele>
        <time>2022-07-13T09:15:54Z</time>
      </trkpt>
      <trkpt lat="44.12801" lon="2.66731">
        <ele>766.79</ele>
        <time>2022-07-13T09:16:03Z</time>
      </trkpt>
      <trkpt lat="44.12791" lon="2.66737">
        <ele>766.31</ele>
        <time>2022-07-13T09:16:10Z</time>
      </trkpt>
      <trkpt lat="44.12779" lon="2.66744">
        <ele>765.35</ele>
        <time>2022-07-13T09:16:16Z</time>
      </trkpt>
      <trkpt lat="44.1277" lon="2.66748">
        <ele>762.94</ele>
        <time>2022-07-13T09:16:22Z</time>
      </trkpt>
      <trkpt lat="44.12761" lon="2.6675">
        <ele>761.98</ele>
        <time>2022-07-13T09:16:29Z</time>
      </trkpt>
      <trkpt lat="44.12751" lon="2.66758">
        <ele>761.5</ele>
        <time>2022-07-13T09:16:37Z</time>
      </trkpt>
      <trkpt lat="44.12741" lon="2.6678">
        <ele>758.14</ele>
        <time>2022-07-13T09:16:51Z</time>
      </trkpt>
      <trkpt lat="44.12705" lon="2.66827">
        <ele>753.33</ele>
        <time>2022-07-13T09:18:09Z</time>
      </trkpt>
      <trkpt lat="44.12697" lon="2.66833">
        <ele>753.33</ele>
        <time>2022-07-13T09:18:17Z</time>
      </trkpt>
      <trkpt lat="44.12688" lon="2.66842">
        <ele>753.33</ele>
        <time>2022-07-13T09:18:24Z</time>
      </trkpt>
      <trkpt lat="44.12681" lon="2.6685">
        <ele>752.85</ele>
        <time>2022-07-13T09:18:31Z</time>
      </trkpt>
      <trkpt lat="44.12672" lon="2.66857">
        <ele>753.33</ele>
        <time>2022-07-13T09:18:41Z</time>
      </trkpt>
      <trkpt lat="44.12662" lon="2.6687">
        <ele>753.81</ele>
        <time>2022-07-13T09:18:52Z</time>
      </trkpt>
      <trkpt lat="44.12656" lon="2.669">
        <ele>752.85</ele>
        <time>2022-07-13T09:19:09Z</time>
      </trkpt>
      <trkpt lat="44.12651" lon="2.66914">
        <ele>753.33</ele>
        <time>2022-07-13T09:19:17Z</time>
      </trkpt>
      <trkpt lat="44.12644" lon="2.66926">
        <ele>753.81</ele>
        <time>2022-07-13T09:19:25Z</time>
      </trkpt>
      <trkpt lat="44.12636" lon="2.66933">
        <ele>754.77</ele>
        <time>2022-07-13T09:19:32Z</time>
      </trkpt>
      <trkpt lat="44.12626" lon="2.66941">
        <ele>755.73</ele>
        <time>2022-07-13T09:19:40Z</time>
      </trkpt>
      <trkpt lat="44.12617" lon="2.66949">
        <ele>755.73</ele>
        <time>2022-07-13T09:19:47Z</time>
      </trkpt>
      <trkpt lat="44.12607" lon="2.66956">
        <ele>755.73</ele>
        <time>2022-07-13T09:19:54Z</time>
      </trkpt>
      <trkpt lat="44.12598" lon="2.66963">
        <ele>756.21</ele>
        <time>2022-07-13T09:20:01Z</time>
      </trkpt>
      <trkpt lat="44.12588" lon="2.66969">
        <ele>756.69</ele>
        <time>2022-07-13T09:20:08Z</time>
      </trkpt>
      <trkpt lat="44.12579" lon="2.66976">
        <ele>755.73</ele>
        <time>2022-07-13T09:20:15Z</time>
      </trkpt>
      <trkpt lat="44.12569" lon="2.66983">
        <ele>754.77</ele>
        <time>2022-07-13T09:20:25Z</time>
      </trkpt>
      <trkpt lat="44.12557" lon="2.66988">
        <ele>756.69</ele>
        <time>2022-07-13T09:20:32Z</time>
      </trkpt>
      <trkpt lat="44.12547" lon="2.66993">
        <ele>757.18</ele>
        <time>2022-07-13T09:20:39Z</time>
      </trkpt>
      <trkpt lat="44.12538" lon="2.66996">
        <ele>758.14</ele>
        <time>2022-07-13T09:20:46Z</time>
      </trkpt>
      <trkpt lat="44.1253" lon="2.67001">
        <ele>758.62</ele>
        <time>2022-07-13T09:20:54Z</time>
      </trkpt>
      <trkpt lat="44.12522" lon="2.66996">
        <ele>758.14</ele>
        <time>2022-07-13T09:21:03Z</time>
      </trkpt>
      <trkpt lat="44.1252" lon="2.66984">
        <ele>757.66</ele>
        <time>2022-07-13T09:21:10Z</time>
      </trkpt>
      <trkpt lat="44.12515" lon="2.66969">
        <ele>757.18</ele>
        <time>2022-07-13T09:21:18Z</time>
      </trkpt>
      <trkpt lat="44.1251" lon="2.66956">
        <ele>756.69</ele>
        <time>2022-07-13T09:21:26Z</time>
      </trkpt>
      <trkpt lat="44.12504" lon="2.66942">
        <ele>756.21</ele>
        <time>2022-07-13T09:21:34Z</time>
      </trkpt>
      <trkpt lat="44.12499" lon="2.66928">
        <ele>756.21</ele>
        <time>2022-07-13T09:21:41Z</time>
      </trkpt>
      <trkpt lat="44.12493" lon="2.66915">
        <ele>756.21</ele>
        <time>2022-07-13T09:21:48Z</time>
      </trkpt>
      <trkpt lat="44.12485" lon="2.6691">
        <ele>758.14</ele>
        <time>2022-07-13T09:21:56Z</time>
      </trkpt>
      <trkpt lat="44.12476" lon="2.66901">
        <ele>759.1</ele>
        <time>2022-07-13T09:22:04Z</time>
      </trkpt>
      <trkpt lat="44.12468" lon="2.66891">
        <ele>759.1</ele>
        <time>2022-07-13T09:22:12Z</time>
      </trkpt>
      <trkpt lat="44.12461" lon="2.66879">
        <ele>760.54</ele>
        <time>2022-07-13T09:22:19Z</time>
      </trkpt>
      <trkpt lat="44.12453" lon="2.66869">
        <ele>761.98</ele>
        <time>2022-07-13T09:22:26Z</time>
      </trkpt>
      <trkpt lat="44.12445" lon="2.66859">
        <ele>763.42</ele>
        <time>2022-07-13T09:22:33Z</time>
      </trkpt>
      <trkpt lat="44.12438" lon="2.66852">
        <ele>764.39</ele>
        <time>2022-07-13T09:22:40Z</time>
      </trkpt>
      <trkpt lat="44.1243" lon="2.66844">
        <ele>765.83</ele>
        <time>2022-07-13T09:22:47Z</time>
      </trkpt>
      <trkpt lat="44.12422" lon="2.66836">
        <ele>766.31</ele>
        <time>2022-07-13T09:22:54Z</time>
      </trkpt>
      <trkpt lat="44.12412" lon="2.66827">
        <ele>767.27</ele>
        <time>2022-07-13T09:23:02Z</time>
      </trkpt>
      <trkpt lat="44.12403" lon="2.66816">
        <ele>768.71</ele>
        <time>2022-07-13T09:23:10Z</time>
      </trkpt>
      <trkpt lat="44.12393" lon="2.66806">
        <ele>770.63</ele>
        <time>2022-07-13T09:23:46Z</time>
      </trkpt>
      <trkpt lat="44.12382" lon="2.66797">
        <ele>770.63</ele>
        <time>2022-07-13T09:23:55Z</time>
      </trkpt>
      <trkpt lat="44.12373" lon="2.66786">
        <ele>771.11</ele>
        <time>2022-07-13T09:24:03Z</time>
      </trkpt>
      <trkpt lat="44.12364" lon="2.66774">
        <ele>771.6</ele>
        <time>2022-07-13T09:24:12Z</time>
      </trkpt>
      <trkpt lat="44.12352" lon="2.66763">
        <ele>771.11</ele>
        <time>2022-07-13T09:24:22Z</time>
      </trkpt>
      <trkpt lat="44.12342" lon="2.66753">
        <ele>772.08</ele>
        <time>2022-07-13T09:24:29Z</time>
      </trkpt>
      <trkpt lat="44.12333" lon="2.66747">
        <ele>773.52</ele>
        <time>2022-07-13T09:24:36Z</time>
      </trkpt>
      <trkpt lat="44.12323" lon="2.66739">
        <ele>775.92</ele>
        <time>2022-07-13T09:24:45Z</time>
      </trkpt>
      <trkpt lat="44.1231" lon="2.66728">
        <ele>777.84</ele>
        <time>2022-07-13T09:24:56Z</time>
      </trkpt>
      <trkpt lat="44.12298" lon="2.66718">
        <ele>780.73</ele>
        <time>2022-07-13T09:25:07Z</time>
      </trkpt>
      <trkpt lat="44.12285" lon="2.667">
        <ele>785.05</ele>
        <time>2022-07-13T09:25:21Z</time>
      </trkpt>
      <trkpt lat="44.12273" lon="2.66694">
        <ele>787.94</ele>
        <time>2022-07-13T09:25:30Z</time>
      </trkpt>
      <trkpt lat="44.12261" lon="2.66687">
        <ele>791.78</ele>
        <time>2022-07-13T09:25:37Z</time>
      </trkpt>
      <trkpt lat="44.12252" lon="2.66678">
        <ele>794.67</ele>
        <time>2022-07-13T09:25:46Z</time>
      </trkpt>
      <trkpt lat="44.12242" lon="2.66667">
        <ele>795.63</ele>
        <time>2022-07-13T09:25:57Z</time>
      </trkpt>
      <trkpt lat="44.12233" lon="2.6666">
        <ele>796.59</ele>
        <time>2022-07-13T09:26:05Z</time>
      </trkpt>
      <trkpt lat="44.1222" lon="2.66658">
        <ele>801.4</ele>
        <time>2022-07-13T09:26:14Z</time>
      </trkpt>
      <trkpt lat="44.12208" lon="2.66655">
        <ele>804.28</ele>
        <time>2022-07-13T09:26:23Z</time>
      </trkpt>
      <trkpt lat="44.12198" lon="2.66651">
        <ele>806.68</ele>
        <time>2022-07-13T09:26:31Z</time>
      </trkpt>
      <trkpt lat="44.12189" lon="2.66643">
        <ele>808.13</ele>
        <time>2022-07-13T09:26:39Z</time>
      </trkpt>
      <trkpt lat="44.1218" lon="2.66634">
        <ele>811.01</ele>
        <time>2022-07-13T09:26:48Z</time>
      </trkpt>
      <trkpt lat="44.12173" lon="2.66623">
        <ele>812.93</ele>
        <time>2022-07-13T09:26:55Z</time>
      </trkpt>
      <trkpt lat="44.12166" lon="2.66613">
        <ele>815.82</ele>
        <time>2022-07-13T09:27:02Z</time>
      </trkpt>
      <trkpt lat="44.12159" lon="2.66604">
        <ele>818.22</ele>
        <time>2022-07-13T09:27:10Z</time>
      </trkpt>
      <trkpt lat="44.1215" lon="2.66592">
        <ele>820.62</ele>
        <time>2022-07-13T09:27:20Z</time>
      </trkpt>
      <trkpt lat="44.12137" lon="2.6658">
        <ele>819.18</ele>
        <time>2022-07-13T09:27:33Z</time>
      </trkpt>
      <trkpt lat="44.12128" lon="2.66569">
        <ele>818.7</ele>
        <time>2022-07-13T09:27:43Z</time>
      </trkpt>
      <trkpt lat="44.12116" lon="2.66556">
        <ele>817.26</ele>
        <time>2022-07-13T09:27:56Z</time>
      </trkpt>
      <trkpt lat="44.12107" lon="2.6654">
        <ele>816.3</ele>
        <time>2022-07-13T09:28:04Z</time>
      </trkpt>
      <trkpt lat="44.12096" lon="2.66521">
        <ele>815.34</ele>
        <time>2022-07-13T09:28:14Z</time>
      </trkpt>
      <trkpt lat="44.1208" lon="2.66507">
        <ele>813.89</ele>
        <time>2022-07-13T09:28:27Z</time>
      </trkpt>
      <trkpt lat="44.12069" lon="2.66497">
        <ele>813.41</ele>
        <time>2022-07-13T09:28:35Z</time>
      </trkpt>
      <trkpt lat="44.12058" lon="2.66489">
        <ele>812.93</ele>
        <time>2022-07-13T09:28:42Z</time>
      </trkpt>
      <trkpt lat="44.12049" lon="2.6648">
        <ele>812.93</ele>
        <time>2022-07-13T09:28:49Z</time>
      </trkpt>
      <trkpt lat="44.1204" lon="2.66472">
        <ele>812.93</ele>
        <time>2022-07-13T09:28:56Z</time>
      </trkpt>
      <trkpt lat="44.12028" lon="2.66462">
        <ele>811.97</ele>
        <time>2022-07-13T09:29:07Z</time>
      </trkpt>
      <trkpt lat="44.12015" lon="2.66452">
        <ele>811.97</ele>
        <time>2022-07-13T09:29:17Z</time>
      </trkpt>
      <trkpt lat="44.11913" lon="2.66413">
        <ele>794.19</ele>
        <time>2022-07-13T09:30:34Z</time>
      </trkpt>
      <trkpt lat="44.11891" lon="2.66418">
        <ele>794.19</ele>
        <time>2022-07-13T09:30:47Z</time>
      </trkpt>
      <trkpt lat="44.11873" lon="2.66441">
        <ele>794.67</ele>
        <time>2022-07-13T09:31:06Z</time>
      </trkpt>
      <trkpt lat="44.11868" lon="2.66455">
        <ele>796.11</ele>
        <time>2022-07-13T09:31:13Z</time>
      </trkpt>
      <trkpt lat="44.1186" lon="2.66469">
        <ele>796.11</ele>
        <time>2022-07-13T09:31:22Z</time>
      </trkpt>
      <trkpt lat="44.11853" lon="2.66486">
        <ele>796.59</ele>
        <time>2022-07-13T09:31:30Z</time>
      </trkpt>
      <trkpt lat="44.11847" lon="2.66501">
        <ele>796.59</ele>
        <time>2022-07-13T09:31:38Z</time>
      </trkpt>
      <trkpt lat="44.11839" lon="2.66512">
        <ele>795.63</ele>
        <time>2022-07-13T09:31:47Z</time>
      </trkpt>
      <trkpt lat="44.11828" lon="2.66537">
        <ele>794.67</ele>
        <time>2022-07-13T09:32:02Z</time>
      </trkpt>
      <trkpt lat="44.11824" lon="2.66553">
        <ele>795.15</ele>
        <time>2022-07-13T09:32:10Z</time>
      </trkpt>
      <trkpt lat="44.11821" lon="2.66568">
        <ele>795.15</ele>
        <time>2022-07-13T09:32:17Z</time>
      </trkpt>
      <trkpt lat="44.11818" lon="2.66583">
        <ele>794.67</ele>
        <time>2022-07-13T09:32:26Z</time>
      </trkpt>
      <trkpt lat="44.11814" lon="2.66602">
        <ele>796.11</ele>
        <time>2022-07-13T09:32:36Z</time>
      </trkpt>
      <trkpt lat="44.11809" lon="2.66618">
        <ele>797.55</ele>
        <time>2022-07-13T09:32:44Z</time>
      </trkpt>
      <trkpt lat="44.11803" lon="2.66635">
        <ele>798.51</ele>
        <time>2022-07-13T09:32:53Z</time>
      </trkpt>
      <trkpt lat="44.11796" lon="2.66649">
        <ele>797.55</ele>
        <time>2022-07-13T09:33:03Z</time>
      </trkpt>
      <trkpt lat="44.11788" lon="2.6667">
        <ele>798.03</ele>
        <time>2022-07-13T09:33:16Z</time>
      </trkpt>
      <trkpt lat="44.1178" lon="2.66685">
        <ele>798.03</ele>
        <time>2022-07-13T09:33:24Z</time>
      </trkpt>
      <trkpt lat="44.11774" lon="2.66699">
        <ele>798.51</ele>
        <time>2022-07-13T09:33:32Z</time>
      </trkpt>
      <trkpt lat="44.11768" lon="2.66713">
        <ele>799.47</ele>
        <time>2022-07-13T09:33:40Z</time>
      </trkpt>
      <trkpt lat="44.11761" lon="2.6673">
        <ele>799.47</ele>
        <time>2022-07-13T09:33:49Z</time>
      </trkpt>
      <trkpt lat="44.11756" lon="2.66744">
        <ele>798.51</ele>
        <time>2022-07-13T09:33:56Z</time>
      </trkpt>
      <trkpt lat="44.11751" lon="2.66757">
        <ele>798.03</ele>
        <time>2022-07-13T09:34:03Z</time>
      </trkpt>
      <trkpt lat="44.11746" lon="2.66769">
        <ele>797.55</ele>
        <time>2022-07-13T09:34:10Z</time>
      </trkpt>
      <trkpt lat="44.1174" lon="2.66782">
        <ele>797.55</ele>
        <time>2022-07-13T09:34:18Z</time>
      </trkpt>
      <trkpt lat="44.11735" lon="2.66796">
        <ele>798.03</ele>
        <time>2022-07-13T09:34:27Z</time>
      </trkpt>
      <trkpt lat="44.1173" lon="2.66808">
        <ele>797.55</ele>
        <time>2022-07-13T09:34:34Z</time>
      </trkpt>
      <trkpt lat="44.11724" lon="2.66821">
        <ele>797.55</ele>
        <time>2022-07-13T09:34:43Z</time>
      </trkpt>
      <trkpt lat="44.11717" lon="2.66836">
        <ele>798.03</ele>
        <time>2022-07-13T09:34:50Z</time>
      </trkpt>
      <trkpt lat="44.11712" lon="2.66849">
        <ele>798.03</ele>
        <time>2022-07-13T09:34:57Z</time>
      </trkpt>
      <trkpt lat="44.11707" lon="2.66862">
        <ele>797.55</ele>
        <time>2022-07-13T09:35:04Z</time>
      </trkpt>
      <trkpt lat="44.11702" lon="2.66876">
        <ele>797.07</ele>
        <time>2022-07-13T09:35:11Z</time>
      </trkpt>
      <trkpt lat="44.11698" lon="2.6689">
        <ele>796.59</ele>
        <time>2022-07-13T09:35:17Z</time>
      </trkpt>
      <trkpt lat="44.11694" lon="2.66901">
        <ele>797.07</ele>
        <time>2022-07-13T09:35:23Z</time>
      </trkpt>
      <trkpt lat="44.1169" lon="2.66914">
        <ele>797.55</ele>
        <time>2022-07-13T09:35:30Z</time>
      </trkpt>
      <trkpt lat="44.11687" lon="2.66927">
        <ele>797.55</ele>
        <time>2022-07-13T09:35:37Z</time>
      </trkpt>
      <trkpt lat="44.11683" lon="2.66941">
        <ele>798.03</ele>
        <time>2022-07-13T09:35:44Z</time>
      </trkpt>
      <trkpt lat="44.11679" lon="2.66954">
        <ele>798.03</ele>
        <time>2022-07-13T09:35:51Z</time>
      </trkpt>
      <trkpt lat="44.11671" lon="2.6696">
        <ele>798.03</ele>
        <time>2022-07-13T09:35:59Z</time>
      </trkpt>
      <trkpt lat="44.11666" lon="2.66948">
        <ele>797.55</ele>
        <time>2022-07-13T09:36:06Z</time>
      </trkpt>
      <trkpt lat="44.1166" lon="2.66935">
        <ele>797.55</ele>
        <time>2022-07-13T09:36:13Z</time>
      </trkpt>
      <trkpt lat="44.11654" lon="2.66922">
        <ele>797.07</ele>
        <time>2022-07-13T09:36:19Z</time>
      </trkpt>
      <trkpt lat="44.11649" lon="2.66911">
        <ele>796.11</ele>
        <time>2022-07-13T09:36:25Z</time>
      </trkpt>
      <trkpt lat="44.11645" lon="2.669">
        <ele>794.67</ele>
        <time>2022-07-13T09:36:31Z</time>
      </trkpt>
      <trkpt lat="44.11639" lon="2.66888">
        <ele>792.74</ele>
        <time>2022-07-13T09:36:38Z</time>
      </trkpt>
      <trkpt lat="44.11632" lon="2.66877">
        <ele>790.82</ele>
        <time>2022-07-13T09:36:45Z</time>
      </trkpt>
      <trkpt lat="44.11622" lon="2.66876">
        <ele>789.38</ele>
        <time>2022-07-13T09:36:52Z</time>
      </trkpt>
      <trkpt lat="44.11613" lon="2.66885">
        <ele>787.94</ele>
        <time>2022-07-13T09:36:59Z</time>
      </trkpt>
      <trkpt lat="44.11605" lon="2.66894">
        <ele>786.02</ele>
        <time>2022-07-13T09:37:06Z</time>
      </trkpt>
      <trkpt lat="44.11598" lon="2.66903">
        <ele>784.57</ele>
        <time>2022-07-13T09:37:13Z</time>
      </trkpt>
      <trkpt lat="44.11589" lon="2.66913">
        <ele>782.65</ele>
        <time>2022-07-13T09:37:21Z</time>
      </trkpt>
      <trkpt lat="44.1158" lon="2.66919">
        <ele>780.73</ele>
        <time>2022-07-13T09:37:28Z</time>
      </trkpt>
      <trkpt lat="44.11571" lon="2.66928">
        <ele>779.77</ele>
        <time>2022-07-13T09:37:35Z</time>
      </trkpt>
      <trkpt lat="44.11562" lon="2.66933">
        <ele>778.32</ele>
        <time>2022-07-13T09:37:42Z</time>
      </trkpt>
      <trkpt lat="44.11553" lon="2.66938">
        <ele>778.32</ele>
        <time>2022-07-13T09:37:49Z</time>
      </trkpt>
      <trkpt lat="44.11542" lon="2.66945">
        <ele>777.84</ele>
        <time>2022-07-13T09:37:58Z</time>
      </trkpt>
      <trkpt lat="44.11532" lon="2.66952">
        <ele>778.32</ele>
        <time>2022-07-13T09:38:05Z</time>
      </trkpt>
      <trkpt lat="44.11523" lon="2.66962">
        <ele>778.81</ele>
        <time>2022-07-13T09:38:13Z</time>
      </trkpt>
      <trkpt lat="44.11513" lon="2.66974">
        <ele>780.73</ele>
        <time>2022-07-13T09:38:21Z</time>
      </trkpt>
      <trkpt lat="44.11504" lon="2.66982">
        <ele>781.21</ele>
        <time>2022-07-13T09:38:28Z</time>
      </trkpt>
      <trkpt lat="44.11494" lon="2.66992">
        <ele>780.25</ele>
        <time>2022-07-13T09:38:36Z</time>
      </trkpt>
      <trkpt lat="44.11486" lon="2.67007">
        <ele>777.84</ele>
        <time>2022-07-13T09:38:48Z</time>
      </trkpt>
      <trkpt lat="44.11484" lon="2.67023">
        <ele>775.92</ele>
        <time>2022-07-13T09:38:56Z</time>
      </trkpt>
      <trkpt lat="44.11484" lon="2.67038">
        <ele>776.88</ele>
        <time>2022-07-13T09:39:03Z</time>
      </trkpt>
      <trkpt lat="44.11487" lon="2.67057">
        <ele>779.77</ele>
        <time>2022-07-13T09:39:11Z</time>
      </trkpt>
      <trkpt lat="44.11489" lon="2.67072">
        <ele>780.73</ele>
        <time>2022-07-13T09:39:18Z</time>
      </trkpt>
      <trkpt lat="44.11491" lon="2.67085">
        <ele>780.25</ele>
        <time>2022-07-13T09:39:24Z</time>
      </trkpt>
      <trkpt lat="44.11494" lon="2.67099">
        <ele>780.73</ele>
        <time>2022-07-13T09:39:31Z</time>
      </trkpt>
      <trkpt lat="44.11498" lon="2.67112">
        <ele>780.25</ele>
        <time>2022-07-13T09:39:39Z</time>
      </trkpt>
      <trkpt lat="44.115" lon="2.67125">
        <ele>779.77</ele>
        <time>2022-07-13T09:39:46Z</time>
      </trkpt>
      <trkpt lat="44.11501" lon="2.67139">
        <ele>778.32</ele>
        <time>2022-07-13T09:39:54Z</time>
      </trkpt>
      <trkpt lat="44.11501" lon="2.67155">
        <ele>777.84</ele>
        <time>2022-07-13T09:40:01Z</time>
      </trkpt>
      <trkpt lat="44.11499" lon="2.67171">
        <ele>779.29</ele>
        <time>2022-07-13T09:40:08Z</time>
      </trkpt>
      <trkpt lat="44.11495" lon="2.67185">
        <ele>778.81</ele>
        <time>2022-07-13T09:40:14Z</time>
      </trkpt>
      <trkpt lat="44.11491" lon="2.67196">
        <ele>779.29</ele>
        <time>2022-07-13T09:40:21Z</time>
      </trkpt>
      <trkpt lat="44.11484" lon="2.67209">
        <ele>778.81</ele>
        <time>2022-07-13T09:40:29Z</time>
      </trkpt>
      <trkpt lat="44.11476" lon="2.67221">
        <ele>778.32</ele>
        <time>2022-07-13T09:40:37Z</time>
      </trkpt>
      <trkpt lat="44.11467" lon="2.67234">
        <ele>778.81</ele>
        <time>2022-07-13T09:40:44Z</time>
      </trkpt>
      <trkpt lat="44.1146" lon="2.67245">
        <ele>779.29</ele>
        <time>2022-07-13T09:40:50Z</time>
      </trkpt>
      <trkpt lat="44.11454" lon="2.67256">
        <ele>779.77</ele>
        <time>2022-07-13T09:40:56Z</time>
      </trkpt>
      <trkpt lat="44.11448" lon="2.67267">
        <ele>779.77</ele>
        <time>2022-07-13T09:41:02Z</time>
      </trkpt>
      <trkpt lat="44.11442" lon="2.67278">
        <ele>779.29</ele>
        <time>2022-07-13T09:41:09Z</time>
      </trkpt>
      <trkpt lat="44.11437" lon="2.67289">
        <ele>779.29</ele>
        <time>2022-07-13T09:41:15Z</time>
      </trkpt>
      <trkpt lat="44.11431" lon="2.67302">
        <ele>778.32</ele>
        <time>2022-07-13T09:41:22Z</time>
      </trkpt>
      <trkpt lat="44.11427" lon="2.67315">
        <ele>777.84</ele>
        <time>2022-07-13T09:41:28Z</time>
      </trkpt>
      <trkpt lat="44.11425" lon="2.67329">
        <ele>777.84</ele>
        <time>2022-07-13T09:41:35Z</time>
      </trkpt>
      <trkpt lat="44.11424" lon="2.67346">
        <ele>778.32</ele>
        <time>2022-07-13T09:41:43Z</time>
      </trkpt>
      <trkpt lat="44.11429" lon="2.67363">
        <ele>778.32</ele>
        <time>2022-07-13T09:41:54Z</time>
      </trkpt>
      <trkpt lat="44.1145" lon="2.67397">
        <ele>778.32</ele>
        <time>2022-07-13T09:42:25Z</time>
      </trkpt>
      <trkpt lat="44.11456" lon="2.6741">
        <ele>777.84</ele>
        <time>2022-07-13T09:42:33Z</time>
      </trkpt>
      <trkpt lat="44.11457" lon="2.67426">
        <ele>777.84</ele>
        <time>2022-07-13T09:42:40Z</time>
      </trkpt>
      <trkpt lat="44.11453" lon="2.6744">
        <ele>776.88</ele>
        <time>2022-07-13T09:42:47Z</time>
      </trkpt>
      <trkpt lat="44.11448" lon="2.67455">
        <ele>775.44</ele>
        <time>2022-07-13T09:42:55Z</time>
      </trkpt>
      <trkpt lat="44.1144" lon="2.67476">
        <ele>772.08</ele>
        <time>2022-07-13T09:43:17Z</time>
      </trkpt>
      <trkpt lat="44.11433" lon="2.6749">
        <ele>772.08</ele>
        <time>2022-07-13T09:43:20Z</time>
      </trkpt>
      <trkpt lat="44.11426" lon="2.67503">
        <ele>772.56</ele>
        <time>2022-07-13T09:43:22Z</time>
      </trkpt>
      <trkpt lat="44.11418" lon="2.67515">
        <ele>773.04</ele>
        <time>2022-07-13T09:43:24Z</time>
      </trkpt>
      <trkpt lat="44.11411" lon="2.67528">
        <ele>774</ele>
        <time>2022-07-13T09:43:26Z</time>
      </trkpt>
      <trkpt lat="44.11404" lon="2.67542">
        <ele>774.48</ele>
        <time>2022-07-13T09:43:28Z</time>
      </trkpt>
      <trkpt lat="44.11398" lon="2.67555">
        <ele>774.96</ele>
        <time>2022-07-13T09:43:30Z</time>
      </trkpt>
      <trkpt lat="44.11393" lon="2.67569">
        <ele>774.96</ele>
        <time>2022-07-13T09:43:32Z</time>
      </trkpt>
      <trkpt lat="44.11389" lon="2.67582">
        <ele>775.44</ele>
        <time>2022-07-13T09:43:34Z</time>
      </trkpt>
      <trkpt lat="44.11386" lon="2.67596">
        <ele>775.92</ele>
        <time>2022-07-13T09:43:36Z</time>
      </trkpt>
      <trkpt lat="44.11384" lon="2.6761">
        <ele>775.92</ele>
        <time>2022-07-13T09:43:38Z</time>
      </trkpt>
      <trkpt lat="44.11383" lon="2.67625">
        <ele>776.4</ele>
        <time>2022-07-13T09:43:40Z</time>
      </trkpt>
      <trkpt lat="44.11384" lon="2.67641">
        <ele>776.88</ele>
        <time>2022-07-13T09:43:42Z</time>
      </trkpt>
      <trkpt lat="44.11385" lon="2.67656">
        <ele>777.36</ele>
        <time>2022-07-13T09:43:44Z</time>
      </trkpt>
      <trkpt lat="44.11385" lon="2.67671">
        <ele>777.36</ele>
        <time>2022-07-13T09:43:46Z</time>
      </trkpt>
      <trkpt lat="44.11381" lon="2.67684">
        <ele>776.88</ele>
        <time>2022-07-13T09:43:48Z</time>
      </trkpt>
      <trkpt lat="44.11376" lon="2.67697">
        <ele>776.88</ele>
        <time>2022-07-13T09:43:50Z</time>
      </trkpt>
      <trkpt lat="44.11372" lon="2.6771">
        <ele>776.4</ele>
        <time>2022-07-13T09:43:52Z</time>
      </trkpt>
      <trkpt lat="44.11367" lon="2.67725">
        <ele>776.4</ele>
        <time>2022-07-13T09:43:54Z</time>
      </trkpt>
      <trkpt lat="44.11364" lon="2.67739">
        <ele>776.4</ele>
        <time>2022-07-13T09:43:56Z</time>
      </trkpt>
      <trkpt lat="44.1136" lon="2.67754">
        <ele>775.92</ele>
        <time>2022-07-13T09:43:58Z</time>
      </trkpt>
      <trkpt lat="44.11357" lon="2.67769">
        <ele>775.92</ele>
        <time>2022-07-13T09:44:00Z</time>
      </trkpt>
      <trkpt lat="44.11354" lon="2.67784">
        <ele>775.92</ele>
        <time>2022-07-13T09:44:02Z</time>
      </trkpt>
      <trkpt lat="44.11351" lon="2.67799">
        <ele>776.4</ele>
        <time>2022-07-13T09:44:04Z</time>
      </trkpt>
      <trkpt lat="44.11348" lon="2.67814">
        <ele>776.4</ele>
        <time>2022-07-13T09:44:06Z</time>
      </trkpt>
      <trkpt lat="44.11344" lon="2.67828">
        <ele>776.88</ele>
        <time>2022-07-13T09:44:08Z</time>
      </trkpt>
      <trkpt lat="44.1134" lon="2.67845">
        <ele>777.84</ele>
        <time>2022-07-13T09:44:11Z</time>
      </trkpt>
      <trkpt lat="44.11335" lon="2.67859">
        <ele>778.32</ele>
        <time>2022-07-13T09:44:14Z</time>
      </trkpt>
      <trkpt lat="44.11329" lon="2.67871">
        <ele>780.25</ele>
        <time>2022-07-13T09:44:21Z</time>
      </trkpt>
      <trkpt lat="44.1132" lon="2.67882">
        <ele>781.21</ele>
        <time>2022-07-13T09:44:30Z</time>
      </trkpt>
      <trkpt lat="44.11309" lon="2.67893">
        <ele>780.73</ele>
        <time>2022-07-13T09:44:41Z</time>
      </trkpt>
      <trkpt lat="44.11297" lon="2.67902">
        <ele>779.29</ele>
        <time>2022-07-13T09:44:51Z</time>
      </trkpt>
      <trkpt lat="44.11285" lon="2.67915">
        <ele>776.88</ele>
        <time>2022-07-13T09:45:00Z</time>
      </trkpt>
      <trkpt lat="44.11274" lon="2.67936">
        <ele>774</ele>
        <time>2022-07-13T09:45:09Z</time>
      </trkpt>
      <trkpt lat="44.11258" lon="2.67972">
        <ele>764.87</ele>
        <time>2022-07-13T09:45:28Z</time>
      </trkpt>
      <trkpt lat="44.11248" lon="2.67999">
        <ele>762.46</ele>
        <time>2022-07-13T09:45:41Z</time>
      </trkpt>
      <trkpt lat="44.11241" lon="2.68014">
        <ele>762.46</ele>
        <time>2022-07-13T09:45:48Z</time>
      </trkpt>
      <trkpt lat="44.11236" lon="2.68028">
        <ele>761.5</ele>
        <time>2022-07-13T09:45:54Z</time>
      </trkpt>
      <trkpt lat="44.11231" lon="2.68043">
        <ele>760.54</ele>
        <time>2022-07-13T09:46:02Z</time>
      </trkpt>
      <trkpt lat="44.11226" lon="2.68061">
        <ele>759.1</ele>
        <time>2022-07-13T09:46:11Z</time>
      </trkpt>
      <trkpt lat="44.11222" lon="2.68077">
        <ele>758.62</ele>
        <time>2022-07-13T09:46:20Z</time>
      </trkpt>
      <trkpt lat="44.11216" lon="2.68097">
        <ele>757.66</ele>
        <time>2022-07-13T09:46:29Z</time>
      </trkpt>
      <trkpt lat="44.11212" lon="2.68111">
        <ele>757.18</ele>
        <time>2022-07-13T09:46:36Z</time>
      </trkpt>
      <trkpt lat="44.11209" lon="2.68127">
        <ele>756.69</ele>
        <time>2022-07-13T09:46:44Z</time>
      </trkpt>
      <trkpt lat="44.11203" lon="2.68141">
        <ele>756.69</ele>
        <time>2022-07-13T09:46:51Z</time>
      </trkpt>
      <trkpt lat="44.11199" lon="2.68155">
        <ele>756.21</ele>
        <time>2022-07-13T09:46:58Z</time>
      </trkpt>
      <trkpt lat="44.11195" lon="2.68171">
        <ele>755.25</ele>
        <time>2022-07-13T09:47:06Z</time>
      </trkpt>
      <trkpt lat="44.11193" lon="2.68188">
        <ele>754.29</ele>
        <time>2022-07-13T09:47:14Z</time>
      </trkpt>
      <trkpt lat="44.11176" lon="2.68266">
        <ele>754.77</ele>
        <time>2022-07-13T09:47:55Z</time>
      </trkpt>
      <trkpt lat="44.11152" lon="2.68247">
        <ele>766.79</ele>
        <time>2022-07-13T09:59:08Z</time>
        <extensions>
          <visugpx:TrkExtension xmlns:visugpx="https://www.visugpx.com/editgpx/">
            <visugpx:node>1</visugpx:node>
            </visugpx:TrkExtension>
        </extensions>
      </trkpt>
      <trkpt lat="44.11146" lon="2.68243">
        <ele>766.4</ele>
      </trkpt>
      <trkpt lat="44.11085" lon="2.68219">
        <ele>769.7</ele>
      </trkpt>
      <trkpt lat="44.11064" lon="2.68217">
        <ele>768.9</ele>
      </trkpt>
      <trkpt lat="44.11056" lon="2.6824">
        <ele>769.6</ele>
      </trkpt>
      <trkpt lat="44.11041" lon="2.6824">
        <ele>768.4</ele>
      </trkpt>
      <trkpt lat="44.11004" lon="2.68227">
        <ele>762.9</ele>
      </trkpt>
      <trkpt lat="44.10949" lon="2.68223">
        <ele>757.5</ele>
      </trkpt>
      <trkpt lat="44.10917" lon="2.68213">
        <ele>754.7</ele>
      </trkpt>
      <trkpt lat="44.1086" lon="2.68184">
        <ele>753.3</ele>
      </trkpt>
      <trkpt lat="44.10823" lon="2.68183">
        <ele>753.7</ele>
      </trkpt>
      <trkpt lat="44.1077" lon="2.68165">
        <ele>752.4</ele>
      </trkpt>
      <trkpt lat="44.10703" lon="2.68122">
        <ele>744.2</ele>
      </trkpt>
      <trkpt lat="44.1067" lon="2.68115">
        <ele>739.5</ele>
      </trkpt>
      <trkpt lat="44.10654" lon="2.68108">
        <ele>737.6</ele>
      </trkpt>
      <trkpt lat="44.10632" lon="2.68094">
        <ele>735.8</ele>
      </trkpt>
      <trkpt lat="44.10607" lon="2.68086">
        <ele>736.4</ele>
      </trkpt>
      <trkpt lat="44.10576" lon="2.68134">
        <ele>735.6</ele>
      </trkpt>
      <trkpt lat="44.10516" lon="2.68215">
        <ele>740.3</ele>
      </trkpt>
      <trkpt lat="44.10511" lon="2.68248">
        <ele>736.7</ele>
      </trkpt>
      <trkpt lat="44.10485" lon="2.68317">
        <ele>730.4</ele>
      </trkpt>
      <trkpt lat="44.10469" lon="2.68362">
        <ele>731</ele>
      </trkpt>
      <trkpt lat="44.10439" lon="2.68381">
        <ele>732.4</ele>
      </trkpt>
      <trkpt lat="44.10436" lon="2.68408">
        <ele>734.3</ele>
      </trkpt>
      <trkpt lat="44.10449" lon="2.68442">
        <ele>735</ele>
        <extensions>
          <visugpx:TrkExtension xmlns:visugpx="https://www.visugpx.com/editgpx/">
            <visugpx:node>2</visugpx:node>
            </visugpx:TrkExtension>
        </extensions>
      </trkpt>
      <trkpt lat="44.10458" lon="2.68566">
        <ele>735.5</ele>
      </trkpt>
      <trkpt lat="44.10449" lon="2.68682">
        <ele>736.5</ele>
      </trkpt>
      <trkpt lat="44.10394" lon="2.68822">
        <ele>735.1</ele>
      </trkpt>
      <trkpt lat="44.10284" lon="2.68908">
        <ele>741.2</ele>
      </trkpt>
      <trkpt lat="44.10173" lon="2.69">
        <ele>741.1</ele>
      </trkpt>
      <trkpt lat="44.10022" lon="2.6915">
        <ele>736.3</ele>
      </trkpt>
      <trkpt lat="44.09945" lon="2.69228">
        <ele>736.8</ele>
      </trkpt>
      <trkpt lat="44.09959" lon="2.69258">
        <ele>734.9</ele>
      </trkpt>
    </trkseg>
  </trk>
  <trk>
    <name><![CDATA[Salles Curant]]></name>
    <extensions>
      <line xmlns="http://www.topografix.com/GPX/gpx_style/0/2">
        <color>0000FF</color>
        <width>4</width>
      </line>
    </extensions>
    <trkseg>
      <trkpt lat="44.10044" lon="2.69288">
        <ele>725.93</ele>
        <time>2022-07-13T11:37:43Z</time>
      </trkpt>
      <trkpt lat="44.10045" lon="2.69281">
        <ele>727.37</ele>
        <time>2022-07-13T11:37:50Z</time>
      </trkpt>
      <trkpt lat="44.09344" lon="2.6972">
        <ele>719.68</ele>
        <time>2022-07-14T05:17:33Z</time>
      </trkpt>
      <trkpt lat="44.09335" lon="2.69725">
        <ele>719.2</ele>
        <time>2022-07-14T05:17:40Z</time>
      </trkpt>
      <trkpt lat="44.09332" lon="2.69741">
        <ele>721.13</ele>
        <time>2022-07-14T05:17:47Z</time>
      </trkpt>
      <trkpt lat="44.09329" lon="2.69755">
        <ele>723.05</ele>
        <time>2022-07-14T05:17:55Z</time>
      </trkpt>
      <trkpt lat="44.09325" lon="2.69766">
        <ele>724.01</ele>
        <time>2022-07-14T05:18:03Z</time>
      </trkpt>
      <trkpt lat="44.09317" lon="2.69774">
        <ele>724.97</ele>
        <time>2022-07-14T05:18:09Z</time>
      </trkpt>
      <trkpt lat="44.0931" lon="2.69784">
        <ele>726.89</ele>
        <time>2022-07-14T05:18:16Z</time>
      </trkpt>
      <trkpt lat="44.09302" lon="2.69792">
        <ele>726.41</ele>
        <time>2022-07-14T05:18:24Z</time>
      </trkpt>
      <trkpt lat="44.09294" lon="2.698">
        <ele>725.93</ele>
        <time>2022-07-14T05:18:32Z</time>
      </trkpt>
      <trkpt lat="44.09285" lon="2.69809">
        <ele>726.41</ele>
        <time>2022-07-14T05:18:41Z</time>
      </trkpt>
      <trkpt lat="44.09276" lon="2.69818">
        <ele>726.41</ele>
        <time>2022-07-14T05:18:49Z</time>
      </trkpt>
      <trkpt lat="44.09268" lon="2.69827">
        <ele>726.89</ele>
        <time>2022-07-14T05:18:56Z</time>
      </trkpt>
      <trkpt lat="44.09259" lon="2.69838">
        <ele>726.41</ele>
        <time>2022-07-14T05:19:05Z</time>
      </trkpt>
      <trkpt lat="44.0925" lon="2.69847">
        <ele>726.41</ele>
        <time>2022-07-14T05:19:14Z</time>
      </trkpt>
      <trkpt lat="44.0924" lon="2.69858">
        <ele>727.37</ele>
        <time>2022-07-14T05:19:25Z</time>
      </trkpt>
      <trkpt lat="44.09229" lon="2.69869">
        <ele>727.37</ele>
        <time>2022-07-14T05:19:34Z</time>
      </trkpt>
      <trkpt lat="44.0922" lon="2.69878">
        <ele>727.86</ele>
        <time>2022-07-14T05:19:42Z</time>
      </trkpt>
      <trkpt lat="44.09211" lon="2.69886">
        <ele>727.86</ele>
        <time>2022-07-14T05:19:50Z</time>
      </trkpt>
      <trkpt lat="44.09202" lon="2.69897">
        <ele>727.86</ele>
        <time>2022-07-14T05:19:59Z</time>
      </trkpt>
      <trkpt lat="44.09193" lon="2.69907">
        <ele>726.89</ele>
        <time>2022-07-14T05:20:08Z</time>
      </trkpt>
      <trkpt lat="44.09183" lon="2.69916">
        <ele>725.93</ele>
        <time>2022-07-14T05:20:17Z</time>
      </trkpt>
      <trkpt lat="44.09174" lon="2.69925">
        <ele>724.01</ele>
        <time>2022-07-14T05:20:25Z</time>
      </trkpt>
      <trkpt lat="44.09164" lon="2.69935">
        <ele>723.05</ele>
        <time>2022-07-14T05:20:33Z</time>
      </trkpt>
      <trkpt lat="44.09155" lon="2.69945">
        <ele>722.57</ele>
        <time>2022-07-14T05:20:41Z</time>
      </trkpt>
      <trkpt lat="44.09146" lon="2.69953">
        <ele>721.61</ele>
        <time>2022-07-14T05:20:50Z</time>
      </trkpt>
      <trkpt lat="44.09137" lon="2.69961">
        <ele>721.13</ele>
        <time>2022-07-14T05:20:58Z</time>
      </trkpt>
      <trkpt lat="44.09128" lon="2.6997">
        <ele>720.16</ele>
        <time>2022-07-14T05:21:05Z</time>
      </trkpt>
      <trkpt lat="44.09119" lon="2.6998">
        <ele>720.16</ele>
        <time>2022-07-14T05:21:14Z</time>
      </trkpt>
      <trkpt lat="44.0911" lon="2.69991">
        <ele>720.65</ele>
        <time>2022-07-14T05:21:22Z</time>
      </trkpt>
      <trkpt lat="44.09105" lon="2.70003">
        <ele>720.65</ele>
        <time>2022-07-14T05:21:29Z</time>
      </trkpt>
      <trkpt lat="44.09109" lon="2.70018">
        <ele>720.65</ele>
        <time>2022-07-14T05:21:37Z</time>
      </trkpt>
      <trkpt lat="44.09111" lon="2.70034">
        <ele>721.13</ele>
        <time>2022-07-14T05:21:45Z</time>
      </trkpt>
      <trkpt lat="44.09113" lon="2.70049">
        <ele>720.65</ele>
        <time>2022-07-14T05:21:53Z</time>
      </trkpt>
      <trkpt lat="44.09114" lon="2.70065">
        <ele>721.13</ele>
        <time>2022-07-14T05:22:02Z</time>
      </trkpt>
      <trkpt lat="44.09117" lon="2.70079">
        <ele>720.65</ele>
        <time>2022-07-14T05:22:10Z</time>
      </trkpt>
      <trkpt lat="44.09119" lon="2.70094">
        <ele>720.65</ele>
        <time>2022-07-14T05:22:18Z</time>
      </trkpt>
      <trkpt lat="44.09121" lon="2.70108">
        <ele>720.65</ele>
        <time>2022-07-14T05:22:26Z</time>
      </trkpt>
      <trkpt lat="44.09123" lon="2.7012">
        <ele>721.61</ele>
        <time>2022-07-14T05:22:34Z</time>
      </trkpt>
      <trkpt lat="44.09126" lon="2.70134">
        <ele>722.09</ele>
        <time>2022-07-14T05:22:42Z</time>
      </trkpt>
      <trkpt lat="44.09127" lon="2.70147">
        <ele>722.57</ele>
        <time>2022-07-14T05:22:50Z</time>
      </trkpt>
      <trkpt lat="44.09128" lon="2.70161">
        <ele>722.09</ele>
        <time>2022-07-14T05:22:57Z</time>
      </trkpt>
      <trkpt lat="44.0913" lon="2.70175">
        <ele>722.09</ele>
        <time>2022-07-14T05:23:05Z</time>
      </trkpt>
      <trkpt lat="44.09132" lon="2.70189">
        <ele>720.65</ele>
        <time>2022-07-14T05:23:13Z</time>
      </trkpt>
      <trkpt lat="44.09133" lon="2.70203">
        <ele>720.16</ele>
        <time>2022-07-14T05:23:21Z</time>
      </trkpt>
      <trkpt lat="44.09134" lon="2.70218">
        <ele>720.65</ele>
        <time>2022-07-14T05:23:29Z</time>
      </trkpt>
      <trkpt lat="44.09134" lon="2.70233">
        <ele>720.65</ele>
        <time>2022-07-14T05:23:36Z</time>
      </trkpt>
      <trkpt lat="44.09136" lon="2.70247">
        <ele>720.16</ele>
        <time>2022-07-14T05:23:43Z</time>
      </trkpt>
      <trkpt lat="44.09138" lon="2.70262">
        <ele>719.68</ele>
        <time>2022-07-14T05:23:53Z</time>
      </trkpt>
      <trkpt lat="44.0914" lon="2.70276">
        <ele>719.68</ele>
        <time>2022-07-14T05:24:02Z</time>
      </trkpt>
      <trkpt lat="44.09142" lon="2.7029">
        <ele>719.2</ele>
        <time>2022-07-14T05:24:11Z</time>
      </trkpt>
      <trkpt lat="44.09143" lon="2.70304">
        <ele>719.2</ele>
        <time>2022-07-14T05:24:20Z</time>
      </trkpt>
      <trkpt lat="44.09145" lon="2.70319">
        <ele>719.68</ele>
        <time>2022-07-14T05:24:29Z</time>
      </trkpt>
      <trkpt lat="44.09147" lon="2.70334">
        <ele>718.72</ele>
        <time>2022-07-14T05:24:39Z</time>
      </trkpt>
      <trkpt lat="44.09148" lon="2.70348">
        <ele>718.24</ele>
        <time>2022-07-14T05:24:48Z</time>
      </trkpt>
      <trkpt lat="44.0915" lon="2.70363">
        <ele>718.24</ele>
        <time>2022-07-14T05:24:56Z</time>
      </trkpt>
      <trkpt lat="44.09151" lon="2.70377">
        <ele>718.24</ele>
        <time>2022-07-14T05:25:04Z</time>
      </trkpt>
      <trkpt lat="44.09153" lon="2.70392">
        <ele>718.24</ele>
        <time>2022-07-14T05:25:12Z</time>
      </trkpt>
      <trkpt lat="44.09154" lon="2.70407">
        <ele>718.24</ele>
        <time>2022-07-14T05:25:20Z</time>
      </trkpt>
      <trkpt lat="44.09156" lon="2.70421">
        <ele>718.24</ele>
        <time>2022-07-14T05:25:30Z</time>
      </trkpt>
      <trkpt lat="44.09157" lon="2.70435">
        <ele>718.24</ele>
        <time>2022-07-14T05:25:38Z</time>
      </trkpt>
      <trkpt lat="44.09164" lon="2.70452">
        <ele>719.68</ele>
        <time>2022-07-14T05:25:55Z</time>
      </trkpt>
      <trkpt lat="44.09169" lon="2.70463">
        <ele>720.16</ele>
        <time>2022-07-14T05:26:02Z</time>
      </trkpt>
      <trkpt lat="44.09175" lon="2.70474">
        <ele>719.68</ele>
        <time>2022-07-14T05:26:09Z</time>
      </trkpt>
      <trkpt lat="44.09184" lon="2.70484">
        <ele>720.65</ele>
        <time>2022-07-14T05:26:18Z</time>
      </trkpt>
      <trkpt lat="44.09193" lon="2.70493">
        <ele>721.61</ele>
        <time>2022-07-14T05:26:27Z</time>
      </trkpt>
      <trkpt lat="44.09202" lon="2.705">
        <ele>723.53</ele>
        <time>2022-07-14T05:26:35Z</time>
      </trkpt>
      <trkpt lat="44.09211" lon="2.7051">
        <ele>726.89</ele>
        <time>2022-07-14T05:26:43Z</time>
      </trkpt>
      <trkpt lat="44.09216" lon="2.70522">
        <ele>728.34</ele>
        <time>2022-07-14T05:26:51Z</time>
      </trkpt>
      <trkpt lat="44.09218" lon="2.70537">
        <ele>728.82</ele>
        <time>2022-07-14T05:26:59Z</time>
      </trkpt>
      <trkpt lat="44.09221" lon="2.70551">
        <ele>729.3</ele>
        <time>2022-07-14T05:27:07Z</time>
      </trkpt>
      <trkpt lat="44.09224" lon="2.70566">
        <ele>729.3</ele>
        <time>2022-07-14T05:27:15Z</time>
      </trkpt>
      <trkpt lat="44.09228" lon="2.70578">
        <ele>728.82</ele>
        <time>2022-07-14T05:27:22Z</time>
      </trkpt>
      <trkpt lat="44.09231" lon="2.70591">
        <ele>727.86</ele>
        <time>2022-07-14T05:27:29Z</time>
      </trkpt>
      <trkpt lat="44.09231" lon="2.70605">
        <ele>726.89</ele>
        <time>2022-07-14T05:27:37Z</time>
      </trkpt>
      <trkpt lat="44.0923" lon="2.70621">
        <ele>726.89</ele>
        <time>2022-07-14T05:27:45Z</time>
      </trkpt>
      <trkpt lat="44.09239" lon="2.70644">
        <ele>726.89</ele>
        <time>2022-07-14T05:28:09Z</time>
      </trkpt>
      <trkpt lat="44.09248" lon="2.7064">
        <ele>726.41</ele>
        <time>2022-07-14T05:28:18Z</time>
      </trkpt>
      <trkpt lat="44.09263" lon="2.7064">
        <ele>727.37</ele>
        <time>2022-07-14T05:28:37Z</time>
      </trkpt>
      <trkpt lat="44.09268" lon="2.70654">
        <ele>729.78</ele>
        <time>2022-07-14T05:28:47Z</time>
      </trkpt>
      <trkpt lat="44.09283" lon="2.70661">
        <ele>732.18</ele>
        <time>2022-07-14T05:29:07Z</time>
      </trkpt>
      <trkpt lat="44.09291" lon="2.70653">
        <ele>733.62</ele>
        <time>2022-07-14T05:29:17Z</time>
      </trkpt>
      <trkpt lat="44.09299" lon="2.70645">
        <ele>738.43</ele>
        <time>2022-07-14T05:29:37Z</time>
      </trkpt>
      <trkpt lat="44.09306" lon="2.70636">
        <ele>738.43</ele>
        <time>2022-07-14T05:29:46Z</time>
      </trkpt>
      <trkpt lat="44.09312" lon="2.70626">
        <ele>737.95</ele>
        <time>2022-07-14T05:29:55Z</time>
      </trkpt>
      <trkpt lat="44.09319" lon="2.70617">
        <ele>737.95</ele>
        <time>2022-07-14T05:30:03Z</time>
      </trkpt>
      <trkpt lat="44.09326" lon="2.70606">
        <ele>738.43</ele>
        <time>2022-07-14T05:30:11Z</time>
      </trkpt>
      <trkpt lat="44.09332" lon="2.70596">
        <ele>738.91</ele>
        <time>2022-07-14T05:30:18Z</time>
      </trkpt>
      <trkpt lat="44.09338" lon="2.70584">
        <ele>738.91</ele>
        <time>2022-07-14T05:30:26Z</time>
      </trkpt>
      <trkpt lat="44.09336" lon="2.7057">
        <ele>738.91</ele>
        <time>2022-07-14T05:30:37Z</time>
      </trkpt>
      <trkpt lat="44.09351" lon="2.70561">
        <ele>736.03</ele>
        <time>2022-07-14T05:32:05Z</time>
      </trkpt>
      <trkpt lat="44.09347" lon="2.70571">
        <ele>737.47</ele>
        <time>2022-07-14T05:34:17Z</time>
      </trkpt>
      <trkpt lat="44.09351" lon="2.70564">
        <ele>736.51</ele>
        <time>2022-07-14T05:34:37Z</time>
      </trkpt>
      <trkpt lat="44.0936" lon="2.70562">
        <ele>736.51</ele>
        <time>2022-07-14T05:34:44Z</time>
      </trkpt>
      <trkpt lat="44.0937" lon="2.70558">
        <ele>736.03</ele>
        <time>2022-07-14T05:34:51Z</time>
      </trkpt>
      <trkpt lat="44.0938" lon="2.70554">
        <ele>736.03</ele>
        <time>2022-07-14T05:34:59Z</time>
      </trkpt>
      <trkpt lat="44.09391" lon="2.70551">
        <ele>735.07</ele>
        <time>2022-07-14T05:35:06Z</time>
      </trkpt>
      <trkpt lat="44.09402" lon="2.70548">
        <ele>734.58</ele>
        <time>2022-07-14T05:35:15Z</time>
      </trkpt>
      <trkpt lat="44.09413" lon="2.70544">
        <ele>734.58</ele>
        <time>2022-07-14T05:35:23Z</time>
      </trkpt>
      <trkpt lat="44.09427" lon="2.70545">
        <ele>736.03</ele>
        <time>2022-07-14T05:35:30Z</time>
      </trkpt>
      <trkpt lat="44.09433" lon="2.70557">
        <ele>737.95</ele>
        <time>2022-07-14T05:35:37Z</time>
      </trkpt>
      <trkpt lat="44.09439" lon="2.70569">
        <ele>738.91</ele>
        <time>2022-07-14T05:35:45Z</time>
      </trkpt>
      <trkpt lat="44.09446" lon="2.70582">
        <ele>739.39</ele>
        <time>2022-07-14T05:35:54Z</time>
      </trkpt>
      <trkpt lat="44.09457" lon="2.70603">
        <ele>739.39</ele>
        <time>2022-07-14T05:36:10Z</time>
      </trkpt>
      <trkpt lat="44.09462" lon="2.70617">
        <ele>739.39</ele>
        <time>2022-07-14T05:36:20Z</time>
      </trkpt>
      <trkpt lat="44.09468" lon="2.70637">
        <ele>738.91</ele>
        <time>2022-07-14T05:36:32Z</time>
      </trkpt>
      <trkpt lat="44.09476" lon="2.70655">
        <ele>737.47</ele>
        <time>2022-07-14T05:36:42Z</time>
      </trkpt>
      <trkpt lat="44.09461" lon="2.7069">
        <ele>733.14</ele>
        <time>2022-07-14T05:37:13Z</time>
      </trkpt>
      <trkpt lat="44.09445" lon="2.70701">
        <ele>731.22</ele>
        <time>2022-07-14T05:37:26Z</time>
      </trkpt>
      <trkpt lat="44.09435" lon="2.70706">
        <ele>731.7</ele>
        <time>2022-07-14T05:37:35Z</time>
      </trkpt>
      <trkpt lat="44.09419" lon="2.70714">
        <ele>738.43</ele>
        <time>2022-07-14T05:37:43Z</time>
      </trkpt>
      <trkpt lat="44.09409" lon="2.70724">
        <ele>745.16</ele>
        <time>2022-07-14T05:37:51Z</time>
      </trkpt>
      <trkpt lat="44.09403" lon="2.7074">
        <ele>746.6</ele>
        <time>2022-07-14T05:38:03Z</time>
      </trkpt>
      <trkpt lat="44.09409" lon="2.70752">
        <ele>748.04</ele>
        <time>2022-07-14T05:38:11Z</time>
      </trkpt>
      <trkpt lat="44.09417" lon="2.70763">
        <ele>748.52</ele>
        <time>2022-07-14T05:38:19Z</time>
      </trkpt>
      <trkpt lat="44.09424" lon="2.70774">
        <ele>749.49</ele>
        <time>2022-07-14T05:38:27Z</time>
      </trkpt>
      <trkpt lat="44.09432" lon="2.70786">
        <ele>749.97</ele>
        <time>2022-07-14T05:38:36Z</time>
      </trkpt>
      <trkpt lat="44.09439" lon="2.70798">
        <ele>749.97</ele>
        <time>2022-07-14T05:38:44Z</time>
      </trkpt>
      <trkpt lat="44.0946" lon="2.70835">
        <ele>752.85</ele>
        <time>2022-07-14T05:39:10Z</time>
      </trkpt>
      <trkpt lat="44.09496" lon="2.7088">
        <ele>756.69</ele>
        <time>2022-07-14T05:39:41Z</time>
      </trkpt>
      <trkpt lat="44.09508" lon="2.70885">
        <ele>756.21</ele>
        <time>2022-07-14T05:39:50Z</time>
      </trkpt>
      <trkpt lat="44.09519" lon="2.70887">
        <ele>756.69</ele>
        <time>2022-07-14T05:39:58Z</time>
      </trkpt>
      <trkpt lat="44.0953" lon="2.70886">
        <ele>757.66</ele>
        <time>2022-07-14T05:40:07Z</time>
      </trkpt>
      <trkpt lat="44.09544" lon="2.70888">
        <ele>757.18</ele>
        <time>2022-07-14T05:40:19Z</time>
      </trkpt>
      <trkpt lat="44.09561" lon="2.70885">
        <ele>755.73</ele>
        <time>2022-07-14T05:40:29Z</time>
      </trkpt>
      <trkpt lat="44.09574" lon="2.70883">
        <ele>755.25</ele>
        <time>2022-07-14T05:40:38Z</time>
      </trkpt>
      <trkpt lat="44.09591" lon="2.70881">
        <ele>753.81</ele>
        <time>2022-07-14T05:40:48Z</time>
      </trkpt>
      <trkpt lat="44.09603" lon="2.70879">
        <ele>752.85</ele>
        <time>2022-07-14T05:40:56Z</time>
      </trkpt>
      <trkpt lat="44.09615" lon="2.70881">
        <ele>752.85</ele>
        <time>2022-07-14T05:41:05Z</time>
      </trkpt>
      <trkpt lat="44.09644" lon="2.70872">
        <ele>732.66</ele>
        <time>2022-07-14T05:44:11Z</time>
      </trkpt>
      <trkpt lat="44.09667" lon="2.7088">
        <ele>730.74</ele>
        <time>2022-07-14T05:44:27Z</time>
      </trkpt>
      <trkpt lat="44.09685" lon="2.70891">
        <ele>729.78</ele>
        <time>2022-07-14T05:44:37Z</time>
      </trkpt>
      <trkpt lat="44.097" lon="2.70903">
        <ele>731.7</ele>
        <time>2022-07-14T05:44:45Z</time>
      </trkpt>
      <trkpt lat="44.09716" lon="2.7091">
        <ele>734.1</ele>
        <time>2022-07-14T05:44:55Z</time>
      </trkpt>
      <trkpt lat="44.0973" lon="2.70914">
        <ele>734.58</ele>
        <time>2022-07-14T05:45:03Z</time>
      </trkpt>
      <trkpt lat="44.09743" lon="2.70919">
        <ele>735.55</ele>
        <time>2022-07-14T05:45:13Z</time>
      </trkpt>
      <trkpt lat="44.09755" lon="2.70923">
        <ele>735.55</ele>
        <time>2022-07-14T05:45:21Z</time>
      </trkpt>
      <trkpt lat="44.09767" lon="2.7093">
        <ele>735.55</ele>
        <time>2022-07-14T05:45:30Z</time>
      </trkpt>
      <trkpt lat="44.0978" lon="2.70938">
        <ele>736.51</ele>
        <time>2022-07-14T05:45:40Z</time>
      </trkpt>
      <trkpt lat="44.09792" lon="2.70947">
        <ele>737.95</ele>
        <time>2022-07-14T05:45:48Z</time>
      </trkpt>
      <trkpt lat="44.09817" lon="2.70961">
        <ele>739.39</ele>
        <time>2022-07-14T05:46:06Z</time>
      </trkpt>
      <trkpt lat="44.09865" lon="2.70994">
        <ele>738.43</ele>
        <time>2022-07-14T05:46:49Z</time>
      </trkpt>
      <trkpt lat="44.09935" lon="2.71015">
        <ele>740.83</ele>
        <time>2022-07-14T05:47:40Z</time>
      </trkpt>
      <trkpt lat="44.09987" lon="2.71013">
        <ele>745.16</ele>
        <time>2022-07-14T05:48:09Z</time>
      </trkpt>
      <trkpt lat="44.10049" lon="2.71005">
        <ele>742.28</ele>
        <time>2022-07-14T05:48:47Z</time>
      </trkpt>
      <trkpt lat="44.10066" lon="2.71003">
        <ele>741.79</ele>
        <time>2022-07-14T05:48:56Z</time>
      </trkpt>
      <trkpt lat="44.10081" lon="2.71001">
        <ele>741.79</ele>
        <time>2022-07-14T05:49:04Z</time>
      </trkpt>
      <trkpt lat="44.10099" lon="2.71004">
        <ele>744.2</ele>
        <time>2022-07-14T05:49:16Z</time>
      </trkpt>
      <trkpt lat="44.10115" lon="2.71008">
        <ele>746.12</ele>
        <time>2022-07-14T05:49:25Z</time>
      </trkpt>
      <trkpt lat="44.10132" lon="2.71012">
        <ele>747.08</ele>
        <time>2022-07-14T05:49:33Z</time>
      </trkpt>
      <trkpt lat="44.10145" lon="2.71016">
        <ele>749</ele>
        <time>2022-07-14T05:49:40Z</time>
      </trkpt>
      <trkpt lat="44.10159" lon="2.71017">
        <ele>751.41</ele>
        <time>2022-07-14T05:49:49Z</time>
      </trkpt>
      <trkpt lat="44.10171" lon="2.7102">
        <ele>752.37</ele>
        <time>2022-07-14T05:49:58Z</time>
      </trkpt>
      <trkpt lat="44.10184" lon="2.71022">
        <ele>752.85</ele>
        <time>2022-07-14T05:50:06Z</time>
      </trkpt>
      <trkpt lat="44.10197" lon="2.71023">
        <ele>753.81</ele>
        <time>2022-07-14T05:50:15Z</time>
      </trkpt>
      <trkpt lat="44.1021" lon="2.71026">
        <ele>754.77</ele>
        <time>2022-07-14T05:50:23Z</time>
      </trkpt>
      <trkpt lat="44.10223" lon="2.71028">
        <ele>756.21</ele>
        <time>2022-07-14T05:50:31Z</time>
      </trkpt>
      <trkpt lat="44.10236" lon="2.71031">
        <ele>755.73</ele>
        <time>2022-07-14T05:50:39Z</time>
      </trkpt>
      <trkpt lat="44.10249" lon="2.71033">
        <ele>754.29</ele>
        <time>2022-07-14T05:50:48Z</time>
      </trkpt>
      <trkpt lat="44.10262" lon="2.71036">
        <ele>754.29</ele>
        <time>2022-07-14T05:50:56Z</time>
      </trkpt>
      <trkpt lat="44.10274" lon="2.71038">
        <ele>756.21</ele>
        <time>2022-07-14T05:51:03Z</time>
      </trkpt>
      <trkpt lat="44.10289" lon="2.71044">
        <ele>758.14</ele>
        <time>2022-07-14T05:51:15Z</time>
      </trkpt>
      <trkpt lat="44.10307" lon="2.71046">
        <ele>758.62</ele>
        <time>2022-07-14T05:51:29Z</time>
      </trkpt>
      <trkpt lat="44.10326" lon="2.71048">
        <ele>757.18</ele>
        <time>2022-07-14T05:51:42Z</time>
      </trkpt>
      <trkpt lat="44.10337" lon="2.71045">
        <ele>757.66</ele>
        <time>2022-07-14T05:51:50Z</time>
      </trkpt>
      <trkpt lat="44.1035" lon="2.71034">
        <ele>759.1</ele>
        <time>2022-07-14T05:51:59Z</time>
      </trkpt>
      <trkpt lat="44.10363" lon="2.71023">
        <ele>759.1</ele>
        <time>2022-07-14T05:52:07Z</time>
      </trkpt>
      <trkpt lat="44.10374" lon="2.71014">
        <ele>759.58</ele>
        <time>2022-07-14T05:52:15Z</time>
      </trkpt>
      <trkpt lat="44.10385" lon="2.71005">
        <ele>759.1</ele>
        <time>2022-07-14T05:52:22Z</time>
      </trkpt>
      <trkpt lat="44.10395" lon="2.70992">
        <ele>758.62</ele>
        <time>2022-07-14T05:52:31Z</time>
      </trkpt>
      <trkpt lat="44.10417" lon="2.70965">
        <ele>760.54</ele>
        <time>2022-07-14T05:52:55Z</time>
      </trkpt>
      <trkpt lat="44.10426" lon="2.70954">
        <ele>761.5</ele>
        <time>2022-07-14T05:53:04Z</time>
      </trkpt>
      <trkpt lat="44.10446" lon="2.70932">
        <ele>763.9</ele>
        <time>2022-07-14T05:53:21Z</time>
      </trkpt>
      <trkpt lat="44.1049" lon="2.70893">
        <ele>765.83</ele>
        <time>2022-07-14T05:54:23Z</time>
      </trkpt>
      <trkpt lat="44.10507" lon="2.70886">
        <ele>769.67</ele>
        <time>2022-07-14T05:54:33Z</time>
      </trkpt>
      <trkpt lat="44.10518" lon="2.70878">
        <ele>773.52</ele>
        <time>2022-07-14T05:54:41Z</time>
      </trkpt>
      <trkpt lat="44.10526" lon="2.70869">
        <ele>774.96</ele>
        <time>2022-07-14T05:54:48Z</time>
      </trkpt>
      <trkpt lat="44.10536" lon="2.70861">
        <ele>776.4</ele>
        <time>2022-07-14T05:54:55Z</time>
      </trkpt>
      <trkpt lat="44.10546" lon="2.70855">
        <ele>777.36</ele>
        <time>2022-07-14T05:55:03Z</time>
      </trkpt>
      <trkpt lat="44.10556" lon="2.7085">
        <ele>776.88</ele>
        <time>2022-07-14T05:55:10Z</time>
      </trkpt>
      <trkpt lat="44.10565" lon="2.70845">
        <ele>775.92</ele>
        <time>2022-07-14T05:55:17Z</time>
      </trkpt>
      <trkpt lat="44.10573" lon="2.70834">
        <ele>774.48</ele>
        <time>2022-07-14T05:55:25Z</time>
      </trkpt>
      <trkpt lat="44.10583" lon="2.70823">
        <ele>772.56</ele>
        <time>2022-07-14T05:55:32Z</time>
      </trkpt>
      <trkpt lat="44.10589" lon="2.70808">
        <ele>772.08</ele>
        <time>2022-07-14T05:55:40Z</time>
      </trkpt>
      <trkpt lat="44.10597" lon="2.70792">
        <ele>769.67</ele>
        <time>2022-07-14T05:55:52Z</time>
      </trkpt>
      <trkpt lat="44.10601" lon="2.7077">
        <ele>766.31</ele>
        <time>2022-07-14T05:56:06Z</time>
      </trkpt>
      <trkpt lat="44.10603" lon="2.70741">
        <ele>764.87</ele>
        <time>2022-07-14T05:56:16Z</time>
      </trkpt>
      <trkpt lat="44.10653" lon="2.70612">
        <ele>759.58</ele>
        <time>2022-07-14T05:57:28Z</time>
      </trkpt>
      <trkpt lat="44.10675" lon="2.70564">
        <ele>765.83</ele>
        <time>2022-07-14T05:57:49Z</time>
      </trkpt>
      <trkpt lat="44.10687" lon="2.70525">
        <ele>765.83</ele>
        <time>2022-07-14T05:58:12Z</time>
      </trkpt>
      <trkpt lat="44.10692" lon="2.70501">
        <ele>767.75</ele>
        <time>2022-07-14T05:58:21Z</time>
      </trkpt>
      <trkpt lat="44.10699" lon="2.70481">
        <ele>767.27</ele>
        <time>2022-07-14T05:58:29Z</time>
      </trkpt>
      <trkpt lat="44.10703" lon="2.70467">
        <ele>765.83</ele>
        <time>2022-07-14T05:58:36Z</time>
      </trkpt>
      <trkpt lat="44.10706" lon="2.70453">
        <ele>765.35</ele>
        <time>2022-07-14T05:58:42Z</time>
      </trkpt>
      <trkpt lat="44.10711" lon="2.70437">
        <ele>764.39</ele>
        <time>2022-07-14T05:58:49Z</time>
      </trkpt>
      <trkpt lat="44.10714" lon="2.70418">
        <ele>764.87</ele>
        <time>2022-07-14T05:58:56Z</time>
      </trkpt>
      <trkpt lat="44.1072" lon="2.70403">
        <ele>763.9</ele>
        <time>2022-07-14T05:59:05Z</time>
      </trkpt>
      <trkpt lat="44.10724" lon="2.70389">
        <ele>761.98</ele>
        <time>2022-07-14T05:59:13Z</time>
      </trkpt>
      <trkpt lat="44.10728" lon="2.70376">
        <ele>760.54</ele>
        <time>2022-07-14T05:59:21Z</time>
      </trkpt>
      <trkpt lat="44.10733" lon="2.70364">
        <ele>759.58</ele>
        <time>2022-07-14T05:59:27Z</time>
      </trkpt>
      <trkpt lat="44.10738" lon="2.70351">
        <ele>759.1</ele>
        <time>2022-07-14T05:59:33Z</time>
      </trkpt>
      <trkpt lat="44.10743" lon="2.70339">
        <ele>758.62</ele>
        <time>2022-07-14T05:59:39Z</time>
      </trkpt>
      <trkpt lat="44.1075" lon="2.70325">
        <ele>758.62</ele>
        <time>2022-07-14T05:59:46Z</time>
      </trkpt>
      <trkpt lat="44.10755" lon="2.70307">
        <ele>759.58</ele>
        <time>2022-07-14T05:59:53Z</time>
      </trkpt>
      <trkpt lat="44.10761" lon="2.70293">
        <ele>760.06</ele>
        <time>2022-07-14T06:00:00Z</time>
      </trkpt>
      <trkpt lat="44.10767" lon="2.70281">
        <ele>760.06</ele>
        <time>2022-07-14T06:00:06Z</time>
      </trkpt>
      <trkpt lat="44.10773" lon="2.70271">
        <ele>759.58</ele>
        <time>2022-07-14T06:00:12Z</time>
      </trkpt>
      <trkpt lat="44.1078" lon="2.70259">
        <ele>759.1</ele>
        <time>2022-07-14T06:00:19Z</time>
      </trkpt>
      <trkpt lat="44.10786" lon="2.70244">
        <ele>759.1</ele>
        <time>2022-07-14T06:00:26Z</time>
      </trkpt>
      <trkpt lat="44.10792" lon="2.70232">
        <ele>758.62</ele>
        <time>2022-07-14T06:00:32Z</time>
      </trkpt>
      <trkpt lat="44.10796" lon="2.70219">
        <ele>758.14</ele>
        <time>2022-07-14T06:00:38Z</time>
      </trkpt>
      <trkpt lat="44.108" lon="2.70206">
        <ele>757.66</ele>
        <time>2022-07-14T06:00:44Z</time>
      </trkpt>
      <trkpt lat="44.10804" lon="2.70192">
        <ele>757.66</ele>
        <time>2022-07-14T06:00:51Z</time>
      </trkpt>
      <trkpt lat="44.10809" lon="2.70179">
        <ele>756.69</ele>
        <time>2022-07-14T06:00:58Z</time>
      </trkpt>
      <trkpt lat="44.10814" lon="2.70166">
        <ele>756.21</ele>
        <time>2022-07-14T06:01:05Z</time>
      </trkpt>
      <trkpt lat="44.10818" lon="2.70154">
        <ele>756.21</ele>
        <time>2022-07-14T06:01:11Z</time>
      </trkpt>
      <trkpt lat="44.10823" lon="2.70142">
        <ele>755.73</ele>
        <time>2022-07-14T06:01:17Z</time>
      </trkpt>
      <trkpt lat="44.10826" lon="2.70129">
        <ele>755.25</ele>
        <time>2022-07-14T06:01:23Z</time>
      </trkpt>
      <trkpt lat="44.1083" lon="2.70118">
        <ele>754.77</ele>
        <time>2022-07-14T06:01:29Z</time>
      </trkpt>
      <trkpt lat="44.10837" lon="2.70105">
        <ele>753.33</ele>
        <time>2022-07-14T06:01:36Z</time>
      </trkpt>
      <trkpt lat="44.10842" lon="2.70093">
        <ele>752.37</ele>
        <time>2022-07-14T06:01:42Z</time>
      </trkpt>
      <trkpt lat="44.10846" lon="2.70081">
        <ele>750.93</ele>
        <time>2022-07-14T06:01:48Z</time>
      </trkpt>
      <trkpt lat="44.1085" lon="2.7007">
        <ele>749.97</ele>
        <time>2022-07-14T06:01:55Z</time>
      </trkpt>
      <trkpt lat="44.10855" lon="2.70057">
        <ele>748.52</ele>
        <time>2022-07-14T06:02:02Z</time>
      </trkpt>
      <trkpt lat="44.10859" lon="2.70045">
        <ele>747.56</ele>
        <time>2022-07-14T06:02:08Z</time>
      </trkpt>
      <trkpt lat="44.10863" lon="2.70032">
        <ele>746.12</ele>
        <time>2022-07-14T06:02:15Z</time>
      </trkpt>
      <trkpt lat="44.10868" lon="2.70018">
        <ele>744.68</ele>
        <time>2022-07-14T06:02:22Z</time>
      </trkpt>
      <trkpt lat="44.10872" lon="2.70004">
        <ele>743.72</ele>
        <time>2022-07-14T06:02:28Z</time>
      </trkpt>
      <trkpt lat="44.10875" lon="2.69991">
        <ele>742.28</ele>
        <time>2022-07-14T06:02:34Z</time>
      </trkpt>
      <trkpt lat="44.10879" lon="2.69978">
        <ele>740.83</ele>
        <time>2022-07-14T06:02:40Z</time>
      </trkpt>
      <trkpt lat="44.10882" lon="2.69962">
        <ele>738.91</ele>
        <time>2022-07-14T06:02:48Z</time>
      </trkpt>
      <trkpt lat="44.10888" lon="2.6995">
        <ele>736.99</ele>
        <time>2022-07-14T06:02:57Z</time>
      </trkpt>
      <trkpt lat="44.10903" lon="2.69944">
        <ele>734.1</ele>
        <time>2022-07-14T06:03:07Z</time>
      </trkpt>
      <trkpt lat="44.10917" lon="2.69939">
        <ele>732.66</ele>
        <time>2022-07-14T06:03:14Z</time>
      </trkpt>
      <trkpt lat="44.1093" lon="2.6994">
        <ele>732.18</ele>
        <time>2022-07-14T06:03:21Z</time>
      </trkpt>
      <trkpt lat="44.10941" lon="2.69941">
        <ele>731.22</ele>
        <time>2022-07-14T06:03:28Z</time>
      </trkpt>
      <trkpt lat="44.10954" lon="2.69943">
        <ele>731.22</ele>
        <time>2022-07-14T06:03:36Z</time>
      </trkpt>
      <trkpt lat="44.10968" lon="2.69947">
        <ele>731.7</ele>
        <time>2022-07-14T06:03:43Z</time>
      </trkpt>
      <trkpt lat="44.10978" lon="2.6995">
        <ele>730.26</ele>
        <time>2022-07-14T06:03:52Z</time>
      </trkpt>
      <trkpt lat="44.10989" lon="2.69953">
        <ele>729.78</ele>
        <time>2022-07-14T06:03:59Z</time>
      </trkpt>
      <trkpt lat="44.11001" lon="2.69958">
        <ele>729.78</ele>
        <time>2022-07-14T06:04:06Z</time>
      </trkpt>
      <trkpt lat="44.11015" lon="2.69967">
        <ele>729.78</ele>
        <time>2022-07-14T06:04:14Z</time>
      </trkpt>
      <trkpt lat="44.11024" lon="2.69976">
        <ele>728.34</ele>
        <time>2022-07-14T06:04:21Z</time>
      </trkpt>
      <trkpt lat="44.11033" lon="2.69986">
        <ele>727.37</ele>
        <time>2022-07-14T06:04:30Z</time>
      </trkpt>
      <trkpt lat="44.11041" lon="2.70001">
        <ele>727.37</ele>
        <time>2022-07-14T06:04:39Z</time>
      </trkpt>
      <trkpt lat="44.11049" lon="2.70013">
        <ele>726.41</ele>
        <time>2022-07-14T06:04:47Z</time>
      </trkpt>
      <trkpt lat="44.11058" lon="2.70028">
        <ele>726.41</ele>
        <time>2022-07-14T06:04:56Z</time>
      </trkpt>
      <trkpt lat="44.1107" lon="2.70043">
        <ele>726.89</ele>
        <time>2022-07-14T06:05:05Z</time>
      </trkpt>
      <trkpt lat="44.11083" lon="2.70048">
        <ele>726.41</ele>
        <time>2022-07-14T06:05:12Z</time>
      </trkpt>
      <trkpt lat="44.11094" lon="2.7005">
        <ele>725.93</ele>
        <time>2022-07-14T06:05:19Z</time>
      </trkpt>
      <trkpt lat="44.11103" lon="2.70048">
        <ele>725.93</ele>
        <time>2022-07-14T06:05:26Z</time>
      </trkpt>
      <trkpt lat="44.11114" lon="2.70043">
        <ele>725.93</ele>
        <time>2022-07-14T06:05:33Z</time>
      </trkpt>
      <trkpt lat="44.11124" lon="2.70039">
        <ele>728.34</ele>
        <time>2022-07-14T06:05:39Z</time>
      </trkpt>
      <trkpt lat="44.11134" lon="2.70033">
        <ele>729.3</ele>
        <time>2022-07-14T06:05:46Z</time>
      </trkpt>
      <trkpt lat="44.11143" lon="2.70028">
        <ele>729.3</ele>
        <time>2022-07-14T06:05:53Z</time>
      </trkpt>
      <trkpt lat="44.11154" lon="2.70025">
        <ele>728.82</ele>
        <time>2022-07-14T06:06:04Z</time>
      </trkpt>
      <trkpt lat="44.11163" lon="2.70024">
        <ele>727.86</ele>
        <time>2022-07-14T06:06:12Z</time>
      </trkpt>
      <trkpt lat="44.11174" lon="2.70021">
        <ele>727.37</ele>
        <time>2022-07-14T06:06:19Z</time>
      </trkpt>
      <trkpt lat="44.11182" lon="2.70013">
        <ele>728.34</ele>
        <time>2022-07-14T06:06:26Z</time>
      </trkpt>
      <trkpt lat="44.11191" lon="2.70008">
        <ele>728.34</ele>
        <time>2022-07-14T06:06:33Z</time>
      </trkpt>
      <trkpt lat="44.11199" lon="2.70002">
        <ele>728.82</ele>
        <time>2022-07-14T06:06:40Z</time>
      </trkpt>
      <trkpt lat="44.11211" lon="2.7">
        <ele>728.82</ele>
        <time>2022-07-14T06:06:47Z</time>
      </trkpt>
      <trkpt lat="44.11221" lon="2.69998">
        <ele>729.78</ele>
        <time>2022-07-14T06:06:54Z</time>
      </trkpt>
      <trkpt lat="44.11232" lon="2.69995">
        <ele>730.74</ele>
        <time>2022-07-14T06:07:01Z</time>
      </trkpt>
      <trkpt lat="44.11244" lon="2.69991">
        <ele>733.14</ele>
        <time>2022-07-14T06:07:08Z</time>
      </trkpt>
      <trkpt lat="44.11253" lon="2.69991">
        <ele>734.58</ele>
        <time>2022-07-14T06:07:15Z</time>
      </trkpt>
      <trkpt lat="44.11263" lon="2.69994">
        <ele>735.55</ele>
        <time>2022-07-14T06:07:24Z</time>
      </trkpt>
      <trkpt lat="44.11275" lon="2.70004">
        <ele>735.55</ele>
        <time>2022-07-14T06:07:33Z</time>
      </trkpt>
      <trkpt lat="44.11286" lon="2.70008">
        <ele>736.03</ele>
        <time>2022-07-14T06:07:41Z</time>
      </trkpt>
      <trkpt lat="44.113" lon="2.70013">
        <ele>736.03</ele>
        <time>2022-07-14T06:07:50Z</time>
      </trkpt>
      <trkpt lat="44.11309" lon="2.70026">
        <ele>735.55</ele>
        <time>2022-07-14T06:07:58Z</time>
      </trkpt>
      <trkpt lat="44.11316" lon="2.70037">
        <ele>734.58</ele>
        <time>2022-07-14T06:08:05Z</time>
      </trkpt>
      <trkpt lat="44.11323" lon="2.70047">
        <ele>734.1</ele>
        <time>2022-07-14T06:08:11Z</time>
      </trkpt>
      <trkpt lat="44.11331" lon="2.70056">
        <ele>734.1</ele>
        <time>2022-07-14T06:08:17Z</time>
      </trkpt>
      <trkpt lat="44.11339" lon="2.70067">
        <ele>734.1</ele>
        <time>2022-07-14T06:08:24Z</time>
      </trkpt>
      <trkpt lat="44.11347" lon="2.70078">
        <ele>735.07</ele>
        <time>2022-07-14T06:08:32Z</time>
      </trkpt>
      <trkpt lat="44.11358" lon="2.70089">
        <ele>736.03</ele>
        <time>2022-07-14T06:08:41Z</time>
      </trkpt>
      <trkpt lat="44.11369" lon="2.701">
        <ele>736.51</ele>
        <time>2022-07-14T06:08:51Z</time>
      </trkpt>
      <trkpt lat="44.11378" lon="2.7011">
        <ele>736.51</ele>
        <time>2022-07-14T06:09:00Z</time>
      </trkpt>
      <trkpt lat="44.11385" lon="2.70122">
        <ele>736.99</ele>
        <time>2022-07-14T06:09:08Z</time>
      </trkpt>
      <trkpt lat="44.11388" lon="2.70144">
        <ele>738.43</ele>
        <time>2022-07-14T06:09:22Z</time>
      </trkpt>
      <trkpt lat="44.11391" lon="2.70159">
        <ele>739.39</ele>
        <time>2022-07-14T06:09:29Z</time>
      </trkpt>
      <trkpt lat="44.11391" lon="2.70174">
        <ele>740.83</ele>
        <time>2022-07-14T06:09:36Z</time>
      </trkpt>
      <trkpt lat="44.11389" lon="2.70188">
        <ele>741.31</ele>
        <time>2022-07-14T06:09:44Z</time>
      </trkpt>
      <trkpt lat="44.11396" lon="2.70202">
        <ele>740.83</ele>
        <time>2022-07-14T06:09:51Z</time>
      </trkpt>
      <trkpt lat="44.11404" lon="2.70214">
        <ele>740.83</ele>
        <time>2022-07-14T06:09:58Z</time>
      </trkpt>
      <trkpt lat="44.11413" lon="2.70226">
        <ele>740.83</ele>
        <time>2022-07-14T06:10:05Z</time>
      </trkpt>
      <trkpt lat="44.11421" lon="2.7024">
        <ele>740.83</ele>
        <time>2022-07-14T06:10:13Z</time>
      </trkpt>
      <trkpt lat="44.11435" lon="2.70257">
        <ele>740.35</ele>
        <time>2022-07-14T06:10:25Z</time>
      </trkpt>
      <trkpt lat="44.11447" lon="2.70258">
        <ele>739.87</ele>
        <time>2022-07-14T06:10:32Z</time>
      </trkpt>
      <trkpt lat="44.11457" lon="2.70257">
        <ele>738.91</ele>
        <time>2022-07-14T06:10:39Z</time>
      </trkpt>
      <trkpt lat="44.11475" lon="2.70259">
        <ele>738.91</ele>
        <time>2022-07-14T06:10:53Z</time>
      </trkpt>
      <trkpt lat="44.11487" lon="2.70264">
        <ele>740.35</ele>
        <time>2022-07-14T06:11:03Z</time>
      </trkpt>
      <trkpt lat="44.115" lon="2.70267">
        <ele>740.83</ele>
        <time>2022-07-14T06:11:12Z</time>
      </trkpt>
      <trkpt lat="44.11516" lon="2.70271">
        <ele>742.28</ele>
        <time>2022-07-14T06:11:21Z</time>
      </trkpt>
      <trkpt lat="44.11546" lon="2.70285">
        <ele>743.72</ele>
        <time>2022-07-14T06:11:46Z</time>
      </trkpt>
      <trkpt lat="44.11566" lon="2.70293">
        <ele>746.12</ele>
        <time>2022-07-14T06:11:55Z</time>
      </trkpt>
      <trkpt lat="44.11584" lon="2.70303">
        <ele>749.97</ele>
        <time>2022-07-14T06:12:07Z</time>
      </trkpt>
      <trkpt lat="44.11628" lon="2.7032">
        <ele>757.18</ele>
        <time>2022-07-14T06:12:41Z</time>
      </trkpt>
      <trkpt lat="44.11642" lon="2.70324">
        <ele>760.54</ele>
        <time>2022-07-14T06:12:48Z</time>
      </trkpt>
      <trkpt lat="44.11657" lon="2.70334">
        <ele>764.39</ele>
        <time>2022-07-14T06:12:56Z</time>
      </trkpt>
      <trkpt lat="44.1167" lon="2.70341">
        <ele>766.79</ele>
        <time>2022-07-14T06:13:02Z</time>
      </trkpt>
      <trkpt lat="44.11681" lon="2.70347">
        <ele>768.71</ele>
        <time>2022-07-14T06:13:09Z</time>
      </trkpt>
      <trkpt lat="44.1169" lon="2.70353">
        <ele>770.63</ele>
        <time>2022-07-14T06:13:16Z</time>
      </trkpt>
      <trkpt lat="44.11701" lon="2.70358">
        <ele>773.04</ele>
        <time>2022-07-14T06:13:24Z</time>
      </trkpt>
      <trkpt lat="44.11712" lon="2.70362">
        <ele>775.44</ele>
        <time>2022-07-14T06:13:31Z</time>
      </trkpt>
      <trkpt lat="44.11723" lon="2.70363">
        <ele>778.81</ele>
        <time>2022-07-14T06:13:39Z</time>
      </trkpt>
      <trkpt lat="44.11734" lon="2.70364">
        <ele>781.21</ele>
        <time>2022-07-14T06:13:46Z</time>
      </trkpt>
      <trkpt lat="44.11744" lon="2.70369">
        <ele>784.09</ele>
        <time>2022-07-14T06:13:54Z</time>
      </trkpt>
      <trkpt lat="44.11756" lon="2.70369">
        <ele>785.05</ele>
        <time>2022-07-14T06:14:02Z</time>
      </trkpt>
      <trkpt lat="44.11767" lon="2.70366">
        <ele>786.02</ele>
        <time>2022-07-14T06:14:09Z</time>
      </trkpt>
      <trkpt lat="44.11778" lon="2.70362">
        <ele>787.46</ele>
        <time>2022-07-14T06:14:17Z</time>
      </trkpt>
      <trkpt lat="44.11844" lon="2.70337">
        <ele>784.57</ele>
        <time>2022-07-14T06:15:08Z</time>
      </trkpt>
      <trkpt lat="44.11909" lon="2.70342">
        <ele>789.38</ele>
        <time>2022-07-14T06:15:48Z</time>
      </trkpt>
      <trkpt lat="44.11927" lon="2.70349">
        <ele>791.78</ele>
        <time>2022-07-14T06:15:57Z</time>
      </trkpt>
      <trkpt lat="44.11938" lon="2.70357">
        <ele>792.74</ele>
        <time>2022-07-14T06:16:06Z</time>
      </trkpt>
      <trkpt lat="44.11957" lon="2.70352">
        <ele>801.88</ele>
        <time>2022-07-14T06:16:40Z</time>
      </trkpt>
      <trkpt lat="44.11966" lon="2.70348">
        <ele>802.36</ele>
        <time>2022-07-14T06:16:47Z</time>
      </trkpt>
      <trkpt lat="44.11976" lon="2.70347">
        <ele>803.32</ele>
        <time>2022-07-14T06:16:55Z</time>
      </trkpt>
      <trkpt lat="44.11986" lon="2.70348">
        <ele>803.8</ele>
        <time>2022-07-14T06:17:03Z</time>
      </trkpt>
      <trkpt lat="44.11997" lon="2.70346">
        <ele>804.28</ele>
        <time>2022-07-14T06:17:11Z</time>
      </trkpt>
      <trkpt lat="44.12007" lon="2.70342">
        <ele>803.8</ele>
        <time>2022-07-14T06:17:18Z</time>
      </trkpt>
      <trkpt lat="44.12018" lon="2.7034">
        <ele>803.8</ele>
        <time>2022-07-14T06:17:25Z</time>
      </trkpt>
      <trkpt lat="44.12029" lon="2.70337">
        <ele>803.32</ele>
        <time>2022-07-14T06:17:32Z</time>
      </trkpt>
      <trkpt lat="44.12039" lon="2.70335">
        <ele>802.36</ele>
        <time>2022-07-14T06:17:39Z</time>
      </trkpt>
      <trkpt lat="44.12049" lon="2.70331">
        <ele>801.4</ele>
        <time>2022-07-14T06:17:46Z</time>
      </trkpt>
      <trkpt lat="44.12061" lon="2.70329">
        <ele>799.95</ele>
        <time>2022-07-14T06:17:54Z</time>
      </trkpt>
      <trkpt lat="44.1207" lon="2.70335">
        <ele>798.99</ele>
        <time>2022-07-14T06:18:03Z</time>
      </trkpt>
      <trkpt lat="44.12077" lon="2.70345">
        <ele>799.95</ele>
        <time>2022-07-14T06:18:11Z</time>
      </trkpt>
      <trkpt lat="44.12077" lon="2.70358">
        <ele>800.92</ele>
        <time>2022-07-14T06:18:20Z</time>
      </trkpt>
      <trkpt lat="44.12069" lon="2.70365">
        <ele>801.88</ele>
        <time>2022-07-14T06:18:26Z</time>
      </trkpt>
      <trkpt lat="44.1206" lon="2.70371">
        <ele>803.32</ele>
        <time>2022-07-14T06:18:34Z</time>
      </trkpt>
      <trkpt lat="44.12041" lon="2.7041">
        <ele>800.44</ele>
        <time>2022-07-14T06:19:03Z</time>
      </trkpt>
      <trkpt lat="44.12042" lon="2.70429">
        <ele>797.55</ele>
        <time>2022-07-14T06:19:12Z</time>
      </trkpt>
      <trkpt lat="44.12045" lon="2.70445">
        <ele>797.07</ele>
        <time>2022-07-14T06:19:20Z</time>
      </trkpt>
      <trkpt lat="44.12053" lon="2.70468">
        <ele>795.63</ele>
        <time>2022-07-14T06:19:34Z</time>
      </trkpt>
      <trkpt lat="44.12065" lon="2.70487">
        <ele>794.67</ele>
        <time>2022-07-14T06:19:48Z</time>
      </trkpt>
      <trkpt lat="44.12118" lon="2.70541">
        <ele>795.63</ele>
        <time>2022-07-14T06:20:37Z</time>
      </trkpt>
      <trkpt lat="44.12148" lon="2.70553">
        <ele>797.55</ele>
        <time>2022-07-14T06:20:50Z</time>
      </trkpt>
      <trkpt lat="44.12165" lon="2.70553">
        <ele>797.55</ele>
        <time>2022-07-14T06:20:54Z</time>
      </trkpt>
      <trkpt lat="44.1218" lon="2.70553">
        <ele>798.51</ele>
        <time>2022-07-14T06:20:58Z</time>
      </trkpt>
      <trkpt lat="44.12192" lon="2.70552">
        <ele>799.47</ele>
        <time>2022-07-14T06:21:01Z</time>
      </trkpt>
      <trkpt lat="44.12202" lon="2.70552">
        <ele>801.4</ele>
        <time>2022-07-14T06:21:04Z</time>
      </trkpt>
      <trkpt lat="44.12216" lon="2.70551">
        <ele>803.32</ele>
        <time>2022-07-14T06:21:08Z</time>
      </trkpt>
      <trkpt lat="44.12229" lon="2.7055">
        <ele>805.72</ele>
        <time>2022-07-14T06:21:12Z</time>
      </trkpt>
      <trkpt lat="44.12244" lon="2.70547">
        <ele>807.64</ele>
        <time>2022-07-14T06:21:16Z</time>
      </trkpt>
      <trkpt lat="44.12255" lon="2.70543">
        <ele>808.61</ele>
        <time>2022-07-14T06:21:19Z</time>
      </trkpt>
      <trkpt lat="44.12265" lon="2.70539">
        <ele>810.05</ele>
        <time>2022-07-14T06:21:22Z</time>
      </trkpt>
      <trkpt lat="44.12277" lon="2.70535">
        <ele>811.49</ele>
        <time>2022-07-14T06:21:26Z</time>
      </trkpt>
      <trkpt lat="44.12287" lon="2.70529">
        <ele>812.45</ele>
        <time>2022-07-14T06:21:30Z</time>
      </trkpt>
      <trkpt lat="44.12298" lon="2.70523">
        <ele>814.85</ele>
        <time>2022-07-14T06:21:37Z</time>
      </trkpt>
      <trkpt lat="44.12312" lon="2.70519">
        <ele>817.26</ele>
        <time>2022-07-14T06:21:44Z</time>
      </trkpt>
      <trkpt lat="44.12325" lon="2.70513">
        <ele>821.58</ele>
        <time>2022-07-14T06:21:52Z</time>
      </trkpt>
      <trkpt lat="44.12336" lon="2.70509">
        <ele>825.43</ele>
        <time>2022-07-14T06:22:01Z</time>
      </trkpt>
      <trkpt lat="44.12348" lon="2.70506">
        <ele>828.31</ele>
        <time>2022-07-14T06:22:10Z</time>
      </trkpt>
      <trkpt lat="44.1236" lon="2.70502">
        <ele>831.2</ele>
        <time>2022-07-14T06:22:18Z</time>
      </trkpt>
      <trkpt lat="44.12376" lon="2.70499">
        <ele>834.56</ele>
        <time>2022-07-14T06:22:27Z</time>
      </trkpt>
      <trkpt lat="44.12387" lon="2.70495">
        <ele>836.96</ele>
        <time>2022-07-14T06:22:36Z</time>
      </trkpt>
      <trkpt lat="44.124" lon="2.70493">
        <ele>837.93</ele>
        <time>2022-07-14T06:22:44Z</time>
      </trkpt>
      <trkpt lat="44.12414" lon="2.70492">
        <ele>838.41</ele>
        <time>2022-07-14T06:22:51Z</time>
      </trkpt>
      <trkpt lat="44.12426" lon="2.70492">
        <ele>837.45</ele>
        <time>2022-07-14T06:22:58Z</time>
      </trkpt>
      <trkpt lat="44.12445" lon="2.70492">
        <ele>834.56</ele>
        <time>2022-07-14T06:23:11Z</time>
      </trkpt>
      <trkpt lat="44.12465" lon="2.70493">
        <ele>832.64</ele>
        <time>2022-07-14T06:23:26Z</time>
      </trkpt>
      <trkpt lat="44.12475" lon="2.70488">
        <ele>832.16</ele>
        <time>2022-07-14T06:23:34Z</time>
      </trkpt>
      <trkpt lat="44.12488" lon="2.70495">
        <ele>836</ele>
        <time>2022-07-14T06:23:42Z</time>
      </trkpt>
      <trkpt lat="44.12502" lon="2.70501">
        <ele>840.81</ele>
        <time>2022-07-14T06:23:53Z</time>
      </trkpt>
      <trkpt lat="44.12512" lon="2.70508">
        <ele>844.66</ele>
        <time>2022-07-14T06:24:03Z</time>
      </trkpt>
      <trkpt lat="44.12523" lon="2.70512">
        <ele>846.58</ele>
        <time>2022-07-14T06:24:12Z</time>
      </trkpt>
      <trkpt lat="44.1254" lon="2.70514">
        <ele>848.98</ele>
        <time>2022-07-14T06:24:26Z</time>
      </trkpt>
      <trkpt lat="44.1256" lon="2.70516">
        <ele>849.94</ele>
        <time>2022-07-14T06:24:33Z</time>
      </trkpt>
      <trkpt lat="44.12585" lon="2.70522">
        <ele>850.9</ele>
        <time>2022-07-14T06:24:39Z</time>
      </trkpt>
      <trkpt lat="44.12602" lon="2.70527">
        <ele>848.5</ele>
        <time>2022-07-14T06:24:45Z</time>
      </trkpt>
      <trkpt lat="44.12626" lon="2.70528">
        <ele>847.06</ele>
        <time>2022-07-14T06:24:57Z</time>
      </trkpt>
      <trkpt lat="44.12645" lon="2.70524">
        <ele>844.66</ele>
        <time>2022-07-14T06:25:09Z</time>
      </trkpt>
      <trkpt lat="44.12657" lon="2.70523">
        <ele>844.66</ele>
        <time>2022-07-14T06:25:18Z</time>
      </trkpt>
      <trkpt lat="44.12677" lon="2.70499">
        <ele>842.73</ele>
        <time>2022-07-14T06:25:44Z</time>
      </trkpt>
      <trkpt lat="44.12675" lon="2.70477">
        <ele>843.21</ele>
        <time>2022-07-14T06:25:54Z</time>
      </trkpt>
      <trkpt lat="44.12675" lon="2.70446">
        <ele>842.25</ele>
        <time>2022-07-14T06:26:05Z</time>
      </trkpt>
      <trkpt lat="44.12674" lon="2.70427">
        <ele>841.29</ele>
        <time>2022-07-14T06:26:12Z</time>
      </trkpt>
      <trkpt lat="44.12674" lon="2.7041">
        <ele>841.29</ele>
        <time>2022-07-14T06:26:18Z</time>
      </trkpt>
      <trkpt lat="44.12681" lon="2.70395">
        <ele>840.33</ele>
        <time>2022-07-14T06:26:26Z</time>
      </trkpt>
      <trkpt lat="44.12692" lon="2.70386">
        <ele>841.29</ele>
        <time>2022-07-14T06:26:33Z</time>
      </trkpt>
      <trkpt lat="44.12706" lon="2.70378">
        <ele>841.29</ele>
        <time>2022-07-14T06:26:38Z</time>
      </trkpt>
      <trkpt lat="44.12721" lon="2.70367">
        <ele>843.21</ele>
        <time>2022-07-14T06:26:46Z</time>
      </trkpt>
      <trkpt lat="44.12735" lon="2.70358">
        <ele>845.62</ele>
        <time>2022-07-14T06:26:54Z</time>
      </trkpt>
      <trkpt lat="44.12749" lon="2.70356">
        <ele>847.06</ele>
        <time>2022-07-14T06:27:00Z</time>
      </trkpt>
      <trkpt lat="44.12763" lon="2.70357">
        <ele>848.98</ele>
        <time>2022-07-14T06:27:08Z</time>
      </trkpt>
      <trkpt lat="44.12812" lon="2.70351">
        <ele>851.38</ele>
        <time>2022-07-14T06:27:46Z</time>
      </trkpt>
      <trkpt lat="44.12834" lon="2.70344">
        <ele>853.79</ele>
        <time>2022-07-14T06:27:55Z</time>
      </trkpt>
      <trkpt lat="44.1301" lon="2.70299">
        <ele>869.65</ele>
        <time>2022-07-14T06:30:05Z</time>
      </trkpt>
      <trkpt lat="44.13036" lon="2.70263">
        <ele>871.09</ele>
        <time>2022-07-14T06:30:30Z</time>
      </trkpt>
      <trkpt lat="44.13045" lon="2.7025">
        <ele>870.13</ele>
        <time>2022-07-14T06:30:40Z</time>
      </trkpt>
      <trkpt lat="44.13066" lon="2.7023">
        <ele>874.94</ele>
        <time>2022-07-14T06:30:54Z</time>
      </trkpt>
      <trkpt lat="44.13082" lon="2.7023">
        <ele>879.74</ele>
        <time>2022-07-14T06:34:02Z</time>
      </trkpt>
      <trkpt lat="44.13094" lon="2.70225">
        <ele>879.26</ele>
        <time>2022-07-14T06:34:09Z</time>
      </trkpt>
      <trkpt lat="44.13104" lon="2.70222">
        <ele>878.3</ele>
        <time>2022-07-14T06:34:16Z</time>
      </trkpt>
      <trkpt lat="44.13115" lon="2.7022">
        <ele>877.82</ele>
        <time>2022-07-14T06:34:24Z</time>
      </trkpt>
      <trkpt lat="44.13126" lon="2.70216">
        <ele>876.86</ele>
        <time>2022-07-14T06:34:31Z</time>
      </trkpt>
      <trkpt lat="44.13136" lon="2.70218">
        <ele>877.34</ele>
        <time>2022-07-14T06:34:38Z</time>
      </trkpt>
      <trkpt lat="44.13148" lon="2.70221">
        <ele>876.38</ele>
        <time>2022-07-14T06:34:46Z</time>
      </trkpt>
      <trkpt lat="44.13158" lon="2.70224">
        <ele>876.86</ele>
        <time>2022-07-14T06:34:53Z</time>
      </trkpt>
      <trkpt lat="44.1317" lon="2.70229">
        <ele>877.82</ele>
        <time>2022-07-14T06:35:01Z</time>
      </trkpt>
      <trkpt lat="44.13179" lon="2.70234">
        <ele>878.78</ele>
        <time>2022-07-14T06:35:09Z</time>
      </trkpt>
      <trkpt lat="44.1319" lon="2.70242">
        <ele>878.78</ele>
        <time>2022-07-14T06:35:16Z</time>
      </trkpt>
      <trkpt lat="44.132" lon="2.70251">
        <ele>879.26</ele>
        <time>2022-07-14T06:35:23Z</time>
      </trkpt>
      <trkpt lat="44.1321" lon="2.7026">
        <ele>880.22</ele>
        <time>2022-07-14T06:35:31Z</time>
      </trkpt>
      <trkpt lat="44.1322" lon="2.70269">
        <ele>881.19</ele>
        <time>2022-07-14T06:35:39Z</time>
      </trkpt>
      <trkpt lat="44.1323" lon="2.70272">
        <ele>882.15</ele>
        <time>2022-07-14T06:35:47Z</time>
      </trkpt>
      <trkpt lat="44.13241" lon="2.70272">
        <ele>882.15</ele>
        <time>2022-07-14T06:35:55Z</time>
      </trkpt>
      <trkpt lat="44.13252" lon="2.70269">
        <ele>882.63</ele>
        <time>2022-07-14T06:36:02Z</time>
      </trkpt>
      <trkpt lat="44.13263" lon="2.70262">
        <ele>882.63</ele>
        <time>2022-07-14T06:36:09Z</time>
      </trkpt>
      <trkpt lat="44.13273" lon="2.70253">
        <ele>883.11</ele>
        <time>2022-07-14T06:36:17Z</time>
      </trkpt>
      <trkpt lat="44.13282" lon="2.70245">
        <ele>883.59</ele>
        <time>2022-07-14T06:36:26Z</time>
      </trkpt>
      <trkpt lat="44.13284" lon="2.70222">
        <ele>885.03</ele>
        <time>2022-07-14T06:36:43Z</time>
      </trkpt>
      <trkpt lat="44.13279" lon="2.70209">
        <ele>885.51</ele>
        <time>2022-07-14T06:36:49Z</time>
      </trkpt>
      <trkpt lat="44.13276" lon="2.70197">
        <ele>885.51</ele>
        <time>2022-07-14T06:36:55Z</time>
      </trkpt>
      <trkpt lat="44.13274" lon="2.70184">
        <ele>885.51</ele>
        <time>2022-07-14T06:37:02Z</time>
      </trkpt>
      <trkpt lat="44.13269" lon="2.70168">
        <ele>886.47</ele>
        <time>2022-07-14T06:37:09Z</time>
      </trkpt>
      <trkpt lat="44.13265" lon="2.70156">
        <ele>886.47</ele>
        <time>2022-07-14T06:37:15Z</time>
      </trkpt>
      <trkpt lat="44.13262" lon="2.70143">
        <ele>886.95</ele>
        <time>2022-07-14T06:37:21Z</time>
      </trkpt>
      <trkpt lat="44.13257" lon="2.70128">
        <ele>887.43</ele>
        <time>2022-07-14T06:37:29Z</time>
      </trkpt>
      <trkpt lat="44.13255" lon="2.70112">
        <ele>887.43</ele>
        <time>2022-07-14T06:37:37Z</time>
      </trkpt>
      <trkpt lat="44.13247" lon="2.70097">
        <ele>887.43</ele>
        <time>2022-07-14T06:37:44Z</time>
      </trkpt>
      <trkpt lat="44.13241" lon="2.70084">
        <ele>887.43</ele>
        <time>2022-07-14T06:37:51Z</time>
      </trkpt>
      <trkpt lat="44.13239" lon="2.70067">
        <ele>887.43</ele>
        <time>2022-07-14T06:38:00Z</time>
      </trkpt>
      <trkpt lat="44.13226" lon="2.70046">
        <ele>887.91</ele>
        <time>2022-07-14T06:38:13Z</time>
      </trkpt>
      <trkpt lat="44.13212" lon="2.70035">
        <ele>888.88</ele>
        <time>2022-07-14T06:38:22Z</time>
      </trkpt>
      <trkpt lat="44.13199" lon="2.70027">
        <ele>891.28</ele>
        <time>2022-07-14T06:38:32Z</time>
      </trkpt>
      <trkpt lat="44.13181" lon="2.70014">
        <ele>891.76</ele>
        <time>2022-07-14T06:38:45Z</time>
      </trkpt>
      <trkpt lat="44.13166" lon="2.69996">
        <ele>890.32</ele>
        <time>2022-07-14T06:38:58Z</time>
      </trkpt>
      <trkpt lat="44.13155" lon="2.69981">
        <ele>890.8</ele>
        <time>2022-07-14T06:39:07Z</time>
      </trkpt>
      <trkpt lat="44.1314" lon="2.69962">
        <ele>891.76</ele>
        <time>2022-07-14T06:39:19Z</time>
      </trkpt>
      <trkpt lat="44.13132" lon="2.6995">
        <ele>893.68</ele>
        <time>2022-07-14T06:39:28Z</time>
      </trkpt>
      <trkpt lat="44.13126" lon="2.69924">
        <ele>901.85</ele>
        <time>2022-07-14T06:41:41Z</time>
      </trkpt>
      <trkpt lat="44.13117" lon="2.69915">
        <ele>902.82</ele>
        <time>2022-07-14T06:41:52Z</time>
      </trkpt>
      <trkpt lat="44.13125" lon="2.69898">
        <ele>907.62</ele>
        <time>2022-07-14T06:42:19Z</time>
      </trkpt>
      <trkpt lat="44.13138" lon="2.69906">
        <ele>909.06</ele>
        <time>2022-07-14T06:42:34Z</time>
      </trkpt>
      <trkpt lat="44.1315" lon="2.69903">
        <ele>911.47</ele>
        <time>2022-07-14T06:42:47Z</time>
      </trkpt>
      <trkpt lat="44.13166" lon="2.69909">
        <ele>916.27</ele>
        <time>2022-07-14T06:46:24Z</time>
      </trkpt>
      <trkpt lat="44.1318" lon="2.69928">
        <ele>916.75</ele>
        <time>2022-07-14T06:47:08Z</time>
      </trkpt>
      <trkpt lat="44.13189" lon="2.69937">
        <ele>915.79</ele>
        <time>2022-07-14T06:47:18Z</time>
      </trkpt>
      <trkpt lat="44.13198" lon="2.69943">
        <ele>914.83</ele>
        <time>2022-07-14T06:47:27Z</time>
      </trkpt>
      <trkpt lat="44.13206" lon="2.6995">
        <ele>914.35</ele>
        <time>2022-07-14T06:47:36Z</time>
      </trkpt>
      <trkpt lat="44.13216" lon="2.69972">
        <ele>912.91</ele>
        <time>2022-07-14T06:52:36Z</time>
      </trkpt>
      <trkpt lat="44.13219" lon="2.69992">
        <ele>910.99</ele>
        <time>2022-07-14T06:52:51Z</time>
      </trkpt>
      <trkpt lat="44.13235" lon="2.70038">
        <ele>905.22</ele>
        <time>2022-07-14T06:53:22Z</time>
      </trkpt>
      <trkpt lat="44.13241" lon="2.70054">
        <ele>901.85</ele>
        <time>2022-07-14T06:53:32Z</time>
      </trkpt>
      <trkpt lat="44.13261" lon="2.70099">
        <ele>895.12</ele>
        <time>2022-07-14T06:53:59Z</time>
      </trkpt>
      <trkpt lat="44.13268" lon="2.70116">
        <ele>895.61</ele>
        <time>2022-07-14T06:54:09Z</time>
      </trkpt>
      <trkpt lat="44.13279" lon="2.7013">
        <ele>899.45</ele>
        <time>2022-07-14T06:54:22Z</time>
      </trkpt>
      <trkpt lat="44.13291" lon="2.70142">
        <ele>899.45</ele>
        <time>2022-07-14T06:54:36Z</time>
      </trkpt>
      <trkpt lat="44.13296" lon="2.70156">
        <ele>899.93</ele>
        <time>2022-07-14T06:54:46Z</time>
      </trkpt>
      <trkpt lat="44.13302" lon="2.70177">
        <ele>899.45</ele>
        <time>2022-07-14T06:54:58Z</time>
      </trkpt>
      <trkpt lat="44.13307" lon="2.70196">
        <ele>899.93</ele>
        <time>2022-07-14T06:55:08Z</time>
      </trkpt>
      <trkpt lat="44.13319" lon="2.70211">
        <ele>898.97</ele>
        <time>2022-07-14T06:55:20Z</time>
      </trkpt>
      <trkpt lat="44.13326" lon="2.70224">
        <ele>895.61</ele>
        <time>2022-07-14T06:55:32Z</time>
      </trkpt>
      <trkpt lat="44.13335" lon="2.70236">
        <ele>894.64</ele>
        <time>2022-07-14T06:55:42Z</time>
      </trkpt>
      <trkpt lat="44.13368" lon="2.70266">
        <ele>890.8</ele>
        <time>2022-07-14T06:56:54Z</time>
      </trkpt>
      <trkpt lat="44.1338" lon="2.70278">
        <ele>886.47</ele>
        <time>2022-07-14T06:57:06Z</time>
      </trkpt>
      <trkpt lat="44.13424" lon="2.70297">
        <ele>879.74</ele>
        <time>2022-07-14T06:57:46Z</time>
      </trkpt>
      <trkpt lat="44.13434" lon="2.70296">
        <ele>878.3</ele>
        <time>2022-07-14T06:57:54Z</time>
      </trkpt>
      <trkpt lat="44.13447" lon="2.70293">
        <ele>877.82</ele>
        <time>2022-07-14T06:58:05Z</time>
      </trkpt>
      <trkpt lat="44.13455" lon="2.70285">
        <ele>875.9</ele>
        <time>2022-07-14T06:58:15Z</time>
      </trkpt>
      <trkpt lat="44.1346" lon="2.70274">
        <ele>874.46</ele>
        <time>2022-07-14T06:58:24Z</time>
      </trkpt>
      <trkpt lat="44.13472" lon="2.7027">
        <ele>874.46</ele>
        <time>2022-07-14T06:58:33Z</time>
      </trkpt>
      <trkpt lat="44.13483" lon="2.7027">
        <ele>872.53</ele>
        <time>2022-07-14T06:58:42Z</time>
      </trkpt>
      <trkpt lat="44.13492" lon="2.70277">
        <ele>872.05</ele>
        <time>2022-07-14T06:58:50Z</time>
      </trkpt>
      <trkpt lat="44.13502" lon="2.7028">
        <ele>872.05</ele>
        <time>2022-07-14T06:58:59Z</time>
      </trkpt>
      <trkpt lat="44.13513" lon="2.70278">
        <ele>872.05</ele>
        <time>2022-07-14T06:59:07Z</time>
      </trkpt>
      <trkpt lat="44.13524" lon="2.7028">
        <ele>873.01</ele>
        <time>2022-07-14T06:59:15Z</time>
      </trkpt>
      <trkpt lat="44.13533" lon="2.7028">
        <ele>872.53</ele>
        <time>2022-07-14T06:59:22Z</time>
      </trkpt>
      <trkpt lat="44.13543" lon="2.70279">
        <ele>872.53</ele>
        <time>2022-07-14T06:59:30Z</time>
      </trkpt>
      <trkpt lat="44.13554" lon="2.70278">
        <ele>873.98</ele>
        <time>2022-07-14T06:59:38Z</time>
      </trkpt>
      <trkpt lat="44.13564" lon="2.70276">
        <ele>873.01</ele>
        <time>2022-07-14T06:59:46Z</time>
      </trkpt>
      <trkpt lat="44.13574" lon="2.70275">
        <ele>872.05</ele>
        <time>2022-07-14T06:59:54Z</time>
      </trkpt>
      <trkpt lat="44.13585" lon="2.70279">
        <ele>870.61</ele>
        <time>2022-07-14T07:00:02Z</time>
      </trkpt>
      <trkpt lat="44.13595" lon="2.70278">
        <ele>870.61</ele>
        <time>2022-07-14T07:00:09Z</time>
      </trkpt>
      <trkpt lat="44.13604" lon="2.70275">
        <ele>870.13</ele>
        <time>2022-07-14T07:00:16Z</time>
      </trkpt>
      <trkpt lat="44.13614" lon="2.70273">
        <ele>869.65</ele>
        <time>2022-07-14T07:00:24Z</time>
      </trkpt>
      <trkpt lat="44.13624" lon="2.70273">
        <ele>868.69</ele>
        <time>2022-07-14T07:00:31Z</time>
      </trkpt>
      <trkpt lat="44.13634" lon="2.70267">
        <ele>868.21</ele>
        <time>2022-07-14T07:00:39Z</time>
      </trkpt>
      <trkpt lat="44.13643" lon="2.70263">
        <ele>866.77</ele>
        <time>2022-07-14T07:00:46Z</time>
      </trkpt>
      <trkpt lat="44.13653" lon="2.70258">
        <ele>865.8</ele>
        <time>2022-07-14T07:00:54Z</time>
      </trkpt>
      <trkpt lat="44.13661" lon="2.70253">
        <ele>864.84</ele>
        <time>2022-07-14T07:01:01Z</time>
      </trkpt>
      <trkpt lat="44.13672" lon="2.70248">
        <ele>864.36</ele>
        <time>2022-07-14T07:01:09Z</time>
      </trkpt>
      <trkpt lat="44.13682" lon="2.70242">
        <ele>864.36</ele>
        <time>2022-07-14T07:01:17Z</time>
      </trkpt>
      <trkpt lat="44.13692" lon="2.70236">
        <ele>863.4</ele>
        <time>2022-07-14T07:01:25Z</time>
      </trkpt>
      <trkpt lat="44.13703" lon="2.70231">
        <ele>862.92</ele>
        <time>2022-07-14T07:01:33Z</time>
      </trkpt>
      <trkpt lat="44.13713" lon="2.70227">
        <ele>862.92</ele>
        <time>2022-07-14T07:01:41Z</time>
      </trkpt>
      <trkpt lat="44.13723" lon="2.70223">
        <ele>862.92</ele>
        <time>2022-07-14T07:01:49Z</time>
      </trkpt>
      <trkpt lat="44.13733" lon="2.70225">
        <ele>862.92</ele>
        <time>2022-07-14T07:01:57Z</time>
      </trkpt>
      <trkpt lat="44.13745" lon="2.70227">
        <ele>862.92</ele>
        <time>2022-07-14T07:02:05Z</time>
      </trkpt>
      <trkpt lat="44.13755" lon="2.70235">
        <ele>862.92</ele>
        <time>2022-07-14T07:02:13Z</time>
      </trkpt>
      <trkpt lat="44.13764" lon="2.70246">
        <ele>863.4</ele>
        <time>2022-07-14T07:02:21Z</time>
      </trkpt>
      <trkpt lat="44.13765" lon="2.70262">
        <ele>862.92</ele>
        <time>2022-07-14T07:02:30Z</time>
      </trkpt>
      <trkpt lat="44.13767" lon="2.7028">
        <ele>863.88</ele>
        <time>2022-07-14T07:02:39Z</time>
      </trkpt>
      <trkpt lat="44.13767" lon="2.70281">
        <ele>860.04</ele>
        <time>2022-07-14T07:04:10Z</time>
      </trkpt>
      <trkpt lat="44.13768" lon="2.70301">
        <ele>859.08</ele>
        <time>2022-07-14T07:04:27Z</time>
      </trkpt>
      <trkpt lat="44.13777" lon="2.70309">
        <ele>860.04</ele>
        <time>2022-07-14T07:04:36Z</time>
      </trkpt>
      <trkpt lat="44.13788" lon="2.70305">
        <ele>861</ele>
        <time>2022-07-14T07:04:43Z</time>
      </trkpt>
      <trkpt lat="44.13797" lon="2.70299">
        <ele>861.96</ele>
        <time>2022-07-14T07:04:50Z</time>
      </trkpt>
      <trkpt lat="44.13805" lon="2.70292">
        <ele>863.4</ele>
        <time>2022-07-14T07:04:57Z</time>
      </trkpt>
      <trkpt lat="44.13813" lon="2.70286">
        <ele>863.88</ele>
        <time>2022-07-14T07:05:04Z</time>
      </trkpt>
      <trkpt lat="44.13822" lon="2.7028">
        <ele>864.36</ele>
        <time>2022-07-14T07:05:11Z</time>
      </trkpt>
      <trkpt lat="44.13831" lon="2.70274">
        <ele>864.84</ele>
        <time>2022-07-14T07:05:18Z</time>
      </trkpt>
      <trkpt lat="44.1384" lon="2.70269">
        <ele>865.32</ele>
        <time>2022-07-14T07:05:25Z</time>
      </trkpt>
      <trkpt lat="44.13849" lon="2.70267">
        <ele>866.29</ele>
        <time>2022-07-14T07:05:33Z</time>
      </trkpt>
      <trkpt lat="44.1386" lon="2.70266">
        <ele>867.25</ele>
        <time>2022-07-14T07:05:40Z</time>
      </trkpt>
      <trkpt lat="44.1387" lon="2.70265">
        <ele>867.73</ele>
        <time>2022-07-14T07:05:47Z</time>
      </trkpt>
      <trkpt lat="44.13881" lon="2.70264">
        <ele>868.21</ele>
        <time>2022-07-14T07:05:55Z</time>
      </trkpt>
      <trkpt lat="44.13892" lon="2.70263">
        <ele>868.69</ele>
        <time>2022-07-14T07:06:03Z</time>
      </trkpt>
      <trkpt lat="44.13902" lon="2.70262">
        <ele>869.17</ele>
        <time>2022-07-14T07:06:10Z</time>
      </trkpt>
      <trkpt lat="44.13912" lon="2.70263">
        <ele>870.13</ele>
        <time>2022-07-14T07:06:17Z</time>
      </trkpt>
      <trkpt lat="44.13922" lon="2.70264">
        <ele>870.61</ele>
        <time>2022-07-14T07:06:24Z</time>
      </trkpt>
      <trkpt lat="44.13932" lon="2.70267">
        <ele>871.09</ele>
        <time>2022-07-14T07:06:31Z</time>
      </trkpt>
      <trkpt lat="44.13942" lon="2.7027">
        <ele>871.57</ele>
        <time>2022-07-14T07:06:38Z</time>
      </trkpt>
      <trkpt lat="44.13952" lon="2.70272">
        <ele>872.05</ele>
        <time>2022-07-14T07:06:45Z</time>
      </trkpt>
      <trkpt lat="44.13962" lon="2.70275">
        <ele>872.53</ele>
        <time>2022-07-14T07:06:52Z</time>
      </trkpt>
      <trkpt lat="44.13974" lon="2.70277">
        <ele>872.53</ele>
        <time>2022-07-14T07:06:59Z</time>
      </trkpt>
      <trkpt lat="44.13985" lon="2.7028">
        <ele>872.53</ele>
        <time>2022-07-14T07:07:07Z</time>
      </trkpt>
      <trkpt lat="44.13994" lon="2.70287">
        <ele>873.01</ele>
        <time>2022-07-14T07:07:14Z</time>
      </trkpt>
      <trkpt lat="44.14003" lon="2.70299">
        <ele>873.98</ele>
        <time>2022-07-14T07:07:21Z</time>
      </trkpt>
      <trkpt lat="44.14007" lon="2.70313">
        <ele>874.46</ele>
        <time>2022-07-14T07:07:29Z</time>
      </trkpt>
      <trkpt lat="44.14012" lon="2.70329">
        <ele>874.94</ele>
        <time>2022-07-14T07:07:37Z</time>
      </trkpt>
      <trkpt lat="44.14014" lon="2.70346">
        <ele>874.94</ele>
        <time>2022-07-14T07:07:46Z</time>
      </trkpt>
      <trkpt lat="44.14019" lon="2.70364">
        <ele>876.38</ele>
        <time>2022-07-14T07:07:55Z</time>
      </trkpt>
      <trkpt lat="44.14023" lon="2.70379">
        <ele>876.86</ele>
        <time>2022-07-14T07:08:03Z</time>
      </trkpt>
      <trkpt lat="44.14038" lon="2.70394">
        <ele>877.34</ele>
        <time>2022-07-14T07:08:20Z</time>
      </trkpt>
      <trkpt lat="44.14051" lon="2.70397">
        <ele>878.78</ele>
        <time>2022-07-14T07:08:28Z</time>
      </trkpt>
      <trkpt lat="44.14062" lon="2.70401">
        <ele>879.74</ele>
        <time>2022-07-14T07:08:36Z</time>
      </trkpt>
      <trkpt lat="44.14072" lon="2.70405">
        <ele>879.74</ele>
        <time>2022-07-14T07:08:45Z</time>
      </trkpt>
      <trkpt lat="44.14081" lon="2.70411">
        <ele>881.19</ele>
        <time>2022-07-14T07:08:54Z</time>
      </trkpt>
      <trkpt lat="44.14093" lon="2.70421">
        <ele>884.55</ele>
        <time>2022-07-14T07:09:03Z</time>
      </trkpt>
      <trkpt lat="44.14101" lon="2.70432">
        <ele>885.03</ele>
        <time>2022-07-14T07:09:11Z</time>
      </trkpt>
      <trkpt lat="44.14111" lon="2.70443">
        <ele>885.51</ele>
        <time>2022-07-14T07:09:20Z</time>
      </trkpt>
      <trkpt lat="44.14121" lon="2.70454">
        <ele>886.47</ele>
        <time>2022-07-14T07:09:28Z</time>
      </trkpt>
      <trkpt lat="44.14134" lon="2.70466">
        <ele>887.91</ele>
        <time>2022-07-14T07:09:40Z</time>
      </trkpt>
      <trkpt lat="44.14146" lon="2.70473">
        <ele>888.4</ele>
        <time>2022-07-14T07:09:47Z</time>
      </trkpt>
      <trkpt lat="44.14157" lon="2.70479">
        <ele>889.36</ele>
        <time>2022-07-14T07:09:55Z</time>
      </trkpt>
      <trkpt lat="44.14168" lon="2.70483">
        <ele>890.32</ele>
        <time>2022-07-14T07:10:03Z</time>
      </trkpt>
      <trkpt lat="44.14182" lon="2.70492">
        <ele>887.91</ele>
        <time>2022-07-14T07:10:10Z</time>
      </trkpt>
      <trkpt lat="44.14193" lon="2.70497">
        <ele>883.11</ele>
        <time>2022-07-14T07:10:17Z</time>
      </trkpt>
      <trkpt lat="44.14204" lon="2.70498">
        <ele>881.67</ele>
        <time>2022-07-14T07:10:24Z</time>
      </trkpt>
      <trkpt lat="44.14216" lon="2.70497">
        <ele>879.74</ele>
        <time>2022-07-14T07:10:32Z</time>
      </trkpt>
      <trkpt lat="44.14226" lon="2.70493">
        <ele>879.26</ele>
        <time>2022-07-14T07:10:39Z</time>
      </trkpt>
      <trkpt lat="44.14234" lon="2.70481">
        <ele>879.26</ele>
        <time>2022-07-14T07:10:47Z</time>
      </trkpt>
      <trkpt lat="44.14239" lon="2.70467">
        <ele>879.26</ele>
        <time>2022-07-14T07:10:54Z</time>
      </trkpt>
      <trkpt lat="44.14243" lon="2.70454">
        <ele>878.78</ele>
        <time>2022-07-14T07:11:01Z</time>
      </trkpt>
      <trkpt lat="44.14245" lon="2.7044">
        <ele>878.3</ele>
        <time>2022-07-14T07:11:08Z</time>
      </trkpt>
      <trkpt lat="44.14247" lon="2.70425">
        <ele>878.3</ele>
        <time>2022-07-14T07:11:16Z</time>
      </trkpt>
      <trkpt lat="44.14246" lon="2.70412">
        <ele>878.3</ele>
        <time>2022-07-14T07:11:23Z</time>
      </trkpt>
      <trkpt lat="44.14247" lon="2.70397">
        <ele>878.78</ele>
        <time>2022-07-14T07:11:30Z</time>
      </trkpt>
      <trkpt lat="44.14246" lon="2.70382">
        <ele>878.3</ele>
        <time>2022-07-14T07:11:37Z</time>
      </trkpt>
      <trkpt lat="44.14245" lon="2.70367">
        <ele>878.3</ele>
        <time>2022-07-14T07:11:45Z</time>
      </trkpt>
      <trkpt lat="44.14246" lon="2.70352">
        <ele>877.82</ele>
        <time>2022-07-14T07:11:53Z</time>
      </trkpt>
      <trkpt lat="44.14247" lon="2.70337">
        <ele>877.34</ele>
        <time>2022-07-14T07:12:00Z</time>
      </trkpt>
      <trkpt lat="44.14247" lon="2.70322">
        <ele>876.86</ele>
        <time>2022-07-14T07:12:07Z</time>
      </trkpt>
      <trkpt lat="44.14245" lon="2.70308">
        <ele>876.86</ele>
        <time>2022-07-14T07:12:14Z</time>
      </trkpt>
      <trkpt lat="44.14245" lon="2.70293">
        <ele>876.38</ele>
        <time>2022-07-14T07:12:21Z</time>
      </trkpt>
      <trkpt lat="44.14252" lon="2.70287">
        <ele>878.78</ele>
        <time>2022-07-14T07:12:29Z</time>
      </trkpt>
      <trkpt lat="44.14261" lon="2.70282">
        <ele>879.74</ele>
        <time>2022-07-14T07:12:36Z</time>
      </trkpt>
      <trkpt lat="44.1427" lon="2.70275">
        <ele>880.71</ele>
        <time>2022-07-14T07:12:44Z</time>
      </trkpt>
      <trkpt lat="44.14279" lon="2.70267">
        <ele>881.67</ele>
        <time>2022-07-14T07:12:51Z</time>
      </trkpt>
      <trkpt lat="44.14286" lon="2.70255">
        <ele>883.59</ele>
        <time>2022-07-14T07:12:59Z</time>
      </trkpt>
      <trkpt lat="44.14296" lon="2.70246">
        <ele>885.51</ele>
        <time>2022-07-14T07:13:09Z</time>
      </trkpt>
      <trkpt lat="44.14309" lon="2.70245">
        <ele>885.99</ele>
        <time>2022-07-14T07:13:18Z</time>
      </trkpt>
      <trkpt lat="44.14321" lon="2.70257">
        <ele>886.95</ele>
        <time>2022-07-14T07:13:29Z</time>
      </trkpt>
      <trkpt lat="44.14326" lon="2.70271">
        <ele>887.91</ele>
        <time>2022-07-14T07:13:37Z</time>
      </trkpt>
      <trkpt lat="44.14334" lon="2.70283">
        <ele>886.95</ele>
        <time>2022-07-14T07:13:44Z</time>
      </trkpt>
      <trkpt lat="44.14342" lon="2.70295">
        <ele>886.95</ele>
        <time>2022-07-14T07:13:51Z</time>
      </trkpt>
      <trkpt lat="44.1435" lon="2.70305">
        <ele>887.91</ele>
        <time>2022-07-14T07:13:58Z</time>
      </trkpt>
      <trkpt lat="44.14359" lon="2.70313">
        <ele>888.4</ele>
        <time>2022-07-14T07:14:05Z</time>
      </trkpt>
      <trkpt lat="44.1437" lon="2.70319">
        <ele>887.91</ele>
        <time>2022-07-14T07:14:13Z</time>
      </trkpt>
      <trkpt lat="44.14379" lon="2.70318">
        <ele>887.91</ele>
        <time>2022-07-14T07:14:20Z</time>
      </trkpt>
      <trkpt lat="44.14389" lon="2.70313">
        <ele>887.91</ele>
        <time>2022-07-14T07:14:28Z</time>
      </trkpt>
      <trkpt lat="44.14399" lon="2.7031">
        <ele>888.88</ele>
        <time>2022-07-14T07:14:35Z</time>
      </trkpt>
      <trkpt lat="44.14414" lon="2.70304">
        <ele>889.84</ele>
        <time>2022-07-14T07:14:47Z</time>
      </trkpt>
      <trkpt lat="44.14439" lon="2.70287">
        <ele>893.2</ele>
        <time>2022-07-14T07:15:04Z</time>
      </trkpt>
      <trkpt lat="44.14489" lon="2.70294">
        <ele>897.53</ele>
        <time>2022-07-14T07:15:38Z</time>
      </trkpt>
      <trkpt lat="44.14504" lon="2.7031">
        <ele>898.97</ele>
        <time>2022-07-14T07:15:52Z</time>
      </trkpt>
      <trkpt lat="44.14515" lon="2.70322">
        <ele>899.45</ele>
        <time>2022-07-14T07:16:01Z</time>
      </trkpt>
      <trkpt lat="44.1453" lon="2.70343">
        <ele>900.41</ele>
        <time>2022-07-14T07:16:15Z</time>
      </trkpt>
      <trkpt lat="44.14543" lon="2.7036">
        <ele>899.93</ele>
        <time>2022-07-14T07:16:27Z</time>
      </trkpt>
      <trkpt lat="44.14552" lon="2.70371">
        <ele>898.49</ele>
        <time>2022-07-14T07:16:36Z</time>
      </trkpt>
      <trkpt lat="44.14567" lon="2.70376">
        <ele>898.01</ele>
        <time>2022-07-14T07:16:45Z</time>
      </trkpt>
      <trkpt lat="44.14581" lon="2.70382">
        <ele>899.93</ele>
        <time>2022-07-14T07:16:54Z</time>
      </trkpt>
      <trkpt lat="44.14592" lon="2.70384">
        <ele>900.89</ele>
        <time>2022-07-14T07:17:02Z</time>
      </trkpt>
      <trkpt lat="44.14604" lon="2.70389">
        <ele>902.82</ele>
        <time>2022-07-14T07:17:10Z</time>
      </trkpt>
      <trkpt lat="44.14616" lon="2.70393">
        <ele>903.78</ele>
        <time>2022-07-14T07:17:18Z</time>
      </trkpt>
      <trkpt lat="44.14629" lon="2.70398">
        <ele>906.66</ele>
        <time>2022-07-14T07:17:27Z</time>
      </trkpt>
      <trkpt lat="44.14643" lon="2.70402">
        <ele>907.62</ele>
        <time>2022-07-14T07:17:36Z</time>
      </trkpt>
      <trkpt lat="44.14657" lon="2.70407">
        <ele>909.06</ele>
        <time>2022-07-14T07:17:44Z</time>
      </trkpt>
      <trkpt lat="44.14669" lon="2.70411">
        <ele>910.51</ele>
        <time>2022-07-14T07:17:53Z</time>
      </trkpt>
      <trkpt lat="44.14682" lon="2.70416">
        <ele>911.95</ele>
        <time>2022-07-14T07:18:01Z</time>
      </trkpt>
      <trkpt lat="44.14694" lon="2.70423">
        <ele>912.91</ele>
        <time>2022-07-14T07:18:10Z</time>
      </trkpt>
      <trkpt lat="44.14706" lon="2.70431">
        <ele>914.83</ele>
        <time>2022-07-14T07:18:19Z</time>
      </trkpt>
      <trkpt lat="44.14718" lon="2.70439">
        <ele>916.27</ele>
        <time>2022-07-14T07:18:28Z</time>
      </trkpt>
      <trkpt lat="44.14732" lon="2.70446">
        <ele>916.27</ele>
        <time>2022-07-14T07:18:37Z</time>
      </trkpt>
      <trkpt lat="44.14741" lon="2.70459">
        <ele>917.72</ele>
        <time>2022-07-14T07:18:45Z</time>
      </trkpt>
      <trkpt lat="44.14763" lon="2.7047">
        <ele>917.72</ele>
        <time>2022-07-14T07:19:00Z</time>
      </trkpt>
      <trkpt lat="44.14774" lon="2.7047">
        <ele>918.2</ele>
        <time>2022-07-14T07:19:07Z</time>
      </trkpt>
      <trkpt lat="44.14788" lon="2.70469">
        <ele>918.68</ele>
        <time>2022-07-14T07:19:12Z</time>
      </trkpt>
      <trkpt lat="44.14803" lon="2.70471">
        <ele>920.12</ele>
        <time>2022-07-14T07:19:21Z</time>
      </trkpt>
      <trkpt lat="44.14818" lon="2.70473">
        <ele>920.12</ele>
        <time>2022-07-14T07:19:30Z</time>
      </trkpt>
      <trkpt lat="44.14829" lon="2.70474">
        <ele>920.6</ele>
        <time>2022-07-14T07:19:37Z</time>
      </trkpt>
      <trkpt lat="44.1484" lon="2.70475">
        <ele>921.56</ele>
        <time>2022-07-14T07:19:44Z</time>
      </trkpt>
      <trkpt lat="44.14851" lon="2.70475">
        <ele>922.52</ele>
        <time>2022-07-14T07:19:50Z</time>
      </trkpt>
      <trkpt lat="44.14862" lon="2.70474">
        <ele>924.45</ele>
        <time>2022-07-14T07:19:57Z</time>
      </trkpt>
      <trkpt lat="44.14873" lon="2.70475">
        <ele>925.89</ele>
        <time>2022-07-14T07:20:04Z</time>
      </trkpt>
      <trkpt lat="44.14883" lon="2.70475">
        <ele>926.37</ele>
        <time>2022-07-14T07:20:11Z</time>
      </trkpt>
      <trkpt lat="44.14895" lon="2.70476">
        <ele>926.85</ele>
        <time>2022-07-14T07:20:18Z</time>
      </trkpt>
      <trkpt lat="44.14905" lon="2.70479">
        <ele>927.33</ele>
        <time>2022-07-14T07:20:25Z</time>
      </trkpt>
      <trkpt lat="44.14915" lon="2.70482">
        <ele>927.81</ele>
        <time>2022-07-14T07:20:32Z</time>
      </trkpt>
      <trkpt lat="44.14926" lon="2.70486">
        <ele>927.33</ele>
        <time>2022-07-14T07:20:39Z</time>
      </trkpt>
      <trkpt lat="44.14937" lon="2.7049">
        <ele>926.85</ele>
        <time>2022-07-14T07:20:46Z</time>
      </trkpt>
      <trkpt lat="44.14965" lon="2.705">
        <ele>925.41</ele>
        <time>2022-07-14T07:21:08Z</time>
      </trkpt>
      <trkpt lat="44.14975" lon="2.7051">
        <ele>925.41</ele>
        <time>2022-07-14T07:21:17Z</time>
      </trkpt>
      <trkpt lat="44.14978" lon="2.70531">
        <ele>927.33</ele>
        <time>2022-07-14T07:21:39Z</time>
      </trkpt>
      <trkpt lat="44.14978" lon="2.70546">
        <ele>927.81</ele>
        <time>2022-07-14T07:21:46Z</time>
      </trkpt>
      <trkpt lat="44.1498" lon="2.70559">
        <ele>927.81</ele>
        <time>2022-07-14T07:21:53Z</time>
      </trkpt>
      <trkpt lat="44.14982" lon="2.70572">
        <ele>926.85</ele>
        <time>2022-07-14T07:22:01Z</time>
      </trkpt>
      <trkpt lat="44.14982" lon="2.70585">
        <ele>926.85</ele>
        <time>2022-07-14T07:22:08Z</time>
      </trkpt>
      <trkpt lat="44.14984" lon="2.70599">
        <ele>928.29</ele>
        <time>2022-07-14T07:22:15Z</time>
      </trkpt>
      <trkpt lat="44.14983" lon="2.70612">
        <ele>930.69</ele>
        <time>2022-07-14T07:22:23Z</time>
      </trkpt>
      <trkpt lat="44.1498" lon="2.70625">
        <ele>931.17</ele>
        <time>2022-07-14T07:22:30Z</time>
      </trkpt>
      <trkpt lat="44.14976" lon="2.70639">
        <ele>931.65</ele>
        <time>2022-07-14T07:22:37Z</time>
      </trkpt>
      <trkpt lat="44.14973" lon="2.70651">
        <ele>932.62</ele>
        <time>2022-07-14T07:22:44Z</time>
      </trkpt>
      <trkpt lat="44.1497" lon="2.70665">
        <ele>932.62</ele>
        <time>2022-07-14T07:22:51Z</time>
      </trkpt>
      <trkpt lat="44.14966" lon="2.70677">
        <ele>932.62</ele>
        <time>2022-07-14T07:22:58Z</time>
      </trkpt>
      <trkpt lat="44.14962" lon="2.70691">
        <ele>933.1</ele>
        <time>2022-07-14T07:23:05Z</time>
      </trkpt>
      <trkpt lat="44.14959" lon="2.70707">
        <ele>933.58</ele>
        <time>2022-07-14T07:23:12Z</time>
      </trkpt>
      <trkpt lat="44.14955" lon="2.70721">
        <ele>933.58</ele>
        <time>2022-07-14T07:23:19Z</time>
      </trkpt>
      <trkpt lat="44.1495" lon="2.70734">
        <ele>934.54</ele>
        <time>2022-07-14T07:23:26Z</time>
      </trkpt>
      <trkpt lat="44.14945" lon="2.70746">
        <ele>936.46</ele>
        <time>2022-07-14T07:23:33Z</time>
      </trkpt>
      <trkpt lat="44.14942" lon="2.70757">
        <ele>936.94</ele>
        <time>2022-07-14T07:23:40Z</time>
      </trkpt>
      <trkpt lat="44.14937" lon="2.70769">
        <ele>938.38</ele>
        <time>2022-07-14T07:23:46Z</time>
      </trkpt>
      <trkpt lat="44.14934" lon="2.70781">
        <ele>938.86</ele>
        <time>2022-07-14T07:23:52Z</time>
      </trkpt>
      <trkpt lat="44.14929" lon="2.70793">
        <ele>940.31</ele>
        <time>2022-07-14T07:23:58Z</time>
      </trkpt>
      <trkpt lat="44.14925" lon="2.70804">
        <ele>940.31</ele>
        <time>2022-07-14T07:24:05Z</time>
      </trkpt>
      <trkpt lat="44.14923" lon="2.7082">
        <ele>940.31</ele>
        <time>2022-07-14T07:24:12Z</time>
      </trkpt>
      <trkpt lat="44.1492" lon="2.70835">
        <ele>940.31</ele>
        <time>2022-07-14T07:24:19Z</time>
      </trkpt>
      <trkpt lat="44.14918" lon="2.70848">
        <ele>940.79</ele>
        <time>2022-07-14T07:24:26Z</time>
      </trkpt>
      <trkpt lat="44.14916" lon="2.70864">
        <ele>940.79</ele>
        <time>2022-07-14T07:24:34Z</time>
      </trkpt>
      <trkpt lat="44.14914" lon="2.70878">
        <ele>941.27</ele>
        <time>2022-07-14T07:24:40Z</time>
      </trkpt>
      <trkpt lat="44.14912" lon="2.70891">
        <ele>941.75</ele>
        <time>2022-07-14T07:24:46Z</time>
      </trkpt>
      <trkpt lat="44.14909" lon="2.70906">
        <ele>941.75</ele>
        <time>2022-07-14T07:24:53Z</time>
      </trkpt>
      <trkpt lat="44.14905" lon="2.70921">
        <ele>942.23</ele>
        <time>2022-07-14T07:24:57Z</time>
      </trkpt>
      <trkpt lat="44.14901" lon="2.70934">
        <ele>943.19</ele>
        <time>2022-07-14T07:25:00Z</time>
      </trkpt>
      <trkpt lat="44.14896" lon="2.70947">
        <ele>943.67</ele>
        <time>2022-07-14T07:25:03Z</time>
      </trkpt>
      <trkpt lat="44.1489" lon="2.70961">
        <ele>944.63</ele>
        <time>2022-07-14T07:25:06Z</time>
      </trkpt>
      <trkpt lat="44.14884" lon="2.70975">
        <ele>945.11</ele>
        <time>2022-07-14T07:25:09Z</time>
      </trkpt>
      <trkpt lat="44.14877" lon="2.70991">
        <ele>946.07</ele>
        <time>2022-07-14T07:25:12Z</time>
      </trkpt>
      <trkpt lat="44.14872" lon="2.71004">
        <ele>946.56</ele>
        <time>2022-07-14T07:25:14Z</time>
      </trkpt>
      <trkpt lat="44.14866" lon="2.71018">
        <ele>947.04</ele>
        <time>2022-07-14T07:25:16Z</time>
      </trkpt>
      <trkpt lat="44.1486" lon="2.71032">
        <ele>947.52</ele>
        <time>2022-07-14T07:25:18Z</time>
      </trkpt>
      <trkpt lat="44.14854" lon="2.71046">
        <ele>948.48</ele>
        <time>2022-07-14T07:25:20Z</time>
      </trkpt>
      <trkpt lat="44.14848" lon="2.7106">
        <ele>948.48</ele>
        <time>2022-07-14T07:25:22Z</time>
      </trkpt>
      <trkpt lat="44.14841" lon="2.71076">
        <ele>948.96</ele>
        <time>2022-07-14T07:25:24Z</time>
      </trkpt>
      <trkpt lat="44.14835" lon="2.71089">
        <ele>949.44</ele>
        <time>2022-07-14T07:25:26Z</time>
      </trkpt>
      <trkpt lat="44.1483" lon="2.71101">
        <ele>949.44</ele>
        <time>2022-07-14T07:25:28Z</time>
      </trkpt>
      <trkpt lat="44.14824" lon="2.71111">
        <ele>949.44</ele>
        <time>2022-07-14T07:25:31Z</time>
      </trkpt>
      <trkpt lat="44.14819" lon="2.71121">
        <ele>949.92</ele>
        <time>2022-07-14T07:25:38Z</time>
      </trkpt>
      <trkpt lat="44.14815" lon="2.71132">
        <ele>950.4</ele>
        <time>2022-07-14T07:25:45Z</time>
      </trkpt>
      <trkpt lat="44.14809" lon="2.71144">
        <ele>950.88</ele>
        <time>2022-07-14T07:25:52Z</time>
      </trkpt>
      <trkpt lat="44.14802" lon="2.71157">
        <ele>950.88</ele>
        <time>2022-07-14T07:25:58Z</time>
      </trkpt>
      <trkpt lat="44.14793" lon="2.71172">
        <ele>951.36</ele>
        <time>2022-07-14T07:26:01Z</time>
      </trkpt>
      <trkpt lat="44.14784" lon="2.71185">
        <ele>951.36</ele>
        <time>2022-07-14T07:26:03Z</time>
      </trkpt>
      <trkpt lat="44.14775" lon="2.71198">
        <ele>951.84</ele>
        <time>2022-07-14T07:26:05Z</time>
      </trkpt>
      <trkpt lat="44.14766" lon="2.7121">
        <ele>952.32</ele>
        <time>2022-07-14T07:26:07Z</time>
      </trkpt>
      <trkpt lat="44.14756" lon="2.71223">
        <ele>952.32</ele>
        <time>2022-07-14T07:26:09Z</time>
      </trkpt>
      <trkpt lat="44.14747" lon="2.71234">
        <ele>952.8</ele>
        <time>2022-07-14T07:26:11Z</time>
      </trkpt>
      <trkpt lat="44.1474" lon="2.71244">
        <ele>953.28</ele>
        <time>2022-07-14T07:26:13Z</time>
      </trkpt>
      <trkpt lat="44.14733" lon="2.71252">
        <ele>953.77</ele>
        <time>2022-07-14T07:26:15Z</time>
      </trkpt>
      <trkpt lat="44.14726" lon="2.7126">
        <ele>953.77</ele>
        <time>2022-07-14T07:26:18Z</time>
      </trkpt>
      <trkpt lat="44.1472" lon="2.71268">
        <ele>954.25</ele>
        <time>2022-07-14T07:26:24Z</time>
      </trkpt>
      <trkpt lat="44.14716" lon="2.71275">
        <ele>953.77</ele>
        <time>2022-07-14T07:26:30Z</time>
      </trkpt>
      <trkpt lat="44.14709" lon="2.71283">
        <ele>953.28</ele>
        <time>2022-07-14T07:26:36Z</time>
      </trkpt>
      <trkpt lat="44.14703" lon="2.71291">
        <ele>953.28</ele>
        <time>2022-07-14T07:26:42Z</time>
      </trkpt>
      <trkpt lat="44.14696" lon="2.713">
        <ele>953.77</ele>
        <time>2022-07-14T07:26:48Z</time>
      </trkpt>
      <trkpt lat="44.14689" lon="2.71309">
        <ele>954.25</ele>
        <time>2022-07-14T07:26:55Z</time>
      </trkpt>
      <trkpt lat="44.1468" lon="2.71318">
        <ele>954.25</ele>
        <time>2022-07-14T07:27:02Z</time>
      </trkpt>
      <trkpt lat="44.14672" lon="2.71328">
        <ele>954.25</ele>
        <time>2022-07-14T07:27:09Z</time>
      </trkpt>
      <trkpt lat="44.14664" lon="2.71336">
        <ele>954.25</ele>
        <time>2022-07-14T07:27:15Z</time>
      </trkpt>
      <trkpt lat="44.14656" lon="2.71343">
        <ele>954.73</ele>
        <time>2022-07-14T07:27:22Z</time>
      </trkpt>
      <trkpt lat="44.14648" lon="2.71352">
        <ele>955.21</ele>
        <time>2022-07-14T07:27:29Z</time>
      </trkpt>
      <trkpt lat="44.1464" lon="2.71363">
        <ele>955.69</ele>
        <time>2022-07-14T07:27:36Z</time>
      </trkpt>
      <trkpt lat="44.14632" lon="2.71373">
        <ele>956.65</ele>
        <time>2022-07-14T07:27:43Z</time>
      </trkpt>
      <trkpt lat="44.14625" lon="2.71384">
        <ele>957.13</ele>
        <time>2022-07-14T07:27:50Z</time>
      </trkpt>
      <trkpt lat="44.14617" lon="2.71393">
        <ele>957.13</ele>
        <time>2022-07-14T07:27:57Z</time>
      </trkpt>
      <trkpt lat="44.14609" lon="2.71402">
        <ele>956.65</ele>
        <time>2022-07-14T07:28:04Z</time>
      </trkpt>
      <trkpt lat="44.14602" lon="2.7141">
        <ele>956.17</ele>
        <time>2022-07-14T07:28:10Z</time>
      </trkpt>
      <trkpt lat="44.14595" lon="2.71419">
        <ele>955.69</ele>
        <time>2022-07-14T07:28:16Z</time>
      </trkpt>
      <trkpt lat="44.14587" lon="2.71429">
        <ele>955.69</ele>
        <time>2022-07-14T07:28:23Z</time>
      </trkpt>
      <trkpt lat="44.14578" lon="2.71439">
        <ele>955.69</ele>
        <time>2022-07-14T07:28:31Z</time>
      </trkpt>
      <trkpt lat="44.14569" lon="2.71448">
        <ele>956.17</ele>
        <time>2022-07-14T07:28:38Z</time>
      </trkpt>
      <trkpt lat="44.14559" lon="2.71455">
        <ele>956.17</ele>
        <time>2022-07-14T07:28:45Z</time>
      </trkpt>
      <trkpt lat="44.14551" lon="2.71463">
        <ele>956.17</ele>
        <time>2022-07-14T07:28:52Z</time>
      </trkpt>
      <trkpt lat="44.14542" lon="2.71472">
        <ele>956.17</ele>
        <time>2022-07-14T07:28:59Z</time>
      </trkpt>
      <trkpt lat="44.14534" lon="2.7148">
        <ele>956.17</ele>
        <time>2022-07-14T07:29:05Z</time>
      </trkpt>
      <trkpt lat="44.14526" lon="2.71489">
        <ele>956.17</ele>
        <time>2022-07-14T07:29:12Z</time>
      </trkpt>
      <trkpt lat="44.14517" lon="2.71498">
        <ele>955.69</ele>
        <time>2022-07-14T07:29:19Z</time>
      </trkpt>
      <trkpt lat="44.1451" lon="2.71507">
        <ele>955.69</ele>
        <time>2022-07-14T07:29:25Z</time>
      </trkpt>
      <trkpt lat="44.14502" lon="2.71514">
        <ele>956.17</ele>
        <time>2022-07-14T07:29:31Z</time>
      </trkpt>
      <trkpt lat="44.14494" lon="2.71525">
        <ele>956.65</ele>
        <time>2022-07-14T07:29:38Z</time>
      </trkpt>
      <trkpt lat="44.14482" lon="2.71534">
        <ele>961.46</ele>
        <time>2022-07-14T07:29:44Z</time>
      </trkpt>
      <trkpt lat="44.14474" lon="2.71544">
        <ele>961.94</ele>
        <time>2022-07-14T07:29:51Z</time>
      </trkpt>
      <trkpt lat="44.14466" lon="2.71551">
        <ele>961.46</ele>
        <time>2022-07-14T07:29:57Z</time>
      </trkpt>
      <trkpt lat="44.14458" lon="2.71559">
        <ele>961.46</ele>
        <time>2022-07-14T07:30:04Z</time>
      </trkpt>
      <trkpt lat="44.1445" lon="2.71567">
        <ele>960.98</ele>
        <time>2022-07-14T07:30:11Z</time>
      </trkpt>
      <trkpt lat="44.14443" lon="2.71576">
        <ele>960.98</ele>
        <time>2022-07-14T07:30:17Z</time>
      </trkpt>
      <trkpt lat="44.14435" lon="2.71585">
        <ele>960.98</ele>
        <time>2022-07-14T07:30:23Z</time>
      </trkpt>
      <trkpt lat="44.14428" lon="2.71595">
        <ele>960.98</ele>
        <time>2022-07-14T07:30:30Z</time>
      </trkpt>
      <trkpt lat="44.14421" lon="2.71603">
        <ele>960.98</ele>
        <time>2022-07-14T07:30:36Z</time>
      </trkpt>
      <trkpt lat="44.14413" lon="2.71612">
        <ele>960.98</ele>
        <time>2022-07-14T07:30:43Z</time>
      </trkpt>
      <trkpt lat="44.14407" lon="2.71622">
        <ele>960.49</ele>
        <time>2022-07-14T07:30:49Z</time>
      </trkpt>
      <trkpt lat="44.144" lon="2.71631">
        <ele>960.49</ele>
        <time>2022-07-14T07:30:55Z</time>
      </trkpt>
      <trkpt lat="44.14394" lon="2.71642">
        <ele>960.49</ele>
        <time>2022-07-14T07:31:01Z</time>
      </trkpt>
      <trkpt lat="44.14387" lon="2.71652">
        <ele>961.46</ele>
        <time>2022-07-14T07:31:08Z</time>
      </trkpt>
      <trkpt lat="44.1438" lon="2.71662">
        <ele>961.94</ele>
        <time>2022-07-14T07:31:15Z</time>
      </trkpt>
      <trkpt lat="44.14373" lon="2.71674">
        <ele>961.94</ele>
        <time>2022-07-14T07:31:22Z</time>
      </trkpt>
      <trkpt lat="44.14367" lon="2.71684">
        <ele>961.94</ele>
        <time>2022-07-14T07:31:28Z</time>
      </trkpt>
      <trkpt lat="44.14361" lon="2.71695">
        <ele>962.42</ele>
        <time>2022-07-14T07:31:35Z</time>
      </trkpt>
      <trkpt lat="44.14355" lon="2.71706">
        <ele>962.9</ele>
        <time>2022-07-14T07:31:41Z</time>
      </trkpt>
      <trkpt lat="44.14349" lon="2.71716">
        <ele>963.38</ele>
        <time>2022-07-14T07:31:47Z</time>
      </trkpt>
      <trkpt lat="44.14344" lon="2.71727">
        <ele>963.38</ele>
        <time>2022-07-14T07:31:53Z</time>
      </trkpt>
      <trkpt lat="44.14337" lon="2.71738">
        <ele>963.86</ele>
        <time>2022-07-14T07:32:00Z</time>
      </trkpt>
      <trkpt lat="44.14331" lon="2.71749">
        <ele>964.34</ele>
        <time>2022-07-14T07:32:06Z</time>
      </trkpt>
      <trkpt lat="44.14325" lon="2.71761">
        <ele>964.82</ele>
        <time>2022-07-14T07:32:12Z</time>
      </trkpt>
      <trkpt lat="44.1432" lon="2.71773">
        <ele>965.3</ele>
        <time>2022-07-14T07:32:18Z</time>
      </trkpt>
      <trkpt lat="44.14316" lon="2.71783">
        <ele>965.78</ele>
        <time>2022-07-14T07:32:24Z</time>
      </trkpt>
      <trkpt lat="44.1431" lon="2.71794">
        <ele>966.26</ele>
        <time>2022-07-14T07:32:30Z</time>
      </trkpt>
      <trkpt lat="44.14304" lon="2.71806">
        <ele>966.74</ele>
        <time>2022-07-14T07:32:37Z</time>
      </trkpt>
      <trkpt lat="44.14299" lon="2.71817">
        <ele>966.74</ele>
        <time>2022-07-14T07:32:43Z</time>
      </trkpt>
      <trkpt lat="44.14294" lon="2.71829">
        <ele>966.74</ele>
        <time>2022-07-14T07:32:49Z</time>
      </trkpt>
      <trkpt lat="44.1429" lon="2.7184">
        <ele>967.22</ele>
        <time>2022-07-14T07:32:55Z</time>
      </trkpt>
      <trkpt lat="44.14285" lon="2.71852">
        <ele>967.7</ele>
        <time>2022-07-14T07:33:01Z</time>
      </trkpt>
      <trkpt lat="44.1428" lon="2.71864">
        <ele>968.18</ele>
        <time>2022-07-14T07:33:07Z</time>
      </trkpt>
      <trkpt lat="44.14274" lon="2.71876">
        <ele>967.7</ele>
        <time>2022-07-14T07:33:13Z</time>
      </trkpt>
      <trkpt lat="44.1427" lon="2.7189">
        <ele>968.18</ele>
        <time>2022-07-14T07:33:19Z</time>
      </trkpt>
      <trkpt lat="44.14264" lon="2.71902">
        <ele>968.67</ele>
        <time>2022-07-14T07:33:25Z</time>
      </trkpt>
      <trkpt lat="44.14259" lon="2.71915">
        <ele>969.15</ele>
        <time>2022-07-14T07:33:31Z</time>
      </trkpt>
      <trkpt lat="44.14255" lon="2.71927">
        <ele>969.15</ele>
        <time>2022-07-14T07:33:37Z</time>
      </trkpt>
      <trkpt lat="44.14251" lon="2.7194">
        <ele>968.67</ele>
        <time>2022-07-14T07:33:43Z</time>
      </trkpt>
      <trkpt lat="44.14248" lon="2.71952">
        <ele>968.67</ele>
        <time>2022-07-14T07:33:49Z</time>
      </trkpt>
      <trkpt lat="44.14244" lon="2.71965">
        <ele>967.7</ele>
        <time>2022-07-14T07:33:57Z</time>
      </trkpt>
      <trkpt lat="44.1424" lon="2.71978">
        <ele>967.22</ele>
        <time>2022-07-14T07:34:04Z</time>
      </trkpt>
      <trkpt lat="44.14236" lon="2.71994">
        <ele>965.78</ele>
        <time>2022-07-14T07:34:12Z</time>
      </trkpt>
      <trkpt lat="44.14233" lon="2.72008">
        <ele>965.3</ele>
        <time>2022-07-14T07:34:20Z</time>
      </trkpt>
      <trkpt lat="44.1423" lon="2.72021">
        <ele>965.3</ele>
        <time>2022-07-14T07:34:26Z</time>
      </trkpt>
      <trkpt lat="44.14226" lon="2.72036">
        <ele>965.3</ele>
        <time>2022-07-14T07:34:33Z</time>
      </trkpt>
      <trkpt lat="44.14222" lon="2.72052">
        <ele>964.82</ele>
        <time>2022-07-14T07:34:40Z</time>
      </trkpt>
      <trkpt lat="44.14219" lon="2.72066">
        <ele>963.86</ele>
        <time>2022-07-14T07:34:46Z</time>
      </trkpt>
      <trkpt lat="44.14216" lon="2.7208">
        <ele>963.86</ele>
        <time>2022-07-14T07:34:52Z</time>
      </trkpt>
      <trkpt lat="44.14212" lon="2.72094">
        <ele>963.86</ele>
        <time>2022-07-14T07:34:59Z</time>
      </trkpt>
      <trkpt lat="44.14208" lon="2.72107">
        <ele>962.9</ele>
        <time>2022-07-14T07:35:06Z</time>
      </trkpt>
      <trkpt lat="44.14204" lon="2.72121">
        <ele>961.94</ele>
        <time>2022-07-14T07:35:13Z</time>
      </trkpt>
      <trkpt lat="44.142" lon="2.72136">
        <ele>961.46</ele>
        <time>2022-07-14T07:35:19Z</time>
      </trkpt>
      <trkpt lat="44.14197" lon="2.7215">
        <ele>960.98</ele>
        <time>2022-07-14T07:35:25Z</time>
      </trkpt>
      <trkpt lat="44.14193" lon="2.72166">
        <ele>960.98</ele>
        <time>2022-07-14T07:35:32Z</time>
      </trkpt>
      <trkpt lat="44.14189" lon="2.72179">
        <ele>960.49</ele>
        <time>2022-07-14T07:35:39Z</time>
      </trkpt>
      <trkpt lat="44.14185" lon="2.72192">
        <ele>959.53</ele>
        <time>2022-07-14T07:35:46Z</time>
      </trkpt>
      <trkpt lat="44.14182" lon="2.72206">
        <ele>959.05</ele>
        <time>2022-07-14T07:35:53Z</time>
      </trkpt>
      <trkpt lat="44.14177" lon="2.7222">
        <ele>958.09</ele>
        <time>2022-07-14T07:36:00Z</time>
      </trkpt>
      <trkpt lat="44.14172" lon="2.72234">
        <ele>956.65</ele>
        <time>2022-07-14T07:36:07Z</time>
      </trkpt>
      <trkpt lat="44.14167" lon="2.7225">
        <ele>956.17</ele>
        <time>2022-07-14T07:36:13Z</time>
      </trkpt>
      <trkpt lat="44.14162" lon="2.72264">
        <ele>956.17</ele>
        <time>2022-07-14T07:36:19Z</time>
      </trkpt>
      <trkpt lat="44.14158" lon="2.72278">
        <ele>955.69</ele>
        <time>2022-07-14T07:36:25Z</time>
      </trkpt>
      <trkpt lat="44.14153" lon="2.7229">
        <ele>955.69</ele>
        <time>2022-07-14T07:36:31Z</time>
      </trkpt>
      <trkpt lat="44.14148" lon="2.72302">
        <ele>955.21</ele>
        <time>2022-07-14T07:36:37Z</time>
      </trkpt>
      <trkpt lat="44.14144" lon="2.72316">
        <ele>954.73</ele>
        <time>2022-07-14T07:36:44Z</time>
      </trkpt>
      <trkpt lat="44.1414" lon="2.72329">
        <ele>954.25</ele>
        <time>2022-07-14T07:36:50Z</time>
      </trkpt>
      <trkpt lat="44.14138" lon="2.72343">
        <ele>953.77</ele>
        <time>2022-07-14T07:36:56Z</time>
      </trkpt>
      <trkpt lat="44.14136" lon="2.72357">
        <ele>953.28</ele>
        <time>2022-07-14T07:37:03Z</time>
      </trkpt>
      <trkpt lat="44.14136" lon="2.72371">
        <ele>951.84</ele>
        <time>2022-07-14T07:37:09Z</time>
      </trkpt>
      <trkpt lat="44.14137" lon="2.72385">
        <ele>950.88</ele>
        <time>2022-07-14T07:37:15Z</time>
      </trkpt>
      <trkpt lat="44.14137" lon="2.72399">
        <ele>949.92</ele>
        <time>2022-07-14T07:37:21Z</time>
      </trkpt>
      <trkpt lat="44.14136" lon="2.72412">
        <ele>950.88</ele>
        <time>2022-07-14T07:37:27Z</time>
      </trkpt>
      <trkpt lat="44.14135" lon="2.72426">
        <ele>951.36</ele>
        <time>2022-07-14T07:37:33Z</time>
      </trkpt>
      <trkpt lat="44.14133" lon="2.7244">
        <ele>951.84</ele>
        <time>2022-07-14T07:37:39Z</time>
      </trkpt>
      <trkpt lat="44.14133" lon="2.72455">
        <ele>949.44</ele>
        <time>2022-07-14T07:37:46Z</time>
      </trkpt>
      <trkpt lat="44.14136" lon="2.72469">
        <ele>948.48</ele>
        <time>2022-07-14T07:37:52Z</time>
      </trkpt>
      <trkpt lat="44.14139" lon="2.72481">
        <ele>947.04</ele>
        <time>2022-07-14T07:37:58Z</time>
      </trkpt>
      <trkpt lat="44.14142" lon="2.72494">
        <ele>944.63</ele>
        <time>2022-07-14T07:38:04Z</time>
      </trkpt>
      <trkpt lat="44.14145" lon="2.72507">
        <ele>943.19</ele>
        <time>2022-07-14T07:38:10Z</time>
      </trkpt>
      <trkpt lat="44.14148" lon="2.7252">
        <ele>943.19</ele>
        <time>2022-07-14T07:38:17Z</time>
      </trkpt>
      <trkpt lat="44.14152" lon="2.72534">
        <ele>944.63</ele>
        <time>2022-07-14T07:38:24Z</time>
      </trkpt>
      <trkpt lat="44.14155" lon="2.72548">
        <ele>943.19</ele>
        <time>2022-07-14T07:38:31Z</time>
      </trkpt>
      <trkpt lat="44.14159" lon="2.72562">
        <ele>942.23</ele>
        <time>2022-07-14T07:38:37Z</time>
      </trkpt>
      <trkpt lat="44.14163" lon="2.72576">
        <ele>942.23</ele>
        <time>2022-07-14T07:38:43Z</time>
      </trkpt>
      <trkpt lat="44.14167" lon="2.72589">
        <ele>942.71</ele>
        <time>2022-07-14T07:38:49Z</time>
      </trkpt>
      <trkpt lat="44.1417" lon="2.72602">
        <ele>943.67</ele>
        <time>2022-07-14T07:38:55Z</time>
      </trkpt>
      <trkpt lat="44.14173" lon="2.72614">
        <ele>943.67</ele>
        <time>2022-07-14T07:39:01Z</time>
      </trkpt>
      <trkpt lat="44.14177" lon="2.72627">
        <ele>943.19</ele>
        <time>2022-07-14T07:39:07Z</time>
      </trkpt>
      <trkpt lat="44.1418" lon="2.72641">
        <ele>943.67</ele>
        <time>2022-07-14T07:39:13Z</time>
      </trkpt>
      <trkpt lat="44.14182" lon="2.72656">
        <ele>943.19</ele>
        <time>2022-07-14T07:39:20Z</time>
      </trkpt>
      <trkpt lat="44.14185" lon="2.7267">
        <ele>943.19</ele>
        <time>2022-07-14T07:39:26Z</time>
      </trkpt>
      <trkpt lat="44.14187" lon="2.72684">
        <ele>944.15</ele>
        <time>2022-07-14T07:39:32Z</time>
      </trkpt>
      <trkpt lat="44.14191" lon="2.72697">
        <ele>944.15</ele>
        <time>2022-07-14T07:39:38Z</time>
      </trkpt>
      <trkpt lat="44.14194" lon="2.72711">
        <ele>943.67</ele>
        <time>2022-07-14T07:39:44Z</time>
      </trkpt>
      <trkpt lat="44.14197" lon="2.72723">
        <ele>943.67</ele>
        <time>2022-07-14T07:39:48Z</time>
      </trkpt>
      <trkpt lat="44.142" lon="2.72737">
        <ele>943.67</ele>
        <time>2022-07-14T07:39:51Z</time>
      </trkpt>
      <trkpt lat="44.14204" lon="2.72753">
        <ele>942.23</ele>
        <time>2022-07-14T07:39:55Z</time>
      </trkpt>
      <trkpt lat="44.14209" lon="2.72768">
        <ele>941.75</ele>
        <time>2022-07-14T07:39:58Z</time>
      </trkpt>
      <trkpt lat="44.14213" lon="2.72783">
        <ele>940.31</ele>
        <time>2022-07-14T07:40:01Z</time>
      </trkpt>
      <trkpt lat="44.14218" lon="2.72797">
        <ele>939.35</ele>
        <time>2022-07-14T07:40:04Z</time>
      </trkpt>
      <trkpt lat="44.14222" lon="2.72812">
        <ele>939.35</ele>
        <time>2022-07-14T07:40:07Z</time>
      </trkpt>
      <trkpt lat="44.14226" lon="2.72825">
        <ele>939.83</ele>
        <time>2022-07-14T07:40:10Z</time>
      </trkpt>
      <trkpt lat="44.1423" lon="2.72837">
        <ele>940.31</ele>
        <time>2022-07-14T07:40:13Z</time>
      </trkpt>
      <trkpt lat="44.14234" lon="2.72849">
        <ele>940.79</ele>
        <time>2022-07-14T07:40:16Z</time>
      </trkpt>
      <trkpt lat="44.14238" lon="2.72862">
        <ele>940.31</ele>
        <time>2022-07-14T07:40:19Z</time>
      </trkpt>
      <trkpt lat="44.14241" lon="2.72877">
        <ele>940.31</ele>
        <time>2022-07-14T07:40:22Z</time>
      </trkpt>
      <trkpt lat="44.14244" lon="2.72892">
        <ele>940.31</ele>
        <time>2022-07-14T07:40:25Z</time>
      </trkpt>
      <trkpt lat="44.14246" lon="2.72907">
        <ele>940.79</ele>
        <time>2022-07-14T07:40:28Z</time>
      </trkpt>
      <trkpt lat="44.14247" lon="2.72921">
        <ele>940.79</ele>
        <time>2022-07-14T07:40:31Z</time>
      </trkpt>
      <trkpt lat="44.14248" lon="2.72938">
        <ele>941.27</ele>
        <time>2022-07-14T07:40:35Z</time>
      </trkpt>
      <trkpt lat="44.14247" lon="2.72951">
        <ele>942.23</ele>
        <time>2022-07-14T07:40:38Z</time>
      </trkpt>
      <trkpt lat="44.14245" lon="2.72968">
        <ele>942.23</ele>
        <time>2022-07-14T07:40:42Z</time>
      </trkpt>
      <trkpt lat="44.14242" lon="2.72981">
        <ele>942.71</ele>
        <time>2022-07-14T07:40:45Z</time>
      </trkpt>
      <trkpt lat="44.1424" lon="2.72995">
        <ele>943.19</ele>
        <time>2022-07-14T07:40:48Z</time>
      </trkpt>
      <trkpt lat="44.14237" lon="2.73008">
        <ele>943.67</ele>
        <time>2022-07-14T07:40:51Z</time>
      </trkpt>
      <trkpt lat="44.14234" lon="2.73026">
        <ele>945.11</ele>
        <time>2022-07-14T07:40:54Z</time>
      </trkpt>
      <trkpt lat="44.1423" lon="2.73039">
        <ele>946.07</ele>
        <time>2022-07-14T07:40:56Z</time>
      </trkpt>
      <trkpt lat="44.14226" lon="2.73053">
        <ele>946.56</ele>
        <time>2022-07-14T07:40:58Z</time>
      </trkpt>
      <trkpt lat="44.14223" lon="2.73066">
        <ele>947.04</ele>
        <time>2022-07-14T07:41:00Z</time>
      </trkpt>
      <trkpt lat="44.1422" lon="2.73079">
        <ele>948.48</ele>
        <time>2022-07-14T07:41:02Z</time>
      </trkpt>
      <trkpt lat="44.14216" lon="2.73092">
        <ele>948.96</ele>
        <time>2022-07-14T07:41:04Z</time>
      </trkpt>
      <trkpt lat="44.14212" lon="2.73106">
        <ele>950.4</ele>
        <time>2022-07-14T07:41:07Z</time>
      </trkpt>
      <trkpt lat="44.14208" lon="2.73119">
        <ele>952.32</ele>
        <time>2022-07-14T07:41:13Z</time>
      </trkpt>
      <trkpt lat="44.14203" lon="2.73133">
        <ele>954.73</ele>
        <time>2022-07-14T07:41:21Z</time>
      </trkpt>
      <trkpt lat="44.142" lon="2.73147">
        <ele>955.69</ele>
        <time>2022-07-14T07:41:28Z</time>
      </trkpt>
      <trkpt lat="44.14195" lon="2.73159">
        <ele>956.65</ele>
        <time>2022-07-14T07:41:35Z</time>
      </trkpt>
      <trkpt lat="44.14188" lon="2.73171">
        <ele>957.13</ele>
        <time>2022-07-14T07:41:42Z</time>
      </trkpt>
      <trkpt lat="44.14183" lon="2.73183">
        <ele>957.13</ele>
        <time>2022-07-14T07:41:48Z</time>
      </trkpt>
      <trkpt lat="44.14179" lon="2.73194">
        <ele>958.09</ele>
        <time>2022-07-14T07:41:54Z</time>
      </trkpt>
      <trkpt lat="44.14173" lon="2.73206">
        <ele>959.05</ele>
        <time>2022-07-14T07:42:00Z</time>
      </trkpt>
      <trkpt lat="44.14168" lon="2.73218">
        <ele>958.09</ele>
        <time>2022-07-14T07:42:06Z</time>
      </trkpt>
      <trkpt lat="44.14162" lon="2.73231">
        <ele>957.13</ele>
        <time>2022-07-14T07:42:12Z</time>
      </trkpt>
      <trkpt lat="44.14158" lon="2.73244">
        <ele>956.17</ele>
        <time>2022-07-14T07:42:18Z</time>
      </trkpt>
      <trkpt lat="44.14156" lon="2.73257">
        <ele>955.69</ele>
        <time>2022-07-14T07:42:24Z</time>
      </trkpt>
      <trkpt lat="44.14155" lon="2.73272">
        <ele>955.21</ele>
        <time>2022-07-14T07:42:31Z</time>
      </trkpt>
      <trkpt lat="44.14157" lon="2.73286">
        <ele>953.77</ele>
        <time>2022-07-14T07:42:38Z</time>
      </trkpt>
      <trkpt lat="44.14159" lon="2.733">
        <ele>953.28</ele>
        <time>2022-07-14T07:42:45Z</time>
      </trkpt>
      <trkpt lat="44.14163" lon="2.73313">
        <ele>952.8</ele>
        <time>2022-07-14T07:42:53Z</time>
      </trkpt>
      <trkpt lat="44.14167" lon="2.73326">
        <ele>953.28</ele>
        <time>2022-07-14T07:43:00Z</time>
      </trkpt>
      <trkpt lat="44.14172" lon="2.73339">
        <ele>954.25</ele>
        <time>2022-07-14T07:43:07Z</time>
      </trkpt>
      <trkpt lat="44.14176" lon="2.73353">
        <ele>954.73</ele>
        <time>2022-07-14T07:43:14Z</time>
      </trkpt>
      <trkpt lat="44.1418" lon="2.73367">
        <ele>955.69</ele>
        <time>2022-07-14T07:43:21Z</time>
      </trkpt>
      <trkpt lat="44.14185" lon="2.7338">
        <ele>956.17</ele>
        <time>2022-07-14T07:43:28Z</time>
      </trkpt>
      <trkpt lat="44.1419" lon="2.73393">
        <ele>955.69</ele>
        <time>2022-07-14T07:43:35Z</time>
      </trkpt>
      <trkpt lat="44.14194" lon="2.73407">
        <ele>954.73</ele>
        <time>2022-07-14T07:43:42Z</time>
      </trkpt>
      <trkpt lat="44.14198" lon="2.7342">
        <ele>955.21</ele>
        <time>2022-07-14T07:43:48Z</time>
      </trkpt>
      <trkpt lat="44.14203" lon="2.73433">
        <ele>955.69</ele>
        <time>2022-07-14T07:43:55Z</time>
      </trkpt>
      <trkpt lat="44.14208" lon="2.73446">
        <ele>956.17</ele>
        <time>2022-07-14T07:44:02Z</time>
      </trkpt>
      <trkpt lat="44.14216" lon="2.73458">
        <ele>955.69</ele>
        <time>2022-07-14T07:44:09Z</time>
      </trkpt>
      <trkpt lat="44.14224" lon="2.73468">
        <ele>955.69</ele>
        <time>2022-07-14T07:44:16Z</time>
      </trkpt>
      <trkpt lat="44.14232" lon="2.73479">
        <ele>955.69</ele>
        <time>2022-07-14T07:44:23Z</time>
      </trkpt>
      <trkpt lat="44.1424" lon="2.73486">
        <ele>956.17</ele>
        <time>2022-07-14T07:44:29Z</time>
      </trkpt>
      <trkpt lat="44.1425" lon="2.73494">
        <ele>957.13</ele>
        <time>2022-07-14T07:44:35Z</time>
      </trkpt>
      <trkpt lat="44.14258" lon="2.73498">
        <ele>957.13</ele>
        <time>2022-07-14T07:44:41Z</time>
      </trkpt>
      <trkpt lat="44.14269" lon="2.73505">
        <ele>956.65</ele>
        <time>2022-07-14T07:44:49Z</time>
      </trkpt>
      <trkpt lat="44.14278" lon="2.73512">
        <ele>955.21</ele>
        <time>2022-07-14T07:44:56Z</time>
      </trkpt>
      <trkpt lat="44.14288" lon="2.73518">
        <ele>955.21</ele>
        <time>2022-07-14T07:45:03Z</time>
      </trkpt>
      <trkpt lat="44.14298" lon="2.73523">
        <ele>956.17</ele>
        <time>2022-07-14T07:45:10Z</time>
      </trkpt>
      <trkpt lat="44.14309" lon="2.73532">
        <ele>957.13</ele>
        <time>2022-07-14T07:45:18Z</time>
      </trkpt>
      <trkpt lat="44.1432" lon="2.73542">
        <ele>958.57</ele>
        <time>2022-07-14T07:45:25Z</time>
      </trkpt>
      <trkpt lat="44.14328" lon="2.73553">
        <ele>960.49</ele>
        <time>2022-07-14T07:45:32Z</time>
      </trkpt>
      <trkpt lat="44.14336" lon="2.73562">
        <ele>961.46</ele>
        <time>2022-07-14T07:45:38Z</time>
      </trkpt>
      <trkpt lat="44.14343" lon="2.73571">
        <ele>962.9</ele>
        <time>2022-07-14T07:45:44Z</time>
      </trkpt>
      <trkpt lat="44.1435" lon="2.73581">
        <ele>963.86</ele>
        <time>2022-07-14T07:45:50Z</time>
      </trkpt>
      <trkpt lat="44.14356" lon="2.73591">
        <ele>963.86</ele>
        <time>2022-07-14T07:45:56Z</time>
      </trkpt>
      <trkpt lat="44.14364" lon="2.73603">
        <ele>964.82</ele>
        <time>2022-07-14T07:46:03Z</time>
      </trkpt>
      <trkpt lat="44.1437" lon="2.73614">
        <ele>965.3</ele>
        <time>2022-07-14T07:46:09Z</time>
      </trkpt>
      <trkpt lat="44.14378" lon="2.73623">
        <ele>965.3</ele>
        <time>2022-07-14T07:46:16Z</time>
      </trkpt>
      <trkpt lat="44.14385" lon="2.73636">
        <ele>965.3</ele>
        <time>2022-07-14T07:46:23Z</time>
      </trkpt>
      <trkpt lat="44.1439" lon="2.73649">
        <ele>965.78</ele>
        <time>2022-07-14T07:46:30Z</time>
      </trkpt>
      <trkpt lat="44.14395" lon="2.73663">
        <ele>966.74</ele>
        <time>2022-07-14T07:46:36Z</time>
      </trkpt>
      <trkpt lat="44.144" lon="2.73677">
        <ele>966.74</ele>
        <time>2022-07-14T07:46:43Z</time>
      </trkpt>
      <trkpt lat="44.14403" lon="2.7369">
        <ele>967.7</ele>
        <time>2022-07-14T07:46:49Z</time>
      </trkpt>
      <trkpt lat="44.14408" lon="2.73704">
        <ele>968.18</ele>
        <time>2022-07-14T07:46:56Z</time>
      </trkpt>
      <trkpt lat="44.14412" lon="2.73719">
        <ele>968.67</ele>
        <time>2022-07-14T07:47:03Z</time>
      </trkpt>
      <trkpt lat="44.14416" lon="2.73733">
        <ele>968.18</ele>
        <time>2022-07-14T07:47:10Z</time>
      </trkpt>
      <trkpt lat="44.14419" lon="2.73747">
        <ele>967.22</ele>
        <time>2022-07-14T07:47:16Z</time>
      </trkpt>
      <trkpt lat="44.14423" lon="2.7376">
        <ele>967.22</ele>
        <time>2022-07-14T07:47:22Z</time>
      </trkpt>
      <trkpt lat="44.14426" lon="2.73774">
        <ele>968.67</ele>
        <time>2022-07-14T07:47:28Z</time>
      </trkpt>
      <trkpt lat="44.1443" lon="2.73787">
        <ele>969.15</ele>
        <time>2022-07-14T07:47:34Z</time>
      </trkpt>
      <trkpt lat="44.14433" lon="2.73801">
        <ele>969.63</ele>
        <time>2022-07-14T07:47:40Z</time>
      </trkpt>
      <trkpt lat="44.14436" lon="2.73817">
        <ele>970.11</ele>
        <time>2022-07-14T07:47:47Z</time>
      </trkpt>
      <trkpt lat="44.14438" lon="2.7383">
        <ele>970.11</ele>
        <time>2022-07-14T07:47:53Z</time>
      </trkpt>
      <trkpt lat="44.14442" lon="2.73844">
        <ele>970.59</ele>
        <time>2022-07-14T07:48:00Z</time>
      </trkpt>
      <trkpt lat="44.14444" lon="2.73858">
        <ele>971.55</ele>
        <time>2022-07-14T07:48:06Z</time>
      </trkpt>
      <trkpt lat="44.14446" lon="2.73872">
        <ele>972.51</ele>
        <time>2022-07-14T07:48:12Z</time>
      </trkpt>
      <trkpt lat="44.14446" lon="2.73886">
        <ele>972.99</ele>
        <time>2022-07-14T07:48:18Z</time>
      </trkpt>
      <trkpt lat="44.14446" lon="2.73899">
        <ele>973.95</ele>
        <time>2022-07-14T07:48:24Z</time>
      </trkpt>
      <trkpt lat="44.14444" lon="2.73912">
        <ele>974.91</ele>
        <time>2022-07-14T07:48:30Z</time>
      </trkpt>
      <trkpt lat="44.14442" lon="2.73926">
        <ele>975.39</ele>
        <time>2022-07-14T07:48:36Z</time>
      </trkpt>
      <trkpt lat="44.14438" lon="2.73937">
        <ele>976.84</ele>
        <time>2022-07-14T07:48:42Z</time>
      </trkpt>
      <trkpt lat="44.14432" lon="2.73948">
        <ele>978.28</ele>
        <time>2022-07-14T07:48:48Z</time>
      </trkpt>
      <trkpt lat="44.14427" lon="2.73961">
        <ele>978.76</ele>
        <time>2022-07-14T07:48:55Z</time>
      </trkpt>
      <trkpt lat="44.14421" lon="2.73972">
        <ele>978.76</ele>
        <time>2022-07-14T07:49:01Z</time>
      </trkpt>
      <trkpt lat="44.14415" lon="2.73983">
        <ele>977.8</ele>
        <time>2022-07-14T07:49:07Z</time>
      </trkpt>
      <trkpt lat="44.1441" lon="2.73997">
        <ele>978.76</ele>
        <time>2022-07-14T07:49:14Z</time>
      </trkpt>
      <trkpt lat="44.14403" lon="2.74009">
        <ele>978.76</ele>
        <time>2022-07-14T07:49:20Z</time>
      </trkpt>
      <trkpt lat="44.14396" lon="2.74019">
        <ele>978.76</ele>
        <time>2022-07-14T07:49:26Z</time>
      </trkpt>
      <trkpt lat="44.14389" lon="2.74029">
        <ele>977.8</ele>
        <time>2022-07-14T07:49:32Z</time>
      </trkpt>
      <trkpt lat="44.14382" lon="2.7404">
        <ele>977.32</ele>
        <time>2022-07-14T07:49:38Z</time>
      </trkpt>
      <trkpt lat="44.14375" lon="2.74051">
        <ele>977.32</ele>
        <time>2022-07-14T07:49:44Z</time>
      </trkpt>
      <trkpt lat="44.14369" lon="2.74062">
        <ele>978.28</ele>
        <time>2022-07-14T07:49:50Z</time>
      </trkpt>
      <trkpt lat="44.14363" lon="2.74074">
        <ele>977.32</ele>
        <time>2022-07-14T07:49:56Z</time>
      </trkpt>
      <trkpt lat="44.14357" lon="2.74085">
        <ele>977.8</ele>
        <time>2022-07-14T07:50:02Z</time>
      </trkpt>
      <trkpt lat="44.14351" lon="2.74095">
        <ele>977.32</ele>
        <time>2022-07-14T07:50:08Z</time>
      </trkpt>
      <trkpt lat="44.14345" lon="2.74105">
        <ele>976.84</ele>
        <time>2022-07-14T07:50:14Z</time>
      </trkpt>
      <trkpt lat="44.1434" lon="2.74115">
        <ele>975.39</ele>
        <time>2022-07-14T07:50:21Z</time>
      </trkpt>
      <trkpt lat="44.14336" lon="2.74129">
        <ele>974.91</ele>
        <time>2022-07-14T07:50:28Z</time>
      </trkpt>
      <trkpt lat="44.14331" lon="2.7414">
        <ele>973.47</ele>
        <time>2022-07-14T07:50:34Z</time>
      </trkpt>
      <trkpt lat="44.14327" lon="2.74152">
        <ele>972.51</ele>
        <time>2022-07-14T07:50:41Z</time>
      </trkpt>
      <trkpt lat="44.14323" lon="2.74165">
        <ele>971.07</ele>
        <time>2022-07-14T07:50:48Z</time>
      </trkpt>
      <trkpt lat="44.14317" lon="2.74177">
        <ele>970.59</ele>
        <time>2022-07-14T07:50:54Z</time>
      </trkpt>
      <trkpt lat="44.14312" lon="2.74188">
        <ele>970.11</ele>
        <time>2022-07-14T07:51:00Z</time>
      </trkpt>
      <trkpt lat="44.14307" lon="2.74199">
        <ele>969.15</ele>
        <time>2022-07-14T07:51:06Z</time>
      </trkpt>
      <trkpt lat="44.14302" lon="2.74212">
        <ele>968.18</ele>
        <time>2022-07-14T07:51:12Z</time>
      </trkpt>
      <trkpt lat="44.14296" lon="2.74224">
        <ele>967.7</ele>
        <time>2022-07-14T07:51:18Z</time>
      </trkpt>
      <trkpt lat="44.14291" lon="2.74235">
        <ele>967.22</ele>
        <time>2022-07-14T07:51:24Z</time>
      </trkpt>
      <trkpt lat="44.14287" lon="2.74246">
        <ele>967.22</ele>
        <time>2022-07-14T07:51:30Z</time>
      </trkpt>
      <trkpt lat="44.14285" lon="2.74258">
        <ele>967.22</ele>
        <time>2022-07-14T07:51:36Z</time>
      </trkpt>
      <trkpt lat="44.14282" lon="2.74271">
        <ele>967.22</ele>
        <time>2022-07-14T07:51:42Z</time>
      </trkpt>
      <trkpt lat="44.14278" lon="2.74284">
        <ele>967.22</ele>
        <time>2022-07-14T07:51:48Z</time>
      </trkpt>
      <trkpt lat="44.14274" lon="2.74297">
        <ele>966.74</ele>
        <time>2022-07-14T07:51:54Z</time>
      </trkpt>
      <trkpt lat="44.14269" lon="2.7431">
        <ele>965.78</ele>
        <time>2022-07-14T07:52:01Z</time>
      </trkpt>
      <trkpt lat="44.14267" lon="2.74323">
        <ele>965.78</ele>
        <time>2022-07-14T07:52:08Z</time>
      </trkpt>
      <trkpt lat="44.14264" lon="2.74338">
        <ele>964.34</ele>
        <time>2022-07-14T07:52:15Z</time>
      </trkpt>
      <trkpt lat="44.14262" lon="2.74351">
        <ele>963.38</ele>
        <time>2022-07-14T07:52:22Z</time>
      </trkpt>
      <trkpt lat="44.14261" lon="2.74367">
        <ele>963.38</ele>
        <time>2022-07-14T07:52:29Z</time>
      </trkpt>
      <trkpt lat="44.14262" lon="2.74429">
        <ele>961.46</ele>
        <time>2022-07-14T07:53:03Z</time>
      </trkpt>
      <trkpt lat="44.1426" lon="2.74468">
        <ele>963.38</ele>
        <time>2022-07-14T07:53:23Z</time>
      </trkpt>
      <trkpt lat="44.1426" lon="2.74489">
        <ele>964.34</ele>
        <time>2022-07-14T07:53:31Z</time>
      </trkpt>
      <trkpt lat="44.14257" lon="2.74506">
        <ele>964.34</ele>
        <time>2022-07-14T07:53:39Z</time>
      </trkpt>
      <trkpt lat="44.14256" lon="2.74521">
        <ele>964.34</ele>
        <time>2022-07-14T07:53:47Z</time>
      </trkpt>
      <trkpt lat="44.14258" lon="2.74545">
        <ele>962.42</ele>
        <time>2022-07-14T07:54:00Z</time>
      </trkpt>
      <trkpt lat="44.1426" lon="2.74566">
        <ele>960.49</ele>
        <time>2022-07-14T07:54:09Z</time>
      </trkpt>
      <trkpt lat="44.14262" lon="2.74588">
        <ele>960.49</ele>
        <time>2022-07-14T07:54:20Z</time>
      </trkpt>
      <trkpt lat="44.14264" lon="2.74609">
        <ele>960.49</ele>
        <time>2022-07-14T07:54:31Z</time>
      </trkpt>
      <trkpt lat="44.14265" lon="2.74632">
        <ele>960.01</ele>
        <time>2022-07-14T07:54:39Z</time>
      </trkpt>
      <trkpt lat="44.14268" lon="2.74653">
        <ele>958.57</ele>
        <time>2022-07-14T07:54:49Z</time>
      </trkpt>
      <trkpt lat="44.1427" lon="2.74669">
        <ele>956.65</ele>
        <time>2022-07-14T07:54:57Z</time>
      </trkpt>
      <trkpt lat="44.14274" lon="2.74689">
        <ele>953.77</ele>
        <time>2022-07-14T07:55:08Z</time>
      </trkpt>
      <trkpt lat="44.14276" lon="2.74705">
        <ele>952.8</ele>
        <time>2022-07-14T07:55:15Z</time>
      </trkpt>
      <trkpt lat="44.14277" lon="2.74725">
        <ele>952.8</ele>
        <time>2022-07-14T07:55:23Z</time>
      </trkpt>
      <trkpt lat="44.14277" lon="2.7474">
        <ele>952.8</ele>
        <time>2022-07-14T07:55:30Z</time>
      </trkpt>
      <trkpt lat="44.14277" lon="2.74757">
        <ele>952.8</ele>
        <time>2022-07-14T07:55:38Z</time>
      </trkpt>
      <trkpt lat="44.14277" lon="2.74776">
        <ele>953.28</ele>
        <time>2022-07-14T07:55:46Z</time>
      </trkpt>
      <trkpt lat="44.14278" lon="2.74793">
        <ele>952.8</ele>
        <time>2022-07-14T07:55:54Z</time>
      </trkpt>
      <trkpt lat="44.14278" lon="2.74811">
        <ele>952.8</ele>
        <time>2022-07-14T07:56:02Z</time>
      </trkpt>
      <trkpt lat="44.14276" lon="2.74827">
        <ele>953.77</ele>
        <time>2022-07-14T07:56:10Z</time>
      </trkpt>
      <trkpt lat="44.14274" lon="2.74843">
        <ele>955.21</ele>
        <time>2022-07-14T07:56:18Z</time>
      </trkpt>
      <trkpt lat="44.14271" lon="2.74859">
        <ele>956.65</ele>
        <time>2022-07-14T07:56:25Z</time>
      </trkpt>
      <trkpt lat="44.14268" lon="2.74874">
        <ele>958.09</ele>
        <time>2022-07-14T07:56:32Z</time>
      </trkpt>
      <trkpt lat="44.14266" lon="2.74891">
        <ele>960.49</ele>
        <time>2022-07-14T07:56:39Z</time>
      </trkpt>
      <trkpt lat="44.14264" lon="2.74914">
        <ele>962.42</ele>
        <time>2022-07-14T07:56:51Z</time>
      </trkpt>
      <trkpt lat="44.14262" lon="2.74932">
        <ele>963.86</ele>
        <time>2022-07-14T07:56:59Z</time>
      </trkpt>
      <trkpt lat="44.14261" lon="2.74952">
        <ele>963.86</ele>
        <time>2022-07-14T07:57:07Z</time>
      </trkpt>
      <trkpt lat="44.14258" lon="2.74973">
        <ele>961.94</ele>
        <time>2022-07-14T07:57:17Z</time>
      </trkpt>
      <trkpt lat="44.14255" lon="2.74987">
        <ele>962.9</ele>
        <time>2022-07-14T07:57:25Z</time>
      </trkpt>
      <trkpt lat="44.14252" lon="2.75004">
        <ele>964.82</ele>
        <time>2022-07-14T07:57:33Z</time>
      </trkpt>
      <trkpt lat="44.14249" lon="2.7502">
        <ele>966.26</ele>
        <time>2022-07-14T07:57:40Z</time>
      </trkpt>
      <trkpt lat="44.14246" lon="2.75035">
        <ele>966.74</ele>
        <time>2022-07-14T07:57:47Z</time>
      </trkpt>
      <trkpt lat="44.14242" lon="2.7505">
        <ele>968.18</ele>
        <time>2022-07-14T07:57:54Z</time>
      </trkpt>
      <trkpt lat="44.14239" lon="2.75069">
        <ele>969.15</ele>
        <time>2022-07-14T07:58:04Z</time>
      </trkpt>
      <trkpt lat="44.14237" lon="2.75086">
        <ele>968.67</ele>
        <time>2022-07-14T07:58:11Z</time>
      </trkpt>
      <trkpt lat="44.14236" lon="2.75101">
        <ele>964.34</ele>
        <time>2022-07-14T07:58:18Z</time>
      </trkpt>
      <trkpt lat="44.14235" lon="2.75116">
        <ele>961.46</ele>
        <time>2022-07-14T07:58:25Z</time>
      </trkpt>
      <trkpt lat="44.14233" lon="2.75133">
        <ele>957.61</ele>
        <time>2022-07-14T07:58:33Z</time>
      </trkpt>
      <trkpt lat="44.1423" lon="2.75148">
        <ele>957.13</ele>
        <time>2022-07-14T07:58:41Z</time>
      </trkpt>
      <trkpt lat="44.14225" lon="2.75163">
        <ele>958.57</ele>
        <time>2022-07-14T07:58:48Z</time>
      </trkpt>
      <trkpt lat="44.14221" lon="2.75179">
        <ele>960.01</ele>
        <time>2022-07-14T07:58:55Z</time>
      </trkpt>
      <trkpt lat="44.14218" lon="2.75194">
        <ele>961.46</ele>
        <time>2022-07-14T07:59:02Z</time>
      </trkpt>
      <trkpt lat="44.14213" lon="2.75208">
        <ele>963.86</ele>
        <time>2022-07-14T07:59:09Z</time>
      </trkpt>
      <trkpt lat="44.14208" lon="2.75221">
        <ele>966.26</ele>
        <time>2022-07-14T07:59:16Z</time>
      </trkpt>
      <trkpt lat="44.14205" lon="2.75236">
        <ele>968.67</ele>
        <time>2022-07-14T07:59:23Z</time>
      </trkpt>
      <trkpt lat="44.14201" lon="2.75248">
        <ele>970.59</ele>
        <time>2022-07-14T07:59:29Z</time>
      </trkpt>
      <trkpt lat="44.14196" lon="2.75264">
        <ele>972.51</ele>
        <time>2022-07-14T07:59:38Z</time>
      </trkpt>
      <trkpt lat="44.14192" lon="2.75278">
        <ele>972.51</ele>
        <time>2022-07-14T07:59:45Z</time>
      </trkpt>
      <trkpt lat="44.14193" lon="2.75293">
        <ele>970.59</ele>
        <time>2022-07-14T07:59:52Z</time>
      </trkpt>
      <trkpt lat="44.14201" lon="2.75306">
        <ele>963.38</ele>
        <time>2022-07-14T07:59:59Z</time>
      </trkpt>
      <trkpt lat="44.14212" lon="2.75314">
        <ele>959.53</ele>
        <time>2022-07-14T08:00:05Z</time>
      </trkpt>
      <trkpt lat="44.14223" lon="2.75319">
        <ele>956.65</ele>
        <time>2022-07-14T08:00:12Z</time>
      </trkpt>
      <trkpt lat="44.14233" lon="2.75323">
        <ele>955.21</ele>
        <time>2022-07-14T08:00:19Z</time>
      </trkpt>
      <trkpt lat="44.14243" lon="2.75324">
        <ele>955.21</ele>
        <time>2022-07-14T08:00:25Z</time>
      </trkpt>
      <trkpt lat="44.14254" lon="2.75326">
        <ele>953.77</ele>
        <time>2022-07-14T08:00:33Z</time>
      </trkpt>
      <trkpt lat="44.14266" lon="2.75326">
        <ele>949.44</ele>
        <time>2022-07-14T08:00:45Z</time>
      </trkpt>
      <trkpt lat="44.14279" lon="2.75324">
        <ele>947.04</ele>
        <time>2022-07-14T08:00:53Z</time>
      </trkpt>
      <trkpt lat="44.14289" lon="2.75324">
        <ele>944.15</ele>
        <time>2022-07-14T08:01:00Z</time>
      </trkpt>
      <trkpt lat="44.143" lon="2.75325">
        <ele>940.31</ele>
        <time>2022-07-14T08:01:07Z</time>
      </trkpt>
      <trkpt lat="44.14311" lon="2.75328">
        <ele>937.42</ele>
        <time>2022-07-14T08:01:15Z</time>
      </trkpt>
      <trkpt lat="44.14416" lon="2.75317">
        <ele>941.27</ele>
        <time>2022-07-14T08:11:50Z</time>
      </trkpt>
      <trkpt lat="44.145" lon="2.75345">
        <ele>929.73</ele>
        <time>2022-07-14T08:13:00Z</time>
      </trkpt>
      <trkpt lat="44.14548" lon="2.75486">
        <ele>914.35</ele>
        <time>2022-07-14T08:14:35Z</time>
      </trkpt>
      <trkpt lat="44.14565" lon="2.75502">
        <ele>934.54</ele>
        <time>2022-07-14T08:15:01Z</time>
      </trkpt>
      <trkpt lat="44.14575" lon="2.75502">
        <ele>937.9</ele>
        <time>2022-07-14T08:15:10Z</time>
      </trkpt>
      <trkpt lat="44.14586" lon="2.75504">
        <ele>938.86</ele>
        <time>2022-07-14T08:15:20Z</time>
      </trkpt>
      <trkpt lat="44.14614" lon="2.75519">
        <ele>942.23</ele>
        <time>2022-07-14T08:15:44Z</time>
      </trkpt>
      <trkpt lat="44.1463" lon="2.75544">
        <ele>933.58</ele>
        <time>2022-07-14T08:16:16Z</time>
      </trkpt>
      <trkpt lat="44.1468" lon="2.75594">
        <ele>930.69</ele>
        <time>2022-07-14T08:17:47Z</time>
      </trkpt>
      <trkpt lat="44.14693" lon="2.75604">
        <ele>934.06</ele>
        <time>2022-07-14T08:17:58Z</time>
      </trkpt>
      <trkpt lat="44.14705" lon="2.75615">
        <ele>936.46</ele>
        <time>2022-07-14T08:18:08Z</time>
      </trkpt>
      <trkpt lat="44.14722" lon="2.75624">
        <ele>940.31</ele>
        <time>2022-07-14T08:18:22Z</time>
      </trkpt>
      <trkpt lat="44.14737" lon="2.75631">
        <ele>941.27</ele>
        <time>2022-07-14T08:18:32Z</time>
      </trkpt>
      <trkpt lat="44.14749" lon="2.75638">
        <ele>942.23</ele>
        <time>2022-07-14T08:18:40Z</time>
      </trkpt>
      <trkpt lat="44.14761" lon="2.75645">
        <ele>942.23</ele>
        <time>2022-07-14T08:18:49Z</time>
      </trkpt>
      <trkpt lat="44.14772" lon="2.75651">
        <ele>941.27</ele>
        <time>2022-07-14T08:18:57Z</time>
      </trkpt>
      <trkpt lat="44.14785" lon="2.75658">
        <ele>940.31</ele>
        <time>2022-07-14T08:19:07Z</time>
      </trkpt>
      <trkpt lat="44.14797" lon="2.75664">
        <ele>940.31</ele>
        <time>2022-07-14T08:19:15Z</time>
      </trkpt>
      <trkpt lat="44.14809" lon="2.75671">
        <ele>940.31</ele>
        <time>2022-07-14T08:19:23Z</time>
      </trkpt>
      <trkpt lat="44.14821" lon="2.75681">
        <ele>940.79</ele>
        <time>2022-07-14T08:19:32Z</time>
      </trkpt>
      <trkpt lat="44.14832" lon="2.75689">
        <ele>940.31</ele>
        <time>2022-07-14T08:19:40Z</time>
      </trkpt>
      <trkpt lat="44.14843" lon="2.75698">
        <ele>940.31</ele>
        <time>2022-07-14T08:19:48Z</time>
      </trkpt>
      <trkpt lat="44.14853" lon="2.75705">
        <ele>940.31</ele>
        <time>2022-07-14T08:19:56Z</time>
      </trkpt>
      <trkpt lat="44.14863" lon="2.75713">
        <ele>939.83</ele>
        <time>2022-07-14T08:20:02Z</time>
      </trkpt>
      <trkpt lat="44.14872" lon="2.7572">
        <ele>939.83</ele>
        <time>2022-07-14T08:20:08Z</time>
      </trkpt>
      <trkpt lat="44.1488" lon="2.75728">
        <ele>941.27</ele>
        <time>2022-07-14T08:20:14Z</time>
      </trkpt>
      <trkpt lat="44.14889" lon="2.75735">
        <ele>941.75</ele>
        <time>2022-07-14T08:20:20Z</time>
      </trkpt>
      <trkpt lat="44.14897" lon="2.75742">
        <ele>942.71</ele>
        <time>2022-07-14T08:20:26Z</time>
      </trkpt>
      <trkpt lat="44.14905" lon="2.7575">
        <ele>943.19</ele>
        <time>2022-07-14T08:20:32Z</time>
      </trkpt>
      <trkpt lat="44.14913" lon="2.75759">
        <ele>943.19</ele>
        <time>2022-07-14T08:20:38Z</time>
      </trkpt>
      <trkpt lat="44.1492" lon="2.75768">
        <ele>942.23</ele>
        <time>2022-07-14T08:20:44Z</time>
      </trkpt>
      <trkpt lat="44.14928" lon="2.75777">
        <ele>941.75</ele>
        <time>2022-07-14T08:20:50Z</time>
      </trkpt>
      <trkpt lat="44.14935" lon="2.75786">
        <ele>941.75</ele>
        <time>2022-07-14T08:20:56Z</time>
      </trkpt>
      <trkpt lat="44.14943" lon="2.75794">
        <ele>941.75</ele>
        <time>2022-07-14T08:21:03Z</time>
      </trkpt>
      <trkpt lat="44.14952" lon="2.75803">
        <ele>941.27</ele>
        <time>2022-07-14T08:21:10Z</time>
      </trkpt>
      <trkpt lat="44.1496" lon="2.75812">
        <ele>940.79</ele>
        <time>2022-07-14T08:21:16Z</time>
      </trkpt>
      <trkpt lat="44.14968" lon="2.7582">
        <ele>941.27</ele>
        <time>2022-07-14T08:21:22Z</time>
      </trkpt>
      <trkpt lat="44.14977" lon="2.7583">
        <ele>941.75</ele>
        <time>2022-07-14T08:21:29Z</time>
      </trkpt>
      <trkpt lat="44.14986" lon="2.75838">
        <ele>941.75</ele>
        <time>2022-07-14T08:21:36Z</time>
      </trkpt>
      <trkpt lat="44.14999" lon="2.75847">
        <ele>941.27</ele>
        <time>2022-07-14T08:21:46Z</time>
      </trkpt>
      <trkpt lat="44.15007" lon="2.75855">
        <ele>941.75</ele>
        <time>2022-07-14T08:21:52Z</time>
      </trkpt>
      <trkpt lat="44.15016" lon="2.75865">
        <ele>941.75</ele>
        <time>2022-07-14T08:21:59Z</time>
      </trkpt>
      <trkpt lat="44.15025" lon="2.75871">
        <ele>942.23</ele>
        <time>2022-07-14T08:22:06Z</time>
      </trkpt>
      <trkpt lat="44.15037" lon="2.75881">
        <ele>942.71</ele>
        <time>2022-07-14T08:22:17Z</time>
      </trkpt>
      <trkpt lat="44.15048" lon="2.75889">
        <ele>942.71</ele>
        <time>2022-07-14T08:22:24Z</time>
      </trkpt>
      <trkpt lat="44.15056" lon="2.75899">
        <ele>943.19</ele>
        <time>2022-07-14T08:22:34Z</time>
      </trkpt>
      <trkpt lat="44.15053" lon="2.75911">
        <ele>943.19</ele>
        <time>2022-07-14T08:22:42Z</time>
      </trkpt>
      <trkpt lat="44.15048" lon="2.75923">
        <ele>944.63</ele>
        <time>2022-07-14T08:22:49Z</time>
      </trkpt>
      <trkpt lat="44.15043" lon="2.75935">
        <ele>945.59</ele>
        <time>2022-07-14T08:22:56Z</time>
      </trkpt>
      <trkpt lat="44.15038" lon="2.75948">
        <ele>945.59</ele>
        <time>2022-07-14T08:23:04Z</time>
      </trkpt>
      <trkpt lat="44.15033" lon="2.75962">
        <ele>947.52</ele>
        <time>2022-07-14T08:23:12Z</time>
      </trkpt>
      <trkpt lat="44.15027" lon="2.75975">
        <ele>949.92</ele>
        <time>2022-07-14T08:23:19Z</time>
      </trkpt>
      <trkpt lat="44.15022" lon="2.75988">
        <ele>951.84</ele>
        <time>2022-07-14T08:23:26Z</time>
      </trkpt>
      <trkpt lat="44.15018" lon="2.75999">
        <ele>953.77</ele>
        <time>2022-07-14T08:23:33Z</time>
      </trkpt>
      <trkpt lat="44.15012" lon="2.76012">
        <ele>955.21</ele>
        <time>2022-07-14T08:23:41Z</time>
      </trkpt>
      <trkpt lat="44.15006" lon="2.76026">
        <ele>956.17</ele>
        <time>2022-07-14T08:23:48Z</time>
      </trkpt>
      <trkpt lat="44.15001" lon="2.76039">
        <ele>955.21</ele>
        <time>2022-07-14T08:23:55Z</time>
      </trkpt>
      <trkpt lat="44.14995" lon="2.7605">
        <ele>955.69</ele>
        <time>2022-07-14T08:24:02Z</time>
      </trkpt>
      <trkpt lat="44.1499" lon="2.7606">
        <ele>956.17</ele>
        <time>2022-07-14T08:24:08Z</time>
      </trkpt>
      <trkpt lat="44.14984" lon="2.7607">
        <ele>957.13</ele>
        <time>2022-07-14T08:24:15Z</time>
      </trkpt>
      <trkpt lat="44.14978" lon="2.76081">
        <ele>957.61</ele>
        <time>2022-07-14T08:24:22Z</time>
      </trkpt>
      <trkpt lat="44.14972" lon="2.76093">
        <ele>958.09</ele>
        <time>2022-07-14T08:24:30Z</time>
      </trkpt>
      <trkpt lat="44.14967" lon="2.76105">
        <ele>958.57</ele>
        <time>2022-07-14T08:24:37Z</time>
      </trkpt>
      <trkpt lat="44.14962" lon="2.76116">
        <ele>958.09</ele>
        <time>2022-07-14T08:24:44Z</time>
      </trkpt>
      <trkpt lat="44.14956" lon="2.76127">
        <ele>959.05</ele>
        <time>2022-07-14T08:24:51Z</time>
      </trkpt>
      <trkpt lat="44.14951" lon="2.76138">
        <ele>960.01</ele>
        <time>2022-07-14T08:24:58Z</time>
      </trkpt>
      <trkpt lat="44.14946" lon="2.7615">
        <ele>960.01</ele>
        <time>2022-07-14T08:25:05Z</time>
      </trkpt>
      <trkpt lat="44.14941" lon="2.76162">
        <ele>961.46</ele>
        <time>2022-07-14T08:25:12Z</time>
      </trkpt>
      <trkpt lat="44.14937" lon="2.76174">
        <ele>962.42</ele>
        <time>2022-07-14T08:25:19Z</time>
      </trkpt>
      <trkpt lat="44.14933" lon="2.76187">
        <ele>962.42</ele>
        <time>2022-07-14T08:25:26Z</time>
      </trkpt>
      <trkpt lat="44.1493" lon="2.762">
        <ele>961.94</ele>
        <time>2022-07-14T08:25:33Z</time>
      </trkpt>
      <trkpt lat="44.14926" lon="2.76213">
        <ele>961.94</ele>
        <time>2022-07-14T08:25:40Z</time>
      </trkpt>
      <trkpt lat="44.14923" lon="2.76226">
        <ele>961.94</ele>
        <time>2022-07-14T08:25:46Z</time>
      </trkpt>
      <trkpt lat="44.14919" lon="2.76238">
        <ele>961.46</ele>
        <time>2022-07-14T08:25:52Z</time>
      </trkpt>
      <trkpt lat="44.14916" lon="2.76253">
        <ele>960.98</ele>
        <time>2022-07-14T08:25:59Z</time>
      </trkpt>
      <trkpt lat="44.14912" lon="2.76265">
        <ele>960.01</ele>
        <time>2022-07-14T08:26:05Z</time>
      </trkpt>
      <trkpt lat="44.14909" lon="2.76279">
        <ele>958.09</ele>
        <time>2022-07-14T08:26:12Z</time>
      </trkpt>
      <trkpt lat="44.14906" lon="2.76292">
        <ele>956.17</ele>
        <time>2022-07-14T08:26:19Z</time>
      </trkpt>
      <trkpt lat="44.14903" lon="2.76305">
        <ele>955.69</ele>
        <time>2022-07-14T08:26:25Z</time>
      </trkpt>
      <trkpt lat="44.149" lon="2.76319">
        <ele>954.73</ele>
        <time>2022-07-14T08:26:32Z</time>
      </trkpt>
      <trkpt lat="44.14897" lon="2.76334">
        <ele>952.32</ele>
        <time>2022-07-14T08:26:40Z</time>
      </trkpt>
      <trkpt lat="44.14895" lon="2.76348">
        <ele>949.92</ele>
        <time>2022-07-14T08:26:48Z</time>
      </trkpt>
      <trkpt lat="44.1489" lon="2.76363">
        <ele>948.48</ele>
        <time>2022-07-14T08:26:57Z</time>
      </trkpt>
      <trkpt lat="44.14885" lon="2.76375">
        <ele>950.4</ele>
        <time>2022-07-14T08:27:05Z</time>
      </trkpt>
      <trkpt lat="44.1488" lon="2.76391">
        <ele>951.84</ele>
        <time>2022-07-14T08:27:12Z</time>
      </trkpt>
      <trkpt lat="44.14875" lon="2.76411">
        <ele>956.17</ele>
        <time>2022-07-14T08:27:20Z</time>
      </trkpt>
      <trkpt lat="44.14869" lon="2.76427">
        <ele>958.57</ele>
        <time>2022-07-14T08:27:28Z</time>
      </trkpt>
      <trkpt lat="44.14864" lon="2.76442">
        <ele>959.53</ele>
        <time>2022-07-14T08:27:35Z</time>
      </trkpt>
      <trkpt lat="44.14857" lon="2.76457">
        <ele>960.98</ele>
        <time>2022-07-14T08:27:43Z</time>
      </trkpt>
      <trkpt lat="44.1485" lon="2.76468">
        <ele>961.94</ele>
        <time>2022-07-14T08:27:50Z</time>
      </trkpt>
      <trkpt lat="44.14843" lon="2.76479">
        <ele>962.9</ele>
        <time>2022-07-14T08:27:57Z</time>
      </trkpt>
      <trkpt lat="44.14836" lon="2.76489">
        <ele>963.86</ele>
        <time>2022-07-14T08:28:03Z</time>
      </trkpt>
      <trkpt lat="44.14828" lon="2.76498">
        <ele>961.94</ele>
        <time>2022-07-14T08:28:10Z</time>
      </trkpt>
      <trkpt lat="44.14821" lon="2.76508">
        <ele>960.49</ele>
        <time>2022-07-14T08:28:17Z</time>
      </trkpt>
      <trkpt lat="44.14814" lon="2.76517">
        <ele>959.53</ele>
        <time>2022-07-14T08:28:23Z</time>
      </trkpt>
      <trkpt lat="44.14807" lon="2.76526">
        <ele>959.05</ele>
        <time>2022-07-14T08:28:30Z</time>
      </trkpt>
      <trkpt lat="44.14799" lon="2.76535">
        <ele>958.09</ele>
        <time>2022-07-14T08:28:38Z</time>
      </trkpt>
      <trkpt lat="44.14791" lon="2.76547">
        <ele>956.17</ele>
        <time>2022-07-14T08:28:46Z</time>
      </trkpt>
      <trkpt lat="44.14784" lon="2.76557">
        <ele>956.17</ele>
        <time>2022-07-14T08:28:53Z</time>
      </trkpt>
      <trkpt lat="44.14776" lon="2.76567">
        <ele>955.69</ele>
        <time>2022-07-14T08:29:01Z</time>
      </trkpt>
      <trkpt lat="44.14769" lon="2.76576">
        <ele>956.17</ele>
        <time>2022-07-14T08:29:08Z</time>
      </trkpt>
      <trkpt lat="44.1476" lon="2.76588">
        <ele>956.65</ele>
        <time>2022-07-14T08:29:15Z</time>
      </trkpt>
      <trkpt lat="44.14753" lon="2.76597">
        <ele>957.13</ele>
        <time>2022-07-14T08:29:22Z</time>
      </trkpt>
      <trkpt lat="44.14746" lon="2.76609">
        <ele>958.57</ele>
        <time>2022-07-14T08:29:29Z</time>
      </trkpt>
      <trkpt lat="44.1474" lon="2.7662">
        <ele>958.57</ele>
        <time>2022-07-14T08:29:36Z</time>
      </trkpt>
      <trkpt lat="44.14734" lon="2.76629">
        <ele>958.57</ele>
        <time>2022-07-14T08:29:42Z</time>
      </trkpt>
      <trkpt lat="44.14726" lon="2.76637">
        <ele>959.53</ele>
        <time>2022-07-14T08:29:52Z</time>
      </trkpt>
      <trkpt lat="44.1472" lon="2.76646">
        <ele>960.01</ele>
        <time>2022-07-14T08:29:59Z</time>
      </trkpt>
      <trkpt lat="44.14712" lon="2.76655">
        <ele>960.49</ele>
        <time>2022-07-14T08:30:06Z</time>
      </trkpt>
      <trkpt lat="44.14705" lon="2.76663">
        <ele>960.98</ele>
        <time>2022-07-14T08:30:13Z</time>
      </trkpt>
      <trkpt lat="44.14702" lon="2.76676">
        <ele>961.46</ele>
        <time>2022-07-14T08:30:21Z</time>
      </trkpt>
      <trkpt lat="44.14703" lon="2.76691">
        <ele>960.49</ele>
        <time>2022-07-14T08:30:29Z</time>
      </trkpt>
      <trkpt lat="44.1471" lon="2.76707">
        <ele>958.09</ele>
        <time>2022-07-14T08:30:37Z</time>
      </trkpt>
      <trkpt lat="44.14717" lon="2.7672">
        <ele>956.17</ele>
        <time>2022-07-14T08:30:44Z</time>
      </trkpt>
      <trkpt lat="44.14723" lon="2.76733">
        <ele>956.17</ele>
        <time>2022-07-14T08:30:51Z</time>
      </trkpt>
      <trkpt lat="44.14729" lon="2.76746">
        <ele>956.65</ele>
        <time>2022-07-14T08:30:58Z</time>
      </trkpt>
      <trkpt lat="44.14734" lon="2.76758">
        <ele>958.09</ele>
        <time>2022-07-14T08:31:04Z</time>
      </trkpt>
      <trkpt lat="44.14739" lon="2.76771">
        <ele>960.98</ele>
        <time>2022-07-14T08:31:11Z</time>
      </trkpt>
      <trkpt lat="44.14744" lon="2.76785">
        <ele>960.98</ele>
        <time>2022-07-14T08:31:18Z</time>
      </trkpt>
      <trkpt lat="44.14749" lon="2.76797">
        <ele>962.42</ele>
        <time>2022-07-14T08:31:25Z</time>
      </trkpt>
      <trkpt lat="44.14756" lon="2.76809">
        <ele>962.9</ele>
        <time>2022-07-14T08:31:32Z</time>
      </trkpt>
      <trkpt lat="44.14762" lon="2.76822">
        <ele>962.42</ele>
        <time>2022-07-14T08:31:39Z</time>
      </trkpt>
      <trkpt lat="44.14768" lon="2.76834">
        <ele>961.94</ele>
        <time>2022-07-14T08:31:45Z</time>
      </trkpt>
      <trkpt lat="44.14774" lon="2.76847">
        <ele>960.49</ele>
        <time>2022-07-14T08:31:52Z</time>
      </trkpt>
      <trkpt lat="44.14781" lon="2.76859">
        <ele>960.49</ele>
        <time>2022-07-14T08:31:59Z</time>
      </trkpt>
      <trkpt lat="44.14789" lon="2.76871">
        <ele>960.49</ele>
        <time>2022-07-14T08:32:06Z</time>
      </trkpt>
      <trkpt lat="44.14797" lon="2.76882">
        <ele>960.01</ele>
        <time>2022-07-14T08:32:13Z</time>
      </trkpt>
      <trkpt lat="44.14805" lon="2.76893">
        <ele>959.53</ele>
        <time>2022-07-14T08:32:20Z</time>
      </trkpt>
      <trkpt lat="44.14813" lon="2.76903">
        <ele>959.53</ele>
        <time>2022-07-14T08:32:27Z</time>
      </trkpt>
      <trkpt lat="44.14821" lon="2.76915">
        <ele>958.57</ele>
        <time>2022-07-14T08:32:34Z</time>
      </trkpt>
      <trkpt lat="44.14829" lon="2.76925">
        <ele>957.61</ele>
        <time>2022-07-14T08:32:41Z</time>
      </trkpt>
      <trkpt lat="44.14837" lon="2.76935">
        <ele>956.17</ele>
        <time>2022-07-14T08:32:48Z</time>
      </trkpt>
      <trkpt lat="44.14844" lon="2.76945">
        <ele>955.21</ele>
        <time>2022-07-14T08:32:55Z</time>
      </trkpt>
      <trkpt lat="44.14851" lon="2.76956">
        <ele>954.73</ele>
        <time>2022-07-14T08:33:01Z</time>
      </trkpt>
      <trkpt lat="44.1486" lon="2.76967">
        <ele>954.25</ele>
        <time>2022-07-14T08:33:08Z</time>
      </trkpt>
      <trkpt lat="44.14867" lon="2.76978">
        <ele>953.28</ele>
        <time>2022-07-14T08:33:15Z</time>
      </trkpt>
      <trkpt lat="44.14875" lon="2.7699">
        <ele>952.32</ele>
        <time>2022-07-14T08:33:22Z</time>
      </trkpt>
      <trkpt lat="44.14883" lon="2.77002">
        <ele>950.88</ele>
        <time>2022-07-14T08:33:29Z</time>
      </trkpt>
      <trkpt lat="44.14891" lon="2.77013">
        <ele>949.44</ele>
        <time>2022-07-14T08:33:36Z</time>
      </trkpt>
      <trkpt lat="44.14898" lon="2.77025">
        <ele>948.96</ele>
        <time>2022-07-14T08:33:43Z</time>
      </trkpt>
      <trkpt lat="44.14904" lon="2.77037">
        <ele>948</ele>
        <time>2022-07-14T08:33:50Z</time>
      </trkpt>
      <trkpt lat="44.14911" lon="2.77049">
        <ele>948.48</ele>
        <time>2022-07-14T08:33:57Z</time>
      </trkpt>
      <trkpt lat="44.14918" lon="2.7706">
        <ele>948.48</ele>
        <time>2022-07-14T08:34:04Z</time>
      </trkpt>
      <trkpt lat="44.14926" lon="2.7707">
        <ele>949.44</ele>
        <time>2022-07-14T08:34:10Z</time>
      </trkpt>
      <trkpt lat="44.14933" lon="2.77082">
        <ele>950.88</ele>
        <time>2022-07-14T08:34:17Z</time>
      </trkpt>
      <trkpt lat="44.1494" lon="2.77092">
        <ele>953.28</ele>
        <time>2022-07-14T08:34:24Z</time>
      </trkpt>
      <trkpt lat="44.14946" lon="2.77105">
        <ele>955.69</ele>
        <time>2022-07-14T08:34:31Z</time>
      </trkpt>
      <trkpt lat="44.14953" lon="2.77116">
        <ele>957.13</ele>
        <time>2022-07-14T08:34:38Z</time>
      </trkpt>
      <trkpt lat="44.14961" lon="2.77126">
        <ele>958.09</ele>
        <time>2022-07-14T08:34:45Z</time>
      </trkpt>
      <trkpt lat="44.14969" lon="2.77135">
        <ele>957.61</ele>
        <time>2022-07-14T08:34:52Z</time>
      </trkpt>
      <trkpt lat="44.14976" lon="2.77145">
        <ele>957.13</ele>
        <time>2022-07-14T08:34:59Z</time>
      </trkpt>
      <trkpt lat="44.14984" lon="2.77154">
        <ele>955.69</ele>
        <time>2022-07-14T08:35:06Z</time>
      </trkpt>
      <trkpt lat="44.14992" lon="2.77166">
        <ele>955.69</ele>
        <time>2022-07-14T08:35:13Z</time>
      </trkpt>
      <trkpt lat="44.14998" lon="2.77178">
        <ele>954.73</ele>
        <time>2022-07-14T08:35:20Z</time>
      </trkpt>
      <trkpt lat="44.15003" lon="2.77192">
        <ele>954.25</ele>
        <time>2022-07-14T08:35:27Z</time>
      </trkpt>
      <trkpt lat="44.15008" lon="2.77205">
        <ele>953.28</ele>
        <time>2022-07-14T08:35:34Z</time>
      </trkpt>
      <trkpt lat="44.15013" lon="2.77218">
        <ele>953.28</ele>
        <time>2022-07-14T08:35:41Z</time>
      </trkpt>
      <trkpt lat="44.15017" lon="2.77232">
        <ele>952.8</ele>
        <time>2022-07-14T08:35:48Z</time>
      </trkpt>
      <trkpt lat="44.15021" lon="2.77246">
        <ele>952.32</ele>
        <time>2022-07-14T08:35:55Z</time>
      </trkpt>
      <trkpt lat="44.15025" lon="2.77259">
        <ele>952.32</ele>
        <time>2022-07-14T08:36:02Z</time>
      </trkpt>
      <trkpt lat="44.15029" lon="2.77273">
        <ele>951.36</ele>
        <time>2022-07-14T08:36:09Z</time>
      </trkpt>
      <trkpt lat="44.15033" lon="2.77286">
        <ele>951.36</ele>
        <time>2022-07-14T08:36:16Z</time>
      </trkpt>
      <trkpt lat="44.15038" lon="2.77301">
        <ele>952.32</ele>
        <time>2022-07-14T08:36:23Z</time>
      </trkpt>
      <trkpt lat="44.15041" lon="2.77315">
        <ele>952.32</ele>
        <time>2022-07-14T08:36:30Z</time>
      </trkpt>
      <trkpt lat="44.15044" lon="2.77329">
        <ele>952.32</ele>
        <time>2022-07-14T08:36:37Z</time>
      </trkpt>
      <trkpt lat="44.15046" lon="2.77345">
        <ele>951.84</ele>
        <time>2022-07-14T08:36:44Z</time>
      </trkpt>
      <trkpt lat="44.15049" lon="2.7736">
        <ele>952.8</ele>
        <time>2022-07-14T08:36:51Z</time>
      </trkpt>
      <trkpt lat="44.15052" lon="2.77374">
        <ele>952.8</ele>
        <time>2022-07-14T08:36:58Z</time>
      </trkpt>
      <trkpt lat="44.15056" lon="2.77389">
        <ele>953.28</ele>
        <time>2022-07-14T08:37:05Z</time>
      </trkpt>
      <trkpt lat="44.15058" lon="2.77404">
        <ele>952.8</ele>
        <time>2022-07-14T08:37:12Z</time>
      </trkpt>
      <trkpt lat="44.15061" lon="2.77417">
        <ele>953.77</ele>
        <time>2022-07-14T08:37:18Z</time>
      </trkpt>
      <trkpt lat="44.15064" lon="2.77432">
        <ele>954.25</ele>
        <time>2022-07-14T08:37:25Z</time>
      </trkpt>
      <trkpt lat="44.15066" lon="2.77446">
        <ele>954.25</ele>
        <time>2022-07-14T08:37:32Z</time>
      </trkpt>
      <trkpt lat="44.15069" lon="2.7746">
        <ele>953.77</ele>
        <time>2022-07-14T08:37:39Z</time>
      </trkpt>
      <trkpt lat="44.15072" lon="2.77473">
        <ele>953.77</ele>
        <time>2022-07-14T08:37:45Z</time>
      </trkpt>
      <trkpt lat="44.15076" lon="2.77487">
        <ele>953.28</ele>
        <time>2022-07-14T08:37:49Z</time>
      </trkpt>
      <trkpt lat="44.1508" lon="2.77502">
        <ele>952.8</ele>
        <time>2022-07-14T08:37:53Z</time>
      </trkpt>
      <trkpt lat="44.15086" lon="2.77514">
        <ele>951.84</ele>
        <time>2022-07-14T08:37:58Z</time>
      </trkpt>
      <trkpt lat="44.15094" lon="2.77529">
        <ele>949.92</ele>
        <time>2022-07-14T08:38:04Z</time>
      </trkpt>
      <trkpt lat="44.15102" lon="2.77546">
        <ele>948.48</ele>
        <time>2022-07-14T08:38:09Z</time>
      </trkpt>
      <trkpt lat="44.15107" lon="2.77563">
        <ele>947.52</ele>
        <time>2022-07-14T08:38:13Z</time>
      </trkpt>
      <trkpt lat="44.15112" lon="2.77577">
        <ele>946.56</ele>
        <time>2022-07-14T08:38:16Z</time>
      </trkpt>
      <trkpt lat="44.15115" lon="2.7759">
        <ele>946.07</ele>
        <time>2022-07-14T08:38:19Z</time>
      </trkpt>
      <trkpt lat="44.1512" lon="2.77603">
        <ele>945.11</ele>
        <time>2022-07-14T08:38:22Z</time>
      </trkpt>
      <trkpt lat="44.15125" lon="2.77616">
        <ele>944.63</ele>
        <time>2022-07-14T08:38:25Z</time>
      </trkpt>
      <trkpt lat="44.1513" lon="2.77629">
        <ele>944.63</ele>
        <time>2022-07-14T08:38:28Z</time>
      </trkpt>
      <trkpt lat="44.15137" lon="2.77642">
        <ele>945.11</ele>
        <time>2022-07-14T08:38:31Z</time>
      </trkpt>
      <trkpt lat="44.15142" lon="2.77654">
        <ele>945.59</ele>
        <time>2022-07-14T08:38:34Z</time>
      </trkpt>
      <trkpt lat="44.15148" lon="2.77667">
        <ele>946.07</ele>
        <time>2022-07-14T08:38:37Z</time>
      </trkpt>
      <trkpt lat="44.15154" lon="2.7768">
        <ele>946.07</ele>
        <time>2022-07-14T08:38:40Z</time>
      </trkpt>
      <trkpt lat="44.1516" lon="2.77694">
        <ele>946.56</ele>
        <time>2022-07-14T08:38:43Z</time>
      </trkpt>
      <trkpt lat="44.15166" lon="2.77706">
        <ele>947.52</ele>
        <time>2022-07-14T08:38:46Z</time>
      </trkpt>
      <trkpt lat="44.15171" lon="2.77719">
        <ele>948</ele>
        <time>2022-07-14T08:38:49Z</time>
      </trkpt>
      <trkpt lat="44.15177" lon="2.77732">
        <ele>948</ele>
        <time>2022-07-14T08:38:52Z</time>
      </trkpt>
      <trkpt lat="44.15183" lon="2.77747">
        <ele>948.48</ele>
        <time>2022-07-14T08:38:55Z</time>
      </trkpt>
      <trkpt lat="44.15187" lon="2.77762">
        <ele>948.48</ele>
        <time>2022-07-14T08:38:58Z</time>
      </trkpt>
      <trkpt lat="44.1519" lon="2.77778">
        <ele>948.48</ele>
        <time>2022-07-14T08:39:01Z</time>
      </trkpt>
      <trkpt lat="44.15194" lon="2.77793">
        <ele>949.44</ele>
        <time>2022-07-14T08:39:04Z</time>
      </trkpt>
      <trkpt lat="44.15197" lon="2.77807">
        <ele>950.4</ele>
        <time>2022-07-14T08:39:07Z</time>
      </trkpt>
      <trkpt lat="44.152" lon="2.77822">
        <ele>951.84</ele>
        <time>2022-07-14T08:39:10Z</time>
      </trkpt>
      <trkpt lat="44.15202" lon="2.77836">
        <ele>952.32</ele>
        <time>2022-07-14T08:39:13Z</time>
      </trkpt>
      <trkpt lat="44.15203" lon="2.7785">
        <ele>952.8</ele>
        <time>2022-07-14T08:39:16Z</time>
      </trkpt>
      <trkpt lat="44.15206" lon="2.77863">
        <ele>953.28</ele>
        <time>2022-07-14T08:39:19Z</time>
      </trkpt>
      <trkpt lat="44.15208" lon="2.77876">
        <ele>953.77</ele>
        <time>2022-07-14T08:39:22Z</time>
      </trkpt>
      <trkpt lat="44.1521" lon="2.77889">
        <ele>954.73</ele>
        <time>2022-07-14T08:39:25Z</time>
      </trkpt>
      <trkpt lat="44.15212" lon="2.77906">
        <ele>955.21</ele>
        <time>2022-07-14T08:39:29Z</time>
      </trkpt>
      <trkpt lat="44.15215" lon="2.77923">
        <ele>955.69</ele>
        <time>2022-07-14T08:39:33Z</time>
      </trkpt>
      <trkpt lat="44.15217" lon="2.77939">
        <ele>957.13</ele>
        <time>2022-07-14T08:39:37Z</time>
      </trkpt>
      <trkpt lat="44.1522" lon="2.77954">
        <ele>957.61</ele>
        <time>2022-07-14T08:39:41Z</time>
      </trkpt>
      <trkpt lat="44.15222" lon="2.7797">
        <ele>958.09</ele>
        <time>2022-07-14T08:39:45Z</time>
      </trkpt>
      <trkpt lat="44.15225" lon="2.77987">
        <ele>958.57</ele>
        <time>2022-07-14T08:39:49Z</time>
      </trkpt>
      <trkpt lat="44.15227" lon="2.78003">
        <ele>959.05</ele>
        <time>2022-07-14T08:39:53Z</time>
      </trkpt>
      <trkpt lat="44.15229" lon="2.7802">
        <ele>960.01</ele>
        <time>2022-07-14T08:39:57Z</time>
      </trkpt>
      <trkpt lat="44.15231" lon="2.78035">
        <ele>960.49</ele>
        <time>2022-07-14T08:40:01Z</time>
      </trkpt>
      <trkpt lat="44.15233" lon="2.7805">
        <ele>961.46</ele>
        <time>2022-07-14T08:40:05Z</time>
      </trkpt>
      <trkpt lat="44.15235" lon="2.78065">
        <ele>961.46</ele>
        <time>2022-07-14T08:40:09Z</time>
      </trkpt>
      <trkpt lat="44.15237" lon="2.7808">
        <ele>961.46</ele>
        <time>2022-07-14T08:40:13Z</time>
      </trkpt>
      <trkpt lat="44.1524" lon="2.78096">
        <ele>960.98</ele>
        <time>2022-07-14T08:40:17Z</time>
      </trkpt>
      <trkpt lat="44.15242" lon="2.78113">
        <ele>960.98</ele>
        <time>2022-07-14T08:40:21Z</time>
      </trkpt>
      <trkpt lat="44.15245" lon="2.78131">
        <ele>960.98</ele>
        <time>2022-07-14T08:40:25Z</time>
      </trkpt>
      <trkpt lat="44.15247" lon="2.78144">
        <ele>961.46</ele>
        <time>2022-07-14T08:40:28Z</time>
      </trkpt>
      <trkpt lat="44.1525" lon="2.78158">
        <ele>961.46</ele>
        <time>2022-07-14T08:40:31Z</time>
      </trkpt>
      <trkpt lat="44.15253" lon="2.78172">
        <ele>961.46</ele>
        <time>2022-07-14T08:40:34Z</time>
      </trkpt>
      <trkpt lat="44.15256" lon="2.78186">
        <ele>961.46</ele>
        <time>2022-07-14T08:40:37Z</time>
      </trkpt>
      <trkpt lat="44.15259" lon="2.782">
        <ele>961.46</ele>
        <time>2022-07-14T08:40:40Z</time>
      </trkpt>
      <trkpt lat="44.15263" lon="2.78214">
        <ele>961.46</ele>
        <time>2022-07-14T08:40:43Z</time>
      </trkpt>
      <trkpt lat="44.15266" lon="2.78228">
        <ele>961.46</ele>
        <time>2022-07-14T08:40:46Z</time>
      </trkpt>
      <trkpt lat="44.1527" lon="2.78241">
        <ele>961.94</ele>
        <time>2022-07-14T08:40:49Z</time>
      </trkpt>
      <trkpt lat="44.15274" lon="2.78254">
        <ele>961.94</ele>
        <time>2022-07-14T08:40:52Z</time>
      </trkpt>
      <trkpt lat="44.15278" lon="2.78268">
        <ele>961.94</ele>
        <time>2022-07-14T08:40:55Z</time>
      </trkpt>
      <trkpt lat="44.1528" lon="2.78281">
        <ele>961.94</ele>
        <time>2022-07-14T08:40:58Z</time>
      </trkpt>
      <trkpt lat="44.15284" lon="2.78294">
        <ele>961.46</ele>
        <time>2022-07-14T08:41:01Z</time>
      </trkpt>
      <trkpt lat="44.15288" lon="2.78309">
        <ele>960.49</ele>
        <time>2022-07-14T08:41:05Z</time>
      </trkpt>
      <trkpt lat="44.15292" lon="2.78321">
        <ele>960.98</ele>
        <time>2022-07-14T08:41:11Z</time>
      </trkpt>
      <trkpt lat="44.15295" lon="2.78335">
        <ele>960.98</ele>
        <time>2022-07-14T08:41:18Z</time>
      </trkpt>
      <trkpt lat="44.15299" lon="2.78348">
        <ele>960.98</ele>
        <time>2022-07-14T08:41:25Z</time>
      </trkpt>
      <trkpt lat="44.15303" lon="2.78361">
        <ele>960.98</ele>
        <time>2022-07-14T08:41:32Z</time>
      </trkpt>
      <trkpt lat="44.15306" lon="2.78375">
        <ele>960.98</ele>
        <time>2022-07-14T08:41:39Z</time>
      </trkpt>
      <trkpt lat="44.1531" lon="2.78387">
        <ele>960.98</ele>
        <time>2022-07-14T08:41:45Z</time>
      </trkpt>
      <trkpt lat="44.15313" lon="2.784">
        <ele>960.98</ele>
        <time>2022-07-14T08:41:51Z</time>
      </trkpt>
      <trkpt lat="44.15317" lon="2.78413">
        <ele>960.98</ele>
        <time>2022-07-14T08:41:57Z</time>
      </trkpt>
      <trkpt lat="44.15321" lon="2.78429">
        <ele>960.49</ele>
        <time>2022-07-14T08:42:01Z</time>
      </trkpt>
      <trkpt lat="44.15325" lon="2.78442">
        <ele>960.49</ele>
        <time>2022-07-14T08:42:04Z</time>
      </trkpt>
      <trkpt lat="44.1533" lon="2.78457">
        <ele>960.49</ele>
        <time>2022-07-14T08:42:07Z</time>
      </trkpt>
      <trkpt lat="44.15334" lon="2.78472">
        <ele>960.49</ele>
        <time>2022-07-14T08:42:10Z</time>
      </trkpt>
      <trkpt lat="44.15339" lon="2.78486">
        <ele>960.98</ele>
        <time>2022-07-14T08:42:13Z</time>
      </trkpt>
      <trkpt lat="44.15345" lon="2.785">
        <ele>960.98</ele>
        <time>2022-07-14T08:42:16Z</time>
      </trkpt>
      <trkpt lat="44.1535" lon="2.78512">
        <ele>961.46</ele>
        <time>2022-07-14T08:42:19Z</time>
      </trkpt>
      <trkpt lat="44.15357" lon="2.78524">
        <ele>962.42</ele>
        <time>2022-07-14T08:42:22Z</time>
      </trkpt>
      <trkpt lat="44.15364" lon="2.78536">
        <ele>962.9</ele>
        <time>2022-07-14T08:42:25Z</time>
      </trkpt>
      <trkpt lat="44.15373" lon="2.78548">
        <ele>962.9</ele>
        <time>2022-07-14T08:42:29Z</time>
      </trkpt>
      <trkpt lat="44.15384" lon="2.78557">
        <ele>964.82</ele>
        <time>2022-07-14T08:42:35Z</time>
      </trkpt>
      <trkpt lat="44.15395" lon="2.78565">
        <ele>967.22</ele>
        <time>2022-07-14T08:42:43Z</time>
      </trkpt>
      <trkpt lat="44.15402" lon="2.78577">
        <ele>972.51</ele>
        <time>2022-07-14T08:42:50Z</time>
      </trkpt>
      <trkpt lat="44.15409" lon="2.78588">
        <ele>974.43</ele>
        <time>2022-07-14T08:42:57Z</time>
      </trkpt>
      <trkpt lat="44.15415" lon="2.78598">
        <ele>974.91</ele>
        <time>2022-07-14T08:43:03Z</time>
      </trkpt>
      <trkpt lat="44.15422" lon="2.78608">
        <ele>975.39</ele>
        <time>2022-07-14T08:43:09Z</time>
      </trkpt>
      <trkpt lat="44.15428" lon="2.7862">
        <ele>976.36</ele>
        <time>2022-07-14T08:43:16Z</time>
      </trkpt>
      <trkpt lat="44.15436" lon="2.78632">
        <ele>976.84</ele>
        <time>2022-07-14T08:43:23Z</time>
      </trkpt>
      <trkpt lat="44.15443" lon="2.78642">
        <ele>978.28</ele>
        <time>2022-07-14T08:43:30Z</time>
      </trkpt>
      <trkpt lat="44.1545" lon="2.78652">
        <ele>979.24</ele>
        <time>2022-07-14T08:43:36Z</time>
      </trkpt>
      <trkpt lat="44.15456" lon="2.78662">
        <ele>980.68</ele>
        <time>2022-07-14T08:43:43Z</time>
      </trkpt>
      <trkpt lat="44.15463" lon="2.78673">
        <ele>981.64</ele>
        <time>2022-07-14T08:43:50Z</time>
      </trkpt>
      <trkpt lat="44.1547" lon="2.78683">
        <ele>982.6</ele>
        <time>2022-07-14T08:43:57Z</time>
      </trkpt>
      <trkpt lat="44.15477" lon="2.78694">
        <ele>984.05</ele>
        <time>2022-07-14T08:44:04Z</time>
      </trkpt>
      <trkpt lat="44.15484" lon="2.78706">
        <ele>985.01</ele>
        <time>2022-07-14T08:44:11Z</time>
      </trkpt>
      <trkpt lat="44.1549" lon="2.78718">
        <ele>985.01</ele>
        <time>2022-07-14T08:44:18Z</time>
      </trkpt>
      <trkpt lat="44.15496" lon="2.78729">
        <ele>985.49</ele>
        <time>2022-07-14T08:44:25Z</time>
      </trkpt>
      <trkpt lat="44.15501" lon="2.78741">
        <ele>985.97</ele>
        <time>2022-07-14T08:44:31Z</time>
      </trkpt>
      <trkpt lat="44.15506" lon="2.78752">
        <ele>986.45</ele>
        <time>2022-07-14T08:44:37Z</time>
      </trkpt>
      <trkpt lat="44.15509" lon="2.78764">
        <ele>986.93</ele>
        <time>2022-07-14T08:44:43Z</time>
      </trkpt>
      <trkpt lat="44.15514" lon="2.78774">
        <ele>987.41</ele>
        <time>2022-07-14T08:44:49Z</time>
      </trkpt>
      <trkpt lat="44.15518" lon="2.78786">
        <ele>987.41</ele>
        <time>2022-07-14T08:44:55Z</time>
      </trkpt>
      <trkpt lat="44.15524" lon="2.78797">
        <ele>986.93</ele>
        <time>2022-07-14T08:44:59Z</time>
      </trkpt>
      <trkpt lat="44.1553" lon="2.78806">
        <ele>986.45</ele>
        <time>2022-07-14T08:45:05Z</time>
      </trkpt>
      <trkpt lat="44.15537" lon="2.78817">
        <ele>985.97</ele>
        <time>2022-07-14T08:45:12Z</time>
      </trkpt>
      <trkpt lat="44.15543" lon="2.78828">
        <ele>985.97</ele>
        <time>2022-07-14T08:45:19Z</time>
      </trkpt>
      <trkpt lat="44.1555" lon="2.78839">
        <ele>985.49</ele>
        <time>2022-07-14T08:45:26Z</time>
      </trkpt>
      <trkpt lat="44.15556" lon="2.78849">
        <ele>985.49</ele>
        <time>2022-07-14T08:45:32Z</time>
      </trkpt>
      <trkpt lat="44.15561" lon="2.7886">
        <ele>985.97</ele>
        <time>2022-07-14T08:45:38Z</time>
      </trkpt>
      <trkpt lat="44.15567" lon="2.78871">
        <ele>985.97</ele>
        <time>2022-07-14T08:45:44Z</time>
      </trkpt>
      <trkpt lat="44.15574" lon="2.78882">
        <ele>985.97</ele>
        <time>2022-07-14T08:45:51Z</time>
      </trkpt>
      <trkpt lat="44.1558" lon="2.78892">
        <ele>985.49</ele>
        <time>2022-07-14T08:45:57Z</time>
      </trkpt>
      <trkpt lat="44.15586" lon="2.78903">
        <ele>985.49</ele>
        <time>2022-07-14T08:46:03Z</time>
      </trkpt>
      <trkpt lat="44.15592" lon="2.78913">
        <ele>985.97</ele>
        <time>2022-07-14T08:46:09Z</time>
      </trkpt>
      <trkpt lat="44.15598" lon="2.78926">
        <ele>986.45</ele>
        <time>2022-07-14T08:46:16Z</time>
      </trkpt>
      <trkpt lat="44.15603" lon="2.78938">
        <ele>986.93</ele>
        <time>2022-07-14T08:46:23Z</time>
      </trkpt>
      <trkpt lat="44.15609" lon="2.78951">
        <ele>987.89</ele>
        <time>2022-07-14T08:46:30Z</time>
      </trkpt>
      <trkpt lat="44.15616" lon="2.78965">
        <ele>988.37</ele>
        <time>2022-07-14T08:46:37Z</time>
      </trkpt>
      <trkpt lat="44.15621" lon="2.78977">
        <ele>989.81</ele>
        <time>2022-07-14T08:46:44Z</time>
      </trkpt>
      <trkpt lat="44.15627" lon="2.78992">
        <ele>990.3</ele>
        <time>2022-07-14T08:46:52Z</time>
      </trkpt>
      <trkpt lat="44.15633" lon="2.79011">
        <ele>991.26</ele>
        <time>2022-07-14T08:47:02Z</time>
      </trkpt>
      <trkpt lat="44.15638" lon="2.79027">
        <ele>992.22</ele>
        <time>2022-07-14T08:47:12Z</time>
      </trkpt>
      <trkpt lat="44.1564" lon="2.79044">
        <ele>992.7</ele>
        <time>2022-07-14T08:47:20Z</time>
      </trkpt>
      <trkpt lat="44.1564" lon="2.79063">
        <ele>993.18</ele>
        <time>2022-07-14T08:47:28Z</time>
      </trkpt>
      <trkpt lat="44.15639" lon="2.79077">
        <ele>993.66</ele>
        <time>2022-07-14T08:47:35Z</time>
      </trkpt>
      <trkpt lat="44.15639" lon="2.79093">
        <ele>995.1</ele>
        <time>2022-07-14T08:47:43Z</time>
      </trkpt>
      <trkpt lat="44.15641" lon="2.79109">
        <ele>996.54</ele>
        <time>2022-07-14T08:47:52Z</time>
      </trkpt>
      <trkpt lat="44.15643" lon="2.79127">
        <ele>997.51</ele>
        <time>2022-07-14T08:48:01Z</time>
      </trkpt>
      <trkpt lat="44.15645" lon="2.79149">
        <ele>997.02</ele>
        <time>2022-07-14T08:48:10Z</time>
      </trkpt>
      <trkpt lat="44.15647" lon="2.79165">
        <ele>998.47</ele>
        <time>2022-07-14T08:48:17Z</time>
      </trkpt>
      <trkpt lat="44.1565" lon="2.79182">
        <ele>999.91</ele>
        <time>2022-07-14T08:48:24Z</time>
      </trkpt>
      <trkpt lat="44.15653" lon="2.79196">
        <ele>1000.39</ele>
        <time>2022-07-14T08:48:31Z</time>
      </trkpt>
      <trkpt lat="44.15656" lon="2.7921">
        <ele>998.95</ele>
        <time>2022-07-14T08:48:39Z</time>
      </trkpt>
      <trkpt lat="44.1566" lon="2.79224">
        <ele>997.51</ele>
        <time>2022-07-14T08:48:48Z</time>
      </trkpt>
      <trkpt lat="44.15666" lon="2.79238">
        <ele>994.14</ele>
        <time>2022-07-14T08:48:58Z</time>
      </trkpt>
      <trkpt lat="44.1567" lon="2.79253">
        <ele>993.66</ele>
        <time>2022-07-14T08:49:05Z</time>
      </trkpt>
      <trkpt lat="44.15674" lon="2.79267">
        <ele>993.66</ele>
        <time>2022-07-14T08:49:08Z</time>
      </trkpt>
      <trkpt lat="44.1568" lon="2.79281">
        <ele>993.66</ele>
        <time>2022-07-14T08:49:11Z</time>
      </trkpt>
      <trkpt lat="44.15687" lon="2.79296">
        <ele>993.66</ele>
        <time>2022-07-14T08:49:14Z</time>
      </trkpt>
      <trkpt lat="44.15694" lon="2.79308">
        <ele>994.14</ele>
        <time>2022-07-14T08:49:17Z</time>
      </trkpt>
      <trkpt lat="44.15702" lon="2.79323">
        <ele>994.14</ele>
        <time>2022-07-14T08:49:20Z</time>
      </trkpt>
      <trkpt lat="44.15709" lon="2.79336">
        <ele>994.14</ele>
        <time>2022-07-14T08:49:23Z</time>
      </trkpt>
      <trkpt lat="44.15715" lon="2.79349">
        <ele>994.14</ele>
        <time>2022-07-14T08:49:26Z</time>
      </trkpt>
      <trkpt lat="44.1572" lon="2.79363">
        <ele>993.66</ele>
        <time>2022-07-14T08:49:31Z</time>
      </trkpt>
      <trkpt lat="44.15724" lon="2.79378">
        <ele>993.18</ele>
        <time>2022-07-14T08:49:35Z</time>
      </trkpt>
      <trkpt lat="44.15727" lon="2.794">
        <ele>993.18</ele>
        <time>2022-07-14T08:49:40Z</time>
      </trkpt>
      <trkpt lat="44.15729" lon="2.79416">
        <ele>993.18</ele>
        <time>2022-07-14T08:49:44Z</time>
      </trkpt>
      <trkpt lat="44.15729" lon="2.79434">
        <ele>993.66</ele>
        <time>2022-07-14T08:49:48Z</time>
      </trkpt>
      <trkpt lat="44.15732" lon="2.79449">
        <ele>993.66</ele>
        <time>2022-07-14T08:49:53Z</time>
      </trkpt>
      <trkpt lat="44.15733" lon="2.79466">
        <ele>994.14</ele>
        <time>2022-07-14T08:49:57Z</time>
      </trkpt>
      <trkpt lat="44.15733" lon="2.79482">
        <ele>994.62</ele>
        <time>2022-07-14T08:50:01Z</time>
      </trkpt>
      <trkpt lat="44.15734" lon="2.79498">
        <ele>995.1</ele>
        <time>2022-07-14T08:50:05Z</time>
      </trkpt>
      <trkpt lat="44.15735" lon="2.79516">
        <ele>995.58</ele>
        <time>2022-07-14T08:50:10Z</time>
      </trkpt>
      <trkpt lat="44.15736" lon="2.79536">
        <ele>995.1</ele>
        <time>2022-07-14T08:50:14Z</time>
      </trkpt>
      <trkpt lat="44.15737" lon="2.79557">
        <ele>995.58</ele>
        <time>2022-07-14T08:50:18Z</time>
      </trkpt>
      <trkpt lat="44.15738" lon="2.79573">
        <ele>996.06</ele>
        <time>2022-07-14T08:50:21Z</time>
      </trkpt>
      <trkpt lat="44.1574" lon="2.79589">
        <ele>996.06</ele>
        <time>2022-07-14T08:50:24Z</time>
      </trkpt>
      <trkpt lat="44.15743" lon="2.79605">
        <ele>996.54</ele>
        <time>2022-07-14T08:50:27Z</time>
      </trkpt>
      <trkpt lat="44.15748" lon="2.7962">
        <ele>996.54</ele>
        <time>2022-07-14T08:50:30Z</time>
      </trkpt>
      <trkpt lat="44.15752" lon="2.79636">
        <ele>997.02</ele>
        <time>2022-07-14T08:50:33Z</time>
      </trkpt>
      <trkpt lat="44.15756" lon="2.79651">
        <ele>997.02</ele>
        <time>2022-07-14T08:50:36Z</time>
      </trkpt>
      <trkpt lat="44.15761" lon="2.79665">
        <ele>996.54</ele>
        <time>2022-07-14T08:50:39Z</time>
      </trkpt>
      <trkpt lat="44.15766" lon="2.79678">
        <ele>996.54</ele>
        <time>2022-07-14T08:50:42Z</time>
      </trkpt>
      <trkpt lat="44.15771" lon="2.79692">
        <ele>997.02</ele>
        <time>2022-07-14T08:50:45Z</time>
      </trkpt>
      <trkpt lat="44.15775" lon="2.79705">
        <ele>997.99</ele>
        <time>2022-07-14T08:50:48Z</time>
      </trkpt>
      <trkpt lat="44.15779" lon="2.79718">
        <ele>998.95</ele>
        <time>2022-07-14T08:50:51Z</time>
      </trkpt>
      <trkpt lat="44.15782" lon="2.79733">
        <ele>1000.39</ele>
        <time>2022-07-14T08:50:54Z</time>
      </trkpt>
      <trkpt lat="44.15786" lon="2.79749">
        <ele>1001.83</ele>
        <time>2022-07-14T08:50:58Z</time>
      </trkpt>
      <trkpt lat="44.1579" lon="2.79765">
        <ele>1003.75</ele>
        <time>2022-07-14T08:51:02Z</time>
      </trkpt>
      <trkpt lat="44.15795" lon="2.79783">
        <ele>1004.72</ele>
        <time>2022-07-14T08:51:06Z</time>
      </trkpt>
      <trkpt lat="44.15798" lon="2.79797">
        <ele>1006.16</ele>
        <time>2022-07-14T08:51:09Z</time>
      </trkpt>
      <trkpt lat="44.15802" lon="2.7981">
        <ele>1006.16</ele>
        <time>2022-07-14T08:51:12Z</time>
      </trkpt>
      <trkpt lat="44.15805" lon="2.79826">
        <ele>1006.16</ele>
        <time>2022-07-14T08:51:16Z</time>
      </trkpt>
      <trkpt lat="44.15813" lon="2.79838">
        <ele>1002.31</ele>
        <time>2022-07-14T08:51:27Z</time>
      </trkpt>
      <trkpt lat="44.15826" lon="2.79828">
        <ele>999.43</ele>
        <time>2022-07-14T08:51:32Z</time>
      </trkpt>
      <trkpt lat="44.15839" lon="2.79819">
        <ele>997.99</ele>
        <time>2022-07-14T08:51:35Z</time>
      </trkpt>
      <trkpt lat="44.1585" lon="2.79811">
        <ele>996.54</ele>
        <time>2022-07-14T08:51:38Z</time>
      </trkpt>
      <trkpt lat="44.1586" lon="2.79802">
        <ele>996.06</ele>
        <time>2022-07-14T08:51:41Z</time>
      </trkpt>
      <trkpt lat="44.15873" lon="2.79793">
        <ele>996.06</ele>
        <time>2022-07-14T08:51:44Z</time>
      </trkpt>
      <trkpt lat="44.15884" lon="2.79783">
        <ele>996.06</ele>
        <time>2022-07-14T08:51:47Z</time>
      </trkpt>
      <trkpt lat="44.15894" lon="2.79774">
        <ele>996.06</ele>
        <time>2022-07-14T08:51:50Z</time>
      </trkpt>
      <trkpt lat="44.15902" lon="2.79766">
        <ele>996.06</ele>
        <time>2022-07-14T08:51:53Z</time>
      </trkpt>
      <trkpt lat="44.15911" lon="2.79758">
        <ele>996.54</ele>
        <time>2022-07-14T08:51:56Z</time>
      </trkpt>
      <trkpt lat="44.15921" lon="2.79749">
        <ele>997.02</ele>
        <time>2022-07-14T08:52:00Z</time>
      </trkpt>
      <trkpt lat="44.15931" lon="2.79743">
        <ele>997.02</ele>
        <time>2022-07-14T08:52:04Z</time>
      </trkpt>
      <trkpt lat="44.15943" lon="2.79736">
        <ele>996.54</ele>
        <time>2022-07-14T08:52:09Z</time>
      </trkpt>
      <trkpt lat="44.15982" lon="2.79716">
        <ele>995.58</ele>
        <time>2022-07-14T08:52:37Z</time>
      </trkpt>
      <trkpt lat="44.16038" lon="2.79682">
        <ele>993.18</ele>
        <time>2022-07-14T08:53:14Z</time>
      </trkpt>
      <trkpt lat="44.1606" lon="2.79671">
        <ele>987.41</ele>
        <time>2022-07-14T08:53:30Z</time>
      </trkpt>
      <trkpt lat="44.16073" lon="2.79667">
        <ele>987.89</ele>
        <time>2022-07-14T08:53:39Z</time>
      </trkpt>
      <trkpt lat="44.16083" lon="2.79663">
        <ele>988.37</ele>
        <time>2022-07-14T08:53:46Z</time>
      </trkpt>
      <trkpt lat="44.16093" lon="2.79658">
        <ele>988.37</ele>
        <time>2022-07-14T08:53:53Z</time>
      </trkpt>
      <trkpt lat="44.16104" lon="2.79652">
        <ele>987.89</ele>
        <time>2022-07-14T08:54:02Z</time>
      </trkpt>
      <trkpt lat="44.16119" lon="2.79639">
        <ele>985.49</ele>
        <time>2022-07-14T08:54:19Z</time>
      </trkpt>
      <trkpt lat="44.16166" lon="2.79608">
        <ele>981.16</ele>
        <time>2022-07-14T08:55:00Z</time>
      </trkpt>
      <trkpt lat="44.16182" lon="2.79599">
        <ele>977.8</ele>
        <time>2022-07-14T08:55:08Z</time>
      </trkpt>
      <trkpt lat="44.16198" lon="2.79593">
        <ele>976.36</ele>
        <time>2022-07-14T08:55:16Z</time>
      </trkpt>
      <trkpt lat="44.16215" lon="2.79589">
        <ele>975.39</ele>
        <time>2022-07-14T08:55:23Z</time>
      </trkpt>
      <trkpt lat="44.16225" lon="2.79585">
        <ele>973.95</ele>
        <time>2022-07-14T08:55:29Z</time>
      </trkpt>
      <trkpt lat="44.16234" lon="2.79578">
        <ele>972.03</ele>
        <time>2022-07-14T08:55:36Z</time>
      </trkpt>
      <trkpt lat="44.16245" lon="2.79573">
        <ele>971.07</ele>
        <time>2022-07-14T08:55:43Z</time>
      </trkpt>
      <trkpt lat="44.16255" lon="2.79569">
        <ele>971.07</ele>
        <time>2022-07-14T08:55:49Z</time>
      </trkpt>
      <trkpt lat="44.16265" lon="2.79565">
        <ele>970.11</ele>
        <time>2022-07-14T08:55:56Z</time>
      </trkpt>
      <trkpt lat="44.16274" lon="2.7956">
        <ele>970.11</ele>
        <time>2022-07-14T08:56:02Z</time>
      </trkpt>
      <trkpt lat="44.16285" lon="2.79557">
        <ele>969.63</ele>
        <time>2022-07-14T08:56:09Z</time>
      </trkpt>
      <trkpt lat="44.16294" lon="2.79554">
        <ele>970.11</ele>
        <time>2022-07-14T08:56:15Z</time>
      </trkpt>
      <trkpt lat="44.16304" lon="2.79551">
        <ele>970.59</ele>
        <time>2022-07-14T08:56:22Z</time>
      </trkpt>
      <trkpt lat="44.16314" lon="2.79547">
        <ele>970.59</ele>
        <time>2022-07-14T08:56:29Z</time>
      </trkpt>
      <trkpt lat="44.16323" lon="2.79542">
        <ele>970.11</ele>
        <time>2022-07-14T08:56:36Z</time>
      </trkpt>
      <trkpt lat="44.16333" lon="2.79536">
        <ele>970.11</ele>
        <time>2022-07-14T08:56:43Z</time>
      </trkpt>
      <trkpt lat="44.16344" lon="2.79532">
        <ele>969.63</ele>
        <time>2022-07-14T08:56:50Z</time>
      </trkpt>
      <trkpt lat="44.16353" lon="2.79528">
        <ele>969.63</ele>
        <time>2022-07-14T08:56:57Z</time>
      </trkpt>
      <trkpt lat="44.16363" lon="2.79524">
        <ele>969.15</ele>
        <time>2022-07-14T08:57:04Z</time>
      </trkpt>
      <trkpt lat="44.16372" lon="2.7952">
        <ele>969.15</ele>
        <time>2022-07-14T08:57:10Z</time>
      </trkpt>
      <trkpt lat="44.16382" lon="2.79516">
        <ele>968.67</ele>
        <time>2022-07-14T08:57:17Z</time>
      </trkpt>
      <trkpt lat="44.16392" lon="2.79511">
        <ele>967.22</ele>
        <time>2022-07-14T08:57:25Z</time>
      </trkpt>
      <trkpt lat="44.16403" lon="2.79508">
        <ele>965.78</ele>
        <time>2022-07-14T08:57:32Z</time>
      </trkpt>
      <trkpt lat="44.16413" lon="2.79504">
        <ele>965.78</ele>
        <time>2022-07-14T08:57:39Z</time>
      </trkpt>
      <trkpt lat="44.16424" lon="2.795">
        <ele>965.78</ele>
        <time>2022-07-14T08:57:47Z</time>
      </trkpt>
      <trkpt lat="44.16449" lon="2.79488">
        <ele>968.67</ele>
        <time>2022-07-14T08:58:14Z</time>
      </trkpt>
      <trkpt lat="44.16462" lon="2.79482">
        <ele>968.67</ele>
        <time>2022-07-14T08:58:22Z</time>
      </trkpt>
      <trkpt lat="44.16474" lon="2.79477">
        <ele>968.67</ele>
        <time>2022-07-14T08:58:30Z</time>
      </trkpt>
      <trkpt lat="44.16485" lon="2.79471">
        <ele>968.18</ele>
        <time>2022-07-14T08:58:38Z</time>
      </trkpt>
      <trkpt lat="44.16497" lon="2.79468">
        <ele>966.26</ele>
        <time>2022-07-14T08:58:47Z</time>
      </trkpt>
      <trkpt lat="44.16583" lon="2.79432">
        <ele>953.28</ele>
        <time>2022-07-14T09:00:17Z</time>
      </trkpt>
      <trkpt lat="44.16602" lon="2.79411">
        <ele>946.56</ele>
        <time>2022-07-14T09:00:35Z</time>
      </trkpt>
      <trkpt lat="44.16617" lon="2.79397">
        <ele>944.15</ele>
        <time>2022-07-14T09:00:48Z</time>
      </trkpt>
      <trkpt lat="44.16633" lon="2.7938">
        <ele>943.67</ele>
        <time>2022-07-14T09:01:03Z</time>
      </trkpt>
      <trkpt lat="44.16659" lon="2.79357">
        <ele>941.27</ele>
        <time>2022-07-14T09:01:26Z</time>
      </trkpt>
      <trkpt lat="44.16678" lon="2.79336">
        <ele>941.75</ele>
        <time>2022-07-14T09:01:43Z</time>
      </trkpt>
      <trkpt lat="44.16701" lon="2.79319">
        <ele>934.06</ele>
        <time>2022-07-14T09:02:04Z</time>
      </trkpt>
      <trkpt lat="44.16711" lon="2.79311">
        <ele>935.02</ele>
        <time>2022-07-14T09:02:12Z</time>
      </trkpt>
      <trkpt lat="44.16723" lon="2.79304">
        <ele>935.5</ele>
        <time>2022-07-14T09:02:20Z</time>
      </trkpt>
      <trkpt lat="44.16735" lon="2.79298">
        <ele>934.06</ele>
        <time>2022-07-14T09:02:30Z</time>
      </trkpt>
      <trkpt lat="44.16748" lon="2.79288">
        <ele>937.42</ele>
        <time>2022-07-14T09:02:38Z</time>
      </trkpt>
      <trkpt lat="44.1676" lon="2.79279">
        <ele>938.38</ele>
        <time>2022-07-14T09:02:47Z</time>
      </trkpt>
      <trkpt lat="44.16769" lon="2.79271">
        <ele>938.38</ele>
        <time>2022-07-14T09:02:55Z</time>
      </trkpt>
      <trkpt lat="44.16781" lon="2.7926">
        <ele>937.9</ele>
        <time>2022-07-14T09:03:05Z</time>
      </trkpt>
      <trkpt lat="44.16791" lon="2.7925">
        <ele>937.42</ele>
        <time>2022-07-14T09:03:14Z</time>
      </trkpt>
      <trkpt lat="44.16801" lon="2.79241">
        <ele>935.98</ele>
        <time>2022-07-14T09:03:23Z</time>
      </trkpt>
      <trkpt lat="44.16812" lon="2.79232">
        <ele>934.54</ele>
        <time>2022-07-14T09:03:32Z</time>
      </trkpt>
      <trkpt lat="44.16824" lon="2.79222">
        <ele>931.65</ele>
        <time>2022-07-14T09:03:43Z</time>
      </trkpt>
      <trkpt lat="44.16833" lon="2.79215">
        <ele>931.65</ele>
        <time>2022-07-14T09:03:51Z</time>
      </trkpt>
      <trkpt lat="44.16843" lon="2.79207">
        <ele>931.65</ele>
        <time>2022-07-14T09:03:59Z</time>
      </trkpt>
      <trkpt lat="44.16853" lon="2.79202">
        <ele>933.1</ele>
        <time>2022-07-14T09:04:06Z</time>
      </trkpt>
      <trkpt lat="44.16863" lon="2.79195">
        <ele>933.1</ele>
        <time>2022-07-14T09:04:14Z</time>
      </trkpt>
      <trkpt lat="44.16872" lon="2.79189">
        <ele>933.1</ele>
        <time>2022-07-14T09:04:21Z</time>
      </trkpt>
      <trkpt lat="44.16882" lon="2.79186">
        <ele>932.14</ele>
        <time>2022-07-14T09:04:28Z</time>
      </trkpt>
      <trkpt lat="44.16893" lon="2.79183">
        <ele>932.14</ele>
        <time>2022-07-14T09:04:36Z</time>
      </trkpt>
      <trkpt lat="44.16903" lon="2.79181">
        <ele>931.65</ele>
        <time>2022-07-14T09:04:43Z</time>
      </trkpt>
      <trkpt lat="44.16914" lon="2.79176">
        <ele>930.21</ele>
        <time>2022-07-14T09:04:52Z</time>
      </trkpt>
      <trkpt lat="44.16925" lon="2.79172">
        <ele>928.77</ele>
        <time>2022-07-14T09:05:00Z</time>
      </trkpt>
      <trkpt lat="44.16938" lon="2.79168">
        <ele>927.81</ele>
        <time>2022-07-14T09:05:10Z</time>
      </trkpt>
      <trkpt lat="44.16952" lon="2.79166">
        <ele>926.85</ele>
        <time>2022-07-14T09:05:19Z</time>
      </trkpt>
      <trkpt lat="44.16963" lon="2.79164">
        <ele>926.85</ele>
        <time>2022-07-14T09:05:27Z</time>
      </trkpt>
      <trkpt lat="44.16975" lon="2.79159">
        <ele>926.37</ele>
        <time>2022-07-14T09:05:37Z</time>
      </trkpt>
      <trkpt lat="44.16986" lon="2.79157">
        <ele>924.93</ele>
        <time>2022-07-14T09:05:45Z</time>
      </trkpt>
      <trkpt lat="44.16997" lon="2.79152">
        <ele>922.52</ele>
        <time>2022-07-14T09:05:54Z</time>
      </trkpt>
      <trkpt lat="44.17009" lon="2.7915">
        <ele>922.04</ele>
        <time>2022-07-14T09:06:02Z</time>
      </trkpt>
      <trkpt lat="44.17019" lon="2.79149">
        <ele>921.56</ele>
        <time>2022-07-14T09:06:09Z</time>
      </trkpt>
      <trkpt lat="44.1703" lon="2.79149">
        <ele>920.6</ele>
        <time>2022-07-14T09:06:16Z</time>
      </trkpt>
      <trkpt lat="44.17039" lon="2.79148">
        <ele>919.64</ele>
        <time>2022-07-14T09:06:23Z</time>
      </trkpt>
      <trkpt lat="44.1705" lon="2.79146">
        <ele>917.24</ele>
        <time>2022-07-14T09:06:31Z</time>
      </trkpt>
      <trkpt lat="44.1706" lon="2.79146">
        <ele>914.35</ele>
        <time>2022-07-14T09:06:39Z</time>
      </trkpt>
      <trkpt lat="44.17074" lon="2.79146">
        <ele>914.35</ele>
        <time>2022-07-14T09:06:49Z</time>
      </trkpt>
      <trkpt lat="44.17085" lon="2.79144">
        <ele>913.39</ele>
        <time>2022-07-14T09:07:00Z</time>
      </trkpt>
      <trkpt lat="44.17098" lon="2.79148">
        <ele>912.43</ele>
        <time>2022-07-14T09:07:19Z</time>
      </trkpt>
      <trkpt lat="44.17108" lon="2.79146">
        <ele>910.51</ele>
        <time>2022-07-14T09:07:26Z</time>
      </trkpt>
      <trkpt lat="44.17117" lon="2.79139">
        <ele>909.54</ele>
        <time>2022-07-14T09:07:34Z</time>
      </trkpt>
      <trkpt lat="44.17127" lon="2.79135">
        <ele>908.58</ele>
        <time>2022-07-14T09:07:42Z</time>
      </trkpt>
      <trkpt lat="44.17139" lon="2.79131">
        <ele>905.22</ele>
        <time>2022-07-14T09:07:52Z</time>
      </trkpt>
      <trkpt lat="44.17152" lon="2.79127">
        <ele>902.33</ele>
        <time>2022-07-14T09:08:02Z</time>
      </trkpt>
      <trkpt lat="44.17164" lon="2.79123">
        <ele>900.89</ele>
        <time>2022-07-14T09:08:11Z</time>
      </trkpt>
      <trkpt lat="44.17175" lon="2.7912">
        <ele>898.97</ele>
        <time>2022-07-14T09:08:21Z</time>
      </trkpt>
      <trkpt lat="44.1719" lon="2.7912">
        <ele>897.53</ele>
        <time>2022-07-14T09:08:30Z</time>
      </trkpt>
      <trkpt lat="44.17201" lon="2.79122">
        <ele>897.05</ele>
        <time>2022-07-14T09:08:38Z</time>
      </trkpt>
      <trkpt lat="44.17211" lon="2.79128">
        <ele>896.57</ele>
        <time>2022-07-14T09:08:46Z</time>
      </trkpt>
      <trkpt lat="44.1722" lon="2.79142">
        <ele>892.72</ele>
        <time>2022-07-14T09:08:58Z</time>
      </trkpt>
      <trkpt lat="44.17215" lon="2.79178">
        <ele>899.93</ele>
        <time>2022-07-14T09:11:30Z</time>
      </trkpt>
      <trkpt lat="44.17212" lon="2.79209">
        <ele>901.37</ele>
        <time>2022-07-14T09:11:46Z</time>
      </trkpt>
      <trkpt lat="44.17213" lon="2.79234">
        <ele>896.09</ele>
        <time>2022-07-14T09:12:01Z</time>
      </trkpt>
      <trkpt lat="44.1722" lon="2.7925">
        <ele>895.12</ele>
        <time>2022-07-14T09:12:13Z</time>
      </trkpt>
      <trkpt lat="44.17268" lon="2.79276">
        <ele>900.41</ele>
        <time>2022-07-14T09:13:10Z</time>
      </trkpt>
      <trkpt lat="44.17281" lon="2.79283">
        <ele>902.33</ele>
        <time>2022-07-14T09:13:21Z</time>
      </trkpt>
      <trkpt lat="44.1729" lon="2.79284">
        <ele>903.3</ele>
        <time>2022-07-14T09:13:29Z</time>
      </trkpt>
      <trkpt lat="44.17302" lon="2.79287">
        <ele>903.3</ele>
        <time>2022-07-14T09:13:37Z</time>
      </trkpt>
      <trkpt lat="44.17318" lon="2.7929">
        <ele>898.97</ele>
        <time>2022-07-14T09:13:49Z</time>
      </trkpt>
      <trkpt lat="44.17332" lon="2.79292">
        <ele>896.57</ele>
        <time>2022-07-14T09:13:59Z</time>
      </trkpt>
      <trkpt lat="44.17348" lon="2.79294">
        <ele>893.2</ele>
        <time>2022-07-14T09:14:11Z</time>
      </trkpt>
      <trkpt lat="44.17362" lon="2.79293">
        <ele>892.24</ele>
        <time>2022-07-14T09:14:20Z</time>
      </trkpt>
      <trkpt lat="44.17375" lon="2.79292">
        <ele>893.68</ele>
        <time>2022-07-14T09:14:28Z</time>
      </trkpt>
      <trkpt lat="44.17386" lon="2.79289">
        <ele>895.61</ele>
        <time>2022-07-14T09:14:35Z</time>
      </trkpt>
      <trkpt lat="44.17397" lon="2.79287">
        <ele>896.09</ele>
        <time>2022-07-14T09:14:42Z</time>
      </trkpt>
      <trkpt lat="44.1741" lon="2.79285">
        <ele>896.09</ele>
        <time>2022-07-14T09:14:50Z</time>
      </trkpt>
      <trkpt lat="44.17424" lon="2.79284">
        <ele>896.09</ele>
        <time>2022-07-14T09:15:00Z</time>
      </trkpt>
      <trkpt lat="44.17436" lon="2.79286">
        <ele>897.53</ele>
        <time>2022-07-14T09:15:08Z</time>
      </trkpt>
      <trkpt lat="44.17447" lon="2.79289">
        <ele>897.53</ele>
        <time>2022-07-14T09:15:15Z</time>
      </trkpt>
      <trkpt lat="44.17459" lon="2.79292">
        <ele>897.53</ele>
        <time>2022-07-14T09:15:23Z</time>
      </trkpt>
      <trkpt lat="44.17472" lon="2.79297">
        <ele>898.01</ele>
        <time>2022-07-14T09:15:31Z</time>
      </trkpt>
      <trkpt lat="44.17486" lon="2.79302">
        <ele>895.61</ele>
        <time>2022-07-14T09:15:42Z</time>
      </trkpt>
      <trkpt lat="44.17498" lon="2.79307">
        <ele>893.68</ele>
        <time>2022-07-14T09:15:51Z</time>
      </trkpt>
      <trkpt lat="44.17509" lon="2.79313">
        <ele>893.68</ele>
        <time>2022-07-14T09:15:59Z</time>
      </trkpt>
      <trkpt lat="44.17522" lon="2.79318">
        <ele>892.24</ele>
        <time>2022-07-14T09:16:07Z</time>
      </trkpt>
      <trkpt lat="44.17534" lon="2.79325">
        <ele>888.4</ele>
        <time>2022-07-14T09:16:19Z</time>
      </trkpt>
      <trkpt lat="44.17551" lon="2.79331">
        <ele>887.43</ele>
        <time>2022-07-14T09:16:28Z</time>
      </trkpt>
      <trkpt lat="44.17564" lon="2.79335">
        <ele>885.51</ele>
        <time>2022-07-14T09:16:38Z</time>
      </trkpt>
      <trkpt lat="44.17575" lon="2.79342">
        <ele>885.51</ele>
        <time>2022-07-14T09:16:48Z</time>
      </trkpt>
      <trkpt lat="44.17597" lon="2.7935">
        <ele>882.15</ele>
        <time>2022-07-14T09:17:01Z</time>
      </trkpt>
      <trkpt lat="44.17609" lon="2.79357">
        <ele>882.63</ele>
        <time>2022-07-14T09:17:09Z</time>
      </trkpt>
      <trkpt lat="44.17622" lon="2.79365">
        <ele>883.11</ele>
        <time>2022-07-14T09:17:17Z</time>
      </trkpt>
      <trkpt lat="44.17634" lon="2.79371">
        <ele>884.07</ele>
        <time>2022-07-14T09:17:24Z</time>
      </trkpt>
      <trkpt lat="44.17646" lon="2.79377">
        <ele>884.55</ele>
        <time>2022-07-14T09:17:32Z</time>
      </trkpt>
      <trkpt lat="44.17658" lon="2.79383">
        <ele>885.51</ele>
        <time>2022-07-14T09:17:39Z</time>
      </trkpt>
      <trkpt lat="44.17669" lon="2.7939">
        <ele>885.51</ele>
        <time>2022-07-14T09:17:46Z</time>
      </trkpt>
      <trkpt lat="44.1768" lon="2.79397">
        <ele>884.55</ele>
        <time>2022-07-14T09:17:55Z</time>
      </trkpt>
      <trkpt lat="44.17691" lon="2.79406">
        <ele>882.63</ele>
        <time>2022-07-14T09:18:04Z</time>
      </trkpt>
      <trkpt lat="44.17702" lon="2.79411">
        <ele>883.11</ele>
        <time>2022-07-14T09:18:12Z</time>
      </trkpt>
      <trkpt lat="44.17713" lon="2.79415">
        <ele>883.59</ele>
        <time>2022-07-14T09:18:19Z</time>
      </trkpt>
      <trkpt lat="44.17722" lon="2.79419">
        <ele>883.59</ele>
        <time>2022-07-14T09:18:26Z</time>
      </trkpt>
      <trkpt lat="44.17733" lon="2.79423">
        <ele>883.59</ele>
        <time>2022-07-14T09:18:33Z</time>
      </trkpt>
      <trkpt lat="44.17743" lon="2.79427">
        <ele>882.15</ele>
        <time>2022-07-14T09:18:40Z</time>
      </trkpt>
      <trkpt lat="44.17754" lon="2.79434">
        <ele>879.74</ele>
        <time>2022-07-14T09:18:49Z</time>
      </trkpt>
      <trkpt lat="44.17765" lon="2.79438">
        <ele>877.34</ele>
        <time>2022-07-14T09:18:57Z</time>
      </trkpt>
      <trkpt lat="44.17778" lon="2.79443">
        <ele>877.34</ele>
        <time>2022-07-14T09:19:05Z</time>
      </trkpt>
      <trkpt lat="44.17787" lon="2.79447">
        <ele>876.38</ele>
        <time>2022-07-14T09:19:12Z</time>
      </trkpt>
      <trkpt lat="44.17799" lon="2.79453">
        <ele>874.46</ele>
        <time>2022-07-14T09:19:21Z</time>
      </trkpt>
      <trkpt lat="44.17811" lon="2.79459">
        <ele>871.09</ele>
        <time>2022-07-14T09:19:30Z</time>
      </trkpt>
      <trkpt lat="44.17823" lon="2.79467">
        <ele>869.65</ele>
        <time>2022-07-14T09:19:38Z</time>
      </trkpt>
      <trkpt lat="44.17835" lon="2.79474">
        <ele>867.73</ele>
        <time>2022-07-14T09:19:48Z</time>
      </trkpt>
      <trkpt lat="44.17849" lon="2.79479">
        <ele>864.84</ele>
        <time>2022-07-14T09:19:58Z</time>
      </trkpt>
      <trkpt lat="44.1786" lon="2.79481">
        <ele>862.44</ele>
        <time>2022-07-14T09:20:07Z</time>
      </trkpt>
      <trkpt lat="44.17872" lon="2.79481">
        <ele>862.44</ele>
        <time>2022-07-14T09:20:15Z</time>
      </trkpt>
      <trkpt lat="44.17883" lon="2.79487">
        <ele>861</ele>
        <time>2022-07-14T09:20:23Z</time>
      </trkpt>
      <trkpt lat="44.17896" lon="2.79495">
        <ele>857.63</ele>
        <time>2022-07-14T09:20:33Z</time>
      </trkpt>
      <trkpt lat="44.17906" lon="2.79504">
        <ele>853.79</ele>
        <time>2022-07-14T09:20:41Z</time>
      </trkpt>
      <trkpt lat="44.1792" lon="2.79514">
        <ele>849.94</ele>
        <time>2022-07-14T09:20:53Z</time>
      </trkpt>
      <trkpt lat="44.17932" lon="2.79523">
        <ele>850.9</ele>
        <time>2022-07-14T09:21:01Z</time>
      </trkpt>
      <trkpt lat="44.17955" lon="2.79536">
        <ele>851.38</ele>
        <time>2022-07-14T09:21:17Z</time>
      </trkpt>
      <trkpt lat="44.17967" lon="2.79545">
        <ele>851.38</ele>
        <time>2022-07-14T09:21:25Z</time>
      </trkpt>
      <trkpt lat="44.1798" lon="2.79556">
        <ele>852.83</ele>
        <time>2022-07-14T09:21:33Z</time>
      </trkpt>
      <trkpt lat="44.17988" lon="2.79569">
        <ele>853.79</ele>
        <time>2022-07-14T09:21:41Z</time>
      </trkpt>
      <trkpt lat="44.17996" lon="2.79581">
        <ele>853.79</ele>
        <time>2022-07-14T09:21:49Z</time>
      </trkpt>
      <trkpt lat="44.18013" lon="2.79591">
        <ele>852.83</ele>
        <time>2022-07-14T09:22:04Z</time>
      </trkpt>
      <trkpt lat="44.18031" lon="2.79594">
        <ele>855.23</ele>
        <time>2022-07-14T09:22:13Z</time>
      </trkpt>
      <trkpt lat="44.18043" lon="2.79591">
        <ele>855.23</ele>
        <time>2022-07-14T09:22:21Z</time>
      </trkpt>
      <trkpt lat="44.1805" lon="2.79583">
        <ele>854.27</ele>
        <time>2022-07-14T09:22:28Z</time>
      </trkpt>
      <trkpt lat="44.18054" lon="2.7957">
        <ele>852.83</ele>
        <time>2022-07-14T09:22:35Z</time>
      </trkpt>
      <trkpt lat="44.18059" lon="2.79556">
        <ele>851.38</ele>
        <time>2022-07-14T09:22:43Z</time>
      </trkpt>
      <trkpt lat="44.18064" lon="2.7953">
        <ele>848.5</ele>
        <time>2022-07-14T09:22:57Z</time>
      </trkpt>
      <trkpt lat="44.1807" lon="2.79514">
        <ele>847.06</ele>
        <time>2022-07-14T09:23:07Z</time>
      </trkpt>
      <trkpt lat="44.18082" lon="2.79508">
        <ele>845.62</ele>
        <time>2022-07-14T09:23:16Z</time>
      </trkpt>
      <trkpt lat="44.18094" lon="2.79502">
        <ele>844.66</ele>
        <time>2022-07-14T09:23:24Z</time>
      </trkpt>
      <trkpt lat="44.18106" lon="2.79496">
        <ele>842.25</ele>
        <time>2022-07-14T09:23:33Z</time>
      </trkpt>
      <trkpt lat="44.18118" lon="2.79491">
        <ele>839.37</ele>
        <time>2022-07-14T09:23:41Z</time>
      </trkpt>
      <trkpt lat="44.18129" lon="2.79485">
        <ele>838.89</ele>
        <time>2022-07-14T09:23:49Z</time>
      </trkpt>
      <trkpt lat="44.18139" lon="2.79482">
        <ele>836.96</ele>
        <time>2022-07-14T09:23:56Z</time>
      </trkpt>
      <trkpt lat="44.1815" lon="2.79478">
        <ele>834.56</ele>
        <time>2022-07-14T09:24:04Z</time>
      </trkpt>
      <trkpt lat="44.1816" lon="2.79473">
        <ele>832.64</ele>
        <time>2022-07-14T09:24:14Z</time>
      </trkpt>
      <trkpt lat="44.18171" lon="2.79467">
        <ele>829.76</ele>
        <time>2022-07-14T09:24:23Z</time>
      </trkpt>
      <trkpt lat="44.18182" lon="2.79464">
        <ele>827.35</ele>
        <time>2022-07-14T09:24:33Z</time>
      </trkpt>
      <trkpt lat="44.18193" lon="2.79459">
        <ele>824.47</ele>
        <time>2022-07-14T09:24:42Z</time>
      </trkpt>
      <trkpt lat="44.18206" lon="2.79454">
        <ele>821.1</ele>
        <time>2022-07-14T09:24:52Z</time>
      </trkpt>
      <trkpt lat="44.18243" lon="2.79423">
        <ele>816.78</ele>
        <time>2022-07-14T09:25:39Z</time>
      </trkpt>
      <trkpt lat="44.18252" lon="2.79409">
        <ele>815.34</ele>
        <time>2022-07-14T09:25:48Z</time>
      </trkpt>
      <trkpt lat="44.18259" lon="2.79392">
        <ele>815.34</ele>
        <time>2022-07-14T09:25:55Z</time>
      </trkpt>
      <trkpt lat="44.18264" lon="2.79378">
        <ele>815.34</ele>
        <time>2022-07-14T09:26:03Z</time>
      </trkpt>
      <trkpt lat="44.18269" lon="2.79367">
        <ele>816.78</ele>
        <time>2022-07-14T09:26:16Z</time>
      </trkpt>
      <trkpt lat="44.18279" lon="2.79366">
        <ele>816.3</ele>
        <time>2022-07-14T09:26:24Z</time>
      </trkpt>
      <trkpt lat="44.1829" lon="2.79369">
        <ele>816.3</ele>
        <time>2022-07-14T09:26:31Z</time>
      </trkpt>
      <trkpt lat="44.18299" lon="2.79374">
        <ele>815.34</ele>
        <time>2022-07-14T09:26:38Z</time>
      </trkpt>
      <trkpt lat="44.18309" lon="2.79381">
        <ele>813.89</ele>
        <time>2022-07-14T09:26:47Z</time>
      </trkpt>
      <trkpt lat="44.18319" lon="2.7939">
        <ele>812.45</ele>
        <time>2022-07-14T09:26:56Z</time>
      </trkpt>
      <trkpt lat="44.18328" lon="2.79402">
        <ele>811.49</ele>
        <time>2022-07-14T09:27:04Z</time>
      </trkpt>
      <trkpt lat="44.18351" lon="2.79423">
        <ele>818.22</ele>
        <time>2022-07-14T09:32:17Z</time>
      </trkpt>
      <trkpt lat="44.18361" lon="2.7943">
        <ele>817.74</ele>
        <time>2022-07-14T09:32:27Z</time>
      </trkpt>
      <trkpt lat="44.18369" lon="2.79451">
        <ele>815.34</ele>
        <time>2022-07-14T09:32:42Z</time>
      </trkpt>
      <trkpt lat="44.18372" lon="2.79466">
        <ele>815.82</ele>
        <time>2022-07-14T09:32:50Z</time>
      </trkpt>
      <trkpt lat="44.18376" lon="2.79479">
        <ele>815.82</ele>
        <time>2022-07-14T09:32:58Z</time>
      </trkpt>
      <trkpt lat="44.18381" lon="2.79494">
        <ele>814.85</ele>
        <time>2022-07-14T09:33:07Z</time>
      </trkpt>
      <trkpt lat="44.18388" lon="2.79508">
        <ele>815.82</ele>
        <time>2022-07-14T09:33:15Z</time>
      </trkpt>
      <trkpt lat="44.18394" lon="2.79519">
        <ele>817.26</ele>
        <time>2022-07-14T09:33:22Z</time>
      </trkpt>
      <trkpt lat="44.18404" lon="2.79517">
        <ele>818.22</ele>
        <time>2022-07-14T09:33:30Z</time>
      </trkpt>
      <trkpt lat="44.1841" lon="2.79506">
        <ele>817.74</ele>
        <time>2022-07-14T09:33:37Z</time>
      </trkpt>
      <trkpt lat="44.18415" lon="2.79494">
        <ele>816.78</ele>
        <time>2022-07-14T09:33:44Z</time>
      </trkpt>
      <trkpt lat="44.18419" lon="2.7948">
        <ele>815.34</ele>
        <time>2022-07-14T09:33:51Z</time>
      </trkpt>
      <trkpt lat="44.18423" lon="2.79467">
        <ele>814.37</ele>
        <time>2022-07-14T09:33:58Z</time>
      </trkpt>
      <trkpt lat="44.18427" lon="2.79453">
        <ele>813.41</ele>
        <time>2022-07-14T09:34:05Z</time>
      </trkpt>
      <trkpt lat="44.18433" lon="2.7944">
        <ele>813.41</ele>
        <time>2022-07-14T09:34:12Z</time>
      </trkpt>
      <trkpt lat="44.18439" lon="2.79426">
        <ele>812.45</ele>
        <time>2022-07-14T09:34:20Z</time>
      </trkpt>
      <trkpt lat="44.18445" lon="2.79412">
        <ele>812.45</ele>
        <time>2022-07-14T09:34:28Z</time>
      </trkpt>
      <trkpt lat="44.1845" lon="2.79397">
        <ele>811.97</ele>
        <time>2022-07-14T09:34:35Z</time>
      </trkpt>
      <trkpt lat="44.18453" lon="2.79381">
        <ele>812.93</ele>
        <time>2022-07-14T09:34:42Z</time>
      </trkpt>
      <trkpt lat="44.18454" lon="2.79367">
        <ele>813.41</ele>
        <time>2022-07-14T09:34:48Z</time>
      </trkpt>
      <trkpt lat="44.18456" lon="2.79351">
        <ele>813.89</ele>
        <time>2022-07-14T09:34:55Z</time>
      </trkpt>
      <trkpt lat="44.18457" lon="2.79336">
        <ele>813.89</ele>
        <time>2022-07-14T09:35:02Z</time>
      </trkpt>
      <trkpt lat="44.18457" lon="2.79322">
        <ele>813.89</ele>
        <time>2022-07-14T09:35:08Z</time>
      </trkpt>
      <trkpt lat="44.18455" lon="2.79307">
        <ele>813.89</ele>
        <time>2022-07-14T09:35:15Z</time>
      </trkpt>
      <trkpt lat="44.18453" lon="2.79292">
        <ele>812.93</ele>
        <time>2022-07-14T09:35:22Z</time>
      </trkpt>
      <trkpt lat="44.18451" lon="2.7928">
        <ele>811.97</ele>
        <time>2022-07-14T09:35:28Z</time>
      </trkpt>
      <trkpt lat="44.18447" lon="2.79267">
        <ele>811.49</ele>
        <time>2022-07-14T09:35:34Z</time>
      </trkpt>
      <trkpt lat="44.18443" lon="2.79253">
        <ele>811.01</ele>
        <time>2022-07-14T09:35:41Z</time>
      </trkpt>
      <trkpt lat="44.18438" lon="2.79241">
        <ele>810.53</ele>
        <time>2022-07-14T09:35:48Z</time>
      </trkpt>
      <trkpt lat="44.18432" lon="2.7923">
        <ele>811.01</ele>
        <time>2022-07-14T09:35:54Z</time>
      </trkpt>
      <trkpt lat="44.18428" lon="2.79216">
        <ele>811.97</ele>
        <time>2022-07-14T09:36:01Z</time>
      </trkpt>
      <trkpt lat="44.18425" lon="2.79202">
        <ele>811.97</ele>
        <time>2022-07-14T09:36:09Z</time>
      </trkpt>
      <trkpt lat="44.18426" lon="2.79186">
        <ele>811.97</ele>
        <time>2022-07-14T09:36:17Z</time>
      </trkpt>
      <trkpt lat="44.18425" lon="2.79172">
        <ele>812.93</ele>
        <time>2022-07-14T09:36:24Z</time>
      </trkpt>
      <trkpt lat="44.18427" lon="2.79157">
        <ele>814.85</ele>
        <time>2022-07-14T09:36:31Z</time>
      </trkpt>
      <trkpt lat="44.18432" lon="2.79145">
        <ele>814.85</ele>
        <time>2022-07-14T09:36:38Z</time>
      </trkpt>
      <trkpt lat="44.18441" lon="2.79133">
        <ele>814.85</ele>
        <time>2022-07-14T09:36:46Z</time>
      </trkpt>
      <trkpt lat="44.18446" lon="2.79119">
        <ele>814.37</ele>
        <time>2022-07-14T09:36:54Z</time>
      </trkpt>
      <trkpt lat="44.18451" lon="2.79105">
        <ele>813.89</ele>
        <time>2022-07-14T09:37:01Z</time>
      </trkpt>
      <trkpt lat="44.18454" lon="2.7909">
        <ele>813.89</ele>
        <time>2022-07-14T09:37:09Z</time>
      </trkpt>
      <trkpt lat="44.18464" lon="2.79097">
        <ele>814.37</ele>
        <time>2022-07-14T09:37:17Z</time>
      </trkpt>
      <trkpt lat="44.18475" lon="2.79104">
        <ele>813.89</ele>
        <time>2022-07-14T09:37:25Z</time>
      </trkpt>
      <trkpt lat="44.18485" lon="2.79112">
        <ele>814.37</ele>
        <time>2022-07-14T09:37:33Z</time>
      </trkpt>
      <trkpt lat="44.18496" lon="2.79116">
        <ele>814.37</ele>
        <time>2022-07-14T09:37:41Z</time>
      </trkpt>
      <trkpt lat="44.18508" lon="2.79119">
        <ele>813.41</ele>
        <time>2022-07-14T09:37:51Z</time>
      </trkpt>
      <trkpt lat="44.1852" lon="2.79125">
        <ele>815.82</ele>
        <time>2022-07-14T09:38:01Z</time>
      </trkpt>
      <trkpt lat="44.18526" lon="2.79154">
        <ele>820.14</ele>
        <time>2022-07-14T09:38:28Z</time>
      </trkpt>
      <trkpt lat="44.18512" lon="2.79164">
        <ele>822.55</ele>
        <time>2022-07-14T09:38:36Z</time>
      </trkpt>
      <trkpt lat="44.18506" lon="2.7918">
        <ele>824.95</ele>
        <time>2022-07-14T09:38:44Z</time>
      </trkpt>
      <trkpt lat="44.18514" lon="2.79192">
        <ele>827.83</ele>
        <time>2022-07-14T09:38:50Z</time>
      </trkpt>
      <trkpt lat="44.18521" lon="2.79203">
        <ele>829.76</ele>
        <time>2022-07-14T09:38:57Z</time>
      </trkpt>
      <trkpt lat="44.18528" lon="2.79211">
        <ele>833.12</ele>
        <time>2022-07-14T09:39:05Z</time>
      </trkpt>
      <trkpt lat="44.18539" lon="2.79218">
        <ele>836.96</ele>
        <time>2022-07-14T09:39:15Z</time>
      </trkpt>
      <trkpt lat="44.18556" lon="2.7923">
        <ele>842.25</ele>
        <time>2022-07-14T09:39:29Z</time>
      </trkpt>
      <trkpt lat="44.18568" lon="2.79239">
        <ele>845.14</ele>
        <time>2022-07-14T09:39:37Z</time>
      </trkpt>
      <trkpt lat="44.18578" lon="2.79242">
        <ele>846.58</ele>
        <time>2022-07-14T09:39:45Z</time>
      </trkpt>
      <trkpt lat="44.18589" lon="2.79238">
        <ele>847.06</ele>
        <time>2022-07-14T09:39:53Z</time>
      </trkpt>
      <trkpt lat="44.18598" lon="2.7923">
        <ele>847.06</ele>
        <time>2022-07-14T09:40:01Z</time>
      </trkpt>
      <trkpt lat="44.18607" lon="2.79222">
        <ele>846.58</ele>
        <time>2022-07-14T09:40:08Z</time>
      </trkpt>
      <trkpt lat="44.18618" lon="2.79213">
        <ele>846.58</ele>
        <time>2022-07-14T09:40:16Z</time>
      </trkpt>
      <trkpt lat="44.18627" lon="2.79207">
        <ele>846.58</ele>
        <time>2022-07-14T09:40:23Z</time>
      </trkpt>
      <trkpt lat="44.18637" lon="2.79204">
        <ele>851.38</ele>
        <time>2022-07-14T09:40:33Z</time>
      </trkpt>
      <trkpt lat="44.18632" lon="2.79213">
        <ele>851.38</ele>
        <time>2022-07-14T09:40:46Z</time>
      </trkpt>
      <trkpt lat="44.18621" lon="2.79231">
        <ele>849.46</ele>
        <time>2022-07-14T09:42:19Z</time>
      </trkpt>
      <trkpt lat="44.18616" lon="2.79243">
        <ele>848.98</ele>
        <time>2022-07-14T09:42:27Z</time>
      </trkpt>
      <trkpt lat="44.18615" lon="2.79261">
        <ele>850.42</ele>
        <time>2022-07-14T09:42:35Z</time>
      </trkpt>
      <trkpt lat="44.18625" lon="2.79277">
        <ele>853.31</ele>
        <time>2022-07-14T09:42:48Z</time>
      </trkpt>
      <trkpt lat="44.18638" lon="2.79288">
        <ele>854.27</ele>
        <time>2022-07-14T09:42:58Z</time>
      </trkpt>
      <trkpt lat="44.18654" lon="2.79298">
        <ele>857.15</ele>
        <time>2022-07-14T09:43:10Z</time>
      </trkpt>
      <trkpt lat="44.18666" lon="2.7931">
        <ele>859.08</ele>
        <time>2022-07-14T09:43:21Z</time>
      </trkpt>
      <trkpt lat="44.18682" lon="2.79322">
        <ele>861.96</ele>
        <time>2022-07-14T09:43:35Z</time>
      </trkpt>
      <trkpt lat="44.18696" lon="2.79328">
        <ele>864.84</ele>
        <time>2022-07-14T09:43:43Z</time>
      </trkpt>
      <trkpt lat="44.18706" lon="2.79335">
        <ele>865.8</ele>
        <time>2022-07-14T09:43:51Z</time>
      </trkpt>
      <trkpt lat="44.18718" lon="2.79344">
        <ele>867.73</ele>
        <time>2022-07-14T09:44:01Z</time>
      </trkpt>
      <trkpt lat="44.18728" lon="2.79353">
        <ele>868.69</ele>
        <time>2022-07-14T09:44:09Z</time>
      </trkpt>
      <trkpt lat="44.18736" lon="2.79363">
        <ele>869.65</ele>
        <time>2022-07-14T09:44:17Z</time>
      </trkpt>
      <trkpt lat="44.18742" lon="2.79375">
        <ele>870.13</ele>
        <time>2022-07-14T09:44:24Z</time>
      </trkpt>
      <trkpt lat="44.18744" lon="2.79388">
        <ele>870.61</ele>
        <time>2022-07-14T09:44:31Z</time>
      </trkpt>
      <trkpt lat="44.18745" lon="2.79403">
        <ele>870.61</ele>
        <time>2022-07-14T09:44:39Z</time>
      </trkpt>
      <trkpt lat="44.18743" lon="2.79417">
        <ele>871.09</ele>
        <time>2022-07-14T09:44:46Z</time>
      </trkpt>
      <trkpt lat="44.18743" lon="2.79432">
        <ele>871.57</ele>
        <time>2022-07-14T09:44:55Z</time>
      </trkpt>
      <trkpt lat="44.18743" lon="2.79445">
        <ele>873.5</ele>
        <time>2022-07-14T09:45:01Z</time>
      </trkpt>
      <trkpt lat="44.18746" lon="2.79458">
        <ele>874.94</ele>
        <time>2022-07-14T09:45:07Z</time>
      </trkpt>
      <trkpt lat="44.1875" lon="2.79469">
        <ele>876.38</ele>
        <time>2022-07-14T09:45:13Z</time>
      </trkpt>
      <trkpt lat="44.18755" lon="2.79481">
        <ele>876.86</ele>
        <time>2022-07-14T09:45:20Z</time>
      </trkpt>
      <trkpt lat="44.1876" lon="2.79493">
        <ele>877.82</ele>
        <time>2022-07-14T09:45:27Z</time>
      </trkpt>
      <trkpt lat="44.18765" lon="2.79505">
        <ele>879.26</ele>
        <time>2022-07-14T09:45:35Z</time>
      </trkpt>
      <trkpt lat="44.18769" lon="2.79518">
        <ele>880.71</ele>
        <time>2022-07-14T09:45:42Z</time>
      </trkpt>
      <trkpt lat="44.18772" lon="2.79532">
        <ele>882.63</ele>
        <time>2022-07-14T09:45:49Z</time>
      </trkpt>
      <trkpt lat="44.18772" lon="2.79548">
        <ele>884.55</ele>
        <time>2022-07-14T09:45:56Z</time>
      </trkpt>
      <trkpt lat="44.18772" lon="2.79562">
        <ele>887.43</ele>
        <time>2022-07-14T09:46:04Z</time>
      </trkpt>
      <trkpt lat="44.1877" lon="2.79576">
        <ele>888.4</ele>
        <time>2022-07-14T09:46:12Z</time>
      </trkpt>
      <trkpt lat="44.18766" lon="2.7959">
        <ele>889.84</ele>
        <time>2022-07-14T09:46:20Z</time>
      </trkpt>
      <trkpt lat="44.18762" lon="2.79604">
        <ele>890.8</ele>
        <time>2022-07-14T09:46:28Z</time>
      </trkpt>
      <trkpt lat="44.18758" lon="2.79618">
        <ele>892.24</ele>
        <time>2022-07-14T09:46:36Z</time>
      </trkpt>
      <trkpt lat="44.18755" lon="2.79632">
        <ele>893.68</ele>
        <time>2022-07-14T09:46:44Z</time>
      </trkpt>
      <trkpt lat="44.18753" lon="2.79647">
        <ele>895.12</ele>
        <time>2022-07-14T09:46:52Z</time>
      </trkpt>
      <trkpt lat="44.18749" lon="2.79661">
        <ele>896.57</ele>
        <time>2022-07-14T09:47:00Z</time>
      </trkpt>
      <trkpt lat="44.18747" lon="2.79675">
        <ele>897.05</ele>
        <time>2022-07-14T09:47:07Z</time>
      </trkpt>
      <trkpt lat="44.18746" lon="2.7969">
        <ele>898.01</ele>
        <time>2022-07-14T09:47:14Z</time>
      </trkpt>
      <trkpt lat="44.18744" lon="2.79705">
        <ele>898.01</ele>
        <time>2022-07-14T09:47:22Z</time>
      </trkpt>
      <trkpt lat="44.18743" lon="2.79718">
        <ele>898.01</ele>
        <time>2022-07-14T09:47:29Z</time>
      </trkpt>
      <trkpt lat="44.18742" lon="2.79731">
        <ele>897.53</ele>
        <time>2022-07-14T09:47:35Z</time>
      </trkpt>
      <trkpt lat="44.18741" lon="2.79744">
        <ele>897.53</ele>
        <time>2022-07-14T09:47:41Z</time>
      </trkpt>
      <trkpt lat="44.18741" lon="2.79757">
        <ele>897.53</ele>
        <time>2022-07-14T09:47:47Z</time>
      </trkpt>
      <trkpt lat="44.18742" lon="2.79771">
        <ele>898.01</ele>
        <time>2022-07-14T09:47:54Z</time>
      </trkpt>
      <trkpt lat="44.18734" lon="2.79817">
        <ele>900.41</ele>
        <time>2022-07-14T09:55:10Z</time>
      </trkpt>
      <trkpt lat="44.18729" lon="2.79831">
        <ele>900.41</ele>
        <time>2022-07-14T09:55:13Z</time>
      </trkpt>
      <trkpt lat="44.18724" lon="2.79843">
        <ele>900.89</ele>
        <time>2022-07-14T09:55:16Z</time>
      </trkpt>
      <trkpt lat="44.18718" lon="2.79853">
        <ele>901.37</ele>
        <time>2022-07-14T09:55:21Z</time>
      </trkpt>
      <trkpt lat="44.18707" lon="2.79861">
        <ele>901.85</ele>
        <time>2022-07-14T09:55:25Z</time>
      </trkpt>
      <trkpt lat="44.18699" lon="2.79867">
        <ele>901.85</ele>
        <time>2022-07-14T09:55:28Z</time>
      </trkpt>
      <trkpt lat="44.18688" lon="2.79875">
        <ele>902.33</ele>
        <time>2022-07-14T09:55:32Z</time>
      </trkpt>
      <trkpt lat="44.18678" lon="2.79881">
        <ele>902.82</ele>
        <time>2022-07-14T09:55:36Z</time>
      </trkpt>
      <trkpt lat="44.18668" lon="2.79885">
        <ele>902.82</ele>
        <time>2022-07-14T09:55:40Z</time>
      </trkpt>
      <trkpt lat="44.18658" lon="2.79889">
        <ele>903.78</ele>
        <time>2022-07-14T09:55:43Z</time>
      </trkpt>
      <trkpt lat="44.18648" lon="2.79893">
        <ele>905.22</ele>
        <time>2022-07-14T09:55:46Z</time>
      </trkpt>
      <trkpt lat="44.1864" lon="2.79899">
        <ele>906.66</ele>
        <time>2022-07-14T09:55:49Z</time>
      </trkpt>
      <trkpt lat="44.18629" lon="2.79906">
        <ele>908.58</ele>
        <time>2022-07-14T09:55:53Z</time>
      </trkpt>
      <trkpt lat="44.18619" lon="2.79913">
        <ele>910.51</ele>
        <time>2022-07-14T09:55:58Z</time>
      </trkpt>
      <trkpt lat="44.18609" lon="2.7992">
        <ele>911.47</ele>
        <time>2022-07-14T09:56:01Z</time>
      </trkpt>
      <trkpt lat="44.18601" lon="2.79928">
        <ele>911.47</ele>
        <time>2022-07-14T09:56:04Z</time>
      </trkpt>
      <trkpt lat="44.18594" lon="2.79937">
        <ele>911.95</ele>
        <time>2022-07-14T09:56:07Z</time>
      </trkpt>
      <trkpt lat="44.18587" lon="2.79947">
        <ele>911.95</ele>
        <time>2022-07-14T09:56:10Z</time>
      </trkpt>
      <trkpt lat="44.18581" lon="2.79959">
        <ele>911.95</ele>
        <time>2022-07-14T09:56:13Z</time>
      </trkpt>
      <trkpt lat="44.18575" lon="2.79974">
        <ele>911.95</ele>
        <time>2022-07-14T09:56:16Z</time>
      </trkpt>
      <trkpt lat="44.1857" lon="2.7999">
        <ele>911.47</ele>
        <time>2022-07-14T09:56:19Z</time>
      </trkpt>
      <trkpt lat="44.18566" lon="2.80006">
        <ele>911.95</ele>
        <time>2022-07-14T09:56:22Z</time>
      </trkpt>
      <trkpt lat="44.18562" lon="2.80021">
        <ele>912.43</ele>
        <time>2022-07-14T09:56:25Z</time>
      </trkpt>
      <trkpt lat="44.18559" lon="2.80033">
        <ele>912.91</ele>
        <time>2022-07-14T09:56:28Z</time>
      </trkpt>
      <trkpt lat="44.18557" lon="2.80047">
        <ele>913.39</ele>
        <time>2022-07-14T09:56:31Z</time>
      </trkpt>
      <trkpt lat="44.18556" lon="2.80061">
        <ele>913.39</ele>
        <time>2022-07-14T09:56:35Z</time>
      </trkpt>
      <trkpt lat="44.18557" lon="2.80073">
        <ele>912.43</ele>
        <time>2022-07-14T09:56:42Z</time>
      </trkpt>
      <trkpt lat="44.18558" lon="2.80086">
        <ele>911.47</ele>
        <time>2022-07-14T09:56:49Z</time>
      </trkpt>
      <trkpt lat="44.18561" lon="2.80099">
        <ele>910.99</ele>
        <time>2022-07-14T09:56:56Z</time>
      </trkpt>
      <trkpt lat="44.18564" lon="2.80112">
        <ele>909.54</ele>
        <time>2022-07-14T09:57:04Z</time>
      </trkpt>
      <trkpt lat="44.18565" lon="2.80125">
        <ele>908.1</ele>
        <time>2022-07-14T09:57:10Z</time>
      </trkpt>
      <trkpt lat="44.18565" lon="2.80138">
        <ele>907.62</ele>
        <time>2022-07-14T09:57:16Z</time>
      </trkpt>
      <trkpt lat="44.18563" lon="2.80151">
        <ele>906.66</ele>
        <time>2022-07-14T09:57:22Z</time>
      </trkpt>
      <trkpt lat="44.18561" lon="2.80165">
        <ele>906.18</ele>
        <time>2022-07-14T09:57:28Z</time>
      </trkpt>
      <trkpt lat="44.18558" lon="2.80179">
        <ele>905.22</ele>
        <time>2022-07-14T09:57:35Z</time>
      </trkpt>
      <trkpt lat="44.18555" lon="2.80193">
        <ele>905.22</ele>
        <time>2022-07-14T09:57:42Z</time>
      </trkpt>
      <trkpt lat="44.18552" lon="2.80207">
        <ele>903.78</ele>
        <time>2022-07-14T09:57:49Z</time>
      </trkpt>
      <trkpt lat="44.18548" lon="2.80221">
        <ele>903.78</ele>
        <time>2022-07-14T09:57:57Z</time>
      </trkpt>
      <trkpt lat="44.18545" lon="2.80235">
        <ele>903.78</ele>
        <time>2022-07-14T09:58:06Z</time>
      </trkpt>
      <trkpt lat="44.18543" lon="2.80264">
        <ele>904.74</ele>
        <time>2022-07-14T09:58:35Z</time>
      </trkpt>
      <trkpt lat="44.18545" lon="2.80284">
        <ele>906.18</ele>
        <time>2022-07-14T09:58:45Z</time>
      </trkpt>
      <trkpt lat="44.18548" lon="2.80301">
        <ele>907.14</ele>
        <time>2022-07-14T09:58:55Z</time>
      </trkpt>
      <trkpt lat="44.18548" lon="2.80316">
        <ele>906.66</ele>
        <time>2022-07-14T09:59:04Z</time>
      </trkpt>
      <trkpt lat="44.18552" lon="2.80336">
        <ele>909.06</ele>
        <time>2022-07-14T09:59:13Z</time>
      </trkpt>
      <trkpt lat="44.18553" lon="2.80353">
        <ele>911.95</ele>
        <time>2022-07-14T09:59:21Z</time>
      </trkpt>
      <trkpt lat="44.18554" lon="2.80368">
        <ele>915.31</ele>
        <time>2022-07-14T09:59:28Z</time>
      </trkpt>
      <trkpt lat="44.18555" lon="2.80383">
        <ele>916.27</ele>
        <time>2022-07-14T09:59:36Z</time>
      </trkpt>
      <trkpt lat="44.18554" lon="2.80397">
        <ele>916.75</ele>
        <time>2022-07-14T09:59:43Z</time>
      </trkpt>
      <trkpt lat="44.18554" lon="2.80413">
        <ele>917.72</ele>
        <time>2022-07-14T09:59:50Z</time>
      </trkpt>
      <trkpt lat="44.18555" lon="2.80429">
        <ele>918.68</ele>
        <time>2022-07-14T09:59:58Z</time>
      </trkpt>
      <trkpt lat="44.18553" lon="2.80443">
        <ele>919.16</ele>
        <time>2022-07-14T10:00:05Z</time>
      </trkpt>
      <trkpt lat="44.18551" lon="2.80458">
        <ele>920.12</ele>
        <time>2022-07-14T10:00:12Z</time>
      </trkpt>
      <trkpt lat="44.18549" lon="2.80476">
        <ele>922.04</ele>
        <time>2022-07-14T10:00:24Z</time>
      </trkpt>
      <trkpt lat="44.18546" lon="2.80489">
        <ele>922.52</ele>
        <time>2022-07-14T10:00:30Z</time>
      </trkpt>
      <trkpt lat="44.18543" lon="2.80502">
        <ele>922.04</ele>
        <time>2022-07-14T10:00:38Z</time>
      </trkpt>
      <trkpt lat="44.18537" lon="2.80527">
        <ele>923.48</ele>
        <time>2022-07-14T10:00:52Z</time>
      </trkpt>
      <trkpt lat="44.18533" lon="2.80544">
        <ele>923.48</ele>
        <time>2022-07-14T10:01:01Z</time>
      </trkpt>
      <trkpt lat="44.1853" lon="2.80556">
        <ele>923.96</ele>
        <time>2022-07-14T10:01:08Z</time>
      </trkpt>
      <trkpt lat="44.18525" lon="2.80576">
        <ele>925.89</ele>
        <time>2022-07-14T10:01:17Z</time>
      </trkpt>
      <trkpt lat="44.18513" lon="2.80644">
        <ele>928.77</ele>
        <time>2022-07-14T10:03:03Z</time>
      </trkpt>
      <trkpt lat="44.18511" lon="2.80661">
        <ele>928.77</ele>
        <time>2022-07-14T10:03:13Z</time>
      </trkpt>
      <trkpt lat="44.18509" lon="2.80682">
        <ele>929.25</ele>
        <time>2022-07-14T10:03:27Z</time>
      </trkpt>
      <trkpt lat="44.18498" lon="2.80759">
        <ele>931.65</ele>
        <time>2022-07-14T10:04:08Z</time>
      </trkpt>
      <trkpt lat="44.18494" lon="2.80793">
        <ele>933.58</ele>
        <time>2022-07-14T10:04:29Z</time>
      </trkpt>
      <trkpt lat="44.18491" lon="2.80814">
        <ele>933.1</ele>
        <time>2022-07-14T10:04:44Z</time>
      </trkpt>
      <trkpt lat="44.1849" lon="2.80829">
        <ele>932.14</ele>
        <time>2022-07-14T10:04:53Z</time>
      </trkpt>
      <trkpt lat="44.18489" lon="2.80856">
        <ele>932.62</ele>
        <time>2022-07-14T10:05:07Z</time>
      </trkpt>
      <trkpt lat="44.18488" lon="2.80876">
        <ele>933.58</ele>
        <time>2022-07-14T10:05:15Z</time>
      </trkpt>
      <trkpt lat="44.18487" lon="2.80893">
        <ele>936.46</ele>
        <time>2022-07-14T10:05:25Z</time>
      </trkpt>
      <trkpt lat="44.18487" lon="2.80911">
        <ele>937.9</ele>
        <time>2022-07-14T10:05:33Z</time>
      </trkpt>
      <trkpt lat="44.18487" lon="2.80929">
        <ele>938.86</ele>
        <time>2022-07-14T10:05:44Z</time>
      </trkpt>
      <trkpt lat="44.18486" lon="2.80946">
        <ele>937.42</ele>
        <time>2022-07-14T10:05:53Z</time>
      </trkpt>
      <trkpt lat="44.18483" lon="2.80972">
        <ele>935.98</ele>
        <time>2022-07-14T10:06:08Z</time>
      </trkpt>
      <trkpt lat="44.18479" lon="2.80991">
        <ele>935.98</ele>
        <time>2022-07-14T10:06:19Z</time>
      </trkpt>
      <trkpt lat="44.18477" lon="2.81013">
        <ele>936.46</ele>
        <time>2022-07-14T10:06:28Z</time>
      </trkpt>
      <trkpt lat="44.18475" lon="2.81032">
        <ele>937.42</ele>
        <time>2022-07-14T10:06:36Z</time>
      </trkpt>
      <trkpt lat="44.18473" lon="2.8105">
        <ele>938.38</ele>
        <time>2022-07-14T10:06:45Z</time>
      </trkpt>
      <trkpt lat="44.1847" lon="2.81067">
        <ele>937.9</ele>
        <time>2022-07-14T10:06:53Z</time>
      </trkpt>
      <trkpt lat="44.1847" lon="2.81083">
        <ele>937.42</ele>
        <time>2022-07-14T10:07:01Z</time>
      </trkpt>
      <trkpt lat="44.18469" lon="2.81098">
        <ele>938.38</ele>
        <time>2022-07-14T10:07:07Z</time>
      </trkpt>
      <trkpt lat="44.18467" lon="2.81113">
        <ele>938.86</ele>
        <time>2022-07-14T10:07:13Z</time>
      </trkpt>
      <trkpt lat="44.18465" lon="2.81127">
        <ele>939.35</ele>
        <time>2022-07-14T10:07:20Z</time>
      </trkpt>
      <trkpt lat="44.18462" lon="2.81141">
        <ele>940.31</ele>
        <time>2022-07-14T10:07:27Z</time>
      </trkpt>
      <trkpt lat="44.1846" lon="2.81154">
        <ele>941.75</ele>
        <time>2022-07-14T10:07:33Z</time>
      </trkpt>
      <trkpt lat="44.18458" lon="2.81168">
        <ele>941.75</ele>
        <time>2022-07-14T10:07:40Z</time>
      </trkpt>
      <trkpt lat="44.18456" lon="2.81181">
        <ele>941.75</ele>
        <time>2022-07-14T10:07:46Z</time>
      </trkpt>
      <trkpt lat="44.18452" lon="2.81196">
        <ele>941.27</ele>
        <time>2022-07-14T10:07:53Z</time>
      </trkpt>
      <trkpt lat="44.18449" lon="2.81209">
        <ele>940.79</ele>
        <time>2022-07-14T10:07:59Z</time>
      </trkpt>
      <trkpt lat="44.18447" lon="2.81224">
        <ele>940.31</ele>
        <time>2022-07-14T10:08:06Z</time>
      </trkpt>
      <trkpt lat="44.18443" lon="2.81237">
        <ele>940.79</ele>
        <time>2022-07-14T10:08:12Z</time>
      </trkpt>
      <trkpt lat="44.18441" lon="2.81251">
        <ele>940.79</ele>
        <time>2022-07-14T10:08:19Z</time>
      </trkpt>
      <trkpt lat="44.18439" lon="2.81264">
        <ele>941.27</ele>
        <time>2022-07-14T10:08:25Z</time>
      </trkpt>
      <trkpt lat="44.18437" lon="2.81276">
        <ele>941.75</ele>
        <time>2022-07-14T10:08:31Z</time>
      </trkpt>
      <trkpt lat="44.18435" lon="2.81289">
        <ele>942.23</ele>
        <time>2022-07-14T10:08:37Z</time>
      </trkpt>
      <trkpt lat="44.18433" lon="2.81301">
        <ele>941.75</ele>
        <time>2022-07-14T10:08:43Z</time>
      </trkpt>
      <trkpt lat="44.18431" lon="2.81315">
        <ele>941.75</ele>
        <time>2022-07-14T10:08:50Z</time>
      </trkpt>
      <trkpt lat="44.18429" lon="2.81329">
        <ele>942.23</ele>
        <time>2022-07-14T10:08:57Z</time>
      </trkpt>
      <trkpt lat="44.18426" lon="2.81343">
        <ele>943.19</ele>
        <time>2022-07-14T10:09:04Z</time>
      </trkpt>
      <trkpt lat="44.18425" lon="2.81357">
        <ele>944.15</ele>
        <time>2022-07-14T10:09:10Z</time>
      </trkpt>
      <trkpt lat="44.18425" lon="2.8137">
        <ele>944.15</ele>
        <time>2022-07-14T10:09:16Z</time>
      </trkpt>
      <trkpt lat="44.18423" lon="2.81385">
        <ele>945.11</ele>
        <time>2022-07-14T10:09:23Z</time>
      </trkpt>
      <trkpt lat="44.18421" lon="2.81399">
        <ele>946.56</ele>
        <time>2022-07-14T10:09:29Z</time>
      </trkpt>
      <trkpt lat="44.1842" lon="2.81412">
        <ele>945.59</ele>
        <time>2022-07-14T10:09:35Z</time>
      </trkpt>
      <trkpt lat="44.18418" lon="2.81426">
        <ele>946.56</ele>
        <time>2022-07-14T10:09:42Z</time>
      </trkpt>
      <trkpt lat="44.18417" lon="2.81439">
        <ele>947.04</ele>
        <time>2022-07-14T10:09:48Z</time>
      </trkpt>
      <trkpt lat="44.18416" lon="2.81452">
        <ele>947.04</ele>
        <time>2022-07-14T10:09:54Z</time>
      </trkpt>
      <trkpt lat="44.18415" lon="2.81467">
        <ele>947.52</ele>
        <time>2022-07-14T10:10:01Z</time>
      </trkpt>
      <trkpt lat="44.18414" lon="2.81481">
        <ele>947.52</ele>
        <time>2022-07-14T10:10:08Z</time>
      </trkpt>
      <trkpt lat="44.18413" lon="2.81495">
        <ele>948</ele>
        <time>2022-07-14T10:10:14Z</time>
      </trkpt>
      <trkpt lat="44.18413" lon="2.81508">
        <ele>948.96</ele>
        <time>2022-07-14T10:10:20Z</time>
      </trkpt>
      <trkpt lat="44.18412" lon="2.8152">
        <ele>949.44</ele>
        <time>2022-07-14T10:10:26Z</time>
      </trkpt>
      <trkpt lat="44.18411" lon="2.81533">
        <ele>948.96</ele>
        <time>2022-07-14T10:10:32Z</time>
      </trkpt>
      <trkpt lat="44.18408" lon="2.81547">
        <ele>949.44</ele>
        <time>2022-07-14T10:10:39Z</time>
      </trkpt>
      <trkpt lat="44.18405" lon="2.8156">
        <ele>948.96</ele>
        <time>2022-07-14T10:10:46Z</time>
      </trkpt>
      <trkpt lat="44.18402" lon="2.81574">
        <ele>949.44</ele>
        <time>2022-07-14T10:10:53Z</time>
      </trkpt>
      <trkpt lat="44.184" lon="2.81587">
        <ele>948.48</ele>
        <time>2022-07-14T10:11:00Z</time>
      </trkpt>
      <trkpt lat="44.18401" lon="2.816">
        <ele>949.44</ele>
        <time>2022-07-14T10:11:06Z</time>
      </trkpt>
      <trkpt lat="44.18403" lon="2.81613">
        <ele>948.96</ele>
        <time>2022-07-14T10:11:13Z</time>
      </trkpt>
      <trkpt lat="44.18406" lon="2.81625">
        <ele>948.96</ele>
        <time>2022-07-14T10:11:21Z</time>
      </trkpt>
      <trkpt lat="44.18415" lon="2.81627">
        <ele>948.96</ele>
        <time>2022-07-14T10:11:28Z</time>
      </trkpt>
      <trkpt lat="44.18424" lon="2.81623">
        <ele>948</ele>
        <time>2022-07-14T10:11:34Z</time>
      </trkpt>
      <trkpt lat="44.18433" lon="2.8162">
        <ele>947.04</ele>
        <time>2022-07-14T10:11:40Z</time>
      </trkpt>
      <trkpt lat="44.18443" lon="2.81619">
        <ele>946.56</ele>
        <time>2022-07-14T10:11:46Z</time>
      </trkpt>
      <trkpt lat="44.18452" lon="2.81618">
        <ele>946.56</ele>
        <time>2022-07-14T10:11:52Z</time>
      </trkpt>
      <trkpt lat="44.18462" lon="2.81621">
        <ele>946.07</ele>
        <time>2022-07-14T10:12:00Z</time>
      </trkpt>
      <trkpt lat="44.18471" lon="2.81624">
        <ele>945.11</ele>
        <time>2022-07-14T10:12:08Z</time>
      </trkpt>
      <trkpt lat="44.18479" lon="2.81634">
        <ele>944.15</ele>
        <time>2022-07-14T10:12:16Z</time>
      </trkpt>
      <trkpt lat="44.18485" lon="2.81646">
        <ele>943.67</ele>
        <time>2022-07-14T10:12:23Z</time>
      </trkpt>
      <trkpt lat="44.18489" lon="2.81658">
        <ele>943.19</ele>
        <time>2022-07-14T10:12:30Z</time>
      </trkpt>
      <trkpt lat="44.18494" lon="2.8167">
        <ele>942.71</ele>
        <time>2022-07-14T10:12:37Z</time>
      </trkpt>
      <trkpt lat="44.18498" lon="2.81682">
        <ele>942.23</ele>
        <time>2022-07-14T10:12:43Z</time>
      </trkpt>
      <trkpt lat="44.18501" lon="2.81695">
        <ele>942.23</ele>
        <time>2022-07-14T10:12:49Z</time>
      </trkpt>
      <trkpt lat="44.18504" lon="2.81709">
        <ele>941.27</ele>
        <time>2022-07-14T10:12:56Z</time>
      </trkpt>
      <trkpt lat="44.18508" lon="2.81722">
        <ele>940.79</ele>
        <time>2022-07-14T10:13:03Z</time>
      </trkpt>
      <trkpt lat="44.1851" lon="2.81735">
        <ele>940.79</ele>
        <time>2022-07-14T10:13:09Z</time>
      </trkpt>
      <trkpt lat="44.18513" lon="2.81749">
        <ele>939.35</ele>
        <time>2022-07-14T10:13:16Z</time>
      </trkpt>
      <trkpt lat="44.18517" lon="2.81762">
        <ele>937.42</ele>
        <time>2022-07-14T10:13:23Z</time>
      </trkpt>
      <trkpt lat="44.18521" lon="2.81774">
        <ele>936.94</ele>
        <time>2022-07-14T10:13:29Z</time>
      </trkpt>
      <trkpt lat="44.18526" lon="2.81786">
        <ele>935.5</ele>
        <time>2022-07-14T10:13:36Z</time>
      </trkpt>
      <trkpt lat="44.18533" lon="2.81795">
        <ele>935.02</ele>
        <time>2022-07-14T10:13:42Z</time>
      </trkpt>
      <trkpt lat="44.18541" lon="2.81803">
        <ele>934.54</ele>
        <time>2022-07-14T10:13:49Z</time>
      </trkpt>
      <trkpt lat="44.18549" lon="2.81808">
        <ele>934.06</ele>
        <time>2022-07-14T10:13:55Z</time>
      </trkpt>
      <trkpt lat="44.18559" lon="2.81815">
        <ele>933.58</ele>
        <time>2022-07-14T10:14:02Z</time>
      </trkpt>
      <trkpt lat="44.18568" lon="2.81821">
        <ele>933.1</ele>
        <time>2022-07-14T10:14:09Z</time>
      </trkpt>
      <trkpt lat="44.18576" lon="2.81827">
        <ele>932.14</ele>
        <time>2022-07-14T10:14:15Z</time>
      </trkpt>
      <trkpt lat="44.18585" lon="2.81835">
        <ele>931.65</ele>
        <time>2022-07-14T10:14:22Z</time>
      </trkpt>
      <trkpt lat="44.18594" lon="2.81844">
        <ele>931.17</ele>
        <time>2022-07-14T10:14:29Z</time>
      </trkpt>
      <trkpt lat="44.18602" lon="2.81851">
        <ele>930.69</ele>
        <time>2022-07-14T10:14:35Z</time>
      </trkpt>
      <trkpt lat="44.18611" lon="2.81859">
        <ele>930.21</ele>
        <time>2022-07-14T10:14:42Z</time>
      </trkpt>
      <trkpt lat="44.18622" lon="2.81868">
        <ele>930.69</ele>
        <time>2022-07-14T10:14:49Z</time>
      </trkpt>
      <trkpt lat="44.18631" lon="2.81878">
        <ele>931.65</ele>
        <time>2022-07-14T10:14:56Z</time>
      </trkpt>
      <trkpt lat="44.18638" lon="2.81886">
        <ele>930.69</ele>
        <time>2022-07-14T10:15:03Z</time>
      </trkpt>
      <trkpt lat="44.18647" lon="2.81897">
        <ele>929.25</ele>
        <time>2022-07-14T10:15:10Z</time>
      </trkpt>
      <trkpt lat="44.18655" lon="2.81909">
        <ele>927.81</ele>
        <time>2022-07-14T10:15:18Z</time>
      </trkpt>
      <trkpt lat="44.18663" lon="2.81919">
        <ele>926.37</ele>
        <time>2022-07-14T10:15:26Z</time>
      </trkpt>
      <trkpt lat="44.18672" lon="2.81929">
        <ele>923.48</ele>
        <time>2022-07-14T10:15:34Z</time>
      </trkpt>
      <trkpt lat="44.18678" lon="2.81942">
        <ele>921.56</ele>
        <time>2022-07-14T10:15:41Z</time>
      </trkpt>
      <trkpt lat="44.18684" lon="2.81954">
        <ele>919.64</ele>
        <time>2022-07-14T10:15:48Z</time>
      </trkpt>
      <trkpt lat="44.18691" lon="2.81965">
        <ele>918.2</ele>
        <time>2022-07-14T10:15:55Z</time>
      </trkpt>
      <trkpt lat="44.18701" lon="2.81974">
        <ele>918.68</ele>
        <time>2022-07-14T10:16:02Z</time>
      </trkpt>
      <trkpt lat="44.1871" lon="2.81981">
        <ele>920.12</ele>
        <time>2022-07-14T10:16:08Z</time>
      </trkpt>
      <trkpt lat="44.18719" lon="2.81988">
        <ele>920.6</ele>
        <time>2022-07-14T10:16:14Z</time>
      </trkpt>
      <trkpt lat="44.18727" lon="2.81996">
        <ele>920.12</ele>
        <time>2022-07-14T10:16:20Z</time>
      </trkpt>
      <trkpt lat="44.18736" lon="2.82004">
        <ele>920.12</ele>
        <time>2022-07-14T10:16:26Z</time>
      </trkpt>
      <trkpt lat="44.18744" lon="2.82011">
        <ele>918.68</ele>
        <time>2022-07-14T10:16:32Z</time>
      </trkpt>
      <trkpt lat="44.18753" lon="2.8202">
        <ele>918.2</ele>
        <time>2022-07-14T10:16:39Z</time>
      </trkpt>
      <trkpt lat="44.18762" lon="2.82029">
        <ele>916.75</ele>
        <time>2022-07-14T10:16:46Z</time>
      </trkpt>
      <trkpt lat="44.18772" lon="2.82035">
        <ele>915.79</ele>
        <time>2022-07-14T10:16:53Z</time>
      </trkpt>
      <trkpt lat="44.18782" lon="2.82039">
        <ele>916.27</ele>
        <time>2022-07-14T10:17:00Z</time>
      </trkpt>
      <trkpt lat="44.18793" lon="2.82041">
        <ele>917.24</ele>
        <time>2022-07-14T10:17:07Z</time>
      </trkpt>
      <trkpt lat="44.18804" lon="2.8204">
        <ele>917.24</ele>
        <time>2022-07-14T10:17:14Z</time>
      </trkpt>
      <trkpt lat="44.18814" lon="2.82037">
        <ele>916.75</ele>
        <time>2022-07-14T10:17:21Z</time>
      </trkpt>
      <trkpt lat="44.18823" lon="2.82031">
        <ele>916.27</ele>
        <time>2022-07-14T10:17:28Z</time>
      </trkpt>
      <trkpt lat="44.18833" lon="2.8202">
        <ele>916.75</ele>
        <time>2022-07-14T10:17:36Z</time>
      </trkpt>
      <trkpt lat="44.18841" lon="2.82009">
        <ele>917.24</ele>
        <time>2022-07-14T10:17:43Z</time>
      </trkpt>
      <trkpt lat="44.18849" lon="2.82">
        <ele>918.68</ele>
        <time>2022-07-14T10:17:50Z</time>
      </trkpt>
      <trkpt lat="44.18857" lon="2.81989">
        <ele>919.64</ele>
        <time>2022-07-14T10:17:59Z</time>
      </trkpt>
      <trkpt lat="44.18868" lon="2.81978">
        <ele>919.16</ele>
        <time>2022-07-14T10:18:09Z</time>
      </trkpt>
      <trkpt lat="44.18879" lon="2.81966">
        <ele>918.2</ele>
        <time>2022-07-14T10:18:17Z</time>
      </trkpt>
      <trkpt lat="44.18893" lon="2.81955">
        <ele>918.2</ele>
        <time>2022-07-14T10:18:25Z</time>
      </trkpt>
      <trkpt lat="44.18904" lon="2.81945">
        <ele>919.16</ele>
        <time>2022-07-14T10:18:33Z</time>
      </trkpt>
      <trkpt lat="44.18915" lon="2.81936">
        <ele>919.16</ele>
        <time>2022-07-14T10:18:41Z</time>
      </trkpt>
      <trkpt lat="44.18927" lon="2.81926">
        <ele>919.16</ele>
        <time>2022-07-14T10:18:51Z</time>
      </trkpt>
      <trkpt lat="44.18937" lon="2.81915">
        <ele>919.16</ele>
        <time>2022-07-14T10:18:59Z</time>
      </trkpt>
      <trkpt lat="44.18947" lon="2.81906">
        <ele>920.12</ele>
        <time>2022-07-14T10:19:07Z</time>
      </trkpt>
      <trkpt lat="44.18956" lon="2.81898">
        <ele>919.64</ele>
        <time>2022-07-14T10:19:14Z</time>
      </trkpt>
      <trkpt lat="44.18965" lon="2.81891">
        <ele>920.12</ele>
        <time>2022-07-14T10:19:21Z</time>
      </trkpt>
      <trkpt lat="44.18974" lon="2.81884">
        <ele>921.08</ele>
        <time>2022-07-14T10:19:28Z</time>
      </trkpt>
      <trkpt lat="44.18986" lon="2.81875">
        <ele>922.52</ele>
        <time>2022-07-14T10:19:35Z</time>
      </trkpt>
      <trkpt lat="44.18994" lon="2.81866">
        <ele>922.04</ele>
        <time>2022-07-14T10:19:42Z</time>
      </trkpt>
      <trkpt lat="44.18999" lon="2.81857">
        <ele>923</ele>
        <time>2022-07-14T10:19:48Z</time>
      </trkpt>
      <trkpt lat="44.19006" lon="2.81844">
        <ele>923.48</ele>
        <time>2022-07-14T10:19:55Z</time>
      </trkpt>
      <trkpt lat="44.19011" lon="2.81832">
        <ele>923.96</ele>
        <time>2022-07-14T10:20:01Z</time>
      </trkpt>
      <trkpt lat="44.19016" lon="2.8182">
        <ele>923.96</ele>
        <time>2022-07-14T10:20:07Z</time>
      </trkpt>
      <trkpt lat="44.19021" lon="2.81809">
        <ele>924.45</ele>
        <time>2022-07-14T10:20:13Z</time>
      </trkpt>
      <trkpt lat="44.19025" lon="2.81796">
        <ele>924.45</ele>
        <time>2022-07-14T10:20:19Z</time>
      </trkpt>
      <trkpt lat="44.19031" lon="2.81784">
        <ele>924.93</ele>
        <time>2022-07-14T10:20:26Z</time>
      </trkpt>
      <trkpt lat="44.19037" lon="2.81771">
        <ele>923.96</ele>
        <time>2022-07-14T10:20:33Z</time>
      </trkpt>
      <trkpt lat="44.19043" lon="2.8176">
        <ele>923.48</ele>
        <time>2022-07-14T10:20:40Z</time>
      </trkpt>
      <trkpt lat="44.1905" lon="2.81749">
        <ele>923</ele>
        <time>2022-07-14T10:20:48Z</time>
      </trkpt>
      <trkpt lat="44.19057" lon="2.81735">
        <ele>921.56</ele>
        <time>2022-07-14T10:20:56Z</time>
      </trkpt>
      <trkpt lat="44.19065" lon="2.81713">
        <ele>922.04</ele>
        <time>2022-07-14T10:21:55Z</time>
      </trkpt>
      <trkpt lat="44.19071" lon="2.81699">
        <ele>920.12</ele>
        <time>2022-07-14T10:22:06Z</time>
      </trkpt>
      <trkpt lat="44.19076" lon="2.81685">
        <ele>917.72</ele>
        <time>2022-07-14T10:22:16Z</time>
      </trkpt>
      <trkpt lat="44.1908" lon="2.81669">
        <ele>914.83</ele>
        <time>2022-07-14T10:22:27Z</time>
      </trkpt>
      <trkpt lat="44.19087" lon="2.81649">
        <ele>913.39</ele>
        <time>2022-07-14T10:22:40Z</time>
      </trkpt>
      <trkpt lat="44.19093" lon="2.81633">
        <ele>911.95</ele>
        <time>2022-07-14T10:22:51Z</time>
      </trkpt>
      <trkpt lat="44.191" lon="2.81618">
        <ele>909.54</ele>
        <time>2022-07-14T10:23:00Z</time>
      </trkpt>
      <trkpt lat="44.19115" lon="2.81587">
        <ele>911.47</ele>
        <time>2022-07-14T10:24:02Z</time>
      </trkpt>
      <trkpt lat="44.19127" lon="2.81571">
        <ele>917.24</ele>
        <time>2022-07-14T10:24:16Z</time>
      </trkpt>
      <trkpt lat="44.19137" lon="2.81564">
        <ele>918.68</ele>
        <time>2022-07-14T10:24:25Z</time>
      </trkpt>
      <trkpt lat="44.19148" lon="2.81563">
        <ele>920.12</ele>
        <time>2022-07-14T10:24:34Z</time>
      </trkpt>
      <trkpt lat="44.19159" lon="2.81559">
        <ele>921.08</ele>
        <time>2022-07-14T10:24:44Z</time>
      </trkpt>
      <trkpt lat="44.19167" lon="2.81548">
        <ele>923</ele>
        <time>2022-07-14T10:24:54Z</time>
      </trkpt>
      <trkpt lat="44.19178" lon="2.81525">
        <ele>922.04</ele>
        <time>2022-07-14T10:25:16Z</time>
      </trkpt>
      <trkpt lat="44.19186" lon="2.81504">
        <ele>920.12</ele>
        <time>2022-07-14T10:25:29Z</time>
      </trkpt>
      <trkpt lat="44.19194" lon="2.81491">
        <ele>920.12</ele>
        <time>2022-07-14T10:25:38Z</time>
      </trkpt>
      <trkpt lat="44.192" lon="2.81471">
        <ele>920.12</ele>
        <time>2022-07-14T10:25:50Z</time>
      </trkpt>
      <trkpt lat="44.1921" lon="2.81456">
        <ele>917.72</ele>
        <time>2022-07-14T10:26:00Z</time>
      </trkpt>
      <trkpt lat="44.19218" lon="2.81441">
        <ele>917.72</ele>
        <time>2022-07-14T10:26:18Z</time>
      </trkpt>
    </trkseg>
  </trk>
  <trk>
    <name><![CDATA[Arvieu]]></name>
    <extensions>
      <line xmlns="http://www.topografix.com/GPX/gpx_style/0/2">
        <color>0000FF</color>
        <width>4</width>
      </line>
    </extensions>
    <trkseg>
      <trkpt lat="44.19239" lon="2.81451">
        <ele>926.37</ele>
        <time>2022-07-15T04:54:45Z</time>
      </trkpt>
      <trkpt lat="44.19231" lon="2.81443">
        <ele>915.79</ele>
        <time>2022-07-15T05:01:00Z</time>
      </trkpt>
      <trkpt lat="44.19222" lon="2.81435">
        <ele>916.75</ele>
        <time>2022-07-15T05:01:09Z</time>
      </trkpt>
      <trkpt lat="44.19217" lon="2.81416">
        <ele>916.27</ele>
        <time>2022-07-15T05:01:32Z</time>
      </trkpt>
      <trkpt lat="44.1922" lon="2.81402">
        <ele>916.27</ele>
        <time>2022-07-15T05:01:40Z</time>
      </trkpt>
      <trkpt lat="44.19225" lon="2.81389">
        <ele>916.75</ele>
        <time>2022-07-15T05:01:49Z</time>
      </trkpt>
      <trkpt lat="44.19231" lon="2.81379">
        <ele>916.75</ele>
        <time>2022-07-15T05:01:58Z</time>
      </trkpt>
      <trkpt lat="44.19238" lon="2.81366">
        <ele>916.75</ele>
        <time>2022-07-15T05:02:08Z</time>
      </trkpt>
      <trkpt lat="44.19242" lon="2.81352">
        <ele>917.24</ele>
        <time>2022-07-15T05:02:17Z</time>
      </trkpt>
      <trkpt lat="44.19247" lon="2.81328">
        <ele>917.24</ele>
        <time>2022-07-15T05:02:34Z</time>
      </trkpt>
      <trkpt lat="44.1925" lon="2.81313">
        <ele>917.24</ele>
        <time>2022-07-15T05:02:44Z</time>
      </trkpt>
      <trkpt lat="44.19253" lon="2.81298">
        <ele>917.72</ele>
        <time>2022-07-15T05:02:53Z</time>
      </trkpt>
      <trkpt lat="44.19257" lon="2.81284">
        <ele>916.75</ele>
        <time>2022-07-15T05:03:01Z</time>
      </trkpt>
      <trkpt lat="44.19262" lon="2.81269">
        <ele>915.79</ele>
        <time>2022-07-15T05:03:09Z</time>
      </trkpt>
      <trkpt lat="44.19268" lon="2.81256">
        <ele>914.35</ele>
        <time>2022-07-15T05:03:18Z</time>
      </trkpt>
      <trkpt lat="44.19276" lon="2.81244">
        <ele>912.91</ele>
        <time>2022-07-15T05:03:26Z</time>
      </trkpt>
      <trkpt lat="44.19282" lon="2.81232">
        <ele>913.39</ele>
        <time>2022-07-15T05:03:34Z</time>
      </trkpt>
      <trkpt lat="44.19289" lon="2.81221">
        <ele>912.91</ele>
        <time>2022-07-15T05:03:43Z</time>
      </trkpt>
      <trkpt lat="44.19293" lon="2.81207">
        <ele>910.51</ele>
        <time>2022-07-15T05:03:53Z</time>
      </trkpt>
      <trkpt lat="44.19297" lon="2.81193">
        <ele>909.54</ele>
        <time>2022-07-15T05:04:02Z</time>
      </trkpt>
      <trkpt lat="44.19302" lon="2.81179">
        <ele>909.06</ele>
        <time>2022-07-15T05:04:11Z</time>
      </trkpt>
      <trkpt lat="44.19306" lon="2.81163">
        <ele>908.1</ele>
        <time>2022-07-15T05:04:20Z</time>
      </trkpt>
      <trkpt lat="44.19311" lon="2.81149">
        <ele>908.1</ele>
        <time>2022-07-15T05:04:28Z</time>
      </trkpt>
      <trkpt lat="44.19315" lon="2.81135">
        <ele>907.14</ele>
        <time>2022-07-15T05:04:36Z</time>
      </trkpt>
      <trkpt lat="44.19318" lon="2.81119">
        <ele>906.66</ele>
        <time>2022-07-15T05:04:45Z</time>
      </trkpt>
      <trkpt lat="44.1932" lon="2.81103">
        <ele>905.7</ele>
        <time>2022-07-15T05:04:54Z</time>
      </trkpt>
      <trkpt lat="44.19322" lon="2.81089">
        <ele>905.22</ele>
        <time>2022-07-15T05:05:03Z</time>
      </trkpt>
      <trkpt lat="44.19325" lon="2.81073">
        <ele>903.78</ele>
        <time>2022-07-15T05:05:12Z</time>
      </trkpt>
      <trkpt lat="44.1933" lon="2.81048">
        <ele>901.37</ele>
        <time>2022-07-15T05:05:29Z</time>
      </trkpt>
      <trkpt lat="44.19333" lon="2.8103">
        <ele>899.93</ele>
        <time>2022-07-15T05:05:38Z</time>
      </trkpt>
      <trkpt lat="44.19334" lon="2.81009">
        <ele>899.45</ele>
        <time>2022-07-15T05:05:49Z</time>
      </trkpt>
      <trkpt lat="44.19334" lon="2.8098">
        <ele>897.53</ele>
        <time>2022-07-15T05:06:05Z</time>
      </trkpt>
      <trkpt lat="44.19335" lon="2.80949">
        <ele>894.64</ele>
        <time>2022-07-15T05:06:23Z</time>
      </trkpt>
      <trkpt lat="44.19337" lon="2.80933">
        <ele>892.72</ele>
        <time>2022-07-15T05:06:32Z</time>
      </trkpt>
      <trkpt lat="44.19339" lon="2.80915">
        <ele>889.84</ele>
        <time>2022-07-15T05:06:42Z</time>
      </trkpt>
      <trkpt lat="44.19341" lon="2.80899">
        <ele>886.95</ele>
        <time>2022-07-15T05:06:50Z</time>
      </trkpt>
      <trkpt lat="44.19344" lon="2.80883">
        <ele>883.59</ele>
        <time>2022-07-15T05:06:58Z</time>
      </trkpt>
      <trkpt lat="44.19339" lon="2.80851">
        <ele>883.11</ele>
        <time>2022-07-15T05:07:41Z</time>
      </trkpt>
      <trkpt lat="44.19342" lon="2.80833">
        <ele>884.07</ele>
        <time>2022-07-15T05:07:50Z</time>
      </trkpt>
      <trkpt lat="44.19347" lon="2.80819">
        <ele>881.67</ele>
        <time>2022-07-15T05:08:02Z</time>
      </trkpt>
      <trkpt lat="44.1935" lon="2.80803">
        <ele>880.71</ele>
        <time>2022-07-15T05:08:11Z</time>
      </trkpt>
      <trkpt lat="44.19355" lon="2.80728">
        <ele>865.8</ele>
        <time>2022-07-15T05:09:01Z</time>
      </trkpt>
      <trkpt lat="44.19352" lon="2.807">
        <ele>861.96</ele>
        <time>2022-07-15T05:09:15Z</time>
      </trkpt>
      <trkpt lat="44.19384" lon="2.80548">
        <ele>833.12</ele>
        <time>2022-07-15T05:11:02Z</time>
      </trkpt>
      <trkpt lat="44.19392" lon="2.80519">
        <ele>828.79</ele>
        <time>2022-07-15T05:11:13Z</time>
      </trkpt>
      <trkpt lat="44.19352" lon="2.80372">
        <ele>818.7</ele>
        <time>2022-07-15T05:12:55Z</time>
      </trkpt>
      <trkpt lat="44.193" lon="2.80313">
        <ele>839.85</ele>
        <time>2022-07-15T05:14:30Z</time>
      </trkpt>
      <trkpt lat="44.19285" lon="2.80294">
        <ele>846.1</ele>
        <time>2022-07-15T05:15:54Z</time>
      </trkpt>
      <trkpt lat="44.19275" lon="2.80279">
        <ele>845.62</ele>
        <time>2022-07-15T05:16:02Z</time>
      </trkpt>
      <trkpt lat="44.19268" lon="2.80267">
        <ele>844.66</ele>
        <time>2022-07-15T05:16:10Z</time>
      </trkpt>
      <trkpt lat="44.19259" lon="2.80252">
        <ele>842.25</ele>
        <time>2022-07-15T05:16:22Z</time>
      </trkpt>
      <trkpt lat="44.19245" lon="2.80229">
        <ele>839.85</ele>
        <time>2022-07-15T05:16:35Z</time>
      </trkpt>
      <trkpt lat="44.19226" lon="2.80167">
        <ele>838.89</ele>
        <time>2022-07-15T05:17:05Z</time>
      </trkpt>
      <trkpt lat="44.19225" lon="2.80153">
        <ele>838.41</ele>
        <time>2022-07-15T05:17:13Z</time>
      </trkpt>
      <trkpt lat="44.19224" lon="2.80133">
        <ele>837.45</ele>
        <time>2022-07-15T05:17:23Z</time>
      </trkpt>
      <trkpt lat="44.19225" lon="2.80103">
        <ele>832.64</ele>
        <time>2022-07-15T05:17:40Z</time>
      </trkpt>
      <trkpt lat="44.19226" lon="2.80084">
        <ele>828.31</ele>
        <time>2022-07-15T05:17:48Z</time>
      </trkpt>
      <trkpt lat="44.19226" lon="2.80064">
        <ele>823.51</ele>
        <time>2022-07-15T05:17:57Z</time>
      </trkpt>
      <trkpt lat="44.19225" lon="2.80045">
        <ele>822.06</ele>
        <time>2022-07-15T05:18:05Z</time>
      </trkpt>
      <trkpt lat="44.19222" lon="2.80023">
        <ele>822.55</ele>
        <time>2022-07-15T05:18:15Z</time>
      </trkpt>
      <trkpt lat="44.19211" lon="2.79977">
        <ele>820.62</ele>
        <time>2022-07-15T05:18:42Z</time>
      </trkpt>
      <trkpt lat="44.19225" lon="2.79948">
        <ele>818.7</ele>
        <time>2022-07-15T05:19:12Z</time>
      </trkpt>
      <trkpt lat="44.19247" lon="2.79915">
        <ele>820.62</ele>
        <time>2022-07-15T05:19:30Z</time>
      </trkpt>
      <trkpt lat="44.19257" lon="2.79883">
        <ele>818.22</ele>
        <time>2022-07-15T05:19:46Z</time>
      </trkpt>
      <trkpt lat="44.19259" lon="2.79862">
        <ele>816.3</ele>
        <time>2022-07-15T05:19:57Z</time>
      </trkpt>
      <trkpt lat="44.19262" lon="2.79842">
        <ele>817.74</ele>
        <time>2022-07-15T05:20:08Z</time>
      </trkpt>
      <trkpt lat="44.19262" lon="2.79822">
        <ele>816.78</ele>
        <time>2022-07-15T05:20:16Z</time>
      </trkpt>
      <trkpt lat="44.19261" lon="2.79803">
        <ele>818.22</ele>
        <time>2022-07-15T05:20:24Z</time>
      </trkpt>
      <trkpt lat="44.1926" lon="2.79785">
        <ele>820.14</ele>
        <time>2022-07-15T05:20:32Z</time>
      </trkpt>
      <trkpt lat="44.19261" lon="2.79767">
        <ele>819.66</ele>
        <time>2022-07-15T05:20:42Z</time>
      </trkpt>
      <trkpt lat="44.19262" lon="2.79748">
        <ele>818.7</ele>
        <time>2022-07-15T05:20:51Z</time>
      </trkpt>
      <trkpt lat="44.19262" lon="2.79728">
        <ele>818.22</ele>
        <time>2022-07-15T05:21:00Z</time>
      </trkpt>
      <trkpt lat="44.19263" lon="2.79709">
        <ele>818.7</ele>
        <time>2022-07-15T05:21:08Z</time>
      </trkpt>
      <trkpt lat="44.19263" lon="2.79689">
        <ele>819.66</ele>
        <time>2022-07-15T05:21:16Z</time>
      </trkpt>
      <trkpt lat="44.19262" lon="2.79669">
        <ele>819.18</ele>
        <time>2022-07-15T05:21:26Z</time>
      </trkpt>
      <trkpt lat="44.19259" lon="2.79651">
        <ele>819.66</ele>
        <time>2022-07-15T05:21:34Z</time>
      </trkpt>
      <trkpt lat="44.19255" lon="2.79635">
        <ele>820.14</ele>
        <time>2022-07-15T05:21:41Z</time>
      </trkpt>
      <trkpt lat="44.19249" lon="2.79616">
        <ele>819.66</ele>
        <time>2022-07-15T05:21:53Z</time>
      </trkpt>
      <trkpt lat="44.19246" lon="2.796">
        <ele>815.82</ele>
        <time>2022-07-15T05:22:01Z</time>
      </trkpt>
      <trkpt lat="44.19244" lon="2.79583">
        <ele>811.97</ele>
        <time>2022-07-15T05:22:10Z</time>
      </trkpt>
      <trkpt lat="44.19242" lon="2.79567">
        <ele>810.05</ele>
        <time>2022-07-15T05:22:18Z</time>
      </trkpt>
      <trkpt lat="44.19241" lon="2.7955">
        <ele>810.53</ele>
        <time>2022-07-15T05:22:27Z</time>
      </trkpt>
      <trkpt lat="44.19237" lon="2.79529">
        <ele>810.05</ele>
        <time>2022-07-15T05:22:36Z</time>
      </trkpt>
      <trkpt lat="44.19231" lon="2.79505">
        <ele>813.89</ele>
        <time>2022-07-15T05:22:45Z</time>
      </trkpt>
      <trkpt lat="44.19231" lon="2.79489">
        <ele>813.41</ele>
        <time>2022-07-15T05:22:53Z</time>
      </trkpt>
      <trkpt lat="44.19233" lon="2.79473">
        <ele>812.93</ele>
        <time>2022-07-15T05:23:02Z</time>
      </trkpt>
      <trkpt lat="44.19235" lon="2.79457">
        <ele>813.89</ele>
        <time>2022-07-15T05:23:10Z</time>
      </trkpt>
      <trkpt lat="44.19237" lon="2.7944">
        <ele>814.37</ele>
        <time>2022-07-15T05:23:19Z</time>
      </trkpt>
      <trkpt lat="44.19239" lon="2.79422">
        <ele>813.89</ele>
        <time>2022-07-15T05:23:27Z</time>
      </trkpt>
      <trkpt lat="44.1924" lon="2.79407">
        <ele>813.89</ele>
        <time>2022-07-15T05:23:34Z</time>
      </trkpt>
      <trkpt lat="44.1924" lon="2.79391">
        <ele>813.89</ele>
        <time>2022-07-15T05:23:41Z</time>
      </trkpt>
      <trkpt lat="44.1924" lon="2.79374">
        <ele>814.37</ele>
        <time>2022-07-15T05:23:47Z</time>
      </trkpt>
      <trkpt lat="44.1924" lon="2.79357">
        <ele>814.37</ele>
        <time>2022-07-15T05:23:54Z</time>
      </trkpt>
      <trkpt lat="44.1924" lon="2.7934">
        <ele>814.37</ele>
        <time>2022-07-15T05:24:01Z</time>
      </trkpt>
      <trkpt lat="44.1924" lon="2.79323">
        <ele>814.85</ele>
        <time>2022-07-15T05:24:08Z</time>
      </trkpt>
      <trkpt lat="44.19239" lon="2.79308">
        <ele>814.37</ele>
        <time>2022-07-15T05:24:15Z</time>
      </trkpt>
      <trkpt lat="44.19237" lon="2.79294">
        <ele>814.37</ele>
        <time>2022-07-15T05:24:22Z</time>
      </trkpt>
      <trkpt lat="44.19233" lon="2.79281">
        <ele>813.89</ele>
        <time>2022-07-15T05:24:29Z</time>
      </trkpt>
      <trkpt lat="44.19226" lon="2.79271">
        <ele>812.93</ele>
        <time>2022-07-15T05:24:39Z</time>
      </trkpt>
      <trkpt lat="44.19216" lon="2.79265">
        <ele>809.09</ele>
        <time>2022-07-15T05:24:49Z</time>
      </trkpt>
      <trkpt lat="44.19206" lon="2.79256">
        <ele>808.13</ele>
        <time>2022-07-15T05:24:59Z</time>
      </trkpt>
      <trkpt lat="44.19196" lon="2.79244">
        <ele>805.24</ele>
        <time>2022-07-15T05:25:09Z</time>
      </trkpt>
      <trkpt lat="44.19183" lon="2.79237">
        <ele>804.28</ele>
        <time>2022-07-15T05:25:17Z</time>
      </trkpt>
      <trkpt lat="44.19173" lon="2.79225">
        <ele>801.4</ele>
        <time>2022-07-15T05:25:27Z</time>
      </trkpt>
      <trkpt lat="44.19162" lon="2.79208">
        <ele>800.44</ele>
        <time>2022-07-15T05:25:36Z</time>
      </trkpt>
      <trkpt lat="44.19155" lon="2.79193">
        <ele>798.51</ele>
        <time>2022-07-15T05:25:45Z</time>
      </trkpt>
      <trkpt lat="44.19148" lon="2.7918">
        <ele>798.03</ele>
        <time>2022-07-15T05:25:52Z</time>
      </trkpt>
      <trkpt lat="44.19144" lon="2.79165">
        <ele>797.07</ele>
        <time>2022-07-15T05:26:00Z</time>
      </trkpt>
      <trkpt lat="44.19141" lon="2.79144">
        <ele>801.4</ele>
        <time>2022-07-15T05:26:10Z</time>
      </trkpt>
      <trkpt lat="44.19144" lon="2.7912">
        <ele>799.95</ele>
        <time>2022-07-15T05:26:21Z</time>
      </trkpt>
      <trkpt lat="44.19148" lon="2.79102">
        <ele>799.47</ele>
        <time>2022-07-15T05:26:32Z</time>
      </trkpt>
      <trkpt lat="44.19151" lon="2.79084">
        <ele>798.99</ele>
        <time>2022-07-15T05:26:41Z</time>
      </trkpt>
      <trkpt lat="44.19151" lon="2.79064">
        <ele>798.99</ele>
        <time>2022-07-15T05:26:49Z</time>
      </trkpt>
      <trkpt lat="44.19148" lon="2.79044">
        <ele>798.51</ele>
        <time>2022-07-15T05:26:58Z</time>
      </trkpt>
      <trkpt lat="44.19146" lon="2.79023">
        <ele>799.47</ele>
        <time>2022-07-15T05:27:07Z</time>
      </trkpt>
      <trkpt lat="44.19145" lon="2.79004">
        <ele>799.95</ele>
        <time>2022-07-15T05:27:15Z</time>
      </trkpt>
      <trkpt lat="44.19141" lon="2.78988">
        <ele>800.92</ele>
        <time>2022-07-15T05:27:22Z</time>
      </trkpt>
      <trkpt lat="44.19136" lon="2.78975">
        <ele>800.44</ele>
        <time>2022-07-15T05:27:29Z</time>
      </trkpt>
      <trkpt lat="44.19129" lon="2.78961">
        <ele>810.05</ele>
        <time>2022-07-15T05:30:13Z</time>
      </trkpt>
      <trkpt lat="44.19122" lon="2.78947">
        <ele>810.05</ele>
        <time>2022-07-15T05:33:40Z</time>
      </trkpt>
      <trkpt lat="44.19115" lon="2.78936">
        <ele>811.49</ele>
        <time>2022-07-15T05:33:54Z</time>
      </trkpt>
      <trkpt lat="44.19125" lon="2.78928">
        <ele>811.97</ele>
        <time>2022-07-15T05:34:01Z</time>
      </trkpt>
      <trkpt lat="44.19135" lon="2.78925">
        <ele>811.97</ele>
        <time>2022-07-15T05:34:05Z</time>
      </trkpt>
      <trkpt lat="44.19146" lon="2.78922">
        <ele>811.97</ele>
        <time>2022-07-15T05:34:09Z</time>
      </trkpt>
      <trkpt lat="44.19156" lon="2.78918">
        <ele>811.49</ele>
        <time>2022-07-15T05:34:12Z</time>
      </trkpt>
      <trkpt lat="44.19165" lon="2.78915">
        <ele>811.49</ele>
        <time>2022-07-15T05:34:15Z</time>
      </trkpt>
      <trkpt lat="44.19177" lon="2.78911">
        <ele>811.97</ele>
        <time>2022-07-15T05:34:19Z</time>
      </trkpt>
      <trkpt lat="44.19186" lon="2.78907">
        <ele>812.45</ele>
        <time>2022-07-15T05:34:22Z</time>
      </trkpt>
      <trkpt lat="44.19198" lon="2.78904">
        <ele>812.93</ele>
        <time>2022-07-15T05:34:26Z</time>
      </trkpt>
      <trkpt lat="44.19207" lon="2.78901">
        <ele>812.93</ele>
        <time>2022-07-15T05:34:30Z</time>
      </trkpt>
      <trkpt lat="44.19218" lon="2.78902">
        <ele>812.93</ele>
        <time>2022-07-15T05:34:38Z</time>
      </trkpt>
      <trkpt lat="44.1923" lon="2.789">
        <ele>813.41</ele>
        <time>2022-07-15T05:34:46Z</time>
      </trkpt>
      <trkpt lat="44.19238" lon="2.789">
        <ele>812.93</ele>
        <time>2022-07-15T05:34:53Z</time>
      </trkpt>
      <trkpt lat="44.19247" lon="2.78897">
        <ele>813.89</ele>
        <time>2022-07-15T05:35:00Z</time>
      </trkpt>
      <trkpt lat="44.19254" lon="2.78888">
        <ele>814.85</ele>
        <time>2022-07-15T05:35:07Z</time>
      </trkpt>
      <trkpt lat="44.19262" lon="2.78877">
        <ele>814.85</ele>
        <time>2022-07-15T05:35:14Z</time>
      </trkpt>
      <trkpt lat="44.1927" lon="2.78866">
        <ele>815.34</ele>
        <time>2022-07-15T05:35:23Z</time>
      </trkpt>
      <trkpt lat="44.19302" lon="2.7879">
        <ele>832.16</ele>
        <time>2022-07-15T05:36:36Z</time>
      </trkpt>
      <trkpt lat="44.19307" lon="2.78782">
        <ele>839.85</ele>
        <time>2022-07-15T05:37:14Z</time>
      </trkpt>
      <trkpt lat="44.19305" lon="2.78769">
        <ele>838.41</ele>
        <time>2022-07-15T05:37:23Z</time>
      </trkpt>
      <trkpt lat="44.19301" lon="2.78754">
        <ele>836.48</ele>
        <time>2022-07-15T05:37:32Z</time>
      </trkpt>
      <trkpt lat="44.19305" lon="2.78743">
        <ele>834.08</ele>
        <time>2022-07-15T05:37:40Z</time>
      </trkpt>
      <trkpt lat="44.19317" lon="2.78737">
        <ele>833.12</ele>
        <time>2022-07-15T05:37:54Z</time>
      </trkpt>
      <trkpt lat="44.19338" lon="2.7874">
        <ele>831.2</ele>
        <time>2022-07-15T05:38:11Z</time>
      </trkpt>
      <trkpt lat="44.19352" lon="2.78737">
        <ele>832.64</ele>
        <time>2022-07-15T05:38:21Z</time>
      </trkpt>
      <trkpt lat="44.1939" lon="2.78729">
        <ele>827.83</ele>
        <time>2022-07-15T05:38:50Z</time>
      </trkpt>
      <trkpt lat="44.19414" lon="2.78723">
        <ele>833.6</ele>
        <time>2022-07-15T05:39:04Z</time>
      </trkpt>
      <trkpt lat="44.1943" lon="2.78712">
        <ele>841.29</ele>
        <time>2022-07-15T05:39:13Z</time>
      </trkpt>
      <trkpt lat="44.19438" lon="2.78695">
        <ele>846.1</ele>
        <time>2022-07-15T05:39:21Z</time>
      </trkpt>
      <trkpt lat="44.19444" lon="2.78681">
        <ele>848.98</ele>
        <time>2022-07-15T05:39:29Z</time>
      </trkpt>
      <trkpt lat="44.1945" lon="2.78666">
        <ele>850.9</ele>
        <time>2022-07-15T05:39:37Z</time>
      </trkpt>
      <trkpt lat="44.19454" lon="2.78653">
        <ele>852.35</ele>
        <time>2022-07-15T05:39:44Z</time>
      </trkpt>
      <trkpt lat="44.19459" lon="2.7864">
        <ele>854.27</ele>
        <time>2022-07-15T05:39:52Z</time>
      </trkpt>
      <trkpt lat="44.19464" lon="2.78626">
        <ele>855.23</ele>
        <time>2022-07-15T05:40:00Z</time>
      </trkpt>
      <trkpt lat="44.19469" lon="2.78614">
        <ele>856.67</ele>
        <time>2022-07-15T05:40:07Z</time>
      </trkpt>
      <trkpt lat="44.19474" lon="2.78599">
        <ele>857.63</ele>
        <time>2022-07-15T05:40:15Z</time>
      </trkpt>
      <trkpt lat="44.1948" lon="2.78589">
        <ele>858.59</ele>
        <time>2022-07-15T05:40:22Z</time>
      </trkpt>
      <trkpt lat="44.19485" lon="2.78578">
        <ele>859.08</ele>
        <time>2022-07-15T05:40:29Z</time>
      </trkpt>
      <trkpt lat="44.19492" lon="2.78566">
        <ele>860.52</ele>
        <time>2022-07-15T05:40:36Z</time>
      </trkpt>
      <trkpt lat="44.19499" lon="2.78555">
        <ele>861.96</ele>
        <time>2022-07-15T05:40:43Z</time>
      </trkpt>
      <trkpt lat="44.19506" lon="2.78545">
        <ele>861.96</ele>
        <time>2022-07-15T05:40:50Z</time>
      </trkpt>
      <trkpt lat="44.19514" lon="2.78533">
        <ele>862.44</ele>
        <time>2022-07-15T05:40:58Z</time>
      </trkpt>
      <trkpt lat="44.19521" lon="2.78522">
        <ele>862.92</ele>
        <time>2022-07-15T05:41:05Z</time>
      </trkpt>
      <trkpt lat="44.19527" lon="2.7851">
        <ele>863.88</ele>
        <time>2022-07-15T05:41:12Z</time>
      </trkpt>
      <trkpt lat="44.19533" lon="2.78497">
        <ele>863.88</ele>
        <time>2022-07-15T05:41:19Z</time>
      </trkpt>
      <trkpt lat="44.19538" lon="2.78484">
        <ele>864.84</ele>
        <time>2022-07-15T05:41:26Z</time>
      </trkpt>
      <trkpt lat="44.19542" lon="2.7847">
        <ele>865.32</ele>
        <time>2022-07-15T05:41:33Z</time>
      </trkpt>
      <trkpt lat="44.19545" lon="2.78456">
        <ele>866.29</ele>
        <time>2022-07-15T05:41:40Z</time>
      </trkpt>
      <trkpt lat="44.19549" lon="2.78441">
        <ele>866.29</ele>
        <time>2022-07-15T05:41:48Z</time>
      </trkpt>
      <trkpt lat="44.19552" lon="2.78425">
        <ele>867.25</ele>
        <time>2022-07-15T05:41:56Z</time>
      </trkpt>
      <trkpt lat="44.19557" lon="2.78412">
        <ele>867.73</ele>
        <time>2022-07-15T05:42:03Z</time>
      </trkpt>
      <trkpt lat="44.19563" lon="2.78401">
        <ele>868.21</ele>
        <time>2022-07-15T05:42:10Z</time>
      </trkpt>
      <trkpt lat="44.1957" lon="2.78391">
        <ele>868.69</ele>
        <time>2022-07-15T05:42:17Z</time>
      </trkpt>
      <trkpt lat="44.19579" lon="2.78382">
        <ele>868.69</ele>
        <time>2022-07-15T05:42:25Z</time>
      </trkpt>
      <trkpt lat="44.19588" lon="2.78373">
        <ele>869.17</ele>
        <time>2022-07-15T05:42:33Z</time>
      </trkpt>
      <trkpt lat="44.19596" lon="2.78366">
        <ele>869.65</ele>
        <time>2022-07-15T05:42:40Z</time>
      </trkpt>
      <trkpt lat="44.19606" lon="2.78355">
        <ele>870.13</ele>
        <time>2022-07-15T05:42:49Z</time>
      </trkpt>
      <trkpt lat="44.19615" lon="2.78345">
        <ele>871.09</ele>
        <time>2022-07-15T05:42:56Z</time>
      </trkpt>
      <trkpt lat="44.19624" lon="2.78337">
        <ele>871.57</ele>
        <time>2022-07-15T05:43:03Z</time>
      </trkpt>
      <trkpt lat="44.19633" lon="2.78327">
        <ele>872.53</ele>
        <time>2022-07-15T05:43:10Z</time>
      </trkpt>
      <trkpt lat="44.19643" lon="2.78319">
        <ele>872.05</ele>
        <time>2022-07-15T05:43:17Z</time>
      </trkpt>
      <trkpt lat="44.19652" lon="2.78311">
        <ele>873.01</ele>
        <time>2022-07-15T05:43:24Z</time>
      </trkpt>
      <trkpt lat="44.1966" lon="2.78303">
        <ele>873.5</ele>
        <time>2022-07-15T05:43:30Z</time>
      </trkpt>
      <trkpt lat="44.19668" lon="2.78295">
        <ele>873.5</ele>
        <time>2022-07-15T05:43:36Z</time>
      </trkpt>
      <trkpt lat="44.19676" lon="2.78288">
        <ele>874.46</ele>
        <time>2022-07-15T05:43:42Z</time>
      </trkpt>
      <trkpt lat="44.19685" lon="2.7828">
        <ele>874.94</ele>
        <time>2022-07-15T05:43:49Z</time>
      </trkpt>
      <trkpt lat="44.19694" lon="2.78272">
        <ele>875.42</ele>
        <time>2022-07-15T05:43:56Z</time>
      </trkpt>
      <trkpt lat="44.19702" lon="2.78264">
        <ele>876.86</ele>
        <time>2022-07-15T05:44:03Z</time>
      </trkpt>
      <trkpt lat="44.19711" lon="2.78256">
        <ele>877.82</ele>
        <time>2022-07-15T05:44:10Z</time>
      </trkpt>
      <trkpt lat="44.19719" lon="2.78249">
        <ele>878.3</ele>
        <time>2022-07-15T05:44:17Z</time>
      </trkpt>
      <trkpt lat="44.19727" lon="2.78242">
        <ele>878.78</ele>
        <time>2022-07-15T05:44:24Z</time>
      </trkpt>
      <trkpt lat="44.19737" lon="2.78236">
        <ele>878.78</ele>
        <time>2022-07-15T05:44:32Z</time>
      </trkpt>
      <trkpt lat="44.19747" lon="2.78232">
        <ele>877.82</ele>
        <time>2022-07-15T05:44:39Z</time>
      </trkpt>
      <trkpt lat="44.19757" lon="2.78227">
        <ele>878.78</ele>
        <time>2022-07-15T05:44:46Z</time>
      </trkpt>
      <trkpt lat="44.19767" lon="2.78221">
        <ele>878.78</ele>
        <time>2022-07-15T05:44:53Z</time>
      </trkpt>
      <trkpt lat="44.19777" lon="2.78216">
        <ele>879.26</ele>
        <time>2022-07-15T05:45:00Z</time>
      </trkpt>
      <trkpt lat="44.19787" lon="2.78211">
        <ele>878.3</ele>
        <time>2022-07-15T05:45:07Z</time>
      </trkpt>
      <trkpt lat="44.19796" lon="2.78207">
        <ele>878.3</ele>
        <time>2022-07-15T05:45:13Z</time>
      </trkpt>
      <trkpt lat="44.19806" lon="2.78203">
        <ele>878.3</ele>
        <time>2022-07-15T05:45:20Z</time>
      </trkpt>
      <trkpt lat="44.19817" lon="2.78201">
        <ele>878.78</ele>
        <time>2022-07-15T05:45:27Z</time>
      </trkpt>
      <trkpt lat="44.19826" lon="2.78201">
        <ele>879.26</ele>
        <time>2022-07-15T05:45:33Z</time>
      </trkpt>
      <trkpt lat="44.19835" lon="2.782">
        <ele>879.74</ele>
        <time>2022-07-15T05:45:39Z</time>
      </trkpt>
      <trkpt lat="44.19845" lon="2.782">
        <ele>879.74</ele>
        <time>2022-07-15T05:45:45Z</time>
      </trkpt>
      <trkpt lat="44.19855" lon="2.782">
        <ele>880.22</ele>
        <time>2022-07-15T05:45:52Z</time>
      </trkpt>
      <trkpt lat="44.19865" lon="2.78201">
        <ele>879.74</ele>
        <time>2022-07-15T05:45:59Z</time>
      </trkpt>
      <trkpt lat="44.19875" lon="2.78201">
        <ele>879.74</ele>
        <time>2022-07-15T05:46:06Z</time>
      </trkpt>
      <trkpt lat="44.19885" lon="2.78202">
        <ele>879.74</ele>
        <time>2022-07-15T05:46:13Z</time>
      </trkpt>
      <trkpt lat="44.19896" lon="2.78202">
        <ele>880.22</ele>
        <time>2022-07-15T05:46:20Z</time>
      </trkpt>
      <trkpt lat="44.19907" lon="2.78204">
        <ele>880.71</ele>
        <time>2022-07-15T05:46:27Z</time>
      </trkpt>
      <trkpt lat="44.19917" lon="2.78205">
        <ele>881.67</ele>
        <time>2022-07-15T05:46:34Z</time>
      </trkpt>
      <trkpt lat="44.19927" lon="2.78206">
        <ele>882.15</ele>
        <time>2022-07-15T05:46:41Z</time>
      </trkpt>
      <trkpt lat="44.19937" lon="2.78207">
        <ele>882.15</ele>
        <time>2022-07-15T05:46:48Z</time>
      </trkpt>
      <trkpt lat="44.19948" lon="2.7821">
        <ele>883.11</ele>
        <time>2022-07-15T05:46:56Z</time>
      </trkpt>
      <trkpt lat="44.19959" lon="2.78213">
        <ele>883.59</ele>
        <time>2022-07-15T05:47:03Z</time>
      </trkpt>
      <trkpt lat="44.1997" lon="2.78216">
        <ele>883.59</ele>
        <time>2022-07-15T05:47:11Z</time>
      </trkpt>
      <trkpt lat="44.1998" lon="2.7822">
        <ele>884.07</ele>
        <time>2022-07-15T05:47:18Z</time>
      </trkpt>
      <trkpt lat="44.1999" lon="2.78222">
        <ele>884.55</ele>
        <time>2022-07-15T05:47:25Z</time>
      </trkpt>
      <trkpt lat="44.2" lon="2.78225">
        <ele>884.55</ele>
        <time>2022-07-15T05:47:32Z</time>
      </trkpt>
      <trkpt lat="44.20009" lon="2.78228">
        <ele>884.55</ele>
        <time>2022-07-15T05:47:39Z</time>
      </trkpt>
      <trkpt lat="44.20018" lon="2.78231">
        <ele>884.55</ele>
        <time>2022-07-15T05:47:46Z</time>
      </trkpt>
      <trkpt lat="44.20028" lon="2.78234">
        <ele>883.11</ele>
        <time>2022-07-15T05:47:53Z</time>
      </trkpt>
      <trkpt lat="44.20038" lon="2.78236">
        <ele>882.63</ele>
        <time>2022-07-15T05:48:00Z</time>
      </trkpt>
      <trkpt lat="44.20049" lon="2.78239">
        <ele>882.15</ele>
        <time>2022-07-15T05:48:07Z</time>
      </trkpt>
      <trkpt lat="44.20059" lon="2.78242">
        <ele>881.67</ele>
        <time>2022-07-15T05:48:14Z</time>
      </trkpt>
      <trkpt lat="44.2007" lon="2.78246">
        <ele>881.19</ele>
        <time>2022-07-15T05:48:21Z</time>
      </trkpt>
      <trkpt lat="44.20079" lon="2.7825">
        <ele>880.22</ele>
        <time>2022-07-15T05:48:28Z</time>
      </trkpt>
      <trkpt lat="44.2009" lon="2.78254">
        <ele>880.71</ele>
        <time>2022-07-15T05:48:35Z</time>
      </trkpt>
      <trkpt lat="44.201" lon="2.78258">
        <ele>880.22</ele>
        <time>2022-07-15T05:48:42Z</time>
      </trkpt>
      <trkpt lat="44.2011" lon="2.78262">
        <ele>879.74</ele>
        <time>2022-07-15T05:48:49Z</time>
      </trkpt>
      <trkpt lat="44.2012" lon="2.78268">
        <ele>879.74</ele>
        <time>2022-07-15T05:48:56Z</time>
      </trkpt>
      <trkpt lat="44.2013" lon="2.78275">
        <ele>879.74</ele>
        <time>2022-07-15T05:49:03Z</time>
      </trkpt>
      <trkpt lat="44.20139" lon="2.78283">
        <ele>879.74</ele>
        <time>2022-07-15T05:49:10Z</time>
      </trkpt>
      <trkpt lat="44.20146" lon="2.7829">
        <ele>880.71</ele>
        <time>2022-07-15T05:49:16Z</time>
      </trkpt>
      <trkpt lat="44.20155" lon="2.78296">
        <ele>880.71</ele>
        <time>2022-07-15T05:49:23Z</time>
      </trkpt>
      <trkpt lat="44.20165" lon="2.78302">
        <ele>881.67</ele>
        <time>2022-07-15T05:49:30Z</time>
      </trkpt>
      <trkpt lat="44.20174" lon="2.78308">
        <ele>881.67</ele>
        <time>2022-07-15T05:49:37Z</time>
      </trkpt>
      <trkpt lat="44.20183" lon="2.78313">
        <ele>881.67</ele>
        <time>2022-07-15T05:49:44Z</time>
      </trkpt>
      <trkpt lat="44.20193" lon="2.7832">
        <ele>882.15</ele>
        <time>2022-07-15T05:49:51Z</time>
      </trkpt>
      <trkpt lat="44.20203" lon="2.78325">
        <ele>882.63</ele>
        <time>2022-07-15T05:49:58Z</time>
      </trkpt>
      <trkpt lat="44.20213" lon="2.78331">
        <ele>883.11</ele>
        <time>2022-07-15T05:50:05Z</time>
      </trkpt>
      <trkpt lat="44.20223" lon="2.78336">
        <ele>883.59</ele>
        <time>2022-07-15T05:50:12Z</time>
      </trkpt>
      <trkpt lat="44.20233" lon="2.78342">
        <ele>884.07</ele>
        <time>2022-07-15T05:50:20Z</time>
      </trkpt>
      <trkpt lat="44.20243" lon="2.78345">
        <ele>884.55</ele>
        <time>2022-07-15T05:50:27Z</time>
      </trkpt>
      <trkpt lat="44.20253" lon="2.78349">
        <ele>884.55</ele>
        <time>2022-07-15T05:50:34Z</time>
      </trkpt>
      <trkpt lat="44.20264" lon="2.78353">
        <ele>884.55</ele>
        <time>2022-07-15T05:50:41Z</time>
      </trkpt>
      <trkpt lat="44.20273" lon="2.78356">
        <ele>884.55</ele>
        <time>2022-07-15T05:50:47Z</time>
      </trkpt>
      <trkpt lat="44.20283" lon="2.78359">
        <ele>884.07</ele>
        <time>2022-07-15T05:50:54Z</time>
      </trkpt>
      <trkpt lat="44.20293" lon="2.78361">
        <ele>883.59</ele>
        <time>2022-07-15T05:51:01Z</time>
      </trkpt>
      <trkpt lat="44.20303" lon="2.78364">
        <ele>883.11</ele>
        <time>2022-07-15T05:51:08Z</time>
      </trkpt>
      <trkpt lat="44.20312" lon="2.78367">
        <ele>882.15</ele>
        <time>2022-07-15T05:51:15Z</time>
      </trkpt>
      <trkpt lat="44.20323" lon="2.78368">
        <ele>881.67</ele>
        <time>2022-07-15T05:51:22Z</time>
      </trkpt>
      <trkpt lat="44.20334" lon="2.78369">
        <ele>881.67</ele>
        <time>2022-07-15T05:51:29Z</time>
      </trkpt>
      <trkpt lat="44.20344" lon="2.78369">
        <ele>881.19</ele>
        <time>2022-07-15T05:51:36Z</time>
      </trkpt>
      <trkpt lat="44.20354" lon="2.7837">
        <ele>881.67</ele>
        <time>2022-07-15T05:51:43Z</time>
      </trkpt>
      <trkpt lat="44.20365" lon="2.7837">
        <ele>880.71</ele>
        <time>2022-07-15T05:51:50Z</time>
      </trkpt>
      <trkpt lat="44.20374" lon="2.78371">
        <ele>880.22</ele>
        <time>2022-07-15T05:51:57Z</time>
      </trkpt>
      <trkpt lat="44.20384" lon="2.78368">
        <ele>879.26</ele>
        <time>2022-07-15T05:52:04Z</time>
      </trkpt>
      <trkpt lat="44.20394" lon="2.78365">
        <ele>878.78</ele>
        <time>2022-07-15T05:52:11Z</time>
      </trkpt>
      <trkpt lat="44.20403" lon="2.78358">
        <ele>877.82</ele>
        <time>2022-07-15T05:52:18Z</time>
      </trkpt>
      <trkpt lat="44.2041" lon="2.78348">
        <ele>876.86</ele>
        <time>2022-07-15T05:52:25Z</time>
      </trkpt>
      <trkpt lat="44.20416" lon="2.78335">
        <ele>875.9</ele>
        <time>2022-07-15T05:52:33Z</time>
      </trkpt>
      <trkpt lat="44.20422" lon="2.78323">
        <ele>873.5</ele>
        <time>2022-07-15T05:52:41Z</time>
      </trkpt>
      <trkpt lat="44.20428" lon="2.78309">
        <ele>871.09</ele>
        <time>2022-07-15T05:52:50Z</time>
      </trkpt>
      <trkpt lat="44.20436" lon="2.78297">
        <ele>870.61</ele>
        <time>2022-07-15T05:52:58Z</time>
      </trkpt>
      <trkpt lat="44.20444" lon="2.78283">
        <ele>868.69</ele>
        <time>2022-07-15T05:53:08Z</time>
      </trkpt>
      <trkpt lat="44.20452" lon="2.78271">
        <ele>866.77</ele>
        <time>2022-07-15T05:53:18Z</time>
      </trkpt>
      <trkpt lat="44.20461" lon="2.78256">
        <ele>863.4</ele>
        <time>2022-07-15T05:53:28Z</time>
      </trkpt>
      <trkpt lat="44.20471" lon="2.7824">
        <ele>860.04</ele>
        <time>2022-07-15T05:53:39Z</time>
      </trkpt>
      <trkpt lat="44.20482" lon="2.78216">
        <ele>862.44</ele>
        <time>2022-07-15T05:53:49Z</time>
      </trkpt>
      <trkpt lat="44.20492" lon="2.782">
        <ele>863.88</ele>
        <time>2022-07-15T05:53:59Z</time>
      </trkpt>
      <trkpt lat="44.20503" lon="2.78188">
        <ele>862.44</ele>
        <time>2022-07-15T05:54:09Z</time>
      </trkpt>
      <trkpt lat="44.20518" lon="2.78168">
        <ele>859.08</ele>
        <time>2022-07-15T05:54:25Z</time>
      </trkpt>
      <trkpt lat="44.20528" lon="2.78157">
        <ele>858.59</ele>
        <time>2022-07-15T05:54:33Z</time>
      </trkpt>
      <trkpt lat="44.20542" lon="2.78147">
        <ele>859.08</ele>
        <time>2022-07-15T05:54:42Z</time>
      </trkpt>
      <trkpt lat="44.20552" lon="2.78128">
        <ele>858.11</ele>
        <time>2022-07-15T05:54:54Z</time>
      </trkpt>
      <trkpt lat="44.20559" lon="2.78115">
        <ele>856.67</ele>
        <time>2022-07-15T05:55:04Z</time>
      </trkpt>
      <trkpt lat="44.20568" lon="2.781">
        <ele>854.27</ele>
        <time>2022-07-15T05:55:15Z</time>
      </trkpt>
      <trkpt lat="44.20577" lon="2.78092">
        <ele>853.31</ele>
        <time>2022-07-15T05:55:22Z</time>
      </trkpt>
      <trkpt lat="44.20586" lon="2.78084">
        <ele>852.35</ele>
        <time>2022-07-15T05:55:29Z</time>
      </trkpt>
      <trkpt lat="44.20596" lon="2.78078">
        <ele>851.38</ele>
        <time>2022-07-15T05:55:36Z</time>
      </trkpt>
      <trkpt lat="44.20604" lon="2.78072">
        <ele>849.46</ele>
        <time>2022-07-15T05:55:44Z</time>
      </trkpt>
      <trkpt lat="44.20614" lon="2.78063">
        <ele>847.06</ele>
        <time>2022-07-15T05:55:54Z</time>
      </trkpt>
      <trkpt lat="44.20642" lon="2.78029">
        <ele>843.21</ele>
        <time>2022-07-15T05:57:18Z</time>
      </trkpt>
      <trkpt lat="44.2065" lon="2.78003">
        <ele>843.69</ele>
        <time>2022-07-15T05:57:34Z</time>
      </trkpt>
      <trkpt lat="44.20656" lon="2.7799">
        <ele>841.77</ele>
        <time>2022-07-15T05:57:44Z</time>
      </trkpt>
      <trkpt lat="44.20662" lon="2.77977">
        <ele>842.25</ele>
        <time>2022-07-15T05:57:54Z</time>
      </trkpt>
      <trkpt lat="44.20672" lon="2.77966">
        <ele>840.81</ele>
        <time>2022-07-15T05:58:12Z</time>
      </trkpt>
      <trkpt lat="44.20669" lon="2.77955">
        <ele>838.89</ele>
        <time>2022-07-15T05:58:25Z</time>
      </trkpt>
      <trkpt lat="44.20679" lon="2.77954">
        <ele>839.85</ele>
        <time>2022-07-15T05:58:44Z</time>
      </trkpt>
      <trkpt lat="44.20689" lon="2.77951">
        <ele>840.33</ele>
        <time>2022-07-15T05:58:54Z</time>
      </trkpt>
      <trkpt lat="44.20714" lon="2.77955">
        <ele>838.89</ele>
        <time>2022-07-15T05:59:14Z</time>
      </trkpt>
      <trkpt lat="44.20729" lon="2.77957">
        <ele>837.93</ele>
        <time>2022-07-15T05:59:26Z</time>
      </trkpt>
      <trkpt lat="44.20746" lon="2.77958">
        <ele>836.48</ele>
        <time>2022-07-15T05:59:40Z</time>
      </trkpt>
      <trkpt lat="44.20762" lon="2.77959">
        <ele>835.04</ele>
        <time>2022-07-15T05:59:54Z</time>
      </trkpt>
      <trkpt lat="44.20788" lon="2.77956">
        <ele>833.12</ele>
        <time>2022-07-15T06:00:21Z</time>
      </trkpt>
      <trkpt lat="44.20828" lon="2.78005">
        <ele>831.2</ele>
        <time>2022-07-15T06:01:06Z</time>
      </trkpt>
      <trkpt lat="44.20843" lon="2.78037">
        <ele>828.79</ele>
        <time>2022-07-15T06:01:28Z</time>
      </trkpt>
      <trkpt lat="44.20852" lon="2.78047">
        <ele>828.79</ele>
        <time>2022-07-15T06:01:39Z</time>
      </trkpt>
      <trkpt lat="44.20863" lon="2.78056">
        <ele>829.76</ele>
        <time>2022-07-15T06:01:49Z</time>
      </trkpt>
      <trkpt lat="44.20873" lon="2.78064">
        <ele>831.2</ele>
        <time>2022-07-15T06:01:59Z</time>
      </trkpt>
      <trkpt lat="44.20883" lon="2.78075">
        <ele>833.6</ele>
        <time>2022-07-15T06:02:08Z</time>
      </trkpt>
      <trkpt lat="44.20893" lon="2.78084">
        <ele>835.04</ele>
        <time>2022-07-15T06:02:17Z</time>
      </trkpt>
      <trkpt lat="44.20926" lon="2.78088">
        <ele>836</ele>
        <time>2022-07-15T06:02:45Z</time>
      </trkpt>
      <trkpt lat="44.20947" lon="2.78095">
        <ele>836.96</ele>
        <time>2022-07-15T06:03:05Z</time>
      </trkpt>
      <trkpt lat="44.20957" lon="2.78103">
        <ele>837.45</ele>
        <time>2022-07-15T06:03:14Z</time>
      </trkpt>
      <trkpt lat="44.20968" lon="2.78109">
        <ele>835.04</ele>
        <time>2022-07-15T06:03:25Z</time>
      </trkpt>
      <trkpt lat="44.20995" lon="2.78136">
        <ele>830.72</ele>
        <time>2022-07-15T06:03:56Z</time>
      </trkpt>
      <trkpt lat="44.21021" lon="2.78172">
        <ele>833.12</ele>
        <time>2022-07-15T06:04:25Z</time>
      </trkpt>
      <trkpt lat="44.2103" lon="2.78183">
        <ele>832.16</ele>
        <time>2022-07-15T06:04:34Z</time>
      </trkpt>
      <trkpt lat="44.21039" lon="2.78193">
        <ele>832.16</ele>
        <time>2022-07-15T06:04:42Z</time>
      </trkpt>
      <trkpt lat="44.2105" lon="2.78203">
        <ele>832.16</ele>
        <time>2022-07-15T06:04:51Z</time>
      </trkpt>
      <trkpt lat="44.21062" lon="2.78211">
        <ele>832.64</ele>
        <time>2022-07-15T06:05:03Z</time>
      </trkpt>
      <trkpt lat="44.21075" lon="2.78218">
        <ele>831.68</ele>
        <time>2022-07-15T06:05:14Z</time>
      </trkpt>
      <trkpt lat="44.21088" lon="2.78224">
        <ele>830.72</ele>
        <time>2022-07-15T06:05:24Z</time>
      </trkpt>
      <trkpt lat="44.21098" lon="2.7823">
        <ele>829.76</ele>
        <time>2022-07-15T06:05:36Z</time>
      </trkpt>
      <trkpt lat="44.2111" lon="2.78236">
        <ele>829.27</ele>
        <time>2022-07-15T06:05:46Z</time>
      </trkpt>
      <trkpt lat="44.21121" lon="2.78242">
        <ele>826.87</ele>
        <time>2022-07-15T06:05:58Z</time>
      </trkpt>
      <trkpt lat="44.21131" lon="2.78246">
        <ele>824.47</ele>
        <time>2022-07-15T06:06:07Z</time>
      </trkpt>
      <trkpt lat="44.21144" lon="2.78256">
        <ele>822.55</ele>
        <time>2022-07-15T06:06:21Z</time>
      </trkpt>
      <trkpt lat="44.21169" lon="2.78267">
        <ele>819.18</ele>
        <time>2022-07-15T06:06:41Z</time>
      </trkpt>
      <trkpt lat="44.21183" lon="2.78256">
        <ele>816.78</ele>
        <time>2022-07-15T06:06:54Z</time>
      </trkpt>
      <trkpt lat="44.2121" lon="2.78194">
        <ele>810.05</ele>
        <time>2022-07-15T06:07:40Z</time>
      </trkpt>
      <trkpt lat="44.21227" lon="2.78174">
        <ele>809.09</ele>
        <time>2022-07-15T06:07:59Z</time>
      </trkpt>
      <trkpt lat="44.21256" lon="2.78095">
        <ele>803.32</ele>
        <time>2022-07-15T06:09:01Z</time>
      </trkpt>
      <trkpt lat="44.21271" lon="2.78084">
        <ele>807.64</ele>
        <time>2022-07-15T06:10:46Z</time>
      </trkpt>
      <trkpt lat="44.2128" lon="2.78067">
        <ele>807.64</ele>
        <time>2022-07-15T06:11:01Z</time>
      </trkpt>
      <trkpt lat="44.21292" lon="2.78059">
        <ele>808.13</ele>
        <time>2022-07-15T06:11:10Z</time>
      </trkpt>
      <trkpt lat="44.21298" lon="2.78046">
        <ele>807.64</ele>
        <time>2022-07-15T06:11:18Z</time>
      </trkpt>
      <trkpt lat="44.21304" lon="2.78035">
        <ele>807.64</ele>
        <time>2022-07-15T06:11:25Z</time>
      </trkpt>
      <trkpt lat="44.21311" lon="2.78024">
        <ele>807.16</ele>
        <time>2022-07-15T06:11:32Z</time>
      </trkpt>
      <trkpt lat="44.21319" lon="2.78015">
        <ele>807.64</ele>
        <time>2022-07-15T06:11:39Z</time>
      </trkpt>
      <trkpt lat="44.21326" lon="2.78006">
        <ele>807.64</ele>
        <time>2022-07-15T06:11:46Z</time>
      </trkpt>
      <trkpt lat="44.21334" lon="2.77996">
        <ele>808.13</ele>
        <time>2022-07-15T06:11:51Z</time>
      </trkpt>
      <trkpt lat="44.21342" lon="2.77984">
        <ele>808.61</ele>
        <time>2022-07-15T06:11:55Z</time>
      </trkpt>
      <trkpt lat="44.21351" lon="2.77973">
        <ele>809.09</ele>
        <time>2022-07-15T06:11:59Z</time>
      </trkpt>
      <trkpt lat="44.21358" lon="2.77963">
        <ele>809.57</ele>
        <time>2022-07-15T06:12:04Z</time>
      </trkpt>
      <trkpt lat="44.21367" lon="2.77953">
        <ele>809.57</ele>
        <time>2022-07-15T06:12:11Z</time>
      </trkpt>
      <trkpt lat="44.21375" lon="2.77944">
        <ele>810.53</ele>
        <time>2022-07-15T06:12:17Z</time>
      </trkpt>
      <trkpt lat="44.21383" lon="2.77932">
        <ele>810.05</ele>
        <time>2022-07-15T06:12:22Z</time>
      </trkpt>
      <trkpt lat="44.2139" lon="2.77921">
        <ele>809.57</ele>
        <time>2022-07-15T06:12:25Z</time>
      </trkpt>
      <trkpt lat="44.21397" lon="2.77912">
        <ele>808.61</ele>
        <time>2022-07-15T06:12:28Z</time>
      </trkpt>
      <trkpt lat="44.21404" lon="2.77902">
        <ele>808.61</ele>
        <time>2022-07-15T06:12:31Z</time>
      </trkpt>
      <trkpt lat="44.21412" lon="2.77891">
        <ele>808.61</ele>
        <time>2022-07-15T06:12:34Z</time>
      </trkpt>
      <trkpt lat="44.2142" lon="2.7788">
        <ele>808.61</ele>
        <time>2022-07-15T06:12:37Z</time>
      </trkpt>
      <trkpt lat="44.21428" lon="2.77869">
        <ele>808.61</ele>
        <time>2022-07-15T06:12:40Z</time>
      </trkpt>
      <trkpt lat="44.21436" lon="2.77859">
        <ele>808.61</ele>
        <time>2022-07-15T06:12:43Z</time>
      </trkpt>
      <trkpt lat="44.21443" lon="2.77849">
        <ele>808.61</ele>
        <time>2022-07-15T06:12:46Z</time>
      </trkpt>
      <trkpt lat="44.2145" lon="2.7784">
        <ele>808.13</ele>
        <time>2022-07-15T06:12:49Z</time>
      </trkpt>
      <trkpt lat="44.21458" lon="2.77829">
        <ele>808.13</ele>
        <time>2022-07-15T06:12:52Z</time>
      </trkpt>
      <trkpt lat="44.21465" lon="2.7782">
        <ele>808.13</ele>
        <time>2022-07-15T06:12:55Z</time>
      </trkpt>
      <trkpt lat="44.21474" lon="2.77808">
        <ele>807.64</ele>
        <time>2022-07-15T06:12:59Z</time>
      </trkpt>
      <trkpt lat="44.21481" lon="2.77799">
        <ele>807.64</ele>
        <time>2022-07-15T06:13:02Z</time>
      </trkpt>
      <trkpt lat="44.21489" lon="2.77789">
        <ele>807.16</ele>
        <time>2022-07-15T06:13:06Z</time>
      </trkpt>
      <trkpt lat="44.21497" lon="2.77779">
        <ele>807.16</ele>
        <time>2022-07-15T06:13:11Z</time>
      </trkpt>
      <trkpt lat="44.21503" lon="2.77767">
        <ele>805.72</ele>
        <time>2022-07-15T06:13:18Z</time>
      </trkpt>
      <trkpt lat="44.21512" lon="2.77756">
        <ele>803.32</ele>
        <time>2022-07-15T06:13:27Z</time>
      </trkpt>
      <trkpt lat="44.2152" lon="2.77743">
        <ele>799.95</ele>
        <time>2022-07-15T06:13:36Z</time>
      </trkpt>
      <trkpt lat="44.21528" lon="2.7773">
        <ele>798.03</ele>
        <time>2022-07-15T06:13:45Z</time>
      </trkpt>
      <trkpt lat="44.21535" lon="2.77713">
        <ele>794.67</ele>
        <time>2022-07-15T06:13:55Z</time>
      </trkpt>
      <trkpt lat="44.21539" lon="2.77694">
        <ele>793.71</ele>
        <time>2022-07-15T06:14:05Z</time>
      </trkpt>
      <trkpt lat="44.21547" lon="2.77674">
        <ele>794.19</ele>
        <time>2022-07-15T06:14:15Z</time>
      </trkpt>
      <trkpt lat="44.21558" lon="2.77653">
        <ele>792.74</ele>
        <time>2022-07-15T06:14:29Z</time>
      </trkpt>
      <trkpt lat="44.21568" lon="2.7764">
        <ele>794.67</ele>
        <time>2022-07-15T06:14:37Z</time>
      </trkpt>
      <trkpt lat="44.21577" lon="2.77627">
        <ele>798.51</ele>
        <time>2022-07-15T06:14:45Z</time>
      </trkpt>
      <trkpt lat="44.21587" lon="2.77615">
        <ele>800.44</ele>
        <time>2022-07-15T06:14:54Z</time>
      </trkpt>
      <trkpt lat="44.21598" lon="2.77608">
        <ele>802.84</ele>
        <time>2022-07-15T06:15:01Z</time>
      </trkpt>
      <trkpt lat="44.21609" lon="2.77603">
        <ele>803.32</ele>
        <time>2022-07-15T06:15:05Z</time>
      </trkpt>
      <trkpt lat="44.2162" lon="2.77599">
        <ele>803.32</ele>
        <time>2022-07-15T06:15:08Z</time>
      </trkpt>
      <trkpt lat="44.21631" lon="2.77595">
        <ele>803.8</ele>
        <time>2022-07-15T06:15:11Z</time>
      </trkpt>
      <trkpt lat="44.21642" lon="2.77592">
        <ele>804.28</ele>
        <time>2022-07-15T06:15:14Z</time>
      </trkpt>
      <trkpt lat="44.21654" lon="2.77588">
        <ele>804.28</ele>
        <time>2022-07-15T06:15:18Z</time>
      </trkpt>
      <trkpt lat="44.21666" lon="2.77583">
        <ele>804.76</ele>
        <time>2022-07-15T06:15:22Z</time>
      </trkpt>
      <trkpt lat="44.21678" lon="2.77578">
        <ele>805.72</ele>
        <time>2022-07-15T06:15:26Z</time>
      </trkpt>
      <trkpt lat="44.21687" lon="2.77572">
        <ele>806.2</ele>
        <time>2022-07-15T06:15:29Z</time>
      </trkpt>
      <trkpt lat="44.21696" lon="2.77566">
        <ele>806.68</ele>
        <time>2022-07-15T06:15:32Z</time>
      </trkpt>
      <trkpt lat="44.21707" lon="2.77557">
        <ele>806.68</ele>
        <time>2022-07-15T06:15:36Z</time>
      </trkpt>
      <trkpt lat="44.21717" lon="2.77547">
        <ele>806.2</ele>
        <time>2022-07-15T06:15:40Z</time>
      </trkpt>
      <trkpt lat="44.21729" lon="2.7754">
        <ele>805.24</ele>
        <time>2022-07-15T06:15:44Z</time>
      </trkpt>
      <trkpt lat="44.2174" lon="2.77531">
        <ele>805.24</ele>
        <time>2022-07-15T06:15:48Z</time>
      </trkpt>
      <trkpt lat="44.2175" lon="2.77524">
        <ele>805.24</ele>
        <time>2022-07-15T06:15:52Z</time>
      </trkpt>
      <trkpt lat="44.2176" lon="2.77517">
        <ele>805.72</ele>
        <time>2022-07-15T06:15:56Z</time>
      </trkpt>
      <trkpt lat="44.2177" lon="2.77505">
        <ele>805.72</ele>
        <time>2022-07-15T06:16:01Z</time>
      </trkpt>
      <trkpt lat="44.21782" lon="2.77497">
        <ele>804.76</ele>
        <time>2022-07-15T06:16:05Z</time>
      </trkpt>
      <trkpt lat="44.21792" lon="2.77488">
        <ele>804.76</ele>
        <time>2022-07-15T06:16:09Z</time>
      </trkpt>
      <trkpt lat="44.21801" lon="2.7748">
        <ele>804.76</ele>
        <time>2022-07-15T06:16:12Z</time>
      </trkpt>
      <trkpt lat="44.21812" lon="2.77471">
        <ele>803.8</ele>
        <time>2022-07-15T06:16:16Z</time>
      </trkpt>
      <trkpt lat="44.21823" lon="2.77462">
        <ele>803.8</ele>
        <time>2022-07-15T06:16:20Z</time>
      </trkpt>
      <trkpt lat="44.21832" lon="2.77453">
        <ele>803.8</ele>
        <time>2022-07-15T06:16:23Z</time>
      </trkpt>
      <trkpt lat="44.21843" lon="2.77445">
        <ele>804.28</ele>
        <time>2022-07-15T06:16:27Z</time>
      </trkpt>
      <trkpt lat="44.21853" lon="2.77438">
        <ele>804.76</ele>
        <time>2022-07-15T06:16:31Z</time>
      </trkpt>
      <trkpt lat="44.21865" lon="2.77432">
        <ele>805.24</ele>
        <time>2022-07-15T06:16:35Z</time>
      </trkpt>
      <trkpt lat="44.21879" lon="2.77431">
        <ele>805.72</ele>
        <time>2022-07-15T06:16:39Z</time>
      </trkpt>
      <trkpt lat="44.21892" lon="2.77431">
        <ele>806.2</ele>
        <time>2022-07-15T06:16:43Z</time>
      </trkpt>
      <trkpt lat="44.21902" lon="2.77432">
        <ele>806.68</ele>
        <time>2022-07-15T06:16:46Z</time>
      </trkpt>
      <trkpt lat="44.21911" lon="2.77434">
        <ele>806.68</ele>
        <time>2022-07-15T06:16:49Z</time>
      </trkpt>
      <trkpt lat="44.21922" lon="2.77436">
        <ele>806.68</ele>
        <time>2022-07-15T06:16:53Z</time>
      </trkpt>
      <trkpt lat="44.21932" lon="2.77437">
        <ele>807.16</ele>
        <time>2022-07-15T06:16:56Z</time>
      </trkpt>
      <trkpt lat="44.21942" lon="2.77437">
        <ele>807.16</ele>
        <time>2022-07-15T06:17:00Z</time>
      </trkpt>
      <trkpt lat="44.21956" lon="2.77435">
        <ele>809.09</ele>
        <time>2022-07-15T06:17:04Z</time>
      </trkpt>
      <trkpt lat="44.21967" lon="2.77436">
        <ele>809.57</ele>
        <time>2022-07-15T06:17:07Z</time>
      </trkpt>
      <trkpt lat="44.21981" lon="2.77435">
        <ele>811.01</ele>
        <time>2022-07-15T06:17:11Z</time>
      </trkpt>
      <trkpt lat="44.21993" lon="2.77435">
        <ele>811.49</ele>
        <time>2022-07-15T06:17:15Z</time>
      </trkpt>
      <trkpt lat="44.22007" lon="2.77433">
        <ele>811.97</ele>
        <time>2022-07-15T06:17:20Z</time>
      </trkpt>
      <trkpt lat="44.22021" lon="2.77432">
        <ele>811.97</ele>
        <time>2022-07-15T06:17:24Z</time>
      </trkpt>
      <trkpt lat="44.22034" lon="2.7743">
        <ele>812.45</ele>
        <time>2022-07-15T06:17:29Z</time>
      </trkpt>
      <trkpt lat="44.22046" lon="2.77428">
        <ele>812.93</ele>
        <time>2022-07-15T06:17:34Z</time>
      </trkpt>
      <trkpt lat="44.22058" lon="2.77428">
        <ele>812.45</ele>
        <time>2022-07-15T06:17:38Z</time>
      </trkpt>
      <trkpt lat="44.22069" lon="2.77428">
        <ele>811.49</ele>
        <time>2022-07-15T06:17:42Z</time>
      </trkpt>
      <trkpt lat="44.22084" lon="2.77427">
        <ele>810.05</ele>
        <time>2022-07-15T06:17:47Z</time>
      </trkpt>
      <trkpt lat="44.22098" lon="2.77425">
        <ele>809.57</ele>
        <time>2022-07-15T06:17:51Z</time>
      </trkpt>
      <trkpt lat="44.2211" lon="2.77424">
        <ele>808.13</ele>
        <time>2022-07-15T06:17:55Z</time>
      </trkpt>
      <trkpt lat="44.22121" lon="2.77424">
        <ele>806.2</ele>
        <time>2022-07-15T06:18:00Z</time>
      </trkpt>
      <trkpt lat="44.22132" lon="2.77422">
        <ele>805.24</ele>
        <time>2022-07-15T06:18:04Z</time>
      </trkpt>
      <trkpt lat="44.22144" lon="2.77419">
        <ele>803.8</ele>
        <time>2022-07-15T06:18:09Z</time>
      </trkpt>
      <trkpt lat="44.22162" lon="2.77413">
        <ele>804.28</ele>
        <time>2022-07-15T06:18:15Z</time>
      </trkpt>
      <trkpt lat="44.22176" lon="2.77404">
        <ele>803.8</ele>
        <time>2022-07-15T06:18:19Z</time>
      </trkpt>
      <trkpt lat="44.22188" lon="2.77393">
        <ele>802.36</ele>
        <time>2022-07-15T06:18:23Z</time>
      </trkpt>
      <trkpt lat="44.222" lon="2.7738">
        <ele>801.88</ele>
        <time>2022-07-15T06:18:27Z</time>
      </trkpt>
      <trkpt lat="44.2221" lon="2.77367">
        <ele>800.44</ele>
        <time>2022-07-15T06:18:31Z</time>
      </trkpt>
      <trkpt lat="44.22219" lon="2.77355">
        <ele>799.47</ele>
        <time>2022-07-15T06:18:35Z</time>
      </trkpt>
      <trkpt lat="44.2223" lon="2.77344">
        <ele>798.51</ele>
        <time>2022-07-15T06:18:39Z</time>
      </trkpt>
      <trkpt lat="44.22238" lon="2.77338">
        <ele>798.99</ele>
        <time>2022-07-15T06:18:42Z</time>
      </trkpt>
      <trkpt lat="44.22248" lon="2.77329">
        <ele>799.47</ele>
        <time>2022-07-15T06:18:46Z</time>
      </trkpt>
      <trkpt lat="44.2226" lon="2.7732">
        <ele>799.95</ele>
        <time>2022-07-15T06:18:50Z</time>
      </trkpt>
      <trkpt lat="44.22269" lon="2.77311">
        <ele>800.92</ele>
        <time>2022-07-15T06:18:53Z</time>
      </trkpt>
      <trkpt lat="44.22281" lon="2.77301">
        <ele>802.36</ele>
        <time>2022-07-15T06:18:57Z</time>
      </trkpt>
      <trkpt lat="44.2229" lon="2.77294">
        <ele>802.84</ele>
        <time>2022-07-15T06:19:00Z</time>
      </trkpt>
      <trkpt lat="44.22299" lon="2.77289">
        <ele>803.8</ele>
        <time>2022-07-15T06:19:03Z</time>
      </trkpt>
      <trkpt lat="44.22308" lon="2.77282">
        <ele>804.28</ele>
        <time>2022-07-15T06:19:06Z</time>
      </trkpt>
      <trkpt lat="44.2232" lon="2.77273">
        <ele>805.24</ele>
        <time>2022-07-15T06:19:10Z</time>
      </trkpt>
      <trkpt lat="44.22331" lon="2.77265">
        <ele>806.2</ele>
        <time>2022-07-15T06:19:14Z</time>
      </trkpt>
      <trkpt lat="44.22343" lon="2.77262">
        <ele>806.68</ele>
        <time>2022-07-15T06:19:18Z</time>
      </trkpt>
      <trkpt lat="44.22355" lon="2.77262">
        <ele>806.2</ele>
        <time>2022-07-15T06:19:22Z</time>
      </trkpt>
      <trkpt lat="44.22366" lon="2.77264">
        <ele>805.72</ele>
        <time>2022-07-15T06:19:26Z</time>
      </trkpt>
      <trkpt lat="44.22377" lon="2.77267">
        <ele>804.76</ele>
        <time>2022-07-15T06:19:30Z</time>
      </trkpt>
      <trkpt lat="44.2239" lon="2.77271">
        <ele>803.8</ele>
        <time>2022-07-15T06:19:34Z</time>
      </trkpt>
      <trkpt lat="44.22403" lon="2.77275">
        <ele>803.8</ele>
        <time>2022-07-15T06:19:38Z</time>
      </trkpt>
      <trkpt lat="44.22414" lon="2.77279">
        <ele>803.32</ele>
        <time>2022-07-15T06:19:42Z</time>
      </trkpt>
      <trkpt lat="44.22425" lon="2.77281">
        <ele>803.32</ele>
        <time>2022-07-15T06:19:46Z</time>
      </trkpt>
      <trkpt lat="44.22438" lon="2.77282">
        <ele>803.32</ele>
        <time>2022-07-15T06:19:50Z</time>
      </trkpt>
      <trkpt lat="44.22453" lon="2.77281">
        <ele>803.8</ele>
        <time>2022-07-15T06:19:54Z</time>
      </trkpt>
      <trkpt lat="44.22465" lon="2.77276">
        <ele>806.2</ele>
        <time>2022-07-15T06:19:58Z</time>
      </trkpt>
      <trkpt lat="44.22478" lon="2.77268">
        <ele>808.61</ele>
        <time>2022-07-15T06:20:02Z</time>
      </trkpt>
      <trkpt lat="44.2249" lon="2.77262">
        <ele>811.01</ele>
        <time>2022-07-15T06:20:06Z</time>
      </trkpt>
      <trkpt lat="44.22502" lon="2.77256">
        <ele>812.45</ele>
        <time>2022-07-15T06:20:10Z</time>
      </trkpt>
      <trkpt lat="44.22513" lon="2.77251">
        <ele>813.41</ele>
        <time>2022-07-15T06:20:14Z</time>
      </trkpt>
      <trkpt lat="44.22525" lon="2.77246">
        <ele>814.37</ele>
        <time>2022-07-15T06:20:18Z</time>
      </trkpt>
      <trkpt lat="44.22536" lon="2.7724">
        <ele>814.37</ele>
        <time>2022-07-15T06:20:22Z</time>
      </trkpt>
      <trkpt lat="44.22547" lon="2.77236">
        <ele>814.37</ele>
        <time>2022-07-15T06:20:26Z</time>
      </trkpt>
      <trkpt lat="44.22558" lon="2.7723">
        <ele>814.37</ele>
        <time>2022-07-15T06:20:30Z</time>
      </trkpt>
      <trkpt lat="44.22571" lon="2.77225">
        <ele>814.37</ele>
        <time>2022-07-15T06:20:35Z</time>
      </trkpt>
      <trkpt lat="44.22583" lon="2.77218">
        <ele>814.37</ele>
        <time>2022-07-15T06:20:40Z</time>
      </trkpt>
      <trkpt lat="44.22595" lon="2.77214">
        <ele>813.89</ele>
        <time>2022-07-15T06:20:44Z</time>
      </trkpt>
      <trkpt lat="44.22607" lon="2.77208">
        <ele>812.93</ele>
        <time>2022-07-15T06:20:48Z</time>
      </trkpt>
      <trkpt lat="44.22619" lon="2.77202">
        <ele>811.01</ele>
        <time>2022-07-15T06:20:53Z</time>
      </trkpt>
      <trkpt lat="44.22633" lon="2.77197">
        <ele>810.05</ele>
        <time>2022-07-15T06:20:58Z</time>
      </trkpt>
      <trkpt lat="44.22648" lon="2.77193">
        <ele>810.53</ele>
        <time>2022-07-15T06:21:03Z</time>
      </trkpt>
      <trkpt lat="44.22662" lon="2.77188">
        <ele>810.53</ele>
        <time>2022-07-15T06:21:08Z</time>
      </trkpt>
      <trkpt lat="44.22675" lon="2.77184">
        <ele>810.53</ele>
        <time>2022-07-15T06:21:12Z</time>
      </trkpt>
      <trkpt lat="44.22688" lon="2.77183">
        <ele>810.05</ele>
        <time>2022-07-15T06:21:16Z</time>
      </trkpt>
      <trkpt lat="44.22703" lon="2.77183">
        <ele>810.05</ele>
        <time>2022-07-15T06:21:20Z</time>
      </trkpt>
      <trkpt lat="44.22715" lon="2.77182">
        <ele>810.05</ele>
        <time>2022-07-15T06:21:24Z</time>
      </trkpt>
      <trkpt lat="44.22726" lon="2.77182">
        <ele>810.05</ele>
        <time>2022-07-15T06:21:28Z</time>
      </trkpt>
      <trkpt lat="44.22737" lon="2.77182">
        <ele>810.05</ele>
        <time>2022-07-15T06:21:32Z</time>
      </trkpt>
      <trkpt lat="44.22748" lon="2.77181">
        <ele>809.57</ele>
        <time>2022-07-15T06:21:36Z</time>
      </trkpt>
      <trkpt lat="44.22761" lon="2.77178">
        <ele>809.57</ele>
        <time>2022-07-15T06:21:40Z</time>
      </trkpt>
      <trkpt lat="44.22774" lon="2.77173">
        <ele>808.61</ele>
        <time>2022-07-15T06:21:44Z</time>
      </trkpt>
      <trkpt lat="44.22788" lon="2.77166">
        <ele>808.13</ele>
        <time>2022-07-15T06:21:48Z</time>
      </trkpt>
      <trkpt lat="44.228" lon="2.7716">
        <ele>808.13</ele>
        <time>2022-07-15T06:21:52Z</time>
      </trkpt>
      <trkpt lat="44.2281" lon="2.77151">
        <ele>807.64</ele>
        <time>2022-07-15T06:21:56Z</time>
      </trkpt>
      <trkpt lat="44.22819" lon="2.77141">
        <ele>807.64</ele>
        <time>2022-07-15T06:22:00Z</time>
      </trkpt>
      <trkpt lat="44.22827" lon="2.77129">
        <ele>807.64</ele>
        <time>2022-07-15T06:22:04Z</time>
      </trkpt>
      <trkpt lat="44.22835" lon="2.77117">
        <ele>807.16</ele>
        <time>2022-07-15T06:22:08Z</time>
      </trkpt>
      <trkpt lat="44.22843" lon="2.77103">
        <ele>806.68</ele>
        <time>2022-07-15T06:22:12Z</time>
      </trkpt>
      <trkpt lat="44.22848" lon="2.77091">
        <ele>805.72</ele>
        <time>2022-07-15T06:22:16Z</time>
      </trkpt>
      <trkpt lat="44.22853" lon="2.77075">
        <ele>806.2</ele>
        <time>2022-07-15T06:22:23Z</time>
      </trkpt>
      <trkpt lat="44.22858" lon="2.77062">
        <ele>805.72</ele>
        <time>2022-07-15T06:22:27Z</time>
      </trkpt>
      <trkpt lat="44.22863" lon="2.7705">
        <ele>806.2</ele>
        <time>2022-07-15T06:22:31Z</time>
      </trkpt>
      <trkpt lat="44.22867" lon="2.77032">
        <ele>806.2</ele>
        <time>2022-07-15T06:22:35Z</time>
      </trkpt>
      <trkpt lat="44.2287" lon="2.77013">
        <ele>806.68</ele>
        <time>2022-07-15T06:22:39Z</time>
      </trkpt>
      <trkpt lat="44.22875" lon="2.7699">
        <ele>808.13</ele>
        <time>2022-07-15T06:22:43Z</time>
      </trkpt>
      <trkpt lat="44.22881" lon="2.76972">
        <ele>810.05</ele>
        <time>2022-07-15T06:22:47Z</time>
      </trkpt>
      <trkpt lat="44.22886" lon="2.76952">
        <ele>811.49</ele>
        <time>2022-07-15T06:22:55Z</time>
      </trkpt>
      <trkpt lat="44.22884" lon="2.76934">
        <ele>812.45</ele>
        <time>2022-07-15T06:23:07Z</time>
      </trkpt>
      <trkpt lat="44.22887" lon="2.76875">
        <ele>812.93</ele>
        <time>2022-07-15T06:23:40Z</time>
      </trkpt>
      <trkpt lat="44.22887" lon="2.76856">
        <ele>815.34</ele>
        <time>2022-07-15T06:23:50Z</time>
      </trkpt>
      <trkpt lat="44.22893" lon="2.76541">
        <ele>811.97</ele>
        <time>2022-07-15T06:26:33Z</time>
      </trkpt>
      <trkpt lat="44.22893" lon="2.76524">
        <ele>810.53</ele>
        <time>2022-07-15T06:26:42Z</time>
      </trkpt>
      <trkpt lat="44.22894" lon="2.76501">
        <ele>838.89</ele>
        <time>2022-07-15T06:27:27Z</time>
      </trkpt>
      <trkpt lat="44.22903" lon="2.76487">
        <ele>838.89</ele>
        <time>2022-07-15T06:27:39Z</time>
      </trkpt>
      <trkpt lat="44.22911" lon="2.76474">
        <ele>842.73</ele>
        <time>2022-07-15T06:27:56Z</time>
      </trkpt>
      <trkpt lat="44.22916" lon="2.76462">
        <ele>842.73</ele>
        <time>2022-07-15T06:28:12Z</time>
      </trkpt>
      <trkpt lat="44.22911" lon="2.7645">
        <ele>842.73</ele>
        <time>2022-07-15T06:28:22Z</time>
      </trkpt>
      <trkpt lat="44.22905" lon="2.76438">
        <ele>842.25</ele>
        <time>2022-07-15T06:28:30Z</time>
      </trkpt>
      <trkpt lat="44.22902" lon="2.76426">
        <ele>842.73</ele>
        <time>2022-07-15T06:28:37Z</time>
      </trkpt>
      <trkpt lat="44.22899" lon="2.76414">
        <ele>843.69</ele>
        <time>2022-07-15T06:28:44Z</time>
      </trkpt>
      <trkpt lat="44.22898" lon="2.764">
        <ele>844.18</ele>
        <time>2022-07-15T06:28:51Z</time>
      </trkpt>
      <trkpt lat="44.22896" lon="2.76386">
        <ele>844.66</ele>
        <time>2022-07-15T06:28:58Z</time>
      </trkpt>
      <trkpt lat="44.22897" lon="2.76372">
        <ele>845.14</ele>
        <time>2022-07-15T06:29:05Z</time>
      </trkpt>
      <trkpt lat="44.22898" lon="2.76355">
        <ele>846.58</ele>
        <time>2022-07-15T06:29:13Z</time>
      </trkpt>
      <trkpt lat="44.22901" lon="2.76339">
        <ele>847.54</ele>
        <time>2022-07-15T06:29:21Z</time>
      </trkpt>
      <trkpt lat="44.22905" lon="2.76323">
        <ele>847.54</ele>
        <time>2022-07-15T06:29:29Z</time>
      </trkpt>
      <trkpt lat="44.22909" lon="2.76311">
        <ele>847.54</ele>
        <time>2022-07-15T06:29:36Z</time>
      </trkpt>
      <trkpt lat="44.22914" lon="2.76299">
        <ele>847.54</ele>
        <time>2022-07-15T06:29:43Z</time>
      </trkpt>
      <trkpt lat="44.22919" lon="2.76286">
        <ele>847.54</ele>
        <time>2022-07-15T06:29:50Z</time>
      </trkpt>
      <trkpt lat="44.22924" lon="2.76273">
        <ele>847.06</ele>
        <time>2022-07-15T06:29:57Z</time>
      </trkpt>
      <trkpt lat="44.22928" lon="2.7626">
        <ele>847.06</ele>
        <time>2022-07-15T06:30:04Z</time>
      </trkpt>
      <trkpt lat="44.22932" lon="2.76248">
        <ele>846.58</ele>
        <time>2022-07-15T06:30:11Z</time>
      </trkpt>
      <trkpt lat="44.22937" lon="2.76234">
        <ele>846.58</ele>
        <time>2022-07-15T06:30:18Z</time>
      </trkpt>
      <trkpt lat="44.22942" lon="2.76222">
        <ele>846.1</ele>
        <time>2022-07-15T06:30:25Z</time>
      </trkpt>
      <trkpt lat="44.22947" lon="2.76209">
        <ele>846.1</ele>
        <time>2022-07-15T06:30:32Z</time>
      </trkpt>
      <trkpt lat="44.22952" lon="2.76196">
        <ele>846.1</ele>
        <time>2022-07-15T06:30:39Z</time>
      </trkpt>
      <trkpt lat="44.22957" lon="2.76183">
        <ele>846.1</ele>
        <time>2022-07-15T06:30:46Z</time>
      </trkpt>
      <trkpt lat="44.22963" lon="2.76171">
        <ele>846.1</ele>
        <time>2022-07-15T06:30:53Z</time>
      </trkpt>
      <trkpt lat="44.22968" lon="2.76159">
        <ele>846.1</ele>
        <time>2022-07-15T06:31:00Z</time>
      </trkpt>
      <trkpt lat="44.22974" lon="2.76147">
        <ele>845.62</ele>
        <time>2022-07-15T06:31:07Z</time>
      </trkpt>
      <trkpt lat="44.22981" lon="2.76136">
        <ele>844.66</ele>
        <time>2022-07-15T06:31:14Z</time>
      </trkpt>
      <trkpt lat="44.22989" lon="2.76125">
        <ele>844.18</ele>
        <time>2022-07-15T06:31:22Z</time>
      </trkpt>
      <trkpt lat="44.22997" lon="2.76113">
        <ele>843.69</ele>
        <time>2022-07-15T06:31:30Z</time>
      </trkpt>
      <trkpt lat="44.22997" lon="2.76102">
        <ele>847.06</ele>
        <time>2022-07-15T06:33:22Z</time>
      </trkpt>
      <trkpt lat="44.23008" lon="2.76096">
        <ele>846.58</ele>
        <time>2022-07-15T06:33:30Z</time>
      </trkpt>
      <trkpt lat="44.23016" lon="2.76088">
        <ele>846.1</ele>
        <time>2022-07-15T06:33:38Z</time>
      </trkpt>
      <trkpt lat="44.23024" lon="2.76079">
        <ele>846.1</ele>
        <time>2022-07-15T06:33:45Z</time>
      </trkpt>
      <trkpt lat="44.23032" lon="2.76078">
        <ele>846.58</ele>
        <time>2022-07-15T06:33:52Z</time>
      </trkpt>
      <trkpt lat="44.23027" lon="2.76064">
        <ele>848.02</ele>
        <time>2022-07-15T06:34:20Z</time>
      </trkpt>
      <trkpt lat="44.23026" lon="2.75991">
        <ele>836.48</ele>
        <time>2022-07-15T06:35:04Z</time>
      </trkpt>
      <trkpt lat="44.23025" lon="2.75944">
        <ele>837.93</ele>
        <time>2022-07-15T06:35:32Z</time>
      </trkpt>
      <trkpt lat="44.23022" lon="2.7587">
        <ele>832.64</ele>
        <time>2022-07-15T06:36:09Z</time>
      </trkpt>
      <trkpt lat="44.23019" lon="2.7587">
        <ele>840.33</ele>
        <time>2022-07-15T06:37:01Z</time>
      </trkpt>
      <trkpt lat="44.23016" lon="2.75858">
        <ele>841.77</ele>
        <time>2022-07-15T06:37:09Z</time>
      </trkpt>
      <trkpt lat="44.23017" lon="2.75843">
        <ele>839.37</ele>
        <time>2022-07-15T06:37:17Z</time>
      </trkpt>
      <trkpt lat="44.23011" lon="2.75792">
        <ele>827.83</ele>
        <time>2022-07-15T06:38:08Z</time>
      </trkpt>
      <trkpt lat="44.23008" lon="2.75774">
        <ele>820.14</ele>
        <time>2022-07-15T06:38:19Z</time>
      </trkpt>
      <trkpt lat="44.23026" lon="2.75695">
        <ele>823.99</ele>
        <time>2022-07-15T06:39:27Z</time>
      </trkpt>
      <trkpt lat="44.23046" lon="2.75674">
        <ele>832.64</ele>
        <time>2022-07-15T06:39:45Z</time>
      </trkpt>
      <trkpt lat="44.23055" lon="2.75657">
        <ele>833.6</ele>
        <time>2022-07-15T06:39:58Z</time>
      </trkpt>
      <trkpt lat="44.23069" lon="2.75638">
        <ele>834.08</ele>
        <time>2022-07-15T06:40:16Z</time>
      </trkpt>
      <trkpt lat="44.23174" lon="2.75559">
        <ele>844.66</ele>
        <time>2022-07-15T06:41:59Z</time>
      </trkpt>
      <trkpt lat="44.23186" lon="2.75556">
        <ele>846.1</ele>
        <time>2022-07-15T06:42:09Z</time>
      </trkpt>
      <trkpt lat="44.23196" lon="2.75559">
        <ele>846.1</ele>
        <time>2022-07-15T06:42:18Z</time>
      </trkpt>
      <trkpt lat="44.23208" lon="2.75562">
        <ele>846.58</ele>
        <time>2022-07-15T06:42:29Z</time>
      </trkpt>
      <trkpt lat="44.23217" lon="2.75567">
        <ele>846.58</ele>
        <time>2022-07-15T06:42:39Z</time>
      </trkpt>
      <trkpt lat="44.23228" lon="2.75571">
        <ele>845.62</ele>
        <time>2022-07-15T06:42:49Z</time>
      </trkpt>
      <trkpt lat="44.23239" lon="2.75578">
        <ele>843.69</ele>
        <time>2022-07-15T06:43:00Z</time>
      </trkpt>
      <trkpt lat="44.23251" lon="2.75583">
        <ele>843.21</ele>
        <time>2022-07-15T06:43:11Z</time>
      </trkpt>
      <trkpt lat="44.23267" lon="2.75588">
        <ele>842.73</ele>
        <time>2022-07-15T06:43:21Z</time>
      </trkpt>
      <trkpt lat="44.23345" lon="2.75544">
        <ele>836.96</ele>
        <time>2022-07-15T06:44:45Z</time>
      </trkpt>
      <trkpt lat="44.23358" lon="2.75512">
        <ele>832.64</ele>
        <time>2022-07-15T06:45:08Z</time>
      </trkpt>
      <trkpt lat="44.2337" lon="2.75493">
        <ele>837.45</ele>
        <time>2022-07-15T06:45:19Z</time>
      </trkpt>
      <trkpt lat="44.2338" lon="2.75479">
        <ele>837.93</ele>
        <time>2022-07-15T06:45:31Z</time>
      </trkpt>
      <trkpt lat="44.23387" lon="2.75464">
        <ele>838.41</ele>
        <time>2022-07-15T06:45:41Z</time>
      </trkpt>
      <trkpt lat="44.23392" lon="2.75446">
        <ele>841.29</ele>
        <time>2022-07-15T06:45:50Z</time>
      </trkpt>
      <trkpt lat="44.23398" lon="2.75433">
        <ele>838.89</ele>
        <time>2022-07-15T06:46:02Z</time>
      </trkpt>
      <trkpt lat="44.23408" lon="2.75422">
        <ele>836.96</ele>
        <time>2022-07-15T06:46:13Z</time>
      </trkpt>
      <trkpt lat="44.23423" lon="2.7539">
        <ele>836.96</ele>
        <time>2022-07-15T06:46:38Z</time>
      </trkpt>
      <trkpt lat="44.23444" lon="2.75387">
        <ele>839.37</ele>
        <time>2022-07-15T06:46:50Z</time>
      </trkpt>
      <trkpt lat="44.23457" lon="2.75384">
        <ele>848.98</ele>
        <time>2022-07-15T06:46:59Z</time>
      </trkpt>
      <trkpt lat="44.23466" lon="2.7538">
        <ele>851.87</ele>
        <time>2022-07-15T06:47:08Z</time>
      </trkpt>
      <trkpt lat="44.23483" lon="2.75373">
        <ele>855.71</ele>
        <time>2022-07-15T06:47:20Z</time>
      </trkpt>
      <trkpt lat="44.235" lon="2.75374">
        <ele>857.63</ele>
        <time>2022-07-15T06:47:33Z</time>
      </trkpt>
      <trkpt lat="44.2351" lon="2.75383">
        <ele>857.63</ele>
        <time>2022-07-15T06:47:49Z</time>
      </trkpt>
      <trkpt lat="44.23518" lon="2.75392">
        <ele>856.67</ele>
        <time>2022-07-15T06:48:01Z</time>
      </trkpt>
      <trkpt lat="44.23522" lon="2.75406">
        <ele>856.67</ele>
        <time>2022-07-15T06:48:12Z</time>
      </trkpt>
      <trkpt lat="44.23521" lon="2.7542">
        <ele>856.67</ele>
        <time>2022-07-15T06:48:22Z</time>
      </trkpt>
      <trkpt lat="44.23521" lon="2.75434">
        <ele>855.71</ele>
        <time>2022-07-15T06:48:32Z</time>
      </trkpt>
      <trkpt lat="44.23522" lon="2.7545">
        <ele>855.71</ele>
        <time>2022-07-15T06:48:42Z</time>
      </trkpt>
      <trkpt lat="44.23522" lon="2.75467">
        <ele>854.27</ele>
        <time>2022-07-15T06:48:53Z</time>
      </trkpt>
      <trkpt lat="44.23535" lon="2.75489">
        <ele>857.63</ele>
        <time>2022-07-15T06:49:25Z</time>
      </trkpt>
      <trkpt lat="44.23537" lon="2.75505">
        <ele>856.67</ele>
        <time>2022-07-15T06:49:35Z</time>
      </trkpt>
      <trkpt lat="44.23541" lon="2.75519">
        <ele>856.67</ele>
        <time>2022-07-15T06:49:44Z</time>
      </trkpt>
      <trkpt lat="44.23545" lon="2.75534">
        <ele>856.19</ele>
        <time>2022-07-15T06:49:54Z</time>
      </trkpt>
      <trkpt lat="44.23542" lon="2.75547">
        <ele>854.75</ele>
        <time>2022-07-15T06:50:03Z</time>
      </trkpt>
      <trkpt lat="44.23537" lon="2.75558">
        <ele>855.23</ele>
        <time>2022-07-15T06:50:13Z</time>
      </trkpt>
      <trkpt lat="44.23531" lon="2.75569">
        <ele>854.27</ele>
        <time>2022-07-15T06:50:30Z</time>
      </trkpt>
      <trkpt lat="44.23516" lon="2.75576">
        <ele>852.83</ele>
        <time>2022-07-15T06:50:57Z</time>
      </trkpt>
      <trkpt lat="44.2351" lon="2.75566">
        <ele>853.31</ele>
        <time>2022-07-15T06:51:06Z</time>
      </trkpt>
      <trkpt lat="44.23511" lon="2.75551">
        <ele>853.31</ele>
        <time>2022-07-15T06:51:16Z</time>
      </trkpt>
      <trkpt lat="44.23514" lon="2.75538">
        <ele>852.35</ele>
        <time>2022-07-15T06:51:26Z</time>
      </trkpt>
      <trkpt lat="44.23518" lon="2.75524">
        <ele>850.42</ele>
        <time>2022-07-15T06:51:37Z</time>
      </trkpt>
      <trkpt lat="44.23517" lon="2.75507">
        <ele>848.5</ele>
        <time>2022-07-15T06:51:45Z</time>
      </trkpt>
      <trkpt lat="44.23521" lon="2.7549">
        <ele>847.06</ele>
        <time>2022-07-15T06:51:57Z</time>
      </trkpt>
      <trkpt lat="44.23521" lon="2.75475">
        <ele>848.02</ele>
        <time>2022-07-15T06:52:05Z</time>
      </trkpt>
      <trkpt lat="44.2352" lon="2.7546">
        <ele>848.5</ele>
        <time>2022-07-15T06:52:14Z</time>
      </trkpt>
      <trkpt lat="44.23522" lon="2.75445">
        <ele>848.02</ele>
        <time>2022-07-15T06:52:23Z</time>
      </trkpt>
      <trkpt lat="44.23524" lon="2.75431">
        <ele>847.06</ele>
        <time>2022-07-15T06:52:32Z</time>
      </trkpt>
      <trkpt lat="44.23524" lon="2.75413">
        <ele>848.98</ele>
        <time>2022-07-15T06:52:40Z</time>
      </trkpt>
      <trkpt lat="44.23526" lon="2.75397">
        <ele>850.42</ele>
        <time>2022-07-15T06:52:48Z</time>
      </trkpt>
      <trkpt lat="44.23526" lon="2.75383">
        <ele>851.87</ele>
        <time>2022-07-15T06:52:56Z</time>
      </trkpt>
      <trkpt lat="44.23526" lon="2.75368">
        <ele>851.87</ele>
        <time>2022-07-15T06:53:05Z</time>
      </trkpt>
      <trkpt lat="44.23527" lon="2.75351">
        <ele>853.79</ele>
        <time>2022-07-15T06:53:14Z</time>
      </trkpt>
      <trkpt lat="44.23529" lon="2.75338">
        <ele>854.27</ele>
        <time>2022-07-15T06:53:22Z</time>
      </trkpt>
      <trkpt lat="44.23529" lon="2.75323">
        <ele>854.75</ele>
        <time>2022-07-15T06:53:31Z</time>
      </trkpt>
      <trkpt lat="44.2353" lon="2.75307">
        <ele>854.27</ele>
        <time>2022-07-15T06:53:40Z</time>
      </trkpt>
      <trkpt lat="44.23534" lon="2.75293">
        <ele>851.87</ele>
        <time>2022-07-15T06:53:50Z</time>
      </trkpt>
      <trkpt lat="44.2354" lon="2.75282">
        <ele>848.98</ele>
        <time>2022-07-15T06:54:00Z</time>
      </trkpt>
      <trkpt lat="44.23548" lon="2.75272">
        <ele>845.14</ele>
        <time>2022-07-15T06:54:11Z</time>
      </trkpt>
      <trkpt lat="44.23555" lon="2.75261">
        <ele>843.69</ele>
        <time>2022-07-15T06:54:20Z</time>
      </trkpt>
      <trkpt lat="44.23558" lon="2.75242">
        <ele>845.14</ele>
        <time>2022-07-15T06:54:30Z</time>
      </trkpt>
      <trkpt lat="44.23556" lon="2.75223">
        <ele>848.98</ele>
        <time>2022-07-15T06:54:38Z</time>
      </trkpt>
      <trkpt lat="44.23552" lon="2.75206">
        <ele>851.87</ele>
        <time>2022-07-15T06:54:46Z</time>
      </trkpt>
      <trkpt lat="44.23547" lon="2.75191">
        <ele>854.27</ele>
        <time>2022-07-15T06:54:54Z</time>
      </trkpt>
      <trkpt lat="44.23543" lon="2.75177">
        <ele>856.19</ele>
        <time>2022-07-15T06:55:02Z</time>
      </trkpt>
      <trkpt lat="44.23538" lon="2.75165">
        <ele>856.67</ele>
        <time>2022-07-15T06:55:10Z</time>
      </trkpt>
      <trkpt lat="44.23533" lon="2.75152">
        <ele>857.15</ele>
        <time>2022-07-15T06:55:18Z</time>
      </trkpt>
      <trkpt lat="44.23526" lon="2.7514">
        <ele>856.67</ele>
        <time>2022-07-15T06:55:27Z</time>
      </trkpt>
      <trkpt lat="44.23515" lon="2.7512">
        <ele>858.11</ele>
        <time>2022-07-15T06:56:20Z</time>
      </trkpt>
      <trkpt lat="44.2351" lon="2.75108">
        <ele>857.15</ele>
        <time>2022-07-15T06:56:31Z</time>
      </trkpt>
      <trkpt lat="44.23506" lon="2.75094">
        <ele>857.15</ele>
        <time>2022-07-15T06:56:42Z</time>
      </trkpt>
      <trkpt lat="44.23508" lon="2.75074">
        <ele>861</ele>
        <time>2022-07-15T06:56:52Z</time>
      </trkpt>
      <trkpt lat="44.23504" lon="2.75061">
        <ele>860.04</ele>
        <time>2022-07-15T06:57:01Z</time>
      </trkpt>
      <trkpt lat="44.23501" lon="2.75048">
        <ele>859.56</ele>
        <time>2022-07-15T06:57:08Z</time>
      </trkpt>
      <trkpt lat="44.235" lon="2.75033">
        <ele>859.56</ele>
        <time>2022-07-15T06:57:16Z</time>
      </trkpt>
      <trkpt lat="44.23497" lon="2.75014">
        <ele>863.4</ele>
        <time>2022-07-15T06:57:24Z</time>
      </trkpt>
      <trkpt lat="44.23497" lon="2.75">
        <ele>862.44</ele>
        <time>2022-07-15T06:57:32Z</time>
      </trkpt>
      <trkpt lat="44.23496" lon="2.74985">
        <ele>860.52</ele>
        <time>2022-07-15T06:57:41Z</time>
      </trkpt>
      <trkpt lat="44.23496" lon="2.7497">
        <ele>859.56</ele>
        <time>2022-07-15T06:57:49Z</time>
      </trkpt>
      <trkpt lat="44.23497" lon="2.74956">
        <ele>857.15</ele>
        <time>2022-07-15T06:57:58Z</time>
      </trkpt>
      <trkpt lat="44.23498" lon="2.74941">
        <ele>857.15</ele>
        <time>2022-07-15T06:58:05Z</time>
      </trkpt>
      <trkpt lat="44.23498" lon="2.74926">
        <ele>856.67</ele>
        <time>2022-07-15T06:58:12Z</time>
      </trkpt>
      <trkpt lat="44.23498" lon="2.7491">
        <ele>857.15</ele>
        <time>2022-07-15T06:58:20Z</time>
      </trkpt>
      <trkpt lat="44.235" lon="2.74895">
        <ele>856.19</ele>
        <time>2022-07-15T06:58:28Z</time>
      </trkpt>
      <trkpt lat="44.23501" lon="2.74876">
        <ele>856.67</ele>
        <time>2022-07-15T06:58:36Z</time>
      </trkpt>
      <trkpt lat="44.23502" lon="2.74859">
        <ele>856.67</ele>
        <time>2022-07-15T06:58:45Z</time>
      </trkpt>
      <trkpt lat="44.23502" lon="2.74845">
        <ele>854.75</ele>
        <time>2022-07-15T06:58:53Z</time>
      </trkpt>
      <trkpt lat="44.23503" lon="2.74829">
        <ele>854.27</ele>
        <time>2022-07-15T06:59:01Z</time>
      </trkpt>
      <trkpt lat="44.23503" lon="2.7481">
        <ele>855.23</ele>
        <time>2022-07-15T06:59:09Z</time>
      </trkpt>
      <trkpt lat="44.23503" lon="2.74788">
        <ele>857.15</ele>
        <time>2022-07-15T06:59:19Z</time>
      </trkpt>
      <trkpt lat="44.23504" lon="2.74771">
        <ele>855.71</ele>
        <time>2022-07-15T06:59:28Z</time>
      </trkpt>
      <trkpt lat="44.23508" lon="2.74754">
        <ele>853.31</ele>
        <time>2022-07-15T06:59:37Z</time>
      </trkpt>
      <trkpt lat="44.23511" lon="2.74738">
        <ele>850.42</ele>
        <time>2022-07-15T06:59:46Z</time>
      </trkpt>
      <trkpt lat="44.23514" lon="2.74721">
        <ele>849.46</ele>
        <time>2022-07-15T06:59:55Z</time>
      </trkpt>
      <trkpt lat="44.23517" lon="2.74703">
        <ele>849.46</ele>
        <time>2022-07-15T07:00:04Z</time>
      </trkpt>
      <trkpt lat="44.2352" lon="2.74685">
        <ele>849.46</ele>
        <time>2022-07-15T07:00:13Z</time>
      </trkpt>
      <trkpt lat="44.23523" lon="2.74664">
        <ele>849.46</ele>
        <time>2022-07-15T07:00:23Z</time>
      </trkpt>
      <trkpt lat="44.23527" lon="2.74645">
        <ele>847.54</ele>
        <time>2022-07-15T07:00:33Z</time>
      </trkpt>
      <trkpt lat="44.23532" lon="2.74629">
        <ele>844.66</ele>
        <time>2022-07-15T07:00:43Z</time>
      </trkpt>
      <trkpt lat="44.23536" lon="2.7461">
        <ele>844.66</ele>
        <time>2022-07-15T07:00:51Z</time>
      </trkpt>
      <trkpt lat="44.23539" lon="2.74593">
        <ele>847.06</ele>
        <time>2022-07-15T07:00:59Z</time>
      </trkpt>
      <trkpt lat="44.23541" lon="2.74575">
        <ele>849.94</ele>
        <time>2022-07-15T07:01:07Z</time>
      </trkpt>
      <trkpt lat="44.23545" lon="2.74557">
        <ele>850.42</ele>
        <time>2022-07-15T07:01:16Z</time>
      </trkpt>
      <trkpt lat="44.23549" lon="2.74539">
        <ele>848.5</ele>
        <time>2022-07-15T07:01:26Z</time>
      </trkpt>
      <trkpt lat="44.23552" lon="2.74524">
        <ele>848.02</ele>
        <time>2022-07-15T07:01:34Z</time>
      </trkpt>
      <trkpt lat="44.23552" lon="2.74497">
        <ele>855.23</ele>
        <time>2022-07-15T07:01:41Z</time>
      </trkpt>
      <trkpt lat="44.23556" lon="2.7448">
        <ele>858.59</ele>
        <time>2022-07-15T07:01:48Z</time>
      </trkpt>
      <trkpt lat="44.23557" lon="2.74462">
        <ele>861.96</ele>
        <time>2022-07-15T07:01:55Z</time>
      </trkpt>
      <trkpt lat="44.2356" lon="2.74449">
        <ele>863.4</ele>
        <time>2022-07-15T07:02:01Z</time>
      </trkpt>
      <trkpt lat="44.23562" lon="2.74435">
        <ele>863.88</ele>
        <time>2022-07-15T07:02:07Z</time>
      </trkpt>
      <trkpt lat="44.23564" lon="2.74423">
        <ele>863.88</ele>
        <time>2022-07-15T07:02:13Z</time>
      </trkpt>
      <trkpt lat="44.23568" lon="2.74411">
        <ele>864.36</ele>
        <time>2022-07-15T07:02:19Z</time>
      </trkpt>
      <trkpt lat="44.23571" lon="2.74397">
        <ele>864.36</ele>
        <time>2022-07-15T07:02:26Z</time>
      </trkpt>
      <trkpt lat="44.23573" lon="2.74385">
        <ele>863.88</ele>
        <time>2022-07-15T07:02:32Z</time>
      </trkpt>
      <trkpt lat="44.23575" lon="2.7437">
        <ele>863.88</ele>
        <time>2022-07-15T07:02:39Z</time>
      </trkpt>
      <trkpt lat="44.23576" lon="2.74356">
        <ele>863.4</ele>
        <time>2022-07-15T07:02:46Z</time>
      </trkpt>
      <trkpt lat="44.23576" lon="2.74342">
        <ele>861.96</ele>
        <time>2022-07-15T07:02:53Z</time>
      </trkpt>
      <trkpt lat="44.23576" lon="2.74328">
        <ele>862.44</ele>
        <time>2022-07-15T07:02:59Z</time>
      </trkpt>
      <trkpt lat="44.23574" lon="2.74314">
        <ele>862.92</ele>
        <time>2022-07-15T07:03:05Z</time>
      </trkpt>
      <trkpt lat="44.23572" lon="2.74298">
        <ele>862.92</ele>
        <time>2022-07-15T07:03:12Z</time>
      </trkpt>
      <trkpt lat="44.2357" lon="2.74285">
        <ele>863.4</ele>
        <time>2022-07-15T07:03:18Z</time>
      </trkpt>
      <trkpt lat="44.23567" lon="2.74271">
        <ele>863.88</ele>
        <time>2022-07-15T07:03:24Z</time>
      </trkpt>
      <trkpt lat="44.23564" lon="2.74257">
        <ele>863.88</ele>
        <time>2022-07-15T07:03:31Z</time>
      </trkpt>
      <trkpt lat="44.23561" lon="2.74242">
        <ele>864.84</ele>
        <time>2022-07-15T07:03:38Z</time>
      </trkpt>
      <trkpt lat="44.23557" lon="2.7423">
        <ele>865.32</ele>
        <time>2022-07-15T07:03:44Z</time>
      </trkpt>
      <trkpt lat="44.23555" lon="2.74217">
        <ele>865.8</ele>
        <time>2022-07-15T07:03:50Z</time>
      </trkpt>
      <trkpt lat="44.23551" lon="2.74203">
        <ele>865.8</ele>
        <time>2022-07-15T07:03:57Z</time>
      </trkpt>
      <trkpt lat="44.23549" lon="2.7419">
        <ele>866.77</ele>
        <time>2022-07-15T07:04:03Z</time>
      </trkpt>
      <trkpt lat="44.23546" lon="2.74177">
        <ele>868.21</ele>
        <time>2022-07-15T07:04:09Z</time>
      </trkpt>
      <trkpt lat="44.23544" lon="2.74164">
        <ele>868.69</ele>
        <time>2022-07-15T07:04:15Z</time>
      </trkpt>
      <trkpt lat="44.23541" lon="2.7415">
        <ele>868.69</ele>
        <time>2022-07-15T07:04:22Z</time>
      </trkpt>
      <trkpt lat="44.23539" lon="2.74137">
        <ele>868.69</ele>
        <time>2022-07-15T07:04:28Z</time>
      </trkpt>
      <trkpt lat="44.23538" lon="2.74123">
        <ele>868.69</ele>
        <time>2022-07-15T07:04:35Z</time>
      </trkpt>
      <trkpt lat="44.23536" lon="2.74109">
        <ele>868.21</ele>
        <time>2022-07-15T07:04:42Z</time>
      </trkpt>
      <trkpt lat="44.23534" lon="2.74097">
        <ele>868.21</ele>
        <time>2022-07-15T07:04:48Z</time>
      </trkpt>
      <trkpt lat="44.23533" lon="2.74084">
        <ele>868.21</ele>
        <time>2022-07-15T07:04:54Z</time>
      </trkpt>
      <trkpt lat="44.23532" lon="2.74071">
        <ele>868.69</ele>
        <time>2022-07-15T07:05:00Z</time>
      </trkpt>
      <trkpt lat="44.23531" lon="2.74058">
        <ele>868.69</ele>
        <time>2022-07-15T07:05:06Z</time>
      </trkpt>
      <trkpt lat="44.2353" lon="2.74045">
        <ele>868.21</ele>
        <time>2022-07-15T07:05:12Z</time>
      </trkpt>
      <trkpt lat="44.2353" lon="2.74032">
        <ele>867.73</ele>
        <time>2022-07-15T07:05:18Z</time>
      </trkpt>
      <trkpt lat="44.23529" lon="2.74017">
        <ele>867.25</ele>
        <time>2022-07-15T07:05:25Z</time>
      </trkpt>
      <trkpt lat="44.2353" lon="2.74004">
        <ele>866.77</ele>
        <time>2022-07-15T07:05:31Z</time>
      </trkpt>
      <trkpt lat="44.23528" lon="2.7399">
        <ele>865.8</ele>
        <time>2022-07-15T07:05:38Z</time>
      </trkpt>
      <trkpt lat="44.23527" lon="2.73975">
        <ele>863.88</ele>
        <time>2022-07-15T07:05:46Z</time>
      </trkpt>
      <trkpt lat="44.23522" lon="2.73962">
        <ele>862.44</ele>
        <time>2022-07-15T07:05:53Z</time>
      </trkpt>
      <trkpt lat="44.23519" lon="2.73948">
        <ele>861.96</ele>
        <time>2022-07-15T07:06:00Z</time>
      </trkpt>
      <trkpt lat="44.23516" lon="2.73934">
        <ele>861.48</ele>
        <time>2022-07-15T07:06:07Z</time>
      </trkpt>
      <trkpt lat="44.23514" lon="2.7392">
        <ele>861.48</ele>
        <time>2022-07-15T07:06:14Z</time>
      </trkpt>
      <trkpt lat="44.23512" lon="2.73906">
        <ele>861</ele>
        <time>2022-07-15T07:06:21Z</time>
      </trkpt>
      <trkpt lat="44.23509" lon="2.73891">
        <ele>861</ele>
        <time>2022-07-15T07:06:28Z</time>
      </trkpt>
      <trkpt lat="44.23505" lon="2.73877">
        <ele>860.52</ele>
        <time>2022-07-15T07:06:35Z</time>
      </trkpt>
      <trkpt lat="44.23501" lon="2.73863">
        <ele>860.04</ele>
        <time>2022-07-15T07:06:42Z</time>
      </trkpt>
      <trkpt lat="44.23497" lon="2.73851">
        <ele>859.56</ele>
        <time>2022-07-15T07:06:48Z</time>
      </trkpt>
      <trkpt lat="44.23492" lon="2.73838">
        <ele>858.59</ele>
        <time>2022-07-15T07:06:55Z</time>
      </trkpt>
      <trkpt lat="44.23488" lon="2.73825">
        <ele>857.63</ele>
        <time>2022-07-15T07:07:02Z</time>
      </trkpt>
      <trkpt lat="44.23483" lon="2.73812">
        <ele>858.11</ele>
        <time>2022-07-15T07:07:09Z</time>
      </trkpt>
      <trkpt lat="44.23478" lon="2.73799">
        <ele>858.59</ele>
        <time>2022-07-15T07:07:17Z</time>
      </trkpt>
      <trkpt lat="44.2347" lon="2.73787">
        <ele>859.08</ele>
        <time>2022-07-15T07:07:24Z</time>
      </trkpt>
      <trkpt lat="44.23462" lon="2.73777">
        <ele>859.56</ele>
        <time>2022-07-15T07:07:31Z</time>
      </trkpt>
      <trkpt lat="44.23453" lon="2.73768">
        <ele>859.56</ele>
        <time>2022-07-15T07:07:38Z</time>
      </trkpt>
      <trkpt lat="44.23444" lon="2.73761">
        <ele>859.08</ele>
        <time>2022-07-15T07:07:45Z</time>
      </trkpt>
      <trkpt lat="44.23434" lon="2.73755">
        <ele>857.63</ele>
        <time>2022-07-15T07:07:53Z</time>
      </trkpt>
      <trkpt lat="44.23423" lon="2.73751">
        <ele>856.67</ele>
        <time>2022-07-15T07:08:00Z</time>
      </trkpt>
      <trkpt lat="44.23413" lon="2.73749">
        <ele>856.19</ele>
        <time>2022-07-15T07:08:07Z</time>
      </trkpt>
      <trkpt lat="44.23403" lon="2.73746">
        <ele>855.71</ele>
        <time>2022-07-15T07:08:14Z</time>
      </trkpt>
      <trkpt lat="44.23393" lon="2.73743">
        <ele>855.23</ele>
        <time>2022-07-15T07:08:21Z</time>
      </trkpt>
      <trkpt lat="44.23383" lon="2.73741">
        <ele>855.23</ele>
        <time>2022-07-15T07:08:28Z</time>
      </trkpt>
      <trkpt lat="44.23372" lon="2.73738">
        <ele>855.23</ele>
        <time>2022-07-15T07:08:35Z</time>
      </trkpt>
      <trkpt lat="44.23362" lon="2.73733">
        <ele>856.19</ele>
        <time>2022-07-15T07:08:42Z</time>
      </trkpt>
      <trkpt lat="44.23354" lon="2.73726">
        <ele>857.15</ele>
        <time>2022-07-15T07:08:48Z</time>
      </trkpt>
      <trkpt lat="44.23347" lon="2.73717">
        <ele>857.15</ele>
        <time>2022-07-15T07:08:54Z</time>
      </trkpt>
      <trkpt lat="44.23339" lon="2.73708">
        <ele>857.15</ele>
        <time>2022-07-15T07:09:01Z</time>
      </trkpt>
      <trkpt lat="44.23332" lon="2.73699">
        <ele>856.67</ele>
        <time>2022-07-15T07:09:07Z</time>
      </trkpt>
      <trkpt lat="44.23324" lon="2.73691">
        <ele>856.19</ele>
        <time>2022-07-15T07:09:14Z</time>
      </trkpt>
      <trkpt lat="44.23316" lon="2.73683">
        <ele>855.23</ele>
        <time>2022-07-15T07:09:21Z</time>
      </trkpt>
      <trkpt lat="44.23308" lon="2.73674">
        <ele>854.75</ele>
        <time>2022-07-15T07:09:28Z</time>
      </trkpt>
      <trkpt lat="44.23299" lon="2.73666">
        <ele>853.79</ele>
        <time>2022-07-15T07:09:35Z</time>
      </trkpt>
      <trkpt lat="44.23291" lon="2.73658">
        <ele>852.83</ele>
        <time>2022-07-15T07:09:42Z</time>
      </trkpt>
      <trkpt lat="44.23284" lon="2.73651">
        <ele>852.35</ele>
        <time>2022-07-15T07:09:48Z</time>
      </trkpt>
      <trkpt lat="44.23275" lon="2.73642">
        <ele>851.87</ele>
        <time>2022-07-15T07:09:55Z</time>
      </trkpt>
      <trkpt lat="44.23267" lon="2.73635">
        <ele>851.87</ele>
        <time>2022-07-15T07:10:01Z</time>
      </trkpt>
      <trkpt lat="44.23258" lon="2.73626">
        <ele>851.38</ele>
        <time>2022-07-15T07:10:08Z</time>
      </trkpt>
      <trkpt lat="44.2325" lon="2.73617">
        <ele>851.38</ele>
        <time>2022-07-15T07:10:15Z</time>
      </trkpt>
      <trkpt lat="44.23241" lon="2.73609">
        <ele>851.38</ele>
        <time>2022-07-15T07:10:22Z</time>
      </trkpt>
      <trkpt lat="44.23233" lon="2.736">
        <ele>851.38</ele>
        <time>2022-07-15T07:10:29Z</time>
      </trkpt>
      <trkpt lat="44.23225" lon="2.7359">
        <ele>851.38</ele>
        <time>2022-07-15T07:10:36Z</time>
      </trkpt>
      <trkpt lat="44.23218" lon="2.73581">
        <ele>850.9</ele>
        <time>2022-07-15T07:10:42Z</time>
      </trkpt>
      <trkpt lat="44.23211" lon="2.73571">
        <ele>851.87</ele>
        <time>2022-07-15T07:10:49Z</time>
      </trkpt>
      <trkpt lat="44.23204" lon="2.73561">
        <ele>851.38</ele>
        <time>2022-07-15T07:10:56Z</time>
      </trkpt>
      <trkpt lat="44.23197" lon="2.73549">
        <ele>851.87</ele>
        <time>2022-07-15T07:11:03Z</time>
      </trkpt>
      <trkpt lat="44.23191" lon="2.73539">
        <ele>851.87</ele>
        <time>2022-07-15T07:11:10Z</time>
      </trkpt>
      <trkpt lat="44.23185" lon="2.73528">
        <ele>851.38</ele>
        <time>2022-07-15T07:11:17Z</time>
      </trkpt>
      <trkpt lat="44.23178" lon="2.73518">
        <ele>851.38</ele>
        <time>2022-07-15T07:11:24Z</time>
      </trkpt>
      <trkpt lat="44.2317" lon="2.73507">
        <ele>851.87</ele>
        <time>2022-07-15T07:11:31Z</time>
      </trkpt>
      <trkpt lat="44.23163" lon="2.73499">
        <ele>851.38</ele>
        <time>2022-07-15T07:11:37Z</time>
      </trkpt>
      <trkpt lat="44.23155" lon="2.73489">
        <ele>851.38</ele>
        <time>2022-07-15T07:11:44Z</time>
      </trkpt>
      <trkpt lat="44.23147" lon="2.73479">
        <ele>850.9</ele>
        <time>2022-07-15T07:11:51Z</time>
      </trkpt>
      <trkpt lat="44.23139" lon="2.73469">
        <ele>850.42</ele>
        <time>2022-07-15T07:11:58Z</time>
      </trkpt>
      <trkpt lat="44.23131" lon="2.73461">
        <ele>849.94</ele>
        <time>2022-07-15T07:12:05Z</time>
      </trkpt>
      <trkpt lat="44.23123" lon="2.73453">
        <ele>849.46</ele>
        <time>2022-07-15T07:12:12Z</time>
      </trkpt>
      <trkpt lat="44.23114" lon="2.73446">
        <ele>848.5</ele>
        <time>2022-07-15T07:12:19Z</time>
      </trkpt>
      <trkpt lat="44.23107" lon="2.73438">
        <ele>847.54</ele>
        <time>2022-07-15T07:12:26Z</time>
      </trkpt>
      <trkpt lat="44.23097" lon="2.7343">
        <ele>845.62</ele>
        <time>2022-07-15T07:12:34Z</time>
      </trkpt>
      <trkpt lat="44.23089" lon="2.73424">
        <ele>845.14</ele>
        <time>2022-07-15T07:12:41Z</time>
      </trkpt>
      <trkpt lat="44.2308" lon="2.73418">
        <ele>844.18</ele>
        <time>2022-07-15T07:12:48Z</time>
      </trkpt>
      <trkpt lat="44.23071" lon="2.73411">
        <ele>842.25</ele>
        <time>2022-07-15T07:12:56Z</time>
      </trkpt>
      <trkpt lat="44.23062" lon="2.73402">
        <ele>839.85</ele>
        <time>2022-07-15T07:13:05Z</time>
      </trkpt>
      <trkpt lat="44.23052" lon="2.73394">
        <ele>838.41</ele>
        <time>2022-07-15T07:13:15Z</time>
      </trkpt>
      <trkpt lat="44.2304" lon="2.73386">
        <ele>836.96</ele>
        <time>2022-07-15T07:13:23Z</time>
      </trkpt>
      <trkpt lat="44.23029" lon="2.73377">
        <ele>836</ele>
        <time>2022-07-15T07:13:31Z</time>
      </trkpt>
      <trkpt lat="44.23019" lon="2.7337">
        <ele>834.08</ele>
        <time>2022-07-15T07:13:39Z</time>
      </trkpt>
      <trkpt lat="44.23009" lon="2.73361">
        <ele>833.12</ele>
        <time>2022-07-15T07:13:48Z</time>
      </trkpt>
      <trkpt lat="44.22998" lon="2.73352">
        <ele>832.16</ele>
        <time>2022-07-15T07:13:57Z</time>
      </trkpt>
      <trkpt lat="44.22987" lon="2.73345">
        <ele>832.64</ele>
        <time>2022-07-15T07:14:05Z</time>
      </trkpt>
      <trkpt lat="44.22976" lon="2.73337">
        <ele>832.64</ele>
        <time>2022-07-15T07:14:12Z</time>
      </trkpt>
      <trkpt lat="44.22971" lon="2.73324">
        <ele>833.6</ele>
        <time>2022-07-15T07:14:19Z</time>
      </trkpt>
      <trkpt lat="44.2297" lon="2.7331">
        <ele>832.64</ele>
        <time>2022-07-15T07:14:26Z</time>
      </trkpt>
      <trkpt lat="44.2297" lon="2.73296">
        <ele>831.2</ele>
        <time>2022-07-15T07:14:34Z</time>
      </trkpt>
      <trkpt lat="44.2297" lon="2.73281">
        <ele>829.76</ele>
        <time>2022-07-15T07:14:43Z</time>
      </trkpt>
      <trkpt lat="44.2297" lon="2.73266">
        <ele>826.87</ele>
        <time>2022-07-15T07:14:52Z</time>
      </trkpt>
      <trkpt lat="44.22969" lon="2.73249">
        <ele>825.43</ele>
        <time>2022-07-15T07:15:00Z</time>
      </trkpt>
      <trkpt lat="44.22968" lon="2.73234">
        <ele>825.43</ele>
        <time>2022-07-15T07:15:07Z</time>
      </trkpt>
      <trkpt lat="44.22968" lon="2.73218">
        <ele>825.91</ele>
        <time>2022-07-15T07:15:14Z</time>
      </trkpt>
      <trkpt lat="44.22967" lon="2.73202">
        <ele>826.39</ele>
        <time>2022-07-15T07:15:21Z</time>
      </trkpt>
      <trkpt lat="44.22966" lon="2.73187">
        <ele>825.91</ele>
        <time>2022-07-15T07:15:29Z</time>
      </trkpt>
      <trkpt lat="44.22966" lon="2.73173">
        <ele>825.43</ele>
        <time>2022-07-15T07:15:36Z</time>
      </trkpt>
      <trkpt lat="44.22965" lon="2.73158">
        <ele>824.95</ele>
        <time>2022-07-15T07:15:43Z</time>
      </trkpt>
      <trkpt lat="44.22965" lon="2.73142">
        <ele>823.03</ele>
        <time>2022-07-15T07:15:51Z</time>
      </trkpt>
      <trkpt lat="44.22965" lon="2.73127">
        <ele>821.58</ele>
        <time>2022-07-15T07:15:58Z</time>
      </trkpt>
      <trkpt lat="44.22964" lon="2.7311">
        <ele>821.1</ele>
        <time>2022-07-15T07:16:06Z</time>
      </trkpt>
      <trkpt lat="44.22964" lon="2.73094">
        <ele>820.62</ele>
        <time>2022-07-15T07:16:14Z</time>
      </trkpt>
      <trkpt lat="44.22963" lon="2.7308">
        <ele>821.1</ele>
        <time>2022-07-15T07:16:21Z</time>
      </trkpt>
      <trkpt lat="44.22962" lon="2.73065">
        <ele>821.58</ele>
        <time>2022-07-15T07:16:29Z</time>
      </trkpt>
      <trkpt lat="44.22961" lon="2.73049">
        <ele>821.1</ele>
        <time>2022-07-15T07:16:37Z</time>
      </trkpt>
      <trkpt lat="44.22959" lon="2.73033">
        <ele>821.1</ele>
        <time>2022-07-15T07:16:45Z</time>
      </trkpt>
      <trkpt lat="44.22955" lon="2.73018">
        <ele>819.18</ele>
        <time>2022-07-15T07:16:54Z</time>
      </trkpt>
      <trkpt lat="44.22952" lon="2.72996">
        <ele>819.66</ele>
        <time>2022-07-15T07:17:04Z</time>
      </trkpt>
      <trkpt lat="44.22949" lon="2.7298">
        <ele>821.1</ele>
        <time>2022-07-15T07:17:11Z</time>
      </trkpt>
      <trkpt lat="44.22946" lon="2.72965">
        <ele>820.62</ele>
        <time>2022-07-15T07:17:18Z</time>
      </trkpt>
      <trkpt lat="44.22944" lon="2.7295">
        <ele>820.14</ele>
        <time>2022-07-15T07:17:26Z</time>
      </trkpt>
      <trkpt lat="44.22943" lon="2.72933">
        <ele>819.18</ele>
        <time>2022-07-15T07:17:35Z</time>
      </trkpt>
      <trkpt lat="44.2294" lon="2.72917">
        <ele>819.18</ele>
        <time>2022-07-15T07:17:43Z</time>
      </trkpt>
      <trkpt lat="44.22937" lon="2.72901">
        <ele>819.18</ele>
        <time>2022-07-15T07:17:51Z</time>
      </trkpt>
      <trkpt lat="44.22934" lon="2.72885">
        <ele>819.18</ele>
        <time>2022-07-15T07:17:59Z</time>
      </trkpt>
      <trkpt lat="44.22931" lon="2.7287">
        <ele>819.18</ele>
        <time>2022-07-15T07:18:06Z</time>
      </trkpt>
      <trkpt lat="44.22928" lon="2.72855">
        <ele>818.7</ele>
        <time>2022-07-15T07:18:14Z</time>
      </trkpt>
      <trkpt lat="44.22924" lon="2.72839">
        <ele>818.22</ele>
        <time>2022-07-15T07:18:21Z</time>
      </trkpt>
      <trkpt lat="44.22923" lon="2.72825">
        <ele>817.26</ele>
        <time>2022-07-15T07:18:28Z</time>
      </trkpt>
      <trkpt lat="44.22921" lon="2.7281">
        <ele>816.78</ele>
        <time>2022-07-15T07:18:35Z</time>
      </trkpt>
      <trkpt lat="44.2292" lon="2.72796">
        <ele>815.82</ele>
        <time>2022-07-15T07:18:42Z</time>
      </trkpt>
      <trkpt lat="44.22918" lon="2.72781">
        <ele>815.82</ele>
        <time>2022-07-15T07:18:49Z</time>
      </trkpt>
      <trkpt lat="44.22917" lon="2.72767">
        <ele>815.34</ele>
        <time>2022-07-15T07:18:56Z</time>
      </trkpt>
      <trkpt lat="44.22915" lon="2.72753">
        <ele>814.85</ele>
        <time>2022-07-15T07:19:03Z</time>
      </trkpt>
      <trkpt lat="44.22914" lon="2.72739">
        <ele>813.41</ele>
        <time>2022-07-15T07:19:11Z</time>
      </trkpt>
      <trkpt lat="44.22913" lon="2.72723">
        <ele>811.49</ele>
        <time>2022-07-15T07:19:19Z</time>
      </trkpt>
      <trkpt lat="44.22912" lon="2.72706">
        <ele>810.53</ele>
        <time>2022-07-15T07:19:27Z</time>
      </trkpt>
      <trkpt lat="44.22909" lon="2.72691">
        <ele>810.05</ele>
        <time>2022-07-15T07:19:34Z</time>
      </trkpt>
      <trkpt lat="44.22905" lon="2.72676">
        <ele>810.53</ele>
        <time>2022-07-15T07:19:41Z</time>
      </trkpt>
      <trkpt lat="44.229" lon="2.72661">
        <ele>811.97</ele>
        <time>2022-07-15T07:19:48Z</time>
      </trkpt>
      <trkpt lat="44.22895" lon="2.72647">
        <ele>813.89</ele>
        <time>2022-07-15T07:19:55Z</time>
      </trkpt>
      <trkpt lat="44.22892" lon="2.72632">
        <ele>815.82</ele>
        <time>2022-07-15T07:20:02Z</time>
      </trkpt>
      <trkpt lat="44.2289" lon="2.72617">
        <ele>816.78</ele>
        <time>2022-07-15T07:20:09Z</time>
      </trkpt>
      <trkpt lat="44.22892" lon="2.72603">
        <ele>818.22</ele>
        <time>2022-07-15T07:20:15Z</time>
      </trkpt>
      <trkpt lat="44.22897" lon="2.72588">
        <ele>820.62</ele>
        <time>2022-07-15T07:20:23Z</time>
      </trkpt>
      <trkpt lat="44.22905" lon="2.72579">
        <ele>823.99</ele>
        <time>2022-07-15T07:20:30Z</time>
      </trkpt>
      <trkpt lat="44.22915" lon="2.72569">
        <ele>825.43</ele>
        <time>2022-07-15T07:20:39Z</time>
      </trkpt>
      <trkpt lat="44.22925" lon="2.7256">
        <ele>825.91</ele>
        <time>2022-07-15T07:20:47Z</time>
      </trkpt>
      <trkpt lat="44.22933" lon="2.7255">
        <ele>825.43</ele>
        <time>2022-07-15T07:20:55Z</time>
      </trkpt>
      <trkpt lat="44.22939" lon="2.72537">
        <ele>824.47</ele>
        <time>2022-07-15T07:21:04Z</time>
      </trkpt>
      <trkpt lat="44.22942" lon="2.72523">
        <ele>823.99</ele>
        <time>2022-07-15T07:21:11Z</time>
      </trkpt>
      <trkpt lat="44.22944" lon="2.72509">
        <ele>823.99</ele>
        <time>2022-07-15T07:21:18Z</time>
      </trkpt>
      <trkpt lat="44.22944" lon="2.72493">
        <ele>825.43</ele>
        <time>2022-07-15T07:21:25Z</time>
      </trkpt>
      <trkpt lat="44.22944" lon="2.72476">
        <ele>825.91</ele>
        <time>2022-07-15T07:21:33Z</time>
      </trkpt>
      <trkpt lat="44.22942" lon="2.72462">
        <ele>826.87</ele>
        <time>2022-07-15T07:21:40Z</time>
      </trkpt>
      <trkpt lat="44.22938" lon="2.72448">
        <ele>827.35</ele>
        <time>2022-07-15T07:21:47Z</time>
      </trkpt>
      <trkpt lat="44.22933" lon="2.72435">
        <ele>828.31</ele>
        <time>2022-07-15T07:21:54Z</time>
      </trkpt>
      <trkpt lat="44.22929" lon="2.72421">
        <ele>828.79</ele>
        <time>2022-07-15T07:22:00Z</time>
      </trkpt>
      <trkpt lat="44.22925" lon="2.72408">
        <ele>828.79</ele>
        <time>2022-07-15T07:22:06Z</time>
      </trkpt>
      <trkpt lat="44.22921" lon="2.72395">
        <ele>828.79</ele>
        <time>2022-07-15T07:22:13Z</time>
      </trkpt>
      <trkpt lat="44.22916" lon="2.7238">
        <ele>826.39</ele>
        <time>2022-07-15T07:22:22Z</time>
      </trkpt>
      <trkpt lat="44.22912" lon="2.72364">
        <ele>821.1</ele>
        <time>2022-07-15T07:22:32Z</time>
      </trkpt>
      <trkpt lat="44.22907" lon="2.72347">
        <ele>814.85</ele>
        <time>2022-07-15T07:22:42Z</time>
      </trkpt>
      <trkpt lat="44.22899" lon="2.72328">
        <ele>809.57</ele>
        <time>2022-07-15T07:22:54Z</time>
      </trkpt>
      <trkpt lat="44.22893" lon="2.72307">
        <ele>806.2</ele>
        <time>2022-07-15T07:23:04Z</time>
      </trkpt>
      <trkpt lat="44.22887" lon="2.72285">
        <ele>805.24</ele>
        <time>2022-07-15T07:23:14Z</time>
      </trkpt>
      <trkpt lat="44.22881" lon="2.72265">
        <ele>806.2</ele>
        <time>2022-07-15T07:23:23Z</time>
      </trkpt>
      <trkpt lat="44.22874" lon="2.72247">
        <ele>808.13</ele>
        <time>2022-07-15T07:23:32Z</time>
      </trkpt>
      <trkpt lat="44.22868" lon="2.72232">
        <ele>810.05</ele>
        <time>2022-07-15T07:23:41Z</time>
      </trkpt>
      <trkpt lat="44.22861" lon="2.72216">
        <ele>811.49</ele>
        <time>2022-07-15T07:23:49Z</time>
      </trkpt>
      <trkpt lat="44.22853" lon="2.722">
        <ele>811.97</ele>
        <time>2022-07-15T07:23:57Z</time>
      </trkpt>
      <trkpt lat="44.22847" lon="2.72185">
        <ele>813.41</ele>
        <time>2022-07-15T07:24:04Z</time>
      </trkpt>
      <trkpt lat="44.22841" lon="2.72171">
        <ele>814.37</ele>
        <time>2022-07-15T07:24:11Z</time>
      </trkpt>
      <trkpt lat="44.22835" lon="2.72157">
        <ele>813.89</ele>
        <time>2022-07-15T07:24:19Z</time>
      </trkpt>
      <trkpt lat="44.22828" lon="2.72141">
        <ele>813.41</ele>
        <time>2022-07-15T07:24:27Z</time>
      </trkpt>
      <trkpt lat="44.22822" lon="2.72126">
        <ele>812.93</ele>
        <time>2022-07-15T07:24:35Z</time>
      </trkpt>
      <trkpt lat="44.22815" lon="2.7211">
        <ele>811.49</ele>
        <time>2022-07-15T07:24:44Z</time>
      </trkpt>
      <trkpt lat="44.2281" lon="2.72093">
        <ele>809.09</ele>
        <time>2022-07-15T07:24:53Z</time>
      </trkpt>
      <trkpt lat="44.22804" lon="2.72052">
        <ele>797.07</ele>
        <time>2022-07-15T07:25:18Z</time>
      </trkpt>
      <trkpt lat="44.228" lon="2.72028">
        <ele>799.47</ele>
        <time>2022-07-15T07:25:26Z</time>
      </trkpt>
      <trkpt lat="44.22796" lon="2.72012">
        <ele>802.36</ele>
        <time>2022-07-15T07:25:33Z</time>
      </trkpt>
      <trkpt lat="44.22792" lon="2.72">
        <ele>802.84</ele>
        <time>2022-07-15T07:25:40Z</time>
      </trkpt>
      <trkpt lat="44.22789" lon="2.71984">
        <ele>802.84</ele>
        <time>2022-07-15T07:25:48Z</time>
      </trkpt>
      <trkpt lat="44.22783" lon="2.71957">
        <ele>811.97</ele>
        <time>2022-07-15T07:26:02Z</time>
      </trkpt>
      <trkpt lat="44.22778" lon="2.71938">
        <ele>815.34</ele>
        <time>2022-07-15T07:26:16Z</time>
      </trkpt>
      <trkpt lat="44.22774" lon="2.71918">
        <ele>817.74</ele>
        <time>2022-07-15T07:26:24Z</time>
      </trkpt>
      <trkpt lat="44.22771" lon="2.719">
        <ele>821.58</ele>
        <time>2022-07-15T07:26:32Z</time>
      </trkpt>
      <trkpt lat="44.22769" lon="2.71875">
        <ele>831.68</ele>
        <time>2022-07-15T07:30:10Z</time>
      </trkpt>
      <trkpt lat="44.22769" lon="2.7186">
        <ele>831.68</ele>
        <time>2022-07-15T07:30:22Z</time>
      </trkpt>
      <trkpt lat="44.22769" lon="2.71844">
        <ele>831.68</ele>
        <time>2022-07-15T07:30:29Z</time>
      </trkpt>
      <trkpt lat="44.2277" lon="2.71829">
        <ele>831.68</ele>
        <time>2022-07-15T07:30:36Z</time>
      </trkpt>
      <trkpt lat="44.22771" lon="2.71815">
        <ele>831.68</ele>
        <time>2022-07-15T07:30:43Z</time>
      </trkpt>
      <trkpt lat="44.22771" lon="2.718">
        <ele>832.16</ele>
        <time>2022-07-15T07:30:50Z</time>
      </trkpt>
      <trkpt lat="44.22772" lon="2.71785">
        <ele>832.16</ele>
        <time>2022-07-15T07:30:57Z</time>
      </trkpt>
      <trkpt lat="44.22773" lon="2.7177">
        <ele>832.16</ele>
        <time>2022-07-15T07:31:04Z</time>
      </trkpt>
      <trkpt lat="44.22773" lon="2.71755">
        <ele>832.16</ele>
        <time>2022-07-15T07:31:11Z</time>
      </trkpt>
      <trkpt lat="44.22774" lon="2.71742">
        <ele>832.16</ele>
        <time>2022-07-15T07:31:17Z</time>
      </trkpt>
      <trkpt lat="44.22775" lon="2.71727">
        <ele>832.16</ele>
        <time>2022-07-15T07:31:24Z</time>
      </trkpt>
      <trkpt lat="44.22776" lon="2.71713">
        <ele>832.16</ele>
        <time>2022-07-15T07:31:31Z</time>
      </trkpt>
      <trkpt lat="44.22776" lon="2.71699">
        <ele>832.16</ele>
        <time>2022-07-15T07:31:38Z</time>
      </trkpt>
      <trkpt lat="44.22775" lon="2.71683">
        <ele>831.68</ele>
        <time>2022-07-15T07:31:45Z</time>
      </trkpt>
      <trkpt lat="44.22773" lon="2.71671">
        <ele>832.16</ele>
        <time>2022-07-15T07:31:51Z</time>
      </trkpt>
      <trkpt lat="44.22771" lon="2.71657">
        <ele>832.64</ele>
        <time>2022-07-15T07:31:58Z</time>
      </trkpt>
      <trkpt lat="44.22769" lon="2.71644">
        <ele>833.12</ele>
        <time>2022-07-15T07:32:04Z</time>
      </trkpt>
      <trkpt lat="44.22767" lon="2.71629">
        <ele>834.08</ele>
        <time>2022-07-15T07:32:11Z</time>
      </trkpt>
      <trkpt lat="44.22764" lon="2.71615">
        <ele>835.04</ele>
        <time>2022-07-15T07:32:18Z</time>
      </trkpt>
      <trkpt lat="44.22762" lon="2.716">
        <ele>835.52</ele>
        <time>2022-07-15T07:32:25Z</time>
      </trkpt>
      <trkpt lat="44.2276" lon="2.71586">
        <ele>835.52</ele>
        <time>2022-07-15T07:32:32Z</time>
      </trkpt>
      <trkpt lat="44.22757" lon="2.71571">
        <ele>836</ele>
        <time>2022-07-15T07:32:39Z</time>
      </trkpt>
      <trkpt lat="44.22755" lon="2.71556">
        <ele>836.48</ele>
        <time>2022-07-15T07:32:46Z</time>
      </trkpt>
      <trkpt lat="44.22752" lon="2.71542">
        <ele>836.96</ele>
        <time>2022-07-15T07:32:53Z</time>
      </trkpt>
      <trkpt lat="44.2275" lon="2.71527">
        <ele>837.45</ele>
        <time>2022-07-15T07:33:00Z</time>
      </trkpt>
      <trkpt lat="44.22747" lon="2.71514">
        <ele>837.93</ele>
        <time>2022-07-15T07:33:07Z</time>
      </trkpt>
      <trkpt lat="44.22747" lon="2.715">
        <ele>833.6</ele>
        <time>2022-07-15T07:33:17Z</time>
      </trkpt>
      <trkpt lat="44.22745" lon="2.71483">
        <ele>826.39</ele>
        <time>2022-07-15T07:33:27Z</time>
      </trkpt>
      <trkpt lat="44.22743" lon="2.71464">
        <ele>821.58</ele>
        <time>2022-07-15T07:33:37Z</time>
      </trkpt>
      <trkpt lat="44.22741" lon="2.71445">
        <ele>820.62</ele>
        <time>2022-07-15T07:33:46Z</time>
      </trkpt>
      <trkpt lat="44.22734" lon="2.71429">
        <ele>821.58</ele>
        <time>2022-07-15T07:33:54Z</time>
      </trkpt>
      <trkpt lat="44.22727" lon="2.71414">
        <ele>822.55</ele>
        <time>2022-07-15T07:34:01Z</time>
      </trkpt>
      <trkpt lat="44.22722" lon="2.714">
        <ele>823.99</ele>
        <time>2022-07-15T07:34:07Z</time>
      </trkpt>
      <trkpt lat="44.22717" lon="2.71384">
        <ele>826.39</ele>
        <time>2022-07-15T07:34:14Z</time>
      </trkpt>
      <trkpt lat="44.22712" lon="2.71371">
        <ele>828.31</ele>
        <time>2022-07-15T07:34:20Z</time>
      </trkpt>
      <trkpt lat="44.22707" lon="2.71357">
        <ele>830.72</ele>
        <time>2022-07-15T07:34:27Z</time>
      </trkpt>
      <trkpt lat="44.22703" lon="2.71344">
        <ele>832.16</ele>
        <time>2022-07-15T07:34:34Z</time>
      </trkpt>
      <trkpt lat="44.22698" lon="2.71332">
        <ele>832.16</ele>
        <time>2022-07-15T07:34:40Z</time>
      </trkpt>
      <trkpt lat="44.22694" lon="2.71319">
        <ele>832.64</ele>
        <time>2022-07-15T07:34:46Z</time>
      </trkpt>
      <trkpt lat="44.22691" lon="2.71306">
        <ele>832.64</ele>
        <time>2022-07-15T07:34:52Z</time>
      </trkpt>
      <trkpt lat="44.22687" lon="2.71294">
        <ele>832.64</ele>
        <time>2022-07-15T07:34:58Z</time>
      </trkpt>
      <trkpt lat="44.22682" lon="2.7128">
        <ele>833.12</ele>
        <time>2022-07-15T07:35:05Z</time>
      </trkpt>
      <trkpt lat="44.22678" lon="2.71268">
        <ele>833.12</ele>
        <time>2022-07-15T07:35:11Z</time>
      </trkpt>
      <trkpt lat="44.22674" lon="2.71254">
        <ele>833.12</ele>
        <time>2022-07-15T07:35:18Z</time>
      </trkpt>
      <trkpt lat="44.22669" lon="2.7124">
        <ele>833.6</ele>
        <time>2022-07-15T07:35:25Z</time>
      </trkpt>
      <trkpt lat="44.2266" lon="2.71238">
        <ele>834.08</ele>
        <time>2022-07-15T07:35:32Z</time>
      </trkpt>
      <trkpt lat="44.2265" lon="2.71242">
        <ele>835.04</ele>
        <time>2022-07-15T07:35:39Z</time>
      </trkpt>
      <trkpt lat="44.22642" lon="2.71247">
        <ele>835.52</ele>
        <time>2022-07-15T07:35:45Z</time>
      </trkpt>
      <trkpt lat="44.22633" lon="2.71252">
        <ele>835.52</ele>
        <time>2022-07-15T07:35:51Z</time>
      </trkpt>
      <trkpt lat="44.22623" lon="2.71257">
        <ele>836</ele>
        <time>2022-07-15T07:35:58Z</time>
      </trkpt>
      <trkpt lat="44.22615" lon="2.71261">
        <ele>836.48</ele>
        <time>2022-07-15T07:36:04Z</time>
      </trkpt>
      <trkpt lat="44.22605" lon="2.71266">
        <ele>836.48</ele>
        <time>2022-07-15T07:36:11Z</time>
      </trkpt>
      <trkpt lat="44.22596" lon="2.71271">
        <ele>836</ele>
        <time>2022-07-15T07:36:18Z</time>
      </trkpt>
      <trkpt lat="44.22587" lon="2.71275">
        <ele>835.52</ele>
        <time>2022-07-15T07:36:24Z</time>
      </trkpt>
      <trkpt lat="44.22578" lon="2.7128">
        <ele>835.52</ele>
        <time>2022-07-15T07:36:31Z</time>
      </trkpt>
      <trkpt lat="44.22568" lon="2.71284">
        <ele>836</ele>
        <time>2022-07-15T07:36:38Z</time>
      </trkpt>
      <trkpt lat="44.22558" lon="2.71289">
        <ele>836.96</ele>
        <time>2022-07-15T07:36:45Z</time>
      </trkpt>
      <trkpt lat="44.22549" lon="2.71293">
        <ele>836.48</ele>
        <time>2022-07-15T07:36:52Z</time>
      </trkpt>
      <trkpt lat="44.22539" lon="2.71298">
        <ele>836</ele>
        <time>2022-07-15T07:36:59Z</time>
      </trkpt>
      <trkpt lat="44.2253" lon="2.71302">
        <ele>835.52</ele>
        <time>2022-07-15T07:37:05Z</time>
      </trkpt>
      <trkpt lat="44.22521" lon="2.71307">
        <ele>835.04</ele>
        <time>2022-07-15T07:37:11Z</time>
      </trkpt>
      <trkpt lat="44.22511" lon="2.71312">
        <ele>834.56</ele>
        <time>2022-07-15T07:37:18Z</time>
      </trkpt>
      <trkpt lat="44.22502" lon="2.71318">
        <ele>833.6</ele>
        <time>2022-07-15T07:37:25Z</time>
      </trkpt>
      <trkpt lat="44.22493" lon="2.71322">
        <ele>833.6</ele>
        <time>2022-07-15T07:37:32Z</time>
      </trkpt>
      <trkpt lat="44.22483" lon="2.71326">
        <ele>833.6</ele>
        <time>2022-07-15T07:37:39Z</time>
      </trkpt>
      <trkpt lat="44.22473" lon="2.71332">
        <ele>834.08</ele>
        <time>2022-07-15T07:37:46Z</time>
      </trkpt>
      <trkpt lat="44.22464" lon="2.71336">
        <ele>834.08</ele>
        <time>2022-07-15T07:37:52Z</time>
      </trkpt>
      <trkpt lat="44.22455" lon="2.7134">
        <ele>833.6</ele>
        <time>2022-07-15T07:37:58Z</time>
      </trkpt>
      <trkpt lat="44.22446" lon="2.71345">
        <ele>833.6</ele>
        <time>2022-07-15T07:38:04Z</time>
      </trkpt>
      <trkpt lat="44.22436" lon="2.7135">
        <ele>832.64</ele>
        <time>2022-07-15T07:38:11Z</time>
      </trkpt>
      <trkpt lat="44.22426" lon="2.71355">
        <ele>832.16</ele>
        <time>2022-07-15T07:38:18Z</time>
      </trkpt>
      <trkpt lat="44.22416" lon="2.7136">
        <ele>831.2</ele>
        <time>2022-07-15T07:38:25Z</time>
      </trkpt>
      <trkpt lat="44.22407" lon="2.71364">
        <ele>830.72</ele>
        <time>2022-07-15T07:38:32Z</time>
      </trkpt>
      <trkpt lat="44.22397" lon="2.7137">
        <ele>830.24</ele>
        <time>2022-07-15T07:38:39Z</time>
      </trkpt>
      <trkpt lat="44.22391" lon="2.7138">
        <ele>829.76</ele>
        <time>2022-07-15T07:38:46Z</time>
      </trkpt>
      <trkpt lat="44.22385" lon="2.7139">
        <ele>829.27</ele>
        <time>2022-07-15T07:38:54Z</time>
      </trkpt>
      <trkpt lat="44.22375" lon="2.71384">
        <ele>825.43</ele>
        <time>2022-07-15T07:39:03Z</time>
      </trkpt>
      <trkpt lat="44.22361" lon="2.71373">
        <ele>820.14</ele>
        <time>2022-07-15T07:39:17Z</time>
      </trkpt>
      <trkpt lat="44.22341" lon="2.7138">
        <ele>815.82</ele>
        <time>2022-07-15T07:39:31Z</time>
      </trkpt>
      <trkpt lat="44.22321" lon="2.71393">
        <ele>812.93</ele>
        <time>2022-07-15T07:39:47Z</time>
      </trkpt>
      <trkpt lat="44.22308" lon="2.71402">
        <ele>813.41</ele>
        <time>2022-07-15T07:39:56Z</time>
      </trkpt>
      <trkpt lat="44.2229" lon="2.71413">
        <ele>811.97</ele>
        <time>2022-07-15T07:40:10Z</time>
      </trkpt>
      <trkpt lat="44.22272" lon="2.71419">
        <ele>813.41</ele>
        <time>2022-07-15T07:40:19Z</time>
      </trkpt>
      <trkpt lat="44.22258" lon="2.71424">
        <ele>812.93</ele>
        <time>2022-07-15T07:40:27Z</time>
      </trkpt>
      <trkpt lat="44.22246" lon="2.71429">
        <ele>813.89</ele>
        <time>2022-07-15T07:40:34Z</time>
      </trkpt>
      <trkpt lat="44.22234" lon="2.71433">
        <ele>812.93</ele>
        <time>2022-07-15T07:40:42Z</time>
      </trkpt>
      <trkpt lat="44.22222" lon="2.71439">
        <ele>811.49</ele>
        <time>2022-07-15T07:40:50Z</time>
      </trkpt>
      <trkpt lat="44.22211" lon="2.7144">
        <ele>808.61</ele>
        <time>2022-07-15T07:40:58Z</time>
      </trkpt>
      <trkpt lat="44.22195" lon="2.71443">
        <ele>805.24</ele>
        <time>2022-07-15T07:41:09Z</time>
      </trkpt>
      <trkpt lat="44.22182" lon="2.71393">
        <ele>797.07</ele>
        <time>2022-07-15T07:41:40Z</time>
      </trkpt>
      <trkpt lat="44.22177" lon="2.71366">
        <ele>801.4</ele>
        <time>2022-07-15T07:41:53Z</time>
      </trkpt>
      <trkpt lat="44.22169" lon="2.71338">
        <ele>802.84</ele>
        <time>2022-07-15T07:42:19Z</time>
      </trkpt>
      <trkpt lat="44.22158" lon="2.71309">
        <ele>807.64</ele>
        <time>2022-07-15T07:42:36Z</time>
      </trkpt>
      <trkpt lat="44.22154" lon="2.71284">
        <ele>808.61</ele>
        <time>2022-07-15T07:42:48Z</time>
      </trkpt>
      <trkpt lat="44.22144" lon="2.71247">
        <ele>810.05</ele>
        <time>2022-07-15T07:43:04Z</time>
      </trkpt>
      <trkpt lat="44.2214" lon="2.71216">
        <ele>810.05</ele>
        <time>2022-07-15T07:43:18Z</time>
      </trkpt>
      <trkpt lat="44.22137" lon="2.71196">
        <ele>814.37</ele>
        <time>2022-07-15T07:43:27Z</time>
      </trkpt>
      <trkpt lat="44.22136" lon="2.71176">
        <ele>814.37</ele>
        <time>2022-07-15T07:43:38Z</time>
      </trkpt>
      <trkpt lat="44.22139" lon="2.71158">
        <ele>814.37</ele>
        <time>2022-07-15T07:43:46Z</time>
      </trkpt>
      <trkpt lat="44.22139" lon="2.71141">
        <ele>815.34</ele>
        <time>2022-07-15T07:43:54Z</time>
      </trkpt>
      <trkpt lat="44.22137" lon="2.7109">
        <ele>814.37</ele>
        <time>2022-07-15T07:44:19Z</time>
      </trkpt>
      <trkpt lat="44.2213" lon="2.71072">
        <ele>812.93</ele>
        <time>2022-07-15T07:44:29Z</time>
      </trkpt>
      <trkpt lat="44.22124" lon="2.71057">
        <ele>811.97</ele>
        <time>2022-07-15T07:44:38Z</time>
      </trkpt>
      <trkpt lat="44.22114" lon="2.71042">
        <ele>812.93</ele>
        <time>2022-07-15T07:44:49Z</time>
      </trkpt>
      <trkpt lat="44.22104" lon="2.71032">
        <ele>814.37</ele>
        <time>2022-07-15T07:44:58Z</time>
      </trkpt>
      <trkpt lat="44.22087" lon="2.71011">
        <ele>814.37</ele>
        <time>2022-07-15T07:45:44Z</time>
      </trkpt>
      <trkpt lat="44.22079" lon="2.71016">
        <ele>814.85</ele>
        <time>2022-07-15T07:46:11Z</time>
      </trkpt>
      <trkpt lat="44.22072" lon="2.71022">
        <ele>811.97</ele>
        <time>2022-07-15T07:46:26Z</time>
      </trkpt>
      <trkpt lat="44.2206" lon="2.71022">
        <ele>809.57</ele>
        <time>2022-07-15T07:46:36Z</time>
      </trkpt>
      <trkpt lat="44.2205" lon="2.71028">
        <ele>805.24</ele>
        <time>2022-07-15T07:46:46Z</time>
      </trkpt>
      <trkpt lat="44.22038" lon="2.7103">
        <ele>811.01</ele>
        <time>2022-07-15T08:06:02Z</time>
      </trkpt>
      <trkpt lat="44.22023" lon="2.70987">
        <ele>807.16</ele>
        <time>2022-07-15T08:06:54Z</time>
      </trkpt>
      <trkpt lat="44.21982" lon="2.70996">
        <ele>811.01</ele>
        <time>2022-07-15T08:07:49Z</time>
      </trkpt>
      <trkpt lat="44.21977" lon="2.71014">
        <ele>814.85</ele>
        <time>2022-07-15T08:07:59Z</time>
      </trkpt>
      <trkpt lat="44.21967" lon="2.71031">
        <ele>814.37</ele>
        <time>2022-07-15T08:08:11Z</time>
      </trkpt>
      <trkpt lat="44.21948" lon="2.7104">
        <ele>808.13</ele>
        <time>2022-07-15T08:08:32Z</time>
      </trkpt>
      <trkpt lat="44.21916" lon="2.71068">
        <ele>788.42</ele>
        <time>2022-07-15T08:09:08Z</time>
      </trkpt>
      <trkpt lat="44.219" lon="2.71101">
        <ele>788.9</ele>
        <time>2022-07-15T08:09:27Z</time>
      </trkpt>
      <trkpt lat="44.21874" lon="2.71125">
        <ele>797.07</ele>
        <time>2022-07-15T08:09:51Z</time>
      </trkpt>
      <trkpt lat="44.21813" lon="2.71107">
        <ele>811.49</ele>
        <time>2022-07-15T08:10:42Z</time>
      </trkpt>
      <trkpt lat="44.21724" lon="2.7108">
        <ele>809.09</ele>
        <time>2022-07-15T08:11:52Z</time>
      </trkpt>
      <trkpt lat="44.21701" lon="2.71078">
        <ele>807.64</ele>
        <time>2022-07-15T08:12:06Z</time>
      </trkpt>
      <trkpt lat="44.2168" lon="2.71077">
        <ele>810.05</ele>
        <time>2022-07-15T08:12:22Z</time>
      </trkpt>
      <trkpt lat="44.21652" lon="2.71077">
        <ele>820.62</ele>
        <time>2022-07-15T08:12:37Z</time>
      </trkpt>
      <trkpt lat="44.21614" lon="2.71086">
        <ele>824.95</ele>
        <time>2022-07-15T08:13:09Z</time>
      </trkpt>
      <trkpt lat="44.21599" lon="2.71089">
        <ele>830.24</ele>
        <time>2022-07-15T08:13:36Z</time>
      </trkpt>
      <trkpt lat="44.21588" lon="2.71089">
        <ele>830.72</ele>
        <time>2022-07-15T08:13:45Z</time>
      </trkpt>
      <trkpt lat="44.21574" lon="2.71087">
        <ele>830.72</ele>
        <time>2022-07-15T08:13:53Z</time>
      </trkpt>
      <trkpt lat="44.21563" lon="2.71086">
        <ele>828.31</ele>
        <time>2022-07-15T08:14:01Z</time>
      </trkpt>
      <trkpt lat="44.21552" lon="2.71084">
        <ele>827.35</ele>
        <time>2022-07-15T08:14:09Z</time>
      </trkpt>
      <trkpt lat="44.21541" lon="2.71084">
        <ele>825.43</ele>
        <time>2022-07-15T08:14:17Z</time>
      </trkpt>
      <trkpt lat="44.2153" lon="2.71088">
        <ele>824.95</ele>
        <time>2022-07-15T08:14:25Z</time>
      </trkpt>
      <trkpt lat="44.21518" lon="2.71085">
        <ele>823.03</ele>
        <time>2022-07-15T08:14:34Z</time>
      </trkpt>
      <trkpt lat="44.21509" lon="2.7108">
        <ele>821.58</ele>
        <time>2022-07-15T08:14:42Z</time>
      </trkpt>
      <trkpt lat="44.21498" lon="2.71076">
        <ele>819.18</ele>
        <time>2022-07-15T08:14:50Z</time>
      </trkpt>
      <trkpt lat="44.21487" lon="2.71078">
        <ele>819.18</ele>
        <time>2022-07-15T08:14:57Z</time>
      </trkpt>
      <trkpt lat="44.21478" lon="2.71085">
        <ele>819.18</ele>
        <time>2022-07-15T08:15:03Z</time>
      </trkpt>
      <trkpt lat="44.2147" lon="2.71094">
        <ele>819.66</ele>
        <time>2022-07-15T08:15:10Z</time>
      </trkpt>
      <trkpt lat="44.21462" lon="2.71105">
        <ele>819.66</ele>
        <time>2022-07-15T08:15:17Z</time>
      </trkpt>
      <trkpt lat="44.21455" lon="2.71115">
        <ele>820.14</ele>
        <time>2022-07-15T08:15:24Z</time>
      </trkpt>
      <trkpt lat="44.21447" lon="2.71124">
        <ele>820.62</ele>
        <time>2022-07-15T08:15:31Z</time>
      </trkpt>
      <trkpt lat="44.2144" lon="2.71133">
        <ele>820.62</ele>
        <time>2022-07-15T08:15:38Z</time>
      </trkpt>
      <trkpt lat="44.21432" lon="2.71141">
        <ele>819.18</ele>
        <time>2022-07-15T08:15:46Z</time>
      </trkpt>
      <trkpt lat="44.21421" lon="2.71151">
        <ele>818.22</ele>
        <time>2022-07-15T08:15:58Z</time>
      </trkpt>
      <trkpt lat="44.21408" lon="2.71158">
        <ele>815.82</ele>
        <time>2022-07-15T08:16:09Z</time>
      </trkpt>
      <trkpt lat="44.21395" lon="2.71162">
        <ele>813.41</ele>
        <time>2022-07-15T08:16:20Z</time>
      </trkpt>
      <trkpt lat="44.21383" lon="2.71167">
        <ele>811.01</ele>
        <time>2022-07-15T08:16:29Z</time>
      </trkpt>
      <trkpt lat="44.21369" lon="2.71173">
        <ele>809.09</ele>
        <time>2022-07-15T08:16:39Z</time>
      </trkpt>
      <trkpt lat="44.21358" lon="2.71179">
        <ele>809.09</ele>
        <time>2022-07-15T08:16:48Z</time>
      </trkpt>
      <trkpt lat="44.21335" lon="2.7118">
        <ele>811.97</ele>
        <time>2022-07-15T08:17:17Z</time>
      </trkpt>
      <trkpt lat="44.21324" lon="2.71176">
        <ele>811.01</ele>
        <time>2022-07-15T08:17:26Z</time>
      </trkpt>
      <trkpt lat="44.21314" lon="2.71167">
        <ele>809.57</ele>
        <time>2022-07-15T08:17:35Z</time>
      </trkpt>
      <trkpt lat="44.21301" lon="2.7116">
        <ele>808.61</ele>
        <time>2022-07-15T08:17:51Z</time>
      </trkpt>
      <trkpt lat="44.21291" lon="2.71151">
        <ele>806.68</ele>
        <time>2022-07-15T08:18:01Z</time>
      </trkpt>
      <trkpt lat="44.21281" lon="2.71145">
        <ele>804.28</ele>
        <time>2022-07-15T08:18:12Z</time>
      </trkpt>
      <trkpt lat="44.2127" lon="2.71143">
        <ele>804.76</ele>
        <time>2022-07-15T08:18:20Z</time>
      </trkpt>
      <trkpt lat="44.2126" lon="2.71142">
        <ele>805.72</ele>
        <time>2022-07-15T08:18:28Z</time>
      </trkpt>
      <trkpt lat="44.21244" lon="2.71148">
        <ele>807.16</ele>
        <time>2022-07-15T08:19:38Z</time>
      </trkpt>
      <trkpt lat="44.21234" lon="2.71149">
        <ele>807.16</ele>
        <time>2022-07-15T08:19:47Z</time>
      </trkpt>
      <trkpt lat="44.21223" lon="2.71151">
        <ele>807.16</ele>
        <time>2022-07-15T08:19:55Z</time>
      </trkpt>
      <trkpt lat="44.21214" lon="2.71152">
        <ele>807.16</ele>
        <time>2022-07-15T08:20:01Z</time>
      </trkpt>
      <trkpt lat="44.21204" lon="2.71152">
        <ele>807.16</ele>
        <time>2022-07-15T08:20:08Z</time>
      </trkpt>
      <trkpt lat="44.21194" lon="2.7115">
        <ele>807.64</ele>
        <time>2022-07-15T08:20:15Z</time>
      </trkpt>
      <trkpt lat="44.21184" lon="2.71145">
        <ele>807.64</ele>
        <time>2022-07-15T08:20:22Z</time>
      </trkpt>
      <trkpt lat="44.21174" lon="2.71139">
        <ele>807.64</ele>
        <time>2022-07-15T08:20:29Z</time>
      </trkpt>
      <trkpt lat="44.21166" lon="2.71133">
        <ele>807.64</ele>
        <time>2022-07-15T08:20:35Z</time>
      </trkpt>
      <trkpt lat="44.21158" lon="2.71125">
        <ele>807.64</ele>
        <time>2022-07-15T08:20:41Z</time>
      </trkpt>
      <trkpt lat="44.21151" lon="2.71117">
        <ele>807.64</ele>
        <time>2022-07-15T08:20:47Z</time>
      </trkpt>
      <trkpt lat="44.21144" lon="2.71105">
        <ele>807.64</ele>
        <time>2022-07-15T08:20:54Z</time>
      </trkpt>
      <trkpt lat="44.21138" lon="2.71094">
        <ele>807.16</ele>
        <time>2022-07-15T08:21:01Z</time>
      </trkpt>
      <trkpt lat="44.21132" lon="2.7108">
        <ele>806.68</ele>
        <time>2022-07-15T08:21:08Z</time>
      </trkpt>
      <trkpt lat="44.21129" lon="2.71068">
        <ele>805.72</ele>
        <time>2022-07-15T08:21:15Z</time>
      </trkpt>
      <trkpt lat="44.21126" lon="2.71054">
        <ele>804.76</ele>
        <time>2022-07-15T08:21:22Z</time>
      </trkpt>
      <trkpt lat="44.21125" lon="2.7104">
        <ele>803.32</ele>
        <time>2022-07-15T08:21:29Z</time>
      </trkpt>
      <trkpt lat="44.21126" lon="2.71025">
        <ele>802.84</ele>
        <time>2022-07-15T08:21:37Z</time>
      </trkpt>
      <trkpt lat="44.2113" lon="2.71012">
        <ele>801.4</ele>
        <time>2022-07-15T08:21:44Z</time>
      </trkpt>
      <trkpt lat="44.21133" lon="2.70998">
        <ele>800.44</ele>
        <time>2022-07-15T08:21:49Z</time>
      </trkpt>
      <trkpt lat="44.21135" lon="2.70981">
        <ele>798.51</ele>
        <time>2022-07-15T08:21:57Z</time>
      </trkpt>
      <trkpt lat="44.21138" lon="2.70965">
        <ele>798.03</ele>
        <time>2022-07-15T08:22:04Z</time>
      </trkpt>
      <trkpt lat="44.2114" lon="2.70948">
        <ele>798.03</ele>
        <time>2022-07-15T08:22:11Z</time>
      </trkpt>
      <trkpt lat="44.21142" lon="2.70932">
        <ele>799.95</ele>
        <time>2022-07-15T08:22:18Z</time>
      </trkpt>
      <trkpt lat="44.21147" lon="2.70917">
        <ele>802.84</ele>
        <time>2022-07-15T08:22:25Z</time>
      </trkpt>
      <trkpt lat="44.21149" lon="2.70904">
        <ele>806.68</ele>
        <time>2022-07-15T08:22:32Z</time>
      </trkpt>
      <trkpt lat="44.21149" lon="2.70891">
        <ele>810.05</ele>
        <time>2022-07-15T08:22:39Z</time>
      </trkpt>
      <trkpt lat="44.21146" lon="2.70879">
        <ele>811.97</ele>
        <time>2022-07-15T08:22:46Z</time>
      </trkpt>
      <trkpt lat="44.2114" lon="2.70867">
        <ele>814.37</ele>
        <time>2022-07-15T08:22:53Z</time>
      </trkpt>
      <trkpt lat="44.21133" lon="2.7086">
        <ele>815.82</ele>
        <time>2022-07-15T08:23:01Z</time>
      </trkpt>
      <trkpt lat="44.21122" lon="2.70851">
        <ele>816.78</ele>
        <time>2022-07-15T08:23:09Z</time>
      </trkpt>
      <trkpt lat="44.21111" lon="2.70849">
        <ele>817.26</ele>
        <time>2022-07-15T08:23:17Z</time>
      </trkpt>
      <trkpt lat="44.21101" lon="2.70854">
        <ele>817.74</ele>
        <time>2022-07-15T08:23:25Z</time>
      </trkpt>
      <trkpt lat="44.21091" lon="2.70862">
        <ele>819.66</ele>
        <time>2022-07-15T08:23:32Z</time>
      </trkpt>
      <trkpt lat="44.21084" lon="2.70873">
        <ele>820.14</ele>
        <time>2022-07-15T08:23:39Z</time>
      </trkpt>
      <trkpt lat="44.21078" lon="2.70886">
        <ele>821.1</ele>
        <time>2022-07-15T08:23:46Z</time>
      </trkpt>
      <trkpt lat="44.2107" lon="2.70896">
        <ele>822.06</ele>
        <time>2022-07-15T08:23:53Z</time>
      </trkpt>
      <trkpt lat="44.21061" lon="2.70904">
        <ele>822.55</ele>
        <time>2022-07-15T08:24:00Z</time>
      </trkpt>
      <trkpt lat="44.21051" lon="2.70908">
        <ele>822.55</ele>
        <time>2022-07-15T08:24:07Z</time>
      </trkpt>
      <trkpt lat="44.21041" lon="2.70905">
        <ele>822.06</ele>
        <time>2022-07-15T08:24:13Z</time>
      </trkpt>
      <trkpt lat="44.21032" lon="2.70901">
        <ele>822.06</ele>
        <time>2022-07-15T08:24:20Z</time>
      </trkpt>
      <trkpt lat="44.21022" lon="2.70895">
        <ele>821.58</ele>
        <time>2022-07-15T08:24:27Z</time>
      </trkpt>
      <trkpt lat="44.21011" lon="2.7089">
        <ele>822.06</ele>
        <time>2022-07-15T08:24:34Z</time>
      </trkpt>
      <trkpt lat="44.21" lon="2.70887">
        <ele>823.03</ele>
        <time>2022-07-15T08:24:41Z</time>
      </trkpt>
      <trkpt lat="44.20989" lon="2.70886">
        <ele>823.51</ele>
        <time>2022-07-15T08:24:48Z</time>
      </trkpt>
      <trkpt lat="44.2098" lon="2.70886">
        <ele>823.51</ele>
        <time>2022-07-15T08:24:54Z</time>
      </trkpt>
      <trkpt lat="44.20969" lon="2.70884">
        <ele>823.03</ele>
        <time>2022-07-15T08:25:01Z</time>
      </trkpt>
      <trkpt lat="44.20958" lon="2.70883">
        <ele>822.06</ele>
        <time>2022-07-15T08:25:08Z</time>
      </trkpt>
      <trkpt lat="44.20947" lon="2.70881">
        <ele>822.06</ele>
        <time>2022-07-15T08:25:15Z</time>
      </trkpt>
      <trkpt lat="44.20937" lon="2.70879">
        <ele>822.06</ele>
        <time>2022-07-15T08:25:22Z</time>
      </trkpt>
      <trkpt lat="44.20926" lon="2.70876">
        <ele>823.51</ele>
        <time>2022-07-15T08:25:29Z</time>
      </trkpt>
      <trkpt lat="44.20917" lon="2.70871">
        <ele>823.99</ele>
        <time>2022-07-15T08:25:36Z</time>
      </trkpt>
      <trkpt lat="44.20907" lon="2.70863">
        <ele>825.43</ele>
        <time>2022-07-15T08:25:43Z</time>
      </trkpt>
      <trkpt lat="44.20897" lon="2.70853">
        <ele>827.35</ele>
        <time>2022-07-15T08:25:51Z</time>
      </trkpt>
      <trkpt lat="44.20889" lon="2.70843">
        <ele>829.76</ele>
        <time>2022-07-15T08:25:59Z</time>
      </trkpt>
      <trkpt lat="44.2088" lon="2.70832">
        <ele>830.72</ele>
        <time>2022-07-15T08:26:07Z</time>
      </trkpt>
      <trkpt lat="44.20871" lon="2.70822">
        <ele>831.68</ele>
        <time>2022-07-15T08:26:14Z</time>
      </trkpt>
      <trkpt lat="44.20864" lon="2.70812">
        <ele>832.16</ele>
        <time>2022-07-15T08:26:21Z</time>
      </trkpt>
      <trkpt lat="44.20856" lon="2.708">
        <ele>833.6</ele>
        <time>2022-07-15T08:26:29Z</time>
      </trkpt>
      <trkpt lat="44.20846" lon="2.7079">
        <ele>835.52</ele>
        <time>2022-07-15T08:26:37Z</time>
      </trkpt>
      <trkpt lat="44.20837" lon="2.70782">
        <ele>836</ele>
        <time>2022-07-15T08:26:45Z</time>
      </trkpt>
      <trkpt lat="44.20826" lon="2.70776">
        <ele>836</ele>
        <time>2022-07-15T08:26:53Z</time>
      </trkpt>
      <trkpt lat="44.20816" lon="2.70769">
        <ele>836.48</ele>
        <time>2022-07-15T08:27:01Z</time>
      </trkpt>
      <trkpt lat="44.20807" lon="2.70762">
        <ele>836.96</ele>
        <time>2022-07-15T08:27:08Z</time>
      </trkpt>
      <trkpt lat="44.208" lon="2.70753">
        <ele>837.45</ele>
        <time>2022-07-15T08:27:15Z</time>
      </trkpt>
      <trkpt lat="44.20793" lon="2.70743">
        <ele>838.89</ele>
        <time>2022-07-15T08:27:22Z</time>
      </trkpt>
      <trkpt lat="44.20787" lon="2.70731">
        <ele>839.37</ele>
        <time>2022-07-15T08:27:29Z</time>
      </trkpt>
      <trkpt lat="44.20781" lon="2.70718">
        <ele>839.85</ele>
        <time>2022-07-15T08:27:36Z</time>
      </trkpt>
      <trkpt lat="44.20777" lon="2.70704">
        <ele>839.85</ele>
        <time>2022-07-15T08:27:43Z</time>
      </trkpt>
      <trkpt lat="44.20771" lon="2.70691">
        <ele>839.85</ele>
        <time>2022-07-15T08:27:50Z</time>
      </trkpt>
      <trkpt lat="44.20766" lon="2.70678">
        <ele>839.85</ele>
        <time>2022-07-15T08:27:57Z</time>
      </trkpt>
      <trkpt lat="44.20762" lon="2.70667">
        <ele>840.33</ele>
        <time>2022-07-15T08:28:03Z</time>
      </trkpt>
      <trkpt lat="44.20757" lon="2.70654">
        <ele>840.33</ele>
        <time>2022-07-15T08:28:10Z</time>
      </trkpt>
      <trkpt lat="44.20751" lon="2.70641">
        <ele>840.81</ele>
        <time>2022-07-15T08:28:17Z</time>
      </trkpt>
      <trkpt lat="44.20744" lon="2.70629">
        <ele>841.29</ele>
        <time>2022-07-15T08:28:24Z</time>
      </trkpt>
      <trkpt lat="44.20736" lon="2.70619">
        <ele>841.29</ele>
        <time>2022-07-15T08:28:34Z</time>
      </trkpt>
      <trkpt lat="44.20728" lon="2.70608">
        <ele>847.06</ele>
        <time>2022-07-15T08:29:27Z</time>
      </trkpt>
      <trkpt lat="44.2072" lon="2.70599">
        <ele>847.54</ele>
        <time>2022-07-15T08:29:34Z</time>
      </trkpt>
      <trkpt lat="44.20714" lon="2.7059">
        <ele>847.54</ele>
        <time>2022-07-15T08:29:41Z</time>
      </trkpt>
      <trkpt lat="44.20706" lon="2.70581">
        <ele>847.54</ele>
        <time>2022-07-15T08:29:48Z</time>
      </trkpt>
      <trkpt lat="44.20698" lon="2.70574">
        <ele>848.5</ele>
        <time>2022-07-15T08:29:55Z</time>
      </trkpt>
      <trkpt lat="44.2069" lon="2.70567">
        <ele>848.5</ele>
        <time>2022-07-15T08:30:01Z</time>
      </trkpt>
      <trkpt lat="44.20681" lon="2.7056">
        <ele>848.02</ele>
        <time>2022-07-15T08:30:08Z</time>
      </trkpt>
      <trkpt lat="44.20672" lon="2.70553">
        <ele>848.5</ele>
        <time>2022-07-15T08:30:16Z</time>
      </trkpt>
      <trkpt lat="44.20661" lon="2.70548">
        <ele>848.5</ele>
        <time>2022-07-15T08:30:23Z</time>
      </trkpt>
      <trkpt lat="44.20653" lon="2.70544">
        <ele>847.54</ele>
        <time>2022-07-15T08:30:29Z</time>
      </trkpt>
      <trkpt lat="44.20643" lon="2.70539">
        <ele>846.58</ele>
        <time>2022-07-15T08:30:36Z</time>
      </trkpt>
      <trkpt lat="44.20634" lon="2.70531">
        <ele>846.1</ele>
        <time>2022-07-15T08:30:43Z</time>
      </trkpt>
      <trkpt lat="44.20629" lon="2.7052">
        <ele>845.62</ele>
        <time>2022-07-15T08:30:49Z</time>
      </trkpt>
      <trkpt lat="44.20624" lon="2.70506">
        <ele>846.1</ele>
        <time>2022-07-15T08:30:56Z</time>
      </trkpt>
      <trkpt lat="44.2062" lon="2.70494">
        <ele>846.58</ele>
        <time>2022-07-15T08:31:02Z</time>
      </trkpt>
      <trkpt lat="44.20615" lon="2.70481">
        <ele>846.1</ele>
        <time>2022-07-15T08:31:09Z</time>
      </trkpt>
      <trkpt lat="44.20611" lon="2.70466">
        <ele>846.1</ele>
        <time>2022-07-15T08:31:16Z</time>
      </trkpt>
      <trkpt lat="44.20606" lon="2.70453">
        <ele>846.1</ele>
        <time>2022-07-15T08:31:23Z</time>
      </trkpt>
      <trkpt lat="44.20603" lon="2.70436">
        <ele>843.69</ele>
        <time>2022-07-15T08:31:30Z</time>
      </trkpt>
      <trkpt lat="44.20605" lon="2.70422">
        <ele>843.69</ele>
        <time>2022-07-15T08:31:38Z</time>
      </trkpt>
      <trkpt lat="44.20609" lon="2.70407">
        <ele>843.21</ele>
        <time>2022-07-15T08:31:46Z</time>
      </trkpt>
      <trkpt lat="44.20616" lon="2.70396">
        <ele>842.73</ele>
        <time>2022-07-15T08:31:53Z</time>
      </trkpt>
      <trkpt lat="44.20622" lon="2.70383">
        <ele>840.81</ele>
        <time>2022-07-15T08:32:01Z</time>
      </trkpt>
      <trkpt lat="44.20627" lon="2.70369">
        <ele>840.33</ele>
        <time>2022-07-15T08:32:09Z</time>
      </trkpt>
      <trkpt lat="44.20632" lon="2.70356">
        <ele>840.33</ele>
        <time>2022-07-15T08:32:16Z</time>
      </trkpt>
      <trkpt lat="44.20638" lon="2.70341">
        <ele>840.33</ele>
        <time>2022-07-15T08:32:20Z</time>
      </trkpt>
      <trkpt lat="44.20644" lon="2.70328">
        <ele>840.33</ele>
        <time>2022-07-15T08:32:23Z</time>
      </trkpt>
      <trkpt lat="44.20649" lon="2.70315">
        <ele>840.33</ele>
        <time>2022-07-15T08:32:26Z</time>
      </trkpt>
      <trkpt lat="44.20653" lon="2.70301">
        <ele>840.81</ele>
        <time>2022-07-15T08:32:29Z</time>
      </trkpt>
      <trkpt lat="44.20658" lon="2.70285">
        <ele>841.77</ele>
        <time>2022-07-15T08:32:33Z</time>
      </trkpt>
      <trkpt lat="44.20662" lon="2.7027">
        <ele>841.77</ele>
        <time>2022-07-15T08:32:37Z</time>
      </trkpt>
      <trkpt lat="44.20663" lon="2.70257">
        <ele>842.25</ele>
        <time>2022-07-15T08:32:41Z</time>
      </trkpt>
      <trkpt lat="44.20657" lon="2.70245">
        <ele>843.21</ele>
        <time>2022-07-15T08:32:45Z</time>
      </trkpt>
      <trkpt lat="44.20642" lon="2.70233">
        <ele>843.69</ele>
        <time>2022-07-15T08:33:01Z</time>
      </trkpt>
      <trkpt lat="44.20623" lon="2.70229">
        <ele>842.73</ele>
        <time>2022-07-15T08:33:13Z</time>
      </trkpt>
      <trkpt lat="44.20611" lon="2.70236">
        <ele>844.18</ele>
        <time>2022-07-15T08:33:21Z</time>
      </trkpt>
      <trkpt lat="44.20601" lon="2.70239">
        <ele>846.58</ele>
        <time>2022-07-15T08:33:28Z</time>
      </trkpt>
      <trkpt lat="44.20592" lon="2.70235">
        <ele>848.02</ele>
        <time>2022-07-15T08:33:35Z</time>
      </trkpt>
      <trkpt lat="44.20581" lon="2.70232">
        <ele>849.94</ele>
        <time>2022-07-15T08:33:43Z</time>
      </trkpt>
      <trkpt lat="44.20562" lon="2.70226">
        <ele>852.83</ele>
        <time>2022-07-15T08:33:54Z</time>
      </trkpt>
      <trkpt lat="44.20546" lon="2.70221">
        <ele>852.35</ele>
        <time>2022-07-15T08:34:07Z</time>
      </trkpt>
      <trkpt lat="44.20533" lon="2.70222">
        <ele>853.79</ele>
        <time>2022-07-15T08:34:17Z</time>
      </trkpt>
      <trkpt lat="44.20521" lon="2.70223">
        <ele>853.79</ele>
        <time>2022-07-15T08:34:26Z</time>
      </trkpt>
      <trkpt lat="44.2051" lon="2.7022">
        <ele>852.35</ele>
        <time>2022-07-15T08:34:34Z</time>
      </trkpt>
      <trkpt lat="44.20497" lon="2.70218">
        <ele>851.38</ele>
        <time>2022-07-15T08:34:42Z</time>
      </trkpt>
      <trkpt lat="44.20484" lon="2.70216">
        <ele>849.94</ele>
        <time>2022-07-15T08:34:53Z</time>
      </trkpt>
      <trkpt lat="44.20467" lon="2.70215">
        <ele>848.98</ele>
        <time>2022-07-15T08:35:05Z</time>
      </trkpt>
      <trkpt lat="44.20452" lon="2.70215">
        <ele>849.94</ele>
        <time>2022-07-15T08:35:14Z</time>
      </trkpt>
      <trkpt lat="44.20441" lon="2.70213">
        <ele>851.87</ele>
        <time>2022-07-15T08:35:21Z</time>
      </trkpt>
      <trkpt lat="44.20429" lon="2.70211">
        <ele>852.83</ele>
        <time>2022-07-15T08:35:28Z</time>
      </trkpt>
      <trkpt lat="44.20418" lon="2.7021">
        <ele>854.27</ele>
        <time>2022-07-15T08:35:35Z</time>
      </trkpt>
      <trkpt lat="44.20408" lon="2.70209">
        <ele>855.71</ele>
        <time>2022-07-15T08:35:41Z</time>
      </trkpt>
      <trkpt lat="44.20398" lon="2.70207">
        <ele>855.23</ele>
        <time>2022-07-15T08:35:48Z</time>
      </trkpt>
      <trkpt lat="44.20388" lon="2.70204">
        <ele>854.75</ele>
        <time>2022-07-15T08:35:54Z</time>
      </trkpt>
      <trkpt lat="44.20379" lon="2.70202">
        <ele>854.27</ele>
        <time>2022-07-15T08:36:00Z</time>
      </trkpt>
      <trkpt lat="44.2037" lon="2.702">
        <ele>853.31</ele>
        <time>2022-07-15T08:36:06Z</time>
      </trkpt>
      <trkpt lat="44.20359" lon="2.70197">
        <ele>852.83</ele>
        <time>2022-07-15T08:36:13Z</time>
      </trkpt>
      <trkpt lat="44.2035" lon="2.70195">
        <ele>852.83</ele>
        <time>2022-07-15T08:36:19Z</time>
      </trkpt>
      <trkpt lat="44.2034" lon="2.70192">
        <ele>852.35</ele>
        <time>2022-07-15T08:36:25Z</time>
      </trkpt>
      <trkpt lat="44.2033" lon="2.70189">
        <ele>850.42</ele>
        <time>2022-07-15T08:36:32Z</time>
      </trkpt>
      <trkpt lat="44.20321" lon="2.70186">
        <ele>849.94</ele>
        <time>2022-07-15T08:36:39Z</time>
      </trkpt>
      <trkpt lat="44.2031" lon="2.70182">
        <ele>850.42</ele>
        <time>2022-07-15T08:36:46Z</time>
      </trkpt>
      <trkpt lat="44.20299" lon="2.70178">
        <ele>850.9</ele>
        <time>2022-07-15T08:36:53Z</time>
      </trkpt>
      <trkpt lat="44.20288" lon="2.70173">
        <ele>851.38</ele>
        <time>2022-07-15T08:37:00Z</time>
      </trkpt>
      <trkpt lat="44.20279" lon="2.70168">
        <ele>851.87</ele>
        <time>2022-07-15T08:37:07Z</time>
      </trkpt>
      <trkpt lat="44.20268" lon="2.70163">
        <ele>852.35</ele>
        <time>2022-07-15T08:37:15Z</time>
      </trkpt>
      <trkpt lat="44.20258" lon="2.70156">
        <ele>851.87</ele>
        <time>2022-07-15T08:37:23Z</time>
      </trkpt>
      <trkpt lat="44.2025" lon="2.70149">
        <ele>850.42</ele>
        <time>2022-07-15T08:37:30Z</time>
      </trkpt>
      <trkpt lat="44.2024" lon="2.70143">
        <ele>850.42</ele>
        <time>2022-07-15T08:37:37Z</time>
      </trkpt>
      <trkpt lat="44.20231" lon="2.70137">
        <ele>849.94</ele>
        <time>2022-07-15T08:37:44Z</time>
      </trkpt>
      <trkpt lat="44.2022" lon="2.70133">
        <ele>854.27</ele>
        <time>2022-07-15T08:37:52Z</time>
      </trkpt>
      <trkpt lat="44.20211" lon="2.70128">
        <ele>855.71</ele>
        <time>2022-07-15T08:37:59Z</time>
      </trkpt>
      <trkpt lat="44.20202" lon="2.70119">
        <ele>855.71</ele>
        <time>2022-07-15T08:38:06Z</time>
      </trkpt>
      <trkpt lat="44.20194" lon="2.7011">
        <ele>855.71</ele>
        <time>2022-07-15T08:38:13Z</time>
      </trkpt>
      <trkpt lat="44.20185" lon="2.701">
        <ele>855.71</ele>
        <time>2022-07-15T08:38:20Z</time>
      </trkpt>
      <trkpt lat="44.20178" lon="2.70089">
        <ele>855.23</ele>
        <time>2022-07-15T08:38:27Z</time>
      </trkpt>
      <trkpt lat="44.2017" lon="2.70081">
        <ele>855.23</ele>
        <time>2022-07-15T08:38:34Z</time>
      </trkpt>
      <trkpt lat="44.20162" lon="2.70072">
        <ele>854.75</ele>
        <time>2022-07-15T08:38:41Z</time>
      </trkpt>
      <trkpt lat="44.20151" lon="2.70068">
        <ele>856.67</ele>
        <time>2022-07-15T08:38:49Z</time>
      </trkpt>
      <trkpt lat="44.20142" lon="2.70062">
        <ele>858.59</ele>
        <time>2022-07-15T08:38:56Z</time>
      </trkpt>
      <trkpt lat="44.20134" lon="2.70054">
        <ele>858.59</ele>
        <time>2022-07-15T08:39:03Z</time>
      </trkpt>
      <trkpt lat="44.20126" lon="2.70042">
        <ele>857.63</ele>
        <time>2022-07-15T08:39:12Z</time>
      </trkpt>
      <trkpt lat="44.20114" lon="2.70036">
        <ele>857.15</ele>
        <time>2022-07-15T08:39:21Z</time>
      </trkpt>
      <trkpt lat="44.20102" lon="2.7004">
        <ele>858.59</ele>
        <time>2022-07-15T08:39:48Z</time>
      </trkpt>
      <trkpt lat="44.20091" lon="2.70037">
        <ele>858.59</ele>
        <time>2022-07-15T08:39:55Z</time>
      </trkpt>
      <trkpt lat="44.20079" lon="2.70036">
        <ele>859.08</ele>
        <time>2022-07-15T08:40:02Z</time>
      </trkpt>
      <trkpt lat="44.20068" lon="2.70035">
        <ele>859.56</ele>
        <time>2022-07-15T08:40:10Z</time>
      </trkpt>
      <trkpt lat="44.20057" lon="2.70033">
        <ele>860.04</ele>
        <time>2022-07-15T08:40:18Z</time>
      </trkpt>
      <trkpt lat="44.20046" lon="2.70033">
        <ele>861</ele>
        <time>2022-07-15T08:40:25Z</time>
      </trkpt>
      <trkpt lat="44.20034" lon="2.70032">
        <ele>861.96</ele>
        <time>2022-07-15T08:40:35Z</time>
      </trkpt>
      <trkpt lat="44.20021" lon="2.70029">
        <ele>861</ele>
        <time>2022-07-15T08:40:45Z</time>
      </trkpt>
      <trkpt lat="44.20008" lon="2.70027">
        <ele>860.04</ele>
        <time>2022-07-15T08:40:53Z</time>
      </trkpt>
      <trkpt lat="44.19997" lon="2.70026">
        <ele>860.04</ele>
        <time>2022-07-15T08:41:00Z</time>
      </trkpt>
      <trkpt lat="44.19986" lon="2.70024">
        <ele>860.04</ele>
        <time>2022-07-15T08:41:07Z</time>
      </trkpt>
      <trkpt lat="44.19974" lon="2.70024">
        <ele>860.52</ele>
        <time>2022-07-15T08:41:14Z</time>
      </trkpt>
      <trkpt lat="44.19953" lon="2.70028">
        <ele>860.52</ele>
        <time>2022-07-15T08:41:32Z</time>
      </trkpt>
      <trkpt lat="44.19926" lon="2.7002">
        <ele>855.23</ele>
        <time>2022-07-15T08:41:51Z</time>
      </trkpt>
      <trkpt lat="44.19911" lon="2.70016">
        <ele>853.79</ele>
        <time>2022-07-15T08:41:59Z</time>
      </trkpt>
      <trkpt lat="44.19897" lon="2.70011">
        <ele>853.31</ele>
        <time>2022-07-15T08:42:09Z</time>
      </trkpt>
      <trkpt lat="44.19883" lon="2.70005">
        <ele>850.9</ele>
        <time>2022-07-15T08:42:20Z</time>
      </trkpt>
      <trkpt lat="44.19869" lon="2.7">
        <ele>849.46</ele>
        <time>2022-07-15T08:42:29Z</time>
      </trkpt>
      <trkpt lat="44.19857" lon="2.69996">
        <ele>848.5</ele>
        <time>2022-07-15T08:42:37Z</time>
      </trkpt>
      <trkpt lat="44.19844" lon="2.69994">
        <ele>846.58</ele>
        <time>2022-07-15T08:42:46Z</time>
      </trkpt>
      <trkpt lat="44.1983" lon="2.69996">
        <ele>847.54</ele>
        <time>2022-07-15T08:42:55Z</time>
      </trkpt>
      <trkpt lat="44.19816" lon="2.69992">
        <ele>848.98</ele>
        <time>2022-07-15T08:43:07Z</time>
      </trkpt>
      <trkpt lat="44.19801" lon="2.69985">
        <ele>849.94</ele>
        <time>2022-07-15T08:43:14Z</time>
      </trkpt>
      <trkpt lat="44.19786" lon="2.6998">
        <ele>849.94</ele>
        <time>2022-07-15T08:43:22Z</time>
      </trkpt>
      <trkpt lat="44.19774" lon="2.69978">
        <ele>851.38</ele>
        <time>2022-07-15T08:43:31Z</time>
      </trkpt>
      <trkpt lat="44.19763" lon="2.69971">
        <ele>852.83</ele>
        <time>2022-07-15T08:43:39Z</time>
      </trkpt>
      <trkpt lat="44.19753" lon="2.6996">
        <ele>854.27</ele>
        <time>2022-07-15T08:43:46Z</time>
      </trkpt>
      <trkpt lat="44.19743" lon="2.6995">
        <ele>857.15</ele>
        <time>2022-07-15T08:43:53Z</time>
      </trkpt>
      <trkpt lat="44.19737" lon="2.69938">
        <ele>860.52</ele>
        <time>2022-07-15T08:44:00Z</time>
      </trkpt>
      <trkpt lat="44.1974" lon="2.69926">
        <ele>862.92</ele>
        <time>2022-07-15T08:44:06Z</time>
      </trkpt>
      <trkpt lat="44.19745" lon="2.69913">
        <ele>863.4</ele>
        <time>2022-07-15T08:44:13Z</time>
      </trkpt>
      <trkpt lat="44.1975" lon="2.69902">
        <ele>863.4</ele>
        <time>2022-07-15T08:44:19Z</time>
      </trkpt>
      <trkpt lat="44.19755" lon="2.6989">
        <ele>863.4</ele>
        <time>2022-07-15T08:44:25Z</time>
      </trkpt>
      <trkpt lat="44.19761" lon="2.69877">
        <ele>863.88</ele>
        <time>2022-07-15T08:44:32Z</time>
      </trkpt>
      <trkpt lat="44.19766" lon="2.69866">
        <ele>863.4</ele>
        <time>2022-07-15T08:44:38Z</time>
      </trkpt>
      <trkpt lat="44.19771" lon="2.69854">
        <ele>863.4</ele>
        <time>2022-07-15T08:44:44Z</time>
      </trkpt>
      <trkpt lat="44.19775" lon="2.69842">
        <ele>863.4</ele>
        <time>2022-07-15T08:44:50Z</time>
      </trkpt>
      <trkpt lat="44.19781" lon="2.6983">
        <ele>862.44</ele>
        <time>2022-07-15T08:44:56Z</time>
      </trkpt>
      <trkpt lat="44.19785" lon="2.69818">
        <ele>862.44</ele>
        <time>2022-07-15T08:45:02Z</time>
      </trkpt>
      <trkpt lat="44.1979" lon="2.69806">
        <ele>861.48</ele>
        <time>2022-07-15T08:45:08Z</time>
      </trkpt>
      <trkpt lat="44.19795" lon="2.69794">
        <ele>861</ele>
        <time>2022-07-15T08:45:14Z</time>
      </trkpt>
      <trkpt lat="44.19799" lon="2.69781">
        <ele>861.48</ele>
        <time>2022-07-15T08:45:21Z</time>
      </trkpt>
      <trkpt lat="44.19804" lon="2.69768">
        <ele>862.44</ele>
        <time>2022-07-15T08:45:29Z</time>
      </trkpt>
      <trkpt lat="44.19809" lon="2.69756">
        <ele>862.44</ele>
        <time>2022-07-15T08:45:36Z</time>
      </trkpt>
      <trkpt lat="44.19813" lon="2.69742">
        <ele>861.48</ele>
        <time>2022-07-15T08:45:43Z</time>
      </trkpt>
      <trkpt lat="44.19813" lon="2.69728">
        <ele>861.48</ele>
        <time>2022-07-15T08:45:51Z</time>
      </trkpt>
      <trkpt lat="44.19811" lon="2.69708">
        <ele>861.96</ele>
        <time>2022-07-15T08:46:00Z</time>
      </trkpt>
      <trkpt lat="44.19809" lon="2.69691">
        <ele>862.44</ele>
        <time>2022-07-15T08:46:08Z</time>
      </trkpt>
      <trkpt lat="44.19809" lon="2.69673">
        <ele>863.4</ele>
        <time>2022-07-15T08:46:17Z</time>
      </trkpt>
      <trkpt lat="44.19808" lon="2.69656">
        <ele>862.44</ele>
        <time>2022-07-15T08:46:24Z</time>
      </trkpt>
      <trkpt lat="44.19808" lon="2.69641">
        <ele>861.48</ele>
        <time>2022-07-15T08:46:31Z</time>
      </trkpt>
      <trkpt lat="44.19807" lon="2.69627">
        <ele>861</ele>
        <time>2022-07-15T08:46:37Z</time>
      </trkpt>
      <trkpt lat="44.19806" lon="2.69611">
        <ele>860.52</ele>
        <time>2022-07-15T08:46:44Z</time>
      </trkpt>
      <trkpt lat="44.19806" lon="2.69597">
        <ele>859.56</ele>
        <time>2022-07-15T08:46:52Z</time>
      </trkpt>
      <trkpt lat="44.19804" lon="2.69581">
        <ele>859.08</ele>
        <time>2022-07-15T08:47:00Z</time>
      </trkpt>
      <trkpt lat="44.19803" lon="2.69566">
        <ele>859.56</ele>
        <time>2022-07-15T08:47:07Z</time>
      </trkpt>
      <trkpt lat="44.19801" lon="2.69552">
        <ele>859.56</ele>
        <time>2022-07-15T08:47:13Z</time>
      </trkpt>
      <trkpt lat="44.19799" lon="2.69537">
        <ele>860.04</ele>
        <time>2022-07-15T08:47:20Z</time>
      </trkpt>
      <trkpt lat="44.19796" lon="2.69522">
        <ele>860.52</ele>
        <time>2022-07-15T08:47:27Z</time>
      </trkpt>
      <trkpt lat="44.19795" lon="2.69508">
        <ele>861</ele>
        <time>2022-07-15T08:47:33Z</time>
      </trkpt>
      <trkpt lat="44.19794" lon="2.69493">
        <ele>861.48</ele>
        <time>2022-07-15T08:47:40Z</time>
      </trkpt>
      <trkpt lat="44.19794" lon="2.69478">
        <ele>861.48</ele>
        <time>2022-07-15T08:47:47Z</time>
      </trkpt>
      <trkpt lat="44.19794" lon="2.69462">
        <ele>862.44</ele>
        <time>2022-07-15T08:47:54Z</time>
      </trkpt>
      <trkpt lat="44.19794" lon="2.69445">
        <ele>864.36</ele>
        <time>2022-07-15T08:48:01Z</time>
      </trkpt>
      <trkpt lat="44.19792" lon="2.69431">
        <ele>864.36</ele>
        <time>2022-07-15T08:48:09Z</time>
      </trkpt>
      <trkpt lat="44.1979" lon="2.69416">
        <ele>863.88</ele>
        <time>2022-07-15T08:48:16Z</time>
      </trkpt>
      <trkpt lat="44.19787" lon="2.69402">
        <ele>863.88</ele>
        <time>2022-07-15T08:48:23Z</time>
      </trkpt>
      <trkpt lat="44.19785" lon="2.69388">
        <ele>864.84</ele>
        <time>2022-07-15T08:48:29Z</time>
      </trkpt>
      <trkpt lat="44.19783" lon="2.69375">
        <ele>864.84</ele>
        <time>2022-07-15T08:48:35Z</time>
      </trkpt>
      <trkpt lat="44.1978" lon="2.69362">
        <ele>864.84</ele>
        <time>2022-07-15T08:48:41Z</time>
      </trkpt>
      <trkpt lat="44.19777" lon="2.6935">
        <ele>864.84</ele>
        <time>2022-07-15T08:48:47Z</time>
      </trkpt>
      <trkpt lat="44.19772" lon="2.69337">
        <ele>865.32</ele>
        <time>2022-07-15T08:48:54Z</time>
      </trkpt>
      <trkpt lat="44.19767" lon="2.69325">
        <ele>864.84</ele>
        <time>2022-07-15T08:49:00Z</time>
      </trkpt>
      <trkpt lat="44.19761" lon="2.69308">
        <ele>864.84</ele>
        <time>2022-07-15T08:49:04Z</time>
      </trkpt>
      <trkpt lat="44.19758" lon="2.69296">
        <ele>864.84</ele>
        <time>2022-07-15T08:49:06Z</time>
      </trkpt>
      <trkpt lat="44.19755" lon="2.69282">
        <ele>865.32</ele>
        <time>2022-07-15T08:49:08Z</time>
      </trkpt>
      <trkpt lat="44.19754" lon="2.69267">
        <ele>865.32</ele>
        <time>2022-07-15T08:49:10Z</time>
      </trkpt>
      <trkpt lat="44.19753" lon="2.69252">
        <ele>865.32</ele>
        <time>2022-07-15T08:49:12Z</time>
      </trkpt>
      <trkpt lat="44.19754" lon="2.69237">
        <ele>866.29</ele>
        <time>2022-07-15T08:49:14Z</time>
      </trkpt>
      <trkpt lat="44.19757" lon="2.69222">
        <ele>866.29</ele>
        <time>2022-07-15T08:49:16Z</time>
      </trkpt>
      <trkpt lat="44.19759" lon="2.69206">
        <ele>866.29</ele>
        <time>2022-07-15T08:49:18Z</time>
      </trkpt>
      <trkpt lat="44.19762" lon="2.6919">
        <ele>866.77</ele>
        <time>2022-07-15T08:49:20Z</time>
      </trkpt>
      <trkpt lat="44.19763" lon="2.69175">
        <ele>867.25</ele>
        <time>2022-07-15T08:49:22Z</time>
      </trkpt>
      <trkpt lat="44.19765" lon="2.69163">
        <ele>867.25</ele>
        <time>2022-07-15T08:49:24Z</time>
      </trkpt>
      <trkpt lat="44.19766" lon="2.6915">
        <ele>867.73</ele>
        <time>2022-07-15T08:49:27Z</time>
      </trkpt>
      <trkpt lat="44.19767" lon="2.69137">
        <ele>869.17</ele>
        <time>2022-07-15T08:49:33Z</time>
      </trkpt>
      <trkpt lat="44.19767" lon="2.69125">
        <ele>870.13</ele>
        <time>2022-07-15T08:49:41Z</time>
      </trkpt>
      <trkpt lat="44.19764" lon="2.69126">
        <ele>870.61</ele>
        <time>2022-07-15T08:49:52Z</time>
      </trkpt>
      <trkpt lat="44.19767" lon="2.69121">
        <ele>871.09</ele>
        <time>2022-07-15T08:50:07Z</time>
      </trkpt>
      <trkpt lat="44.19766" lon="2.69107">
        <ele>871.57</ele>
        <time>2022-07-15T08:50:14Z</time>
      </trkpt>
      <trkpt lat="44.19769" lon="2.69093">
        <ele>871.57</ele>
        <time>2022-07-15T08:50:21Z</time>
      </trkpt>
      <trkpt lat="44.19772" lon="2.69078">
        <ele>870.61</ele>
        <time>2022-07-15T08:50:28Z</time>
      </trkpt>
      <trkpt lat="44.19776" lon="2.69064">
        <ele>869.65</ele>
        <time>2022-07-15T08:50:35Z</time>
      </trkpt>
      <trkpt lat="44.19779" lon="2.69051">
        <ele>868.21</ele>
        <time>2022-07-15T08:50:42Z</time>
      </trkpt>
      <trkpt lat="44.19783" lon="2.69037">
        <ele>868.21</ele>
        <time>2022-07-15T08:50:49Z</time>
      </trkpt>
      <trkpt lat="44.19787" lon="2.69022">
        <ele>867.73</ele>
        <time>2022-07-15T08:50:56Z</time>
      </trkpt>
      <trkpt lat="44.19791" lon="2.69008">
        <ele>866.77</ele>
        <time>2022-07-15T08:51:03Z</time>
      </trkpt>
      <trkpt lat="44.19796" lon="2.68996">
        <ele>865.8</ele>
        <time>2022-07-15T08:51:10Z</time>
      </trkpt>
      <trkpt lat="44.198" lon="2.68982">
        <ele>864.36</ele>
        <time>2022-07-15T08:51:17Z</time>
      </trkpt>
      <trkpt lat="44.19804" lon="2.68969">
        <ele>864.36</ele>
        <time>2022-07-15T08:51:24Z</time>
      </trkpt>
      <trkpt lat="44.19808" lon="2.68956">
        <ele>863.4</ele>
        <time>2022-07-15T08:51:31Z</time>
      </trkpt>
      <trkpt lat="44.19812" lon="2.68942">
        <ele>862.44</ele>
        <time>2022-07-15T08:51:38Z</time>
      </trkpt>
      <trkpt lat="44.19817" lon="2.68929">
        <ele>861</ele>
        <time>2022-07-15T08:51:45Z</time>
      </trkpt>
      <trkpt lat="44.1982" lon="2.68915">
        <ele>861.48</ele>
        <time>2022-07-15T08:51:52Z</time>
      </trkpt>
      <trkpt lat="44.19827" lon="2.68903">
        <ele>861</ele>
        <time>2022-07-15T08:52:00Z</time>
      </trkpt>
      <trkpt lat="44.19835" lon="2.68894">
        <ele>862.44</ele>
        <time>2022-07-15T08:52:08Z</time>
      </trkpt>
      <trkpt lat="44.19829" lon="2.68832">
        <ele>863.4</ele>
        <time>2022-07-15T08:52:34Z</time>
      </trkpt>
      <trkpt lat="44.19846" lon="2.68712">
        <ele>863.4</ele>
        <time>2022-07-15T08:53:51Z</time>
      </trkpt>
      <trkpt lat="44.19855" lon="2.68699">
        <ele>859.08</ele>
        <time>2022-07-15T08:54:01Z</time>
      </trkpt>
      <trkpt lat="44.19863" lon="2.68688">
        <ele>855.23</ele>
        <time>2022-07-15T08:54:11Z</time>
      </trkpt>
      <trkpt lat="44.19867" lon="2.68671">
        <ele>854.27</ele>
        <time>2022-07-15T08:54:19Z</time>
      </trkpt>
      <trkpt lat="44.19819" lon="2.68566">
        <ele>856.67</ele>
        <time>2022-07-15T08:55:19Z</time>
      </trkpt>
      <trkpt lat="44.19784" lon="2.68536">
        <ele>859.08</ele>
        <time>2022-07-15T08:55:49Z</time>
      </trkpt>
      <trkpt lat="44.19763" lon="2.68531">
        <ele>859.08</ele>
        <time>2022-07-15T08:56:05Z</time>
      </trkpt>
      <trkpt lat="44.19752" lon="2.68532">
        <ele>858.59</ele>
        <time>2022-07-15T08:56:13Z</time>
      </trkpt>
      <trkpt lat="44.1974" lon="2.68534">
        <ele>859.56</ele>
        <time>2022-07-15T08:56:22Z</time>
      </trkpt>
      <trkpt lat="44.19727" lon="2.68526">
        <ele>861.48</ele>
        <time>2022-07-15T08:56:35Z</time>
      </trkpt>
      <trkpt lat="44.19723" lon="2.68508">
        <ele>859.08</ele>
        <time>2022-07-15T08:56:49Z</time>
      </trkpt>
      <trkpt lat="44.19729" lon="2.68495">
        <ele>856.67</ele>
        <time>2022-07-15T08:56:56Z</time>
      </trkpt>
      <trkpt lat="44.19736" lon="2.68482">
        <ele>855.23</ele>
        <time>2022-07-15T08:57:04Z</time>
      </trkpt>
      <trkpt lat="44.19742" lon="2.68468">
        <ele>854.27</ele>
        <time>2022-07-15T08:57:12Z</time>
      </trkpt>
      <trkpt lat="44.19749" lon="2.68455">
        <ele>851.87</ele>
        <time>2022-07-15T08:57:21Z</time>
      </trkpt>
      <trkpt lat="44.19756" lon="2.68441">
        <ele>848.02</ele>
        <time>2022-07-15T08:57:30Z</time>
      </trkpt>
      <trkpt lat="44.19762" lon="2.68427">
        <ele>845.62</ele>
        <time>2022-07-15T08:57:38Z</time>
      </trkpt>
      <trkpt lat="44.19768" lon="2.68411">
        <ele>844.66</ele>
        <time>2022-07-15T08:57:46Z</time>
      </trkpt>
      <trkpt lat="44.19772" lon="2.68397">
        <ele>844.18</ele>
        <time>2022-07-15T08:57:54Z</time>
      </trkpt>
      <trkpt lat="44.1978" lon="2.68385">
        <ele>839.85</ele>
        <time>2022-07-15T08:58:05Z</time>
      </trkpt>
      <trkpt lat="44.19787" lon="2.68373">
        <ele>834.08</ele>
        <time>2022-07-15T08:58:16Z</time>
      </trkpt>
      <trkpt lat="44.19795" lon="2.68337">
        <ele>824.47</ele>
        <time>2022-07-15T08:58:38Z</time>
      </trkpt>
      <trkpt lat="44.19787" lon="2.68311">
        <ele>827.35</ele>
        <time>2022-07-15T08:58:46Z</time>
      </trkpt>
      <trkpt lat="44.19781" lon="2.68297">
        <ele>826.87</ele>
        <time>2022-07-15T08:58:55Z</time>
      </trkpt>
      <trkpt lat="44.19803" lon="2.68248">
        <ele>815.34</ele>
        <time>2022-07-15T08:59:36Z</time>
      </trkpt>
      <trkpt lat="44.19855" lon="2.68198">
        <ele>803.8</ele>
        <time>2022-07-15T09:00:23Z</time>
      </trkpt>
      <trkpt lat="44.19872" lon="2.68081">
        <ele>773.04</ele>
        <time>2022-07-15T09:03:48Z</time>
      </trkpt>
      <trkpt lat="44.19776" lon="2.67965">
        <ele>751.41</ele>
        <time>2022-07-15T09:05:54Z</time>
      </trkpt>
      <trkpt lat="44.19697" lon="2.67916">
        <ele>746.6</ele>
        <time>2022-07-15T09:07:07Z</time>
      </trkpt>
      <trkpt lat="44.19674" lon="2.67927">
        <ele>746.12</ele>
        <time>2022-07-15T09:07:26Z</time>
      </trkpt>
      <trkpt lat="44.19657" lon="2.6794">
        <ele>744.68</ele>
        <time>2022-07-15T09:07:38Z</time>
      </trkpt>
      <trkpt lat="44.19631" lon="2.67949">
        <ele>745.64</ele>
        <time>2022-07-15T09:08:01Z</time>
      </trkpt>
      <trkpt lat="44.1962" lon="2.679">
        <ele>748.04</ele>
        <time>2022-07-15T09:09:11Z</time>
      </trkpt>
      <trkpt lat="44.19622" lon="2.67886">
        <ele>746.12</ele>
        <time>2022-07-15T09:09:19Z</time>
      </trkpt>
      <trkpt lat="44.19622" lon="2.67872">
        <ele>744.68</ele>
        <time>2022-07-15T09:09:26Z</time>
      </trkpt>
      <trkpt lat="44.19622" lon="2.67857">
        <ele>743.72</ele>
        <time>2022-07-15T09:09:33Z</time>
      </trkpt>
      <trkpt lat="44.19622" lon="2.67843">
        <ele>742.28</ele>
        <time>2022-07-15T09:09:40Z</time>
      </trkpt>
      <trkpt lat="44.19624" lon="2.67829">
        <ele>741.79</ele>
        <time>2022-07-15T09:09:46Z</time>
      </trkpt>
      <trkpt lat="44.19625" lon="2.67814">
        <ele>740.83</ele>
        <time>2022-07-15T09:09:53Z</time>
      </trkpt>
      <trkpt lat="44.19625" lon="2.67798">
        <ele>740.83</ele>
        <time>2022-07-15T09:10:00Z</time>
      </trkpt>
      <trkpt lat="44.19625" lon="2.67785">
        <ele>740.83</ele>
        <time>2022-07-15T09:10:06Z</time>
      </trkpt>
      <trkpt lat="44.19625" lon="2.6777">
        <ele>740.35</ele>
        <time>2022-07-15T09:10:13Z</time>
      </trkpt>
      <trkpt lat="44.19625" lon="2.67754">
        <ele>739.87</ele>
        <time>2022-07-15T09:10:21Z</time>
      </trkpt>
      <trkpt lat="44.1962" lon="2.67738">
        <ele>740.35</ele>
        <time>2022-07-15T09:10:29Z</time>
      </trkpt>
      <trkpt lat="44.19613" lon="2.67725">
        <ele>740.83</ele>
        <time>2022-07-15T09:10:37Z</time>
      </trkpt>
      <trkpt lat="44.19603" lon="2.6772">
        <ele>740.35</ele>
        <time>2022-07-15T09:10:44Z</time>
      </trkpt>
      <trkpt lat="44.19593" lon="2.67717">
        <ele>739.39</ele>
        <time>2022-07-15T09:10:51Z</time>
      </trkpt>
      <trkpt lat="44.19582" lon="2.67715">
        <ele>737.95</ele>
        <time>2022-07-15T09:10:58Z</time>
      </trkpt>
      <trkpt lat="44.19571" lon="2.67713">
        <ele>736.99</ele>
        <time>2022-07-15T09:11:05Z</time>
      </trkpt>
      <trkpt lat="44.19561" lon="2.67708">
        <ele>735.55</ele>
        <time>2022-07-15T09:11:12Z</time>
      </trkpt>
      <trkpt lat="44.19554" lon="2.677">
        <ele>732.66</ele>
        <time>2022-07-15T09:11:22Z</time>
      </trkpt>
      <trkpt lat="44.19549" lon="2.67711">
        <ele>733.14</ele>
        <time>2022-07-15T09:11:31Z</time>
      </trkpt>
      <trkpt lat="44.19543" lon="2.67727">
        <ele>735.55</ele>
        <time>2022-07-15T09:11:43Z</time>
      </trkpt>
      <trkpt lat="44.19553" lon="2.67717">
        <ele>735.55</ele>
        <time>2022-07-15T09:12:21Z</time>
      </trkpt>
      <trkpt lat="44.19553" lon="2.67697">
        <ele>733.62</ele>
        <time>2022-07-15T09:12:31Z</time>
      </trkpt>
      <trkpt lat="44.1953" lon="2.67649">
        <ele>730.74</ele>
        <time>2022-07-15T09:13:03Z</time>
      </trkpt>
      <trkpt lat="44.1953" lon="2.67627">
        <ele>729.78</ele>
        <time>2022-07-15T09:13:13Z</time>
      </trkpt>
      <trkpt lat="44.19524" lon="2.67587">
        <ele>732.18</ele>
        <time>2022-07-15T09:13:33Z</time>
      </trkpt>
      <trkpt lat="44.19516" lon="2.67575">
        <ele>732.66</ele>
        <time>2022-07-15T09:13:41Z</time>
      </trkpt>
      <trkpt lat="44.19505" lon="2.67563">
        <ele>733.62</ele>
        <time>2022-07-15T09:13:48Z</time>
      </trkpt>
      <trkpt lat="44.19498" lon="2.67553">
        <ele>734.1</ele>
        <time>2022-07-15T09:13:54Z</time>
      </trkpt>
      <trkpt lat="44.19487" lon="2.67543">
        <ele>734.1</ele>
        <time>2022-07-15T09:14:02Z</time>
      </trkpt>
      <trkpt lat="44.19476" lon="2.67539">
        <ele>733.14</ele>
        <time>2022-07-15T09:14:09Z</time>
      </trkpt>
      <trkpt lat="44.19466" lon="2.67536">
        <ele>733.14</ele>
        <time>2022-07-15T09:14:15Z</time>
      </trkpt>
      <trkpt lat="44.19457" lon="2.6753">
        <ele>733.62</ele>
        <time>2022-07-15T09:14:21Z</time>
      </trkpt>
      <trkpt lat="44.19453" lon="2.67517">
        <ele>734.1</ele>
        <time>2022-07-15T09:14:29Z</time>
      </trkpt>
      <trkpt lat="44.19454" lon="2.675">
        <ele>732.66</ele>
        <time>2022-07-15T09:14:38Z</time>
      </trkpt>
      <trkpt lat="44.19423" lon="2.67423">
        <ele>726.41</ele>
        <time>2022-07-15T09:15:26Z</time>
      </trkpt>
      <trkpt lat="44.19414" lon="2.67395">
        <ele>727.86</ele>
        <time>2022-07-15T09:15:40Z</time>
      </trkpt>
      <trkpt lat="44.19406" lon="2.67379">
        <ele>728.34</ele>
        <time>2022-07-15T09:15:49Z</time>
      </trkpt>
      <trkpt lat="44.19395" lon="2.67367">
        <ele>727.37</ele>
        <time>2022-07-15T09:15:59Z</time>
      </trkpt>
      <trkpt lat="44.19387" lon="2.67353">
        <ele>728.34</ele>
        <time>2022-07-15T09:16:08Z</time>
      </trkpt>
      <trkpt lat="44.19379" lon="2.67336">
        <ele>729.78</ele>
        <time>2022-07-15T09:16:18Z</time>
      </trkpt>
      <trkpt lat="44.19376" lon="2.67318">
        <ele>731.22</ele>
        <time>2022-07-15T09:16:25Z</time>
      </trkpt>
      <trkpt lat="44.19373" lon="2.67302">
        <ele>731.22</ele>
        <time>2022-07-15T09:16:33Z</time>
      </trkpt>
      <trkpt lat="44.1937" lon="2.67281">
        <ele>732.66</ele>
        <time>2022-07-15T09:16:43Z</time>
      </trkpt>
      <trkpt lat="44.19366" lon="2.67265">
        <ele>734.1</ele>
        <time>2022-07-15T09:16:51Z</time>
      </trkpt>
      <trkpt lat="44.19362" lon="2.67251">
        <ele>735.55</ele>
        <time>2022-07-15T09:16:58Z</time>
      </trkpt>
      <trkpt lat="44.1936" lon="2.67237">
        <ele>735.07</ele>
        <time>2022-07-15T09:17:05Z</time>
      </trkpt>
      <trkpt lat="44.19356" lon="2.67223">
        <ele>735.55</ele>
        <time>2022-07-15T09:17:13Z</time>
      </trkpt>
      <trkpt lat="44.1935" lon="2.67204">
        <ele>735.07</ele>
        <time>2022-07-15T09:17:24Z</time>
      </trkpt>
      <trkpt lat="44.19347" lon="2.67189">
        <ele>735.07</ele>
        <time>2022-07-15T09:17:32Z</time>
      </trkpt>
      <trkpt lat="44.19343" lon="2.67174">
        <ele>734.1</ele>
        <time>2022-07-15T09:17:41Z</time>
      </trkpt>
      <trkpt lat="44.19341" lon="2.67157">
        <ele>732.18</ele>
        <time>2022-07-15T09:17:49Z</time>
      </trkpt>
      <trkpt lat="44.19338" lon="2.6713">
        <ele>729.3</ele>
        <time>2022-07-15T09:18:09Z</time>
      </trkpt>
      <trkpt lat="44.19328" lon="2.67115">
        <ele>725.45</ele>
        <time>2022-07-15T09:18:25Z</time>
      </trkpt>
      <trkpt lat="44.19311" lon="2.67104">
        <ele>720.65</ele>
        <time>2022-07-15T09:18:46Z</time>
      </trkpt>
      <trkpt lat="44.19301" lon="2.67096">
        <ele>719.2</ele>
        <time>2022-07-15T09:18:56Z</time>
      </trkpt>
      <trkpt lat="44.19288" lon="2.67063">
        <ele>719.68</ele>
        <time>2022-07-15T09:19:23Z</time>
      </trkpt>
      <trkpt lat="44.19262" lon="2.67005">
        <ele>718.72</ele>
        <time>2022-07-15T09:19:58Z</time>
      </trkpt>
      <trkpt lat="44.19216" lon="2.66921">
        <ele>711.51</ele>
        <time>2022-07-15T09:20:49Z</time>
      </trkpt>
      <trkpt lat="44.192" lon="2.66799">
        <ele>700.94</ele>
        <time>2022-07-15T09:22:09Z</time>
      </trkpt>
      <trkpt lat="44.19209" lon="2.66776">
        <ele>711.99</ele>
        <time>2022-07-15T09:22:20Z</time>
      </trkpt>
      <trkpt lat="44.19213" lon="2.66767">
        <ele>713.92</ele>
        <time>2022-07-15T09:22:51Z</time>
      </trkpt>
      <trkpt lat="44.19206" lon="2.66753">
        <ele>714.4</ele>
        <time>2022-07-15T09:22:59Z</time>
      </trkpt>
      <trkpt lat="44.19202" lon="2.66741">
        <ele>713.44</ele>
        <time>2022-07-15T09:23:06Z</time>
      </trkpt>
      <trkpt lat="44.19196" lon="2.66728">
        <ele>713.44</ele>
        <time>2022-07-15T09:23:13Z</time>
      </trkpt>
      <trkpt lat="44.1919" lon="2.66716">
        <ele>712.95</ele>
        <time>2022-07-15T09:23:20Z</time>
      </trkpt>
      <trkpt lat="44.19185" lon="2.66702">
        <ele>713.44</ele>
        <time>2022-07-15T09:23:28Z</time>
      </trkpt>
      <trkpt lat="44.19181" lon="2.66687">
        <ele>712.95</ele>
        <time>2022-07-15T09:23:35Z</time>
      </trkpt>
      <trkpt lat="44.1918" lon="2.66672">
        <ele>712.47</ele>
        <time>2022-07-15T09:23:42Z</time>
      </trkpt>
      <trkpt lat="44.19181" lon="2.66659">
        <ele>711.03</ele>
        <time>2022-07-15T09:23:49Z</time>
      </trkpt>
      <trkpt lat="44.19183" lon="2.66645">
        <ele>711.51</ele>
        <time>2022-07-15T09:23:56Z</time>
      </trkpt>
      <trkpt lat="44.19184" lon="2.66629">
        <ele>711.99</ele>
        <time>2022-07-15T09:24:04Z</time>
      </trkpt>
      <trkpt lat="44.19184" lon="2.66615">
        <ele>712.95</ele>
        <time>2022-07-15T09:24:11Z</time>
      </trkpt>
      <trkpt lat="44.19183" lon="2.666">
        <ele>712.95</ele>
        <time>2022-07-15T09:24:18Z</time>
      </trkpt>
      <trkpt lat="44.19183" lon="2.66584">
        <ele>713.92</ele>
        <time>2022-07-15T09:24:25Z</time>
      </trkpt>
      <trkpt lat="44.19183" lon="2.66572">
        <ele>713.92</ele>
        <time>2022-07-15T09:24:31Z</time>
      </trkpt>
      <trkpt lat="44.19184" lon="2.66557">
        <ele>714.88</ele>
        <time>2022-07-15T09:24:38Z</time>
      </trkpt>
      <trkpt lat="44.19185" lon="2.66543">
        <ele>715.84</ele>
        <time>2022-07-15T09:24:45Z</time>
      </trkpt>
      <trkpt lat="44.19187" lon="2.66529">
        <ele>716.32</ele>
        <time>2022-07-15T09:24:52Z</time>
      </trkpt>
      <trkpt lat="44.19188" lon="2.66515">
        <ele>718.24</ele>
        <time>2022-07-15T09:24:59Z</time>
      </trkpt>
      <trkpt lat="44.19188" lon="2.665">
        <ele>719.2</ele>
        <time>2022-07-15T09:25:07Z</time>
      </trkpt>
      <trkpt lat="44.19186" lon="2.66483">
        <ele>720.65</ele>
        <time>2022-07-15T09:25:15Z</time>
      </trkpt>
      <trkpt lat="44.19186" lon="2.66469">
        <ele>722.09</ele>
        <time>2022-07-15T09:25:22Z</time>
      </trkpt>
      <trkpt lat="44.19185" lon="2.66456">
        <ele>723.05</ele>
        <time>2022-07-15T09:25:29Z</time>
      </trkpt>
      <trkpt lat="44.19181" lon="2.66443">
        <ele>723.05</ele>
        <time>2022-07-15T09:25:37Z</time>
      </trkpt>
      <trkpt lat="44.19178" lon="2.66431">
        <ele>723.53</ele>
        <time>2022-07-15T09:25:44Z</time>
      </trkpt>
      <trkpt lat="44.19175" lon="2.66418">
        <ele>723.53</ele>
        <time>2022-07-15T09:25:51Z</time>
      </trkpt>
      <trkpt lat="44.19172" lon="2.66405">
        <ele>724.49</ele>
        <time>2022-07-15T09:25:58Z</time>
      </trkpt>
      <trkpt lat="44.19169" lon="2.66392">
        <ele>724.49</ele>
        <time>2022-07-15T09:26:05Z</time>
      </trkpt>
      <trkpt lat="44.19165" lon="2.66378">
        <ele>724.97</ele>
        <time>2022-07-15T09:26:12Z</time>
      </trkpt>
      <trkpt lat="44.19162" lon="2.66365">
        <ele>724.97</ele>
        <time>2022-07-15T09:26:19Z</time>
      </trkpt>
      <trkpt lat="44.19158" lon="2.66351">
        <ele>724.49</ele>
        <time>2022-07-15T09:26:26Z</time>
      </trkpt>
      <trkpt lat="44.19156" lon="2.66336">
        <ele>724.97</ele>
        <time>2022-07-15T09:26:34Z</time>
      </trkpt>
    </trkseg>
  </trk>
  <trk>
    <name><![CDATA[Le Bastié]]></name>
    <extensions>
      <line xmlns="http://www.topografix.com/GPX/gpx_style/0/2">
        <color>0000FF</color>
        <width>4</width>
      </line>
    </extensions>
    <trkseg>
      <trkpt lat="44.19195" lon="2.66346">
        <ele>724.01</ele>
        <time>2022-07-16T06:14:26Z</time>
      </trkpt>
      <trkpt lat="44.19204" lon="2.66317">
        <ele>723.05</ele>
        <time>2022-07-16T06:21:04Z</time>
      </trkpt>
      <trkpt lat="44.19214" lon="2.66308">
        <ele>722.09</ele>
        <time>2022-07-16T06:21:16Z</time>
      </trkpt>
      <trkpt lat="44.19232" lon="2.66293">
        <ele>722.09</ele>
        <time>2022-07-16T06:21:35Z</time>
      </trkpt>
      <trkpt lat="44.19241" lon="2.662">
        <ele>703.82</ele>
        <time>2022-07-16T06:22:36Z</time>
      </trkpt>
      <trkpt lat="44.19234" lon="2.66152">
        <ele>708.15</ele>
        <time>2022-07-16T06:23:38Z</time>
      </trkpt>
      <trkpt lat="44.19237" lon="2.66103">
        <ele>699.98</ele>
        <time>2022-07-16T06:26:43Z</time>
      </trkpt>
      <trkpt lat="44.19253" lon="2.66104">
        <ele>701.9</ele>
        <time>2022-07-16T06:26:53Z</time>
      </trkpt>
      <trkpt lat="44.19242" lon="2.66093">
        <ele>709.59</ele>
        <time>2022-07-16T06:27:13Z</time>
      </trkpt>
      <trkpt lat="44.19232" lon="2.66098">
        <ele>710.07</ele>
        <time>2022-07-16T06:27:22Z</time>
      </trkpt>
      <trkpt lat="44.19222" lon="2.66103">
        <ele>711.03</ele>
        <time>2022-07-16T06:27:31Z</time>
      </trkpt>
      <trkpt lat="44.19213" lon="2.661">
        <ele>710.55</ele>
        <time>2022-07-16T06:27:40Z</time>
      </trkpt>
      <trkpt lat="44.19208" lon="2.66088">
        <ele>709.59</ele>
        <time>2022-07-16T06:27:50Z</time>
      </trkpt>
      <trkpt lat="44.19203" lon="2.66075">
        <ele>708.63</ele>
        <time>2022-07-16T06:27:59Z</time>
      </trkpt>
      <trkpt lat="44.19197" lon="2.66059">
        <ele>706.71</ele>
        <time>2022-07-16T06:28:08Z</time>
      </trkpt>
      <trkpt lat="44.19189" lon="2.66042">
        <ele>706.23</ele>
        <time>2022-07-16T06:28:20Z</time>
      </trkpt>
      <trkpt lat="44.19162" lon="2.66031">
        <ele>705.26</ele>
        <time>2022-07-16T06:29:02Z</time>
      </trkpt>
      <trkpt lat="44.19153" lon="2.66027">
        <ele>704.78</ele>
        <time>2022-07-16T06:29:12Z</time>
      </trkpt>
      <trkpt lat="44.19143" lon="2.6602">
        <ele>705.75</ele>
        <time>2022-07-16T06:29:23Z</time>
      </trkpt>
      <trkpt lat="44.19134" lon="2.66015">
        <ele>707.19</ele>
        <time>2022-07-16T06:29:33Z</time>
      </trkpt>
      <trkpt lat="44.1912" lon="2.66009">
        <ele>709.59</ele>
        <time>2022-07-16T06:29:45Z</time>
      </trkpt>
      <trkpt lat="44.19111" lon="2.66006">
        <ele>710.55</ele>
        <time>2022-07-16T06:29:54Z</time>
      </trkpt>
      <trkpt lat="44.191" lon="2.66005">
        <ele>710.55</ele>
        <time>2022-07-16T06:30:05Z</time>
      </trkpt>
      <trkpt lat="44.19089" lon="2.66005">
        <ele>710.07</ele>
        <time>2022-07-16T06:30:15Z</time>
      </trkpt>
      <trkpt lat="44.19082" lon="2.66005">
        <ele>707.67</ele>
        <time>2022-07-16T06:30:24Z</time>
      </trkpt>
      <trkpt lat="44.19075" lon="2.66004">
        <ele>705.75</ele>
        <time>2022-07-16T06:30:32Z</time>
      </trkpt>
      <trkpt lat="44.19066" lon="2.66006">
        <ele>705.75</ele>
        <time>2022-07-16T06:30:42Z</time>
      </trkpt>
      <trkpt lat="44.19049" lon="2.65999">
        <ele>710.07</ele>
        <time>2022-07-16T06:31:00Z</time>
      </trkpt>
      <trkpt lat="44.1904" lon="2.65993">
        <ele>714.88</ele>
        <time>2022-07-16T06:31:09Z</time>
      </trkpt>
      <trkpt lat="44.19029" lon="2.65987">
        <ele>715.84</ele>
        <time>2022-07-16T06:31:19Z</time>
      </trkpt>
      <trkpt lat="44.19019" lon="2.65981">
        <ele>716.32</ele>
        <time>2022-07-16T06:31:30Z</time>
      </trkpt>
      <trkpt lat="44.19007" lon="2.6598">
        <ele>717.76</ele>
        <time>2022-07-16T06:31:40Z</time>
      </trkpt>
      <trkpt lat="44.18999" lon="2.65987">
        <ele>718.24</ele>
        <time>2022-07-16T06:31:50Z</time>
      </trkpt>
      <trkpt lat="44.18989" lon="2.65987">
        <ele>719.2</ele>
        <time>2022-07-16T06:32:00Z</time>
      </trkpt>
      <trkpt lat="44.18979" lon="2.65984">
        <ele>719.68</ele>
        <time>2022-07-16T06:32:09Z</time>
      </trkpt>
      <trkpt lat="44.1897" lon="2.6598">
        <ele>719.2</ele>
        <time>2022-07-16T06:32:18Z</time>
      </trkpt>
      <trkpt lat="44.1896" lon="2.65977">
        <ele>720.16</ele>
        <time>2022-07-16T06:32:27Z</time>
      </trkpt>
      <trkpt lat="44.1895" lon="2.65974">
        <ele>720.65</ele>
        <time>2022-07-16T06:32:36Z</time>
      </trkpt>
      <trkpt lat="44.18943" lon="2.65964">
        <ele>720.16</ele>
        <time>2022-07-16T06:32:45Z</time>
      </trkpt>
      <trkpt lat="44.18937" lon="2.6595">
        <ele>719.2</ele>
        <time>2022-07-16T06:32:55Z</time>
      </trkpt>
      <trkpt lat="44.18933" lon="2.65937">
        <ele>717.28</ele>
        <time>2022-07-16T06:33:04Z</time>
      </trkpt>
      <trkpt lat="44.1893" lon="2.65923">
        <ele>714.4</ele>
        <time>2022-07-16T06:33:13Z</time>
      </trkpt>
      <trkpt lat="44.18925" lon="2.6591">
        <ele>712.47</ele>
        <time>2022-07-16T06:33:22Z</time>
      </trkpt>
      <trkpt lat="44.18917" lon="2.65901">
        <ele>712.47</ele>
        <time>2022-07-16T06:33:30Z</time>
      </trkpt>
      <trkpt lat="44.18909" lon="2.65889">
        <ele>713.44</ele>
        <time>2022-07-16T06:33:39Z</time>
      </trkpt>
      <trkpt lat="44.18903" lon="2.6588">
        <ele>712.95</ele>
        <time>2022-07-16T06:33:47Z</time>
      </trkpt>
      <trkpt lat="44.18895" lon="2.65872">
        <ele>712.47</ele>
        <time>2022-07-16T06:33:56Z</time>
      </trkpt>
      <trkpt lat="44.18886" lon="2.6587">
        <ele>712.47</ele>
        <time>2022-07-16T06:34:05Z</time>
      </trkpt>
      <trkpt lat="44.18876" lon="2.65867">
        <ele>713.44</ele>
        <time>2022-07-16T06:34:14Z</time>
      </trkpt>
      <trkpt lat="44.18865" lon="2.65866">
        <ele>713.92</ele>
        <time>2022-07-16T06:34:23Z</time>
      </trkpt>
      <trkpt lat="44.18856" lon="2.65867">
        <ele>715.36</ele>
        <time>2022-07-16T06:34:32Z</time>
      </trkpt>
      <trkpt lat="44.18847" lon="2.65869">
        <ele>716.32</ele>
        <time>2022-07-16T06:34:40Z</time>
      </trkpt>
      <trkpt lat="44.18837" lon="2.65871">
        <ele>716.8</ele>
        <time>2022-07-16T06:34:50Z</time>
      </trkpt>
      <trkpt lat="44.18826" lon="2.65871">
        <ele>718.72</ele>
        <time>2022-07-16T06:35:00Z</time>
      </trkpt>
      <trkpt lat="44.18817" lon="2.65865">
        <ele>719.68</ele>
        <time>2022-07-16T06:35:09Z</time>
      </trkpt>
      <trkpt lat="44.18809" lon="2.65858">
        <ele>719.2</ele>
        <time>2022-07-16T06:35:17Z</time>
      </trkpt>
      <trkpt lat="44.18801" lon="2.65849">
        <ele>720.16</ele>
        <time>2022-07-16T06:35:25Z</time>
      </trkpt>
      <trkpt lat="44.18792" lon="2.65843">
        <ele>722.57</ele>
        <time>2022-07-16T06:35:34Z</time>
      </trkpt>
      <trkpt lat="44.18781" lon="2.65838">
        <ele>724.01</ele>
        <time>2022-07-16T06:35:44Z</time>
      </trkpt>
      <trkpt lat="44.18772" lon="2.65836">
        <ele>724.97</ele>
        <time>2022-07-16T06:35:53Z</time>
      </trkpt>
      <trkpt lat="44.18762" lon="2.65834">
        <ele>726.41</ele>
        <time>2022-07-16T06:36:02Z</time>
      </trkpt>
      <trkpt lat="44.18751" lon="2.65824">
        <ele>727.37</ele>
        <time>2022-07-16T06:36:13Z</time>
      </trkpt>
      <trkpt lat="44.18744" lon="2.65813">
        <ele>728.82</ele>
        <time>2022-07-16T06:36:23Z</time>
      </trkpt>
      <trkpt lat="44.18736" lon="2.65799">
        <ele>731.7</ele>
        <time>2022-07-16T06:36:33Z</time>
      </trkpt>
      <trkpt lat="44.18733" lon="2.65777">
        <ele>732.18</ele>
        <time>2022-07-16T06:36:47Z</time>
      </trkpt>
      <trkpt lat="44.1873" lon="2.65764">
        <ele>733.14</ele>
        <time>2022-07-16T06:36:58Z</time>
      </trkpt>
      <trkpt lat="44.1871" lon="2.65739">
        <ele>734.58</ele>
        <time>2022-07-16T06:37:24Z</time>
      </trkpt>
      <trkpt lat="44.187" lon="2.65734">
        <ele>733.62</ele>
        <time>2022-07-16T06:37:33Z</time>
      </trkpt>
      <trkpt lat="44.18689" lon="2.65733">
        <ele>736.03</ele>
        <time>2022-07-16T06:37:42Z</time>
      </trkpt>
      <trkpt lat="44.18677" lon="2.6573">
        <ele>739.39</ele>
        <time>2022-07-16T06:37:52Z</time>
      </trkpt>
      <trkpt lat="44.18666" lon="2.65726">
        <ele>740.83</ele>
        <time>2022-07-16T06:38:02Z</time>
      </trkpt>
      <trkpt lat="44.18656" lon="2.65719">
        <ele>740.83</ele>
        <time>2022-07-16T06:38:13Z</time>
      </trkpt>
      <trkpt lat="44.18647" lon="2.6571">
        <ele>739.87</ele>
        <time>2022-07-16T06:38:23Z</time>
      </trkpt>
      <trkpt lat="44.18639" lon="2.65701">
        <ele>739.39</ele>
        <time>2022-07-16T06:38:33Z</time>
      </trkpt>
      <trkpt lat="44.18631" lon="2.65691">
        <ele>736.99</ele>
        <time>2022-07-16T06:38:44Z</time>
      </trkpt>
      <trkpt lat="44.18621" lon="2.65682">
        <ele>737.95</ele>
        <time>2022-07-16T06:38:54Z</time>
      </trkpt>
      <trkpt lat="44.18608" lon="2.65674">
        <ele>741.79</ele>
        <time>2022-07-16T06:39:04Z</time>
      </trkpt>
      <trkpt lat="44.18598" lon="2.65664">
        <ele>744.68</ele>
        <time>2022-07-16T06:39:14Z</time>
      </trkpt>
      <trkpt lat="44.1859" lon="2.65655">
        <ele>744.68</ele>
        <time>2022-07-16T06:39:24Z</time>
      </trkpt>
      <trkpt lat="44.18583" lon="2.65644">
        <ele>742.76</ele>
        <time>2022-07-16T06:39:34Z</time>
      </trkpt>
      <trkpt lat="44.18574" lon="2.65633">
        <ele>741.31</ele>
        <time>2022-07-16T06:39:45Z</time>
      </trkpt>
      <trkpt lat="44.18562" lon="2.65623">
        <ele>738.43</ele>
        <time>2022-07-16T06:39:58Z</time>
      </trkpt>
      <trkpt lat="44.18554" lon="2.65612">
        <ele>738.43</ele>
        <time>2022-07-16T06:40:07Z</time>
      </trkpt>
      <trkpt lat="44.18544" lon="2.65605">
        <ele>742.28</ele>
        <time>2022-07-16T06:40:17Z</time>
      </trkpt>
      <trkpt lat="44.18533" lon="2.65601">
        <ele>754.29</ele>
        <time>2022-07-16T06:41:06Z</time>
      </trkpt>
      <trkpt lat="44.18527" lon="2.65599">
        <ele>764.39</ele>
        <time>2022-07-16T06:42:22Z</time>
      </trkpt>
      <trkpt lat="44.18518" lon="2.65592">
        <ele>765.35</ele>
        <time>2022-07-16T06:42:30Z</time>
      </trkpt>
      <trkpt lat="44.1851" lon="2.65583">
        <ele>764.39</ele>
        <time>2022-07-16T06:42:39Z</time>
      </trkpt>
      <trkpt lat="44.185" lon="2.65574">
        <ele>763.9</ele>
        <time>2022-07-16T06:42:48Z</time>
      </trkpt>
      <trkpt lat="44.18486" lon="2.65567">
        <ele>763.9</ele>
        <time>2022-07-16T06:42:58Z</time>
      </trkpt>
      <trkpt lat="44.18475" lon="2.65561">
        <ele>763.42</ele>
        <time>2022-07-16T06:43:07Z</time>
      </trkpt>
      <trkpt lat="44.18464" lon="2.65554">
        <ele>764.87</ele>
        <time>2022-07-16T06:43:17Z</time>
      </trkpt>
      <trkpt lat="44.18451" lon="2.65542">
        <ele>765.83</ele>
        <time>2022-07-16T06:43:31Z</time>
      </trkpt>
      <trkpt lat="44.18447" lon="2.65511">
        <ele>766.31</ele>
        <time>2022-07-16T06:43:51Z</time>
      </trkpt>
      <trkpt lat="44.18442" lon="2.65496">
        <ele>767.27</ele>
        <time>2022-07-16T06:44:00Z</time>
      </trkpt>
      <trkpt lat="44.18437" lon="2.65483">
        <ele>768.71</ele>
        <time>2022-07-16T06:44:08Z</time>
      </trkpt>
      <trkpt lat="44.18432" lon="2.65467">
        <ele>770.63</ele>
        <time>2022-07-16T06:44:18Z</time>
      </trkpt>
      <trkpt lat="44.18427" lon="2.65454">
        <ele>773.04</ele>
        <time>2022-07-16T06:44:26Z</time>
      </trkpt>
      <trkpt lat="44.18423" lon="2.6544">
        <ele>775.44</ele>
        <time>2022-07-16T06:44:35Z</time>
      </trkpt>
      <trkpt lat="44.18419" lon="2.65425">
        <ele>776.4</ele>
        <time>2022-07-16T06:44:43Z</time>
      </trkpt>
      <trkpt lat="44.18415" lon="2.6541">
        <ele>775.92</ele>
        <time>2022-07-16T06:44:52Z</time>
      </trkpt>
      <trkpt lat="44.18411" lon="2.65394">
        <ele>776.4</ele>
        <time>2022-07-16T06:45:00Z</time>
      </trkpt>
      <trkpt lat="44.18407" lon="2.65379">
        <ele>777.84</ele>
        <time>2022-07-16T06:45:08Z</time>
      </trkpt>
      <trkpt lat="44.184" lon="2.65366">
        <ele>778.32</ele>
        <time>2022-07-16T06:45:17Z</time>
      </trkpt>
      <trkpt lat="44.1839" lon="2.65347">
        <ele>780.73</ele>
        <time>2022-07-16T06:45:30Z</time>
      </trkpt>
      <trkpt lat="44.18382" lon="2.65335">
        <ele>782.17</ele>
        <time>2022-07-16T06:45:38Z</time>
      </trkpt>
      <trkpt lat="44.18373" lon="2.65324">
        <ele>783.61</ele>
        <time>2022-07-16T06:45:46Z</time>
      </trkpt>
      <trkpt lat="44.18364" lon="2.65316">
        <ele>785.05</ele>
        <time>2022-07-16T06:45:54Z</time>
      </trkpt>
      <trkpt lat="44.18353" lon="2.65308">
        <ele>786.02</ele>
        <time>2022-07-16T06:46:03Z</time>
      </trkpt>
      <trkpt lat="44.18343" lon="2.653">
        <ele>786.5</ele>
        <time>2022-07-16T06:46:11Z</time>
      </trkpt>
      <trkpt lat="44.18331" lon="2.65292">
        <ele>786.5</ele>
        <time>2022-07-16T06:46:20Z</time>
      </trkpt>
      <trkpt lat="44.18321" lon="2.65286">
        <ele>786.98</ele>
        <time>2022-07-16T06:46:27Z</time>
      </trkpt>
      <trkpt lat="44.1831" lon="2.65279">
        <ele>786.98</ele>
        <time>2022-07-16T06:46:34Z</time>
      </trkpt>
      <trkpt lat="44.18299" lon="2.65273">
        <ele>786.98</ele>
        <time>2022-07-16T06:46:42Z</time>
      </trkpt>
      <trkpt lat="44.18288" lon="2.65267">
        <ele>786.98</ele>
        <time>2022-07-16T06:46:50Z</time>
      </trkpt>
      <trkpt lat="44.1828" lon="2.65258">
        <ele>786.5</ele>
        <time>2022-07-16T06:46:58Z</time>
      </trkpt>
      <trkpt lat="44.1827" lon="2.65249">
        <ele>786.98</ele>
        <time>2022-07-16T06:47:05Z</time>
      </trkpt>
      <trkpt lat="44.18262" lon="2.6524">
        <ele>786.98</ele>
        <time>2022-07-16T06:47:12Z</time>
      </trkpt>
      <trkpt lat="44.18256" lon="2.65229">
        <ele>787.46</ele>
        <time>2022-07-16T06:47:20Z</time>
      </trkpt>
      <trkpt lat="44.18251" lon="2.65216">
        <ele>787.46</ele>
        <time>2022-07-16T06:47:28Z</time>
      </trkpt>
      <trkpt lat="44.18247" lon="2.65202">
        <ele>786.98</ele>
        <time>2022-07-16T06:47:36Z</time>
      </trkpt>
      <trkpt lat="44.18244" lon="2.65188">
        <ele>786.02</ele>
        <time>2022-07-16T06:47:44Z</time>
      </trkpt>
      <trkpt lat="44.18242" lon="2.65173">
        <ele>785.53</ele>
        <time>2022-07-16T06:47:52Z</time>
      </trkpt>
      <trkpt lat="44.18238" lon="2.65157">
        <ele>784.09</ele>
        <time>2022-07-16T06:48:02Z</time>
      </trkpt>
      <trkpt lat="44.18234" lon="2.65141">
        <ele>784.57</ele>
        <time>2022-07-16T06:48:11Z</time>
      </trkpt>
      <trkpt lat="44.1823" lon="2.65122">
        <ele>788.42</ele>
        <time>2022-07-16T06:48:19Z</time>
      </trkpt>
      <trkpt lat="44.18227" lon="2.65104">
        <ele>789.86</ele>
        <time>2022-07-16T06:48:28Z</time>
      </trkpt>
      <trkpt lat="44.18225" lon="2.65086">
        <ele>791.3</ele>
        <time>2022-07-16T06:48:37Z</time>
      </trkpt>
      <trkpt lat="44.18223" lon="2.65071">
        <ele>792.26</ele>
        <time>2022-07-16T06:48:45Z</time>
      </trkpt>
      <trkpt lat="44.18219" lon="2.65056">
        <ele>790.82</ele>
        <time>2022-07-16T06:48:53Z</time>
      </trkpt>
      <trkpt lat="44.18214" lon="2.65043">
        <ele>791.3</ele>
        <time>2022-07-16T06:49:01Z</time>
      </trkpt>
      <trkpt lat="44.18208" lon="2.65029">
        <ele>791.3</ele>
        <time>2022-07-16T06:49:09Z</time>
      </trkpt>
      <trkpt lat="44.18205" lon="2.65016">
        <ele>789.86</ele>
        <time>2022-07-16T06:49:17Z</time>
      </trkpt>
      <trkpt lat="44.18199" lon="2.65">
        <ele>789.86</ele>
        <time>2022-07-16T06:49:25Z</time>
      </trkpt>
      <trkpt lat="44.18194" lon="2.64985">
        <ele>790.34</ele>
        <time>2022-07-16T06:49:33Z</time>
      </trkpt>
      <trkpt lat="44.1819" lon="2.6497">
        <ele>790.82</ele>
        <time>2022-07-16T06:49:40Z</time>
      </trkpt>
      <trkpt lat="44.18187" lon="2.64955">
        <ele>792.26</ele>
        <time>2022-07-16T06:49:46Z</time>
      </trkpt>
      <trkpt lat="44.18185" lon="2.64941">
        <ele>793.22</ele>
        <time>2022-07-16T06:49:52Z</time>
      </trkpt>
      <trkpt lat="44.18182" lon="2.64926">
        <ele>794.67</ele>
        <time>2022-07-16T06:49:59Z</time>
      </trkpt>
      <trkpt lat="44.18179" lon="2.64913">
        <ele>795.15</ele>
        <time>2022-07-16T06:50:05Z</time>
      </trkpt>
      <trkpt lat="44.18177" lon="2.649">
        <ele>795.63</ele>
        <time>2022-07-16T06:50:12Z</time>
      </trkpt>
      <trkpt lat="44.18174" lon="2.64886">
        <ele>795.15</ele>
        <time>2022-07-16T06:50:19Z</time>
      </trkpt>
      <trkpt lat="44.18172" lon="2.64873">
        <ele>795.15</ele>
        <time>2022-07-16T06:50:25Z</time>
      </trkpt>
      <trkpt lat="44.1817" lon="2.6486">
        <ele>794.19</ele>
        <time>2022-07-16T06:50:31Z</time>
      </trkpt>
      <trkpt lat="44.18168" lon="2.64847">
        <ele>793.71</ele>
        <time>2022-07-16T06:50:37Z</time>
      </trkpt>
      <trkpt lat="44.18166" lon="2.64834">
        <ele>793.22</ele>
        <time>2022-07-16T06:50:43Z</time>
      </trkpt>
      <trkpt lat="44.18165" lon="2.64821">
        <ele>792.26</ele>
        <time>2022-07-16T06:50:49Z</time>
      </trkpt>
      <trkpt lat="44.18163" lon="2.64807">
        <ele>791.78</ele>
        <time>2022-07-16T06:50:56Z</time>
      </trkpt>
      <trkpt lat="44.18162" lon="2.64793">
        <ele>790.82</ele>
        <time>2022-07-16T06:51:03Z</time>
      </trkpt>
      <trkpt lat="44.18162" lon="2.64779">
        <ele>790.82</ele>
        <time>2022-07-16T06:51:10Z</time>
      </trkpt>
      <trkpt lat="44.18161" lon="2.64764">
        <ele>790.82</ele>
        <time>2022-07-16T06:51:15Z</time>
      </trkpt>
      <trkpt lat="44.1816" lon="2.64751">
        <ele>791.3</ele>
        <time>2022-07-16T06:51:19Z</time>
      </trkpt>
      <trkpt lat="44.18159" lon="2.64738">
        <ele>790.82</ele>
        <time>2022-07-16T06:51:26Z</time>
      </trkpt>
      <trkpt lat="44.18159" lon="2.64724">
        <ele>790.82</ele>
        <time>2022-07-16T06:51:33Z</time>
      </trkpt>
      <trkpt lat="44.18158" lon="2.6471">
        <ele>791.3</ele>
        <time>2022-07-16T06:51:40Z</time>
      </trkpt>
      <trkpt lat="44.18157" lon="2.64696">
        <ele>792.26</ele>
        <time>2022-07-16T06:51:46Z</time>
      </trkpt>
      <trkpt lat="44.18156" lon="2.64681">
        <ele>792.74</ele>
        <time>2022-07-16T06:51:53Z</time>
      </trkpt>
      <trkpt lat="44.18154" lon="2.64667">
        <ele>792.74</ele>
        <time>2022-07-16T06:52:00Z</time>
      </trkpt>
      <trkpt lat="44.18153" lon="2.64652">
        <ele>792.26</ele>
        <time>2022-07-16T06:52:07Z</time>
      </trkpt>
      <trkpt lat="44.18151" lon="2.64637">
        <ele>791.3</ele>
        <time>2022-07-16T06:52:14Z</time>
      </trkpt>
      <trkpt lat="44.1815" lon="2.64622">
        <ele>791.3</ele>
        <time>2022-07-16T06:52:21Z</time>
      </trkpt>
      <trkpt lat="44.18149" lon="2.64608">
        <ele>791.3</ele>
        <time>2022-07-16T06:52:27Z</time>
      </trkpt>
      <trkpt lat="44.18148" lon="2.64595">
        <ele>791.78</ele>
        <time>2022-07-16T06:52:33Z</time>
      </trkpt>
      <trkpt lat="44.18147" lon="2.6458">
        <ele>791.78</ele>
        <time>2022-07-16T06:52:40Z</time>
      </trkpt>
      <trkpt lat="44.18146" lon="2.64568">
        <ele>791.78</ele>
        <time>2022-07-16T06:52:46Z</time>
      </trkpt>
      <trkpt lat="44.18145" lon="2.64555">
        <ele>792.26</ele>
        <time>2022-07-16T06:52:52Z</time>
      </trkpt>
      <trkpt lat="44.18144" lon="2.64541">
        <ele>791.78</ele>
        <time>2022-07-16T06:52:59Z</time>
      </trkpt>
      <trkpt lat="44.18142" lon="2.64527">
        <ele>791.78</ele>
        <time>2022-07-16T06:53:06Z</time>
      </trkpt>
      <trkpt lat="44.18141" lon="2.64513">
        <ele>791.3</ele>
        <time>2022-07-16T06:53:13Z</time>
      </trkpt>
      <trkpt lat="44.18139" lon="2.64498">
        <ele>790.82</ele>
        <time>2022-07-16T06:53:22Z</time>
      </trkpt>
      <trkpt lat="44.18141" lon="2.6448">
        <ele>787.94</ele>
        <time>2022-07-16T06:53:33Z</time>
      </trkpt>
      <trkpt lat="44.18147" lon="2.64456">
        <ele>784.09</ele>
        <time>2022-07-16T06:53:48Z</time>
      </trkpt>
      <trkpt lat="44.18156" lon="2.64441">
        <ele>781.69</ele>
        <time>2022-07-16T06:53:59Z</time>
      </trkpt>
      <trkpt lat="44.18165" lon="2.64426">
        <ele>781.69</ele>
        <time>2022-07-16T06:54:08Z</time>
      </trkpt>
      <trkpt lat="44.18172" lon="2.64408">
        <ele>782.17</ele>
        <time>2022-07-16T06:54:17Z</time>
      </trkpt>
      <trkpt lat="44.18179" lon="2.64394">
        <ele>781.21</ele>
        <time>2022-07-16T06:54:26Z</time>
      </trkpt>
      <trkpt lat="44.18185" lon="2.64378">
        <ele>782.65</ele>
        <time>2022-07-16T06:54:34Z</time>
      </trkpt>
      <trkpt lat="44.1819" lon="2.64364">
        <ele>782.65</ele>
        <time>2022-07-16T06:54:42Z</time>
      </trkpt>
      <trkpt lat="44.18195" lon="2.64348">
        <ele>785.05</ele>
        <time>2022-07-16T06:54:49Z</time>
      </trkpt>
      <trkpt lat="44.182" lon="2.64337">
        <ele>786.5</ele>
        <time>2022-07-16T06:54:56Z</time>
      </trkpt>
      <trkpt lat="44.18206" lon="2.64325">
        <ele>787.94</ele>
        <time>2022-07-16T06:55:04Z</time>
      </trkpt>
      <trkpt lat="44.1821" lon="2.64313">
        <ele>788.9</ele>
        <time>2022-07-16T06:55:11Z</time>
      </trkpt>
      <trkpt lat="44.18215" lon="2.64302">
        <ele>789.38</ele>
        <time>2022-07-16T06:55:18Z</time>
      </trkpt>
      <trkpt lat="44.1822" lon="2.6429">
        <ele>789.38</ele>
        <time>2022-07-16T06:55:26Z</time>
      </trkpt>
      <trkpt lat="44.18225" lon="2.64279">
        <ele>789.86</ele>
        <time>2022-07-16T06:55:33Z</time>
      </trkpt>
      <trkpt lat="44.18231" lon="2.64267">
        <ele>789.86</ele>
        <time>2022-07-16T06:55:40Z</time>
      </trkpt>
      <trkpt lat="44.18236" lon="2.64255">
        <ele>789.38</ele>
        <time>2022-07-16T06:55:48Z</time>
      </trkpt>
      <trkpt lat="44.18241" lon="2.64243">
        <ele>789.38</ele>
        <time>2022-07-16T06:55:55Z</time>
      </trkpt>
      <trkpt lat="44.18246" lon="2.64232">
        <ele>789.38</ele>
        <time>2022-07-16T06:56:02Z</time>
      </trkpt>
      <trkpt lat="44.18252" lon="2.64219">
        <ele>788.9</ele>
        <time>2022-07-16T06:56:10Z</time>
      </trkpt>
      <trkpt lat="44.18258" lon="2.64203">
        <ele>788.42</ele>
        <time>2022-07-16T06:56:20Z</time>
      </trkpt>
      <trkpt lat="44.18265" lon="2.64189">
        <ele>786.5</ele>
        <time>2022-07-16T06:56:29Z</time>
      </trkpt>
      <trkpt lat="44.18272" lon="2.64178">
        <ele>784.09</ele>
        <time>2022-07-16T06:56:37Z</time>
      </trkpt>
      <trkpt lat="44.18279" lon="2.64167">
        <ele>782.17</ele>
        <time>2022-07-16T06:56:46Z</time>
      </trkpt>
      <trkpt lat="44.18286" lon="2.64155">
        <ele>781.21</ele>
        <time>2022-07-16T06:56:54Z</time>
      </trkpt>
      <trkpt lat="44.18293" lon="2.64143">
        <ele>779.77</ele>
        <time>2022-07-16T06:57:02Z</time>
      </trkpt>
      <trkpt lat="44.183" lon="2.64129">
        <ele>777.84</ele>
        <time>2022-07-16T06:57:12Z</time>
      </trkpt>
      <trkpt lat="44.18308" lon="2.64117">
        <ele>774.48</ele>
        <time>2022-07-16T06:57:22Z</time>
      </trkpt>
      <trkpt lat="44.18315" lon="2.64101">
        <ele>773.52</ele>
        <time>2022-07-16T06:57:31Z</time>
      </trkpt>
      <trkpt lat="44.18321" lon="2.64079">
        <ele>777.84</ele>
        <time>2022-07-16T06:57:40Z</time>
      </trkpt>
      <trkpt lat="44.18328" lon="2.64055">
        <ele>779.77</ele>
        <time>2022-07-16T06:57:53Z</time>
      </trkpt>
      <trkpt lat="44.18334" lon="2.64034">
        <ele>774.48</ele>
        <time>2022-07-16T06:58:07Z</time>
      </trkpt>
      <trkpt lat="44.18337" lon="2.64011">
        <ele>768.71</ele>
        <time>2022-07-16T06:58:20Z</time>
      </trkpt>
      <trkpt lat="44.18339" lon="2.63991">
        <ele>768.23</ele>
        <time>2022-07-16T06:58:30Z</time>
      </trkpt>
      <trkpt lat="44.18338" lon="2.63962">
        <ele>777.36</ele>
        <time>2022-07-16T06:58:40Z</time>
      </trkpt>
      <trkpt lat="44.18339" lon="2.63947">
        <ele>776.4</ele>
        <time>2022-07-16T06:58:48Z</time>
      </trkpt>
      <trkpt lat="44.18339" lon="2.63927">
        <ele>778.32</ele>
        <time>2022-07-16T06:59:11Z</time>
      </trkpt>
      <trkpt lat="44.18339" lon="2.63913">
        <ele>778.81</ele>
        <time>2022-07-16T06:59:19Z</time>
      </trkpt>
      <trkpt lat="44.18339" lon="2.63898">
        <ele>779.29</ele>
        <time>2022-07-16T06:59:29Z</time>
      </trkpt>
      <trkpt lat="44.18342" lon="2.63884">
        <ele>777.84</ele>
        <time>2022-07-16T06:59:40Z</time>
      </trkpt>
      <trkpt lat="44.18341" lon="2.63864">
        <ele>778.81</ele>
        <time>2022-07-16T07:00:02Z</time>
      </trkpt>
      <trkpt lat="44.18339" lon="2.63849">
        <ele>777.84</ele>
        <time>2022-07-16T07:00:13Z</time>
      </trkpt>
      <trkpt lat="44.18338" lon="2.63835">
        <ele>776.88</ele>
        <time>2022-07-16T07:00:23Z</time>
      </trkpt>
      <trkpt lat="44.18336" lon="2.63821">
        <ele>773.04</ele>
        <time>2022-07-16T07:00:35Z</time>
      </trkpt>
      <trkpt lat="44.18334" lon="2.63806">
        <ele>771.6</ele>
        <time>2022-07-16T07:00:44Z</time>
      </trkpt>
      <trkpt lat="44.18329" lon="2.63795">
        <ele>771.11</ele>
        <time>2022-07-16T07:00:52Z</time>
      </trkpt>
      <trkpt lat="44.18323" lon="2.63782">
        <ele>770.15</ele>
        <time>2022-07-16T07:01:01Z</time>
      </trkpt>
      <trkpt lat="44.18318" lon="2.63769">
        <ele>768.71</ele>
        <time>2022-07-16T07:01:11Z</time>
      </trkpt>
      <trkpt lat="44.18314" lon="2.63754">
        <ele>767.27</ele>
        <time>2022-07-16T07:01:22Z</time>
      </trkpt>
      <trkpt lat="44.18309" lon="2.63738">
        <ele>764.87</ele>
        <time>2022-07-16T07:01:34Z</time>
      </trkpt>
      <trkpt lat="44.18301" lon="2.63722">
        <ele>763.42</ele>
        <time>2022-07-16T07:01:44Z</time>
      </trkpt>
      <trkpt lat="44.18296" lon="2.63709">
        <ele>760.06</ele>
        <time>2022-07-16T07:01:54Z</time>
      </trkpt>
      <trkpt lat="44.18292" lon="2.63694">
        <ele>756.21</ele>
        <time>2022-07-16T07:02:04Z</time>
      </trkpt>
      <trkpt lat="44.18286" lon="2.63678">
        <ele>755.73</ele>
        <time>2022-07-16T07:02:15Z</time>
      </trkpt>
      <trkpt lat="44.18277" lon="2.63663">
        <ele>757.18</ele>
        <time>2022-07-16T07:02:26Z</time>
      </trkpt>
      <trkpt lat="44.18269" lon="2.63649">
        <ele>759.1</ele>
        <time>2022-07-16T07:02:35Z</time>
      </trkpt>
      <trkpt lat="44.18263" lon="2.63635">
        <ele>760.06</ele>
        <time>2022-07-16T07:02:44Z</time>
      </trkpt>
      <trkpt lat="44.18257" lon="2.63621">
        <ele>759.1</ele>
        <time>2022-07-16T07:02:54Z</time>
      </trkpt>
      <trkpt lat="44.18252" lon="2.63606">
        <ele>755.73</ele>
        <time>2022-07-16T07:03:05Z</time>
      </trkpt>
      <trkpt lat="44.18248" lon="2.6359">
        <ele>754.29</ele>
        <time>2022-07-16T07:03:16Z</time>
      </trkpt>
      <trkpt lat="44.18242" lon="2.63574">
        <ele>753.33</ele>
        <time>2022-07-16T07:03:27Z</time>
      </trkpt>
      <trkpt lat="44.18236" lon="2.6356">
        <ele>753.81</ele>
        <time>2022-07-16T07:03:36Z</time>
      </trkpt>
      <trkpt lat="44.1823" lon="2.63547">
        <ele>752.85</ele>
        <time>2022-07-16T07:03:46Z</time>
      </trkpt>
      <trkpt lat="44.18222" lon="2.63531">
        <ele>754.29</ele>
        <time>2022-07-16T07:03:58Z</time>
      </trkpt>
      <trkpt lat="44.18216" lon="2.63514">
        <ele>763.9</ele>
        <time>2022-07-16T07:04:54Z</time>
      </trkpt>
      <trkpt lat="44.18214" lon="2.635">
        <ele>762.46</ele>
        <time>2022-07-16T07:05:03Z</time>
      </trkpt>
      <trkpt lat="44.18212" lon="2.63486">
        <ele>761.98</ele>
        <time>2022-07-16T07:05:11Z</time>
      </trkpt>
      <trkpt lat="44.18207" lon="2.63471">
        <ele>761.5</ele>
        <time>2022-07-16T07:05:20Z</time>
      </trkpt>
      <trkpt lat="44.18203" lon="2.63457">
        <ele>761.5</ele>
        <time>2022-07-16T07:05:29Z</time>
      </trkpt>
      <trkpt lat="44.18202" lon="2.63443">
        <ele>760.06</ele>
        <time>2022-07-16T07:05:38Z</time>
      </trkpt>
      <trkpt lat="44.18206" lon="2.63429">
        <ele>755.25</ele>
        <time>2022-07-16T07:05:48Z</time>
      </trkpt>
      <trkpt lat="44.18212" lon="2.63416">
        <ele>749.49</ele>
        <time>2022-07-16T07:05:58Z</time>
      </trkpt>
      <trkpt lat="44.18218" lon="2.63401">
        <ele>742.76</ele>
        <time>2022-07-16T07:06:10Z</time>
      </trkpt>
      <trkpt lat="44.18224" lon="2.63381">
        <ele>737.95</ele>
        <time>2022-07-16T07:06:21Z</time>
      </trkpt>
      <trkpt lat="44.18229" lon="2.63363">
        <ele>736.51</ele>
        <time>2022-07-16T07:06:31Z</time>
      </trkpt>
      <trkpt lat="44.18234" lon="2.63346">
        <ele>732.66</ele>
        <time>2022-07-16T07:06:44Z</time>
      </trkpt>
      <trkpt lat="44.18238" lon="2.63327">
        <ele>733.62</ele>
        <time>2022-07-16T07:06:55Z</time>
      </trkpt>
      <trkpt lat="44.18242" lon="2.63313">
        <ele>731.7</ele>
        <time>2022-07-16T07:07:04Z</time>
      </trkpt>
      <trkpt lat="44.18245" lon="2.63298">
        <ele>732.18</ele>
        <time>2022-07-16T07:07:12Z</time>
      </trkpt>
      <trkpt lat="44.18248" lon="2.63283">
        <ele>729.3</ele>
        <time>2022-07-16T07:07:22Z</time>
      </trkpt>
      <trkpt lat="44.18251" lon="2.63266">
        <ele>727.86</ele>
        <time>2022-07-16T07:07:31Z</time>
      </trkpt>
      <trkpt lat="44.18253" lon="2.63248">
        <ele>727.37</ele>
        <time>2022-07-16T07:07:40Z</time>
      </trkpt>
      <trkpt lat="44.18256" lon="2.63231">
        <ele>728.34</ele>
        <time>2022-07-16T07:07:49Z</time>
      </trkpt>
      <trkpt lat="44.18256" lon="2.63212">
        <ele>733.14</ele>
        <time>2022-07-16T07:07:57Z</time>
      </trkpt>
      <trkpt lat="44.18259" lon="2.63196">
        <ele>734.58</ele>
        <time>2022-07-16T07:08:05Z</time>
      </trkpt>
      <trkpt lat="44.1826" lon="2.63181">
        <ele>735.07</ele>
        <time>2022-07-16T07:08:13Z</time>
      </trkpt>
      <trkpt lat="44.18262" lon="2.63168">
        <ele>734.58</ele>
        <time>2022-07-16T07:08:21Z</time>
      </trkpt>
      <trkpt lat="44.18264" lon="2.63153">
        <ele>735.07</ele>
        <time>2022-07-16T07:08:29Z</time>
      </trkpt>
      <trkpt lat="44.18266" lon="2.63138">
        <ele>734.58</ele>
        <time>2022-07-16T07:08:38Z</time>
      </trkpt>
      <trkpt lat="44.18267" lon="2.63123">
        <ele>734.58</ele>
        <time>2022-07-16T07:08:46Z</time>
      </trkpt>
      <trkpt lat="44.18269" lon="2.63109">
        <ele>734.1</ele>
        <time>2022-07-16T07:08:54Z</time>
      </trkpt>
      <trkpt lat="44.18271" lon="2.63093">
        <ele>734.1</ele>
        <time>2022-07-16T07:09:02Z</time>
      </trkpt>
      <trkpt lat="44.18273" lon="2.63076">
        <ele>736.03</ele>
        <time>2022-07-16T07:09:10Z</time>
      </trkpt>
      <trkpt lat="44.18274" lon="2.63062">
        <ele>736.51</ele>
        <time>2022-07-16T07:09:18Z</time>
      </trkpt>
      <trkpt lat="44.18275" lon="2.63047">
        <ele>736.99</ele>
        <time>2022-07-16T07:09:25Z</time>
      </trkpt>
      <trkpt lat="44.18276" lon="2.6303">
        <ele>737.95</ele>
        <time>2022-07-16T07:09:33Z</time>
      </trkpt>
      <trkpt lat="44.18275" lon="2.63015">
        <ele>738.91</ele>
        <time>2022-07-16T07:09:41Z</time>
      </trkpt>
      <trkpt lat="44.18274" lon="2.63">
        <ele>738.43</ele>
        <time>2022-07-16T07:09:49Z</time>
      </trkpt>
      <trkpt lat="44.18272" lon="2.62985">
        <ele>739.87</ele>
        <time>2022-07-16T07:09:57Z</time>
      </trkpt>
      <trkpt lat="44.18271" lon="2.62971">
        <ele>740.35</ele>
        <time>2022-07-16T07:10:05Z</time>
      </trkpt>
      <trkpt lat="44.1827" lon="2.62954">
        <ele>738.91</ele>
        <time>2022-07-16T07:10:14Z</time>
      </trkpt>
      <trkpt lat="44.18267" lon="2.6294">
        <ele>738.43</ele>
        <time>2022-07-16T07:10:21Z</time>
      </trkpt>
      <trkpt lat="44.18264" lon="2.62924">
        <ele>738.43</ele>
        <time>2022-07-16T07:10:30Z</time>
      </trkpt>
      <trkpt lat="44.18262" lon="2.6291">
        <ele>738.91</ele>
        <time>2022-07-16T07:10:38Z</time>
      </trkpt>
      <trkpt lat="44.18259" lon="2.62896">
        <ele>737.47</ele>
        <time>2022-07-16T07:10:47Z</time>
      </trkpt>
      <trkpt lat="44.18257" lon="2.62882">
        <ele>734.1</ele>
        <time>2022-07-16T07:10:56Z</time>
      </trkpt>
      <trkpt lat="44.18254" lon="2.62865">
        <ele>731.22</ele>
        <time>2022-07-16T07:11:06Z</time>
      </trkpt>
      <trkpt lat="44.1825" lon="2.62846">
        <ele>735.07</ele>
        <time>2022-07-16T07:11:13Z</time>
      </trkpt>
      <trkpt lat="44.18247" lon="2.62832">
        <ele>736.51</ele>
        <time>2022-07-16T07:11:21Z</time>
      </trkpt>
      <trkpt lat="44.18245" lon="2.62816">
        <ele>735.07</ele>
        <time>2022-07-16T07:11:30Z</time>
      </trkpt>
      <trkpt lat="44.18242" lon="2.62799">
        <ele>734.1</ele>
        <time>2022-07-16T07:11:39Z</time>
      </trkpt>
      <trkpt lat="44.18239" lon="2.62783">
        <ele>732.18</ele>
        <time>2022-07-16T07:11:49Z</time>
      </trkpt>
      <trkpt lat="44.18237" lon="2.62768">
        <ele>729.3</ele>
        <time>2022-07-16T07:11:58Z</time>
      </trkpt>
      <trkpt lat="44.18233" lon="2.62755">
        <ele>729.3</ele>
        <time>2022-07-16T07:12:05Z</time>
      </trkpt>
      <trkpt lat="44.18229" lon="2.6274">
        <ele>729.3</ele>
        <time>2022-07-16T07:12:13Z</time>
      </trkpt>
      <trkpt lat="44.18225" lon="2.62728">
        <ele>728.82</ele>
        <time>2022-07-16T07:12:21Z</time>
      </trkpt>
      <trkpt lat="44.1822" lon="2.62715">
        <ele>727.37</ele>
        <time>2022-07-16T07:12:30Z</time>
      </trkpt>
      <trkpt lat="44.18215" lon="2.62699">
        <ele>726.41</ele>
        <time>2022-07-16T07:12:38Z</time>
      </trkpt>
      <trkpt lat="44.1821" lon="2.62685">
        <ele>727.86</ele>
        <time>2022-07-16T07:12:45Z</time>
      </trkpt>
      <trkpt lat="44.18203" lon="2.62668">
        <ele>729.3</ele>
        <time>2022-07-16T07:12:54Z</time>
      </trkpt>
      <trkpt lat="44.18197" lon="2.62654">
        <ele>729.3</ele>
        <time>2022-07-16T07:13:03Z</time>
      </trkpt>
      <trkpt lat="44.18189" lon="2.62643">
        <ele>729.3</ele>
        <time>2022-07-16T07:13:11Z</time>
      </trkpt>
      <trkpt lat="44.18183" lon="2.62632">
        <ele>729.3</ele>
        <time>2022-07-16T07:13:18Z</time>
      </trkpt>
      <trkpt lat="44.18175" lon="2.62621">
        <ele>730.26</ele>
        <time>2022-07-16T07:13:26Z</time>
      </trkpt>
      <trkpt lat="44.18168" lon="2.6261">
        <ele>730.74</ele>
        <time>2022-07-16T07:13:33Z</time>
      </trkpt>
      <trkpt lat="44.18161" lon="2.62599">
        <ele>730.74</ele>
        <time>2022-07-16T07:13:41Z</time>
      </trkpt>
      <trkpt lat="44.18154" lon="2.62588">
        <ele>731.22</ele>
        <time>2022-07-16T07:13:49Z</time>
      </trkpt>
      <trkpt lat="44.18147" lon="2.62576">
        <ele>730.74</ele>
        <time>2022-07-16T07:13:57Z</time>
      </trkpt>
      <trkpt lat="44.1814" lon="2.62566">
        <ele>730.74</ele>
        <time>2022-07-16T07:14:05Z</time>
      </trkpt>
      <trkpt lat="44.18133" lon="2.62556">
        <ele>730.26</ele>
        <time>2022-07-16T07:14:13Z</time>
      </trkpt>
      <trkpt lat="44.18126" lon="2.62544">
        <ele>728.82</ele>
        <time>2022-07-16T07:14:21Z</time>
      </trkpt>
      <trkpt lat="44.18119" lon="2.62534">
        <ele>728.82</ele>
        <time>2022-07-16T07:14:28Z</time>
      </trkpt>
      <trkpt lat="44.18112" lon="2.62524">
        <ele>728.34</ele>
        <time>2022-07-16T07:14:36Z</time>
      </trkpt>
      <trkpt lat="44.18103" lon="2.62517">
        <ele>727.86</ele>
        <time>2022-07-16T07:14:44Z</time>
      </trkpt>
      <trkpt lat="44.18094" lon="2.62512">
        <ele>727.86</ele>
        <time>2022-07-16T07:14:52Z</time>
      </trkpt>
      <trkpt lat="44.18084" lon="2.62506">
        <ele>726.89</ele>
        <time>2022-07-16T07:15:00Z</time>
      </trkpt>
      <trkpt lat="44.18077" lon="2.62498">
        <ele>724.49</ele>
        <time>2022-07-16T07:15:09Z</time>
      </trkpt>
      <trkpt lat="44.18069" lon="2.62493">
        <ele>723.53</ele>
        <time>2022-07-16T07:20:05Z</time>
      </trkpt>
      <trkpt lat="44.1807" lon="2.62475">
        <ele>721.61</ele>
        <time>2022-07-16T07:20:20Z</time>
      </trkpt>
      <trkpt lat="44.18065" lon="2.62458">
        <ele>720.65</ele>
        <time>2022-07-16T07:20:30Z</time>
      </trkpt>
      <trkpt lat="44.18071" lon="2.62441">
        <ele>717.76</ele>
        <time>2022-07-16T07:20:42Z</time>
      </trkpt>
      <trkpt lat="44.18072" lon="2.62426">
        <ele>713.92</ele>
        <time>2022-07-16T07:20:52Z</time>
      </trkpt>
      <trkpt lat="44.18073" lon="2.62408">
        <ele>714.4</ele>
        <time>2022-07-16T07:21:01Z</time>
      </trkpt>
      <trkpt lat="44.1808" lon="2.62394">
        <ele>716.8</ele>
        <time>2022-07-16T07:21:10Z</time>
      </trkpt>
      <trkpt lat="44.18086" lon="2.62382">
        <ele>720.16</ele>
        <time>2022-07-16T07:21:18Z</time>
      </trkpt>
      <trkpt lat="44.18096" lon="2.62376">
        <ele>721.61</ele>
        <time>2022-07-16T07:21:26Z</time>
      </trkpt>
      <trkpt lat="44.18112" lon="2.62372">
        <ele>721.13</ele>
        <time>2022-07-16T07:22:02Z</time>
      </trkpt>
      <trkpt lat="44.1812" lon="2.6236">
        <ele>723.05</ele>
        <time>2022-07-16T07:22:38Z</time>
      </trkpt>
      <trkpt lat="44.18127" lon="2.62347">
        <ele>720.16</ele>
        <time>2022-07-16T07:22:47Z</time>
      </trkpt>
      <trkpt lat="44.18135" lon="2.62334">
        <ele>717.76</ele>
        <time>2022-07-16T07:22:56Z</time>
      </trkpt>
      <trkpt lat="44.18145" lon="2.62324">
        <ele>716.32</ele>
        <time>2022-07-16T07:23:06Z</time>
      </trkpt>
      <trkpt lat="44.18156" lon="2.62317">
        <ele>714.88</ele>
        <time>2022-07-16T07:23:15Z</time>
      </trkpt>
      <trkpt lat="44.18163" lon="2.62289">
        <ele>709.59</ele>
        <time>2022-07-16T07:23:34Z</time>
      </trkpt>
      <trkpt lat="44.18159" lon="2.62261">
        <ele>703.34</ele>
        <time>2022-07-16T07:23:51Z</time>
      </trkpt>
      <trkpt lat="44.18156" lon="2.62239">
        <ele>695.65</ele>
        <time>2022-07-16T07:24:07Z</time>
      </trkpt>
      <trkpt lat="44.18149" lon="2.62217">
        <ele>690.36</ele>
        <time>2022-07-16T07:24:21Z</time>
      </trkpt>
      <trkpt lat="44.18143" lon="2.62196">
        <ele>686.52</ele>
        <time>2022-07-16T07:24:35Z</time>
      </trkpt>
      <trkpt lat="44.18133" lon="2.62176">
        <ele>687</ele>
        <time>2022-07-16T07:24:49Z</time>
      </trkpt>
      <trkpt lat="44.18122" lon="2.62155">
        <ele>679.31</ele>
        <time>2022-07-16T07:25:06Z</time>
      </trkpt>
      <trkpt lat="44.18115" lon="2.62139">
        <ele>674.02</ele>
        <time>2022-07-16T07:25:17Z</time>
      </trkpt>
      <trkpt lat="44.18107" lon="2.62124">
        <ele>674.5</ele>
        <time>2022-07-16T07:25:26Z</time>
      </trkpt>
      <trkpt lat="44.18096" lon="2.62114">
        <ele>676.42</ele>
        <time>2022-07-16T07:25:33Z</time>
      </trkpt>
      <trkpt lat="44.18087" lon="2.62107">
        <ele>678.35</ele>
        <time>2022-07-16T07:25:39Z</time>
      </trkpt>
      <trkpt lat="44.18078" lon="2.621">
        <ele>679.79</ele>
        <time>2022-07-16T07:25:46Z</time>
      </trkpt>
      <trkpt lat="44.18067" lon="2.62093">
        <ele>681.71</ele>
        <time>2022-07-16T07:26:12Z</time>
      </trkpt>
      <trkpt lat="44.18069" lon="2.62078">
        <ele>682.19</ele>
        <time>2022-07-16T07:26:21Z</time>
      </trkpt>
      <trkpt lat="44.18072" lon="2.62064">
        <ele>681.23</ele>
        <time>2022-07-16T07:26:28Z</time>
      </trkpt>
      <trkpt lat="44.18074" lon="2.6205">
        <ele>681.23</ele>
        <time>2022-07-16T07:26:36Z</time>
      </trkpt>
      <trkpt lat="44.18076" lon="2.62036">
        <ele>680.75</ele>
        <time>2022-07-16T07:26:44Z</time>
      </trkpt>
      <trkpt lat="44.18079" lon="2.62022">
        <ele>679.31</ele>
        <time>2022-07-16T07:26:52Z</time>
      </trkpt>
      <trkpt lat="44.18082" lon="2.62006">
        <ele>678.35</ele>
        <time>2022-07-16T07:27:00Z</time>
      </trkpt>
      <trkpt lat="44.18084" lon="2.61991">
        <ele>677.87</ele>
        <time>2022-07-16T07:27:08Z</time>
      </trkpt>
      <trkpt lat="44.18087" lon="2.61977">
        <ele>676.91</ele>
        <time>2022-07-16T07:27:16Z</time>
      </trkpt>
      <trkpt lat="44.18089" lon="2.61964">
        <ele>675.94</ele>
        <time>2022-07-16T07:27:24Z</time>
      </trkpt>
      <trkpt lat="44.1809" lon="2.6195">
        <ele>674.98</ele>
        <time>2022-07-16T07:27:31Z</time>
      </trkpt>
      <trkpt lat="44.18089" lon="2.61935">
        <ele>673.54</ele>
        <time>2022-07-16T07:27:38Z</time>
      </trkpt>
      <trkpt lat="44.18094" lon="2.61922">
        <ele>671.62</ele>
        <time>2022-07-16T07:27:46Z</time>
      </trkpt>
      <trkpt lat="44.18105" lon="2.61908">
        <ele>670.66</ele>
        <time>2022-07-16T07:27:55Z</time>
      </trkpt>
      <trkpt lat="44.18117" lon="2.61907">
        <ele>672.1</ele>
        <time>2022-07-16T07:28:03Z</time>
      </trkpt>
      <trkpt lat="44.18127" lon="2.6191">
        <ele>672.58</ele>
        <time>2022-07-16T07:28:10Z</time>
      </trkpt>
      <trkpt lat="44.18138" lon="2.61911">
        <ele>673.06</ele>
        <time>2022-07-16T07:28:17Z</time>
      </trkpt>
      <trkpt lat="44.18148" lon="2.61911">
        <ele>673.54</ele>
        <time>2022-07-16T07:28:24Z</time>
      </trkpt>
      <trkpt lat="44.18159" lon="2.61912">
        <ele>672.1</ele>
        <time>2022-07-16T07:28:31Z</time>
      </trkpt>
      <trkpt lat="44.18169" lon="2.61913">
        <ele>671.14</ele>
        <time>2022-07-16T07:28:38Z</time>
      </trkpt>
      <trkpt lat="44.18179" lon="2.61915">
        <ele>670.18</ele>
        <time>2022-07-16T07:28:45Z</time>
      </trkpt>
      <trkpt lat="44.18189" lon="2.61916">
        <ele>668.73</ele>
        <time>2022-07-16T07:28:51Z</time>
      </trkpt>
      <trkpt lat="44.18199" lon="2.61917">
        <ele>668.73</ele>
        <time>2022-07-16T07:28:58Z</time>
      </trkpt>
      <trkpt lat="44.1821" lon="2.61918">
        <ele>667.29</ele>
        <time>2022-07-16T07:29:05Z</time>
      </trkpt>
      <trkpt lat="44.1822" lon="2.6192">
        <ele>665.85</ele>
        <time>2022-07-16T07:29:12Z</time>
      </trkpt>
      <trkpt lat="44.18229" lon="2.61922">
        <ele>664.89</ele>
        <time>2022-07-16T07:29:19Z</time>
      </trkpt>
      <trkpt lat="44.1824" lon="2.61921">
        <ele>663.45</ele>
        <time>2022-07-16T07:29:27Z</time>
      </trkpt>
      <trkpt lat="44.1825" lon="2.61919">
        <ele>662.01</ele>
        <time>2022-07-16T07:29:34Z</time>
      </trkpt>
      <trkpt lat="44.18265" lon="2.6191">
        <ele>661.52</ele>
        <time>2022-07-16T07:29:49Z</time>
      </trkpt>
      <trkpt lat="44.18275" lon="2.61901">
        <ele>662.01</ele>
        <time>2022-07-16T07:29:59Z</time>
      </trkpt>
      <trkpt lat="44.18285" lon="2.61891">
        <ele>662.49</ele>
        <time>2022-07-16T07:30:08Z</time>
      </trkpt>
      <trkpt lat="44.18303" lon="2.61876">
        <ele>662.49</ele>
        <time>2022-07-16T07:30:24Z</time>
      </trkpt>
      <trkpt lat="44.18319" lon="2.61857">
        <ele>662.49</ele>
        <time>2022-07-16T07:30:39Z</time>
      </trkpt>
      <trkpt lat="44.18331" lon="2.61832">
        <ele>662.01</ele>
        <time>2022-07-16T07:30:53Z</time>
      </trkpt>
      <trkpt lat="44.18334" lon="2.61814">
        <ele>657.68</ele>
        <time>2022-07-16T07:31:02Z</time>
      </trkpt>
      <trkpt lat="44.18338" lon="2.61798">
        <ele>655.28</ele>
        <time>2022-07-16T07:31:10Z</time>
      </trkpt>
      <trkpt lat="44.18345" lon="2.61775">
        <ele>654.8</ele>
        <time>2022-07-16T07:31:24Z</time>
      </trkpt>
      <trkpt lat="44.18359" lon="2.61776">
        <ele>657.2</ele>
        <time>2022-07-16T07:31:35Z</time>
      </trkpt>
      <trkpt lat="44.18371" lon="2.61794">
        <ele>658.64</ele>
        <time>2022-07-16T07:31:46Z</time>
      </trkpt>
      <trkpt lat="44.18381" lon="2.61807">
        <ele>657.68</ele>
        <time>2022-07-16T07:31:55Z</time>
      </trkpt>
      <trkpt lat="44.18391" lon="2.6182">
        <ele>652.87</ele>
        <time>2022-07-16T07:32:06Z</time>
      </trkpt>
      <trkpt lat="44.18402" lon="2.61825">
        <ele>651.43</ele>
        <time>2022-07-16T07:32:15Z</time>
      </trkpt>
      <trkpt lat="44.18418" lon="2.6182">
        <ele>650.47</ele>
        <time>2022-07-16T07:32:27Z</time>
      </trkpt>
      <trkpt lat="44.1843" lon="2.61819">
        <ele>648.55</ele>
        <time>2022-07-16T07:32:36Z</time>
      </trkpt>
      <trkpt lat="44.18442" lon="2.61817">
        <ele>647.59</ele>
        <time>2022-07-16T07:32:45Z</time>
      </trkpt>
      <trkpt lat="44.18456" lon="2.61815">
        <ele>647.59</ele>
        <time>2022-07-16T07:32:54Z</time>
      </trkpt>
      <trkpt lat="44.18472" lon="2.61812">
        <ele>648.07</ele>
        <time>2022-07-16T07:33:04Z</time>
      </trkpt>
      <trkpt lat="44.18489" lon="2.6181">
        <ele>648.55</ele>
        <time>2022-07-16T07:33:15Z</time>
      </trkpt>
      <trkpt lat="44.18502" lon="2.61808">
        <ele>649.03</ele>
        <time>2022-07-16T07:33:24Z</time>
      </trkpt>
      <trkpt lat="44.1852" lon="2.61807">
        <ele>650.95</ele>
        <time>2022-07-16T07:33:37Z</time>
      </trkpt>
      <trkpt lat="44.18545" lon="2.61816">
        <ele>649.03</ele>
        <time>2022-07-16T07:33:53Z</time>
      </trkpt>
      <trkpt lat="44.18559" lon="2.6182">
        <ele>648.55</ele>
        <time>2022-07-16T07:34:02Z</time>
      </trkpt>
      <trkpt lat="44.18597" lon="2.61751">
        <ele>649.03</ele>
        <time>2022-07-16T07:34:50Z</time>
      </trkpt>
      <trkpt lat="44.18606" lon="2.61739">
        <ele>647.59</ele>
        <time>2022-07-16T07:34:58Z</time>
      </trkpt>
      <trkpt lat="44.18673" lon="2.61657">
        <ele>649.99</ele>
        <time>2022-07-16T07:36:04Z</time>
      </trkpt>
      <trkpt lat="44.18685" lon="2.61646">
        <ele>650.95</ele>
        <time>2022-07-16T07:36:14Z</time>
      </trkpt>
      <trkpt lat="44.18697" lon="2.61623">
        <ele>653.83</ele>
        <time>2022-07-16T07:36:28Z</time>
      </trkpt>
      <trkpt lat="44.18701" lon="2.61609">
        <ele>653.35</ele>
        <time>2022-07-16T07:36:36Z</time>
      </trkpt>
      <trkpt lat="44.18706" lon="2.61594">
        <ele>651.91</ele>
        <time>2022-07-16T07:36:44Z</time>
      </trkpt>
      <trkpt lat="44.18712" lon="2.61577">
        <ele>653.35</ele>
        <time>2022-07-16T07:36:53Z</time>
      </trkpt>
      <trkpt lat="44.18719" lon="2.61563">
        <ele>653.35</ele>
        <time>2022-07-16T07:37:01Z</time>
      </trkpt>
      <trkpt lat="44.18728" lon="2.61549">
        <ele>653.35</ele>
        <time>2022-07-16T07:37:11Z</time>
      </trkpt>
      <trkpt lat="44.18735" lon="2.61532">
        <ele>652.39</ele>
        <time>2022-07-16T07:37:21Z</time>
      </trkpt>
      <trkpt lat="44.18742" lon="2.61516">
        <ele>649.99</ele>
        <time>2022-07-16T07:37:31Z</time>
      </trkpt>
      <trkpt lat="44.18749" lon="2.61496">
        <ele>648.55</ele>
        <time>2022-07-16T07:37:41Z</time>
      </trkpt>
      <trkpt lat="44.18755" lon="2.61472">
        <ele>647.59</ele>
        <time>2022-07-16T07:37:53Z</time>
      </trkpt>
      <trkpt lat="44.188" lon="2.61434">
        <ele>649.99</ele>
        <time>2022-07-16T07:38:34Z</time>
      </trkpt>
      <trkpt lat="44.18819" lon="2.61404">
        <ele>654.8</ele>
        <time>2022-07-16T07:38:55Z</time>
      </trkpt>
      <trkpt lat="44.18891" lon="2.6134">
        <ele>668.25</ele>
        <time>2022-07-16T07:39:56Z</time>
      </trkpt>
      <trkpt lat="44.18901" lon="2.61331">
        <ele>668.73</ele>
        <time>2022-07-16T07:40:05Z</time>
      </trkpt>
      <trkpt lat="44.18927" lon="2.61306">
        <ele>671.62</ele>
        <time>2022-07-16T07:40:30Z</time>
      </trkpt>
      <trkpt lat="44.18948" lon="2.61296">
        <ele>674.5</ele>
        <time>2022-07-16T07:40:43Z</time>
      </trkpt>
      <trkpt lat="44.18971" lon="2.61285">
        <ele>681.71</ele>
        <time>2022-07-16T07:40:58Z</time>
      </trkpt>
      <trkpt lat="44.18979" lon="2.6127">
        <ele>682.67</ele>
        <time>2022-07-16T07:41:07Z</time>
      </trkpt>
      <trkpt lat="44.18987" lon="2.61247">
        <ele>684.12</ele>
        <time>2022-07-16T07:41:20Z</time>
      </trkpt>
      <trkpt lat="44.19003" lon="2.61208">
        <ele>684.12</ele>
        <time>2022-07-16T07:41:45Z</time>
      </trkpt>
      <trkpt lat="44.19011" lon="2.61177">
        <ele>687</ele>
        <time>2022-07-16T07:42:00Z</time>
      </trkpt>
      <trkpt lat="44.19019" lon="2.61153">
        <ele>690.84</ele>
        <time>2022-07-16T07:42:17Z</time>
      </trkpt>
      <trkpt lat="44.1902" lon="2.61141">
        <ele>696.13</ele>
        <time>2022-07-16T07:42:27Z</time>
      </trkpt>
      <trkpt lat="44.19012" lon="2.61132">
        <ele>697.09</ele>
        <time>2022-07-16T07:42:35Z</time>
      </trkpt>
      <trkpt lat="44.19011" lon="2.61118">
        <ele>696.61</ele>
        <time>2022-07-16T07:42:44Z</time>
      </trkpt>
      <trkpt lat="44.19023" lon="2.61114">
        <ele>695.65</ele>
        <time>2022-07-16T07:42:55Z</time>
      </trkpt>
      <trkpt lat="44.19035" lon="2.61117">
        <ele>694.69</ele>
        <time>2022-07-16T07:43:04Z</time>
      </trkpt>
      <trkpt lat="44.19046" lon="2.6112">
        <ele>694.21</ele>
        <time>2022-07-16T07:43:12Z</time>
      </trkpt>
      <trkpt lat="44.19057" lon="2.61114">
        <ele>693.73</ele>
        <time>2022-07-16T07:43:21Z</time>
      </trkpt>
      <trkpt lat="44.19067" lon="2.61104">
        <ele>693.73</ele>
        <time>2022-07-16T07:43:30Z</time>
      </trkpt>
      <trkpt lat="44.19077" lon="2.61094">
        <ele>692.77</ele>
        <time>2022-07-16T07:43:38Z</time>
      </trkpt>
      <trkpt lat="44.19088" lon="2.61086">
        <ele>691.81</ele>
        <time>2022-07-16T07:43:47Z</time>
      </trkpt>
      <trkpt lat="44.19099" lon="2.6108">
        <ele>690.84</ele>
        <time>2022-07-16T07:43:55Z</time>
      </trkpt>
      <trkpt lat="44.19111" lon="2.61072">
        <ele>689.88</ele>
        <time>2022-07-16T07:44:05Z</time>
      </trkpt>
      <trkpt lat="44.19122" lon="2.61065">
        <ele>690.36</ele>
        <time>2022-07-16T07:44:14Z</time>
      </trkpt>
      <trkpt lat="44.1913" lon="2.61055">
        <ele>693.25</ele>
        <time>2022-07-16T07:44:22Z</time>
      </trkpt>
      <trkpt lat="44.1914" lon="2.61041">
        <ele>695.65</ele>
        <time>2022-07-16T07:44:32Z</time>
      </trkpt>
      <trkpt lat="44.1915" lon="2.61034">
        <ele>695.65</ele>
        <time>2022-07-16T07:44:39Z</time>
      </trkpt>
      <trkpt lat="44.19162" lon="2.61029">
        <ele>693.73</ele>
        <time>2022-07-16T07:44:46Z</time>
      </trkpt>
      <trkpt lat="44.19172" lon="2.61023">
        <ele>693.25</ele>
        <time>2022-07-16T07:44:53Z</time>
      </trkpt>
      <trkpt lat="44.19184" lon="2.61015">
        <ele>691.81</ele>
        <time>2022-07-16T07:45:03Z</time>
      </trkpt>
      <trkpt lat="44.19195" lon="2.61009">
        <ele>690.84</ele>
        <time>2022-07-16T07:45:14Z</time>
      </trkpt>
      <trkpt lat="44.1921" lon="2.61001">
        <ele>691.33</ele>
        <time>2022-07-16T07:45:22Z</time>
      </trkpt>
      <trkpt lat="44.1922" lon="2.60996">
        <ele>691.33</ele>
        <time>2022-07-16T07:45:29Z</time>
      </trkpt>
      <trkpt lat="44.19229" lon="2.60992">
        <ele>691.33</ele>
        <time>2022-07-16T07:45:36Z</time>
      </trkpt>
      <trkpt lat="44.19239" lon="2.60986">
        <ele>690.36</ele>
        <time>2022-07-16T07:45:44Z</time>
      </trkpt>
      <trkpt lat="44.1925" lon="2.6098">
        <ele>689.4</ele>
        <time>2022-07-16T07:45:52Z</time>
      </trkpt>
      <trkpt lat="44.19262" lon="2.60974">
        <ele>687.48</ele>
        <time>2022-07-16T07:46:03Z</time>
      </trkpt>
      <trkpt lat="44.19274" lon="2.60968">
        <ele>686.04</ele>
        <time>2022-07-16T07:46:13Z</time>
      </trkpt>
      <trkpt lat="44.19296" lon="2.60957">
        <ele>684.12</ele>
        <time>2022-07-16T07:46:28Z</time>
      </trkpt>
      <trkpt lat="44.19315" lon="2.60948">
        <ele>684.6</ele>
        <time>2022-07-16T07:46:37Z</time>
      </trkpt>
      <trkpt lat="44.19325" lon="2.60944">
        <ele>683.63</ele>
        <time>2022-07-16T07:46:46Z</time>
      </trkpt>
      <trkpt lat="44.19337" lon="2.60939">
        <ele>680.75</ele>
        <time>2022-07-16T07:46:55Z</time>
      </trkpt>
      <trkpt lat="44.19349" lon="2.60933">
        <ele>677.87</ele>
        <time>2022-07-16T07:47:05Z</time>
      </trkpt>
      <trkpt lat="44.19362" lon="2.60926">
        <ele>676.42</ele>
        <time>2022-07-16T07:47:14Z</time>
      </trkpt>
      <trkpt lat="44.1938" lon="2.60917">
        <ele>676.42</ele>
        <time>2022-07-16T07:47:23Z</time>
      </trkpt>
      <trkpt lat="44.19393" lon="2.60908">
        <ele>674.98</ele>
        <time>2022-07-16T07:47:34Z</time>
      </trkpt>
      <trkpt lat="44.19402" lon="2.60899">
        <ele>673.06</ele>
        <time>2022-07-16T07:47:43Z</time>
      </trkpt>
      <trkpt lat="44.19409" lon="2.60887">
        <ele>670.66</ele>
        <time>2022-07-16T07:47:50Z</time>
      </trkpt>
      <trkpt lat="44.19414" lon="2.60872">
        <ele>665.85</ele>
        <time>2022-07-16T07:47:58Z</time>
      </trkpt>
      <trkpt lat="44.19412" lon="2.60853">
        <ele>663.93</ele>
        <time>2022-07-16T07:48:07Z</time>
      </trkpt>
      <trkpt lat="44.19407" lon="2.60838">
        <ele>663.45</ele>
        <time>2022-07-16T07:48:15Z</time>
      </trkpt>
      <trkpt lat="44.19401" lon="2.60821">
        <ele>663.93</ele>
        <time>2022-07-16T07:48:23Z</time>
      </trkpt>
      <trkpt lat="44.1947" lon="2.60849">
        <ele>651.43</ele>
        <time>2022-07-16T07:49:28Z</time>
      </trkpt>
      <trkpt lat="44.19489" lon="2.60878">
        <ele>639.89</ele>
        <time>2022-07-16T07:49:54Z</time>
      </trkpt>
      <trkpt lat="44.19505" lon="2.60896">
        <ele>637.01</ele>
        <time>2022-07-16T07:50:06Z</time>
      </trkpt>
      <trkpt lat="44.19521" lon="2.6091">
        <ele>637.49</ele>
        <time>2022-07-16T07:50:16Z</time>
      </trkpt>
      <trkpt lat="44.19525" lon="2.6093">
        <ele>639.89</ele>
        <time>2022-07-16T07:50:26Z</time>
      </trkpt>
      <trkpt lat="44.19539" lon="2.60932">
        <ele>636.53</ele>
        <time>2022-07-16T07:50:41Z</time>
      </trkpt>
      <trkpt lat="44.19549" lon="2.60913">
        <ele>631.24</ele>
        <time>2022-07-16T07:50:54Z</time>
      </trkpt>
      <trkpt lat="44.19556" lon="2.60888">
        <ele>629.8</ele>
        <time>2022-07-16T07:51:06Z</time>
      </trkpt>
      <trkpt lat="44.19558" lon="2.60879">
        <ele>635.09</ele>
        <time>2022-07-16T07:51:33Z</time>
      </trkpt>
      <trkpt lat="44.19558" lon="2.60869">
        <ele>637.97</ele>
        <time>2022-07-16T07:52:33Z</time>
      </trkpt>
      <trkpt lat="44.19559" lon="2.60852">
        <ele>634.61</ele>
        <time>2022-07-16T07:52:43Z</time>
      </trkpt>
      <trkpt lat="44.19564" lon="2.60839">
        <ele>633.65</ele>
        <time>2022-07-16T07:52:50Z</time>
      </trkpt>
      <trkpt lat="44.19569" lon="2.60826">
        <ele>633.65</ele>
        <time>2022-07-16T07:52:58Z</time>
      </trkpt>
      <trkpt lat="44.19577" lon="2.60812">
        <ele>632.68</ele>
        <time>2022-07-16T07:53:08Z</time>
      </trkpt>
      <trkpt lat="44.19585" lon="2.60799">
        <ele>629.32</ele>
        <time>2022-07-16T07:53:17Z</time>
      </trkpt>
      <trkpt lat="44.19594" lon="2.60787">
        <ele>625.96</ele>
        <time>2022-07-16T07:53:26Z</time>
      </trkpt>
      <trkpt lat="44.19647" lon="2.60734">
        <ele>621.15</ele>
        <time>2022-07-16T07:56:26Z</time>
      </trkpt>
      <trkpt lat="44.19657" lon="2.60724">
        <ele>623.55</ele>
        <time>2022-07-16T07:56:38Z</time>
      </trkpt>
      <trkpt lat="44.19668" lon="2.60705">
        <ele>624.99</ele>
        <time>2022-07-16T07:56:52Z</time>
      </trkpt>
      <trkpt lat="44.19689" lon="2.60685">
        <ele>624.51</ele>
        <time>2022-07-16T07:57:08Z</time>
      </trkpt>
      <trkpt lat="44.19695" lon="2.60672">
        <ele>625.47</ele>
        <time>2022-07-16T07:57:16Z</time>
      </trkpt>
      <trkpt lat="44.19687" lon="2.60661">
        <ele>625.47</ele>
        <time>2022-07-16T07:57:24Z</time>
      </trkpt>
      <trkpt lat="44.19677" lon="2.60657">
        <ele>625.47</ele>
        <time>2022-07-16T07:57:31Z</time>
      </trkpt>
      <trkpt lat="44.19668" lon="2.60651">
        <ele>626.44</ele>
        <time>2022-07-16T07:57:38Z</time>
      </trkpt>
      <trkpt lat="44.19662" lon="2.60639">
        <ele>625.47</ele>
        <time>2022-07-16T07:57:45Z</time>
      </trkpt>
      <trkpt lat="44.19654" lon="2.60627">
        <ele>623.55</ele>
        <time>2022-07-16T07:57:54Z</time>
      </trkpt>
      <trkpt lat="44.19645" lon="2.60614">
        <ele>623.55</ele>
        <time>2022-07-16T07:58:02Z</time>
      </trkpt>
      <trkpt lat="44.19637" lon="2.60603">
        <ele>623.55</ele>
        <time>2022-07-16T07:58:10Z</time>
      </trkpt>
      <trkpt lat="44.19629" lon="2.60592">
        <ele>624.03</ele>
        <time>2022-07-16T07:58:18Z</time>
      </trkpt>
      <trkpt lat="44.19623" lon="2.60578">
        <ele>624.99</ele>
        <time>2022-07-16T07:58:26Z</time>
      </trkpt>
      <trkpt lat="44.19618" lon="2.60563">
        <ele>626.44</ele>
        <time>2022-07-16T07:58:34Z</time>
      </trkpt>
      <trkpt lat="44.19619" lon="2.60549">
        <ele>626.92</ele>
        <time>2022-07-16T07:58:43Z</time>
      </trkpt>
      <trkpt lat="44.1964" lon="2.60544">
        <ele>628.36</ele>
        <time>2022-07-16T07:59:01Z</time>
      </trkpt>
      <trkpt lat="44.19645" lon="2.60522">
        <ele>629.32</ele>
        <time>2022-07-16T07:59:14Z</time>
      </trkpt>
      <trkpt lat="44.19655" lon="2.60498">
        <ele>630.76</ele>
        <time>2022-07-16T07:59:32Z</time>
      </trkpt>
      <trkpt lat="44.19666" lon="2.60491">
        <ele>629.8</ele>
        <time>2022-07-16T07:59:42Z</time>
      </trkpt>
      <trkpt lat="44.19676" lon="2.60485">
        <ele>629.8</ele>
        <time>2022-07-16T07:59:50Z</time>
      </trkpt>
      <trkpt lat="44.1969" lon="2.60477">
        <ele>631.24</ele>
        <time>2022-07-16T08:00:02Z</time>
      </trkpt>
      <trkpt lat="44.197" lon="2.60466">
        <ele>632.68</ele>
        <time>2022-07-16T08:00:11Z</time>
      </trkpt>
      <trkpt lat="44.19709" lon="2.60455">
        <ele>632.2</ele>
        <time>2022-07-16T08:00:19Z</time>
      </trkpt>
      <trkpt lat="44.19715" lon="2.60442">
        <ele>631.72</ele>
        <time>2022-07-16T08:00:28Z</time>
      </trkpt>
      <trkpt lat="44.19718" lon="2.60425">
        <ele>634.13</ele>
        <time>2022-07-16T08:00:36Z</time>
      </trkpt>
      <trkpt lat="44.19719" lon="2.60406">
        <ele>640.86</ele>
        <time>2022-07-16T08:00:45Z</time>
      </trkpt>
      <trkpt lat="44.19721" lon="2.6039">
        <ele>645.66</ele>
        <time>2022-07-16T08:00:53Z</time>
      </trkpt>
      <trkpt lat="44.19725" lon="2.60376">
        <ele>647.59</ele>
        <time>2022-07-16T08:01:02Z</time>
      </trkpt>
      <trkpt lat="44.19728" lon="2.60361">
        <ele>649.03</ele>
        <time>2022-07-16T08:01:10Z</time>
      </trkpt>
      <trkpt lat="44.19733" lon="2.60346">
        <ele>650.47</ele>
        <time>2022-07-16T08:01:19Z</time>
      </trkpt>
      <trkpt lat="44.1974" lon="2.60335">
        <ele>649.99</ele>
        <time>2022-07-16T08:01:27Z</time>
      </trkpt>
      <trkpt lat="44.19744" lon="2.60318">
        <ele>651.91</ele>
        <time>2022-07-16T08:01:35Z</time>
      </trkpt>
      <trkpt lat="44.19749" lon="2.60302">
        <ele>652.39</ele>
        <time>2022-07-16T08:01:44Z</time>
      </trkpt>
      <trkpt lat="44.19751" lon="2.60285">
        <ele>654.31</ele>
        <time>2022-07-16T08:01:51Z</time>
      </trkpt>
      <trkpt lat="44.19752" lon="2.6027">
        <ele>655.76</ele>
        <time>2022-07-16T08:01:58Z</time>
      </trkpt>
      <trkpt lat="44.19752" lon="2.60255">
        <ele>656.72</ele>
        <time>2022-07-16T08:02:06Z</time>
      </trkpt>
      <trkpt lat="44.19753" lon="2.60239">
        <ele>655.76</ele>
        <time>2022-07-16T08:02:15Z</time>
      </trkpt>
      <trkpt lat="44.19755" lon="2.60223">
        <ele>654.31</ele>
        <time>2022-07-16T08:02:24Z</time>
      </trkpt>
      <trkpt lat="44.19751" lon="2.60208">
        <ele>655.76</ele>
        <time>2022-07-16T08:02:33Z</time>
      </trkpt>
      <trkpt lat="44.19743" lon="2.60197">
        <ele>656.72</ele>
        <time>2022-07-16T08:02:40Z</time>
      </trkpt>
      <trkpt lat="44.19736" lon="2.60185">
        <ele>658.16</ele>
        <time>2022-07-16T08:02:47Z</time>
      </trkpt>
      <trkpt lat="44.19732" lon="2.60172">
        <ele>660.08</ele>
        <time>2022-07-16T08:02:54Z</time>
      </trkpt>
      <trkpt lat="44.19734" lon="2.60158">
        <ele>661.04</ele>
        <time>2022-07-16T08:03:02Z</time>
      </trkpt>
      <trkpt lat="44.19738" lon="2.60144">
        <ele>662.01</ele>
        <time>2022-07-16T08:03:10Z</time>
      </trkpt>
      <trkpt lat="44.19743" lon="2.6013">
        <ele>663.93</ele>
        <time>2022-07-16T08:03:18Z</time>
      </trkpt>
      <trkpt lat="44.19747" lon="2.60118">
        <ele>664.41</ele>
        <time>2022-07-16T08:03:26Z</time>
      </trkpt>
      <trkpt lat="44.19753" lon="2.60105">
        <ele>665.37</ele>
        <time>2022-07-16T08:03:34Z</time>
      </trkpt>
      <trkpt lat="44.19757" lon="2.6009">
        <ele>666.33</ele>
        <time>2022-07-16T08:03:42Z</time>
      </trkpt>
      <trkpt lat="44.19762" lon="2.60076">
        <ele>667.29</ele>
        <time>2022-07-16T08:03:50Z</time>
      </trkpt>
      <trkpt lat="44.19768" lon="2.60064">
        <ele>667.77</ele>
        <time>2022-07-16T08:03:57Z</time>
      </trkpt>
      <trkpt lat="44.19772" lon="2.60051">
        <ele>668.73</ele>
        <time>2022-07-16T08:04:04Z</time>
      </trkpt>
      <trkpt lat="44.19776" lon="2.60038">
        <ele>670.18</ele>
        <time>2022-07-16T08:04:11Z</time>
      </trkpt>
      <trkpt lat="44.19781" lon="2.60025">
        <ele>671.14</ele>
        <time>2022-07-16T08:04:19Z</time>
      </trkpt>
      <trkpt lat="44.19785" lon="2.60009">
        <ele>672.1</ele>
        <time>2022-07-16T08:04:27Z</time>
      </trkpt>
      <trkpt lat="44.19799" lon="2.60008">
        <ele>677.87</ele>
        <time>2022-07-16T08:05:32Z</time>
      </trkpt>
      <trkpt lat="44.1981" lon="2.60011">
        <ele>678.35</ele>
        <time>2022-07-16T08:05:40Z</time>
      </trkpt>
      <trkpt lat="44.19829" lon="2.60015">
        <ele>678.83</ele>
        <time>2022-07-16T08:05:55Z</time>
      </trkpt>
      <trkpt lat="44.19841" lon="2.60017">
        <ele>679.79</ele>
        <time>2022-07-16T08:06:03Z</time>
      </trkpt>
      <trkpt lat="44.19851" lon="2.6002">
        <ele>679.31</ele>
        <time>2022-07-16T08:06:11Z</time>
      </trkpt>
      <trkpt lat="44.19868" lon="2.60021">
        <ele>678.83</ele>
        <time>2022-07-16T08:06:23Z</time>
      </trkpt>
      <trkpt lat="44.19896" lon="2.60024">
        <ele>680.27</ele>
        <time>2022-07-16T08:06:44Z</time>
      </trkpt>
      <trkpt lat="44.19907" lon="2.60026">
        <ele>681.23</ele>
        <time>2022-07-16T08:06:52Z</time>
      </trkpt>
      <trkpt lat="44.19919" lon="2.60029">
        <ele>681.71</ele>
        <time>2022-07-16T08:07:00Z</time>
      </trkpt>
      <trkpt lat="44.19929" lon="2.60032">
        <ele>683.15</ele>
        <time>2022-07-16T08:07:08Z</time>
      </trkpt>
      <trkpt lat="44.1994" lon="2.60037">
        <ele>682.67</ele>
        <time>2022-07-16T08:07:15Z</time>
      </trkpt>
      <trkpt lat="44.19949" lon="2.60043">
        <ele>683.15</ele>
        <time>2022-07-16T08:07:22Z</time>
      </trkpt>
      <trkpt lat="44.19958" lon="2.6005">
        <ele>683.63</ele>
        <time>2022-07-16T08:07:29Z</time>
      </trkpt>
      <trkpt lat="44.19967" lon="2.60058">
        <ele>683.15</ele>
        <time>2022-07-16T08:07:36Z</time>
      </trkpt>
      <trkpt lat="44.19974" lon="2.60067">
        <ele>683.15</ele>
        <time>2022-07-16T08:07:43Z</time>
      </trkpt>
      <trkpt lat="44.19982" lon="2.60076">
        <ele>684.12</ele>
        <time>2022-07-16T08:07:51Z</time>
      </trkpt>
      <trkpt lat="44.19989" lon="2.60086">
        <ele>683.63</ele>
        <time>2022-07-16T08:07:58Z</time>
      </trkpt>
      <trkpt lat="44.19997" lon="2.60097">
        <ele>683.63</ele>
        <time>2022-07-16T08:08:06Z</time>
      </trkpt>
      <trkpt lat="44.20004" lon="2.60108">
        <ele>685.08</ele>
        <time>2022-07-16T08:08:13Z</time>
      </trkpt>
      <trkpt lat="44.2001" lon="2.60118">
        <ele>685.56</ele>
        <time>2022-07-16T08:08:20Z</time>
      </trkpt>
      <trkpt lat="44.20017" lon="2.6013">
        <ele>686.04</ele>
        <time>2022-07-16T08:08:28Z</time>
      </trkpt>
      <trkpt lat="44.20024" lon="2.60142">
        <ele>686.04</ele>
        <time>2022-07-16T08:08:36Z</time>
      </trkpt>
      <trkpt lat="44.2003" lon="2.60159">
        <ele>685.56</ele>
        <time>2022-07-16T08:08:48Z</time>
      </trkpt>
      <trkpt lat="44.20039" lon="2.60172">
        <ele>686.52</ele>
        <time>2022-07-16T08:08:57Z</time>
      </trkpt>
      <trkpt lat="44.20047" lon="2.60185">
        <ele>685.56</ele>
        <time>2022-07-16T08:09:05Z</time>
      </trkpt>
      <trkpt lat="44.20056" lon="2.60194">
        <ele>685.08</ele>
        <time>2022-07-16T08:09:12Z</time>
      </trkpt>
      <trkpt lat="44.20064" lon="2.60201">
        <ele>685.08</ele>
        <time>2022-07-16T08:09:19Z</time>
      </trkpt>
      <trkpt lat="44.20074" lon="2.60208">
        <ele>685.56</ele>
        <time>2022-07-16T08:09:27Z</time>
      </trkpt>
      <trkpt lat="44.20084" lon="2.60212">
        <ele>686.04</ele>
        <time>2022-07-16T08:09:35Z</time>
      </trkpt>
      <trkpt lat="44.20094" lon="2.60214">
        <ele>686.04</ele>
        <time>2022-07-16T08:09:43Z</time>
      </trkpt>
      <trkpt lat="44.20105" lon="2.60218">
        <ele>686.52</ele>
        <time>2022-07-16T08:09:51Z</time>
      </trkpt>
      <trkpt lat="44.20116" lon="2.60221">
        <ele>687.48</ele>
        <time>2022-07-16T08:09:59Z</time>
      </trkpt>
      <trkpt lat="44.20127" lon="2.60225">
        <ele>688.44</ele>
        <time>2022-07-16T08:10:07Z</time>
      </trkpt>
      <trkpt lat="44.20138" lon="2.60229">
        <ele>689.88</ele>
        <time>2022-07-16T08:10:15Z</time>
      </trkpt>
      <trkpt lat="44.20163" lon="2.60238">
        <ele>692.29</ele>
        <time>2022-07-16T08:11:02Z</time>
      </trkpt>
      <trkpt lat="44.20176" lon="2.60237">
        <ele>691.33</ele>
        <time>2022-07-16T08:11:12Z</time>
      </trkpt>
      <trkpt lat="44.20191" lon="2.60237">
        <ele>691.81</ele>
        <time>2022-07-16T08:11:20Z</time>
      </trkpt>
      <trkpt lat="44.20203" lon="2.60234">
        <ele>691.33</ele>
        <time>2022-07-16T08:11:28Z</time>
      </trkpt>
      <trkpt lat="44.20213" lon="2.60231">
        <ele>689.88</ele>
        <time>2022-07-16T08:11:36Z</time>
      </trkpt>
      <trkpt lat="44.20227" lon="2.60227">
        <ele>687.48</ele>
        <time>2022-07-16T08:11:49Z</time>
      </trkpt>
      <trkpt lat="44.2027" lon="2.6021">
        <ele>684.6</ele>
        <time>2022-07-16T08:12:22Z</time>
      </trkpt>
      <trkpt lat="44.20283" lon="2.60204">
        <ele>684.12</ele>
        <time>2022-07-16T08:12:31Z</time>
      </trkpt>
      <trkpt lat="44.20295" lon="2.602">
        <ele>685.56</ele>
        <time>2022-07-16T08:12:38Z</time>
      </trkpt>
      <trkpt lat="44.20307" lon="2.60199">
        <ele>687.48</ele>
        <time>2022-07-16T08:12:45Z</time>
      </trkpt>
      <trkpt lat="44.2032" lon="2.602">
        <ele>688.44</ele>
        <time>2022-07-16T08:12:52Z</time>
      </trkpt>
      <trkpt lat="44.20333" lon="2.602">
        <ele>689.88</ele>
        <time>2022-07-16T08:12:58Z</time>
      </trkpt>
      <trkpt lat="44.20343" lon="2.60201">
        <ele>690.84</ele>
        <time>2022-07-16T08:13:04Z</time>
      </trkpt>
      <trkpt lat="44.20353" lon="2.60202">
        <ele>691.33</ele>
        <time>2022-07-16T08:13:11Z</time>
      </trkpt>
      <trkpt lat="44.20363" lon="2.60203">
        <ele>691.81</ele>
        <time>2022-07-16T08:13:17Z</time>
      </trkpt>
      <trkpt lat="44.20374" lon="2.60206">
        <ele>694.69</ele>
        <time>2022-07-16T08:13:24Z</time>
      </trkpt>
      <trkpt lat="44.20384" lon="2.6021">
        <ele>697.09</ele>
        <time>2022-07-16T08:13:31Z</time>
      </trkpt>
      <trkpt lat="44.20393" lon="2.60215">
        <ele>697.09</ele>
        <time>2022-07-16T08:13:38Z</time>
      </trkpt>
      <trkpt lat="44.20406" lon="2.6022">
        <ele>696.61</ele>
        <time>2022-07-16T08:13:48Z</time>
      </trkpt>
      <trkpt lat="44.20416" lon="2.60222">
        <ele>697.09</ele>
        <time>2022-07-16T08:13:55Z</time>
      </trkpt>
      <trkpt lat="44.20428" lon="2.60225">
        <ele>698.53</ele>
        <time>2022-07-16T08:14:03Z</time>
      </trkpt>
      <trkpt lat="44.20438" lon="2.60227">
        <ele>699.02</ele>
        <time>2022-07-16T08:14:10Z</time>
      </trkpt>
      <trkpt lat="44.20449" lon="2.60229">
        <ele>699.02</ele>
        <time>2022-07-16T08:14:17Z</time>
      </trkpt>
      <trkpt lat="44.2046" lon="2.6023">
        <ele>699.5</ele>
        <time>2022-07-16T08:14:24Z</time>
      </trkpt>
      <trkpt lat="44.20471" lon="2.60232">
        <ele>699.98</ele>
        <time>2022-07-16T08:14:31Z</time>
      </trkpt>
      <trkpt lat="44.20482" lon="2.60234">
        <ele>699.98</ele>
        <time>2022-07-16T08:14:38Z</time>
      </trkpt>
      <trkpt lat="44.20492" lon="2.60235">
        <ele>700.46</ele>
        <time>2022-07-16T08:14:45Z</time>
      </trkpt>
      <trkpt lat="44.20503" lon="2.60237">
        <ele>699.98</ele>
        <time>2022-07-16T08:14:52Z</time>
      </trkpt>
      <trkpt lat="44.20514" lon="2.60238">
        <ele>700.46</ele>
        <time>2022-07-16T08:14:59Z</time>
      </trkpt>
      <trkpt lat="44.20524" lon="2.6024">
        <ele>700.94</ele>
        <time>2022-07-16T08:15:06Z</time>
      </trkpt>
      <trkpt lat="44.20535" lon="2.60243">
        <ele>700.94</ele>
        <time>2022-07-16T08:15:13Z</time>
      </trkpt>
      <trkpt lat="44.20544" lon="2.60246">
        <ele>701.42</ele>
        <time>2022-07-16T08:15:20Z</time>
      </trkpt>
      <trkpt lat="44.20555" lon="2.60249">
        <ele>701.9</ele>
        <time>2022-07-16T08:15:28Z</time>
      </trkpt>
      <trkpt lat="44.20565" lon="2.60252">
        <ele>702.38</ele>
        <time>2022-07-16T08:15:35Z</time>
      </trkpt>
      <trkpt lat="44.20576" lon="2.60256">
        <ele>703.34</ele>
        <time>2022-07-16T08:15:42Z</time>
      </trkpt>
      <trkpt lat="44.20588" lon="2.6026">
        <ele>703.82</ele>
        <time>2022-07-16T08:15:49Z</time>
      </trkpt>
      <trkpt lat="44.20599" lon="2.60264">
        <ele>704.3</ele>
        <time>2022-07-16T08:15:57Z</time>
      </trkpt>
      <trkpt lat="44.20609" lon="2.60267">
        <ele>704.78</ele>
        <time>2022-07-16T08:16:05Z</time>
      </trkpt>
      <trkpt lat="44.2062" lon="2.6027">
        <ele>704.78</ele>
        <time>2022-07-16T08:16:12Z</time>
      </trkpt>
      <trkpt lat="44.20631" lon="2.60275">
        <ele>704.3</ele>
        <time>2022-07-16T08:16:20Z</time>
      </trkpt>
      <trkpt lat="44.20641" lon="2.60278">
        <ele>704.3</ele>
        <time>2022-07-16T08:16:28Z</time>
      </trkpt>
      <trkpt lat="44.20651" lon="2.60283">
        <ele>705.26</ele>
        <time>2022-07-16T08:16:35Z</time>
      </trkpt>
      <trkpt lat="44.2066" lon="2.60287">
        <ele>706.71</ele>
        <time>2022-07-16T08:16:42Z</time>
      </trkpt>
      <trkpt lat="44.2068" lon="2.60298">
        <ele>708.63</ele>
        <time>2022-07-16T08:16:59Z</time>
      </trkpt>
      <trkpt lat="44.20693" lon="2.60302">
        <ele>709.11</ele>
        <time>2022-07-16T08:17:07Z</time>
      </trkpt>
      <trkpt lat="44.20704" lon="2.60308">
        <ele>709.59</ele>
        <time>2022-07-16T08:17:16Z</time>
      </trkpt>
      <trkpt lat="44.2072" lon="2.60313">
        <ele>711.03</ele>
        <time>2022-07-16T08:17:26Z</time>
      </trkpt>
      <trkpt lat="44.20732" lon="2.60316">
        <ele>711.99</ele>
        <time>2022-07-16T08:17:35Z</time>
      </trkpt>
      <trkpt lat="44.20743" lon="2.60318">
        <ele>713.44</ele>
        <time>2022-07-16T08:17:43Z</time>
      </trkpt>
      <trkpt lat="44.20754" lon="2.60321">
        <ele>714.88</ele>
        <time>2022-07-16T08:17:50Z</time>
      </trkpt>
      <trkpt lat="44.20766" lon="2.60325">
        <ele>715.84</ele>
        <time>2022-07-16T08:17:58Z</time>
      </trkpt>
      <trkpt lat="44.20776" lon="2.60328">
        <ele>716.8</ele>
        <time>2022-07-16T08:18:06Z</time>
      </trkpt>
      <trkpt lat="44.2079" lon="2.60333">
        <ele>718.24</ele>
        <time>2022-07-16T08:18:17Z</time>
      </trkpt>
      <trkpt lat="44.20803" lon="2.60335">
        <ele>718.72</ele>
        <time>2022-07-16T08:18:25Z</time>
      </trkpt>
      <trkpt lat="44.20814" lon="2.60337">
        <ele>719.68</ele>
        <time>2022-07-16T08:18:32Z</time>
      </trkpt>
      <trkpt lat="44.20824" lon="2.60343">
        <ele>720.16</ele>
        <time>2022-07-16T08:18:41Z</time>
      </trkpt>
      <trkpt lat="44.20837" lon="2.60347">
        <ele>721.13</ele>
        <time>2022-07-16T08:18:49Z</time>
      </trkpt>
      <trkpt lat="44.2085" lon="2.60354">
        <ele>721.61</ele>
        <time>2022-07-16T08:18:58Z</time>
      </trkpt>
      <trkpt lat="44.20861" lon="2.6036">
        <ele>721.61</ele>
        <time>2022-07-16T08:19:05Z</time>
      </trkpt>
      <trkpt lat="44.20871" lon="2.60364">
        <ele>722.57</ele>
        <time>2022-07-16T08:19:12Z</time>
      </trkpt>
      <trkpt lat="44.20881" lon="2.60365">
        <ele>722.57</ele>
        <time>2022-07-16T08:19:22Z</time>
      </trkpt>
      <trkpt lat="44.20896" lon="2.60364">
        <ele>724.01</ele>
        <time>2022-07-16T08:19:34Z</time>
      </trkpt>
      <trkpt lat="44.20947" lon="2.60358">
        <ele>728.82</ele>
        <time>2022-07-16T08:20:07Z</time>
      </trkpt>
      <trkpt lat="44.20964" lon="2.60356">
        <ele>729.78</ele>
        <time>2022-07-16T08:20:19Z</time>
      </trkpt>
      <trkpt lat="44.20985" lon="2.60352">
        <ele>730.26</ele>
        <time>2022-07-16T08:20:34Z</time>
      </trkpt>
      <trkpt lat="44.21002" lon="2.60349">
        <ele>728.34</ele>
        <time>2022-07-16T08:20:46Z</time>
      </trkpt>
      <trkpt lat="44.21027" lon="2.60347">
        <ele>730.74</ele>
        <time>2022-07-16T08:21:05Z</time>
      </trkpt>
      <trkpt lat="44.21039" lon="2.60347">
        <ele>730.26</ele>
        <time>2022-07-16T08:21:13Z</time>
      </trkpt>
      <trkpt lat="44.21053" lon="2.60349">
        <ele>729.3</ele>
        <time>2022-07-16T08:21:21Z</time>
      </trkpt>
      <trkpt lat="44.21068" lon="2.6035">
        <ele>727.37</ele>
        <time>2022-07-16T08:21:33Z</time>
      </trkpt>
      <trkpt lat="44.21114" lon="2.60351">
        <ele>725.45</ele>
        <time>2022-07-16T08:22:04Z</time>
      </trkpt>
      <trkpt lat="44.21126" lon="2.60348">
        <ele>725.45</ele>
        <time>2022-07-16T08:22:14Z</time>
      </trkpt>
      <trkpt lat="44.2116" lon="2.60341">
        <ele>725.45</ele>
        <time>2022-07-16T08:22:48Z</time>
      </trkpt>
      <trkpt lat="44.2117" lon="2.60351">
        <ele>724.97</ele>
        <time>2022-07-16T08:22:57Z</time>
      </trkpt>
      <trkpt lat="44.21179" lon="2.6036">
        <ele>725.45</ele>
        <time>2022-07-16T08:23:06Z</time>
      </trkpt>
      <trkpt lat="44.21194" lon="2.6037">
        <ele>725.93</ele>
        <time>2022-07-16T08:23:18Z</time>
      </trkpt>
      <trkpt lat="44.2121" lon="2.60372">
        <ele>727.86</ele>
        <time>2022-07-16T08:23:30Z</time>
      </trkpt>
      <trkpt lat="44.21226" lon="2.60386">
        <ele>732.18</ele>
        <time>2022-07-16T08:23:43Z</time>
      </trkpt>
      <trkpt lat="44.21241" lon="2.6039">
        <ele>734.58</ele>
        <time>2022-07-16T08:23:55Z</time>
      </trkpt>
      <trkpt lat="44.21251" lon="2.60391">
        <ele>732.66</ele>
        <time>2022-07-16T08:24:05Z</time>
      </trkpt>
      <trkpt lat="44.21265" lon="2.6039">
        <ele>732.66</ele>
        <time>2022-07-16T08:24:16Z</time>
      </trkpt>
      <trkpt lat="44.21275" lon="2.60388">
        <ele>730.74</ele>
        <time>2022-07-16T08:24:25Z</time>
      </trkpt>
      <trkpt lat="44.21287" lon="2.60399">
        <ele>731.7</ele>
        <time>2022-07-16T08:24:34Z</time>
      </trkpt>
      <trkpt lat="44.21301" lon="2.60415">
        <ele>737.95</ele>
        <time>2022-07-16T08:24:43Z</time>
      </trkpt>
      <trkpt lat="44.21313" lon="2.60423">
        <ele>739.87</ele>
        <time>2022-07-16T08:24:53Z</time>
      </trkpt>
      <trkpt lat="44.21325" lon="2.60432">
        <ele>745.64</ele>
        <time>2022-07-16T08:25:04Z</time>
      </trkpt>
      <trkpt lat="44.21337" lon="2.60423">
        <ele>749</ele>
        <time>2022-07-16T08:25:18Z</time>
      </trkpt>
      <trkpt lat="44.21346" lon="2.6041">
        <ele>749</ele>
        <time>2022-07-16T08:25:27Z</time>
      </trkpt>
      <trkpt lat="44.21355" lon="2.60395">
        <ele>752.37</ele>
        <time>2022-07-16T08:25:35Z</time>
      </trkpt>
      <trkpt lat="44.21367" lon="2.60387">
        <ele>755.25</ele>
        <time>2022-07-16T08:25:43Z</time>
      </trkpt>
      <trkpt lat="44.21375" lon="2.60395">
        <ele>756.69</ele>
        <time>2022-07-16T08:25:50Z</time>
      </trkpt>
      <trkpt lat="44.21379" lon="2.60409">
        <ele>756.69</ele>
        <time>2022-07-16T08:25:57Z</time>
      </trkpt>
      <trkpt lat="44.21381" lon="2.60423">
        <ele>756.21</ele>
        <time>2022-07-16T08:26:04Z</time>
      </trkpt>
      <trkpt lat="44.21383" lon="2.60438">
        <ele>755.73</ele>
        <time>2022-07-16T08:26:11Z</time>
      </trkpt>
      <trkpt lat="44.21385" lon="2.60451">
        <ele>755.73</ele>
        <time>2022-07-16T08:26:18Z</time>
      </trkpt>
      <trkpt lat="44.21387" lon="2.60464">
        <ele>755.25</ele>
        <time>2022-07-16T08:26:25Z</time>
      </trkpt>
      <trkpt lat="44.21389" lon="2.60477">
        <ele>755.73</ele>
        <time>2022-07-16T08:26:33Z</time>
      </trkpt>
      <trkpt lat="44.21391" lon="2.6049">
        <ele>755.73</ele>
        <time>2022-07-16T08:26:41Z</time>
      </trkpt>
      <trkpt lat="44.21394" lon="2.60509">
        <ele>755.73</ele>
        <time>2022-07-16T08:26:51Z</time>
      </trkpt>
      <trkpt lat="44.21397" lon="2.60524">
        <ele>755.73</ele>
        <time>2022-07-16T08:26:59Z</time>
      </trkpt>
      <trkpt lat="44.21399" lon="2.60538">
        <ele>756.21</ele>
        <time>2022-07-16T08:27:06Z</time>
      </trkpt>
      <trkpt lat="44.21401" lon="2.60554">
        <ele>757.66</ele>
        <time>2022-07-16T08:27:14Z</time>
      </trkpt>
      <trkpt lat="44.21404" lon="2.6057">
        <ele>758.62</ele>
        <time>2022-07-16T08:27:21Z</time>
      </trkpt>
      <trkpt lat="44.21406" lon="2.60586">
        <ele>760.54</ele>
        <time>2022-07-16T08:27:29Z</time>
      </trkpt>
      <trkpt lat="44.21408" lon="2.60599">
        <ele>761.5</ele>
        <time>2022-07-16T08:27:36Z</time>
      </trkpt>
      <trkpt lat="44.21411" lon="2.60614">
        <ele>762.94</ele>
        <time>2022-07-16T08:27:45Z</time>
      </trkpt>
      <trkpt lat="44.21413" lon="2.6063">
        <ele>765.83</ele>
        <time>2022-07-16T08:27:54Z</time>
      </trkpt>
      <trkpt lat="44.21416" lon="2.60648">
        <ele>766.31</ele>
        <time>2022-07-16T08:28:02Z</time>
      </trkpt>
      <trkpt lat="44.21418" lon="2.60665">
        <ele>766.31</ele>
        <time>2022-07-16T08:28:11Z</time>
      </trkpt>
      <trkpt lat="44.21421" lon="2.60682">
        <ele>767.75</ele>
        <time>2022-07-16T08:28:21Z</time>
      </trkpt>
      <trkpt lat="44.21423" lon="2.60698">
        <ele>770.15</ele>
        <time>2022-07-16T08:28:29Z</time>
      </trkpt>
      <trkpt lat="44.21425" lon="2.60713">
        <ele>772.08</ele>
        <time>2022-07-16T08:28:37Z</time>
      </trkpt>
      <trkpt lat="44.21427" lon="2.60731">
        <ele>773.04</ele>
        <time>2022-07-16T08:28:44Z</time>
      </trkpt>
      <trkpt lat="44.2143" lon="2.6075">
        <ele>773.04</ele>
        <time>2022-07-16T08:28:54Z</time>
      </trkpt>
      <trkpt lat="44.21432" lon="2.60768">
        <ele>772.08</ele>
        <time>2022-07-16T08:29:03Z</time>
      </trkpt>
      <trkpt lat="44.21435" lon="2.60783">
        <ele>772.08</ele>
        <time>2022-07-16T08:29:11Z</time>
      </trkpt>
      <trkpt lat="44.21437" lon="2.60797">
        <ele>771.6</ele>
        <time>2022-07-16T08:29:18Z</time>
      </trkpt>
      <trkpt lat="44.21439" lon="2.60812">
        <ele>768.71</ele>
        <time>2022-07-16T08:29:26Z</time>
      </trkpt>
      <trkpt lat="44.21443" lon="2.60826">
        <ele>768.71</ele>
        <time>2022-07-16T08:29:34Z</time>
      </trkpt>
      <trkpt lat="44.21446" lon="2.60843">
        <ele>769.19</ele>
        <time>2022-07-16T08:29:44Z</time>
      </trkpt>
      <trkpt lat="44.21451" lon="2.60863">
        <ele>770.15</ele>
        <time>2022-07-16T08:29:54Z</time>
      </trkpt>
      <trkpt lat="44.21454" lon="2.6088">
        <ele>771.11</ele>
        <time>2022-07-16T08:30:03Z</time>
      </trkpt>
      <trkpt lat="44.2146" lon="2.60896">
        <ele>771.11</ele>
        <time>2022-07-16T08:30:13Z</time>
      </trkpt>
      <trkpt lat="44.21467" lon="2.60909">
        <ele>769.19</ele>
        <time>2022-07-16T08:30:22Z</time>
      </trkpt>
      <trkpt lat="44.21483" lon="2.60938">
        <ele>763.9</ele>
        <time>2022-07-16T08:30:41Z</time>
      </trkpt>
      <trkpt lat="44.21495" lon="2.60951">
        <ele>761.5</ele>
        <time>2022-07-16T08:30:52Z</time>
      </trkpt>
      <trkpt lat="44.21505" lon="2.60965">
        <ele>761.02</ele>
        <time>2022-07-16T08:31:03Z</time>
      </trkpt>
      <trkpt lat="44.21516" lon="2.60977">
        <ele>761.98</ele>
        <time>2022-07-16T08:31:12Z</time>
      </trkpt>
      <trkpt lat="44.21539" lon="2.60997">
        <ele>764.39</ele>
        <time>2022-07-16T08:31:32Z</time>
      </trkpt>
      <trkpt lat="44.21552" lon="2.6101">
        <ele>764.39</ele>
        <time>2022-07-16T08:31:44Z</time>
      </trkpt>
      <trkpt lat="44.21567" lon="2.61026">
        <ele>762.46</ele>
        <time>2022-07-16T08:31:57Z</time>
      </trkpt>
      <trkpt lat="44.21578" lon="2.61037">
        <ele>761.98</ele>
        <time>2022-07-16T08:32:09Z</time>
      </trkpt>
      <trkpt lat="44.21589" lon="2.6105">
        <ele>761.98</ele>
        <time>2022-07-16T08:32:20Z</time>
      </trkpt>
      <trkpt lat="44.21608" lon="2.61069">
        <ele>760.06</ele>
        <time>2022-07-16T08:32:39Z</time>
      </trkpt>
      <trkpt lat="44.2162" lon="2.6109">
        <ele>757.18</ele>
        <time>2022-07-16T08:32:51Z</time>
      </trkpt>
      <trkpt lat="44.21633" lon="2.61108">
        <ele>754.77</ele>
        <time>2022-07-16T08:33:03Z</time>
      </trkpt>
      <trkpt lat="44.21665" lon="2.61147">
        <ele>753.81</ele>
        <time>2022-07-16T08:33:34Z</time>
      </trkpt>
      <trkpt lat="44.21686" lon="2.61171">
        <ele>753.33</ele>
        <time>2022-07-16T08:33:48Z</time>
      </trkpt>
      <trkpt lat="44.21694" lon="2.61186">
        <ele>754.29</ele>
        <time>2022-07-16T08:33:57Z</time>
      </trkpt>
      <trkpt lat="44.21701" lon="2.61198">
        <ele>754.77</ele>
        <time>2022-07-16T08:34:06Z</time>
      </trkpt>
      <trkpt lat="44.2171" lon="2.61214">
        <ele>755.25</ele>
        <time>2022-07-16T08:34:14Z</time>
      </trkpt>
      <trkpt lat="44.21715" lon="2.61227">
        <ele>756.69</ele>
        <time>2022-07-16T08:34:22Z</time>
      </trkpt>
      <trkpt lat="44.21721" lon="2.61242">
        <ele>758.62</ele>
        <time>2022-07-16T08:34:32Z</time>
      </trkpt>
      <trkpt lat="44.21727" lon="2.61262">
        <ele>759.1</ele>
        <time>2022-07-16T08:34:43Z</time>
      </trkpt>
      <trkpt lat="44.21731" lon="2.61282">
        <ele>758.62</ele>
        <time>2022-07-16T08:34:53Z</time>
      </trkpt>
      <trkpt lat="44.21737" lon="2.61298">
        <ele>760.54</ele>
        <time>2022-07-16T08:35:02Z</time>
      </trkpt>
      <trkpt lat="44.21743" lon="2.61311">
        <ele>761.5</ele>
        <time>2022-07-16T08:35:10Z</time>
      </trkpt>
      <trkpt lat="44.21767" lon="2.61323">
        <ele>759.58</ele>
        <time>2022-07-16T08:35:41Z</time>
      </trkpt>
      <trkpt lat="44.21778" lon="2.61317">
        <ele>758.62</ele>
        <time>2022-07-16T08:35:49Z</time>
      </trkpt>
      <trkpt lat="44.21789" lon="2.61308">
        <ele>756.69</ele>
        <time>2022-07-16T08:36:01Z</time>
      </trkpt>
      <trkpt lat="44.21799" lon="2.61299">
        <ele>754.29</ele>
        <time>2022-07-16T08:36:12Z</time>
      </trkpt>
      <trkpt lat="44.21808" lon="2.61288">
        <ele>753.81</ele>
        <time>2022-07-16T08:36:22Z</time>
      </trkpt>
      <trkpt lat="44.21818" lon="2.61271">
        <ele>753.33</ele>
        <time>2022-07-16T08:36:36Z</time>
      </trkpt>
      <trkpt lat="44.21824" lon="2.61247">
        <ele>749.97</ele>
        <time>2022-07-16T08:36:50Z</time>
      </trkpt>
      <trkpt lat="44.21829" lon="2.61228">
        <ele>749</ele>
        <time>2022-07-16T08:36:59Z</time>
      </trkpt>
      <trkpt lat="44.21836" lon="2.6121">
        <ele>749.49</ele>
        <time>2022-07-16T08:37:10Z</time>
      </trkpt>
      <trkpt lat="44.21825" lon="2.61109">
        <ele>742.76</ele>
        <time>2022-07-16T08:45:45Z</time>
        <extensions>
          <visugpx:TrkExtension xmlns:visugpx="https://www.visugpx.com/editgpx/">
            <visugpx:node>1</visugpx:node>
            </visugpx:TrkExtension>
        </extensions>
      </trkpt>
      <trkpt lat="44.21813" lon="2.61095">
        <ele>744.3</ele>
      </trkpt>
      <trkpt lat="44.2182" lon="2.60993">
        <ele>740.9</ele>
      </trkpt>
      <trkpt lat="44.21822" lon="2.60892">
        <ele>739.1</ele>
      </trkpt>
      <trkpt lat="44.21828" lon="2.60872">
        <ele>738</ele>
      </trkpt>
      <trkpt lat="44.21837" lon="2.60864">
        <ele>735.7</ele>
      </trkpt>
      <trkpt lat="44.2186" lon="2.60849">
        <ele>731.9</ele>
      </trkpt>
      <trkpt lat="44.21876" lon="2.60826">
        <ele>730.7</ele>
      </trkpt>
      <trkpt lat="44.21886" lon="2.60785">
        <ele>730.9</ele>
      </trkpt>
      <trkpt lat="44.21891" lon="2.60716">
        <ele>730.5</ele>
      </trkpt>
      <trkpt lat="44.21902" lon="2.60668">
        <ele>728.3</ele>
      </trkpt>
      <trkpt lat="44.21899" lon="2.60612">
        <ele>729.3</ele>
      </trkpt>
      <trkpt lat="44.21892" lon="2.60589">
        <ele>727.3</ele>
      </trkpt>
      <trkpt lat="44.21879" lon="2.60568">
        <ele>727.2</ele>
      </trkpt>
      <trkpt lat="44.21868" lon="2.60541">
        <ele>727</ele>
      </trkpt>
      <trkpt lat="44.21866" lon="2.60463">
        <ele>722.5</ele>
      </trkpt>
      <trkpt lat="44.21907" lon="2.60491">
        <ele>719.9</ele>
      </trkpt>
      <trkpt lat="44.2192" lon="2.60502">
        <ele>722.6</ele>
      </trkpt>
      <trkpt lat="44.21952" lon="2.60544">
        <ele>726.6</ele>
      </trkpt>
      <trkpt lat="44.21961" lon="2.60549">
        <ele>728.1</ele>
      </trkpt>
      <trkpt lat="44.2197" lon="2.60549">
        <ele>730.4</ele>
      </trkpt>
      <trkpt lat="44.21977" lon="2.60543">
        <ele>732.2</ele>
      </trkpt>
      <trkpt lat="44.22004" lon="2.60493">
        <ele>737.4</ele>
      </trkpt>
      <trkpt lat="44.22024" lon="2.60464">
        <ele>738.8</ele>
      </trkpt>
      <trkpt lat="44.22034" lon="2.60452">
        <ele>739.4</ele>
      </trkpt>
      <trkpt lat="44.22047" lon="2.60448">
        <ele>740.4</ele>
      </trkpt>
      <trkpt lat="44.22068" lon="2.6045">
        <ele>741.5</ele>
      </trkpt>
      <trkpt lat="44.22115" lon="2.60461">
        <ele>744.9</ele>
      </trkpt>
      <trkpt lat="44.22161" lon="2.60473">
        <ele>748.6</ele>
      </trkpt>
      <trkpt lat="44.22196" lon="2.60486">
        <ele>750.5</ele>
      </trkpt>
      <trkpt lat="44.22261" lon="2.60514">
        <ele>753.6</ele>
      </trkpt>
      <trkpt lat="44.2228" lon="2.60525">
        <ele>755.7</ele>
      </trkpt>
      <trkpt lat="44.2235" lon="2.60582">
        <ele>760.9</ele>
      </trkpt>
      <trkpt lat="44.22383" lon="2.60615">
        <ele>761.6</ele>
      </trkpt>
      <trkpt lat="44.22391" lon="2.60622">
        <ele>761.2</ele>
      </trkpt>
      <trkpt lat="44.22404" lon="2.60644">
        <ele>760.1</ele>
      </trkpt>
      <trkpt lat="44.22406" lon="2.60646">
        <ele>759.9</ele>
        <extensions>
          <visugpx:TrkExtension xmlns:visugpx="https://www.visugpx.com/editgpx/">
            <visugpx:node>2</visugpx:node>
            </visugpx:TrkExtension>
        </extensions>
      </trkpt>
      <trkpt lat="44.22427" lon="2.60693">
        <ele>759.8</ele>
      </trkpt>
      <trkpt lat="44.22441" lon="2.60712">
        <ele>758.4</ele>
      </trkpt>
      <trkpt lat="44.22452" lon="2.60721">
        <ele>757.4</ele>
      </trkpt>
      <trkpt lat="44.22467" lon="2.60725">
        <ele>756.5</ele>
      </trkpt>
      <trkpt lat="44.22497" lon="2.60757">
        <ele>755.1</ele>
      </trkpt>
      <trkpt lat="44.22531" lon="2.6079">
        <ele>753.8</ele>
      </trkpt>
      <trkpt lat="44.2254" lon="2.60805">
        <ele>752.8</ele>
      </trkpt>
      <trkpt lat="44.22549" lon="2.60814">
        <ele>752.2</ele>
      </trkpt>
      <trkpt lat="44.22573" lon="2.60817">
        <ele>751.4</ele>
      </trkpt>
      <trkpt lat="44.22709" lon="2.60761">
        <ele>745.7</ele>
      </trkpt>
      <trkpt lat="44.22727" lon="2.60735">
        <ele>742.8</ele>
      </trkpt>
      <trkpt lat="44.22732" lon="2.607">
        <ele>739.9</ele>
      </trkpt>
      <trkpt lat="44.22745" lon="2.60644">
        <ele>735.7</ele>
      </trkpt>
      <trkpt lat="44.22755" lon="2.60503">
        <ele>726.6</ele>
      </trkpt>
      <trkpt lat="44.22743" lon="2.60451">
        <ele>722.2</ele>
      </trkpt>
      <trkpt lat="44.22728" lon="2.60409">
        <ele>718.8</ele>
      </trkpt>
      <trkpt lat="44.2273" lon="2.60393">
        <ele>717.6</ele>
      </trkpt>
      <trkpt lat="44.22738" lon="2.60383">
        <ele>716.7</ele>
      </trkpt>
      <trkpt lat="44.2275" lon="2.60376">
        <ele>716.1</ele>
      </trkpt>
      <trkpt lat="44.22844" lon="2.60351">
        <ele>708.9</ele>
      </trkpt>
      <trkpt lat="44.22857" lon="2.6034">
        <ele>708.8</ele>
      </trkpt>
      <trkpt lat="44.22864" lon="2.60318">
        <ele>709.1</ele>
      </trkpt>
      <trkpt lat="44.22865" lon="2.60286">
        <ele>709.9</ele>
      </trkpt>
      <trkpt lat="44.22881" lon="2.60274">
        <ele>711.6</ele>
      </trkpt>
      <trkpt lat="44.22928" lon="2.6022">
        <ele>717.6</ele>
      </trkpt>
      <trkpt lat="44.23027" lon="2.6012">
        <ele>725.6</ele>
      </trkpt>
      <trkpt lat="44.2308" lon="2.60044">
        <ele>730.2</ele>
      </trkpt>
      <trkpt lat="44.23133" lon="2.59914">
        <ele>738</ele>
      </trkpt>
      <trkpt lat="44.23156" lon="2.59846">
        <ele>741.9</ele>
      </trkpt>
      <trkpt lat="44.23181" lon="2.59799">
        <ele>745.4</ele>
      </trkpt>
      <trkpt lat="44.23268" lon="2.59765">
        <ele>750.5</ele>
      </trkpt>
      <trkpt lat="44.23332" lon="2.59715">
        <ele>753.2</ele>
      </trkpt>
      <trkpt lat="44.23418" lon="2.59613">
        <ele>755</ele>
      </trkpt>
      <trkpt lat="44.23473" lon="2.59666">
        <ele>757</ele>
      </trkpt>
      <trkpt lat="44.23634" lon="2.59832">
        <ele>765.6</ele>
      </trkpt>
      <trkpt lat="44.23681" lon="2.59891">
        <ele>770</ele>
      </trkpt>
      <trkpt lat="44.23703" lon="2.59915">
        <ele>771.3</ele>
      </trkpt>
      <trkpt lat="44.23727" lon="2.59934">
        <ele>773.4</ele>
      </trkpt>
      <trkpt lat="44.23737" lon="2.59936">
        <ele>773.7</ele>
      </trkpt>
      <trkpt lat="44.23765" lon="2.59938">
        <ele>774.4</ele>
        <extensions>
          <visugpx:TrkExtension xmlns:visugpx="https://www.visugpx.com/editgpx/">
            <visugpx:node>3</visugpx:node>
            </visugpx:TrkExtension>
        </extensions>
      </trkpt>
    </trkseg>
  </trk>
  <trk>
    <name><![CDATA[Le Viaur]]></name>
    <extensions>
      <line xmlns="http://www.topografix.com/GPX/gpx_style/0/2">
        <color>FFFF00</color>
        <width>4</width>
      </line>
    </extensions>
    <trkseg>
      <trkpt lat="44.23772" lon="2.59924">
        <ele>777.84</ele>
        <time>2022-07-12T14:57:41Z</time>
      </trkpt>
      <trkpt lat="44.23773" lon="2.59908">
        <ele>776.88</ele>
        <time>2022-07-12T14:57:50Z</time>
      </trkpt>
      <trkpt lat="44.23775" lon="2.59892">
        <ele>776.88</ele>
        <time>2022-07-12T14:57:59Z</time>
      </trkpt>
      <trkpt lat="44.23775" lon="2.59874">
        <ele>775.92</ele>
        <time>2022-07-12T14:58:09Z</time>
      </trkpt>
      <trkpt lat="44.23776" lon="2.5986">
        <ele>775.44</ele>
        <time>2022-07-12T14:58:17Z</time>
      </trkpt>
      <trkpt lat="44.23779" lon="2.59846">
        <ele>775.44</ele>
        <time>2022-07-12T14:58:26Z</time>
      </trkpt>
      <trkpt lat="44.23779" lon="2.59831">
        <ele>775.44</ele>
        <time>2022-07-12T14:58:35Z</time>
      </trkpt>
      <trkpt lat="44.23781" lon="2.59813">
        <ele>775.92</ele>
        <time>2022-07-12T14:58:44Z</time>
      </trkpt>
      <trkpt lat="44.23783" lon="2.59798">
        <ele>775.44</ele>
        <time>2022-07-12T14:58:53Z</time>
      </trkpt>
      <trkpt lat="44.23787" lon="2.59783">
        <ele>775.44</ele>
        <time>2022-07-12T14:59:02Z</time>
      </trkpt>
      <trkpt lat="44.23792" lon="2.59773">
        <ele>775.44</ele>
        <time>2022-07-12T14:59:10Z</time>
      </trkpt>
      <trkpt lat="44.23795" lon="2.5976">
        <ele>776.4</ele>
        <time>2022-07-12T14:59:19Z</time>
      </trkpt>
      <trkpt lat="44.23797" lon="2.59746">
        <ele>776.88</ele>
        <time>2022-07-12T14:59:28Z</time>
      </trkpt>
      <trkpt lat="44.23799" lon="2.5973">
        <ele>777.36</ele>
        <time>2022-07-12T14:59:37Z</time>
      </trkpt>
      <trkpt lat="44.23802" lon="2.59714">
        <ele>777.84</ele>
        <time>2022-07-12T14:59:46Z</time>
      </trkpt>
      <trkpt lat="44.23805" lon="2.597">
        <ele>777.84</ele>
        <time>2022-07-12T14:59:55Z</time>
      </trkpt>
      <trkpt lat="44.23809" lon="2.59687">
        <ele>776.88</ele>
        <time>2022-07-12T15:00:04Z</time>
      </trkpt>
      <trkpt lat="44.23814" lon="2.59675">
        <ele>776.88</ele>
        <time>2022-07-12T15:00:13Z</time>
      </trkpt>
      <trkpt lat="44.23818" lon="2.5966">
        <ele>776.4</ele>
        <time>2022-07-12T15:00:22Z</time>
      </trkpt>
      <trkpt lat="44.23823" lon="2.59647">
        <ele>775.44</ele>
        <time>2022-07-12T15:00:31Z</time>
      </trkpt>
      <trkpt lat="44.23829" lon="2.59633">
        <ele>774</ele>
        <time>2022-07-12T15:00:40Z</time>
      </trkpt>
      <trkpt lat="44.23834" lon="2.59619">
        <ele>773.04</ele>
        <time>2022-07-12T15:00:49Z</time>
      </trkpt>
      <trkpt lat="44.23841" lon="2.59608">
        <ele>773.04</ele>
        <time>2022-07-12T15:00:57Z</time>
      </trkpt>
      <trkpt lat="44.23845" lon="2.59595">
        <ele>772.08</ele>
        <time>2022-07-12T15:01:06Z</time>
      </trkpt>
      <trkpt lat="44.2385" lon="2.59583">
        <ele>771.11</ele>
        <time>2022-07-12T15:01:15Z</time>
      </trkpt>
      <trkpt lat="44.23855" lon="2.5957">
        <ele>771.11</ele>
        <time>2022-07-12T15:01:23Z</time>
      </trkpt>
      <trkpt lat="44.23861" lon="2.59558">
        <ele>770.63</ele>
        <time>2022-07-12T15:01:31Z</time>
      </trkpt>
      <trkpt lat="44.23869" lon="2.59547">
        <ele>769.67</ele>
        <time>2022-07-12T15:01:40Z</time>
      </trkpt>
      <trkpt lat="44.23875" lon="2.59535">
        <ele>768.71</ele>
        <time>2022-07-12T15:01:48Z</time>
      </trkpt>
      <trkpt lat="44.23879" lon="2.59522">
        <ele>767.75</ele>
        <time>2022-07-12T15:01:57Z</time>
      </trkpt>
      <trkpt lat="44.23886" lon="2.59507">
        <ele>767.27</ele>
        <time>2022-07-12T15:02:08Z</time>
      </trkpt>
      <trkpt lat="44.2389" lon="2.59492">
        <ele>767.27</ele>
        <time>2022-07-12T15:02:18Z</time>
      </trkpt>
      <trkpt lat="44.23914" lon="2.59441">
        <ele>770.63</ele>
        <time>2022-07-12T15:04:09Z</time>
      </trkpt>
      <trkpt lat="44.23921" lon="2.59427">
        <ele>769.67</ele>
        <time>2022-07-12T15:04:17Z</time>
      </trkpt>
      <trkpt lat="44.23933" lon="2.59402">
        <ele>769.67</ele>
        <time>2022-07-12T15:04:34Z</time>
      </trkpt>
      <trkpt lat="44.2395" lon="2.59366">
        <ele>765.35</ele>
        <time>2022-07-12T15:04:56Z</time>
      </trkpt>
      <trkpt lat="44.23961" lon="2.59351">
        <ele>764.87</ele>
        <time>2022-07-12T15:05:04Z</time>
      </trkpt>
      <trkpt lat="44.2397" lon="2.59338">
        <ele>764.39</ele>
        <time>2022-07-12T15:05:11Z</time>
      </trkpt>
      <trkpt lat="44.23981" lon="2.59325">
        <ele>763.9</ele>
        <time>2022-07-12T15:05:20Z</time>
      </trkpt>
      <trkpt lat="44.23991" lon="2.59311">
        <ele>762.46</ele>
        <time>2022-07-12T15:05:28Z</time>
      </trkpt>
      <trkpt lat="44.23998" lon="2.59299">
        <ele>761.02</ele>
        <time>2022-07-12T15:05:36Z</time>
      </trkpt>
      <trkpt lat="44.24005" lon="2.59284">
        <ele>759.58</ele>
        <time>2022-07-12T15:05:45Z</time>
      </trkpt>
      <trkpt lat="44.24013" lon="2.59267">
        <ele>757.66</ele>
        <time>2022-07-12T15:05:54Z</time>
      </trkpt>
      <trkpt lat="44.24021" lon="2.59251">
        <ele>756.21</ele>
        <time>2022-07-12T15:06:03Z</time>
      </trkpt>
      <trkpt lat="44.24028" lon="2.5923">
        <ele>753.81</ele>
        <time>2022-07-12T15:06:16Z</time>
      </trkpt>
      <trkpt lat="44.24068" lon="2.59143">
        <ele>745.64</ele>
        <time>2022-07-12T15:07:07Z</time>
      </trkpt>
      <trkpt lat="44.24088" lon="2.59119">
        <ele>746.12</ele>
        <time>2022-07-12T15:07:27Z</time>
      </trkpt>
      <trkpt lat="44.24111" lon="2.59072">
        <ele>744.2</ele>
        <time>2022-07-12T15:07:56Z</time>
      </trkpt>
      <trkpt lat="44.24117" lon="2.5905">
        <ele>744.68</ele>
        <time>2022-07-12T15:08:06Z</time>
      </trkpt>
      <trkpt lat="44.24121" lon="2.59035">
        <ele>742.28</ele>
        <time>2022-07-12T15:08:16Z</time>
      </trkpt>
      <trkpt lat="44.24133" lon="2.59011">
        <ele>738.43</ele>
        <time>2022-07-12T15:08:31Z</time>
      </trkpt>
      <trkpt lat="44.2414" lon="2.58993">
        <ele>738.43</ele>
        <time>2022-07-12T15:08:40Z</time>
      </trkpt>
      <trkpt lat="44.24146" lon="2.58978">
        <ele>738.91</ele>
        <time>2022-07-12T15:08:47Z</time>
      </trkpt>
      <trkpt lat="44.24154" lon="2.58963">
        <ele>739.87</ele>
        <time>2022-07-12T15:08:55Z</time>
      </trkpt>
      <trkpt lat="44.24158" lon="2.58949">
        <ele>741.31</ele>
        <time>2022-07-12T15:09:02Z</time>
      </trkpt>
      <trkpt lat="44.24166" lon="2.58936">
        <ele>741.79</ele>
        <time>2022-07-12T15:09:11Z</time>
      </trkpt>
      <trkpt lat="44.24173" lon="2.58924">
        <ele>742.28</ele>
        <time>2022-07-12T15:09:18Z</time>
      </trkpt>
      <trkpt lat="44.24179" lon="2.5891">
        <ele>742.76</ele>
        <time>2022-07-12T15:09:27Z</time>
      </trkpt>
      <trkpt lat="44.24186" lon="2.58895">
        <ele>741.79</ele>
        <time>2022-07-12T15:09:35Z</time>
      </trkpt>
      <trkpt lat="44.24194" lon="2.5888">
        <ele>741.79</ele>
        <time>2022-07-12T15:09:43Z</time>
      </trkpt>
      <trkpt lat="44.24201" lon="2.58867">
        <ele>741.31</ele>
        <time>2022-07-12T15:09:51Z</time>
      </trkpt>
      <trkpt lat="44.24206" lon="2.58853">
        <ele>739.87</ele>
        <time>2022-07-12T15:09:58Z</time>
      </trkpt>
      <trkpt lat="44.24211" lon="2.5884">
        <ele>738.43</ele>
        <time>2022-07-12T15:10:06Z</time>
      </trkpt>
      <trkpt lat="44.24218" lon="2.58825">
        <ele>738.43</ele>
        <time>2022-07-12T15:10:14Z</time>
      </trkpt>
      <trkpt lat="44.24221" lon="2.58814">
        <ele>738.43</ele>
        <time>2022-07-12T15:10:22Z</time>
      </trkpt>
      <trkpt lat="44.24226" lon="2.58798">
        <ele>736.99</ele>
        <time>2022-07-12T15:10:31Z</time>
      </trkpt>
      <trkpt lat="44.24232" lon="2.5878">
        <ele>735.07</ele>
        <time>2022-07-12T15:10:41Z</time>
      </trkpt>
      <trkpt lat="44.2424" lon="2.58759">
        <ele>734.1</ele>
        <time>2022-07-12T15:10:50Z</time>
      </trkpt>
      <trkpt lat="44.24242" lon="2.58738">
        <ele>732.66</ele>
        <time>2022-07-12T15:11:02Z</time>
      </trkpt>
      <trkpt lat="44.24244" lon="2.58717">
        <ele>731.7</ele>
        <time>2022-07-12T15:11:10Z</time>
      </trkpt>
      <trkpt lat="44.24247" lon="2.58702">
        <ele>731.22</ele>
        <time>2022-07-12T15:11:17Z</time>
      </trkpt>
      <trkpt lat="44.24249" lon="2.58684">
        <ele>730.26</ele>
        <time>2022-07-12T15:11:25Z</time>
      </trkpt>
      <trkpt lat="44.24252" lon="2.58665">
        <ele>730.74</ele>
        <time>2022-07-12T15:11:30Z</time>
      </trkpt>
      <trkpt lat="44.24254" lon="2.58648">
        <ele>731.22</ele>
        <time>2022-07-12T15:11:34Z</time>
      </trkpt>
      <trkpt lat="44.24257" lon="2.58632">
        <ele>731.7</ele>
        <time>2022-07-12T15:11:38Z</time>
      </trkpt>
      <trkpt lat="44.24258" lon="2.58616">
        <ele>732.66</ele>
        <time>2022-07-12T15:11:42Z</time>
      </trkpt>
      <trkpt lat="44.2426" lon="2.58597">
        <ele>732.66</ele>
        <time>2022-07-12T15:11:46Z</time>
      </trkpt>
      <trkpt lat="44.24261" lon="2.58583">
        <ele>732.18</ele>
        <time>2022-07-12T15:11:49Z</time>
      </trkpt>
      <trkpt lat="44.24264" lon="2.58569">
        <ele>732.18</ele>
        <time>2022-07-12T15:11:52Z</time>
      </trkpt>
      <trkpt lat="44.24267" lon="2.58554">
        <ele>732.18</ele>
        <time>2022-07-12T15:11:55Z</time>
      </trkpt>
      <trkpt lat="44.24269" lon="2.58541">
        <ele>732.18</ele>
        <time>2022-07-12T15:11:58Z</time>
      </trkpt>
      <trkpt lat="44.24272" lon="2.58525">
        <ele>732.18</ele>
        <time>2022-07-12T15:12:01Z</time>
      </trkpt>
      <trkpt lat="44.24276" lon="2.58508">
        <ele>732.18</ele>
        <time>2022-07-12T15:12:04Z</time>
      </trkpt>
      <trkpt lat="44.24281" lon="2.5849">
        <ele>733.14</ele>
        <time>2022-07-12T15:12:07Z</time>
      </trkpt>
      <trkpt lat="44.24285" lon="2.58474">
        <ele>733.62</ele>
        <time>2022-07-12T15:12:10Z</time>
      </trkpt>
      <trkpt lat="44.24289" lon="2.58458">
        <ele>734.1</ele>
        <time>2022-07-12T15:12:13Z</time>
      </trkpt>
      <trkpt lat="44.24291" lon="2.58443">
        <ele>734.58</ele>
        <time>2022-07-12T15:12:16Z</time>
      </trkpt>
      <trkpt lat="44.24293" lon="2.58424">
        <ele>735.07</ele>
        <time>2022-07-12T15:12:19Z</time>
      </trkpt>
      <trkpt lat="44.24295" lon="2.58406">
        <ele>735.55</ele>
        <time>2022-07-12T15:12:22Z</time>
      </trkpt>
      <trkpt lat="44.24296" lon="2.58391">
        <ele>736.03</ele>
        <time>2022-07-12T15:12:26Z</time>
      </trkpt>
      <trkpt lat="44.24314" lon="2.58395">
        <ele>739.87</ele>
        <time>2022-07-12T15:12:42Z</time>
      </trkpt>
      <trkpt lat="44.24326" lon="2.58396">
        <ele>741.31</ele>
        <time>2022-07-12T15:12:50Z</time>
      </trkpt>
      <trkpt lat="44.24336" lon="2.58397">
        <ele>745.64</ele>
        <time>2022-07-12T15:12:57Z</time>
      </trkpt>
      <trkpt lat="44.24345" lon="2.58398">
        <ele>745.64</ele>
        <time>2022-07-12T15:13:04Z</time>
      </trkpt>
      <trkpt lat="44.24355" lon="2.58392">
        <ele>747.08</ele>
        <time>2022-07-12T15:13:13Z</time>
      </trkpt>
      <trkpt lat="44.24366" lon="2.58375">
        <ele>749.49</ele>
        <time>2022-07-12T15:13:27Z</time>
      </trkpt>
      <trkpt lat="44.24375" lon="2.58367">
        <ele>749.97</ele>
        <time>2022-07-12T15:13:37Z</time>
      </trkpt>
      <trkpt lat="44.24421" lon="2.58376">
        <ele>753.81</ele>
        <time>2022-07-12T15:14:17Z</time>
      </trkpt>
      <trkpt lat="44.24434" lon="2.58381">
        <ele>754.29</ele>
        <time>2022-07-12T15:14:27Z</time>
      </trkpt>
      <trkpt lat="44.2445" lon="2.58387">
        <ele>755.73</ele>
        <time>2022-07-12T15:14:38Z</time>
      </trkpt>
      <trkpt lat="44.24482" lon="2.584">
        <ele>756.69</ele>
        <time>2022-07-12T15:15:03Z</time>
      </trkpt>
      <trkpt lat="44.24498" lon="2.58406">
        <ele>758.62</ele>
        <time>2022-07-12T15:15:16Z</time>
      </trkpt>
      <trkpt lat="44.24512" lon="2.58411">
        <ele>759.1</ele>
        <time>2022-07-12T15:15:26Z</time>
      </trkpt>
      <trkpt lat="44.24531" lon="2.58422">
        <ele>757.66</ele>
        <time>2022-07-12T15:15:40Z</time>
      </trkpt>
      <trkpt lat="44.24564" lon="2.58435">
        <ele>755.73</ele>
        <time>2022-07-12T15:16:04Z</time>
      </trkpt>
      <trkpt lat="44.24578" lon="2.58436">
        <ele>755.25</ele>
        <time>2022-07-12T15:16:12Z</time>
      </trkpt>
      <trkpt lat="44.24589" lon="2.58444">
        <ele>752.85</ele>
        <time>2022-07-12T15:16:21Z</time>
      </trkpt>
      <trkpt lat="44.24597" lon="2.58456">
        <ele>752.37</ele>
        <time>2022-07-12T15:16:28Z</time>
      </trkpt>
      <trkpt lat="44.24603" lon="2.5847">
        <ele>755.73</ele>
        <time>2022-07-12T15:16:35Z</time>
      </trkpt>
      <trkpt lat="44.24605" lon="2.58485">
        <ele>758.14</ele>
        <time>2022-07-12T15:16:42Z</time>
      </trkpt>
      <trkpt lat="44.24605" lon="2.58499">
        <ele>759.58</ele>
        <time>2022-07-12T15:16:49Z</time>
      </trkpt>
      <trkpt lat="44.24609" lon="2.58512">
        <ele>760.54</ele>
        <time>2022-07-12T15:16:57Z</time>
      </trkpt>
      <trkpt lat="44.24614" lon="2.5853">
        <ele>761.5</ele>
        <time>2022-07-12T15:17:09Z</time>
      </trkpt>
      <trkpt lat="44.24618" lon="2.58548">
        <ele>761.98</ele>
        <time>2022-07-12T15:17:19Z</time>
      </trkpt>
      <trkpt lat="44.24615" lon="2.58563">
        <ele>760.54</ele>
        <time>2022-07-12T15:17:27Z</time>
      </trkpt>
      <trkpt lat="44.24623" lon="2.58573">
        <ele>760.06</ele>
        <time>2022-07-12T15:17:35Z</time>
      </trkpt>
      <trkpt lat="44.24632" lon="2.58581">
        <ele>760.54</ele>
        <time>2022-07-12T15:17:42Z</time>
      </trkpt>
      <trkpt lat="44.24641" lon="2.58583">
        <ele>763.9</ele>
        <time>2022-07-12T15:17:51Z</time>
      </trkpt>
      <trkpt lat="44.24646" lon="2.58572">
        <ele>763.9</ele>
        <time>2022-07-12T15:17:58Z</time>
      </trkpt>
      <trkpt lat="44.24651" lon="2.58562">
        <ele>762.94</ele>
        <time>2022-07-12T15:18:05Z</time>
      </trkpt>
      <trkpt lat="44.2466" lon="2.58561">
        <ele>762.94</ele>
        <time>2022-07-12T15:18:13Z</time>
      </trkpt>
      <trkpt lat="44.24668" lon="2.58566">
        <ele>763.9</ele>
        <time>2022-07-12T15:18:20Z</time>
      </trkpt>
      <trkpt lat="44.24678" lon="2.5857">
        <ele>764.39</ele>
        <time>2022-07-12T15:18:28Z</time>
      </trkpt>
      <trkpt lat="44.24689" lon="2.58577">
        <ele>764.87</ele>
        <time>2022-07-12T15:18:36Z</time>
      </trkpt>
      <trkpt lat="44.247" lon="2.5859">
        <ele>765.83</ele>
        <time>2022-07-12T15:18:56Z</time>
      </trkpt>
      <trkpt lat="44.24706" lon="2.58602">
        <ele>766.79</ele>
        <time>2022-07-12T15:19:03Z</time>
      </trkpt>
      <trkpt lat="44.24714" lon="2.58616">
        <ele>767.27</ele>
        <time>2022-07-12T15:19:11Z</time>
      </trkpt>
      <trkpt lat="44.24721" lon="2.58627">
        <ele>767.75</ele>
        <time>2022-07-12T15:19:19Z</time>
      </trkpt>
      <trkpt lat="44.24727" lon="2.5864">
        <ele>768.71</ele>
        <time>2022-07-12T15:19:27Z</time>
      </trkpt>
      <trkpt lat="44.24734" lon="2.58654">
        <ele>768.23</ele>
        <time>2022-07-12T15:19:35Z</time>
      </trkpt>
      <trkpt lat="44.24739" lon="2.58669">
        <ele>767.75</ele>
        <time>2022-07-12T15:19:44Z</time>
      </trkpt>
      <trkpt lat="44.24742" lon="2.58685">
        <ele>766.79</ele>
        <time>2022-07-12T15:19:53Z</time>
      </trkpt>
      <trkpt lat="44.24743" lon="2.58699">
        <ele>766.31</ele>
        <time>2022-07-12T15:20:01Z</time>
      </trkpt>
      <trkpt lat="44.24744" lon="2.58715">
        <ele>765.35</ele>
        <time>2022-07-12T15:20:09Z</time>
      </trkpt>
      <trkpt lat="44.24746" lon="2.5873">
        <ele>764.87</ele>
        <time>2022-07-12T15:20:16Z</time>
      </trkpt>
      <trkpt lat="44.24747" lon="2.58745">
        <ele>765.35</ele>
        <time>2022-07-12T15:20:24Z</time>
      </trkpt>
      <trkpt lat="44.2475" lon="2.5876">
        <ele>764.87</ele>
        <time>2022-07-12T15:20:32Z</time>
      </trkpt>
      <trkpt lat="44.24757" lon="2.58768">
        <ele>761.98</ele>
        <time>2022-07-12T15:20:42Z</time>
      </trkpt>
      <trkpt lat="44.2477" lon="2.58772">
        <ele>760.54</ele>
        <time>2022-07-12T15:20:51Z</time>
      </trkpt>
      <trkpt lat="44.24778" lon="2.58776">
        <ele>759.58</ele>
        <time>2022-07-12T15:20:58Z</time>
      </trkpt>
      <trkpt lat="44.24787" lon="2.58781">
        <ele>758.62</ele>
        <time>2022-07-12T15:21:05Z</time>
      </trkpt>
      <trkpt lat="44.2479" lon="2.58796">
        <ele>757.18</ele>
        <time>2022-07-12T15:21:12Z</time>
      </trkpt>
      <trkpt lat="44.24787" lon="2.58811">
        <ele>756.21</ele>
        <time>2022-07-12T15:21:19Z</time>
      </trkpt>
      <trkpt lat="44.24782" lon="2.58825">
        <ele>754.77</ele>
        <time>2022-07-12T15:21:27Z</time>
      </trkpt>
      <trkpt lat="44.24779" lon="2.58839">
        <ele>751.89</ele>
        <time>2022-07-12T15:21:35Z</time>
      </trkpt>
      <trkpt lat="44.24776" lon="2.58854">
        <ele>749.97</ele>
        <time>2022-07-12T15:21:43Z</time>
      </trkpt>
      <trkpt lat="44.24773" lon="2.58869">
        <ele>747.56</ele>
        <time>2022-07-12T15:21:52Z</time>
      </trkpt>
      <trkpt lat="44.24773" lon="2.58891">
        <ele>744.2</ele>
        <time>2022-07-12T15:22:05Z</time>
      </trkpt>
      <trkpt lat="44.24774" lon="2.58908">
        <ele>744.2</ele>
        <time>2022-07-12T15:22:13Z</time>
      </trkpt>
      <trkpt lat="44.2478" lon="2.58925">
        <ele>744.68</ele>
        <time>2022-07-12T15:22:22Z</time>
      </trkpt>
      <trkpt lat="44.24786" lon="2.58939">
        <ele>744.2</ele>
        <time>2022-07-12T15:22:29Z</time>
      </trkpt>
      <trkpt lat="44.24793" lon="2.5895">
        <ele>743.24</ele>
        <time>2022-07-12T15:22:37Z</time>
      </trkpt>
      <trkpt lat="44.248" lon="2.58961">
        <ele>742.28</ele>
        <time>2022-07-12T15:22:44Z</time>
      </trkpt>
      <trkpt lat="44.24807" lon="2.5897">
        <ele>741.79</ele>
        <time>2022-07-12T15:22:51Z</time>
      </trkpt>
      <trkpt lat="44.24816" lon="2.58978">
        <ele>741.31</ele>
        <time>2022-07-12T15:22:58Z</time>
      </trkpt>
      <trkpt lat="44.24824" lon="2.58983">
        <ele>740.83</ele>
        <time>2022-07-12T15:23:05Z</time>
      </trkpt>
      <trkpt lat="44.24832" lon="2.58989">
        <ele>738.91</ele>
        <time>2022-07-12T15:23:13Z</time>
      </trkpt>
      <trkpt lat="44.24841" lon="2.58999">
        <ele>738.43</ele>
        <time>2022-07-12T15:23:20Z</time>
      </trkpt>
      <trkpt lat="44.24848" lon="2.5901">
        <ele>737.47</ele>
        <time>2022-07-12T15:23:27Z</time>
      </trkpt>
      <trkpt lat="44.24855" lon="2.5902">
        <ele>736.99</ele>
        <time>2022-07-12T15:23:34Z</time>
      </trkpt>
      <trkpt lat="44.24861" lon="2.5903">
        <ele>735.55</ele>
        <time>2022-07-12T15:23:41Z</time>
      </trkpt>
      <trkpt lat="44.24868" lon="2.59041">
        <ele>734.58</ele>
        <time>2022-07-12T15:23:48Z</time>
      </trkpt>
      <trkpt lat="44.24876" lon="2.59052">
        <ele>733.62</ele>
        <time>2022-07-12T15:23:56Z</time>
      </trkpt>
      <trkpt lat="44.24885" lon="2.59062">
        <ele>732.66</ele>
        <time>2022-07-12T15:24:05Z</time>
      </trkpt>
      <trkpt lat="44.24899" lon="2.59066">
        <ele>730.74</ele>
        <time>2022-07-12T15:24:19Z</time>
      </trkpt>
      <trkpt lat="44.24909" lon="2.59067">
        <ele>729.3</ele>
        <time>2022-07-12T15:24:27Z</time>
      </trkpt>
      <trkpt lat="44.2492" lon="2.59069">
        <ele>727.86</ele>
        <time>2022-07-12T15:24:34Z</time>
      </trkpt>
      <trkpt lat="44.24932" lon="2.5907">
        <ele>726.41</ele>
        <time>2022-07-12T15:24:40Z</time>
      </trkpt>
      <trkpt lat="44.24942" lon="2.5907">
        <ele>724.97</ele>
        <time>2022-07-12T15:24:47Z</time>
      </trkpt>
      <trkpt lat="44.24951" lon="2.59071">
        <ele>724.01</ele>
        <time>2022-07-12T15:24:55Z</time>
      </trkpt>
      <trkpt lat="44.24962" lon="2.5907">
        <ele>721.61</ele>
        <time>2022-07-12T15:25:03Z</time>
      </trkpt>
      <trkpt lat="44.24972" lon="2.59067">
        <ele>719.2</ele>
        <time>2022-07-12T15:25:11Z</time>
      </trkpt>
      <trkpt lat="44.24982" lon="2.59062">
        <ele>717.76</ele>
        <time>2022-07-12T15:25:17Z</time>
      </trkpt>
      <trkpt lat="44.24992" lon="2.59059">
        <ele>716.8</ele>
        <time>2022-07-12T15:25:24Z</time>
      </trkpt>
      <trkpt lat="44.25003" lon="2.59056">
        <ele>715.84</ele>
        <time>2022-07-12T15:25:31Z</time>
      </trkpt>
      <trkpt lat="44.25011" lon="2.59054">
        <ele>712.95</ele>
        <time>2022-07-12T15:25:38Z</time>
      </trkpt>
      <trkpt lat="44.25022" lon="2.59052">
        <ele>711.99</ele>
        <time>2022-07-12T15:25:46Z</time>
      </trkpt>
      <trkpt lat="44.25033" lon="2.59049">
        <ele>711.99</ele>
        <time>2022-07-12T15:25:54Z</time>
      </trkpt>
      <trkpt lat="44.25043" lon="2.59049">
        <ele>711.51</ele>
        <time>2022-07-12T15:26:01Z</time>
      </trkpt>
      <trkpt lat="44.25055" lon="2.59045">
        <ele>711.03</ele>
        <time>2022-07-12T15:26:08Z</time>
      </trkpt>
      <trkpt lat="44.25066" lon="2.59043">
        <ele>710.07</ele>
        <time>2022-07-12T15:26:15Z</time>
      </trkpt>
      <trkpt lat="44.25075" lon="2.59038">
        <ele>710.55</ele>
        <time>2022-07-12T15:26:22Z</time>
      </trkpt>
      <trkpt lat="44.25085" lon="2.59036">
        <ele>709.11</ele>
        <time>2022-07-12T15:26:29Z</time>
      </trkpt>
      <trkpt lat="44.25095" lon="2.59033">
        <ele>707.67</ele>
        <time>2022-07-12T15:26:36Z</time>
      </trkpt>
      <trkpt lat="44.25107" lon="2.59029">
        <ele>707.19</ele>
        <time>2022-07-12T15:26:43Z</time>
      </trkpt>
      <trkpt lat="44.25117" lon="2.59022">
        <ele>706.71</ele>
        <time>2022-07-12T15:26:51Z</time>
      </trkpt>
      <trkpt lat="44.25128" lon="2.59017">
        <ele>705.75</ele>
        <time>2022-07-12T15:26:59Z</time>
      </trkpt>
      <trkpt lat="44.25137" lon="2.59013">
        <ele>703.82</ele>
        <time>2022-07-12T15:27:07Z</time>
      </trkpt>
      <trkpt lat="44.25146" lon="2.59018">
        <ele>703.82</ele>
        <time>2022-07-12T15:27:13Z</time>
      </trkpt>
      <trkpt lat="44.25147" lon="2.59034">
        <ele>703.82</ele>
        <time>2022-07-12T15:27:22Z</time>
      </trkpt>
      <trkpt lat="44.2515" lon="2.59047">
        <ele>703.34</ele>
        <time>2022-07-12T15:27:30Z</time>
      </trkpt>
      <trkpt lat="44.2515" lon="2.59064">
        <ele>703.82</ele>
        <time>2022-07-12T15:27:39Z</time>
      </trkpt>
      <trkpt lat="44.2515" lon="2.59084">
        <ele>704.3</ele>
        <time>2022-07-12T15:27:49Z</time>
      </trkpt>
      <trkpt lat="44.25147" lon="2.59105">
        <ele>701.42</ele>
        <time>2022-07-12T15:28:01Z</time>
      </trkpt>
      <trkpt lat="44.25178" lon="2.59142">
        <ele>694.21</ele>
        <time>2022-07-12T15:28:56Z</time>
      </trkpt>
      <trkpt lat="44.2519" lon="2.59149">
        <ele>694.21</ele>
        <time>2022-07-12T15:29:05Z</time>
      </trkpt>
      <trkpt lat="44.25211" lon="2.59158">
        <ele>692.77</ele>
        <time>2022-07-12T15:29:21Z</time>
      </trkpt>
      <trkpt lat="44.25224" lon="2.59161">
        <ele>691.33</ele>
        <time>2022-07-12T15:29:30Z</time>
      </trkpt>
      <trkpt lat="44.25355" lon="2.59152">
        <ele>653.35</ele>
        <time>2022-07-12T15:35:12Z</time>
      </trkpt>
      <trkpt lat="44.25335" lon="2.59231">
        <ele>646.62</ele>
        <time>2022-07-12T15:36:10Z</time>
      </trkpt>
      <trkpt lat="44.25314" lon="2.5925">
        <ele>644.22</ele>
        <time>2022-07-12T15:36:30Z</time>
      </trkpt>
      <trkpt lat="44.253" lon="2.59267">
        <ele>643.74</ele>
        <time>2022-07-12T15:36:42Z</time>
      </trkpt>
      <trkpt lat="44.2527" lon="2.59292">
        <ele>638.45</ele>
        <time>2022-07-12T15:37:11Z</time>
      </trkpt>
      <trkpt lat="44.25256" lon="2.59305">
        <ele>637.49</ele>
        <time>2022-07-12T15:37:22Z</time>
      </trkpt>
      <trkpt lat="44.25245" lon="2.59317">
        <ele>638.45</ele>
        <time>2022-07-12T15:37:32Z</time>
      </trkpt>
      <trkpt lat="44.25224" lon="2.59328">
        <ele>635.09</ele>
        <time>2022-07-12T15:37:51Z</time>
      </trkpt>
      <trkpt lat="44.25531" lon="2.59162">
        <ele>597.12</ele>
        <time>2022-07-12T15:44:04Z</time>
      </trkpt>
      <trkpt lat="44.25545" lon="2.59156">
        <ele>602.88</ele>
        <time>2022-07-12T15:44:12Z</time>
      </trkpt>
      <trkpt lat="44.25557" lon="2.59153">
        <ele>600.96</ele>
        <time>2022-07-12T15:44:21Z</time>
      </trkpt>
      <trkpt lat="44.25566" lon="2.59148">
        <ele>598.08</ele>
        <time>2022-07-12T15:44:29Z</time>
      </trkpt>
      <trkpt lat="44.25577" lon="2.59137">
        <ele>598.08</ele>
        <time>2022-07-12T15:44:39Z</time>
      </trkpt>
      <trkpt lat="44.25585" lon="2.59127">
        <ele>597.12</ele>
        <time>2022-07-12T15:44:47Z</time>
      </trkpt>
      <trkpt lat="44.25596" lon="2.59115">
        <ele>596.15</ele>
        <time>2022-07-12T15:44:57Z</time>
      </trkpt>
      <trkpt lat="44.25609" lon="2.59104">
        <ele>595.67</ele>
        <time>2022-07-12T15:45:05Z</time>
      </trkpt>
      <trkpt lat="44.25621" lon="2.59082">
        <ele>595.19</ele>
        <time>2022-07-12T15:45:19Z</time>
      </trkpt>
      <trkpt lat="44.2565" lon="2.59056">
        <ele>593.75</ele>
        <time>2022-07-12T15:45:41Z</time>
      </trkpt>
      <trkpt lat="44.25663" lon="2.59047">
        <ele>592.31</ele>
        <time>2022-07-12T15:45:51Z</time>
      </trkpt>
      <trkpt lat="44.25672" lon="2.59027">
        <ele>590.39</ele>
        <time>2022-07-12T15:46:03Z</time>
      </trkpt>
      <trkpt lat="44.25701" lon="2.58982">
        <ele>585.1</ele>
        <time>2022-07-12T15:46:34Z</time>
      </trkpt>
      <trkpt lat="44.2571" lon="2.5895">
        <ele>578.37</ele>
        <time>2022-07-12T15:46:52Z</time>
      </trkpt>
      <trkpt lat="44.25715" lon="2.58939">
        <ele>579.33</ele>
        <time>2022-07-12T15:47:01Z</time>
      </trkpt>
      <trkpt lat="44.25721" lon="2.58919">
        <ele>577.89</ele>
        <time>2022-07-12T15:47:14Z</time>
      </trkpt>
      <trkpt lat="44.25734" lon="2.58882">
        <ele>575.49</ele>
        <time>2022-07-12T15:47:37Z</time>
      </trkpt>
      <trkpt lat="44.25751" lon="2.5883">
        <ele>573.08</ele>
        <time>2022-07-12T15:48:04Z</time>
      </trkpt>
      <trkpt lat="44.25771" lon="2.58788">
        <ele>571.64</ele>
        <time>2022-07-12T15:48:28Z</time>
      </trkpt>
      <trkpt lat="44.25784" lon="2.5877">
        <ele>570.68</ele>
        <time>2022-07-12T15:48:42Z</time>
      </trkpt>
      <trkpt lat="44.25826" lon="2.58661">
        <ele>564.43</ele>
        <time>2022-07-12T15:49:45Z</time>
      </trkpt>
      <trkpt lat="44.25925" lon="2.58597">
        <ele>537.03</ele>
        <time>2022-07-12T15:51:18Z</time>
      </trkpt>
      <trkpt lat="44.25965" lon="2.5848">
        <ele>500.98</ele>
        <time>2022-07-12T15:52:47Z</time>
      </trkpt>
      <trkpt lat="44.25966" lon="2.58465">
        <ele>500.98</ele>
        <time>2022-07-12T15:52:51Z</time>
      </trkpt>
      <trkpt lat="44.25968" lon="2.58447">
        <ele>500.98</ele>
        <time>2022-07-12T15:52:56Z</time>
      </trkpt>
      <trkpt lat="44.25971" lon="2.58424">
        <ele>500.5</ele>
        <time>2022-07-12T15:53:03Z</time>
      </trkpt>
      <trkpt lat="44.26014" lon="2.58345">
        <ele>506.27</ele>
        <time>2022-07-12T15:53:42Z</time>
      </trkpt>
      <trkpt lat="44.26068" lon="2.58243">
        <ele>523.58</ele>
        <time>2022-07-12T15:54:48Z</time>
      </trkpt>
      <trkpt lat="44.26053" lon="2.58194">
        <ele>527.42</ele>
        <time>2022-07-12T15:55:16Z</time>
      </trkpt>
      <trkpt lat="44.26041" lon="2.58193">
        <ele>527.42</ele>
        <time>2022-07-12T15:55:25Z</time>
      </trkpt>
      <trkpt lat="44.26027" lon="2.58192">
        <ele>527.42</ele>
        <time>2022-07-12T15:55:37Z</time>
      </trkpt>
      <trkpt lat="44.26011" lon="2.58185">
        <ele>527.42</ele>
        <time>2022-07-12T15:55:47Z</time>
      </trkpt>
      <trkpt lat="44.25995" lon="2.58182">
        <ele>527.42</ele>
        <time>2022-07-12T15:55:54Z</time>
      </trkpt>
      <trkpt lat="44.25984" lon="2.5818">
        <ele>527.42</ele>
        <time>2022-07-12T15:56:01Z</time>
      </trkpt>
      <trkpt lat="44.25968" lon="2.5818">
        <ele>527.42</ele>
        <time>2022-07-12T15:56:12Z</time>
      </trkpt>
      <trkpt lat="44.25955" lon="2.58176">
        <ele>527.42</ele>
        <time>2022-07-12T15:56:17Z</time>
      </trkpt>
      <trkpt lat="44.25942" lon="2.58173">
        <ele>527.42</ele>
        <time>2022-07-12T15:56:21Z</time>
      </trkpt>
      <trkpt lat="44.25929" lon="2.5817">
        <ele>527.42</ele>
        <time>2022-07-12T15:56:26Z</time>
      </trkpt>
      <trkpt lat="44.25912" lon="2.58164">
        <ele>526.94</ele>
        <time>2022-07-12T15:56:34Z</time>
      </trkpt>
      <trkpt lat="44.25899" lon="2.58161">
        <ele>526.94</ele>
        <time>2022-07-12T15:56:42Z</time>
      </trkpt>
      <trkpt lat="44.25879" lon="2.58151">
        <ele>526.94</ele>
        <time>2022-07-12T15:56:53Z</time>
      </trkpt>
      <trkpt lat="44.25864" lon="2.58146">
        <ele>526.94</ele>
        <time>2022-07-12T15:57:01Z</time>
      </trkpt>
      <trkpt lat="44.25853" lon="2.58142">
        <ele>526.94</ele>
        <time>2022-07-12T15:57:06Z</time>
      </trkpt>
      <trkpt lat="44.2584" lon="2.58135">
        <ele>526.94</ele>
        <time>2022-07-12T15:57:12Z</time>
      </trkpt>
      <trkpt lat="44.25828" lon="2.5813">
        <ele>526.94</ele>
        <time>2022-07-12T15:57:19Z</time>
      </trkpt>
      <trkpt lat="44.25816" lon="2.58122">
        <ele>526.94</ele>
        <time>2022-07-12T15:57:28Z</time>
      </trkpt>
      <trkpt lat="44.25784" lon="2.58101">
        <ele>527.42</ele>
        <time>2022-07-12T16:03:42Z</time>
      </trkpt>
      <trkpt lat="44.25774" lon="2.58091">
        <ele>525.98</ele>
        <time>2022-07-12T16:03:50Z</time>
      </trkpt>
      <trkpt lat="44.25765" lon="2.58085">
        <ele>525.02</ele>
        <time>2022-07-12T16:03:57Z</time>
      </trkpt>
      <trkpt lat="44.25757" lon="2.58077">
        <ele>525.5</ele>
        <time>2022-07-12T16:04:04Z</time>
      </trkpt>
      <trkpt lat="44.25745" lon="2.58071">
        <ele>525.98</ele>
        <time>2022-07-12T16:04:14Z</time>
      </trkpt>
      <trkpt lat="44.25732" lon="2.58065">
        <ele>525.98</ele>
        <time>2022-07-12T16:04:23Z</time>
      </trkpt>
      <trkpt lat="44.25721" lon="2.58061">
        <ele>525.98</ele>
        <time>2022-07-12T16:04:32Z</time>
      </trkpt>
      <trkpt lat="44.25709" lon="2.58055">
        <ele>525.02</ele>
        <time>2022-07-12T16:04:40Z</time>
      </trkpt>
      <trkpt lat="44.25698" lon="2.58049">
        <ele>524.06</ele>
        <time>2022-07-12T16:04:46Z</time>
      </trkpt>
      <trkpt lat="44.25686" lon="2.58042">
        <ele>522.61</ele>
        <time>2022-07-12T16:04:53Z</time>
      </trkpt>
      <trkpt lat="44.25675" lon="2.58038">
        <ele>521.65</ele>
        <time>2022-07-12T16:05:01Z</time>
      </trkpt>
      <trkpt lat="44.25663" lon="2.58042">
        <ele>520.69</ele>
        <time>2022-07-12T16:05:08Z</time>
      </trkpt>
      <trkpt lat="44.25651" lon="2.5805">
        <ele>521.17</ele>
        <time>2022-07-12T16:05:15Z</time>
      </trkpt>
      <trkpt lat="44.25641" lon="2.58057">
        <ele>526.94</ele>
        <time>2022-07-12T16:05:26Z</time>
      </trkpt>
      <trkpt lat="44.25607" lon="2.58104">
        <ele>535.11</ele>
        <time>2022-07-12T16:05:59Z</time>
      </trkpt>
      <trkpt lat="44.25587" lon="2.58126">
        <ele>538.48</ele>
        <time>2022-07-12T16:06:14Z</time>
      </trkpt>
      <trkpt lat="44.25571" lon="2.58132">
        <ele>539.92</ele>
        <time>2022-07-12T16:06:24Z</time>
      </trkpt>
      <trkpt lat="44.25555" lon="2.58139">
        <ele>545.69</ele>
        <time>2022-07-12T16:06:34Z</time>
      </trkpt>
      <trkpt lat="44.25538" lon="2.58149">
        <ele>554.34</ele>
        <time>2022-07-12T16:06:47Z</time>
      </trkpt>
      <trkpt lat="44.25507" lon="2.58172">
        <ele>566.83</ele>
        <time>2022-07-12T16:07:10Z</time>
      </trkpt>
      <trkpt lat="44.25458" lon="2.5822">
        <ele>585.58</ele>
        <time>2022-07-12T16:07:51Z</time>
      </trkpt>
      <trkpt lat="44.25449" lon="2.58228">
        <ele>585.58</ele>
        <time>2022-07-12T16:08:00Z</time>
      </trkpt>
      <trkpt lat="44.25441" lon="2.58238">
        <ele>583.66</ele>
        <time>2022-07-12T16:08:08Z</time>
      </trkpt>
      <trkpt lat="44.25432" lon="2.58248">
        <ele>583.18</ele>
        <time>2022-07-12T16:08:15Z</time>
      </trkpt>
      <trkpt lat="44.25412" lon="2.58276">
        <ele>578.85</ele>
        <time>2022-07-12T16:08:33Z</time>
      </trkpt>
      <trkpt lat="44.254" lon="2.58277">
        <ele>577.41</ele>
        <time>2022-07-12T16:08:39Z</time>
      </trkpt>
      <trkpt lat="44.25395" lon="2.58263">
        <ele>575.49</ele>
        <time>2022-07-12T16:08:47Z</time>
      </trkpt>
      <trkpt lat="44.25392" lon="2.58246">
        <ele>573.56</ele>
        <time>2022-07-12T16:08:55Z</time>
      </trkpt>
      <trkpt lat="44.25389" lon="2.58229">
        <ele>572.6</ele>
        <time>2022-07-12T16:09:03Z</time>
      </trkpt>
      <trkpt lat="44.25387" lon="2.58217">
        <ele>572.12</ele>
        <time>2022-07-12T16:09:09Z</time>
      </trkpt>
      <trkpt lat="44.25383" lon="2.58203">
        <ele>571.16</ele>
        <time>2022-07-12T16:09:17Z</time>
      </trkpt>
      <trkpt lat="44.25377" lon="2.5819">
        <ele>571.16</ele>
        <time>2022-07-12T16:09:24Z</time>
      </trkpt>
      <trkpt lat="44.25368" lon="2.5818">
        <ele>571.16</ele>
        <time>2022-07-12T16:09:33Z</time>
      </trkpt>
      <trkpt lat="44.25359" lon="2.58156">
        <ele>573.08</ele>
        <time>2022-07-12T16:09:47Z</time>
      </trkpt>
      <trkpt lat="44.25377" lon="2.58094">
        <ele>595.19</ele>
        <time>2022-07-12T16:10:29Z</time>
      </trkpt>
      <trkpt lat="44.25404" lon="2.5808">
        <ele>600</ele>
        <time>2022-07-12T16:10:49Z</time>
      </trkpt>
      <trkpt lat="44.2545" lon="2.58045">
        <ele>593.75</ele>
        <time>2022-07-12T16:11:21Z</time>
      </trkpt>
      <trkpt lat="44.25464" lon="2.5803">
        <ele>592.79</ele>
        <time>2022-07-12T16:11:31Z</time>
      </trkpt>
      <trkpt lat="44.25475" lon="2.58017">
        <ele>594.23</ele>
        <time>2022-07-12T16:11:41Z</time>
      </trkpt>
      <trkpt lat="44.25491" lon="2.57993">
        <ele>596.64</ele>
        <time>2022-07-12T16:11:56Z</time>
      </trkpt>
      <trkpt lat="44.25414" lon="2.57989">
        <ele>606.73</ele>
        <time>2022-07-12T16:13:36Z</time>
      </trkpt>
      <trkpt lat="44.25393" lon="2.5797">
        <ele>609.61</ele>
        <time>2022-07-12T16:13:54Z</time>
      </trkpt>
      <trkpt lat="44.25454" lon="2.57866">
        <ele>618.26</ele>
        <time>2022-07-12T16:14:58Z</time>
      </trkpt>
      <trkpt lat="44.25285" lon="2.57892">
        <ele>679.31</ele>
        <time>2022-07-12T16:17:44Z</time>
      </trkpt>
      <trkpt lat="44.25153" lon="2.57885">
        <ele>694.69</ele>
        <time>2022-07-12T16:20:39Z</time>
      </trkpt>
      <trkpt lat="44.25141" lon="2.57893">
        <ele>699.02</ele>
        <time>2022-07-12T16:20:47Z</time>
      </trkpt>
      <trkpt lat="44.25116" lon="2.57887">
        <ele>701.42</ele>
        <time>2022-07-12T16:21:05Z</time>
      </trkpt>
      <trkpt lat="44.25099" lon="2.57879">
        <ele>705.26</ele>
        <time>2022-07-12T16:21:17Z</time>
      </trkpt>
      <trkpt lat="44.25085" lon="2.57873">
        <ele>708.63</ele>
        <time>2022-07-12T16:21:28Z</time>
      </trkpt>
      <trkpt lat="44.25068" lon="2.57871">
        <ele>710.07</ele>
        <time>2022-07-12T16:21:37Z</time>
      </trkpt>
      <trkpt lat="44.25056" lon="2.57862">
        <ele>710.07</ele>
        <time>2022-07-12T16:21:43Z</time>
      </trkpt>
      <trkpt lat="44.25045" lon="2.57852">
        <ele>709.59</ele>
        <time>2022-07-12T16:21:51Z</time>
      </trkpt>
      <trkpt lat="44.25033" lon="2.57842">
        <ele>708.63</ele>
        <time>2022-07-12T16:22:01Z</time>
      </trkpt>
      <trkpt lat="44.25029" lon="2.5781">
        <ele>723.05</ele>
        <time>2022-07-12T16:22:13Z</time>
      </trkpt>
      <trkpt lat="44.25027" lon="2.57795">
        <ele>728.34</ele>
        <time>2022-07-12T16:22:19Z</time>
      </trkpt>
      <trkpt lat="44.25024" lon="2.57782">
        <ele>731.22</ele>
        <time>2022-07-12T16:22:25Z</time>
      </trkpt>
      <trkpt lat="44.25017" lon="2.5777">
        <ele>733.62</ele>
        <time>2022-07-12T16:22:34Z</time>
      </trkpt>
      <trkpt lat="44.25011" lon="2.57761">
        <ele>735.55</ele>
        <time>2022-07-12T16:22:39Z</time>
      </trkpt>
      <trkpt lat="44.25001" lon="2.57763">
        <ele>737.95</ele>
        <time>2022-07-12T16:22:47Z</time>
      </trkpt>
      <trkpt lat="44.24992" lon="2.57773">
        <ele>739.87</ele>
        <time>2022-07-12T16:22:54Z</time>
      </trkpt>
      <trkpt lat="44.24983" lon="2.57781">
        <ele>741.31</ele>
        <time>2022-07-12T16:23:00Z</time>
      </trkpt>
      <trkpt lat="44.24974" lon="2.57788">
        <ele>742.76</ele>
        <time>2022-07-12T16:23:07Z</time>
      </trkpt>
      <trkpt lat="44.24956" lon="2.57808">
        <ele>745.64</ele>
        <time>2022-07-12T16:23:24Z</time>
      </trkpt>
      <trkpt lat="44.24945" lon="2.57819">
        <ele>746.6</ele>
        <time>2022-07-12T16:23:33Z</time>
      </trkpt>
      <trkpt lat="44.24928" lon="2.57844">
        <ele>749</ele>
        <time>2022-07-12T16:23:51Z</time>
      </trkpt>
      <trkpt lat="44.24923" lon="2.57858">
        <ele>749.49</ele>
        <time>2022-07-12T16:23:58Z</time>
      </trkpt>
      <trkpt lat="44.24921" lon="2.57875">
        <ele>749.97</ele>
        <time>2022-07-12T16:24:06Z</time>
      </trkpt>
      <trkpt lat="44.24919" lon="2.57891">
        <ele>749.97</ele>
        <time>2022-07-12T16:24:14Z</time>
      </trkpt>
      <trkpt lat="44.24912" lon="2.57905">
        <ele>752.85</ele>
        <time>2022-07-12T16:24:22Z</time>
      </trkpt>
      <trkpt lat="44.24906" lon="2.57922">
        <ele>752.37</ele>
        <time>2022-07-12T16:24:30Z</time>
      </trkpt>
      <trkpt lat="44.24899" lon="2.57935">
        <ele>752.37</ele>
        <time>2022-07-12T16:24:37Z</time>
      </trkpt>
      <trkpt lat="44.24893" lon="2.57947">
        <ele>753.81</ele>
        <time>2022-07-12T16:24:45Z</time>
      </trkpt>
      <trkpt lat="44.24884" lon="2.57959">
        <ele>754.77</ele>
        <time>2022-07-12T16:24:52Z</time>
      </trkpt>
      <trkpt lat="44.24873" lon="2.57964">
        <ele>755.25</ele>
        <time>2022-07-12T16:24:59Z</time>
      </trkpt>
      <trkpt lat="44.2486" lon="2.5797">
        <ele>756.21</ele>
        <time>2022-07-12T16:25:09Z</time>
      </trkpt>
      <trkpt lat="44.24849" lon="2.5798">
        <ele>757.18</ele>
        <time>2022-07-12T16:25:17Z</time>
      </trkpt>
      <trkpt lat="44.2484" lon="2.57989">
        <ele>756.21</ele>
        <time>2022-07-12T16:25:25Z</time>
      </trkpt>
      <trkpt lat="44.24828" lon="2.57998">
        <ele>757.18</ele>
        <time>2022-07-12T16:25:34Z</time>
      </trkpt>
      <trkpt lat="44.24819" lon="2.58009">
        <ele>756.21</ele>
        <time>2022-07-12T16:25:43Z</time>
      </trkpt>
      <trkpt lat="44.24807" lon="2.5802">
        <ele>757.66</ele>
        <time>2022-07-12T16:25:49Z</time>
      </trkpt>
      <trkpt lat="44.24797" lon="2.5803">
        <ele>758.14</ele>
        <time>2022-07-12T16:25:56Z</time>
      </trkpt>
      <trkpt lat="44.24788" lon="2.58038">
        <ele>757.18</ele>
        <time>2022-07-12T16:26:05Z</time>
      </trkpt>
      <trkpt lat="44.24781" lon="2.58048">
        <ele>754.77</ele>
        <time>2022-07-12T16:26:13Z</time>
      </trkpt>
      <trkpt lat="44.24773" lon="2.58059">
        <ele>752.85</ele>
        <time>2022-07-12T16:26:21Z</time>
      </trkpt>
      <trkpt lat="44.24766" lon="2.5807">
        <ele>751.89</ele>
        <time>2022-07-12T16:26:28Z</time>
      </trkpt>
      <trkpt lat="44.24757" lon="2.58082">
        <ele>752.85</ele>
        <time>2022-07-12T16:26:35Z</time>
      </trkpt>
      <trkpt lat="44.24744" lon="2.58094">
        <ele>756.21</ele>
        <time>2022-07-12T16:26:42Z</time>
      </trkpt>
      <trkpt lat="44.24735" lon="2.58106">
        <ele>758.14</ele>
        <time>2022-07-12T16:26:50Z</time>
      </trkpt>
      <trkpt lat="44.24729" lon="2.58116">
        <ele>758.14</ele>
        <time>2022-07-12T16:26:56Z</time>
      </trkpt>
      <trkpt lat="44.24721" lon="2.58125">
        <ele>757.18</ele>
        <time>2022-07-12T16:27:02Z</time>
      </trkpt>
      <trkpt lat="44.24714" lon="2.58135">
        <ele>756.21</ele>
        <time>2022-07-12T16:27:10Z</time>
      </trkpt>
      <trkpt lat="44.24707" lon="2.58148">
        <ele>756.21</ele>
        <time>2022-07-12T16:27:19Z</time>
      </trkpt>
      <trkpt lat="44.24696" lon="2.58162">
        <ele>757.18</ele>
        <time>2022-07-12T16:27:26Z</time>
      </trkpt>
      <trkpt lat="44.24685" lon="2.58168">
        <ele>757.18</ele>
        <time>2022-07-12T16:27:31Z</time>
      </trkpt>
      <trkpt lat="44.24677" lon="2.58171">
        <ele>756.69</ele>
        <time>2022-07-12T16:27:37Z</time>
      </trkpt>
      <trkpt lat="44.24668" lon="2.58167">
        <ele>756.69</ele>
        <time>2022-07-12T16:27:44Z</time>
      </trkpt>
      <trkpt lat="44.24659" lon="2.58161">
        <ele>757.18</ele>
        <time>2022-07-12T16:27:51Z</time>
      </trkpt>
      <trkpt lat="44.24649" lon="2.58155">
        <ele>757.66</ele>
        <time>2022-07-12T16:27:58Z</time>
      </trkpt>
      <trkpt lat="44.2464" lon="2.58149">
        <ele>757.66</ele>
        <time>2022-07-12T16:28:05Z</time>
      </trkpt>
      <trkpt lat="44.24632" lon="2.58141">
        <ele>757.66</ele>
        <time>2022-07-12T16:28:13Z</time>
      </trkpt>
      <trkpt lat="44.24622" lon="2.58133">
        <ele>756.69</ele>
        <time>2022-07-12T16:28:22Z</time>
      </trkpt>
      <trkpt lat="44.24604" lon="2.58126">
        <ele>760.54</ele>
        <time>2022-07-12T16:28:30Z</time>
      </trkpt>
      <trkpt lat="44.24594" lon="2.58133">
        <ele>763.9</ele>
        <time>2022-07-12T16:28:37Z</time>
      </trkpt>
      <trkpt lat="44.24586" lon="2.58141">
        <ele>764.87</ele>
        <time>2022-07-12T16:28:44Z</time>
      </trkpt>
      <trkpt lat="44.24578" lon="2.5815">
        <ele>765.83</ele>
        <time>2022-07-12T16:28:51Z</time>
      </trkpt>
      <trkpt lat="44.2457" lon="2.58159">
        <ele>765.83</ele>
        <time>2022-07-12T16:28:58Z</time>
      </trkpt>
      <trkpt lat="44.24569" lon="2.58172">
        <ele>766.79</ele>
        <time>2022-07-12T16:29:05Z</time>
      </trkpt>
      <trkpt lat="44.24573" lon="2.58184">
        <ele>767.27</ele>
        <time>2022-07-12T16:29:12Z</time>
      </trkpt>
      <trkpt lat="44.24577" lon="2.58197">
        <ele>767.75</ele>
        <time>2022-07-12T16:29:19Z</time>
      </trkpt>
      <trkpt lat="44.24581" lon="2.58209">
        <ele>768.23</ele>
        <time>2022-07-12T16:29:26Z</time>
      </trkpt>
      <trkpt lat="44.24586" lon="2.58222">
        <ele>768.71</ele>
        <time>2022-07-12T16:29:33Z</time>
      </trkpt>
      <trkpt lat="44.2459" lon="2.58234">
        <ele>768.23</ele>
        <time>2022-07-12T16:29:40Z</time>
      </trkpt>
      <trkpt lat="44.24595" lon="2.58246">
        <ele>768.23</ele>
        <time>2022-07-12T16:29:47Z</time>
      </trkpt>
      <trkpt lat="44.24599" lon="2.58258">
        <ele>768.71</ele>
        <time>2022-07-12T16:29:54Z</time>
      </trkpt>
      <trkpt lat="44.24603" lon="2.58271">
        <ele>768.23</ele>
        <time>2022-07-12T16:30:01Z</time>
      </trkpt>
      <trkpt lat="44.24606" lon="2.58286">
        <ele>767.75</ele>
        <time>2022-07-12T16:30:09Z</time>
      </trkpt>
      <trkpt lat="44.24609" lon="2.58301">
        <ele>767.27</ele>
        <time>2022-07-12T16:30:17Z</time>
      </trkpt>
      <trkpt lat="44.24613" lon="2.58317">
        <ele>766.31</ele>
        <time>2022-07-12T16:30:25Z</time>
      </trkpt>
      <trkpt lat="44.24615" lon="2.58338">
        <ele>764.87</ele>
        <time>2022-07-12T16:30:37Z</time>
      </trkpt>
      <trkpt lat="44.24617" lon="2.58363">
        <ele>763.42</ele>
        <time>2022-07-12T16:30:49Z</time>
      </trkpt>
      <trkpt lat="44.24614" lon="2.58415">
        <ele>760.54</ele>
        <time>2022-07-12T16:31:16Z</time>
      </trkpt>
      <trkpt lat="44.24609" lon="2.58432">
        <ele>760.54</ele>
        <time>2022-07-12T16:31:23Z</time>
      </trkpt>
      <trkpt lat="44.24598" lon="2.58446">
        <ele>757.18</ele>
        <time>2022-07-12T16:31:53Z</time>
      </trkpt>
      <trkpt lat="44.24585" lon="2.58448">
        <ele>757.18</ele>
        <time>2022-07-12T16:32:02Z</time>
      </trkpt>
      <trkpt lat="44.24558" lon="2.58434">
        <ele>752.37</ele>
        <time>2022-07-12T16:32:26Z</time>
      </trkpt>
      <trkpt lat="44.24534" lon="2.58419">
        <ele>747.08</ele>
        <time>2022-07-12T16:32:46Z</time>
      </trkpt>
      <trkpt lat="44.24357" lon="2.58391">
        <ele>694.69</ele>
        <time>2022-07-12T16:35:01Z</time>
      </trkpt>
      <trkpt lat="44.24339" lon="2.58391">
        <ele>699.5</ele>
        <time>2022-07-12T16:35:10Z</time>
      </trkpt>
      <trkpt lat="44.24321" lon="2.58393">
        <ele>707.19</ele>
        <time>2022-07-12T16:35:19Z</time>
      </trkpt>
      <trkpt lat="44.24301" lon="2.58417">
        <ele>728.34</ele>
        <time>2022-07-12T16:35:28Z</time>
      </trkpt>
      <trkpt lat="44.24295" lon="2.58434">
        <ele>730.74</ele>
        <time>2022-07-12T16:35:35Z</time>
      </trkpt>
      <trkpt lat="44.24292" lon="2.58448">
        <ele>732.66</ele>
        <time>2022-07-12T16:35:43Z</time>
      </trkpt>
      <trkpt lat="44.24292" lon="2.58447">
        <ele>738.43</ele>
        <time>2022-07-12T16:36:32Z</time>
      </trkpt>
      <trkpt lat="44.24296" lon="2.58429">
        <ele>739.39</ele>
        <time>2022-07-12T16:36:38Z</time>
      </trkpt>
      <trkpt lat="44.243" lon="2.58408">
        <ele>740.35</ele>
        <time>2022-07-12T16:36:41Z</time>
      </trkpt>
      <trkpt lat="44.24302" lon="2.58393">
        <ele>741.31</ele>
        <time>2022-07-12T16:36:43Z</time>
      </trkpt>
      <trkpt lat="44.24305" lon="2.58379">
        <ele>742.28</ele>
        <time>2022-07-12T16:36:45Z</time>
      </trkpt>
      <trkpt lat="44.24307" lon="2.58364">
        <ele>742.76</ele>
        <time>2022-07-12T16:36:47Z</time>
      </trkpt>
      <trkpt lat="44.2431" lon="2.58348">
        <ele>743.24</ele>
        <time>2022-07-12T16:36:49Z</time>
      </trkpt>
      <trkpt lat="44.24312" lon="2.58332">
        <ele>743.72</ele>
        <time>2022-07-12T16:36:51Z</time>
      </trkpt>
      <trkpt lat="44.24313" lon="2.58318">
        <ele>743.72</ele>
        <time>2022-07-12T16:36:53Z</time>
      </trkpt>
      <trkpt lat="44.24314" lon="2.58303">
        <ele>743.72</ele>
        <time>2022-07-12T16:36:55Z</time>
      </trkpt>
      <trkpt lat="44.24315" lon="2.58289">
        <ele>744.2</ele>
        <time>2022-07-12T16:36:57Z</time>
      </trkpt>
      <trkpt lat="44.24315" lon="2.58275">
        <ele>744.2</ele>
        <time>2022-07-12T16:36:59Z</time>
      </trkpt>
      <trkpt lat="44.24314" lon="2.5826">
        <ele>744.68</ele>
        <time>2022-07-12T16:37:01Z</time>
      </trkpt>
      <trkpt lat="44.24315" lon="2.58246">
        <ele>744.68</ele>
        <time>2022-07-12T16:37:03Z</time>
      </trkpt>
      <trkpt lat="44.24315" lon="2.58231">
        <ele>744.68</ele>
        <time>2022-07-12T16:37:05Z</time>
      </trkpt>
      <trkpt lat="44.24314" lon="2.58217">
        <ele>745.16</ele>
        <time>2022-07-12T16:37:07Z</time>
      </trkpt>
      <trkpt lat="44.24314" lon="2.58203">
        <ele>745.16</ele>
        <time>2022-07-12T16:37:09Z</time>
      </trkpt>
      <trkpt lat="44.24313" lon="2.58188">
        <ele>745.64</ele>
        <time>2022-07-12T16:37:11Z</time>
      </trkpt>
      <trkpt lat="44.24313" lon="2.58174">
        <ele>746.12</ele>
        <time>2022-07-12T16:37:13Z</time>
      </trkpt>
      <trkpt lat="44.24314" lon="2.5816">
        <ele>746.6</ele>
        <time>2022-07-12T16:37:15Z</time>
      </trkpt>
      <trkpt lat="44.24315" lon="2.58146">
        <ele>746.6</ele>
        <time>2022-07-12T16:37:17Z</time>
      </trkpt>
      <trkpt lat="44.24316" lon="2.58132">
        <ele>747.08</ele>
        <time>2022-07-12T16:37:19Z</time>
      </trkpt>
      <trkpt lat="44.24317" lon="2.58119">
        <ele>747.56</ele>
        <time>2022-07-12T16:37:21Z</time>
      </trkpt>
      <trkpt lat="44.24318" lon="2.58105">
        <ele>748.04</ele>
        <time>2022-07-12T16:37:23Z</time>
      </trkpt>
      <trkpt lat="44.2432" lon="2.58091">
        <ele>749</ele>
        <time>2022-07-12T16:37:25Z</time>
      </trkpt>
      <trkpt lat="44.24322" lon="2.58079">
        <ele>749.49</ele>
        <time>2022-07-12T16:37:27Z</time>
      </trkpt>
      <trkpt lat="44.24325" lon="2.58066">
        <ele>750.45</ele>
        <time>2022-07-12T16:37:29Z</time>
      </trkpt>
      <trkpt lat="44.24328" lon="2.58053">
        <ele>751.41</ele>
        <time>2022-07-12T16:37:31Z</time>
      </trkpt>
      <trkpt lat="44.24329" lon="2.5804">
        <ele>751.89</ele>
        <time>2022-07-12T16:37:33Z</time>
      </trkpt>
      <trkpt lat="44.2433" lon="2.58023">
        <ele>753.33</ele>
        <time>2022-07-12T16:37:36Z</time>
      </trkpt>
      <trkpt lat="44.24332" lon="2.58004">
        <ele>754.77</ele>
        <time>2022-07-12T16:37:39Z</time>
      </trkpt>
      <trkpt lat="44.24334" lon="2.57986">
        <ele>755.73</ele>
        <time>2022-07-12T16:37:42Z</time>
      </trkpt>
      <trkpt lat="44.24336" lon="2.57966">
        <ele>757.18</ele>
        <time>2022-07-12T16:37:45Z</time>
      </trkpt>
      <trkpt lat="44.24337" lon="2.57953">
        <ele>757.66</ele>
        <time>2022-07-12T16:37:47Z</time>
      </trkpt>
      <trkpt lat="44.2434" lon="2.57934">
        <ele>758.62</ele>
        <time>2022-07-12T16:37:50Z</time>
      </trkpt>
      <trkpt lat="44.24343" lon="2.57917">
        <ele>759.1</ele>
        <time>2022-07-12T16:37:53Z</time>
      </trkpt>
      <trkpt lat="44.24347" lon="2.579">
        <ele>759.58</ele>
        <time>2022-07-12T16:37:56Z</time>
      </trkpt>
      <trkpt lat="44.2435" lon="2.57884">
        <ele>760.06</ele>
        <time>2022-07-12T16:38:00Z</time>
      </trkpt>
      <trkpt lat="44.24353" lon="2.57869">
        <ele>760.54</ele>
        <time>2022-07-12T16:38:07Z</time>
      </trkpt>
      <trkpt lat="44.24353" lon="2.57856">
        <ele>760.54</ele>
        <time>2022-07-12T16:38:15Z</time>
      </trkpt>
      <trkpt lat="44.24346" lon="2.57843">
        <ele>759.58</ele>
        <time>2022-07-12T16:38:22Z</time>
      </trkpt>
      <trkpt lat="44.24335" lon="2.57835">
        <ele>757.66</ele>
        <time>2022-07-12T16:38:29Z</time>
      </trkpt>
      <trkpt lat="44.24326" lon="2.5783">
        <ele>756.21</ele>
        <time>2022-07-12T16:38:35Z</time>
      </trkpt>
      <trkpt lat="44.24317" lon="2.57825">
        <ele>756.21</ele>
        <time>2022-07-12T16:38:42Z</time>
      </trkpt>
      <trkpt lat="44.24307" lon="2.57819">
        <ele>755.73</ele>
        <time>2022-07-12T16:38:49Z</time>
      </trkpt>
      <trkpt lat="44.24298" lon="2.57817">
        <ele>755.73</ele>
        <time>2022-07-12T16:38:55Z</time>
      </trkpt>
      <trkpt lat="44.24289" lon="2.57812">
        <ele>754.77</ele>
        <time>2022-07-12T16:39:01Z</time>
      </trkpt>
      <trkpt lat="44.24279" lon="2.57807">
        <ele>754.29</ele>
        <time>2022-07-12T16:39:08Z</time>
      </trkpt>
      <trkpt lat="44.2427" lon="2.57801">
        <ele>753.33</ele>
        <time>2022-07-12T16:39:13Z</time>
      </trkpt>
      <trkpt lat="44.2426" lon="2.57796">
        <ele>752.85</ele>
        <time>2022-07-12T16:39:20Z</time>
      </trkpt>
      <trkpt lat="44.2425" lon="2.57792">
        <ele>751.89</ele>
        <time>2022-07-12T16:39:26Z</time>
      </trkpt>
      <trkpt lat="44.2424" lon="2.57786">
        <ele>751.89</ele>
        <time>2022-07-12T16:39:33Z</time>
      </trkpt>
      <trkpt lat="44.24232" lon="2.57779">
        <ele>751.41</ele>
        <time>2022-07-12T16:39:39Z</time>
      </trkpt>
      <trkpt lat="44.24222" lon="2.57773">
        <ele>749.97</ele>
        <time>2022-07-12T16:39:46Z</time>
      </trkpt>
      <trkpt lat="44.24213" lon="2.57767">
        <ele>749</ele>
        <time>2022-07-12T16:39:52Z</time>
      </trkpt>
      <trkpt lat="44.24204" lon="2.57762">
        <ele>749</ele>
        <time>2022-07-12T16:39:59Z</time>
      </trkpt>
      <trkpt lat="44.24194" lon="2.57756">
        <ele>748.52</ele>
        <time>2022-07-12T16:40:05Z</time>
      </trkpt>
      <trkpt lat="44.24185" lon="2.57751">
        <ele>748.04</ele>
        <time>2022-07-12T16:40:11Z</time>
      </trkpt>
      <trkpt lat="44.24176" lon="2.57745">
        <ele>748.04</ele>
        <time>2022-07-12T16:40:18Z</time>
      </trkpt>
      <trkpt lat="44.24166" lon="2.57741">
        <ele>747.56</ele>
        <time>2022-07-12T16:40:24Z</time>
      </trkpt>
      <trkpt lat="44.24157" lon="2.57737">
        <ele>747.08</ele>
        <time>2022-07-12T16:40:30Z</time>
      </trkpt>
      <trkpt lat="44.24148" lon="2.57732">
        <ele>746.6</ele>
        <time>2022-07-12T16:40:36Z</time>
      </trkpt>
      <trkpt lat="44.24139" lon="2.57728">
        <ele>745.64</ele>
        <time>2022-07-12T16:40:42Z</time>
      </trkpt>
      <trkpt lat="44.2413" lon="2.57724">
        <ele>745.16</ele>
        <time>2022-07-12T16:40:48Z</time>
      </trkpt>
      <trkpt lat="44.24121" lon="2.57719">
        <ele>744.2</ele>
        <time>2022-07-12T16:40:54Z</time>
      </trkpt>
      <trkpt lat="44.24111" lon="2.57714">
        <ele>743.24</ele>
        <time>2022-07-12T16:41:00Z</time>
      </trkpt>
      <trkpt lat="44.24102" lon="2.57711">
        <ele>742.76</ele>
        <time>2022-07-12T16:41:06Z</time>
      </trkpt>
      <trkpt lat="44.24091" lon="2.57706">
        <ele>742.28</ele>
        <time>2022-07-12T16:41:13Z</time>
      </trkpt>
      <trkpt lat="44.24081" lon="2.57702">
        <ele>742.28</ele>
        <time>2022-07-12T16:41:17Z</time>
      </trkpt>
      <trkpt lat="44.2407" lon="2.57697">
        <ele>742.28</ele>
        <time>2022-07-12T16:41:22Z</time>
      </trkpt>
      <trkpt lat="44.24061" lon="2.57695">
        <ele>741.31</ele>
        <time>2022-07-12T16:41:28Z</time>
      </trkpt>
      <trkpt lat="44.24052" lon="2.5769">
        <ele>740.83</ele>
        <time>2022-07-12T16:41:35Z</time>
      </trkpt>
      <trkpt lat="44.24042" lon="2.57686">
        <ele>740.83</ele>
        <time>2022-07-12T16:41:41Z</time>
      </trkpt>
      <trkpt lat="44.24031" lon="2.57682">
        <ele>740.35</ele>
        <time>2022-07-12T16:41:48Z</time>
      </trkpt>
      <trkpt lat="44.24021" lon="2.57678">
        <ele>740.35</ele>
        <time>2022-07-12T16:41:55Z</time>
      </trkpt>
      <trkpt lat="44.24011" lon="2.57674">
        <ele>739.87</ele>
        <time>2022-07-12T16:42:01Z</time>
      </trkpt>
      <trkpt lat="44.24001" lon="2.5767">
        <ele>739.39</ele>
        <time>2022-07-12T16:42:08Z</time>
      </trkpt>
      <trkpt lat="44.2399" lon="2.57666">
        <ele>738.91</ele>
        <time>2022-07-12T16:42:15Z</time>
      </trkpt>
      <trkpt lat="44.23981" lon="2.57661">
        <ele>737.47</ele>
        <time>2022-07-12T16:42:21Z</time>
      </trkpt>
      <trkpt lat="44.23971" lon="2.57656">
        <ele>738.43</ele>
        <time>2022-07-12T16:42:27Z</time>
      </trkpt>
      <trkpt lat="44.23962" lon="2.57651">
        <ele>738.43</ele>
        <time>2022-07-12T16:42:33Z</time>
      </trkpt>
      <trkpt lat="44.23952" lon="2.57646">
        <ele>737.95</ele>
        <time>2022-07-12T16:42:40Z</time>
      </trkpt>
      <trkpt lat="44.23943" lon="2.57639">
        <ele>737.95</ele>
        <time>2022-07-12T16:42:46Z</time>
      </trkpt>
      <trkpt lat="44.23934" lon="2.57634">
        <ele>738.43</ele>
        <time>2022-07-12T16:42:53Z</time>
      </trkpt>
      <trkpt lat="44.23924" lon="2.57635">
        <ele>738.43</ele>
        <time>2022-07-12T16:43:00Z</time>
      </trkpt>
      <trkpt lat="44.23915" lon="2.57644">
        <ele>738.43</ele>
        <time>2022-07-12T16:43:07Z</time>
      </trkpt>
      <trkpt lat="44.23907" lon="2.57653">
        <ele>737.95</ele>
        <time>2022-07-12T16:43:14Z</time>
      </trkpt>
      <trkpt lat="44.23898" lon="2.57661">
        <ele>737.47</ele>
        <time>2022-07-12T16:43:21Z</time>
      </trkpt>
      <trkpt lat="44.2389" lon="2.5767">
        <ele>737.47</ele>
        <time>2022-07-12T16:43:28Z</time>
      </trkpt>
      <trkpt lat="44.23881" lon="2.57678">
        <ele>737.47</ele>
        <time>2022-07-12T16:43:35Z</time>
      </trkpt>
      <trkpt lat="44.23872" lon="2.57687">
        <ele>736.99</ele>
        <time>2022-07-12T16:43:42Z</time>
      </trkpt>
      <trkpt lat="44.23863" lon="2.57696">
        <ele>736.51</ele>
        <time>2022-07-12T16:43:49Z</time>
      </trkpt>
      <trkpt lat="44.23854" lon="2.57705">
        <ele>736.03</ele>
        <time>2022-07-12T16:43:56Z</time>
      </trkpt>
      <trkpt lat="44.23845" lon="2.57716">
        <ele>736.03</ele>
        <time>2022-07-12T16:44:04Z</time>
      </trkpt>
      <trkpt lat="44.23836" lon="2.57726">
        <ele>733.62</ele>
        <time>2022-07-12T16:44:12Z</time>
      </trkpt>
      <trkpt lat="44.23827" lon="2.57736">
        <ele>732.18</ele>
        <time>2022-07-12T16:44:19Z</time>
      </trkpt>
      <trkpt lat="44.23817" lon="2.57745">
        <ele>732.18</ele>
        <time>2022-07-12T16:44:27Z</time>
      </trkpt>
      <trkpt lat="44.23806" lon="2.57753">
        <ele>732.18</ele>
        <time>2022-07-12T16:44:35Z</time>
      </trkpt>
      <trkpt lat="44.23797" lon="2.57761">
        <ele>731.22</ele>
        <time>2022-07-12T16:44:42Z</time>
      </trkpt>
      <trkpt lat="44.23787" lon="2.57768">
        <ele>729.78</ele>
        <time>2022-07-12T16:44:49Z</time>
      </trkpt>
      <trkpt lat="44.23777" lon="2.57777">
        <ele>728.34</ele>
        <time>2022-07-12T16:44:57Z</time>
      </trkpt>
      <trkpt lat="44.23767" lon="2.57784">
        <ele>726.89</ele>
        <time>2022-07-12T16:45:04Z</time>
      </trkpt>
      <trkpt lat="44.23759" lon="2.5779">
        <ele>724.01</ele>
        <time>2022-07-12T16:45:12Z</time>
      </trkpt>
      <trkpt lat="44.23749" lon="2.57799">
        <ele>722.09</ele>
        <time>2022-07-12T16:45:20Z</time>
      </trkpt>
      <trkpt lat="44.23739" lon="2.57807">
        <ele>722.09</ele>
        <time>2022-07-12T16:45:28Z</time>
      </trkpt>
      <trkpt lat="44.23729" lon="2.57815">
        <ele>720.65</ele>
        <time>2022-07-12T16:45:37Z</time>
      </trkpt>
      <trkpt lat="44.23717" lon="2.57825">
        <ele>728.34</ele>
        <time>2022-07-12T16:45:45Z</time>
      </trkpt>
      <trkpt lat="44.23704" lon="2.57833">
        <ele>736.03</ele>
        <time>2022-07-12T16:46:02Z</time>
      </trkpt>
      <trkpt lat="44.23695" lon="2.57839">
        <ele>735.07</ele>
        <time>2022-07-12T16:46:09Z</time>
      </trkpt>
      <trkpt lat="44.23685" lon="2.57843">
        <ele>733.62</ele>
        <time>2022-07-12T16:46:16Z</time>
      </trkpt>
      <trkpt lat="44.23675" lon="2.57846">
        <ele>732.18</ele>
        <time>2022-07-12T16:46:23Z</time>
      </trkpt>
      <trkpt lat="44.23665" lon="2.57846">
        <ele>731.22</ele>
        <time>2022-07-12T16:46:30Z</time>
      </trkpt>
      <trkpt lat="44.23655" lon="2.57842">
        <ele>730.26</ele>
        <time>2022-07-12T16:46:37Z</time>
      </trkpt>
      <trkpt lat="44.23647" lon="2.57836">
        <ele>730.26</ele>
        <time>2022-07-12T16:46:43Z</time>
      </trkpt>
      <trkpt lat="44.23638" lon="2.57827">
        <ele>728.34</ele>
        <time>2022-07-12T16:46:50Z</time>
      </trkpt>
      <trkpt lat="44.23628" lon="2.57822">
        <ele>726.89</ele>
        <time>2022-07-12T16:46:58Z</time>
      </trkpt>
      <trkpt lat="44.23622" lon="2.57831">
        <ele>724.97</ele>
        <time>2022-07-12T16:47:06Z</time>
      </trkpt>
      <trkpt lat="44.23624" lon="2.57844">
        <ele>724.49</ele>
        <time>2022-07-12T16:47:13Z</time>
      </trkpt>
      <trkpt lat="44.23629" lon="2.57854">
        <ele>723.05</ele>
        <time>2022-07-12T16:47:20Z</time>
      </trkpt>
      <trkpt lat="44.23634" lon="2.57866">
        <ele>722.09</ele>
        <time>2022-07-12T16:47:28Z</time>
      </trkpt>
      <trkpt lat="44.23648" lon="2.57889">
        <ele>719.68</ele>
        <time>2022-07-12T16:47:42Z</time>
      </trkpt>
      <trkpt lat="44.23657" lon="2.57908">
        <ele>718.72</ele>
        <time>2022-07-12T16:47:53Z</time>
      </trkpt>
      <trkpt lat="44.23666" lon="2.57922">
        <ele>719.68</ele>
        <time>2022-07-12T16:48:00Z</time>
      </trkpt>
      <trkpt lat="44.23671" lon="2.57935">
        <ele>719.2</ele>
        <time>2022-07-12T16:48:08Z</time>
      </trkpt>
      <trkpt lat="44.23676" lon="2.57946">
        <ele>717.28</ele>
        <time>2022-07-12T16:48:15Z</time>
      </trkpt>
      <trkpt lat="44.23681" lon="2.57958">
        <ele>716.32</ele>
        <time>2022-07-12T16:48:22Z</time>
      </trkpt>
      <trkpt lat="44.23685" lon="2.57971">
        <ele>715.84</ele>
        <time>2022-07-12T16:48:31Z</time>
      </trkpt>
      <trkpt lat="44.2369" lon="2.57988">
        <ele>714.4</ele>
        <time>2022-07-12T16:48:40Z</time>
      </trkpt>
      <trkpt lat="44.23691" lon="2.58004">
        <ele>714.88</ele>
        <time>2022-07-12T16:48:48Z</time>
      </trkpt>
      <trkpt lat="44.23691" lon="2.58021">
        <ele>714.4</ele>
        <time>2022-07-12T16:48:56Z</time>
      </trkpt>
      <trkpt lat="44.23692" lon="2.58036">
        <ele>713.44</ele>
        <time>2022-07-12T16:49:04Z</time>
      </trkpt>
      <trkpt lat="44.23691" lon="2.58063">
        <ele>711.99</ele>
        <time>2022-07-12T16:49:16Z</time>
      </trkpt>
      <trkpt lat="44.23689" lon="2.58084">
        <ele>710.55</ele>
        <time>2022-07-12T16:49:24Z</time>
      </trkpt>
      <trkpt lat="44.2369" lon="2.58107">
        <ele>708.63</ele>
        <time>2022-07-12T16:49:36Z</time>
      </trkpt>
      <trkpt lat="44.23691" lon="2.58123">
        <ele>707.67</ele>
        <time>2022-07-12T16:49:45Z</time>
      </trkpt>
      <trkpt lat="44.23696" lon="2.58139">
        <ele>707.67</ele>
        <time>2022-07-12T16:49:53Z</time>
      </trkpt>
      <trkpt lat="44.23706" lon="2.58157">
        <ele>707.67</ele>
        <time>2022-07-12T16:50:01Z</time>
      </trkpt>
      <trkpt lat="44.23731" lon="2.58208">
        <ele>703.34</ele>
        <time>2022-07-12T16:50:38Z</time>
      </trkpt>
      <trkpt lat="44.23736" lon="2.58235">
        <ele>705.26</ele>
        <time>2022-07-12T16:50:50Z</time>
      </trkpt>
      <trkpt lat="44.2374" lon="2.58254">
        <ele>706.71</ele>
        <time>2022-07-12T16:51:00Z</time>
      </trkpt>
      <trkpt lat="44.23745" lon="2.58272">
        <ele>705.26</ele>
        <time>2022-07-12T16:51:10Z</time>
      </trkpt>
      <trkpt lat="44.23757" lon="2.58299">
        <ele>706.23</ele>
        <time>2022-07-12T16:51:23Z</time>
      </trkpt>
      <trkpt lat="44.23774" lon="2.58335">
        <ele>703.82</ele>
        <time>2022-07-12T16:51:44Z</time>
      </trkpt>
      <trkpt lat="44.2378" lon="2.58348">
        <ele>698.05</ele>
        <time>2022-07-12T16:51:52Z</time>
      </trkpt>
      <trkpt lat="44.23787" lon="2.5836">
        <ele>693.73</ele>
        <time>2022-07-12T16:51:59Z</time>
      </trkpt>
      <trkpt lat="44.23793" lon="2.58376">
        <ele>692.29</ele>
        <time>2022-07-12T16:52:05Z</time>
      </trkpt>
      <trkpt lat="44.23796" lon="2.58394">
        <ele>697.09</ele>
        <time>2022-07-12T16:52:11Z</time>
      </trkpt>
      <trkpt lat="44.23798" lon="2.58412">
        <ele>700.46</ele>
        <time>2022-07-12T16:52:19Z</time>
      </trkpt>
      <trkpt lat="44.23799" lon="2.58431">
        <ele>700.46</ele>
        <time>2022-07-12T16:52:30Z</time>
      </trkpt>
      <trkpt lat="44.23801" lon="2.58451">
        <ele>711.51</ele>
        <time>2022-07-12T16:52:37Z</time>
      </trkpt>
      <trkpt lat="44.23803" lon="2.58467">
        <ele>714.88</ele>
        <time>2022-07-12T16:52:42Z</time>
      </trkpt>
      <trkpt lat="44.23805" lon="2.58481">
        <ele>715.36</ele>
        <time>2022-07-12T16:52:50Z</time>
      </trkpt>
      <trkpt lat="44.23808" lon="2.58497">
        <ele>717.76</ele>
        <time>2022-07-12T16:52:58Z</time>
      </trkpt>
      <trkpt lat="44.23811" lon="2.58513">
        <ele>723.05</ele>
        <time>2022-07-12T16:53:07Z</time>
      </trkpt>
      <trkpt lat="44.23814" lon="2.58531">
        <ele>724.49</ele>
        <time>2022-07-12T16:53:15Z</time>
      </trkpt>
      <trkpt lat="44.23815" lon="2.58546">
        <ele>724.01</ele>
        <time>2022-07-12T16:53:23Z</time>
      </trkpt>
      <trkpt lat="44.23817" lon="2.58563">
        <ele>724.97</ele>
        <time>2022-07-12T16:53:31Z</time>
      </trkpt>
      <trkpt lat="44.2382" lon="2.58577">
        <ele>725.93</ele>
        <time>2022-07-12T16:53:39Z</time>
      </trkpt>
      <trkpt lat="44.23823" lon="2.58591">
        <ele>724.97</ele>
        <time>2022-07-12T16:53:47Z</time>
      </trkpt>
      <trkpt lat="44.23829" lon="2.58606">
        <ele>726.41</ele>
        <time>2022-07-12T16:53:55Z</time>
      </trkpt>
      <trkpt lat="44.23834" lon="2.58619">
        <ele>727.37</ele>
        <time>2022-07-12T16:54:03Z</time>
      </trkpt>
      <trkpt lat="44.23836" lon="2.58635">
        <ele>728.34</ele>
        <time>2022-07-12T16:54:11Z</time>
      </trkpt>
      <trkpt lat="44.23838" lon="2.5865">
        <ele>730.74</ele>
        <time>2022-07-12T16:54:19Z</time>
      </trkpt>
      <trkpt lat="44.23839" lon="2.58671">
        <ele>731.22</ele>
        <time>2022-07-12T16:54:30Z</time>
      </trkpt>
      <trkpt lat="44.23841" lon="2.5869">
        <ele>729.78</ele>
        <time>2022-07-12T16:54:37Z</time>
      </trkpt>
      <trkpt lat="44.23843" lon="2.58706">
        <ele>727.86</ele>
        <time>2022-07-12T16:54:45Z</time>
      </trkpt>
      <trkpt lat="44.23843" lon="2.58721">
        <ele>727.37</ele>
        <time>2022-07-12T16:54:53Z</time>
      </trkpt>
      <trkpt lat="44.23843" lon="2.58741">
        <ele>729.78</ele>
        <time>2022-07-12T16:55:02Z</time>
      </trkpt>
      <trkpt lat="44.23848" lon="2.5877">
        <ele>726.89</ele>
        <time>2022-07-12T16:55:19Z</time>
      </trkpt>
      <trkpt lat="44.23851" lon="2.58801">
        <ele>724.49</ele>
        <time>2022-07-12T16:55:33Z</time>
      </trkpt>
      <trkpt lat="44.23862" lon="2.58834">
        <ele>730.26</ele>
        <time>2022-07-12T16:55:48Z</time>
      </trkpt>
      <trkpt lat="44.23877" lon="2.58887">
        <ele>734.58</ele>
        <time>2022-07-12T16:56:17Z</time>
      </trkpt>
      <trkpt lat="44.23898" lon="2.58927">
        <ele>727.37</ele>
        <time>2022-07-12T16:56:41Z</time>
      </trkpt>
      <trkpt lat="44.23904" lon="2.58946">
        <ele>729.3</ele>
        <time>2022-07-12T16:56:49Z</time>
      </trkpt>
      <trkpt lat="44.23906" lon="2.58962">
        <ele>725.93</ele>
        <time>2022-07-12T16:56:58Z</time>
      </trkpt>
      <trkpt lat="44.23897" lon="2.58977">
        <ele>726.89</ele>
        <time>2022-07-12T16:57:03Z</time>
      </trkpt>
      <trkpt lat="44.23888" lon="2.58987">
        <ele>725.93</ele>
        <time>2022-07-12T16:57:06Z</time>
      </trkpt>
      <trkpt lat="44.23881" lon="2.59002">
        <ele>724.01</ele>
        <time>2022-07-12T16:57:10Z</time>
      </trkpt>
      <trkpt lat="44.23881" lon="2.5902">
        <ele>720.65</ele>
        <time>2022-07-12T16:57:14Z</time>
      </trkpt>
      <trkpt lat="44.23879" lon="2.59035">
        <ele>721.61</ele>
        <time>2022-07-12T16:57:16Z</time>
      </trkpt>
      <trkpt lat="44.23878" lon="2.5905">
        <ele>721.61</ele>
        <time>2022-07-12T16:57:18Z</time>
      </trkpt>
      <trkpt lat="44.23877" lon="2.59065">
        <ele>721.61</ele>
        <time>2022-07-12T16:57:20Z</time>
      </trkpt>
      <trkpt lat="44.23877" lon="2.59079">
        <ele>722.09</ele>
        <time>2022-07-12T16:57:22Z</time>
      </trkpt>
      <trkpt lat="44.23876" lon="2.59094">
        <ele>722.57</ele>
        <time>2022-07-12T16:57:24Z</time>
      </trkpt>
      <trkpt lat="44.23873" lon="2.59113">
        <ele>723.53</ele>
        <time>2022-07-12T16:57:27Z</time>
      </trkpt>
      <trkpt lat="44.2387" lon="2.59133">
        <ele>724.49</ele>
        <time>2022-07-12T16:57:30Z</time>
      </trkpt>
      <trkpt lat="44.23865" lon="2.59146">
        <ele>724.49</ele>
        <time>2022-07-12T16:57:32Z</time>
      </trkpt>
      <trkpt lat="44.23861" lon="2.59159">
        <ele>724.97</ele>
        <time>2022-07-12T16:57:34Z</time>
      </trkpt>
      <trkpt lat="44.23856" lon="2.59174">
        <ele>724.97</ele>
        <time>2022-07-12T16:57:37Z</time>
      </trkpt>
      <trkpt lat="44.23853" lon="2.59189">
        <ele>724.97</ele>
        <time>2022-07-12T16:57:40Z</time>
      </trkpt>
      <trkpt lat="44.23851" lon="2.59209">
        <ele>725.45</ele>
        <time>2022-07-12T16:57:43Z</time>
      </trkpt>
      <trkpt lat="44.23849" lon="2.59224">
        <ele>725.93</ele>
        <time>2022-07-12T16:57:45Z</time>
      </trkpt>
      <trkpt lat="44.23848" lon="2.59239">
        <ele>726.41</ele>
        <time>2022-07-12T16:57:47Z</time>
      </trkpt>
      <trkpt lat="44.23846" lon="2.59259">
        <ele>726.89</ele>
        <time>2022-07-12T16:57:50Z</time>
      </trkpt>
      <trkpt lat="44.23845" lon="2.59273">
        <ele>727.37</ele>
        <time>2022-07-12T16:57:52Z</time>
      </trkpt>
      <trkpt lat="44.23844" lon="2.59287">
        <ele>728.34</ele>
        <time>2022-07-12T16:57:54Z</time>
      </trkpt>
      <trkpt lat="44.23839" lon="2.59311">
        <ele>731.22</ele>
        <time>2022-07-12T16:57:57Z</time>
      </trkpt>
      <trkpt lat="44.23836" lon="2.59328">
        <ele>733.62</ele>
        <time>2022-07-12T16:57:59Z</time>
      </trkpt>
      <trkpt lat="44.2383" lon="2.59349">
        <ele>736.51</ele>
        <time>2022-07-12T16:58:02Z</time>
      </trkpt>
      <trkpt lat="44.23825" lon="2.59368">
        <ele>738.91</ele>
        <time>2022-07-12T16:58:05Z</time>
      </trkpt>
      <trkpt lat="44.2382" lon="2.59389">
        <ele>742.28</ele>
        <time>2022-07-12T16:58:08Z</time>
      </trkpt>
      <trkpt lat="44.23816" lon="2.59411">
        <ele>745.64</ele>
        <time>2022-07-12T16:58:11Z</time>
      </trkpt>
      <trkpt lat="44.23815" lon="2.59426">
        <ele>747.56</ele>
        <time>2022-07-12T16:58:13Z</time>
      </trkpt>
      <trkpt lat="44.23814" lon="2.59442">
        <ele>749.49</ele>
        <time>2022-07-12T16:58:15Z</time>
      </trkpt>
      <trkpt lat="44.23814" lon="2.59459">
        <ele>751.41</ele>
        <time>2022-07-12T16:58:17Z</time>
      </trkpt>
      <trkpt lat="44.23814" lon="2.59474">
        <ele>752.85</ele>
        <time>2022-07-12T16:58:19Z</time>
      </trkpt>
      <trkpt lat="44.23815" lon="2.59488">
        <ele>754.29</ele>
        <time>2022-07-12T16:58:21Z</time>
      </trkpt>
      <trkpt lat="44.23815" lon="2.59501">
        <ele>755.73</ele>
        <time>2022-07-12T16:58:23Z</time>
      </trkpt>
      <trkpt lat="44.23816" lon="2.59515">
        <ele>757.18</ele>
        <time>2022-07-12T16:58:25Z</time>
      </trkpt>
      <trkpt lat="44.23817" lon="2.59528">
        <ele>758.62</ele>
        <time>2022-07-12T16:58:27Z</time>
      </trkpt>
      <trkpt lat="44.23819" lon="2.59545">
        <ele>760.54</ele>
        <time>2022-07-12T16:58:30Z</time>
      </trkpt>
      <trkpt lat="44.23821" lon="2.59561">
        <ele>762.46</ele>
        <time>2022-07-12T16:58:34Z</time>
      </trkpt>
      <trkpt lat="44.23826" lon="2.59578">
        <ele>772.08</ele>
        <time>2022-07-12T16:58:58Z</time>
      </trkpt>
      <trkpt lat="44.23825" lon="2.59594">
        <ele>773.04</ele>
        <time>2022-07-12T16:59:07Z</time>
      </trkpt>
      <trkpt lat="44.23827" lon="2.5961">
        <ele>773.04</ele>
        <time>2022-07-12T16:59:15Z</time>
      </trkpt>
      <trkpt lat="44.23826" lon="2.59625">
        <ele>774</ele>
        <time>2022-07-12T16:59:22Z</time>
      </trkpt>
      <trkpt lat="44.23824" lon="2.5964">
        <ele>774.96</ele>
        <time>2022-07-12T16:59:30Z</time>
      </trkpt>
      <trkpt lat="44.2382" lon="2.59654">
        <ele>775.44</ele>
        <time>2022-07-12T16:59:38Z</time>
      </trkpt>
      <trkpt lat="44.23813" lon="2.59666">
        <ele>775.92</ele>
        <time>2022-07-12T16:59:46Z</time>
      </trkpt>
      <trkpt lat="44.23809" lon="2.59679">
        <ele>775.44</ele>
        <time>2022-07-12T16:59:53Z</time>
      </trkpt>
      <trkpt lat="44.23807" lon="2.59694">
        <ele>774.48</ele>
        <time>2022-07-12T17:00:02Z</time>
      </trkpt>
      <trkpt lat="44.23805" lon="2.59708">
        <ele>773.52</ele>
        <time>2022-07-12T17:00:09Z</time>
      </trkpt>
      <trkpt lat="44.23801" lon="2.59723">
        <ele>772.08</ele>
        <time>2022-07-12T17:00:16Z</time>
      </trkpt>
      <trkpt lat="44.23796" lon="2.59737">
        <ele>771.11</ele>
        <time>2022-07-12T17:00:23Z</time>
      </trkpt>
      <trkpt lat="44.23792" lon="2.59752">
        <ele>771.11</ele>
        <time>2022-07-12T17:00:30Z</time>
      </trkpt>
      <trkpt lat="44.23792" lon="2.59769">
        <ele>772.56</ele>
        <time>2022-07-12T17:00:37Z</time>
      </trkpt>
      <trkpt lat="44.23791" lon="2.59784">
        <ele>773.52</ele>
        <time>2022-07-12T17:00:44Z</time>
      </trkpt>
      <trkpt lat="44.23787" lon="2.59798">
        <ele>773.52</ele>
        <time>2022-07-12T17:00:52Z</time>
      </trkpt>
      <trkpt lat="44.23785" lon="2.59814">
        <ele>774.48</ele>
        <time>2022-07-12T17:01:00Z</time>
      </trkpt>
      <trkpt lat="44.23783" lon="2.59829">
        <ele>774.96</ele>
        <time>2022-07-12T17:01:08Z</time>
      </trkpt>
      <trkpt lat="44.23781" lon="2.59844">
        <ele>775.44</ele>
        <time>2022-07-12T17:01:16Z</time>
      </trkpt>
      <trkpt lat="44.23781" lon="2.59861">
        <ele>776.88</ele>
        <time>2022-07-12T17:01:25Z</time>
      </trkpt>
      <trkpt lat="44.23779" lon="2.59879">
        <ele>776.4</ele>
        <time>2022-07-12T17:01:35Z</time>
      </trkpt>
      <trkpt lat="44.23779" lon="2.59895">
        <ele>775.44</ele>
        <time>2022-07-12T17:01:44Z</time>
      </trkpt>
    </trkseg>
  </trk>
</gpx>